<?xml version="1.0" encoding="UTF-8" standalone="no" ?>
<gpx xmlns="http://www.topografix.com/GPX/1/1" xmlns:xsi="http://www.w3.org/2001/XMLSchema-instance" xsi:schemaLocation="http://www.topografix.com/GPX/1/1 http://www.topografix.com/GPX/1/1/gpx.xsd" version="1.1" creator="VisuGPX - https://www.visugpx.com">
  <metadata>
    <name>Randuro_Vtt_Ollieres_global</name>
    <desc><![CDATA[Randuro du 1/10/2023]]></desc>
  </metadata>
  <trk>
    <name><![CDATA[Randuro_Vtt_Ollieres_global]]></name>
    <desc><![CDATA[Randuro du 1/10/2023]]></desc>
    <extensions>
      <line xmlns="http://www.topografix.com/GPX/gpx_style/0/2">
        <width>2</width>
      </line>
    </extensions>
    <trkseg>
      <trkpt lat="44.80563" lon="4.61857">
        <ele>209.9</ele>
        <time>2023-06-14T14:01:12.703Z</time>
      </trkpt>
      <trkpt lat="44.80563" lon="4.61857">
        <ele>209.9</ele>
        <time>2023-06-14T14:01:12.703Z</time>
      </trkpt>
      <trkpt lat="44.80563" lon="4.61858">
        <ele>209.9</ele>
        <time>2023-06-14T14:01:13.020Z</time>
      </trkpt>
      <trkpt lat="44.80563" lon="4.61858">
        <ele>209.9</ele>
        <time>2023-06-14T14:01:13.020Z</time>
      </trkpt>
      <trkpt lat="44.80563" lon="4.61858">
        <ele>209.9</ele>
        <time>2023-06-14T14:01:13.020Z</time>
      </trkpt>
      <trkpt lat="44.80563" lon="4.61859">
        <ele>209.9</ele>
        <time>2023-06-14T14:01:13.338Z</time>
      </trkpt>
      <trkpt lat="44.8056" lon="4.61862">
        <ele>209.6</ele>
        <time>2023-06-14T14:01:14.976Z</time>
      </trkpt>
      <trkpt lat="44.8056" lon="4.61865">
        <ele>209.5</ele>
        <time>2023-06-14T14:01:15.923Z</time>
      </trkpt>
      <trkpt lat="44.8056" lon="4.61867">
        <ele>209.4</ele>
        <time>2023-06-14T14:01:16.558Z</time>
      </trkpt>
      <trkpt lat="44.80557" lon="4.61883">
        <ele>208.7</ele>
        <time>2023-06-14T14:01:21.785Z</time>
      </trkpt>
      <trkpt lat="44.80555" lon="4.61895">
        <ele>208.2</ele>
        <time>2023-06-14T14:01:25.679Z</time>
      </trkpt>
      <trkpt lat="44.80554" lon="4.61901">
        <ele>208</ele>
        <time>2023-06-14T14:01:27.628Z</time>
      </trkpt>
      <trkpt lat="44.80551" lon="4.61917">
        <ele>207.3</ele>
        <time>2023-06-14T14:01:32.854Z</time>
      </trkpt>
      <trkpt lat="44.8055" lon="4.61924">
        <ele>207.2</ele>
        <time>2023-06-14T14:01:35.110Z</time>
      </trkpt>
      <trkpt lat="44.80547" lon="4.6194">
        <ele>207.1</ele>
        <time>2023-06-14T14:01:40.329Z</time>
      </trkpt>
      <trkpt lat="44.80544" lon="4.61954">
        <ele>207.1</ele>
        <time>2023-06-14T14:01:44.943Z</time>
      </trkpt>
      <trkpt lat="44.80541" lon="4.61964">
        <ele>207</ele>
        <time>2023-06-14T14:01:48.371Z</time>
      </trkpt>
      <trkpt lat="44.8054" lon="4.6197">
        <ele>207.1</ele>
        <time>2023-06-14T14:01:50.315Z</time>
      </trkpt>
      <trkpt lat="44.80539" lon="4.61973">
        <ele>207.1</ele>
        <time>2023-06-14T14:01:51.362Z</time>
      </trkpt>
      <trkpt lat="44.80537" lon="4.61976">
        <ele>207.1</ele>
        <time>2023-06-14T14:01:52.659Z</time>
      </trkpt>
      <trkpt lat="44.80534" lon="4.61985">
        <ele>207.1</ele>
        <time>2023-06-14T14:01:55.797Z</time>
      </trkpt>
      <trkpt lat="44.80529" lon="4.61998">
        <ele>207.3</ele>
        <time>2023-06-14T14:02:00.460Z</time>
      </trkpt>
      <trkpt lat="44.80525" lon="4.62008">
        <ele>207.5</ele>
        <time>2023-06-14T14:02:04.087Z</time>
      </trkpt>
      <trkpt lat="44.80521" lon="4.6202">
        <ele>207.8</ele>
        <time>2023-06-14T14:02:08.274Z</time>
      </trkpt>
      <trkpt lat="44.80514" lon="4.62036">
        <ele>208.2</ele>
        <time>2023-06-14T14:02:14.202Z</time>
      </trkpt>
      <trkpt lat="44.80512" lon="4.62041">
        <ele>208.3</ele>
        <time>2023-06-14T14:02:16.011Z</time>
      </trkpt>
      <trkpt lat="44.80509" lon="4.62046">
        <ele>208.3</ele>
        <time>2023-06-14T14:02:18.076Z</time>
      </trkpt>
      <trkpt lat="44.80507" lon="4.62049">
        <ele>208.3</ele>
        <time>2023-06-14T14:02:19.379Z</time>
      </trkpt>
      <trkpt lat="44.80503" lon="4.62055">
        <ele>208.4</ele>
        <time>2023-06-14T14:02:21.974Z</time>
      </trkpt>
      <trkpt lat="44.80498" lon="4.62063">
        <ele>208.4</ele>
        <time>2023-06-14T14:02:25.344Z</time>
      </trkpt>
      <trkpt lat="44.80494" lon="4.62069">
        <ele>208.4</ele>
        <time>2023-06-14T14:02:27.935Z</time>
      </trkpt>
      <trkpt lat="44.80489" lon="4.62077">
        <ele>208.3</ele>
        <time>2023-06-14T14:02:31.301Z</time>
      </trkpt>
      <trkpt lat="44.80487" lon="4.6208">
        <ele>208.3</ele>
        <time>2023-06-14T14:02:32.604Z</time>
      </trkpt>
      <trkpt lat="44.80477" lon="4.62094">
        <ele>208</ele>
        <time>2023-06-14T14:02:38.870Z</time>
      </trkpt>
      <trkpt lat="44.80474" lon="4.62098">
        <ele>207.8</ele>
        <time>2023-06-14T14:02:40.705Z</time>
      </trkpt>
      <trkpt lat="44.80471" lon="4.62102">
        <ele>207.7</ele>
        <time>2023-06-14T14:02:42.544Z</time>
      </trkpt>
      <trkpt lat="44.80467" lon="4.62109">
        <ele>207.5</ele>
        <time>2023-06-14T14:02:45.384Z</time>
      </trkpt>
      <trkpt lat="44.80458" lon="4.62125">
        <ele>207</ele>
        <time>2023-06-14T14:02:51.829Z</time>
      </trkpt>
      <trkpt lat="44.80456" lon="4.62129">
        <ele>206.9</ele>
        <time>2023-06-14T14:02:53.374Z</time>
      </trkpt>
      <trkpt lat="44.80454" lon="4.62133">
        <ele>206.7</ele>
        <time>2023-06-14T14:02:54.914Z</time>
      </trkpt>
      <trkpt lat="44.80452" lon="4.62138">
        <ele>206.6</ele>
        <time>2023-06-14T14:02:56.732Z</time>
      </trkpt>
      <trkpt lat="44.80449" lon="4.62142">
        <ele>206.4</ele>
        <time>2023-06-14T14:02:58.568Z</time>
      </trkpt>
      <trkpt lat="44.80445" lon="4.62151">
        <ele>206.1</ele>
        <time>2023-06-14T14:03:01.920Z</time>
      </trkpt>
      <trkpt lat="44.80444" lon="4.62154">
        <ele>206</ele>
        <time>2023-06-14T14:03:02.967Z</time>
      </trkpt>
      <trkpt lat="44.80442" lon="4.62157">
        <ele>205.9</ele>
        <time>2023-06-14T14:03:04.266Z</time>
      </trkpt>
      <trkpt lat="44.8044" lon="4.62161">
        <ele>205.7</ele>
        <time>2023-06-14T14:03:05.811Z</time>
      </trkpt>
      <trkpt lat="44.80437" lon="4.62167">
        <ele>205.5</ele>
        <time>2023-06-14T14:03:08.126Z</time>
      </trkpt>
      <trkpt lat="44.80436" lon="4.62174">
        <ele>205.2</ele>
        <time>2023-06-14T14:03:10.384Z</time>
      </trkpt>
      <trkpt lat="44.80442" lon="4.62193">
        <ele>205.1</ele>
        <time>2023-06-14T14:03:16.944Z</time>
      </trkpt>
      <trkpt lat="44.80445" lon="4.6221">
        <ele>204.8</ele>
        <time>2023-06-14T14:03:22.472Z</time>
      </trkpt>
      <trkpt lat="44.80446" lon="4.62213">
        <ele>204.9</ele>
        <time>2023-06-14T14:03:23.516Z</time>
      </trkpt>
      <trkpt lat="44.8045" lon="4.62228">
        <ele>204.8</ele>
        <time>2023-06-14T14:03:28.574Z</time>
      </trkpt>
      <trkpt lat="44.80452" lon="4.62231">
        <ele>204.9</ele>
        <time>2023-06-14T14:03:29.872Z</time>
      </trkpt>
      <trkpt lat="44.80454" lon="4.62237">
        <ele>204.9</ele>
        <time>2023-06-14T14:03:31.966Z</time>
      </trkpt>
      <trkpt lat="44.80459" lon="4.62247">
        <ele>205.2</ele>
        <time>2023-06-14T14:03:35.828Z</time>
      </trkpt>
      <trkpt lat="44.80461" lon="4.62251">
        <ele>205.3</ele>
        <time>2023-06-14T14:03:37.368Z</time>
      </trkpt>
      <trkpt lat="44.80462" lon="4.62254">
        <ele>205.2</ele>
        <time>2023-06-14T14:03:38.416Z</time>
      </trkpt>
      <trkpt lat="44.80465" lon="4.62261">
        <ele>205.1</ele>
        <time>2023-06-14T14:03:40.999Z</time>
      </trkpt>
      <trkpt lat="44.80468" lon="4.62267">
        <ele>205</ele>
        <time>2023-06-14T14:03:43.315Z</time>
      </trkpt>
      <trkpt lat="44.80472" lon="4.62273">
        <ele>205.1</ele>
        <time>2023-06-14T14:03:45.911Z</time>
      </trkpt>
      <trkpt lat="44.80474" lon="4.62277">
        <ele>205</ele>
        <time>2023-06-14T14:03:47.455Z</time>
      </trkpt>
      <trkpt lat="44.80482" lon="4.62293">
        <ele>204.8</ele>
        <time>2023-06-14T14:03:53.633Z</time>
      </trkpt>
      <trkpt lat="44.80485" lon="4.623">
        <ele>204.7</ele>
        <time>2023-06-14T14:03:56.211Z</time>
      </trkpt>
      <trkpt lat="44.80486" lon="4.62303">
        <ele>204.6</ele>
        <time>2023-06-14T14:03:57.258Z</time>
      </trkpt>
      <trkpt lat="44.80488" lon="4.62307">
        <ele>204.6</ele>
        <time>2023-06-14T14:03:58.803Z</time>
      </trkpt>
      <trkpt lat="44.80499" lon="4.62315">
        <ele>205</ele>
        <time>2023-06-14T14:04:04.308Z</time>
      </trkpt>
      <trkpt lat="44.80514" lon="4.62328">
        <ele>205.8</ele>
        <time>2023-06-14T14:04:12.145Z</time>
      </trkpt>
      <trkpt lat="44.80526" lon="4.62343">
        <ele>206.3</ele>
        <time>2023-06-14T14:04:19.282Z</time>
      </trkpt>
      <trkpt lat="44.80527" lon="4.62347">
        <ele>206.1</ele>
        <time>2023-06-14T14:04:20.621Z</time>
      </trkpt>
      <trkpt lat="44.80529" lon="4.6235">
        <ele>206.2</ele>
        <time>2023-06-14T14:04:21.924Z</time>
      </trkpt>
      <trkpt lat="44.80533" lon="4.62355">
        <ele>206.4</ele>
        <time>2023-06-14T14:04:24.299Z</time>
      </trkpt>
      <trkpt lat="44.80535" lon="4.62357">
        <ele>206.5</ele>
        <time>2023-06-14T14:04:25.393Z</time>
      </trkpt>
      <trkpt lat="44.80541" lon="4.62368">
        <ele>206.8</ele>
        <time>2023-06-14T14:04:29.772Z</time>
      </trkpt>
      <trkpt lat="44.80545" lon="4.62373">
        <ele>207.1</ele>
        <time>2023-06-14T14:04:32.154Z</time>
      </trkpt>
      <trkpt lat="44.8055" lon="4.62387">
        <ele>207.2</ele>
        <time>2023-06-14T14:04:37.098Z</time>
      </trkpt>
      <trkpt lat="44.80551" lon="4.6239">
        <ele>207.3</ele>
        <time>2023-06-14T14:04:38.145Z</time>
      </trkpt>
      <trkpt lat="44.80553" lon="4.62393">
        <ele>207.5</ele>
        <time>2023-06-14T14:04:39.445Z</time>
      </trkpt>
      <trkpt lat="44.80558" lon="4.62401">
        <ele>208</ele>
        <time>2023-06-14T14:04:42.817Z</time>
      </trkpt>
      <trkpt lat="44.80567" lon="4.62413">
        <ele>209.2</ele>
        <time>2023-06-14T14:04:48.343Z</time>
      </trkpt>
      <trkpt lat="44.80575" lon="4.62423">
        <ele>210.1</ele>
        <time>2023-06-14T14:04:53.116Z</time>
      </trkpt>
      <trkpt lat="44.80577" lon="4.62426">
        <ele>210.3</ele>
        <time>2023-06-14T14:04:54.416Z</time>
      </trkpt>
      <trkpt lat="44.80594" lon="4.62451">
        <ele>211.8</ele>
        <time>2023-06-14T14:05:05.359Z</time>
      </trkpt>
      <trkpt lat="44.80605" lon="4.6247">
        <ele>212.1</ele>
        <time>2023-06-14T14:05:13.095Z</time>
      </trkpt>
      <trkpt lat="44.80608" lon="4.62476">
        <ele>212.1</ele>
        <time>2023-06-14T14:05:15.411Z</time>
      </trkpt>
      <trkpt lat="44.80619" lon="4.62494">
        <ele>211.9</ele>
        <time>2023-06-14T14:05:22.907Z</time>
      </trkpt>
      <trkpt lat="44.80624" lon="4.625">
        <ele>211.9</ele>
        <time>2023-06-14T14:05:25.832Z</time>
      </trkpt>
      <trkpt lat="44.80642" lon="4.62521">
        <ele>211.7</ele>
        <time>2023-06-14T14:05:36.216Z</time>
      </trkpt>
      <trkpt lat="44.80644" lon="4.62525">
        <ele>211.6</ele>
        <time>2023-06-14T14:05:37.766Z</time>
      </trkpt>
      <trkpt lat="44.80659" lon="4.62545">
        <ele>211.7</ele>
        <time>2023-06-14T14:05:46.943Z</time>
      </trkpt>
      <trkpt lat="44.80675" lon="4.62569">
        <ele>211.4</ele>
        <time>2023-06-14T14:05:57.338Z</time>
      </trkpt>
      <trkpt lat="44.80686" lon="4.62587">
        <ele>211.4</ele>
        <time>2023-06-14T14:06:04.830Z</time>
      </trkpt>
      <trkpt lat="44.80689" lon="4.62597">
        <ele>211.3</ele>
        <time>2023-06-14T14:06:08.259Z</time>
      </trkpt>
      <trkpt lat="44.80696" lon="4.62611">
        <ele>211.3</ele>
        <time>2023-06-14T14:06:13.664Z</time>
      </trkpt>
      <trkpt lat="44.80698" lon="4.62617">
        <ele>211.2</ele>
        <time>2023-06-14T14:06:15.755Z</time>
      </trkpt>
      <trkpt lat="44.80706" lon="4.6263">
        <ele>211.5</ele>
        <time>2023-06-14T14:06:21.182Z</time>
      </trkpt>
      <trkpt lat="44.80709" lon="4.6264">
        <ele>211.2</ele>
        <time>2023-06-14T14:06:24.612Z</time>
      </trkpt>
      <trkpt lat="44.80716" lon="4.62666">
        <ele>210.4</ele>
        <time>2023-06-14T14:06:33.393Z</time>
      </trkpt>
      <trkpt lat="44.80717" lon="4.62687">
        <ele>209.6</ele>
        <time>2023-06-14T14:06:40.043Z</time>
      </trkpt>
      <trkpt lat="44.80717" lon="4.62698">
        <ele>209.1</ele>
        <time>2023-06-14T14:06:43.518Z</time>
      </trkpt>
      <trkpt lat="44.80716" lon="4.62713">
        <ele>208.4</ele>
        <time>2023-06-14T14:06:48.280Z</time>
      </trkpt>
      <trkpt lat="44.80714" lon="4.62729">
        <ele>207.6</ele>
        <time>2023-06-14T14:06:53.416Z</time>
      </trkpt>
      <trkpt lat="44.80713" lon="4.62736">
        <ele>207.3</ele>
        <time>2023-06-14T14:06:55.673Z</time>
      </trkpt>
      <trkpt lat="44.8071" lon="4.62759">
        <ele>206.4</ele>
        <time>2023-06-14T14:07:03.059Z</time>
      </trkpt>
      <trkpt lat="44.80708" lon="4.62767">
        <ele>206.2</ele>
        <time>2023-06-14T14:07:05.737Z</time>
      </trkpt>
      <trkpt lat="44.80704" lon="4.62786">
        <ele>205.8</ele>
        <time>2023-06-14T14:07:11.989Z</time>
      </trkpt>
      <trkpt lat="44.80702" lon="4.62795">
        <ele>205.7</ele>
        <time>2023-06-14T14:07:14.967Z</time>
      </trkpt>
      <trkpt lat="44.80697" lon="4.62812">
        <ele>205.5</ele>
        <time>2023-06-14T14:07:20.772Z</time>
      </trkpt>
      <trkpt lat="44.80691" lon="4.62826">
        <ele>205.5</ele>
        <time>2023-06-14T14:07:25.933Z</time>
      </trkpt>
      <trkpt lat="44.80684" lon="4.62854">
        <ele>204.4</ele>
        <time>2023-06-14T14:07:35.311Z</time>
      </trkpt>
      <trkpt lat="44.8068" lon="4.62887">
        <ele>202.6</ele>
        <time>2023-06-14T14:07:45.896Z</time>
      </trkpt>
      <trkpt lat="44.80678" lon="4.629">
        <ele>201.9</ele>
        <time>2023-06-14T14:07:50.105Z</time>
      </trkpt>
      <trkpt lat="44.80677" lon="4.62919">
        <ele>200.7</ele>
        <time>2023-06-14T14:07:56.130Z</time>
      </trkpt>
      <trkpt lat="44.80678" lon="4.62924">
        <ele>200.2</ele>
        <time>2023-06-14T14:07:57.783Z</time>
      </trkpt>
      <trkpt lat="44.80684" lon="4.6295">
        <ele>197.6</ele>
        <time>2023-06-14T14:08:06.472Z</time>
      </trkpt>
      <trkpt lat="44.80688" lon="4.6296">
        <ele>196.6</ele>
        <time>2023-06-14T14:08:10.114Z</time>
      </trkpt>
      <trkpt lat="44.80696" lon="4.62973">
        <ele>195.5</ele>
        <time>2023-06-14T14:08:15.563Z</time>
      </trkpt>
      <trkpt lat="44.80699" lon="4.62977">
        <ele>195.3</ele>
        <time>2023-06-14T14:08:17.405Z</time>
      </trkpt>
      <trkpt lat="44.80702" lon="4.62981">
        <ele>195</ele>
        <time>2023-06-14T14:08:19.237Z</time>
      </trkpt>
      <trkpt lat="44.80712" lon="4.63002">
        <ele>193.5</ele>
        <time>2023-06-14T14:08:27.242Z</time>
      </trkpt>
      <trkpt lat="44.8072" lon="4.63011">
        <ele>192.9</ele>
        <time>2023-06-14T14:08:31.799Z</time>
      </trkpt>
      <trkpt lat="44.8073" lon="4.63018">
        <ele>192.6</ele>
        <time>2023-06-14T14:08:36.770Z</time>
      </trkpt>
      <trkpt lat="44.80741" lon="4.63024">
        <ele>192.4</ele>
        <time>2023-06-14T14:08:42.013Z</time>
      </trkpt>
      <trkpt lat="44.8075" lon="4.63027">
        <ele>192.5</ele>
        <time>2023-06-14T14:08:46.127Z</time>
      </trkpt>
      <trkpt lat="44.80764" lon="4.63029">
        <ele>193.4</ele>
        <time>2023-06-14T14:08:52.394Z</time>
      </trkpt>
      <trkpt lat="44.80772" lon="4.6303">
        <ele>193.9</ele>
        <time>2023-06-14T14:08:55.970Z</time>
      </trkpt>
      <trkpt lat="44.80804" lon="4.63034">
        <ele>196.3</ele>
        <time>2023-06-14T14:09:10.289Z</time>
      </trkpt>
      <trkpt lat="44.80809" lon="4.63036">
        <ele>196.7</ele>
        <time>2023-06-14T14:09:12.602Z</time>
      </trkpt>
      <trkpt lat="44.80817" lon="4.63042">
        <ele>197</ele>
        <time>2023-06-14T14:09:16.633Z</time>
      </trkpt>
      <trkpt lat="44.80828" lon="4.6305">
        <ele>197.7</ele>
        <time>2023-06-14T14:09:22.149Z</time>
      </trkpt>
      <trkpt lat="44.80835" lon="4.63056">
        <ele>198.1</ele>
        <time>2023-06-14T14:09:25.793Z</time>
      </trkpt>
      <trkpt lat="44.80846" lon="4.63068">
        <ele>198.6</ele>
        <time>2023-06-14T14:09:31.981Z</time>
      </trkpt>
      <trkpt lat="44.80856" lon="4.63083">
        <ele>198.7</ele>
        <time>2023-06-14T14:09:38.478Z</time>
      </trkpt>
      <trkpt lat="44.80864" lon="4.63099">
        <ele>197.5</ele>
        <time>2023-06-14T14:09:44.670Z</time>
      </trkpt>
      <trkpt lat="44.80869" lon="4.63109">
        <ele>196.9</ele>
        <time>2023-06-14T14:09:48.539Z</time>
      </trkpt>
      <trkpt lat="44.80875" lon="4.63119">
        <ele>196.2</ele>
        <time>2023-06-14T14:09:52.677Z</time>
      </trkpt>
      <trkpt lat="44.80885" lon="4.63138">
        <ele>195</ele>
        <time>2023-06-14T14:10:00.162Z</time>
      </trkpt>
      <trkpt lat="44.80894" lon="4.6315">
        <ele>194.6</ele>
        <time>2023-06-14T14:10:05.675Z</time>
      </trkpt>
      <trkpt lat="44.80898" lon="4.63159">
        <ele>194</ele>
        <time>2023-06-14T14:10:09.031Z</time>
      </trkpt>
      <trkpt lat="44.8091" lon="4.63184">
        <ele>193.1</ele>
        <time>2023-06-14T14:10:18.560Z</time>
      </trkpt>
      <trkpt lat="44.80922" lon="4.63204">
        <ele>193.3</ele>
        <time>2023-06-14T14:10:26.825Z</time>
      </trkpt>
      <trkpt lat="44.80925" lon="4.63208">
        <ele>193.5</ele>
        <time>2023-06-14T14:10:28.661Z</time>
      </trkpt>
      <trkpt lat="44.80931" lon="4.63217">
        <ele>193.8</ele>
        <time>2023-06-14T14:10:32.560Z</time>
      </trkpt>
      <trkpt lat="44.80941" lon="4.6323">
        <ele>194.5</ele>
        <time>2023-06-14T14:10:38.614Z</time>
      </trkpt>
      <trkpt lat="44.8095" lon="4.63242">
        <ele>194.9</ele>
        <time>2023-06-14T14:10:44.127Z</time>
      </trkpt>
      <trkpt lat="44.80954" lon="4.63245">
        <ele>195.3</ele>
        <time>2023-06-14T14:10:46.151Z</time>
      </trkpt>
      <trkpt lat="44.80963" lon="4.63255">
        <ele>196.1</ele>
        <time>2023-06-14T14:10:51.258Z</time>
      </trkpt>
      <trkpt lat="44.80966" lon="4.63259">
        <ele>196.5</ele>
        <time>2023-06-14T14:10:53.100Z</time>
      </trkpt>
      <trkpt lat="44.80974" lon="4.63269">
        <ele>197.5</ele>
        <time>2023-06-14T14:10:57.872Z</time>
      </trkpt>
      <trkpt lat="44.80995" lon="4.633">
        <ele>201</ele>
        <time>2023-06-14T14:11:11.471Z</time>
      </trkpt>
      <trkpt lat="44.80997" lon="4.63306">
        <ele>201.4</ele>
        <time>2023-06-14T14:11:13.562Z</time>
      </trkpt>
      <trkpt lat="44.81008" lon="4.63333">
        <ele>204.6</ele>
        <time>2023-06-14T14:11:23.471Z</time>
      </trkpt>
      <trkpt lat="44.8101" lon="4.63339">
        <ele>204.7</ele>
        <time>2023-06-14T14:11:25.562Z</time>
      </trkpt>
      <trkpt lat="44.8101" lon="4.63345">
        <ele>204</ele>
        <time>2023-06-14T14:11:27.478Z</time>
      </trkpt>
      <trkpt lat="44.81019" lon="4.63381">
        <ele>202.9</ele>
        <time>2023-06-14T14:11:39.525Z</time>
      </trkpt>
      <trkpt lat="44.81022" lon="4.63391">
        <ele>202.6</ele>
        <time>2023-06-14T14:11:42.955Z</time>
      </trkpt>
      <trkpt lat="44.8103" lon="4.63412">
        <ele>202.6</ele>
        <time>2023-06-14T14:11:50.475Z</time>
      </trkpt>
      <trkpt lat="44.81032" lon="4.63417">
        <ele>202.7</ele>
        <time>2023-06-14T14:11:52.288Z</time>
      </trkpt>
      <trkpt lat="44.81042" lon="4.63438">
        <ele>204.2</ele>
        <time>2023-06-14T14:12:00.290Z</time>
      </trkpt>
      <trkpt lat="44.81048" lon="4.63454">
        <ele>205.3</ele>
        <time>2023-06-14T14:12:06.014Z</time>
      </trkpt>
      <trkpt lat="44.81062" lon="4.63488">
        <ele>208.5</ele>
        <time>2023-06-14T14:12:18.480Z</time>
      </trkpt>
      <trkpt lat="44.81066" lon="4.63497">
        <ele>209.5</ele>
        <time>2023-06-14T14:12:21.860Z</time>
      </trkpt>
      <trkpt lat="44.81069" lon="4.63502">
        <ele>210.4</ele>
        <time>2023-06-14T14:12:23.951Z</time>
      </trkpt>
      <trkpt lat="44.81079" lon="4.63519">
        <ele>212.6</ele>
        <time>2023-06-14T14:12:30.972Z</time>
      </trkpt>
      <trkpt lat="44.81081" lon="4.63524">
        <ele>212.9</ele>
        <time>2023-06-14T14:12:32.792Z</time>
      </trkpt>
      <trkpt lat="44.81088" lon="4.6354">
        <ele>214.7</ele>
        <time>2023-06-14T14:12:38.763Z</time>
      </trkpt>
      <trkpt lat="44.81089" lon="4.63542">
        <ele>214.9</ele>
        <time>2023-06-14T14:12:39.541Z</time>
      </trkpt>
      <trkpt lat="44.81093" lon="4.63543">
        <ele>216.7</ele>
        <time>2023-06-14T14:12:41.491Z</time>
      </trkpt>
      <trkpt lat="44.81093" lon="4.63543">
        <ele>216.7</ele>
        <time>2023-06-14T14:12:41.491Z</time>
      </trkpt>
      <trkpt lat="44.81094" lon="4.63542">
        <ele>217.3</ele>
        <time>2023-06-14T14:12:42.087Z</time>
      </trkpt>
      <trkpt lat="44.81094" lon="4.63542">
        <ele>217.3</ele>
        <time>2023-06-14T14:12:42.087Z</time>
      </trkpt>
      <trkpt lat="44.81094" lon="4.63543">
        <ele>217.2</ele>
        <time>2023-06-14T14:12:42.408Z</time>
      </trkpt>
      <trkpt lat="44.81095" lon="4.63546">
        <ele>217.4</ele>
        <time>2023-06-14T14:12:43.459Z</time>
      </trkpt>
      <trkpt lat="44.81099" lon="4.63561">
        <ele>217.8</ele>
        <time>2023-06-14T14:12:48.516Z</time>
      </trkpt>
      <trkpt lat="44.81105" lon="4.63577">
        <ele>219.2</ele>
        <time>2023-06-14T14:12:54.250Z</time>
      </trkpt>
      <trkpt lat="44.81108" lon="4.63587">
        <ele>219.5</ele>
        <time>2023-06-14T14:12:57.680Z</time>
      </trkpt>
      <trkpt lat="44.81115" lon="4.63598">
        <ele>221.1</ele>
        <time>2023-06-14T14:13:02.389Z</time>
      </trkpt>
      <trkpt lat="44.81117" lon="4.63601">
        <ele>221.6</ele>
        <time>2023-06-14T14:13:03.704Z</time>
      </trkpt>
      <trkpt lat="44.81121" lon="4.6361">
        <ele>222.1</ele>
        <time>2023-06-14T14:13:07.061Z</time>
      </trkpt>
      <trkpt lat="44.81129" lon="4.63639">
        <ele>221.4</ele>
        <time>2023-06-14T14:13:16.880Z</time>
      </trkpt>
      <trkpt lat="44.81131" lon="4.63652">
        <ele>220.3</ele>
        <time>2023-06-14T14:13:21.099Z</time>
      </trkpt>
      <trkpt lat="44.81136" lon="4.6367">
        <ele>219.6</ele>
        <time>2023-06-14T14:13:27.207Z</time>
      </trkpt>
      <trkpt lat="44.8114" lon="4.63683">
        <ele>218.9</ele>
        <time>2023-06-14T14:13:31.682Z</time>
      </trkpt>
      <trkpt lat="44.81145" lon="4.63696">
        <ele>218.7</ele>
        <time>2023-06-14T14:13:36.349Z</time>
      </trkpt>
      <trkpt lat="44.81154" lon="4.63729">
        <ele>215.9</ele>
        <time>2023-06-14T14:13:47.556Z</time>
      </trkpt>
      <trkpt lat="44.81156" lon="4.63733">
        <ele>216.1</ele>
        <time>2023-06-14T14:13:49.106Z</time>
      </trkpt>
      <trkpt lat="44.81159" lon="4.63741">
        <ele>215.8</ele>
        <time>2023-06-14T14:13:51.963Z</time>
      </trkpt>
      <trkpt lat="44.81162" lon="4.63772">
        <ele>211.8</ele>
        <time>2023-06-14T14:14:01.960Z</time>
      </trkpt>
      <trkpt lat="44.81163" lon="4.63794">
        <ele>209</ele>
        <time>2023-06-14T14:14:09.007Z</time>
      </trkpt>
      <trkpt lat="44.81164" lon="4.63801">
        <ele>208.1</ele>
        <time>2023-06-14T14:14:11.282Z</time>
      </trkpt>
      <trkpt lat="44.81163" lon="4.63807">
        <ele>207</ele>
        <time>2023-06-14T14:14:13.280Z</time>
      </trkpt>
      <trkpt lat="44.81163" lon="4.63821">
        <ele>204.8</ele>
        <time>2023-06-14T14:14:17.782Z</time>
      </trkpt>
      <trkpt lat="44.81163" lon="4.63831">
        <ele>203.2</ele>
        <time>2023-06-14T14:14:21.002Z</time>
      </trkpt>
      <trkpt lat="44.81162" lon="4.63843">
        <ele>201</ele>
        <time>2023-06-14T14:14:24.922Z</time>
      </trkpt>
      <trkpt lat="44.8116" lon="4.63858">
        <ele>197.7</ele>
        <time>2023-06-14T14:14:29.905Z</time>
      </trkpt>
      <trkpt lat="44.81161" lon="4.63876">
        <ele>195.1</ele>
        <time>2023-06-14T14:14:35.697Z</time>
      </trkpt>
      <trkpt lat="44.8116" lon="4.63882">
        <ele>193.8</ele>
        <time>2023-06-14T14:14:37.716Z</time>
      </trkpt>
      <trkpt lat="44.81162" lon="4.639">
        <ele>191.1</ele>
        <time>2023-06-14T14:14:43.563Z</time>
      </trkpt>
      <trkpt lat="44.81163" lon="4.63904">
        <ele>190.6</ele>
        <time>2023-06-14T14:14:44.915Z</time>
      </trkpt>
      <trkpt lat="44.81177" lon="4.6394">
        <ele>185.7</ele>
        <time>2023-06-14T14:14:58.011Z</time>
      </trkpt>
      <trkpt lat="44.81197" lon="4.63966">
        <ele>182.3</ele>
        <time>2023-06-14T14:15:10.188Z</time>
      </trkpt>
      <trkpt lat="44.81203" lon="4.63971">
        <ele>181.9</ele>
        <time>2023-06-14T14:15:13.290Z</time>
      </trkpt>
      <trkpt lat="44.81213" lon="4.63978">
        <ele>181</ele>
        <time>2023-06-14T14:15:18.274Z</time>
      </trkpt>
      <trkpt lat="44.8122" lon="4.63981">
        <ele>180.8</ele>
        <time>2023-06-14T14:15:21.524Z</time>
      </trkpt>
      <trkpt lat="44.81226" lon="4.63983">
        <ele>180.6</ele>
        <time>2023-06-14T14:15:24.268Z</time>
      </trkpt>
      <trkpt lat="44.81229" lon="4.63983">
        <ele>180.8</ele>
        <time>2023-06-14T14:15:25.604Z</time>
      </trkpt>
      <trkpt lat="44.81243" lon="4.63986">
        <ele>181</ele>
        <time>2023-06-14T14:15:31.901Z</time>
      </trkpt>
      <trkpt lat="44.81256" lon="4.63994">
        <ele>179.4</ele>
        <time>2023-06-14T14:15:38.245Z</time>
      </trkpt>
      <trkpt lat="44.8126" lon="4.63997">
        <ele>178.7</ele>
        <time>2023-06-14T14:15:40.277Z</time>
      </trkpt>
      <trkpt lat="44.81265" lon="4.64001">
        <ele>177.6</ele>
        <time>2023-06-14T14:15:42.873Z</time>
      </trkpt>
      <trkpt lat="44.81285" lon="4.64019">
        <ele>173.9</ele>
        <time>2023-06-14T14:15:53.529Z</time>
      </trkpt>
      <trkpt lat="44.81301" lon="4.64037">
        <ele>170</ele>
        <time>2023-06-14T14:16:02.762Z</time>
      </trkpt>
      <trkpt lat="44.81306" lon="4.64047">
        <ele>167.8</ele>
        <time>2023-06-14T14:16:06.720Z</time>
      </trkpt>
      <trkpt lat="44.81312" lon="4.64056">
        <ele>165.8</ele>
        <time>2023-06-14T14:16:10.703Z</time>
      </trkpt>
      <trkpt lat="44.81319" lon="4.64068">
        <ele>163.1</ele>
        <time>2023-06-14T14:16:15.719Z</time>
      </trkpt>
      <trkpt lat="44.81322" lon="4.64073">
        <ele>161.9</ele>
        <time>2023-06-14T14:16:17.844Z</time>
      </trkpt>
      <trkpt lat="44.81344" lon="4.6411">
        <ele>162.4</ele>
        <time>2023-06-14T14:16:33.073Z</time>
      </trkpt>
      <trkpt lat="44.81359" lon="4.64133">
        <ele>165.8</ele>
        <time>2023-06-14T14:16:43.020Z</time>
      </trkpt>
      <trkpt lat="44.8137" lon="4.64147">
        <ele>168</ele>
        <time>2023-06-14T14:16:49.669Z</time>
      </trkpt>
      <trkpt lat="44.81398" lon="4.64174">
        <ele>173.5</ele>
        <time>2023-06-14T14:17:04.917Z</time>
      </trkpt>
      <trkpt lat="44.81406" lon="4.64179">
        <ele>175.2</ele>
        <time>2023-06-14T14:17:08.868Z</time>
      </trkpt>
      <trkpt lat="44.81409" lon="4.64182">
        <ele>175.9</ele>
        <time>2023-06-14T14:17:10.532Z</time>
      </trkpt>
      <trkpt lat="44.81412" lon="4.64185">
        <ele>177.1</ele>
        <time>2023-06-14T14:17:12.227Z</time>
      </trkpt>
      <trkpt lat="44.81418" lon="4.64191">
        <ele>178.3</ele>
        <time>2023-06-14T14:17:15.535Z</time>
      </trkpt>
      <trkpt lat="44.81421" lon="4.64194">
        <ele>178.8</ele>
        <time>2023-06-14T14:17:17.180Z</time>
      </trkpt>
      <trkpt lat="44.81424" lon="4.64198">
        <ele>179.4</ele>
        <time>2023-06-14T14:17:19.029Z</time>
      </trkpt>
      <trkpt lat="44.81428" lon="4.642">
        <ele>179.1</ele>
        <time>2023-06-14T14:17:20.924Z</time>
      </trkpt>
      <trkpt lat="44.81431" lon="4.64202">
        <ele>179.3</ele>
        <time>2023-06-14T14:17:22.401Z</time>
      </trkpt>
      <trkpt lat="44.81435" lon="4.64201">
        <ele>178.2</ele>
        <time>2023-06-14T14:17:24.258Z</time>
      </trkpt>
      <trkpt lat="44.81443" lon="4.64202">
        <ele>177.2</ele>
        <time>2023-06-14T14:17:27.851Z</time>
      </trkpt>
      <trkpt lat="44.81447" lon="4.64203">
        <ele>176.8</ele>
        <time>2023-06-14T14:17:29.659Z</time>
      </trkpt>
      <trkpt lat="44.81453" lon="4.64204">
        <ele>175.8</ele>
        <time>2023-06-14T14:17:32.380Z</time>
      </trkpt>
      <trkpt lat="44.81455" lon="4.64204">
        <ele>175.4</ele>
        <time>2023-06-14T14:17:33.285Z</time>
      </trkpt>
      <trkpt lat="44.81461" lon="4.64204">
        <ele>174.4</ele>
        <time>2023-06-14T14:17:35.984Z</time>
      </trkpt>
      <trkpt lat="44.8147" lon="4.64205">
        <ele>173.1</ele>
        <time>2023-06-14T14:17:40.027Z</time>
      </trkpt>
      <trkpt lat="44.81477" lon="4.64207">
        <ele>172.4</ele>
        <time>2023-06-14T14:17:43.220Z</time>
      </trkpt>
      <trkpt lat="44.81483" lon="4.6421">
        <ele>171.8</ele>
        <time>2023-06-14T14:17:46.061Z</time>
      </trkpt>
      <trkpt lat="44.81485" lon="4.64211">
        <ele>171.7</ele>
        <time>2023-06-14T14:17:47.004Z</time>
      </trkpt>
      <trkpt lat="44.81489" lon="4.64213">
        <ele>171.1</ele>
        <time>2023-06-14T14:17:48.907Z</time>
      </trkpt>
      <trkpt lat="44.81491" lon="4.64213">
        <ele>170.7</ele>
        <time>2023-06-14T14:17:49.806Z</time>
      </trkpt>
      <trkpt lat="44.81493" lon="4.64214">
        <ele>170.6</ele>
        <time>2023-06-14T14:17:50.750Z</time>
      </trkpt>
      <trkpt lat="44.81499" lon="4.64218">
        <ele>170.1</ele>
        <time>2023-06-14T14:17:53.707Z</time>
      </trkpt>
      <trkpt lat="44.81514" lon="4.64226">
        <ele>169.4</ele>
        <time>2023-06-14T14:18:00.848Z</time>
      </trkpt>
      <trkpt lat="44.81516" lon="4.64227">
        <ele>169.3</ele>
        <time>2023-06-14T14:18:01.789Z</time>
      </trkpt>
      <trkpt lat="44.81518" lon="4.64229">
        <ele>169.3</ele>
        <time>2023-06-14T14:18:02.886Z</time>
      </trkpt>
      <trkpt lat="44.81526" lon="4.64235">
        <ele>169</ele>
        <time>2023-06-14T14:18:06.915Z</time>
      </trkpt>
      <trkpt lat="44.81532" lon="4.64242">
        <ele>169</ele>
        <time>2023-06-14T14:18:10.380Z</time>
      </trkpt>
      <trkpt lat="44.81534" lon="4.64243">
        <ele>168.8</ele>
        <time>2023-06-14T14:18:11.329Z</time>
      </trkpt>
      <trkpt lat="44.81535" lon="4.64244">
        <ele>168.8</ele>
        <time>2023-06-14T14:18:11.875Z</time>
      </trkpt>
      <trkpt lat="44.81538" lon="4.64249">
        <ele>168.9</ele>
        <time>2023-06-14T14:18:13.944Z</time>
      </trkpt>
      <trkpt lat="44.8154" lon="4.64253">
        <ele>169.3</ele>
        <time>2023-06-14T14:18:15.492Z</time>
      </trkpt>
      <trkpt lat="44.81543" lon="4.64257">
        <ele>169.7</ele>
        <time>2023-06-14T14:18:17.335Z</time>
      </trkpt>
      <trkpt lat="44.81546" lon="4.64266">
        <ele>171</ele>
        <time>2023-06-14T14:18:20.518Z</time>
      </trkpt>
      <trkpt lat="44.8155" lon="4.64272">
        <ele>171.6</ele>
        <time>2023-06-14T14:18:23.129Z</time>
      </trkpt>
      <trkpt lat="44.81551" lon="4.64273">
        <ele>171.4</ele>
        <time>2023-06-14T14:18:23.673Z</time>
      </trkpt>
      <trkpt lat="44.81552" lon="4.64275">
        <ele>171.7</ele>
        <time>2023-06-14T14:18:24.460Z</time>
      </trkpt>
      <trkpt lat="44.81555" lon="4.64284">
        <ele>172.9</ele>
        <time>2023-06-14T14:18:27.630Z</time>
      </trkpt>
      <trkpt lat="44.81559" lon="4.64289">
        <ele>173.1</ele>
        <time>2023-06-14T14:18:30.013Z</time>
      </trkpt>
      <trkpt lat="44.81561" lon="4.64292">
        <ele>173.1</ele>
        <time>2023-06-14T14:18:31.310Z</time>
      </trkpt>
      <trkpt lat="44.81562" lon="4.64293">
        <ele>173.2</ele>
        <time>2023-06-14T14:18:31.850Z</time>
      </trkpt>
      <trkpt lat="44.81566" lon="4.643">
        <ele>173.5</ele>
        <time>2023-06-14T14:18:34.692Z</time>
      </trkpt>
      <trkpt lat="44.81567" lon="4.64302">
        <ele>173.8</ele>
        <time>2023-06-14T14:18:35.471Z</time>
      </trkpt>
      <trkpt lat="44.81572" lon="4.64309">
        <ele>173.8</ele>
        <time>2023-06-14T14:18:38.604Z</time>
      </trkpt>
      <trkpt lat="44.81575" lon="4.64313">
        <ele>173.7</ele>
        <time>2023-06-14T14:18:40.439Z</time>
      </trkpt>
      <trkpt lat="44.81579" lon="4.64316">
        <ele>173.2</ele>
        <time>2023-06-14T14:18:42.467Z</time>
      </trkpt>
      <trkpt lat="44.81582" lon="4.6432">
        <ele>173.1</ele>
        <time>2023-06-14T14:18:44.305Z</time>
      </trkpt>
      <trkpt lat="44.81584" lon="4.64322">
        <ele>173.1</ele>
        <time>2023-06-14T14:18:45.393Z</time>
      </trkpt>
      <trkpt lat="44.81585" lon="4.64324">
        <ele>173.1</ele>
        <time>2023-06-14T14:18:46.161Z</time>
      </trkpt>
      <trkpt lat="44.81591" lon="4.64329">
        <ele>172.9</ele>
        <time>2023-06-14T14:18:49.264Z</time>
      </trkpt>
      <trkpt lat="44.81596" lon="4.64334">
        <ele>172.9</ele>
        <time>2023-06-14T14:18:51.994Z</time>
      </trkpt>
      <trkpt lat="44.8161" lon="4.64346">
        <ele>172.1</ele>
        <time>2023-06-14T14:18:59.285Z</time>
      </trkpt>
      <trkpt lat="44.81615" lon="4.64351">
        <ele>171.8</ele>
        <time>2023-06-14T14:19:02.012Z</time>
      </trkpt>
      <trkpt lat="44.8162" lon="4.64357">
        <ele>171.7</ele>
        <time>2023-06-14T14:19:04.931Z</time>
      </trkpt>
      <trkpt lat="44.81624" lon="4.64364">
        <ele>171.6</ele>
        <time>2023-06-14T14:19:07.770Z</time>
      </trkpt>
      <trkpt lat="44.81626" lon="4.64372">
        <ele>172.1</ele>
        <time>2023-06-14T14:19:10.450Z</time>
      </trkpt>
      <trkpt lat="44.81631" lon="4.64386">
        <ele>172.4</ele>
        <time>2023-06-14T14:19:15.395Z</time>
      </trkpt>
      <trkpt lat="44.81632" lon="4.64391">
        <ele>172.7</ele>
        <time>2023-06-14T14:19:17.037Z</time>
      </trkpt>
      <trkpt lat="44.81633" lon="4.64393">
        <ele>172.6</ele>
        <time>2023-06-14T14:19:17.811Z</time>
      </trkpt>
      <trkpt lat="44.81634" lon="4.644">
        <ele>173.1</ele>
        <time>2023-06-14T14:19:20.074Z</time>
      </trkpt>
      <trkpt lat="44.81635" lon="4.64404">
        <ele>173.2</ele>
        <time>2023-06-14T14:19:21.416Z</time>
      </trkpt>
      <trkpt lat="44.81635" lon="4.64406">
        <ele>173.3</ele>
        <time>2023-06-14T14:19:22.047Z</time>
      </trkpt>
      <trkpt lat="44.81634" lon="4.64411">
        <ele>174.1</ele>
        <time>2023-06-14T14:19:23.716Z</time>
      </trkpt>
      <trkpt lat="44.81635" lon="4.64418">
        <ele>174.6</ele>
        <time>2023-06-14T14:19:25.979Z</time>
      </trkpt>
      <trkpt lat="44.81636" lon="4.64422">
        <ele>174.6</ele>
        <time>2023-06-14T14:19:27.314Z</time>
      </trkpt>
      <trkpt lat="44.81637" lon="4.64426">
        <ele>174.6</ele>
        <time>2023-06-14T14:19:28.653Z</time>
      </trkpt>
      <trkpt lat="44.81638" lon="4.64427">
        <ele>174.4</ele>
        <time>2023-06-14T14:19:29.207Z</time>
      </trkpt>
      <trkpt lat="44.81643" lon="4.64431">
        <ele>173.1</ele>
        <time>2023-06-14T14:19:31.818Z</time>
      </trkpt>
      <trkpt lat="44.81645" lon="4.64432">
        <ele>172.4</ele>
        <time>2023-06-14T14:19:32.800Z</time>
      </trkpt>
      <trkpt lat="44.81649" lon="4.64435">
        <ele>171.4</ele>
        <time>2023-06-14T14:19:34.851Z</time>
      </trkpt>
      <trkpt lat="44.8165" lon="4.64436">
        <ele>171.2</ele>
        <time>2023-06-14T14:19:35.408Z</time>
      </trkpt>
      <trkpt lat="44.81651" lon="4.64437">
        <ele>170.9</ele>
        <time>2023-06-14T14:19:35.968Z</time>
      </trkpt>
      <trkpt lat="44.81658" lon="4.64446">
        <ele>169</ele>
        <time>2023-06-14T14:19:40.248Z</time>
      </trkpt>
      <trkpt lat="44.81659" lon="4.64448">
        <ele>168.7</ele>
        <time>2023-06-14T14:19:41.025Z</time>
      </trkpt>
      <trkpt lat="44.8166" lon="4.64449">
        <ele>168.4</ele>
        <time>2023-06-14T14:19:41.584Z</time>
      </trkpt>
      <trkpt lat="44.81663" lon="4.64453">
        <ele>167.6</ele>
        <time>2023-06-14T14:19:43.450Z</time>
      </trkpt>
      <trkpt lat="44.81668" lon="4.64458">
        <ele>166.3</ele>
        <time>2023-06-14T14:19:46.231Z</time>
      </trkpt>
      <trkpt lat="44.81672" lon="4.64465">
        <ele>165.9</ele>
        <time>2023-06-14T14:19:49.065Z</time>
      </trkpt>
      <trkpt lat="44.81673" lon="4.64469">
        <ele>165.9</ele>
        <time>2023-06-14T14:19:50.406Z</time>
      </trkpt>
      <trkpt lat="44.81674" lon="4.64471">
        <ele>165.8</ele>
        <time>2023-06-14T14:19:51.179Z</time>
      </trkpt>
      <trkpt lat="44.81674" lon="4.64473">
        <ele>165.8</ele>
        <time>2023-06-14T14:19:51.815Z</time>
      </trkpt>
      <trkpt lat="44.81675" lon="4.64474">
        <ele>165.7</ele>
        <time>2023-06-14T14:19:52.356Z</time>
      </trkpt>
      <trkpt lat="44.81677" lon="4.64475">
        <ele>165.4</ele>
        <time>2023-06-14T14:19:53.306Z</time>
      </trkpt>
      <trkpt lat="44.81677" lon="4.64477">
        <ele>165.5</ele>
        <time>2023-06-14T14:19:53.936Z</time>
      </trkpt>
      <trkpt lat="44.81678" lon="4.64481">
        <ele>165.5</ele>
        <time>2023-06-14T14:19:55.277Z</time>
      </trkpt>
      <trkpt lat="44.81677" lon="4.64493">
        <ele>166</ele>
        <time>2023-06-14T14:19:59.095Z</time>
      </trkpt>
      <trkpt lat="44.81678" lon="4.64496">
        <ele>166</ele>
        <time>2023-06-14T14:20:00.142Z</time>
      </trkpt>
      <trkpt lat="44.81677" lon="4.64507">
        <ele>166.4</ele>
        <time>2023-06-14T14:20:03.645Z</time>
      </trkpt>
      <trkpt lat="44.81676" lon="4.6451">
        <ele>166.7</ele>
        <time>2023-06-14T14:20:04.693Z</time>
      </trkpt>
      <trkpt lat="44.81676" lon="4.64511">
        <ele>166.7</ele>
        <time>2023-06-14T14:20:05.006Z</time>
      </trkpt>
      <trkpt lat="44.81667" lon="4.64528">
        <ele>168.9</ele>
        <time>2023-06-14T14:20:11.760Z</time>
      </trkpt>
      <trkpt lat="44.81666" lon="4.6453">
        <ele>169.4</ele>
        <time>2023-06-14T14:20:12.552Z</time>
      </trkpt>
      <trkpt lat="44.81663" lon="4.64537">
        <ele>170.9</ele>
        <time>2023-06-14T14:20:15.201Z</time>
      </trkpt>
      <trkpt lat="44.81661" lon="4.64544">
        <ele>172</ele>
        <time>2023-06-14T14:20:17.624Z</time>
      </trkpt>
      <trkpt lat="44.81655" lon="4.64558">
        <ele>175.3</ele>
        <time>2023-06-14T14:20:22.951Z</time>
      </trkpt>
      <trkpt lat="44.81654" lon="4.64561">
        <ele>175.9</ele>
        <time>2023-06-14T14:20:24.024Z</time>
      </trkpt>
      <trkpt lat="44.81655" lon="4.64564">
        <ele>175.6</ele>
        <time>2023-06-14T14:20:25.080Z</time>
      </trkpt>
      <trkpt lat="44.81655" lon="4.64581">
        <ele>176.2</ele>
        <time>2023-06-14T14:20:30.449Z</time>
      </trkpt>
      <trkpt lat="44.81656" lon="4.64584">
        <ele>175.8</ele>
        <time>2023-06-14T14:20:31.514Z</time>
      </trkpt>
      <trkpt lat="44.81653" lon="4.64597">
        <ele>176.2</ele>
        <time>2023-06-14T14:20:35.834Z</time>
      </trkpt>
      <trkpt lat="44.81651" lon="4.64601">
        <ele>176.9</ele>
        <time>2023-06-14T14:20:37.393Z</time>
      </trkpt>
      <trkpt lat="44.81651" lon="4.64607">
        <ele>176.4</ele>
        <time>2023-06-14T14:20:39.296Z</time>
      </trkpt>
      <trkpt lat="44.8165" lon="4.64609">
        <ele>176.7</ele>
        <time>2023-06-14T14:20:40.082Z</time>
      </trkpt>
      <trkpt lat="44.81648" lon="4.6461">
        <ele>177.6</ele>
        <time>2023-06-14T14:20:41.080Z</time>
      </trkpt>
      <trkpt lat="44.81646" lon="4.64611">
        <ele>178.4</ele>
        <time>2023-06-14T14:20:42.085Z</time>
      </trkpt>
      <trkpt lat="44.81644" lon="4.64612">
        <ele>179.2</ele>
        <time>2023-06-14T14:20:43.082Z</time>
      </trkpt>
      <trkpt lat="44.81637" lon="4.64614">
        <ele>182.5</ele>
        <time>2023-06-14T14:20:46.524Z</time>
      </trkpt>
      <trkpt lat="44.81634" lon="4.64616">
        <ele>183.7</ele>
        <time>2023-06-14T14:20:48.078Z</time>
      </trkpt>
      <trkpt lat="44.81631" lon="4.64619">
        <ele>184.9</ele>
        <time>2023-06-14T14:20:49.785Z</time>
      </trkpt>
      <trkpt lat="44.81626" lon="4.64624">
        <ele>187.1</ele>
        <time>2023-06-14T14:20:52.644Z</time>
      </trkpt>
      <trkpt lat="44.81626" lon="4.6463">
        <ele>186.8</ele>
        <time>2023-06-14T14:20:54.541Z</time>
      </trkpt>
      <trkpt lat="44.81625" lon="4.64633">
        <ele>187</ele>
        <time>2023-06-14T14:20:55.589Z</time>
      </trkpt>
      <trkpt lat="44.81623" lon="4.64637">
        <ele>187.7</ele>
        <time>2023-06-14T14:20:57.164Z</time>
      </trkpt>
      <trkpt lat="44.81622" lon="4.6464">
        <ele>188.1</ele>
        <time>2023-06-14T14:20:58.215Z</time>
      </trkpt>
      <trkpt lat="44.81622" lon="4.64652">
        <ele>187.4</ele>
        <time>2023-06-14T14:21:02.006Z</time>
      </trkpt>
      <trkpt lat="44.81623" lon="4.64654">
        <ele>186.8</ele>
        <time>2023-06-14T14:21:02.819Z</time>
      </trkpt>
      <trkpt lat="44.81624" lon="4.64666">
        <ele>185.6</ele>
        <time>2023-06-14T14:21:06.661Z</time>
      </trkpt>
      <trkpt lat="44.81623" lon="4.64674">
        <ele>185.8</ele>
        <time>2023-06-14T14:21:09.224Z</time>
      </trkpt>
      <trkpt lat="44.81624" lon="4.64676">
        <ele>185.2</ele>
        <time>2023-06-14T14:21:10.029Z</time>
      </trkpt>
      <trkpt lat="44.81625" lon="4.6468">
        <ele>184.6</ele>
        <time>2023-06-14T14:21:11.391Z</time>
      </trkpt>
      <trkpt lat="44.81629" lon="4.64698">
        <ele>182</ele>
        <time>2023-06-14T14:21:17.426Z</time>
      </trkpt>
      <trkpt lat="44.8163" lon="4.64703">
        <ele>181.4</ele>
        <time>2023-06-14T14:21:19.087Z</time>
      </trkpt>
      <trkpt lat="44.8163" lon="4.64705">
        <ele>181.4</ele>
        <time>2023-06-14T14:21:19.716Z</time>
      </trkpt>
      <trkpt lat="44.8163" lon="4.64708">
        <ele>181.3</ele>
        <time>2023-06-14T14:21:20.663Z</time>
      </trkpt>
      <trkpt lat="44.8163" lon="4.64715">
        <ele>181.1</ele>
        <time>2023-06-14T14:21:22.875Z</time>
      </trkpt>
      <trkpt lat="44.81628" lon="4.64718">
        <ele>182</ele>
        <time>2023-06-14T14:21:24.212Z</time>
      </trkpt>
      <trkpt lat="44.81626" lon="4.64726">
        <ele>182.8</ele>
        <time>2023-06-14T14:21:26.914Z</time>
      </trkpt>
      <trkpt lat="44.81626" lon="4.64731">
        <ele>182.6</ele>
        <time>2023-06-14T14:21:28.491Z</time>
      </trkpt>
      <trkpt lat="44.81627" lon="4.64731">
        <ele>182.2</ele>
        <time>2023-06-14T14:21:28.973Z</time>
      </trkpt>
      <trkpt lat="44.81625" lon="4.64733">
        <ele>183</ele>
        <time>2023-06-14T14:21:30.108Z</time>
      </trkpt>
      <trkpt lat="44.81621" lon="4.64738">
        <ele>184.7</ele>
        <time>2023-06-14T14:21:32.581Z</time>
      </trkpt>
      <trkpt lat="44.81617" lon="4.64741">
        <ele>186.3</ele>
        <time>2023-06-14T14:21:34.701Z</time>
      </trkpt>
      <trkpt lat="44.81614" lon="4.64744">
        <ele>187.7</ele>
        <time>2023-06-14T14:21:36.423Z</time>
      </trkpt>
      <trkpt lat="44.81613" lon="4.64747">
        <ele>188</ele>
        <time>2023-06-14T14:21:37.476Z</time>
      </trkpt>
      <trkpt lat="44.81611" lon="4.64748">
        <ele>188.8</ele>
        <time>2023-06-14T14:21:38.480Z</time>
      </trkpt>
      <trkpt lat="44.81609" lon="4.6475">
        <ele>189.6</ele>
        <time>2023-06-14T14:21:39.610Z</time>
      </trkpt>
      <trkpt lat="44.81608" lon="4.64752">
        <ele>190</ele>
        <time>2023-06-14T14:21:40.403Z</time>
      </trkpt>
      <trkpt lat="44.81605" lon="4.64756">
        <ele>191.2</ele>
        <time>2023-06-14T14:21:42.296Z</time>
      </trkpt>
      <trkpt lat="44.81604" lon="4.64758">
        <ele>191.6</ele>
        <time>2023-06-14T14:21:43.087Z</time>
      </trkpt>
      <trkpt lat="44.81595" lon="4.64768">
        <ele>195.3</ele>
        <time>2023-06-14T14:21:48.397Z</time>
      </trkpt>
      <trkpt lat="44.81593" lon="4.6477">
        <ele>196.1</ele>
        <time>2023-06-14T14:21:49.527Z</time>
      </trkpt>
      <trkpt lat="44.81592" lon="4.64771">
        <ele>196.5</ele>
        <time>2023-06-14T14:21:50.096Z</time>
      </trkpt>
      <trkpt lat="44.81589" lon="4.6477">
        <ele>197.8</ele>
        <time>2023-06-14T14:21:51.563Z</time>
      </trkpt>
      <trkpt lat="44.81586" lon="4.64768">
        <ele>199.3</ele>
        <time>2023-06-14T14:21:53.154Z</time>
      </trkpt>
      <trkpt lat="44.81585" lon="4.64765">
        <ele>199.8</ele>
        <time>2023-06-14T14:21:54.221Z</time>
      </trkpt>
      <trkpt lat="44.81586" lon="4.64762">
        <ele>199.4</ele>
        <time>2023-06-14T14:21:55.276Z</time>
      </trkpt>
      <trkpt lat="44.81586" lon="4.6476">
        <ele>199.5</ele>
        <time>2023-06-14T14:21:55.906Z</time>
      </trkpt>
      <trkpt lat="44.81586" lon="4.64759">
        <ele>199.5</ele>
        <time>2023-06-14T14:21:56.224Z</time>
      </trkpt>
      <trkpt lat="44.81588" lon="4.64753">
        <ele>198.7</ele>
        <time>2023-06-14T14:21:58.338Z</time>
      </trkpt>
      <trkpt lat="44.81591" lon="4.64747">
        <ele>197.7</ele>
        <time>2023-06-14T14:22:00.689Z</time>
      </trkpt>
      <trkpt lat="44.81592" lon="4.64745">
        <ele>197.4</ele>
        <time>2023-06-14T14:22:01.474Z</time>
      </trkpt>
      <trkpt lat="44.81593" lon="4.64742">
        <ele>197.1</ele>
        <time>2023-06-14T14:22:02.528Z</time>
      </trkpt>
      <trkpt lat="44.81594" lon="4.64739">
        <ele>196.8</ele>
        <time>2023-06-14T14:22:03.576Z</time>
      </trkpt>
      <trkpt lat="44.81595" lon="4.64737">
        <ele>196.5</ele>
        <time>2023-06-14T14:22:04.363Z</time>
      </trkpt>
      <trkpt lat="44.81595" lon="4.64734">
        <ele>196.7</ele>
        <time>2023-06-14T14:22:05.313Z</time>
      </trkpt>
      <trkpt lat="44.81596" lon="4.64732">
        <ele>196.3</ele>
        <time>2023-06-14T14:22:06.100Z</time>
      </trkpt>
      <trkpt lat="44.81597" lon="4.64727">
        <ele>196.1</ele>
        <time>2023-06-14T14:22:07.742Z</time>
      </trkpt>
      <trkpt lat="44.816" lon="4.64719">
        <ele>195.1</ele>
        <time>2023-06-14T14:22:10.623Z</time>
      </trkpt>
      <trkpt lat="44.81601" lon="4.64715">
        <ele>194.7</ele>
        <time>2023-06-14T14:22:11.969Z</time>
      </trkpt>
      <trkpt lat="44.81602" lon="4.64709">
        <ele>194.6</ele>
        <time>2023-06-14T14:22:13.915Z</time>
      </trkpt>
      <trkpt lat="44.81603" lon="4.64705">
        <ele>194.3</ele>
        <time>2023-06-14T14:22:15.258Z</time>
      </trkpt>
      <trkpt lat="44.81603" lon="4.64703">
        <ele>194.3</ele>
        <time>2023-06-14T14:22:15.888Z</time>
      </trkpt>
      <trkpt lat="44.81603" lon="4.64699">
        <ele>194.6</ele>
        <time>2023-06-14T14:22:17.155Z</time>
      </trkpt>
      <trkpt lat="44.81602" lon="4.64697">
        <ele>195.1</ele>
        <time>2023-06-14T14:22:17.952Z</time>
      </trkpt>
      <trkpt lat="44.816" lon="4.64693">
        <ele>196.4</ele>
        <time>2023-06-14T14:22:19.584Z</time>
      </trkpt>
      <trkpt lat="44.81599" lon="4.64692">
        <ele>196.9</ele>
        <time>2023-06-14T14:22:20.164Z</time>
      </trkpt>
      <trkpt lat="44.81597" lon="4.64683">
        <ele>198.3</ele>
        <time>2023-06-14T14:22:23.194Z</time>
      </trkpt>
      <trkpt lat="44.81592" lon="4.64672">
        <ele>201.3</ele>
        <time>2023-06-14T14:22:27.485Z</time>
      </trkpt>
      <trkpt lat="44.8159" lon="4.6467">
        <ele>202.4</ele>
        <time>2023-06-14T14:22:28.661Z</time>
      </trkpt>
      <trkpt lat="44.8159" lon="4.64668">
        <ele>202.5</ele>
        <time>2023-06-14T14:22:29.291Z</time>
      </trkpt>
      <trkpt lat="44.81589" lon="4.64665">
        <ele>203.1</ele>
        <time>2023-06-14T14:22:30.372Z</time>
      </trkpt>
      <trkpt lat="44.81589" lon="4.64664">
        <ele>203.1</ele>
        <time>2023-06-14T14:22:30.689Z</time>
      </trkpt>
      <trkpt lat="44.81589" lon="4.64659">
        <ele>203.4</ele>
        <time>2023-06-14T14:22:32.267Z</time>
      </trkpt>
      <trkpt lat="44.81588" lon="4.64654">
        <ele>204</ele>
        <time>2023-06-14T14:22:33.928Z</time>
      </trkpt>
      <trkpt lat="44.81587" lon="4.64652">
        <ele>204.6</ele>
        <time>2023-06-14T14:22:34.735Z</time>
      </trkpt>
      <trkpt lat="44.81585" lon="4.64651">
        <ele>205.8</ele>
        <time>2023-06-14T14:22:35.784Z</time>
      </trkpt>
      <trkpt lat="44.81583" lon="4.64651">
        <ele>206.7</ele>
        <time>2023-06-14T14:22:36.748Z</time>
      </trkpt>
      <trkpt lat="44.81578" lon="4.64647">
        <ele>208.8</ele>
        <time>2023-06-14T14:22:39.444Z</time>
      </trkpt>
      <trkpt lat="44.81571" lon="4.64643">
        <ele>212</ele>
        <time>2023-06-14T14:22:43.027Z</time>
      </trkpt>
      <trkpt lat="44.81569" lon="4.6464">
        <ele>212.8</ele>
        <time>2023-06-14T14:22:44.371Z</time>
      </trkpt>
      <trkpt lat="44.81568" lon="4.64638">
        <ele>213.3</ele>
        <time>2023-06-14T14:22:45.167Z</time>
      </trkpt>
      <trkpt lat="44.81567" lon="4.64632">
        <ele>213.9</ele>
        <time>2023-06-14T14:22:47.125Z</time>
      </trkpt>
      <trkpt lat="44.81568" lon="4.64631">
        <ele>213.5</ele>
        <time>2023-06-14T14:22:47.682Z</time>
      </trkpt>
      <trkpt lat="44.81568" lon="4.64626">
        <ele>213.7</ele>
        <time>2023-06-14T14:22:49.265Z</time>
      </trkpt>
      <trkpt lat="44.81568" lon="4.64621">
        <ele>213.8</ele>
        <time>2023-06-14T14:22:50.841Z</time>
      </trkpt>
      <trkpt lat="44.81567" lon="4.64618">
        <ele>214.3</ele>
        <time>2023-06-14T14:22:51.904Z</time>
      </trkpt>
      <trkpt lat="44.81568" lon="4.64613">
        <ele>214</ele>
        <time>2023-06-14T14:22:53.543Z</time>
      </trkpt>
      <trkpt lat="44.81567" lon="4.64611">
        <ele>214.5</ele>
        <time>2023-06-14T14:22:54.330Z</time>
      </trkpt>
      <trkpt lat="44.81566" lon="4.64607">
        <ele>215</ele>
        <time>2023-06-14T14:22:55.685Z</time>
      </trkpt>
      <trkpt lat="44.81565" lon="4.64603">
        <ele>215.5</ele>
        <time>2023-06-14T14:22:57.040Z</time>
      </trkpt>
      <trkpt lat="44.81564" lon="4.64601">
        <ele>215.9</ele>
        <time>2023-06-14T14:22:57.829Z</time>
      </trkpt>
      <trkpt lat="44.81562" lon="4.64599">
        <ele>216.7</ele>
        <time>2023-06-14T14:22:58.969Z</time>
      </trkpt>
      <trkpt lat="44.8156" lon="4.64597">
        <ele>217.5</ele>
        <time>2023-06-14T14:23:00.106Z</time>
      </trkpt>
      <trkpt lat="44.81556" lon="4.64594">
        <ele>219.2</ele>
        <time>2023-06-14T14:23:02.230Z</time>
      </trkpt>
      <trkpt lat="44.81555" lon="4.6459">
        <ele>219.7</ele>
        <time>2023-06-14T14:23:03.584Z</time>
      </trkpt>
      <trkpt lat="44.81552" lon="4.64585">
        <ele>221</ele>
        <time>2023-06-14T14:23:05.709Z</time>
      </trkpt>
      <trkpt lat="44.8155" lon="4.64577">
        <ele>221.1</ele>
        <time>2023-06-14T14:23:08.384Z</time>
      </trkpt>
      <trkpt lat="44.81548" lon="4.64572">
        <ele>221.4</ele>
        <time>2023-06-14T14:23:10.203Z</time>
      </trkpt>
      <trkpt lat="44.81548" lon="4.6457">
        <ele>221.1</ele>
        <time>2023-06-14T14:23:10.840Z</time>
      </trkpt>
      <trkpt lat="44.81547" lon="4.64568">
        <ele>221.4</ele>
        <time>2023-06-14T14:23:11.614Z</time>
      </trkpt>
      <trkpt lat="44.81546" lon="4.64565">
        <ele>221.5</ele>
        <time>2023-06-14T14:23:12.661Z</time>
      </trkpt>
      <trkpt lat="44.81546" lon="4.64559">
        <ele>220.8</ele>
        <time>2023-06-14T14:23:14.571Z</time>
      </trkpt>
      <trkpt lat="44.81545" lon="4.64557">
        <ele>220.9</ele>
        <time>2023-06-14T14:23:15.349Z</time>
      </trkpt>
      <trkpt lat="44.81543" lon="4.64555">
        <ele>221.6</ele>
        <time>2023-06-14T14:23:16.470Z</time>
      </trkpt>
      <trkpt lat="44.81539" lon="4.64549">
        <ele>222.3</ele>
        <time>2023-06-14T14:23:19.085Z</time>
      </trkpt>
      <trkpt lat="44.81537" lon="4.64544">
        <ele>222.4</ele>
        <time>2023-06-14T14:23:20.894Z</time>
      </trkpt>
      <trkpt lat="44.81536" lon="4.64537">
        <ele>222.1</ele>
        <time>2023-06-14T14:23:23.154Z</time>
      </trkpt>
      <trkpt lat="44.81536" lon="4.64535">
        <ele>221.9</ele>
        <time>2023-06-14T14:23:23.786Z</time>
      </trkpt>
      <trkpt lat="44.81532" lon="4.64523">
        <ele>221.8</ele>
        <time>2023-06-14T14:23:27.968Z</time>
      </trkpt>
      <trkpt lat="44.8153" lon="4.64514">
        <ele>221.5</ele>
        <time>2023-06-14T14:23:30.945Z</time>
      </trkpt>
      <trkpt lat="44.81529" lon="4.64504">
        <ele>220.8</ele>
        <time>2023-06-14T14:23:34.143Z</time>
      </trkpt>
      <trkpt lat="44.81527" lon="4.64493">
        <ele>219.6</ele>
        <time>2023-06-14T14:23:37.751Z</time>
      </trkpt>
      <trkpt lat="44.81527" lon="4.64483">
        <ele>218.2</ele>
        <time>2023-06-14T14:23:40.961Z</time>
      </trkpt>
      <trkpt lat="44.81526" lon="4.64462">
        <ele>214.9</ele>
        <time>2023-06-14T14:23:47.722Z</time>
      </trkpt>
      <trkpt lat="44.81526" lon="4.64459">
        <ele>214.5</ele>
        <time>2023-06-14T14:23:48.684Z</time>
      </trkpt>
      <trkpt lat="44.81519" lon="4.64436">
        <ele>213.1</ele>
        <time>2023-06-14T14:23:56.600Z</time>
      </trkpt>
      <trkpt lat="44.81513" lon="4.64424">
        <ele>213</ele>
        <time>2023-06-14T14:24:01.233Z</time>
      </trkpt>
      <trkpt lat="44.81509" lon="4.64414">
        <ele>212.6</ele>
        <time>2023-06-14T14:24:04.858Z</time>
      </trkpt>
      <trkpt lat="44.81504" lon="4.6441">
        <ele>213.2</ele>
        <time>2023-06-14T14:24:07.424Z</time>
      </trkpt>
      <trkpt lat="44.81499" lon="4.64405">
        <ele>213.7</ele>
        <time>2023-06-14T14:24:10.164Z</time>
      </trkpt>
      <trkpt lat="44.81495" lon="4.64399">
        <ele>213.7</ele>
        <time>2023-06-14T14:24:12.759Z</time>
      </trkpt>
      <trkpt lat="44.81493" lon="4.64397">
        <ele>214.2</ele>
        <time>2023-06-14T14:24:13.867Z</time>
      </trkpt>
      <trkpt lat="44.81486" lon="4.64389">
        <ele>214.7</ele>
        <time>2023-06-14T14:24:17.875Z</time>
      </trkpt>
      <trkpt lat="44.8148" lon="4.64385">
        <ele>215.8</ele>
        <time>2023-06-14T14:24:20.865Z</time>
      </trkpt>
      <trkpt lat="44.81462" lon="4.64371">
        <ele>218.8</ele>
        <time>2023-06-14T14:24:30.084Z</time>
      </trkpt>
      <trkpt lat="44.81449" lon="4.64358">
        <ele>219.5</ele>
        <time>2023-06-14T14:24:37.173Z</time>
      </trkpt>
      <trkpt lat="44.81442" lon="4.64352">
        <ele>219.9</ele>
        <time>2023-06-14T14:24:40.823Z</time>
      </trkpt>
      <trkpt lat="44.81435" lon="4.64346">
        <ele>220.1</ele>
        <time>2023-06-14T14:24:44.463Z</time>
      </trkpt>
      <trkpt lat="44.81411" lon="4.64331">
        <ele>222.3</ele>
        <time>2023-06-14T14:24:56.175Z</time>
      </trkpt>
      <trkpt lat="44.81396" lon="4.64329">
        <ele>224.6</ele>
        <time>2023-06-14T14:25:02.938Z</time>
      </trkpt>
      <trkpt lat="44.81394" lon="4.64331">
        <ele>225.9</ele>
        <time>2023-06-14T14:25:04.148Z</time>
      </trkpt>
      <trkpt lat="44.81384" lon="4.64344">
        <ele>233</ele>
        <time>2023-06-14T14:25:10.833Z</time>
      </trkpt>
      <trkpt lat="44.81378" lon="4.64358">
        <ele>240.1</ele>
        <time>2023-06-14T14:25:16.710Z</time>
      </trkpt>
      <trkpt lat="44.81375" lon="4.64362">
        <ele>242.3</ele>
        <time>2023-06-14T14:25:18.760Z</time>
      </trkpt>
      <trkpt lat="44.81374" lon="4.64364">
        <ele>243.1</ele>
        <time>2023-06-14T14:25:19.591Z</time>
      </trkpt>
      <trkpt lat="44.81365" lon="4.64377">
        <ele>250.7</ele>
        <time>2023-06-14T14:25:26.079Z</time>
      </trkpt>
      <trkpt lat="44.81363" lon="4.64378">
        <ele>251.9</ele>
        <time>2023-06-14T14:25:27.131Z</time>
      </trkpt>
      <trkpt lat="44.81359" lon="4.64381">
        <ele>254.1</ele>
        <time>2023-06-14T14:25:29.330Z</time>
      </trkpt>
      <trkpt lat="44.81352" lon="4.64386">
        <ele>258.3</ele>
        <time>2023-06-14T14:25:33.200Z</time>
      </trkpt>
      <trkpt lat="44.81346" lon="4.64388">
        <ele>261.2</ele>
        <time>2023-06-14T14:25:36.177Z</time>
      </trkpt>
      <trkpt lat="44.81335" lon="4.64396">
        <ele>268</ele>
        <time>2023-06-14T14:25:42.322Z</time>
      </trkpt>
      <trkpt lat="44.81331" lon="4.64397">
        <ele>268.8</ele>
        <time>2023-06-14T14:25:44.152Z</time>
      </trkpt>
      <trkpt lat="44.81326" lon="4.64398">
        <ele>268.2</ele>
        <time>2023-06-14T14:25:46.410Z</time>
      </trkpt>
      <trkpt lat="44.8132" lon="4.64399">
        <ele>268</ele>
        <time>2023-06-14T14:25:49.098Z</time>
      </trkpt>
      <trkpt lat="44.81318" lon="4.644">
        <ele>268.3</ele>
        <time>2023-06-14T14:25:50.059Z</time>
      </trkpt>
      <trkpt lat="44.81313" lon="4.64402">
        <ele>268.3</ele>
        <time>2023-06-14T14:25:52.368Z</time>
      </trkpt>
      <trkpt lat="44.8131" lon="4.64404">
        <ele>269.2</ele>
        <time>2023-06-14T14:25:53.887Z</time>
      </trkpt>
      <trkpt lat="44.81303" lon="4.64405">
        <ele>269</ele>
        <time>2023-06-14T14:25:57.013Z</time>
      </trkpt>
      <trkpt lat="44.81302" lon="4.64405">
        <ele>268.9</ele>
        <time>2023-06-14T14:25:57.463Z</time>
      </trkpt>
      <trkpt lat="44.81292" lon="4.64409">
        <ele>269.6</ele>
        <time>2023-06-14T14:26:02.099Z</time>
      </trkpt>
      <trkpt lat="44.81291" lon="4.6441">
        <ele>270.1</ele>
        <time>2023-06-14T14:26:02.683Z</time>
      </trkpt>
      <trkpt lat="44.81287" lon="4.64413">
        <ele>271</ele>
        <time>2023-06-14T14:26:04.730Z</time>
      </trkpt>
      <trkpt lat="44.81284" lon="4.64416">
        <ele>272</ele>
        <time>2023-06-14T14:26:06.412Z</time>
      </trkpt>
      <trkpt lat="44.81282" lon="4.64418">
        <ele>273</ele>
        <time>2023-06-14T14:26:07.574Z</time>
      </trkpt>
      <trkpt lat="44.81278" lon="4.6442">
        <ele>273.1</ele>
        <time>2023-06-14T14:26:09.464Z</time>
      </trkpt>
      <trkpt lat="44.81277" lon="4.64422">
        <ele>274.2</ele>
        <time>2023-06-14T14:26:10.333Z</time>
      </trkpt>
      <trkpt lat="44.81275" lon="4.64422">
        <ele>274</ele>
        <time>2023-06-14T14:26:11.231Z</time>
      </trkpt>
      <trkpt lat="44.81269" lon="4.64427">
        <ele>275.7</ele>
        <time>2023-06-14T14:26:14.413Z</time>
      </trkpt>
      <trkpt lat="44.81257" lon="4.64431">
        <ele>276.6</ele>
        <time>2023-06-14T14:26:19.907Z</time>
      </trkpt>
      <trkpt lat="44.81251" lon="4.64433">
        <ele>276.8</ele>
        <time>2023-06-14T14:26:22.644Z</time>
      </trkpt>
      <trkpt lat="44.81243" lon="4.64433">
        <ele>275.1</ele>
        <time>2023-06-14T14:26:26.266Z</time>
      </trkpt>
      <trkpt lat="44.81226" lon="4.64428">
        <ele>268.6</ele>
        <time>2023-06-14T14:26:34.414Z</time>
      </trkpt>
      <trkpt lat="44.81218" lon="4.64425">
        <ele>265.4</ele>
        <time>2023-06-14T14:26:38.315Z</time>
      </trkpt>
      <trkpt lat="44.81213" lon="4.64424">
        <ele>263.6</ele>
        <time>2023-06-14T14:26:40.673Z</time>
      </trkpt>
      <trkpt lat="44.81209" lon="4.64424">
        <ele>262.6</ele>
        <time>2023-06-14T14:26:42.499Z</time>
      </trkpt>
      <trkpt lat="44.81202" lon="4.64423">
        <ele>261</ele>
        <time>2023-06-14T14:26:45.688Z</time>
      </trkpt>
      <trkpt lat="44.81196" lon="4.64424">
        <ele>259.5</ele>
        <time>2023-06-14T14:26:48.438Z</time>
      </trkpt>
      <trkpt lat="44.81189" lon="4.64425">
        <ele>258.6</ele>
        <time>2023-06-14T14:26:51.590Z</time>
      </trkpt>
      <trkpt lat="44.81182" lon="4.64426">
        <ele>257.7</ele>
        <time>2023-06-14T14:26:54.738Z</time>
      </trkpt>
      <trkpt lat="44.81175" lon="4.64426">
        <ele>256.1</ele>
        <time>2023-06-14T14:26:57.918Z</time>
      </trkpt>
      <trkpt lat="44.81173" lon="4.64426">
        <ele>255.7</ele>
        <time>2023-06-14T14:26:58.823Z</time>
      </trkpt>
      <trkpt lat="44.81165" lon="4.64431">
        <ele>257.1</ele>
        <time>2023-06-14T14:27:02.761Z</time>
      </trkpt>
      <trkpt lat="44.81163" lon="4.64432">
        <ele>257.1</ele>
        <time>2023-06-14T14:27:03.704Z</time>
      </trkpt>
      <trkpt lat="44.81154" lon="4.64436">
        <ele>259.9</ele>
        <time>2023-06-14T14:27:08.046Z</time>
      </trkpt>
      <trkpt lat="44.81148" lon="4.64439">
        <ele>261.1</ele>
        <time>2023-06-14T14:27:10.921Z</time>
      </trkpt>
      <trkpt lat="44.81141" lon="4.64441">
        <ele>261.6</ele>
        <time>2023-06-14T14:27:14.100Z</time>
      </trkpt>
      <trkpt lat="44.81136" lon="4.64441">
        <ele>261.5</ele>
        <time>2023-06-14T14:27:16.322Z</time>
      </trkpt>
      <trkpt lat="44.81134" lon="4.64443">
        <ele>262.7</ele>
        <time>2023-06-14T14:27:17.511Z</time>
      </trkpt>
      <trkpt lat="44.81128" lon="4.64446">
        <ele>263.7</ele>
        <time>2023-06-14T14:27:20.369Z</time>
      </trkpt>
      <trkpt lat="44.81118" lon="4.64452">
        <ele>266</ele>
        <time>2023-06-14T14:27:25.289Z</time>
      </trkpt>
      <trkpt lat="44.81111" lon="4.64457">
        <ele>267.6</ele>
        <time>2023-06-14T14:27:28.842Z</time>
      </trkpt>
      <trkpt lat="44.8111" lon="4.64458">
        <ele>267.6</ele>
        <time>2023-06-14T14:27:29.385Z</time>
      </trkpt>
      <trkpt lat="44.81108" lon="4.64461">
        <ele>268.9</ele>
        <time>2023-06-14T14:27:30.797Z</time>
      </trkpt>
      <trkpt lat="44.81103" lon="4.64466">
        <ele>270.5</ele>
        <time>2023-06-14T14:27:33.588Z</time>
      </trkpt>
      <trkpt lat="44.81099" lon="4.64471">
        <ele>271.4</ele>
        <time>2023-06-14T14:27:35.998Z</time>
      </trkpt>
      <trkpt lat="44.81097" lon="4.64473">
        <ele>272.1</ele>
        <time>2023-06-14T14:27:37.124Z</time>
      </trkpt>
      <trkpt lat="44.81093" lon="4.64477">
        <ele>273</ele>
        <time>2023-06-14T14:27:39.327Z</time>
      </trkpt>
      <trkpt lat="44.8109" lon="4.64479">
        <ele>273.5</ele>
        <time>2023-06-14T14:27:40.817Z</time>
      </trkpt>
      <trkpt lat="44.81086" lon="4.64484">
        <ele>274.1</ele>
        <time>2023-06-14T14:27:43.210Z</time>
      </trkpt>
      <trkpt lat="44.81085" lon="4.64485">
        <ele>274.4</ele>
        <time>2023-06-14T14:27:43.768Z</time>
      </trkpt>
      <trkpt lat="44.81084" lon="4.64485">
        <ele>274.2</ele>
        <time>2023-06-14T14:27:44.212Z</time>
      </trkpt>
      <trkpt lat="44.81083" lon="4.64485">
        <ele>274.1</ele>
        <time>2023-06-14T14:27:44.662Z</time>
      </trkpt>
      <trkpt lat="44.81078" lon="4.64486">
        <ele>274.4</ele>
        <time>2023-06-14T14:27:46.908Z</time>
      </trkpt>
      <trkpt lat="44.81075" lon="4.64483">
        <ele>273.5</ele>
        <time>2023-06-14T14:27:48.581Z</time>
      </trkpt>
      <trkpt lat="44.81073" lon="4.64482">
        <ele>273.1</ele>
        <time>2023-06-14T14:27:49.546Z</time>
      </trkpt>
      <trkpt lat="44.81072" lon="4.64481">
        <ele>272.6</ele>
        <time>2023-06-14T14:27:50.115Z</time>
      </trkpt>
      <trkpt lat="44.81065" lon="4.64474">
        <ele>270.5</ele>
        <time>2023-06-14T14:27:54.029Z</time>
      </trkpt>
      <trkpt lat="44.81063" lon="4.64471">
        <ele>269.3</ele>
        <time>2023-06-14T14:27:55.415Z</time>
      </trkpt>
      <trkpt lat="44.81053" lon="4.64469">
        <ele>268.7</ele>
        <time>2023-06-14T14:27:59.915Z</time>
      </trkpt>
      <trkpt lat="44.81048" lon="4.64469">
        <ele>268.6</ele>
        <time>2023-06-14T14:28:02.137Z</time>
      </trkpt>
      <trkpt lat="44.81042" lon="4.64467">
        <ele>267.8</ele>
        <time>2023-06-14T14:28:04.901Z</time>
      </trkpt>
      <trkpt lat="44.8104" lon="4.64467">
        <ele>267.7</ele>
        <time>2023-06-14T14:28:05.788Z</time>
      </trkpt>
      <trkpt lat="44.81038" lon="4.64466">
        <ele>267.7</ele>
        <time>2023-06-14T14:28:06.730Z</time>
      </trkpt>
      <trkpt lat="44.81029" lon="4.64465">
        <ele>267.2</ele>
        <time>2023-06-14T14:28:10.751Z</time>
      </trkpt>
      <trkpt lat="44.81026" lon="4.64464">
        <ele>266.8</ele>
        <time>2023-06-14T14:28:12.131Z</time>
      </trkpt>
      <trkpt lat="44.81015" lon="4.64461">
        <ele>265.9</ele>
        <time>2023-06-14T14:28:17.125Z</time>
      </trkpt>
      <trkpt lat="44.81012" lon="4.6446">
        <ele>265.5</ele>
        <time>2023-06-14T14:28:18.505Z</time>
      </trkpt>
      <trkpt lat="44.81009" lon="4.6446">
        <ele>265.5</ele>
        <time>2023-06-14T14:28:19.840Z</time>
      </trkpt>
      <trkpt lat="44.81004" lon="4.6446">
        <ele>265.4</ele>
        <time>2023-06-14T14:28:22.069Z</time>
      </trkpt>
      <trkpt lat="44.81001" lon="4.64459">
        <ele>265</ele>
        <time>2023-06-14T14:28:23.441Z</time>
      </trkpt>
      <trkpt lat="44.80999" lon="4.64458">
        <ele>264.8</ele>
        <time>2023-06-14T14:28:24.394Z</time>
      </trkpt>
      <trkpt lat="44.80993" lon="4.64458">
        <ele>265.6</ele>
        <time>2023-06-14T14:28:27.081Z</time>
      </trkpt>
      <trkpt lat="44.8099" lon="4.64458">
        <ele>265.9</ele>
        <time>2023-06-14T14:28:28.424Z</time>
      </trkpt>
      <trkpt lat="44.80983" lon="4.64459">
        <ele>267.2</ele>
        <time>2023-06-14T14:28:31.591Z</time>
      </trkpt>
      <trkpt lat="44.80977" lon="4.6446">
        <ele>268.4</ele>
        <time>2023-06-14T14:28:34.316Z</time>
      </trkpt>
      <trkpt lat="44.8097" lon="4.64461">
        <ele>269.7</ele>
        <time>2023-06-14T14:28:37.493Z</time>
      </trkpt>
      <trkpt lat="44.80962" lon="4.64461">
        <ele>270.7</ele>
        <time>2023-06-14T14:28:41.073Z</time>
      </trkpt>
      <trkpt lat="44.8096" lon="4.6446">
        <ele>270.7</ele>
        <time>2023-06-14T14:28:42.016Z</time>
      </trkpt>
      <trkpt lat="44.80958" lon="4.64459">
        <ele>270.5</ele>
        <time>2023-06-14T14:28:42.964Z</time>
      </trkpt>
      <trkpt lat="44.80957" lon="4.64459">
        <ele>270.7</ele>
        <time>2023-06-14T14:28:43.407Z</time>
      </trkpt>
      <trkpt lat="44.8095" lon="4.64456">
        <ele>270.8</ele>
        <time>2023-06-14T14:28:46.664Z</time>
      </trkpt>
      <trkpt lat="44.80948" lon="4.64455">
        <ele>270.7</ele>
        <time>2023-06-14T14:28:47.608Z</time>
      </trkpt>
      <trkpt lat="44.80943" lon="4.6445">
        <ele>269.8</ele>
        <time>2023-06-14T14:28:50.354Z</time>
      </trkpt>
      <trkpt lat="44.80942" lon="4.6445">
        <ele>269.9</ele>
        <time>2023-06-14T14:28:50.804Z</time>
      </trkpt>
      <trkpt lat="44.8094" lon="4.64448">
        <ele>269.8</ele>
        <time>2023-06-14T14:28:51.896Z</time>
      </trkpt>
      <trkpt lat="44.80935" lon="4.64446">
        <ele>269.6</ele>
        <time>2023-06-14T14:28:54.213Z</time>
      </trkpt>
      <trkpt lat="44.80935" lon="4.64445">
        <ele>269.2</ele>
        <time>2023-06-14T14:28:54.567Z</time>
      </trkpt>
      <trkpt lat="44.80927" lon="4.64442">
        <ele>269.4</ele>
        <time>2023-06-14T14:28:58.248Z</time>
      </trkpt>
      <trkpt lat="44.80926" lon="4.64441">
        <ele>269.2</ele>
        <time>2023-06-14T14:28:58.799Z</time>
      </trkpt>
      <trkpt lat="44.80919" lon="4.64439">
        <ele>269.6</ele>
        <time>2023-06-14T14:29:01.984Z</time>
      </trkpt>
      <trkpt lat="44.80914" lon="4.64439">
        <ele>270.4</ele>
        <time>2023-06-14T14:29:04.228Z</time>
      </trkpt>
      <trkpt lat="44.8091" lon="4.64441">
        <ele>271.6</ele>
        <time>2023-06-14T14:29:06.178Z</time>
      </trkpt>
      <trkpt lat="44.80903" lon="4.64438">
        <ele>272.2</ele>
        <time>2023-06-14T14:29:09.437Z</time>
      </trkpt>
      <trkpt lat="44.80901" lon="4.64437">
        <ele>272.2</ele>
        <time>2023-06-14T14:29:10.387Z</time>
      </trkpt>
      <trkpt lat="44.80895" lon="4.64429">
        <ele>271.1</ele>
        <time>2023-06-14T14:29:14.087Z</time>
      </trkpt>
      <trkpt lat="44.8089" lon="4.64414">
        <ele>268.3</ele>
        <time>2023-06-14T14:29:19.432Z</time>
      </trkpt>
      <trkpt lat="44.80884" lon="4.64407">
        <ele>268.4</ele>
        <time>2023-06-14T14:29:22.894Z</time>
      </trkpt>
      <trkpt lat="44.80877" lon="4.64404">
        <ele>269.6</ele>
        <time>2023-06-14T14:29:26.179Z</time>
      </trkpt>
      <trkpt lat="44.80876" lon="4.64403">
        <ele>269.6</ele>
        <time>2023-06-14T14:29:26.728Z</time>
      </trkpt>
      <trkpt lat="44.80874" lon="4.64398">
        <ele>269.3</ele>
        <time>2023-06-14T14:29:28.541Z</time>
      </trkpt>
      <trkpt lat="44.80871" lon="4.64397">
        <ele>270</ele>
        <time>2023-06-14T14:29:29.939Z</time>
      </trkpt>
      <trkpt lat="44.80869" lon="4.64393">
        <ele>269.7</ele>
        <time>2023-06-14T14:29:31.493Z</time>
      </trkpt>
      <trkpt lat="44.80866" lon="4.64383">
        <ele>269</ele>
        <time>2023-06-14T14:29:34.925Z</time>
      </trkpt>
      <trkpt lat="44.80864" lon="4.64373">
        <ele>268.1</ele>
        <time>2023-06-14T14:29:38.225Z</time>
      </trkpt>
      <trkpt lat="44.80863" lon="4.64366">
        <ele>267.4</ele>
        <time>2023-06-14T14:29:40.492Z</time>
      </trkpt>
      <trkpt lat="44.8086" lon="4.64357">
        <ele>266.9</ele>
        <time>2023-06-14T14:29:43.634Z</time>
      </trkpt>
      <trkpt lat="44.80858" lon="4.64349">
        <ele>266.3</ele>
        <time>2023-06-14T14:29:46.320Z</time>
      </trkpt>
      <trkpt lat="44.80857" lon="4.64345">
        <ele>266</ele>
        <time>2023-06-14T14:29:47.663Z</time>
      </trkpt>
      <trkpt lat="44.80853" lon="4.64339">
        <ele>266.2</ele>
        <time>2023-06-14T14:29:50.264Z</time>
      </trkpt>
      <trkpt lat="44.80853" lon="4.64337">
        <ele>265.9</ele>
        <time>2023-06-14T14:29:50.909Z</time>
      </trkpt>
      <trkpt lat="44.80851" lon="4.64333">
        <ele>266</ele>
        <time>2023-06-14T14:29:52.454Z</time>
      </trkpt>
      <trkpt lat="44.80846" lon="4.64321">
        <ele>267.1</ele>
        <time>2023-06-14T14:29:56.865Z</time>
      </trkpt>
      <trkpt lat="44.80845" lon="4.6432">
        <ele>267.4</ele>
        <time>2023-06-14T14:29:57.417Z</time>
      </trkpt>
      <trkpt lat="44.80843" lon="4.64315">
        <ele>267.8</ele>
        <time>2023-06-14T14:29:59.239Z</time>
      </trkpt>
      <trkpt lat="44.80844" lon="4.6431">
        <ele>267.4</ele>
        <time>2023-06-14T14:30:00.892Z</time>
      </trkpt>
      <trkpt lat="44.80849" lon="4.64299">
        <ele>265.5</ele>
        <time>2023-06-14T14:30:05.082Z</time>
      </trkpt>
      <trkpt lat="44.80851" lon="4.64296">
        <ele>264.6</ele>
        <time>2023-06-14T14:30:06.428Z</time>
      </trkpt>
      <trkpt lat="44.8086" lon="4.64283">
        <ele>261.1</ele>
        <time>2023-06-14T14:30:12.331Z</time>
      </trkpt>
      <trkpt lat="44.80862" lon="4.64281">
        <ele>260.3</ele>
        <time>2023-06-14T14:30:13.470Z</time>
      </trkpt>
      <trkpt lat="44.80868" lon="4.64268">
        <ele>257.3</ele>
        <time>2023-06-14T14:30:18.506Z</time>
      </trkpt>
      <trkpt lat="44.80868" lon="4.64267">
        <ele>257.3</ele>
        <time>2023-06-14T14:30:18.823Z</time>
      </trkpt>
      <trkpt lat="44.80866" lon="4.64263">
        <ele>257.8</ele>
        <time>2023-06-14T14:30:20.380Z</time>
      </trkpt>
      <trkpt lat="44.80866" lon="4.64259">
        <ele>257.5</ele>
        <time>2023-06-14T14:30:21.648Z</time>
      </trkpt>
      <trkpt lat="44.80866" lon="4.64247">
        <ele>256.8</ele>
        <time>2023-06-14T14:30:25.447Z</time>
      </trkpt>
      <trkpt lat="44.80869" lon="4.64241">
        <ele>255.2</ele>
        <time>2023-06-14T14:30:27.842Z</time>
      </trkpt>
      <trkpt lat="44.8087" lon="4.64235">
        <ele>254.4</ele>
        <time>2023-06-14T14:30:29.816Z</time>
      </trkpt>
      <trkpt lat="44.8087" lon="4.64233">
        <ele>254.3</ele>
        <time>2023-06-14T14:30:30.446Z</time>
      </trkpt>
      <trkpt lat="44.80871" lon="4.64228">
        <ele>253.5</ele>
        <time>2023-06-14T14:30:32.114Z</time>
      </trkpt>
      <trkpt lat="44.8087" lon="4.64227">
        <ele>253.9</ele>
        <time>2023-06-14T14:30:32.680Z</time>
      </trkpt>
      <trkpt lat="44.80869" lon="4.64223">
        <ele>254.1</ele>
        <time>2023-06-14T14:30:34.018Z</time>
      </trkpt>
      <trkpt lat="44.80865" lon="4.64226">
        <ele>256</ele>
        <time>2023-06-14T14:30:36.175Z</time>
      </trkpt>
      <trkpt lat="44.80862" lon="4.6423">
        <ele>257.7</ele>
        <time>2023-06-14T14:30:38.127Z</time>
      </trkpt>
      <trkpt lat="44.80854" lon="4.64243">
        <ele>261.5</ele>
        <time>2023-06-14T14:30:43.771Z</time>
      </trkpt>
      <trkpt lat="44.80853" lon="4.64244">
        <ele>262</ele>
        <time>2023-06-14T14:30:44.344Z</time>
      </trkpt>
      <trkpt lat="44.8085" lon="4.6425">
        <ele>263.4</ele>
        <time>2023-06-14T14:30:46.731Z</time>
      </trkpt>
      <trkpt lat="44.80848" lon="4.64252">
        <ele>264.2</ele>
        <time>2023-06-14T14:30:47.870Z</time>
      </trkpt>
      <trkpt lat="44.80846" lon="4.64253">
        <ele>265.1</ele>
        <time>2023-06-14T14:30:48.871Z</time>
      </trkpt>
      <trkpt lat="44.80846" lon="4.64257">
        <ele>265.2</ele>
        <time>2023-06-14T14:30:50.136Z</time>
      </trkpt>
      <trkpt lat="44.80848" lon="4.64259">
        <ele>264.5</ele>
        <time>2023-06-14T14:30:51.262Z</time>
      </trkpt>
      <trkpt lat="44.80848" lon="4.64261">
        <ele>264.5</ele>
        <time>2023-06-14T14:30:51.892Z</time>
      </trkpt>
      <trkpt lat="44.80845" lon="4.64265">
        <ele>265.8</ele>
        <time>2023-06-14T14:30:53.794Z</time>
      </trkpt>
      <trkpt lat="44.80844" lon="4.64266">
        <ele>266.2</ele>
        <time>2023-06-14T14:30:54.366Z</time>
      </trkpt>
      <trkpt lat="44.80843" lon="4.64267">
        <ele>266.6</ele>
        <time>2023-06-14T14:30:54.934Z</time>
      </trkpt>
      <trkpt lat="44.80837" lon="4.64273">
        <ele>268.8</ele>
        <time>2023-06-14T14:30:58.324Z</time>
      </trkpt>
      <trkpt lat="44.80835" lon="4.64272">
        <ele>269.7</ele>
        <time>2023-06-14T14:30:59.328Z</time>
      </trkpt>
      <trkpt lat="44.80835" lon="4.6427">
        <ele>269.6</ele>
        <time>2023-06-14T14:30:59.963Z</time>
      </trkpt>
      <trkpt lat="44.8084" lon="4.64262">
        <ele>267.5</ele>
        <time>2023-06-14T14:31:03.426Z</time>
      </trkpt>
      <trkpt lat="44.8084" lon="4.6426">
        <ele>267.5</ele>
        <time>2023-06-14T14:31:04.056Z</time>
      </trkpt>
      <trkpt lat="44.8084" lon="4.64255">
        <ele>267.4</ele>
        <time>2023-06-14T14:31:05.638Z</time>
      </trkpt>
      <trkpt lat="44.8084" lon="4.64254">
        <ele>267.4</ele>
        <time>2023-06-14T14:31:05.950Z</time>
      </trkpt>
      <trkpt lat="44.80841" lon="4.64248">
        <ele>266.9</ele>
        <time>2023-06-14T14:31:07.904Z</time>
      </trkpt>
      <trkpt lat="44.80843" lon="4.64245">
        <ele>266.1</ele>
        <time>2023-06-14T14:31:09.239Z</time>
      </trkpt>
      <trkpt lat="44.80844" lon="4.64241">
        <ele>265.7</ele>
        <time>2023-06-14T14:31:10.590Z</time>
      </trkpt>
      <trkpt lat="44.80844" lon="4.6424">
        <ele>265.7</ele>
        <time>2023-06-14T14:31:10.902Z</time>
      </trkpt>
      <trkpt lat="44.80845" lon="4.64236">
        <ele>265.3</ele>
        <time>2023-06-14T14:31:12.254Z</time>
      </trkpt>
      <trkpt lat="44.80846" lon="4.64233">
        <ele>264.9</ele>
        <time>2023-06-14T14:31:13.313Z</time>
      </trkpt>
      <trkpt lat="44.80847" lon="4.6423">
        <ele>264.4</ele>
        <time>2023-06-14T14:31:14.376Z</time>
      </trkpt>
      <trkpt lat="44.80848" lon="4.64228">
        <ele>263.9</ele>
        <time>2023-06-14T14:31:15.169Z</time>
      </trkpt>
      <trkpt lat="44.8085" lon="4.64226">
        <ele>263</ele>
        <time>2023-06-14T14:31:16.318Z</time>
      </trkpt>
      <trkpt lat="44.8085" lon="4.64225">
        <ele>263</ele>
        <time>2023-06-14T14:31:16.635Z</time>
      </trkpt>
      <trkpt lat="44.80849" lon="4.64225">
        <ele>263.4</ele>
        <time>2023-06-14T14:31:17.117Z</time>
      </trkpt>
      <trkpt lat="44.80848" lon="4.64224">
        <ele>263.9</ele>
        <time>2023-06-14T14:31:17.688Z</time>
      </trkpt>
      <trkpt lat="44.80851" lon="4.64223">
        <ele>262.4</ele>
        <time>2023-06-14T14:31:19.188Z</time>
      </trkpt>
      <trkpt lat="44.80852" lon="4.64224">
        <ele>261.9</ele>
        <time>2023-06-14T14:31:19.753Z</time>
      </trkpt>
      <trkpt lat="44.80853" lon="4.64223">
        <ele>261.5</ele>
        <time>2023-06-14T14:31:20.331Z</time>
      </trkpt>
      <trkpt lat="44.80853" lon="4.64223">
        <ele>261.5</ele>
        <time>2023-06-14T14:31:20.331Z</time>
      </trkpt>
      <trkpt lat="44.80854" lon="4.64222">
        <ele>261</ele>
        <time>2023-06-14T14:31:20.913Z</time>
      </trkpt>
      <trkpt lat="44.80853" lon="4.6422">
        <ele>261.4</ele>
        <time>2023-06-14T14:31:21.704Z</time>
      </trkpt>
      <trkpt lat="44.80855" lon="4.64217">
        <ele>260.4</ele>
        <time>2023-06-14T14:31:23.065Z</time>
      </trkpt>
      <trkpt lat="44.80852" lon="4.64216">
        <ele>261.8</ele>
        <time>2023-06-14T14:31:24.547Z</time>
      </trkpt>
      <trkpt lat="44.80851" lon="4.64218">
        <ele>262.3</ele>
        <time>2023-06-14T14:31:25.340Z</time>
      </trkpt>
      <trkpt lat="44.8085" lon="4.6422">
        <ele>262.9</ele>
        <time>2023-06-14T14:31:26.160Z</time>
      </trkpt>
      <trkpt lat="44.80851" lon="4.64216">
        <ele>262.2</ele>
        <time>2023-06-14T14:31:27.529Z</time>
      </trkpt>
      <trkpt lat="44.80851" lon="4.64217">
        <ele>262.2</ele>
        <time>2023-06-14T14:31:27.847Z</time>
      </trkpt>
      <trkpt lat="44.8085" lon="4.64219">
        <ele>262.9</ele>
        <time>2023-06-14T14:31:28.663Z</time>
      </trkpt>
      <trkpt lat="44.8085" lon="4.6422">
        <ele>262.9</ele>
        <time>2023-06-14T14:31:28.981Z</time>
      </trkpt>
      <trkpt lat="44.8085" lon="4.64221">
        <ele>262.9</ele>
        <time>2023-06-14T14:31:29.293Z</time>
      </trkpt>
      <trkpt lat="44.80851" lon="4.64221">
        <ele>262.3</ele>
        <time>2023-06-14T14:31:29.803Z</time>
      </trkpt>
      <trkpt lat="44.80851" lon="4.64221">
        <ele>262.3</ele>
        <time>2023-06-14T14:31:29.803Z</time>
      </trkpt>
      <trkpt lat="44.80852" lon="4.6422">
        <ele>261.9</ele>
        <time>2023-06-14T14:31:30.372Z</time>
      </trkpt>
      <trkpt lat="44.80852" lon="4.64218">
        <ele>261.8</ele>
        <time>2023-06-14T14:31:31.007Z</time>
      </trkpt>
      <trkpt lat="44.80854" lon="4.64206">
        <ele>260.6</ele>
        <time>2023-06-14T14:31:34.925Z</time>
      </trkpt>
      <trkpt lat="44.80855" lon="4.64203">
        <ele>260</ele>
        <time>2023-06-14T14:31:35.993Z</time>
      </trkpt>
      <trkpt lat="44.80856" lon="4.64201">
        <ele>259.4</ele>
        <time>2023-06-14T14:31:36.804Z</time>
      </trkpt>
      <trkpt lat="44.80856" lon="4.64198">
        <ele>259.3</ele>
        <time>2023-06-14T14:31:37.751Z</time>
      </trkpt>
      <trkpt lat="44.80857" lon="4.64196">
        <ele>258.7</ele>
        <time>2023-06-14T14:31:38.560Z</time>
      </trkpt>
      <trkpt lat="44.80857" lon="4.64194">
        <ele>258.7</ele>
        <time>2023-06-14T14:31:39.189Z</time>
      </trkpt>
      <trkpt lat="44.80857" lon="4.64193">
        <ele>258.6</ele>
        <time>2023-06-14T14:31:39.507Z</time>
      </trkpt>
      <trkpt lat="44.80857" lon="4.64194">
        <ele>258.7</ele>
        <time>2023-06-14T14:31:39.825Z</time>
      </trkpt>
      <trkpt lat="44.80857" lon="4.64192">
        <ele>258.6</ele>
        <time>2023-06-14T14:31:40.461Z</time>
      </trkpt>
      <trkpt lat="44.80857" lon="4.64191">
        <ele>258.5</ele>
        <time>2023-06-14T14:31:40.773Z</time>
      </trkpt>
      <trkpt lat="44.80857" lon="4.64191">
        <ele>258.5</ele>
        <time>2023-06-14T14:31:40.773Z</time>
      </trkpt>
      <trkpt lat="44.80857" lon="4.6419">
        <ele>258.5</ele>
        <time>2023-06-14T14:31:41.091Z</time>
      </trkpt>
      <trkpt lat="44.80857" lon="4.64189">
        <ele>258.5</ele>
        <time>2023-06-14T14:31:41.409Z</time>
      </trkpt>
      <trkpt lat="44.80857" lon="4.64189">
        <ele>258.5</ele>
        <time>2023-06-14T14:31:41.409Z</time>
      </trkpt>
      <trkpt lat="44.80859" lon="4.64191">
        <ele>257.5</ele>
        <time>2023-06-14T14:31:42.573Z</time>
      </trkpt>
      <trkpt lat="44.80861" lon="4.64191">
        <ele>256.4</ele>
        <time>2023-06-14T14:31:43.556Z</time>
      </trkpt>
      <trkpt lat="44.80862" lon="4.64192">
        <ele>256</ele>
        <time>2023-06-14T14:31:44.133Z</time>
      </trkpt>
      <trkpt lat="44.80861" lon="4.64193">
        <ele>256.5</ele>
        <time>2023-06-14T14:31:44.729Z</time>
      </trkpt>
      <trkpt lat="44.80862" lon="4.64192">
        <ele>256</ele>
        <time>2023-06-14T14:31:45.325Z</time>
      </trkpt>
      <trkpt lat="44.80862" lon="4.64191">
        <ele>255.9</ele>
        <time>2023-06-14T14:31:45.638Z</time>
      </trkpt>
      <trkpt lat="44.80862" lon="4.64189">
        <ele>255.8</ele>
        <time>2023-06-14T14:31:46.273Z</time>
      </trkpt>
      <trkpt lat="44.80861" lon="4.64186">
        <ele>256.2</ele>
        <time>2023-06-14T14:31:47.330Z</time>
      </trkpt>
      <trkpt lat="44.80862" lon="4.64184">
        <ele>255.6</ele>
        <time>2023-06-14T14:31:48.138Z</time>
      </trkpt>
      <trkpt lat="44.80863" lon="4.64182">
        <ele>254.9</ele>
        <time>2023-06-14T14:31:48.952Z</time>
      </trkpt>
      <trkpt lat="44.80864" lon="4.64181">
        <ele>254.4</ele>
        <time>2023-06-14T14:31:49.543Z</time>
      </trkpt>
      <trkpt lat="44.80864" lon="4.64181">
        <ele>254.4</ele>
        <time>2023-06-14T14:31:49.543Z</time>
      </trkpt>
      <trkpt lat="44.80864" lon="4.64181">
        <ele>254.4</ele>
        <time>2023-06-14T14:31:49.543Z</time>
      </trkpt>
      <trkpt lat="44.80864" lon="4.64181">
        <ele>254.4</ele>
        <time>2023-06-14T14:31:49.543Z</time>
      </trkpt>
      <trkpt lat="44.80864" lon="4.64182">
        <ele>254.4</ele>
        <time>2023-06-14T14:31:49.860Z</time>
      </trkpt>
      <trkpt lat="44.80864" lon="4.64182">
        <ele>254.4</ele>
        <time>2023-06-14T14:31:49.860Z</time>
      </trkpt>
      <trkpt lat="44.80863" lon="4.64189">
        <ele>255.3</ele>
        <time>2023-06-14T14:31:52.141Z</time>
      </trkpt>
      <trkpt lat="44.80863" lon="4.64189">
        <ele>255.3</ele>
        <time>2023-06-14T14:31:52.141Z</time>
      </trkpt>
      <trkpt lat="44.80863" lon="4.64189">
        <ele>255.3</ele>
        <time>2023-06-14T14:31:52.141Z</time>
      </trkpt>
      <trkpt lat="44.80864" lon="4.64188">
        <ele>254.7</ele>
        <time>2023-06-14T14:31:52.737Z</time>
      </trkpt>
      <trkpt lat="44.80865" lon="4.64186">
        <ele>253.8</ele>
        <time>2023-06-14T14:31:53.586Z</time>
      </trkpt>
      <trkpt lat="44.80868" lon="4.64182">
        <ele>252</ele>
        <time>2023-06-14T14:31:55.566Z</time>
      </trkpt>
      <trkpt lat="44.80868" lon="4.64179">
        <ele>251.8</ele>
        <time>2023-06-14T14:31:56.515Z</time>
      </trkpt>
      <trkpt lat="44.80871" lon="4.64164">
        <ele>249.2</ele>
        <time>2023-06-14T14:32:01.541Z</time>
      </trkpt>
      <trkpt lat="44.80872" lon="4.64161">
        <ele>248.5</ele>
        <time>2023-06-14T14:32:02.630Z</time>
      </trkpt>
      <trkpt lat="44.8088" lon="4.64148">
        <ele>242.9</ele>
        <time>2023-06-14T14:32:08.496Z</time>
      </trkpt>
      <trkpt lat="44.80882" lon="4.64144">
        <ele>241.5</ele>
        <time>2023-06-14T14:32:10.136Z</time>
      </trkpt>
      <trkpt lat="44.80887" lon="4.64134">
        <ele>238.1</ele>
        <time>2023-06-14T14:32:14.229Z</time>
      </trkpt>
      <trkpt lat="44.80889" lon="4.64131">
        <ele>236.7</ele>
        <time>2023-06-14T14:32:15.641Z</time>
      </trkpt>
      <trkpt lat="44.8089" lon="4.64129">
        <ele>236</ele>
        <time>2023-06-14T14:32:16.461Z</time>
      </trkpt>
      <trkpt lat="44.80891" lon="4.64119">
        <ele>234.9</ele>
        <time>2023-06-14T14:32:19.678Z</time>
      </trkpt>
      <trkpt lat="44.80891" lon="4.64115">
        <ele>234.7</ele>
        <time>2023-06-14T14:32:20.945Z</time>
      </trkpt>
      <trkpt lat="44.80891" lon="4.64111">
        <ele>234.5</ele>
        <time>2023-06-14T14:32:22.206Z</time>
      </trkpt>
      <trkpt lat="44.80891" lon="4.64107">
        <ele>234.3</ele>
        <time>2023-06-14T14:32:23.473Z</time>
      </trkpt>
      <trkpt lat="44.80891" lon="4.64104">
        <ele>234.1</ele>
        <time>2023-06-14T14:32:24.421Z</time>
      </trkpt>
      <trkpt lat="44.8089" lon="4.64102">
        <ele>234.6</ele>
        <time>2023-06-14T14:32:25.215Z</time>
      </trkpt>
      <trkpt lat="44.80888" lon="4.641">
        <ele>235.7</ele>
        <time>2023-06-14T14:32:26.388Z</time>
      </trkpt>
      <trkpt lat="44.80886" lon="4.64096">
        <ele>236.7</ele>
        <time>2023-06-14T14:32:27.984Z</time>
      </trkpt>
      <trkpt lat="44.80883" lon="4.64093">
        <ele>238.4</ele>
        <time>2023-06-14T14:32:29.748Z</time>
      </trkpt>
      <trkpt lat="44.80884" lon="4.64089">
        <ele>237.6</ele>
        <time>2023-06-14T14:32:31.124Z</time>
      </trkpt>
      <trkpt lat="44.80888" lon="4.64086">
        <ele>235</ele>
        <time>2023-06-14T14:32:33.388Z</time>
      </trkpt>
      <trkpt lat="44.80894" lon="4.64084">
        <ele>231</ele>
        <time>2023-06-14T14:32:36.561Z</time>
      </trkpt>
      <trkpt lat="44.80898" lon="4.64086">
        <ele>228.7</ele>
        <time>2023-06-14T14:32:38.656Z</time>
      </trkpt>
      <trkpt lat="44.809" lon="4.64088">
        <ele>227.6</ele>
        <time>2023-06-14T14:32:39.844Z</time>
      </trkpt>
      <trkpt lat="44.809" lon="4.64088">
        <ele>227.6</ele>
        <time>2023-06-14T14:32:39.844Z</time>
      </trkpt>
      <trkpt lat="44.80899" lon="4.64086">
        <ele>228.1</ele>
        <time>2023-06-14T14:32:40.650Z</time>
      </trkpt>
      <trkpt lat="44.80896" lon="4.64084">
        <ele>229.8</ele>
        <time>2023-06-14T14:32:42.272Z</time>
      </trkpt>
      <trkpt lat="44.80896" lon="4.64085">
        <ele>229.9</ele>
        <time>2023-06-14T14:32:42.590Z</time>
      </trkpt>
      <trkpt lat="44.80896" lon="4.64085">
        <ele>229.9</ele>
        <time>2023-06-14T14:32:42.590Z</time>
      </trkpt>
      <trkpt lat="44.80895" lon="4.64087">
        <ele>230.5</ele>
        <time>2023-06-14T14:32:43.409Z</time>
      </trkpt>
      <trkpt lat="44.80894" lon="4.64087">
        <ele>231.2</ele>
        <time>2023-06-14T14:32:43.911Z</time>
      </trkpt>
      <trkpt lat="44.80894" lon="4.64088">
        <ele>231.2</ele>
        <time>2023-06-14T14:32:44.230Z</time>
      </trkpt>
      <trkpt lat="44.80898" lon="4.64084">
        <ele>228.6</ele>
        <time>2023-06-14T14:32:46.652Z</time>
      </trkpt>
      <trkpt lat="44.80899" lon="4.64082">
        <ele>227.8</ele>
        <time>2023-06-14T14:32:47.483Z</time>
      </trkpt>
      <trkpt lat="44.80896" lon="4.64081">
        <ele>229.5</ele>
        <time>2023-06-14T14:32:49.005Z</time>
      </trkpt>
      <trkpt lat="44.80899" lon="4.64082">
        <ele>227.8</ele>
        <time>2023-06-14T14:32:50.528Z</time>
      </trkpt>
      <trkpt lat="44.809" lon="4.64085">
        <ele>227.4</ele>
        <time>2023-06-14T14:32:51.586Z</time>
      </trkpt>
      <trkpt lat="44.80901" lon="4.64085">
        <ele>226.8</ele>
        <time>2023-06-14T14:32:52.089Z</time>
      </trkpt>
      <trkpt lat="44.80902" lon="4.64086">
        <ele>226.3</ele>
        <time>2023-06-14T14:32:52.675Z</time>
      </trkpt>
      <trkpt lat="44.80906" lon="4.64085">
        <ele>223.6</ele>
        <time>2023-06-14T14:32:54.784Z</time>
      </trkpt>
      <trkpt lat="44.80908" lon="4.64086">
        <ele>222.4</ele>
        <time>2023-06-14T14:32:55.829Z</time>
      </trkpt>
      <trkpt lat="44.80908" lon="4.64085">
        <ele>222.4</ele>
        <time>2023-06-14T14:32:56.143Z</time>
      </trkpt>
      <trkpt lat="44.80908" lon="4.64085">
        <ele>222.4</ele>
        <time>2023-06-14T14:32:56.143Z</time>
      </trkpt>
      <trkpt lat="44.80908" lon="4.64084">
        <ele>222.3</ele>
        <time>2023-06-14T14:32:56.462Z</time>
      </trkpt>
      <trkpt lat="44.80909" lon="4.64086">
        <ele>221.8</ele>
        <time>2023-06-14T14:32:57.251Z</time>
      </trkpt>
      <trkpt lat="44.8091" lon="4.64091">
        <ele>221.5</ele>
        <time>2023-06-14T14:32:58.894Z</time>
      </trkpt>
      <trkpt lat="44.80912" lon="4.64099">
        <ele>220.8</ele>
        <time>2023-06-14T14:33:01.590Z</time>
      </trkpt>
      <trkpt lat="44.80912" lon="4.64103">
        <ele>221</ele>
        <time>2023-06-14T14:33:02.852Z</time>
      </trkpt>
      <trkpt lat="44.80912" lon="4.64104">
        <ele>221.1</ele>
        <time>2023-06-14T14:33:03.171Z</time>
      </trkpt>
      <trkpt lat="44.80912" lon="4.64103">
        <ele>221</ele>
        <time>2023-06-14T14:33:03.490Z</time>
      </trkpt>
      <trkpt lat="44.80913" lon="4.64101">
        <ele>220.2</ele>
        <time>2023-06-14T14:33:04.319Z</time>
      </trkpt>
      <trkpt lat="44.80914" lon="4.64098">
        <ele>219.5</ele>
        <time>2023-06-14T14:33:05.409Z</time>
      </trkpt>
      <trkpt lat="44.80914" lon="4.64098">
        <ele>219.5</ele>
        <time>2023-06-14T14:33:05.409Z</time>
      </trkpt>
      <trkpt lat="44.80913" lon="4.64098">
        <ele>220.1</ele>
        <time>2023-06-14T14:33:05.918Z</time>
      </trkpt>
      <trkpt lat="44.80913" lon="4.64098">
        <ele>220.1</ele>
        <time>2023-06-14T14:33:05.918Z</time>
      </trkpt>
      <trkpt lat="44.80911" lon="4.641">
        <ele>221.4</ele>
        <time>2023-06-14T14:33:07.121Z</time>
      </trkpt>
      <trkpt lat="44.80911" lon="4.641">
        <ele>221.4</ele>
        <time>2023-06-14T14:33:07.121Z</time>
      </trkpt>
      <trkpt lat="44.80912" lon="4.641">
        <ele>220.8</ele>
        <time>2023-06-14T14:33:07.623Z</time>
      </trkpt>
      <trkpt lat="44.80911" lon="4.641">
        <ele>221.4</ele>
        <time>2023-06-14T14:33:08.125Z</time>
      </trkpt>
      <trkpt lat="44.80912" lon="4.641">
        <ele>220.8</ele>
        <time>2023-06-14T14:33:08.627Z</time>
      </trkpt>
      <trkpt lat="44.80912" lon="4.64099">
        <ele>220.8</ele>
        <time>2023-06-14T14:33:08.939Z</time>
      </trkpt>
      <trkpt lat="44.80912" lon="4.64092">
        <ele>220.3</ele>
        <time>2023-06-14T14:33:11.158Z</time>
      </trkpt>
      <trkpt lat="44.80911" lon="4.64088">
        <ele>220.7</ele>
        <time>2023-06-14T14:33:12.500Z</time>
      </trkpt>
      <trkpt lat="44.80912" lon="4.64079">
        <ele>219.4</ele>
        <time>2023-06-14T14:33:15.422Z</time>
      </trkpt>
      <trkpt lat="44.80914" lon="4.64081">
        <ele>218.4</ele>
        <time>2023-06-14T14:33:16.582Z</time>
      </trkpt>
      <trkpt lat="44.80915" lon="4.64083">
        <ele>217.9</ele>
        <time>2023-06-14T14:33:17.374Z</time>
      </trkpt>
      <trkpt lat="44.80916" lon="4.64085">
        <ele>217.5</ele>
        <time>2023-06-14T14:33:18.169Z</time>
      </trkpt>
      <trkpt lat="44.80916" lon="4.64087">
        <ele>217.6</ele>
        <time>2023-06-14T14:33:18.799Z</time>
      </trkpt>
      <trkpt lat="44.80917" lon="4.64089">
        <ele>217.1</ele>
        <time>2023-06-14T14:33:19.590Z</time>
      </trkpt>
      <trkpt lat="44.80919" lon="4.64089">
        <ele>216.1</ele>
        <time>2023-06-14T14:33:20.577Z</time>
      </trkpt>
      <trkpt lat="44.80919" lon="4.64088">
        <ele>216</ele>
        <time>2023-06-14T14:33:20.890Z</time>
      </trkpt>
      <trkpt lat="44.8092" lon="4.64084">
        <ele>215</ele>
        <time>2023-06-14T14:33:22.288Z</time>
      </trkpt>
      <trkpt lat="44.80919" lon="4.64083">
        <ele>215.6</ele>
        <time>2023-06-14T14:33:22.891Z</time>
      </trkpt>
      <trkpt lat="44.80919" lon="4.64077">
        <ele>215.2</ele>
        <time>2023-06-14T14:33:24.792Z</time>
      </trkpt>
      <trkpt lat="44.80918" lon="4.64068">
        <ele>215</ele>
        <time>2023-06-14T14:33:27.669Z</time>
      </trkpt>
      <trkpt lat="44.8092" lon="4.64066">
        <ele>213.5</ele>
        <time>2023-06-14T14:33:28.911Z</time>
      </trkpt>
      <trkpt lat="44.80922" lon="4.64067">
        <ele>212.5</ele>
        <time>2023-06-14T14:33:29.930Z</time>
      </trkpt>
      <trkpt lat="44.80924" lon="4.6407">
        <ele>211.7</ele>
        <time>2023-06-14T14:33:31.274Z</time>
      </trkpt>
      <trkpt lat="44.80928" lon="4.64079">
        <ele>210.2</ele>
        <time>2023-06-14T14:33:34.678Z</time>
      </trkpt>
      <trkpt lat="44.80929" lon="4.64084">
        <ele>210</ele>
        <time>2023-06-14T14:33:36.317Z</time>
      </trkpt>
      <trkpt lat="44.80931" lon="4.64085">
        <ele>209</ele>
        <time>2023-06-14T14:33:37.338Z</time>
      </trkpt>
      <trkpt lat="44.80932" lon="4.64084">
        <ele>208.4</ele>
        <time>2023-06-14T14:33:37.943Z</time>
      </trkpt>
      <trkpt lat="44.80934" lon="4.64081">
        <ele>206.9</ele>
        <time>2023-06-14T14:33:39.372Z</time>
      </trkpt>
      <trkpt lat="44.80935" lon="4.64074">
        <ele>205.8</ele>
        <time>2023-06-14T14:33:41.669Z</time>
      </trkpt>
      <trkpt lat="44.80935" lon="4.6407">
        <ele>205.5</ele>
        <time>2023-06-14T14:33:42.932Z</time>
      </trkpt>
      <trkpt lat="44.80935" lon="4.64067">
        <ele>205.3</ele>
        <time>2023-06-14T14:33:43.882Z</time>
      </trkpt>
      <trkpt lat="44.80934" lon="4.64061">
        <ele>205.5</ele>
        <time>2023-06-14T14:33:45.827Z</time>
      </trkpt>
      <trkpt lat="44.80934" lon="4.64058">
        <ele>205.2</ele>
        <time>2023-06-14T14:33:46.780Z</time>
      </trkpt>
      <trkpt lat="44.80936" lon="4.64055">
        <ele>204</ele>
        <time>2023-06-14T14:33:48.170Z</time>
      </trkpt>
      <trkpt lat="44.80937" lon="4.64056">
        <ele>203.5</ele>
        <time>2023-06-14T14:33:48.746Z</time>
      </trkpt>
      <trkpt lat="44.8094" lon="4.64065">
        <ele>202.6</ele>
        <time>2023-06-14T14:33:51.908Z</time>
      </trkpt>
      <trkpt lat="44.80941" lon="4.6407">
        <ele>202.3</ele>
        <time>2023-06-14T14:33:53.549Z</time>
      </trkpt>
      <trkpt lat="44.80944" lon="4.64081">
        <ele>201.4</ele>
        <time>2023-06-14T14:33:57.282Z</time>
      </trkpt>
      <trkpt lat="44.80945" lon="4.64083">
        <ele>200.9</ele>
        <time>2023-06-14T14:33:58.076Z</time>
      </trkpt>
      <trkpt lat="44.80946" lon="4.64083">
        <ele>200.4</ele>
        <time>2023-06-14T14:33:58.575Z</time>
      </trkpt>
      <trkpt lat="44.80947" lon="4.64081">
        <ele>199.8</ele>
        <time>2023-06-14T14:33:59.383Z</time>
      </trkpt>
      <trkpt lat="44.80947" lon="4.64078">
        <ele>199.6</ele>
        <time>2023-06-14T14:34:00.332Z</time>
      </trkpt>
      <trkpt lat="44.80946" lon="4.64074">
        <ele>199.8</ele>
        <time>2023-06-14T14:34:01.673Z</time>
      </trkpt>
      <trkpt lat="44.80946" lon="4.64072">
        <ele>199.7</ele>
        <time>2023-06-14T14:34:02.303Z</time>
      </trkpt>
      <trkpt lat="44.80949" lon="4.64065">
        <ele>197.5</ele>
        <time>2023-06-14T14:34:05.027Z</time>
      </trkpt>
      <trkpt lat="44.80949" lon="4.64061">
        <ele>197.3</ele>
        <time>2023-06-14T14:34:06.295Z</time>
      </trkpt>
      <trkpt lat="44.80949" lon="4.64058">
        <ele>197.1</ele>
        <time>2023-06-14T14:34:07.246Z</time>
      </trkpt>
      <trkpt lat="44.8095" lon="4.64054">
        <ele>196.3</ele>
        <time>2023-06-14T14:34:08.619Z</time>
      </trkpt>
      <trkpt lat="44.80949" lon="4.64043">
        <ele>196.2</ele>
        <time>2023-06-14T14:34:12.116Z</time>
      </trkpt>
      <trkpt lat="44.80946" lon="4.64037">
        <ele>197.5</ele>
        <time>2023-06-14T14:34:14.493Z</time>
      </trkpt>
      <trkpt lat="44.80945" lon="4.64034">
        <ele>197.9</ele>
        <time>2023-06-14T14:34:15.550Z</time>
      </trkpt>
      <trkpt lat="44.80942" lon="4.64029">
        <ele>199.1</ele>
        <time>2023-06-14T14:34:17.670Z</time>
      </trkpt>
      <trkpt lat="44.80936" lon="4.64023">
        <ele>201.7</ele>
        <time>2023-06-14T14:34:21.106Z</time>
      </trkpt>
      <trkpt lat="44.80933" lon="4.64021">
        <ele>203.3</ele>
        <time>2023-06-14T14:34:22.714Z</time>
      </trkpt>
      <trkpt lat="44.80929" lon="4.64016">
        <ele>204.9</ele>
        <time>2023-06-14T14:34:25.175Z</time>
      </trkpt>
      <trkpt lat="44.80922" lon="4.6401">
        <ele>207.9</ele>
        <time>2023-06-14T14:34:29.014Z</time>
      </trkpt>
      <trkpt lat="44.80921" lon="4.64007">
        <ele>208.2</ele>
        <time>2023-06-14T14:34:30.067Z</time>
      </trkpt>
      <trkpt lat="44.8092" lon="4.64003">
        <ele>208.4</ele>
        <time>2023-06-14T14:34:31.408Z</time>
      </trkpt>
      <trkpt lat="44.80918" lon="4.63995">
        <ele>208.9</ele>
        <time>2023-06-14T14:34:34.090Z</time>
      </trkpt>
      <trkpt lat="44.80916" lon="4.63991">
        <ele>209.4</ele>
        <time>2023-06-14T14:34:35.651Z</time>
      </trkpt>
      <trkpt lat="44.80914" lon="4.63987">
        <ele>209.9</ele>
        <time>2023-06-14T14:34:37.203Z</time>
      </trkpt>
      <trkpt lat="44.80911" lon="4.63983">
        <ele>210.8</ele>
        <time>2023-06-14T14:34:39.078Z</time>
      </trkpt>
      <trkpt lat="44.80911" lon="4.6398">
        <ele>210.5</ele>
        <time>2023-06-14T14:34:40.037Z</time>
      </trkpt>
      <trkpt lat="44.80911" lon="4.63978">
        <ele>210.3</ele>
        <time>2023-06-14T14:34:40.668Z</time>
      </trkpt>
      <trkpt lat="44.80912" lon="4.63976">
        <ele>209.6</ele>
        <time>2023-06-14T14:34:41.487Z</time>
      </trkpt>
      <trkpt lat="44.80912" lon="4.63975">
        <ele>209.5</ele>
        <time>2023-06-14T14:34:41.803Z</time>
      </trkpt>
      <trkpt lat="44.80912" lon="4.63972">
        <ele>209.3</ele>
        <time>2023-06-14T14:34:42.755Z</time>
      </trkpt>
      <trkpt lat="44.80912" lon="4.6397">
        <ele>209.1</ele>
        <time>2023-06-14T14:34:43.387Z</time>
      </trkpt>
      <trkpt lat="44.80909" lon="4.63968">
        <ele>210.2</ele>
        <time>2023-06-14T14:34:44.923Z</time>
      </trkpt>
      <trkpt lat="44.80907" lon="4.63962">
        <ele>210.4</ele>
        <time>2023-06-14T14:34:47.016Z</time>
      </trkpt>
      <trkpt lat="44.80908" lon="4.63959">
        <ele>209.8</ele>
        <time>2023-06-14T14:34:48.098Z</time>
      </trkpt>
      <trkpt lat="44.80908" lon="4.63954">
        <ele>209.3</ele>
        <time>2023-06-14T14:34:49.687Z</time>
      </trkpt>
      <trkpt lat="44.80907" lon="4.63953">
        <ele>209.7</ele>
        <time>2023-06-14T14:34:50.262Z</time>
      </trkpt>
      <trkpt lat="44.80905" lon="4.63953">
        <ele>210.7</ele>
        <time>2023-06-14T14:34:51.237Z</time>
      </trkpt>
      <trkpt lat="44.80901" lon="4.63955">
        <ele>212.6</ele>
        <time>2023-06-14T14:34:53.269Z</time>
      </trkpt>
      <trkpt lat="44.80901" lon="4.63954">
        <ele>212.4</ele>
        <time>2023-06-14T14:34:53.591Z</time>
      </trkpt>
      <trkpt lat="44.80907" lon="4.63948">
        <ele>209.2</ele>
        <time>2023-06-14T14:34:57.111Z</time>
      </trkpt>
      <trkpt lat="44.80909" lon="4.63947">
        <ele>208.2</ele>
        <time>2023-06-14T14:34:58.132Z</time>
      </trkpt>
      <trkpt lat="44.80916" lon="4.63945">
        <ele>204.9</ele>
        <time>2023-06-14T14:35:01.572Z</time>
      </trkpt>
      <trkpt lat="44.80921" lon="4.63941">
        <ele>202.3</ele>
        <time>2023-06-14T14:35:04.325Z</time>
      </trkpt>
      <trkpt lat="44.80925" lon="4.63938">
        <ele>200.5</ele>
        <time>2023-06-14T14:35:06.474Z</time>
      </trkpt>
      <trkpt lat="44.8093" lon="4.63933">
        <ele>198.1</ele>
        <time>2023-06-14T14:35:09.367Z</time>
      </trkpt>
      <trkpt lat="44.80935" lon="4.63928">
        <ele>195.6</ele>
        <time>2023-06-14T14:35:12.266Z</time>
      </trkpt>
      <trkpt lat="44.80938" lon="4.63926">
        <ele>194.3</ele>
        <time>2023-06-14T14:35:13.824Z</time>
      </trkpt>
      <trkpt lat="44.80942" lon="4.63924">
        <ele>192.6</ele>
        <time>2023-06-14T14:35:15.833Z</time>
      </trkpt>
      <trkpt lat="44.80946" lon="4.63917">
        <ele>190.8</ele>
        <time>2023-06-14T14:35:18.771Z</time>
      </trkpt>
      <trkpt lat="44.80951" lon="4.6391">
        <ele>188.5</ele>
        <time>2023-06-14T14:35:22.026Z</time>
      </trkpt>
      <trkpt lat="44.80953" lon="4.63906">
        <ele>187.6</ele>
        <time>2023-06-14T14:35:23.608Z</time>
      </trkpt>
      <trkpt lat="44.80956" lon="4.63899">
        <ele>186.3</ele>
        <time>2023-06-14T14:35:26.244Z</time>
      </trkpt>
      <trkpt lat="44.80962" lon="4.63888">
        <ele>183.7</ele>
        <time>2023-06-14T14:35:30.749Z</time>
      </trkpt>
      <trkpt lat="44.80964" lon="4.63881">
        <ele>182.7</ele>
        <time>2023-06-14T14:35:33.157Z</time>
      </trkpt>
      <trkpt lat="44.80964" lon="4.63874">
        <ele>182.5</ele>
        <time>2023-06-14T14:35:35.369Z</time>
      </trkpt>
      <trkpt lat="44.80961" lon="4.63863">
        <ele>183.4</ele>
        <time>2023-06-14T14:35:39.103Z</time>
      </trkpt>
      <trkpt lat="44.80957" lon="4.6385">
        <ele>184.5</ele>
        <time>2023-06-14T14:35:43.595Z</time>
      </trkpt>
      <trkpt lat="44.80951" lon="4.6383">
        <ele>185.7</ele>
        <time>2023-06-14T14:35:50.465Z</time>
      </trkpt>
      <trkpt lat="44.8095" lon="4.63831">
        <ele>186.2</ele>
        <time>2023-06-14T14:35:51.049Z</time>
      </trkpt>
      <trkpt lat="44.80949" lon="4.63832">
        <ele>186.7</ele>
        <time>2023-06-14T14:35:51.627Z</time>
      </trkpt>
      <trkpt lat="44.80948" lon="4.63831">
        <ele>187</ele>
        <time>2023-06-14T14:35:52.182Z</time>
      </trkpt>
      <trkpt lat="44.80948" lon="4.6383">
        <ele>186.8</ele>
        <time>2023-06-14T14:35:52.505Z</time>
      </trkpt>
      <trkpt lat="44.80946" lon="4.63825">
        <ele>187.1</ele>
        <time>2023-06-14T14:35:54.316Z</time>
      </trkpt>
      <trkpt lat="44.80946" lon="4.63822">
        <ele>186.8</ele>
        <time>2023-06-14T14:35:55.270Z</time>
      </trkpt>
      <trkpt lat="44.80943" lon="4.63811">
        <ele>186.6</ele>
        <time>2023-06-14T14:35:58.988Z</time>
      </trkpt>
      <trkpt lat="44.8094" lon="4.63801">
        <ele>186.3</ele>
        <time>2023-06-14T14:36:02.418Z</time>
      </trkpt>
      <trkpt lat="44.80936" lon="4.63794">
        <ele>186.6</ele>
        <time>2023-06-14T14:36:05.255Z</time>
      </trkpt>
      <trkpt lat="44.80933" lon="4.6379">
        <ele>187.1</ele>
        <time>2023-06-14T14:36:07.104Z</time>
      </trkpt>
      <trkpt lat="44.80932" lon="4.63785">
        <ele>186.9</ele>
        <time>2023-06-14T14:36:08.745Z</time>
      </trkpt>
      <trkpt lat="44.80931" lon="4.63781">
        <ele>186.4</ele>
        <time>2023-06-14T14:36:10.093Z</time>
      </trkpt>
      <trkpt lat="44.8093" lon="4.63776">
        <ele>186.2</ele>
        <time>2023-06-14T14:36:11.734Z</time>
      </trkpt>
      <trkpt lat="44.8093" lon="4.63766">
        <ele>184.8</ele>
        <time>2023-06-14T14:36:14.943Z</time>
      </trkpt>
      <trkpt lat="44.8093" lon="4.6376">
        <ele>183.9</ele>
        <time>2023-06-14T14:36:16.864Z</time>
      </trkpt>
      <trkpt lat="44.80927" lon="4.6374">
        <ele>182.3</ele>
        <time>2023-06-14T14:36:23.343Z</time>
      </trkpt>
      <trkpt lat="44.80926" lon="4.63734">
        <ele>181.9</ele>
        <time>2023-06-14T14:36:25.295Z</time>
      </trkpt>
      <trkpt lat="44.80925" lon="4.63727">
        <ele>181.4</ele>
        <time>2023-06-14T14:36:27.558Z</time>
      </trkpt>
      <trkpt lat="44.80923" lon="4.63721">
        <ele>181.1</ele>
        <time>2023-06-14T14:36:29.652Z</time>
      </trkpt>
      <trkpt lat="44.80919" lon="4.63707">
        <ele>180.5</ele>
        <time>2023-06-14T14:36:34.422Z</time>
      </trkpt>
      <trkpt lat="44.80916" lon="4.637">
        <ele>180.1</ele>
        <time>2023-06-14T14:36:37.007Z</time>
      </trkpt>
      <trkpt lat="44.80911" lon="4.63688">
        <ele>180.3</ele>
        <time>2023-06-14T14:36:41.393Z</time>
      </trkpt>
      <trkpt lat="44.80905" lon="4.63681">
        <ele>181.4</ele>
        <time>2023-06-14T14:36:44.887Z</time>
      </trkpt>
      <trkpt lat="44.80901" lon="4.63678">
        <ele>182.1</ele>
        <time>2023-06-14T14:36:46.924Z</time>
      </trkpt>
      <trkpt lat="44.80899" lon="4.63676">
        <ele>182.5</ele>
        <time>2023-06-14T14:36:48.025Z</time>
      </trkpt>
      <trkpt lat="44.80898" lon="4.63675">
        <ele>182.6</ele>
        <time>2023-06-14T14:36:48.576Z</time>
      </trkpt>
      <trkpt lat="44.80893" lon="4.63676">
        <ele>184.3</ele>
        <time>2023-06-14T14:36:50.919Z</time>
      </trkpt>
      <trkpt lat="44.80892" lon="4.63676">
        <ele>184.7</ele>
        <time>2023-06-14T14:36:51.394Z</time>
      </trkpt>
      <trkpt lat="44.80892" lon="4.63676">
        <ele>184.7</ele>
        <time>2023-06-14T14:36:51.394Z</time>
      </trkpt>
      <trkpt lat="44.80893" lon="4.63676">
        <ele>184.3</ele>
        <time>2023-06-14T14:36:51.869Z</time>
      </trkpt>
      <trkpt lat="44.80892" lon="4.63677">
        <ele>184.9</ele>
        <time>2023-06-14T14:36:52.462Z</time>
      </trkpt>
      <trkpt lat="44.80892" lon="4.63676">
        <ele>184.7</ele>
        <time>2023-06-14T14:36:52.783Z</time>
      </trkpt>
      <trkpt lat="44.80891" lon="4.63676">
        <ele>185</ele>
        <time>2023-06-14T14:36:53.239Z</time>
      </trkpt>
      <trkpt lat="44.80892" lon="4.63675">
        <ele>184.5</ele>
        <time>2023-06-14T14:36:53.815Z</time>
      </trkpt>
      <trkpt lat="44.80892" lon="4.63673">
        <ele>184.3</ele>
        <time>2023-06-14T14:36:54.448Z</time>
      </trkpt>
      <trkpt lat="44.80892" lon="4.63672">
        <ele>184.2</ele>
        <time>2023-06-14T14:36:54.774Z</time>
      </trkpt>
      <trkpt lat="44.80891" lon="4.63671">
        <ele>184.3</ele>
        <time>2023-06-14T14:36:55.315Z</time>
      </trkpt>
      <trkpt lat="44.80889" lon="4.63672">
        <ele>185.1</ele>
        <time>2023-06-14T14:36:56.313Z</time>
      </trkpt>
      <trkpt lat="44.80889" lon="4.63672">
        <ele>185.1</ele>
        <time>2023-06-14T14:36:56.313Z</time>
      </trkpt>
      <trkpt lat="44.80888" lon="4.63672">
        <ele>185.3</ele>
        <time>2023-06-14T14:36:56.768Z</time>
      </trkpt>
      <trkpt lat="44.80887" lon="4.63672">
        <ele>185.6</ele>
        <time>2023-06-14T14:36:57.231Z</time>
      </trkpt>
      <trkpt lat="44.80887" lon="4.63672">
        <ele>185.6</ele>
        <time>2023-06-14T14:36:57.231Z</time>
      </trkpt>
      <trkpt lat="44.80885" lon="4.63672">
        <ele>186.2</ele>
        <time>2023-06-14T14:36:58.149Z</time>
      </trkpt>
      <trkpt lat="44.80885" lon="4.63672">
        <ele>186.2</ele>
        <time>2023-06-14T14:36:58.149Z</time>
      </trkpt>
      <trkpt lat="44.80883" lon="4.63672">
        <ele>186.8</ele>
        <time>2023-06-14T14:36:59.068Z</time>
      </trkpt>
      <trkpt lat="44.80882" lon="4.63672">
        <ele>187.1</ele>
        <time>2023-06-14T14:36:59.530Z</time>
      </trkpt>
      <trkpt lat="44.80882" lon="4.63671">
        <ele>186.9</ele>
        <time>2023-06-14T14:36:59.852Z</time>
      </trkpt>
      <trkpt lat="44.80883" lon="4.6367">
        <ele>186.4</ele>
        <time>2023-06-14T14:37:00.435Z</time>
      </trkpt>
      <trkpt lat="44.80883" lon="4.6367">
        <ele>186.4</ele>
        <time>2023-06-14T14:37:00.435Z</time>
      </trkpt>
      <trkpt lat="44.80881" lon="4.63671">
        <ele>187.2</ele>
        <time>2023-06-14T14:37:01.435Z</time>
      </trkpt>
      <trkpt lat="44.80876" lon="4.63671">
        <ele>188.8</ele>
        <time>2023-06-14T14:37:03.744Z</time>
      </trkpt>
      <trkpt lat="44.80876" lon="4.63671">
        <ele>188.8</ele>
        <time>2023-06-14T14:37:03.744Z</time>
      </trkpt>
      <trkpt lat="44.80875" lon="4.63671">
        <ele>189.1</ele>
        <time>2023-06-14T14:37:04.207Z</time>
      </trkpt>
      <trkpt lat="44.80874" lon="4.63671">
        <ele>189.4</ele>
        <time>2023-06-14T14:37:04.663Z</time>
      </trkpt>
      <trkpt lat="44.80871" lon="4.63668">
        <ele>189.9</ele>
        <time>2023-06-14T14:37:06.310Z</time>
      </trkpt>
      <trkpt lat="44.80869" lon="4.63667">
        <ele>190.3</ele>
        <time>2023-06-14T14:37:07.271Z</time>
      </trkpt>
      <trkpt lat="44.80864" lon="4.63666">
        <ele>191.6</ele>
        <time>2023-06-14T14:37:09.582Z</time>
      </trkpt>
      <trkpt lat="44.80861" lon="4.63667">
        <ele>192.7</ele>
        <time>2023-06-14T14:37:11.017Z</time>
      </trkpt>
      <trkpt lat="44.80852" lon="4.63669">
        <ele>195.6</ele>
        <time>2023-06-14T14:37:15.229Z</time>
      </trkpt>
      <trkpt lat="44.80846" lon="4.63672">
        <ele>198.1</ele>
        <time>2023-06-14T14:37:18.241Z</time>
      </trkpt>
      <trkpt lat="44.80844" lon="4.63672">
        <ele>198.7</ele>
        <time>2023-06-14T14:37:19.160Z</time>
      </trkpt>
      <trkpt lat="44.80843" lon="4.63672">
        <ele>199</ele>
        <time>2023-06-14T14:37:19.623Z</time>
      </trkpt>
      <trkpt lat="44.8084" lon="4.63671">
        <ele>199.7</ele>
        <time>2023-06-14T14:37:21.017Z</time>
      </trkpt>
      <trkpt lat="44.80836" lon="4.6367">
        <ele>200.7</ele>
        <time>2023-06-14T14:37:22.867Z</time>
      </trkpt>
      <trkpt lat="44.80833" lon="4.63669">
        <ele>201.3</ele>
        <time>2023-06-14T14:37:24.261Z</time>
      </trkpt>
      <trkpt lat="44.80831" lon="4.63669">
        <ele>201.9</ele>
        <time>2023-06-14T14:37:25.175Z</time>
      </trkpt>
      <trkpt lat="44.80826" lon="4.63669">
        <ele>203.2</ele>
        <time>2023-06-14T14:37:27.469Z</time>
      </trkpt>
      <trkpt lat="44.80827" lon="4.63668">
        <ele>203</ele>
        <time>2023-06-14T14:37:28.025Z</time>
      </trkpt>
      <trkpt lat="44.80822" lon="4.63668">
        <ele>204.4</ele>
        <time>2023-06-14T14:37:30.321Z</time>
      </trkpt>
      <trkpt lat="44.80818" lon="4.63668">
        <ele>205.5</ele>
        <time>2023-06-14T14:37:32.155Z</time>
      </trkpt>
      <trkpt lat="44.80815" lon="4.63666">
        <ele>205.8</ele>
        <time>2023-06-14T14:37:33.638Z</time>
      </trkpt>
      <trkpt lat="44.80801" lon="4.63661">
        <ele>208.7</ele>
        <time>2023-06-14T14:37:40.161Z</time>
      </trkpt>
      <trkpt lat="44.80798" lon="4.63659">
        <ele>209.2</ele>
        <time>2023-06-14T14:37:41.653Z</time>
      </trkpt>
      <trkpt lat="44.80794" lon="4.63657">
        <ele>209.9</ele>
        <time>2023-06-14T14:37:43.562Z</time>
      </trkpt>
      <trkpt lat="44.80793" lon="4.63657">
        <ele>210.1</ele>
        <time>2023-06-14T14:37:44.014Z</time>
      </trkpt>
      <trkpt lat="44.80789" lon="4.63656">
        <ele>211</ele>
        <time>2023-06-14T14:37:45.852Z</time>
      </trkpt>
      <trkpt lat="44.80782" lon="4.63654">
        <ele>212.5</ele>
        <time>2023-06-14T14:37:49.087Z</time>
      </trkpt>
      <trkpt lat="44.80781" lon="4.63653">
        <ele>212.5</ele>
        <time>2023-06-14T14:37:49.632Z</time>
      </trkpt>
      <trkpt lat="44.80778" lon="4.63647">
        <ele>212.4</ele>
        <time>2023-06-14T14:37:51.950Z</time>
      </trkpt>
      <trkpt lat="44.8078" lon="4.63645">
        <ele>211.3</ele>
        <time>2023-06-14T14:37:53.113Z</time>
      </trkpt>
      <trkpt lat="44.80781" lon="4.63644">
        <ele>210.7</ele>
        <time>2023-06-14T14:37:53.712Z</time>
      </trkpt>
      <trkpt lat="44.80783" lon="4.63646">
        <ele>210.7</ele>
        <time>2023-06-14T14:37:54.800Z</time>
      </trkpt>
      <trkpt lat="44.80789" lon="4.63649">
        <ele>209.7</ele>
        <time>2023-06-14T14:37:57.662Z</time>
      </trkpt>
      <trkpt lat="44.80793" lon="4.63649">
        <ele>208.7</ele>
        <time>2023-06-14T14:37:59.491Z</time>
      </trkpt>
      <trkpt lat="44.80799" lon="4.63652">
        <ele>207.5</ele>
        <time>2023-06-14T14:38:02.360Z</time>
      </trkpt>
      <trkpt lat="44.80818" lon="4.63655">
        <ele>203.2</ele>
        <time>2023-06-14T14:38:11.036Z</time>
      </trkpt>
      <trkpt lat="44.80821" lon="4.63655">
        <ele>202.4</ele>
        <time>2023-06-14T14:38:12.407Z</time>
      </trkpt>
      <trkpt lat="44.80828" lon="4.63655">
        <ele>200.4</ele>
        <time>2023-06-14T14:38:15.617Z</time>
      </trkpt>
      <trkpt lat="44.80834" lon="4.63653">
        <ele>198.4</ele>
        <time>2023-06-14T14:38:18.476Z</time>
      </trkpt>
      <trkpt lat="44.80841" lon="4.63649">
        <ele>195.7</ele>
        <time>2023-06-14T14:38:21.998Z</time>
      </trkpt>
      <trkpt lat="44.80847" lon="4.63646">
        <ele>193.7</ele>
        <time>2023-06-14T14:38:24.946Z</time>
      </trkpt>
      <trkpt lat="44.80852" lon="4.63643">
        <ele>191.7</ele>
        <time>2023-06-14T14:38:27.494Z</time>
      </trkpt>
      <trkpt lat="44.80856" lon="4.63638">
        <ele>190</ele>
        <time>2023-06-14T14:38:29.962Z</time>
      </trkpt>
      <trkpt lat="44.80857" lon="4.63633">
        <ele>189</ele>
        <time>2023-06-14T14:38:31.650Z</time>
      </trkpt>
      <trkpt lat="44.80856" lon="4.63629">
        <ele>188.7</ele>
        <time>2023-06-14T14:38:32.996Z</time>
      </trkpt>
      <trkpt lat="44.80849" lon="4.63627">
        <ele>190.2</ele>
        <time>2023-06-14T14:38:36.230Z</time>
      </trkpt>
      <trkpt lat="44.80845" lon="4.63622">
        <ele>190.4</ele>
        <time>2023-06-14T14:38:38.604Z</time>
      </trkpt>
      <trkpt lat="44.80842" lon="4.63612">
        <ele>189.7</ele>
        <time>2023-06-14T14:38:42.044Z</time>
      </trkpt>
      <trkpt lat="44.80843" lon="4.63608">
        <ele>188.8</ele>
        <time>2023-06-14T14:38:43.425Z</time>
      </trkpt>
      <trkpt lat="44.80847" lon="4.63601">
        <ele>186.7</ele>
        <time>2023-06-14T14:38:46.388Z</time>
      </trkpt>
      <trkpt lat="44.80854" lon="4.63592">
        <ele>183.6</ele>
        <time>2023-06-14T14:38:50.772Z</time>
      </trkpt>
      <trkpt lat="44.80856" lon="4.63589">
        <ele>182.8</ele>
        <time>2023-06-14T14:38:52.110Z</time>
      </trkpt>
      <trkpt lat="44.8086" lon="4.63582">
        <ele>181.1</ele>
        <time>2023-06-14T14:38:55.032Z</time>
      </trkpt>
      <trkpt lat="44.80861" lon="4.63578">
        <ele>180.5</ele>
        <time>2023-06-14T14:38:56.386Z</time>
      </trkpt>
      <trkpt lat="44.80862" lon="4.6357">
        <ele>179.4</ele>
        <time>2023-06-14T14:38:58.984Z</time>
      </trkpt>
      <trkpt lat="44.80863" lon="4.63563">
        <ele>178.6</ele>
        <time>2023-06-14T14:39:01.262Z</time>
      </trkpt>
      <trkpt lat="44.80864" lon="4.6356">
        <ele>178.2</ele>
        <time>2023-06-14T14:39:02.324Z</time>
      </trkpt>
      <trkpt lat="44.80864" lon="4.63549">
        <ele>177.1</ele>
        <time>2023-06-14T14:39:05.822Z</time>
      </trkpt>
      <trkpt lat="44.80866" lon="4.63539">
        <ele>175.7</ele>
        <time>2023-06-14T14:39:09.144Z</time>
      </trkpt>
      <trkpt lat="44.80866" lon="4.63534">
        <ele>175.3</ele>
        <time>2023-06-14T14:39:10.732Z</time>
      </trkpt>
      <trkpt lat="44.80866" lon="4.63532">
        <ele>175</ele>
        <time>2023-06-14T14:39:11.369Z</time>
      </trkpt>
      <trkpt lat="44.80862" lon="4.63525">
        <ele>175.2</ele>
        <time>2023-06-14T14:39:14.204Z</time>
      </trkpt>
      <trkpt lat="44.80857" lon="4.63518">
        <ele>175.4</ele>
        <time>2023-06-14T14:39:17.335Z</time>
      </trkpt>
      <trkpt lat="44.80854" lon="4.63512">
        <ele>175.4</ele>
        <time>2023-06-14T14:39:19.652Z</time>
      </trkpt>
      <trkpt lat="44.80843" lon="4.63495">
        <ele>175.7</ele>
        <time>2023-06-14T14:39:26.915Z</time>
      </trkpt>
      <trkpt lat="44.80837" lon="4.63485">
        <ele>175.4</ele>
        <time>2023-06-14T14:39:31.047Z</time>
      </trkpt>
      <trkpt lat="44.80829" lon="4.63475">
        <ele>175.3</ele>
        <time>2023-06-14T14:39:35.804Z</time>
      </trkpt>
      <trkpt lat="44.80822" lon="4.63467">
        <ele>175.4</ele>
        <time>2023-06-14T14:39:39.811Z</time>
      </trkpt>
      <trkpt lat="44.80817" lon="4.63463">
        <ele>175.5</ele>
        <time>2023-06-14T14:39:42.372Z</time>
      </trkpt>
      <trkpt lat="44.80815" lon="4.6346">
        <ele>175.4</ele>
        <time>2023-06-14T14:39:43.670Z</time>
      </trkpt>
      <trkpt lat="44.80795" lon="4.63446">
        <ele>175.9</ele>
        <time>2023-06-14T14:39:53.601Z</time>
      </trkpt>
      <trkpt lat="44.80789" lon="4.63444">
        <ele>176.4</ele>
        <time>2023-06-14T14:39:56.354Z</time>
      </trkpt>
      <trkpt lat="44.80782" lon="4.63439">
        <ele>176.3</ele>
        <time>2023-06-14T14:39:59.840Z</time>
      </trkpt>
      <trkpt lat="44.80767" lon="4.63431">
        <ele>176.5</ele>
        <time>2023-06-14T14:40:06.973Z</time>
      </trkpt>
      <trkpt lat="44.80763" lon="4.63429">
        <ele>176.4</ele>
        <time>2023-06-14T14:40:08.863Z</time>
      </trkpt>
      <trkpt lat="44.80751" lon="4.63414">
        <ele>174.5</ele>
        <time>2023-06-14T14:40:16.034Z</time>
      </trkpt>
      <trkpt lat="44.80745" lon="4.63404">
        <ele>174.2</ele>
        <time>2023-06-14T14:40:20.166Z</time>
      </trkpt>
      <trkpt lat="44.8074" lon="4.63399">
        <ele>174.4</ele>
        <time>2023-06-14T14:40:22.898Z</time>
      </trkpt>
      <trkpt lat="44.80735" lon="4.63394">
        <ele>174.6</ele>
        <time>2023-06-14T14:40:25.622Z</time>
      </trkpt>
      <trkpt lat="44.80726" lon="4.63383">
        <ele>174.3</ele>
        <time>2023-06-14T14:40:30.920Z</time>
      </trkpt>
      <trkpt lat="44.80724" lon="4.63382">
        <ele>174.5</ele>
        <time>2023-06-14T14:40:31.865Z</time>
      </trkpt>
      <trkpt lat="44.80713" lon="4.6337">
        <ele>173.9</ele>
        <time>2023-06-14T14:40:38.055Z</time>
      </trkpt>
      <trkpt lat="44.80707" lon="4.63366">
        <ele>173.9</ele>
        <time>2023-06-14T14:40:41.005Z</time>
      </trkpt>
      <trkpt lat="44.80704" lon="4.63364">
        <ele>173.7</ele>
        <time>2023-06-14T14:40:42.485Z</time>
      </trkpt>
      <trkpt lat="44.80692" lon="4.63363">
        <ele>175.1</ele>
        <time>2023-06-14T14:40:47.859Z</time>
      </trkpt>
      <trkpt lat="44.80674" lon="4.63357">
        <ele>176.1</ele>
        <time>2023-06-14T14:40:56.095Z</time>
      </trkpt>
      <trkpt lat="44.80663" lon="4.63347">
        <ele>175</ele>
        <time>2023-06-14T14:41:01.934Z</time>
      </trkpt>
      <trkpt lat="44.80661" lon="4.63345">
        <ele>175.1</ele>
        <time>2023-06-14T14:41:03.024Z</time>
      </trkpt>
      <trkpt lat="44.80659" lon="4.63342">
        <ele>174.5</ele>
        <time>2023-06-14T14:41:04.349Z</time>
      </trkpt>
      <trkpt lat="44.80648" lon="4.63327">
        <ele>174.6</ele>
        <time>2023-06-14T14:41:11.155Z</time>
      </trkpt>
      <trkpt lat="44.80643" lon="4.6332">
        <ele>174.9</ele>
        <time>2023-06-14T14:41:14.289Z</time>
      </trkpt>
      <trkpt lat="44.80639" lon="4.63311">
        <ele>175</ele>
        <time>2023-06-14T14:41:17.641Z</time>
      </trkpt>
      <trkpt lat="44.80637" lon="4.63308">
        <ele>174.9</ele>
        <time>2023-06-14T14:41:18.939Z</time>
      </trkpt>
      <trkpt lat="44.80626" lon="4.63285">
        <ele>173.7</ele>
        <time>2023-06-14T14:41:27.702Z</time>
      </trkpt>
      <trkpt lat="44.80623" lon="4.6328">
        <ele>173.4</ele>
        <time>2023-06-14T14:41:29.776Z</time>
      </trkpt>
      <trkpt lat="44.80618" lon="4.63267">
        <ele>171.8</ele>
        <time>2023-06-14T14:41:34.481Z</time>
      </trkpt>
      <trkpt lat="44.80617" lon="4.63264">
        <ele>171.2</ele>
        <time>2023-06-14T14:41:35.555Z</time>
      </trkpt>
      <trkpt lat="44.8061" lon="4.63246">
        <ele>169.4</ele>
        <time>2023-06-14T14:41:42.071Z</time>
      </trkpt>
      <trkpt lat="44.80597" lon="4.63229">
        <ele>170.1</ele>
        <time>2023-06-14T14:41:49.958Z</time>
      </trkpt>
      <trkpt lat="44.80596" lon="4.63227">
        <ele>170.1</ele>
        <time>2023-06-14T14:41:50.730Z</time>
      </trkpt>
      <trkpt lat="44.80589" lon="4.63218">
        <ele>169.9</ele>
        <time>2023-06-14T14:41:54.942Z</time>
      </trkpt>
      <trkpt lat="44.80587" lon="4.63213">
        <ele>169.7</ele>
        <time>2023-06-14T14:41:56.756Z</time>
      </trkpt>
      <trkpt lat="44.80576" lon="4.63198">
        <ele>171.4</ele>
        <time>2023-06-14T14:42:03.597Z</time>
      </trkpt>
      <trkpt lat="44.80571" lon="4.63188">
        <ele>172.3</ele>
        <time>2023-06-14T14:42:07.475Z</time>
      </trkpt>
      <trkpt lat="44.80564" lon="4.63178">
        <ele>173.4</ele>
        <time>2023-06-14T14:42:11.930Z</time>
      </trkpt>
      <trkpt lat="44.80554" lon="4.63159">
        <ele>175.1</ele>
        <time>2023-06-14T14:42:19.421Z</time>
      </trkpt>
      <trkpt lat="44.80554" lon="4.63156">
        <ele>175.2</ele>
        <time>2023-06-14T14:42:20.368Z</time>
      </trkpt>
      <trkpt lat="44.80553" lon="4.63152">
        <ele>175.4</ele>
        <time>2023-06-14T14:42:21.713Z</time>
      </trkpt>
      <trkpt lat="44.8055" lon="4.63147">
        <ele>176.1</ele>
        <time>2023-06-14T14:42:23.796Z</time>
      </trkpt>
      <trkpt lat="44.80547" lon="4.63136">
        <ele>176.7</ele>
        <time>2023-06-14T14:42:27.520Z</time>
      </trkpt>
      <trkpt lat="44.80539" lon="4.63112">
        <ele>177.5</ele>
        <time>2023-06-14T14:42:35.894Z</time>
      </trkpt>
      <trkpt lat="44.80523" lon="4.6309">
        <ele>178.1</ele>
        <time>2023-06-14T14:42:45.833Z</time>
      </trkpt>
      <trkpt lat="44.80507" lon="4.63058">
        <ele>176.7</ele>
        <time>2023-06-14T14:42:58.199Z</time>
      </trkpt>
      <trkpt lat="44.80501" lon="4.63037">
        <ele>175.1</ele>
        <time>2023-06-14T14:43:05.374Z</time>
      </trkpt>
      <trkpt lat="44.80498" lon="4.63029">
        <ele>175.1</ele>
        <time>2023-06-14T14:43:08.228Z</time>
      </trkpt>
      <trkpt lat="44.80496" lon="4.63021">
        <ele>175.1</ele>
        <time>2023-06-14T14:43:10.902Z</time>
      </trkpt>
      <trkpt lat="44.80492" lon="4.63004">
        <ele>174.7</ele>
        <time>2023-06-14T14:43:16.560Z</time>
      </trkpt>
      <trkpt lat="44.80486" lon="4.62976">
        <ele>174</ele>
        <time>2023-06-14T14:43:25.791Z</time>
      </trkpt>
      <trkpt lat="44.80483" lon="4.62964">
        <ele>173.7</ele>
        <time>2023-06-14T14:43:29.808Z</time>
      </trkpt>
      <trkpt lat="44.80479" lon="4.62957">
        <ele>174</ele>
        <time>2023-06-14T14:43:32.647Z</time>
      </trkpt>
      <trkpt lat="44.80473" lon="4.62954">
        <ele>175.1</ele>
        <time>2023-06-14T14:43:35.512Z</time>
      </trkpt>
      <trkpt lat="44.80463" lon="4.62953">
        <ele>177.4</ele>
        <time>2023-06-14T14:43:40.063Z</time>
      </trkpt>
      <trkpt lat="44.80461" lon="4.62954">
        <ele>178</ele>
        <time>2023-06-14T14:43:41.037Z</time>
      </trkpt>
      <trkpt lat="44.80443" lon="4.62964">
        <ele>183.8</ele>
        <time>2023-06-14T14:43:49.942Z</time>
      </trkpt>
      <trkpt lat="44.80441" lon="4.62966">
        <ele>184.7</ele>
        <time>2023-06-14T14:43:51.094Z</time>
      </trkpt>
      <trkpt lat="44.80436" lon="4.62974">
        <ele>187.1</ele>
        <time>2023-06-14T14:43:54.597Z</time>
      </trkpt>
      <trkpt lat="44.80434" lon="4.62975">
        <ele>187.6</ele>
        <time>2023-06-14T14:43:55.560Z</time>
      </trkpt>
      <trkpt lat="44.80422" lon="4.62964">
        <ele>189</ele>
        <time>2023-06-14T14:44:01.951Z</time>
      </trkpt>
      <trkpt lat="44.80416" lon="4.62946">
        <ele>187.3</ele>
        <time>2023-06-14T14:44:08.260Z</time>
      </trkpt>
      <trkpt lat="44.80421" lon="4.62933">
        <ele>183.8</ele>
        <time>2023-06-14T14:44:13.129Z</time>
      </trkpt>
      <trkpt lat="44.80421" lon="4.6293">
        <ele>183.4</ele>
        <time>2023-06-14T14:44:14.093Z</time>
      </trkpt>
      <trkpt lat="44.80426" lon="4.62916">
        <ele>180</ele>
        <time>2023-06-14T14:44:19.217Z</time>
      </trkpt>
      <trkpt lat="44.80428" lon="4.62911">
        <ele>179</ele>
        <time>2023-06-14T14:44:21.074Z</time>
      </trkpt>
      <trkpt lat="44.80429" lon="4.62902">
        <ele>177.7</ele>
        <time>2023-06-14T14:44:23.993Z</time>
      </trkpt>
      <trkpt lat="44.8043" lon="4.62899">
        <ele>177.3</ele>
        <time>2023-06-14T14:44:25.057Z</time>
      </trkpt>
      <trkpt lat="44.80431" lon="4.62874">
        <ele>174.2</ele>
        <time>2023-06-14T14:44:33.049Z</time>
      </trkpt>
      <trkpt lat="44.80424" lon="4.62858">
        <ele>172.9</ele>
        <time>2023-06-14T14:44:39.006Z</time>
      </trkpt>
      <trkpt lat="44.80413" lon="4.62842">
        <ele>172.7</ele>
        <time>2023-06-14T14:44:46.034Z</time>
      </trkpt>
      <trkpt lat="44.80413" lon="4.62831">
        <ele>171.5</ele>
        <time>2023-06-14T14:44:49.535Z</time>
      </trkpt>
      <trkpt lat="44.80415" lon="4.62824">
        <ele>170.3</ele>
        <time>2023-06-14T14:44:51.961Z</time>
      </trkpt>
      <trkpt lat="44.80421" lon="4.62815">
        <ele>169.2</ele>
        <time>2023-06-14T14:44:55.884Z</time>
      </trkpt>
      <trkpt lat="44.80426" lon="4.6281">
        <ele>168.9</ele>
        <time>2023-06-14T14:44:58.610Z</time>
      </trkpt>
      <trkpt lat="44.80427" lon="4.62807">
        <ele>168.8</ele>
        <time>2023-06-14T14:44:59.659Z</time>
      </trkpt>
      <trkpt lat="44.80433" lon="4.62785">
        <ele>168.1</ele>
        <time>2023-06-14T14:45:07.099Z</time>
      </trkpt>
      <trkpt lat="44.8043" lon="4.62776">
        <ele>167.9</ele>
        <time>2023-06-14T14:45:10.238Z</time>
      </trkpt>
      <trkpt lat="44.80427" lon="4.6277">
        <ele>167.7</ele>
        <time>2023-06-14T14:45:12.556Z</time>
      </trkpt>
      <trkpt lat="44.80425" lon="4.62767">
        <ele>167.6</ele>
        <time>2023-06-14T14:45:13.854Z</time>
      </trkpt>
      <trkpt lat="44.80422" lon="4.62761">
        <ele>167.4</ele>
        <time>2023-06-14T14:45:16.172Z</time>
      </trkpt>
      <trkpt lat="44.80414" lon="4.62741">
        <ele>168</ele>
        <time>2023-06-14T14:45:23.419Z</time>
      </trkpt>
      <trkpt lat="44.80412" lon="4.62731">
        <ele>168.7</ele>
        <time>2023-06-14T14:45:26.713Z</time>
      </trkpt>
      <trkpt lat="44.80407" lon="4.62718">
        <ele>170.5</ele>
        <time>2023-06-14T14:45:31.426Z</time>
      </trkpt>
      <trkpt lat="44.80402" lon="4.62707">
        <ele>172.2</ele>
        <time>2023-06-14T14:45:35.602Z</time>
      </trkpt>
      <trkpt lat="44.80397" lon="4.62699">
        <ele>173.7</ele>
        <time>2023-06-14T14:45:39.020Z</time>
      </trkpt>
      <trkpt lat="44.80396" lon="4.62697">
        <ele>173.9</ele>
        <time>2023-06-14T14:45:39.801Z</time>
      </trkpt>
      <trkpt lat="44.80393" lon="4.62691">
        <ele>174.7</ele>
        <time>2023-06-14T14:45:42.139Z</time>
      </trkpt>
      <trkpt lat="44.8038" lon="4.62681">
        <ele>178.6</ele>
        <time>2023-06-14T14:45:48.907Z</time>
      </trkpt>
      <trkpt lat="44.80367" lon="4.62671">
        <ele>182.1</ele>
        <time>2023-06-14T14:45:55.636Z</time>
      </trkpt>
      <trkpt lat="44.80366" lon="4.62667">
        <ele>182.1</ele>
        <time>2023-06-14T14:45:56.972Z</time>
      </trkpt>
      <trkpt lat="44.80366" lon="4.62663">
        <ele>181.8</ele>
        <time>2023-06-14T14:45:58.243Z</time>
      </trkpt>
      <trkpt lat="44.80366" lon="4.62659">
        <ele>181.5</ele>
        <time>2023-06-14T14:45:59.514Z</time>
      </trkpt>
      <trkpt lat="44.80373" lon="4.62645">
        <ele>178.5</ele>
        <time>2023-06-14T14:46:05.046Z</time>
      </trkpt>
      <trkpt lat="44.80384" lon="4.6263">
        <ele>174.9</ele>
        <time>2023-06-14T14:46:12.005Z</time>
      </trkpt>
      <trkpt lat="44.80386" lon="4.62622">
        <ele>174.1</ele>
        <time>2023-06-14T14:46:14.699Z</time>
      </trkpt>
      <trkpt lat="44.80386" lon="4.62606">
        <ele>173.4</ele>
        <time>2023-06-14T14:46:19.753Z</time>
      </trkpt>
      <trkpt lat="44.80376" lon="4.62591">
        <ele>174.4</ele>
        <time>2023-06-14T14:46:26.256Z</time>
      </trkpt>
      <trkpt lat="44.80366" lon="4.62578">
        <ele>175.1</ele>
        <time>2023-06-14T14:46:32.314Z</time>
      </trkpt>
      <trkpt lat="44.8036" lon="4.62566">
        <ele>175.4</ele>
        <time>2023-06-14T14:46:36.948Z</time>
      </trkpt>
      <trkpt lat="44.80359" lon="4.62559">
        <ele>175.2</ele>
        <time>2023-06-14T14:46:39.204Z</time>
      </trkpt>
      <trkpt lat="44.80357" lon="4.62545">
        <ele>174.7</ele>
        <time>2023-06-14T14:46:43.715Z</time>
      </trkpt>
      <trkpt lat="44.80355" lon="4.62539">
        <ele>174.6</ele>
        <time>2023-06-14T14:46:45.806Z</time>
      </trkpt>
      <trkpt lat="44.80354" lon="4.62532">
        <ele>174.2</ele>
        <time>2023-06-14T14:46:48.062Z</time>
      </trkpt>
      <trkpt lat="44.80351" lon="4.62526">
        <ele>174</ele>
        <time>2023-06-14T14:46:50.380Z</time>
      </trkpt>
      <trkpt lat="44.80343" lon="4.6251">
        <ele>172.9</ele>
        <time>2023-06-14T14:46:56.571Z</time>
      </trkpt>
      <trkpt lat="44.8034" lon="4.62504">
        <ele>172.5</ele>
        <time>2023-06-14T14:46:58.895Z</time>
      </trkpt>
      <trkpt lat="44.80333" lon="4.62497">
        <ele>172.1</ele>
        <time>2023-06-14T14:47:02.709Z</time>
      </trkpt>
      <trkpt lat="44.8032" lon="4.62484">
        <ele>176.5</ele>
        <time>2023-06-14T14:47:10.019Z</time>
      </trkpt>
      <trkpt lat="44.80317" lon="4.62477">
        <ele>177.3</ele>
        <time>2023-06-14T14:47:12.613Z</time>
      </trkpt>
      <trkpt lat="44.80316" lon="4.62469">
        <ele>177.2</ele>
        <time>2023-06-14T14:47:15.179Z</time>
      </trkpt>
      <trkpt lat="44.80308" lon="4.62439">
        <ele>177.7</ele>
        <time>2023-06-14T14:47:25.293Z</time>
      </trkpt>
      <trkpt lat="44.80301" lon="4.62424">
        <ele>178</ele>
        <time>2023-06-14T14:47:30.957Z</time>
      </trkpt>
      <trkpt lat="44.80297" lon="4.62416">
        <ele>178.1</ele>
        <time>2023-06-14T14:47:34.046Z</time>
      </trkpt>
      <trkpt lat="44.80286" lon="4.62398">
        <ele>179.2</ele>
        <time>2023-06-14T14:47:41.557Z</time>
      </trkpt>
      <trkpt lat="44.80283" lon="4.62392">
        <ele>179.4</ele>
        <time>2023-06-14T14:47:43.874Z</time>
      </trkpt>
      <trkpt lat="44.80273" lon="4.62367">
        <ele>179.1</ele>
        <time>2023-06-14T14:47:52.927Z</time>
      </trkpt>
      <trkpt lat="44.80271" lon="4.62361">
        <ele>178.8</ele>
        <time>2023-06-14T14:47:55.024Z</time>
      </trkpt>
      <trkpt lat="44.80271" lon="4.62353">
        <ele>178.3</ele>
        <time>2023-06-14T14:47:57.556Z</time>
      </trkpt>
      <trkpt lat="44.80273" lon="4.62338">
        <ele>177.2</ele>
        <time>2023-06-14T14:48:02.391Z</time>
      </trkpt>
      <trkpt lat="44.80275" lon="4.62332">
        <ele>177</ele>
        <time>2023-06-14T14:48:04.485Z</time>
      </trkpt>
      <trkpt lat="44.80279" lon="4.62311">
        <ele>176.9</ele>
        <time>2023-06-14T14:48:11.348Z</time>
      </trkpt>
      <trkpt lat="44.80281" lon="4.6229">
        <ele>176.9</ele>
        <time>2023-06-14T14:48:18.029Z</time>
      </trkpt>
      <trkpt lat="44.80281" lon="4.62275">
        <ele>176.8</ele>
        <time>2023-06-14T14:48:22.764Z</time>
      </trkpt>
      <trkpt lat="44.80281" lon="4.62268">
        <ele>176.8</ele>
        <time>2023-06-14T14:48:24.975Z</time>
      </trkpt>
      <trkpt lat="44.8028" lon="4.62247">
        <ele>176.7</ele>
        <time>2023-06-14T14:48:31.612Z</time>
      </trkpt>
      <trkpt lat="44.80278" lon="4.62241">
        <ele>176.5</ele>
        <time>2023-06-14T14:48:33.705Z</time>
      </trkpt>
      <trkpt lat="44.80276" lon="4.6223">
        <ele>176.3</ele>
        <time>2023-06-14T14:48:37.287Z</time>
      </trkpt>
      <trkpt lat="44.80273" lon="4.62215">
        <ele>176</ele>
        <time>2023-06-14T14:48:42.207Z</time>
      </trkpt>
      <trkpt lat="44.80263" lon="4.62197">
        <ele>174.2</ele>
        <time>2023-06-14T14:48:49.459Z</time>
      </trkpt>
      <trkpt lat="44.80252" lon="4.62187">
        <ele>171.9</ele>
        <time>2023-06-14T14:48:55.354Z</time>
      </trkpt>
      <trkpt lat="44.80241" lon="4.62173">
        <ele>172.5</ele>
        <time>2023-06-14T14:49:01.948Z</time>
      </trkpt>
      <trkpt lat="44.80229" lon="4.6214">
        <ele>173.7</ele>
        <time>2023-06-14T14:49:13.656Z</time>
      </trkpt>
      <trkpt lat="44.80227" lon="4.62136">
        <ele>173.8</ele>
        <time>2023-06-14T14:49:15.202Z</time>
      </trkpt>
      <trkpt lat="44.80224" lon="4.62127">
        <ele>174</ele>
        <time>2023-06-14T14:49:18.341Z</time>
      </trkpt>
      <trkpt lat="44.80221" lon="4.62114">
        <ele>174</ele>
        <time>2023-06-14T14:49:22.652Z</time>
      </trkpt>
      <trkpt lat="44.80214" lon="4.62093">
        <ele>174</ele>
        <time>2023-06-14T14:49:29.976Z</time>
      </trkpt>
      <trkpt lat="44.80203" lon="4.62066">
        <ele>174</ele>
        <time>2023-06-14T14:49:39.796Z</time>
      </trkpt>
      <trkpt lat="44.80192" lon="4.62046">
        <ele>174</ele>
        <time>2023-06-14T14:49:47.784Z</time>
      </trkpt>
      <trkpt lat="44.80175" lon="4.62029">
        <ele>173.9</ele>
        <time>2023-06-14T14:49:57.052Z</time>
      </trkpt>
      <trkpt lat="44.80157" lon="4.62005">
        <ele>175.1</ele>
        <time>2023-06-14T14:50:08.081Z</time>
      </trkpt>
      <trkpt lat="44.80153" lon="4.61999">
        <ele>175.8</ele>
        <time>2023-06-14T14:50:10.693Z</time>
      </trkpt>
      <trkpt lat="44.8015" lon="4.61993">
        <ele>176.1</ele>
        <time>2023-06-14T14:50:13.014Z</time>
      </trkpt>
      <trkpt lat="44.80149" lon="4.61989">
        <ele>176.2</ele>
        <time>2023-06-14T14:50:14.353Z</time>
      </trkpt>
      <trkpt lat="44.80141" lon="4.61959">
        <ele>176.4</ele>
        <time>2023-06-14T14:50:24.462Z</time>
      </trkpt>
      <trkpt lat="44.80134" lon="4.61935">
        <ele>176.1</ele>
        <time>2023-06-14T14:50:32.653Z</time>
      </trkpt>
      <trkpt lat="44.80133" lon="4.6193">
        <ele>175.9</ele>
        <time>2023-06-14T14:50:34.293Z</time>
      </trkpt>
      <trkpt lat="44.80128" lon="4.61902">
        <ele>175.4</ele>
        <time>2023-06-14T14:50:43.405Z</time>
      </trkpt>
      <trkpt lat="44.80119" lon="4.61864">
        <ele>175.1</ele>
        <time>2023-06-14T14:50:56.047Z</time>
      </trkpt>
      <trkpt lat="44.80118" lon="4.61848">
        <ele>174.7</ele>
        <time>2023-06-14T14:51:01.120Z</time>
      </trkpt>
      <trkpt lat="44.80119" lon="4.61845">
        <ele>174.6</ele>
        <time>2023-06-14T14:51:02.165Z</time>
      </trkpt>
      <trkpt lat="44.8012" lon="4.61846">
        <ele>174.5</ele>
        <time>2023-06-14T14:51:02.714Z</time>
      </trkpt>
      <trkpt lat="44.8012" lon="4.61849">
        <ele>174.7</ele>
        <time>2023-06-14T14:51:03.662Z</time>
      </trkpt>
      <trkpt lat="44.80119" lon="4.61849">
        <ele>174.7</ele>
        <time>2023-06-14T14:51:04.109Z</time>
      </trkpt>
      <trkpt lat="44.80121" lon="4.61849">
        <ele>174.6</ele>
        <time>2023-06-14T14:51:04.998Z</time>
      </trkpt>
      <trkpt lat="44.80125" lon="4.6185">
        <ele>174.4</ele>
        <time>2023-06-14T14:51:06.810Z</time>
      </trkpt>
      <trkpt lat="44.80126" lon="4.6185">
        <ele>174.3</ele>
        <time>2023-06-14T14:51:07.257Z</time>
      </trkpt>
      <trkpt lat="44.80126" lon="4.6185">
        <ele>174.3</ele>
        <time>2023-06-14T14:51:07.257Z</time>
      </trkpt>
      <trkpt lat="44.80125" lon="4.6185">
        <ele>174.4</ele>
        <time>2023-06-14T14:51:07.705Z</time>
      </trkpt>
      <trkpt lat="44.80121" lon="4.6185">
        <ele>174.6</ele>
        <time>2023-06-14T14:51:09.489Z</time>
      </trkpt>
      <trkpt lat="44.80119" lon="4.61849">
        <ele>174.7</ele>
        <time>2023-06-14T14:51:10.432Z</time>
      </trkpt>
      <trkpt lat="44.80119" lon="4.61847">
        <ele>174.6</ele>
        <time>2023-06-14T14:51:11.062Z</time>
      </trkpt>
      <trkpt lat="44.80127" lon="4.61829">
        <ele>173.8</ele>
        <time>2023-06-14T14:51:17.772Z</time>
      </trkpt>
      <trkpt lat="44.80132" lon="4.61818">
        <ele>173.4</ele>
        <time>2023-06-14T14:51:21.899Z</time>
      </trkpt>
      <trkpt lat="44.80137" lon="4.61808">
        <ele>173.1</ele>
        <time>2023-06-14T14:51:25.763Z</time>
      </trkpt>
      <trkpt lat="44.80143" lon="4.61796">
        <ele>172.7</ele>
        <time>2023-06-14T14:51:30.398Z</time>
      </trkpt>
      <trkpt lat="44.80146" lon="4.61791">
        <ele>172.6</ele>
        <time>2023-06-14T14:51:32.464Z</time>
      </trkpt>
      <trkpt lat="44.80152" lon="4.61779">
        <ele>172.4</ele>
        <time>2023-06-14T14:51:37.098Z</time>
      </trkpt>
      <trkpt lat="44.8016" lon="4.61759">
        <ele>172.1</ele>
        <time>2023-06-14T14:51:44.342Z</time>
      </trkpt>
      <trkpt lat="44.80161" lon="4.61745">
        <ele>172.1</ele>
        <time>2023-06-14T14:51:48.782Z</time>
      </trkpt>
      <trkpt lat="44.80162" lon="4.61737">
        <ele>172.2</ele>
        <time>2023-06-14T14:51:51.343Z</time>
      </trkpt>
      <trkpt lat="44.80159" lon="4.61724">
        <ele>172.4</ele>
        <time>2023-06-14T14:51:55.660Z</time>
      </trkpt>
      <trkpt lat="44.80157" lon="4.61719">
        <ele>172.4</ele>
        <time>2023-06-14T14:51:57.469Z</time>
      </trkpt>
      <trkpt lat="44.80146" lon="4.61706">
        <ele>172.6</ele>
        <time>2023-06-14T14:52:03.850Z</time>
      </trkpt>
      <trkpt lat="44.80144" lon="4.61703">
        <ele>172.7</ele>
        <time>2023-06-14T14:52:05.153Z</time>
      </trkpt>
      <trkpt lat="44.80138" lon="4.61693">
        <ele>172.8</ele>
        <time>2023-06-14T14:52:09.283Z</time>
      </trkpt>
      <trkpt lat="44.80135" lon="4.61685">
        <ele>172.9</ele>
        <time>2023-06-14T14:52:12.137Z</time>
      </trkpt>
      <trkpt lat="44.80134" lon="4.61683">
        <ele>172.9</ele>
        <time>2023-06-14T14:52:12.910Z</time>
      </trkpt>
      <trkpt lat="44.80131" lon="4.61676">
        <ele>172.9</ele>
        <time>2023-06-14T14:52:15.492Z</time>
      </trkpt>
      <trkpt lat="44.80128" lon="4.61669">
        <ele>173</ele>
        <time>2023-06-14T14:52:18.070Z</time>
      </trkpt>
      <trkpt lat="44.80128" lon="4.61667">
        <ele>173</ele>
        <time>2023-06-14T14:52:18.705Z</time>
      </trkpt>
      <trkpt lat="44.80127" lon="4.61663">
        <ele>173.2</ele>
        <time>2023-06-14T14:52:20.044Z</time>
      </trkpt>
      <trkpt lat="44.80125" lon="4.61656">
        <ele>173.6</ele>
        <time>2023-06-14T14:52:22.432Z</time>
      </trkpt>
      <trkpt lat="44.80124" lon="4.61651">
        <ele>173.9</ele>
        <time>2023-06-14T14:52:24.073Z</time>
      </trkpt>
      <trkpt lat="44.80122" lon="4.61638">
        <ele>174.6</ele>
        <time>2023-06-14T14:52:28.282Z</time>
      </trkpt>
      <trkpt lat="44.80121" lon="4.61634">
        <ele>174.8</ele>
        <time>2023-06-14T14:52:29.622Z</time>
      </trkpt>
      <trkpt lat="44.80121" lon="4.6163">
        <ele>175.1</ele>
        <time>2023-06-14T14:52:30.891Z</time>
      </trkpt>
      <trkpt lat="44.8012" lon="4.61628">
        <ele>175.2</ele>
        <time>2023-06-14T14:52:31.660Z</time>
      </trkpt>
      <trkpt lat="44.80118" lon="4.61619">
        <ele>175.7</ele>
        <time>2023-06-14T14:52:34.644Z</time>
      </trkpt>
      <trkpt lat="44.80117" lon="4.61617">
        <ele>175.8</ele>
        <time>2023-06-14T14:52:35.417Z</time>
      </trkpt>
      <trkpt lat="44.80117" lon="4.61616">
        <ele>175.9</ele>
        <time>2023-06-14T14:52:35.736Z</time>
      </trkpt>
      <trkpt lat="44.80115" lon="4.61613">
        <ele>176.2</ele>
        <time>2023-06-14T14:52:37.037Z</time>
      </trkpt>
      <trkpt lat="44.80115" lon="4.61611">
        <ele>176.3</ele>
        <time>2023-06-14T14:52:37.668Z</time>
      </trkpt>
      <trkpt lat="44.80114" lon="4.61608">
        <ele>176.4</ele>
        <time>2023-06-14T14:52:38.717Z</time>
      </trkpt>
      <trkpt lat="44.80113" lon="4.61606">
        <ele>176.6</ele>
        <time>2023-06-14T14:52:39.497Z</time>
      </trkpt>
      <trkpt lat="44.80113" lon="4.61604">
        <ele>176.7</ele>
        <time>2023-06-14T14:52:40.127Z</time>
      </trkpt>
      <trkpt lat="44.80111" lon="4.616">
        <ele>177.1</ele>
        <time>2023-06-14T14:52:41.674Z</time>
      </trkpt>
      <trkpt lat="44.80109" lon="4.61596">
        <ele>177.4</ele>
        <time>2023-06-14T14:52:43.223Z</time>
      </trkpt>
      <trkpt lat="44.80109" lon="4.61595">
        <ele>177.4</ele>
        <time>2023-06-14T14:52:43.540Z</time>
      </trkpt>
      <trkpt lat="44.80107" lon="4.61591">
        <ele>177.7</ele>
        <time>2023-06-14T14:52:45.090Z</time>
      </trkpt>
      <trkpt lat="44.80105" lon="4.61586">
        <ele>178.1</ele>
        <time>2023-06-14T14:52:46.910Z</time>
      </trkpt>
      <trkpt lat="44.80103" lon="4.61585">
        <ele>178.2</ele>
        <time>2023-06-14T14:52:47.852Z</time>
      </trkpt>
      <trkpt lat="44.801" lon="4.61581">
        <ele>178.5</ele>
        <time>2023-06-14T14:52:49.695Z</time>
      </trkpt>
      <trkpt lat="44.801" lon="4.6158">
        <ele>178.6</ele>
        <time>2023-06-14T14:52:50.008Z</time>
      </trkpt>
      <trkpt lat="44.80099" lon="4.61576">
        <ele>178.8</ele>
        <time>2023-06-14T14:52:51.351Z</time>
      </trkpt>
      <trkpt lat="44.80096" lon="4.6157">
        <ele>179.2</ele>
        <time>2023-06-14T14:52:53.674Z</time>
      </trkpt>
      <trkpt lat="44.80096" lon="4.61569">
        <ele>179.2</ele>
        <time>2023-06-14T14:52:53.991Z</time>
      </trkpt>
      <trkpt lat="44.80095" lon="4.61566">
        <ele>179.4</ele>
        <time>2023-06-14T14:52:55.042Z</time>
      </trkpt>
      <trkpt lat="44.80094" lon="4.61565">
        <ele>179.5</ele>
        <time>2023-06-14T14:52:55.581Z</time>
      </trkpt>
      <trkpt lat="44.80091" lon="4.61562">
        <ele>179.8</ele>
        <time>2023-06-14T14:52:57.222Z</time>
      </trkpt>
      <trkpt lat="44.80087" lon="4.61557">
        <ele>180.2</ele>
        <time>2023-06-14T14:52:59.606Z</time>
      </trkpt>
      <trkpt lat="44.80087" lon="4.61556">
        <ele>180.2</ele>
        <time>2023-06-14T14:52:59.924Z</time>
      </trkpt>
      <trkpt lat="44.80086" lon="4.61555">
        <ele>180.3</ele>
        <time>2023-06-14T14:53:00.468Z</time>
      </trkpt>
      <trkpt lat="44.80083" lon="4.61552">
        <ele>180.6</ele>
        <time>2023-06-14T14:53:02.108Z</time>
      </trkpt>
      <trkpt lat="44.80081" lon="4.61552">
        <ele>180.9</ele>
        <time>2023-06-14T14:53:03.014Z</time>
      </trkpt>
      <trkpt lat="44.80079" lon="4.61556">
        <ele>181.1</ele>
        <time>2023-06-14T14:53:04.559Z</time>
      </trkpt>
      <trkpt lat="44.80077" lon="4.6156">
        <ele>181.2</ele>
        <time>2023-06-14T14:53:06.100Z</time>
      </trkpt>
      <trkpt lat="44.80076" lon="4.61562">
        <ele>181.3</ele>
        <time>2023-06-14T14:53:06.877Z</time>
      </trkpt>
      <trkpt lat="44.80073" lon="4.61566">
        <ele>181.5</ele>
        <time>2023-06-14T14:53:08.715Z</time>
      </trkpt>
      <trkpt lat="44.80072" lon="4.61569">
        <ele>181.5</ele>
        <time>2023-06-14T14:53:09.762Z</time>
      </trkpt>
      <trkpt lat="44.80067" lon="4.61582">
        <ele>181.4</ele>
        <time>2023-06-14T14:53:14.430Z</time>
      </trkpt>
      <trkpt lat="44.80065" lon="4.6159">
        <ele>181.1</ele>
        <time>2023-06-14T14:53:17.107Z</time>
      </trkpt>
      <trkpt lat="44.80064" lon="4.61591">
        <ele>181.1</ele>
        <time>2023-06-14T14:53:17.656Z</time>
      </trkpt>
      <trkpt lat="44.80065" lon="4.61591">
        <ele>181</ele>
        <time>2023-06-14T14:53:18.107Z</time>
      </trkpt>
      <trkpt lat="44.80066" lon="4.61591">
        <ele>180.9</ele>
        <time>2023-06-14T14:53:18.557Z</time>
      </trkpt>
      <trkpt lat="44.80066" lon="4.61591">
        <ele>180.9</ele>
        <time>2023-06-14T14:53:18.557Z</time>
      </trkpt>
      <trkpt lat="44.80066" lon="4.61592">
        <ele>180.9</ele>
        <time>2023-06-14T14:53:18.869Z</time>
      </trkpt>
      <trkpt lat="44.80065" lon="4.61595">
        <ele>180.7</ele>
        <time>2023-06-14T14:53:19.919Z</time>
      </trkpt>
      <trkpt lat="44.80065" lon="4.61594">
        <ele>180.8</ele>
        <time>2023-06-14T14:53:20.234Z</time>
      </trkpt>
      <trkpt lat="44.80065" lon="4.61594">
        <ele>180.8</ele>
        <time>2023-06-14T14:53:20.234Z</time>
      </trkpt>
      <trkpt lat="44.80065" lon="4.61595">
        <ele>180.7</ele>
        <time>2023-06-14T14:53:20.548Z</time>
      </trkpt>
      <trkpt lat="44.80065" lon="4.61595">
        <ele>180.7</ele>
        <time>2023-06-14T14:53:20.548Z</time>
      </trkpt>
      <trkpt lat="44.80064" lon="4.61596">
        <ele>180.8</ele>
        <time>2023-06-14T14:53:21.099Z</time>
      </trkpt>
      <trkpt lat="44.80064" lon="4.61596">
        <ele>180.8</ele>
        <time>2023-06-14T14:53:21.099Z</time>
      </trkpt>
      <trkpt lat="44.80064" lon="4.61596">
        <ele>180.8</ele>
        <time>2023-06-14T14:53:21.099Z</time>
      </trkpt>
      <trkpt lat="44.80065" lon="4.61596">
        <ele>180.7</ele>
        <time>2023-06-14T14:53:21.550Z</time>
      </trkpt>
      <trkpt lat="44.80065" lon="4.61595">
        <ele>180.7</ele>
        <time>2023-06-14T14:53:21.867Z</time>
      </trkpt>
      <trkpt lat="44.80065" lon="4.61595">
        <ele>180.7</ele>
        <time>2023-06-14T14:53:21.867Z</time>
      </trkpt>
      <trkpt lat="44.80065" lon="4.61595">
        <ele>180.7</ele>
        <time>2023-06-14T14:53:21.867Z</time>
      </trkpt>
      <trkpt lat="44.80065" lon="4.61597">
        <ele>180.6</ele>
        <time>2023-06-14T14:53:22.503Z</time>
      </trkpt>
      <trkpt lat="44.80065" lon="4.61597">
        <ele>180.6</ele>
        <time>2023-06-14T14:53:22.503Z</time>
      </trkpt>
      <trkpt lat="44.80065" lon="4.61597">
        <ele>180.6</ele>
        <time>2023-06-14T14:53:22.503Z</time>
      </trkpt>
      <trkpt lat="44.80064" lon="4.61596">
        <ele>180.8</ele>
        <time>2023-06-14T14:53:23.060Z</time>
      </trkpt>
      <trkpt lat="44.80063" lon="4.61596">
        <ele>181</ele>
        <time>2023-06-14T14:53:23.503Z</time>
      </trkpt>
      <trkpt lat="44.80062" lon="4.61595">
        <ele>181.1</ele>
        <time>2023-06-14T14:53:24.054Z</time>
      </trkpt>
      <trkpt lat="44.80062" lon="4.61595">
        <ele>181.1</ele>
        <time>2023-06-14T14:53:24.054Z</time>
      </trkpt>
      <trkpt lat="44.80062" lon="4.61594">
        <ele>181.2</ele>
        <time>2023-06-14T14:53:24.369Z</time>
      </trkpt>
      <trkpt lat="44.80061" lon="4.61594">
        <ele>181.3</ele>
        <time>2023-06-14T14:53:24.820Z</time>
      </trkpt>
      <trkpt lat="44.8006" lon="4.61592">
        <ele>181.7</ele>
        <time>2023-06-14T14:53:25.605Z</time>
      </trkpt>
      <trkpt lat="44.8006" lon="4.61592">
        <ele>181.7</ele>
        <time>2023-06-14T14:53:25.605Z</time>
      </trkpt>
      <trkpt lat="44.80059" lon="4.61592">
        <ele>181.8</ele>
        <time>2023-06-14T14:53:26.055Z</time>
      </trkpt>
      <trkpt lat="44.80059" lon="4.61593">
        <ele>181.7</ele>
        <time>2023-06-14T14:53:26.375Z</time>
      </trkpt>
      <trkpt lat="44.80058" lon="4.61593">
        <ele>181.9</ele>
        <time>2023-06-14T14:53:26.829Z</time>
      </trkpt>
      <trkpt lat="44.80058" lon="4.61593">
        <ele>181.9</ele>
        <time>2023-06-14T14:53:26.829Z</time>
      </trkpt>
      <trkpt lat="44.80058" lon="4.61593">
        <ele>181.9</ele>
        <time>2023-06-14T14:53:26.829Z</time>
      </trkpt>
      <trkpt lat="44.8006" lon="4.61592">
        <ele>181.7</ele>
        <time>2023-06-14T14:53:27.782Z</time>
      </trkpt>
      <trkpt lat="44.80063" lon="4.61594">
        <ele>181.1</ele>
        <time>2023-06-14T14:53:29.280Z</time>
      </trkpt>
      <trkpt lat="44.80063" lon="4.61596">
        <ele>181</ele>
        <time>2023-06-14T14:53:29.911Z</time>
      </trkpt>
      <trkpt lat="44.80061" lon="4.61598">
        <ele>181</ele>
        <time>2023-06-14T14:53:31.005Z</time>
      </trkpt>
      <trkpt lat="44.80059" lon="4.616">
        <ele>181.2</ele>
        <time>2023-06-14T14:53:32.098Z</time>
      </trkpt>
      <trkpt lat="44.80057" lon="4.61603">
        <ele>181.2</ele>
        <time>2023-06-14T14:53:33.396Z</time>
      </trkpt>
      <trkpt lat="44.80056" lon="4.61604">
        <ele>181.2</ele>
        <time>2023-06-14T14:53:33.941Z</time>
      </trkpt>
      <trkpt lat="44.80055" lon="4.61606">
        <ele>181.2</ele>
        <time>2023-06-14T14:53:34.713Z</time>
      </trkpt>
      <trkpt lat="44.8005" lon="4.61612">
        <ele>181.3</ele>
        <time>2023-06-14T14:53:37.633Z</time>
      </trkpt>
      <trkpt lat="44.80048" lon="4.61614">
        <ele>181.5</ele>
        <time>2023-06-14T14:53:38.725Z</time>
      </trkpt>
      <trkpt lat="44.80046" lon="4.61615">
        <ele>181.6</ele>
        <time>2023-06-14T14:53:39.667Z</time>
      </trkpt>
      <trkpt lat="44.80044" lon="4.61617">
        <ele>181.7</ele>
        <time>2023-06-14T14:53:40.764Z</time>
      </trkpt>
      <trkpt lat="44.80042" lon="4.61619">
        <ele>181.8</ele>
        <time>2023-06-14T14:53:41.853Z</time>
      </trkpt>
      <trkpt lat="44.80042" lon="4.6162">
        <ele>181.7</ele>
        <time>2023-06-14T14:53:42.174Z</time>
      </trkpt>
      <trkpt lat="44.80037" lon="4.61628">
        <ele>181.6</ele>
        <time>2023-06-14T14:53:45.536Z</time>
      </trkpt>
      <trkpt lat="44.80036" lon="4.61629">
        <ele>181.6</ele>
        <time>2023-06-14T14:53:46.082Z</time>
      </trkpt>
      <trkpt lat="44.80031" lon="4.61635">
        <ele>181.7</ele>
        <time>2023-06-14T14:53:49.001Z</time>
      </trkpt>
      <trkpt lat="44.80028" lon="4.61634">
        <ele>182.1</ele>
        <time>2023-06-14T14:53:50.381Z</time>
      </trkpt>
      <trkpt lat="44.80025" lon="4.61631">
        <ele>182.8</ele>
        <time>2023-06-14T14:53:52.043Z</time>
      </trkpt>
      <trkpt lat="44.80024" lon="4.6163">
        <ele>183.1</ele>
        <time>2023-06-14T14:53:52.601Z</time>
      </trkpt>
      <trkpt lat="44.80024" lon="4.61628">
        <ele>183.2</ele>
        <time>2023-06-14T14:53:53.232Z</time>
      </trkpt>
      <trkpt lat="44.80025" lon="4.61624">
        <ele>183.5</ele>
        <time>2023-06-14T14:53:54.577Z</time>
      </trkpt>
      <trkpt lat="44.80025" lon="4.61622">
        <ele>183.7</ele>
        <time>2023-06-14T14:53:55.215Z</time>
      </trkpt>
      <trkpt lat="44.80026" lon="4.61619">
        <ele>183.8</ele>
        <time>2023-06-14T14:53:56.260Z</time>
      </trkpt>
      <trkpt lat="44.80028" lon="4.61609">
        <ele>184.6</ele>
        <time>2023-06-14T14:53:59.556Z</time>
      </trkpt>
      <trkpt lat="44.80028" lon="4.61608">
        <ele>184.6</ele>
        <time>2023-06-14T14:53:59.868Z</time>
      </trkpt>
      <trkpt lat="44.80027" lon="4.61603">
        <ele>185.2</ele>
        <time>2023-06-14T14:54:01.526Z</time>
      </trkpt>
      <trkpt lat="44.80025" lon="4.61601">
        <ele>185.7</ele>
        <time>2023-06-14T14:54:02.636Z</time>
      </trkpt>
      <trkpt lat="44.80025" lon="4.61597">
        <ele>186.1</ele>
        <time>2023-06-14T14:54:03.904Z</time>
      </trkpt>
      <trkpt lat="44.80027" lon="4.61592">
        <ele>186.4</ele>
        <time>2023-06-14T14:54:05.720Z</time>
      </trkpt>
      <trkpt lat="44.80028" lon="4.61591">
        <ele>186.2</ele>
        <time>2023-06-14T14:54:06.268Z</time>
      </trkpt>
      <trkpt lat="44.80029" lon="4.61587">
        <ele>186.6</ele>
        <time>2023-06-14T14:54:07.615Z</time>
      </trkpt>
      <trkpt lat="44.8003" lon="4.61582">
        <ele>186.8</ele>
        <time>2023-06-14T14:54:09.256Z</time>
      </trkpt>
      <trkpt lat="44.80031" lon="4.6158">
        <ele>186.9</ele>
        <time>2023-06-14T14:54:10.029Z</time>
      </trkpt>
      <trkpt lat="44.80036" lon="4.61571">
        <ele>187.1</ele>
        <time>2023-06-14T14:54:13.636Z</time>
      </trkpt>
      <trkpt lat="44.80037" lon="4.61569">
        <ele>187.1</ele>
        <time>2023-06-14T14:54:14.413Z</time>
      </trkpt>
      <trkpt lat="44.80039" lon="4.61566">
        <ele>187.2</ele>
        <time>2023-06-14T14:54:15.711Z</time>
      </trkpt>
      <trkpt lat="44.80039" lon="4.61562">
        <ele>187.6</ele>
        <time>2023-06-14T14:54:16.979Z</time>
      </trkpt>
      <trkpt lat="44.80041" lon="4.61559">
        <ele>187.5</ele>
        <time>2023-06-14T14:54:18.277Z</time>
      </trkpt>
      <trkpt lat="44.80042" lon="4.61551">
        <ele>188.1</ele>
        <time>2023-06-14T14:54:20.850Z</time>
      </trkpt>
      <trkpt lat="44.80039" lon="4.61549">
        <ele>188.9</ele>
        <time>2023-06-14T14:54:22.361Z</time>
      </trkpt>
      <trkpt lat="44.80036" lon="4.61547">
        <ele>189.5</ele>
        <time>2023-06-14T14:54:23.861Z</time>
      </trkpt>
      <trkpt lat="44.80034" lon="4.61547">
        <ele>189.9</ele>
        <time>2023-06-14T14:54:24.760Z</time>
      </trkpt>
      <trkpt lat="44.80031" lon="4.61548">
        <ele>190.3</ele>
        <time>2023-06-14T14:54:26.141Z</time>
      </trkpt>
      <trkpt lat="44.80029" lon="4.6155">
        <ele>190.6</ele>
        <time>2023-06-14T14:54:27.240Z</time>
      </trkpt>
      <trkpt lat="44.80028" lon="4.61551">
        <ele>190.6</ele>
        <time>2023-06-14T14:54:27.783Z</time>
      </trkpt>
      <trkpt lat="44.80024" lon="4.61554">
        <ele>191</ele>
        <time>2023-06-14T14:54:29.807Z</time>
      </trkpt>
      <trkpt lat="44.80023" lon="4.61556">
        <ele>190.9</ele>
        <time>2023-06-14T14:54:30.577Z</time>
      </trkpt>
      <trkpt lat="44.80021" lon="4.61559">
        <ele>190.9</ele>
        <time>2023-06-14T14:54:31.879Z</time>
      </trkpt>
      <trkpt lat="44.8002" lon="4.61562">
        <ele>190.8</ele>
        <time>2023-06-14T14:54:32.925Z</time>
      </trkpt>
      <trkpt lat="44.8002" lon="4.61569">
        <ele>189.8</ele>
        <time>2023-06-14T14:54:35.163Z</time>
      </trkpt>
      <trkpt lat="44.80019" lon="4.6157">
        <ele>190</ele>
        <time>2023-06-14T14:54:35.715Z</time>
      </trkpt>
      <trkpt lat="44.80018" lon="4.61571">
        <ele>190</ele>
        <time>2023-06-14T14:54:36.263Z</time>
      </trkpt>
      <trkpt lat="44.80017" lon="4.61572">
        <ele>190</ele>
        <time>2023-06-14T14:54:36.803Z</time>
      </trkpt>
      <trkpt lat="44.80017" lon="4.61575">
        <ele>189.6</ele>
        <time>2023-06-14T14:54:37.758Z</time>
      </trkpt>
      <trkpt lat="44.80014" lon="4.61581">
        <ele>189.3</ele>
        <time>2023-06-14T14:54:40.079Z</time>
      </trkpt>
      <trkpt lat="44.80013" lon="4.61582">
        <ele>189.3</ele>
        <time>2023-06-14T14:54:40.627Z</time>
      </trkpt>
      <trkpt lat="44.80011" lon="4.61589">
        <ele>188.9</ele>
        <time>2023-06-14T14:54:43.011Z</time>
      </trkpt>
      <trkpt lat="44.80011" lon="4.6159">
        <ele>188.7</ele>
        <time>2023-06-14T14:54:43.333Z</time>
      </trkpt>
      <trkpt lat="44.8001" lon="4.61592">
        <ele>188.7</ele>
        <time>2023-06-14T14:54:44.105Z</time>
      </trkpt>
      <trkpt lat="44.80009" lon="4.61593">
        <ele>188.7</ele>
        <time>2023-06-14T14:54:44.653Z</time>
      </trkpt>
      <trkpt lat="44.80009" lon="4.61595">
        <ele>188.5</ele>
        <time>2023-06-14T14:54:45.292Z</time>
      </trkpt>
      <trkpt lat="44.80008" lon="4.616">
        <ele>188.2</ele>
        <time>2023-06-14T14:54:46.937Z</time>
      </trkpt>
      <trkpt lat="44.80004" lon="4.61608">
        <ele>187.8</ele>
        <time>2023-06-14T14:54:50.031Z</time>
      </trkpt>
      <trkpt lat="44.80004" lon="4.61612">
        <ele>187.3</ele>
        <time>2023-06-14T14:54:51.301Z</time>
      </trkpt>
      <trkpt lat="44.80003" lon="4.61618">
        <ele>187</ele>
        <time>2023-06-14T14:54:53.253Z</time>
      </trkpt>
      <trkpt lat="44.80003" lon="4.61619">
        <ele>186.8</ele>
        <time>2023-06-14T14:54:53.575Z</time>
      </trkpt>
      <trkpt lat="44.80003" lon="4.61621">
        <ele>186.5</ele>
        <time>2023-06-14T14:54:54.214Z</time>
      </trkpt>
      <trkpt lat="44.80003" lon="4.61623">
        <ele>186.4</ele>
        <time>2023-06-14T14:54:54.851Z</time>
      </trkpt>
      <trkpt lat="44.80002" lon="4.6163">
        <ele>185.8</ele>
        <time>2023-06-14T14:54:57.112Z</time>
      </trkpt>
      <trkpt lat="44.8" lon="4.61637">
        <ele>185.2</ele>
        <time>2023-06-14T14:54:59.507Z</time>
      </trkpt>
      <trkpt lat="44.79999" lon="4.61641">
        <ele>185.1</ele>
        <time>2023-06-14T14:55:00.843Z</time>
      </trkpt>
      <trkpt lat="44.79999" lon="4.61643">
        <ele>185</ele>
        <time>2023-06-14T14:55:01.480Z</time>
      </trkpt>
      <trkpt lat="44.79999" lon="4.61649">
        <ele>184.3</ele>
        <time>2023-06-14T14:55:03.395Z</time>
      </trkpt>
      <trkpt lat="44.79999" lon="4.6165">
        <ele>184.2</ele>
        <time>2023-06-14T14:55:03.712Z</time>
      </trkpt>
      <trkpt lat="44.79998" lon="4.61651">
        <ele>184.3</ele>
        <time>2023-06-14T14:55:04.266Z</time>
      </trkpt>
      <trkpt lat="44.79994" lon="4.61654">
        <ele>185.3</ele>
        <time>2023-06-14T14:55:06.315Z</time>
      </trkpt>
      <trkpt lat="44.79992" lon="4.61653">
        <ele>186.1</ele>
        <time>2023-06-14T14:55:07.316Z</time>
      </trkpt>
      <trkpt lat="44.79991" lon="4.61651">
        <ele>186.6</ele>
        <time>2023-06-14T14:55:08.107Z</time>
      </trkpt>
      <trkpt lat="44.7999" lon="4.6165">
        <ele>187.1</ele>
        <time>2023-06-14T14:55:08.688Z</time>
      </trkpt>
      <trkpt lat="44.79989" lon="4.61647">
        <ele>187.8</ele>
        <time>2023-06-14T14:55:09.776Z</time>
      </trkpt>
      <trkpt lat="44.79988" lon="4.61644">
        <ele>188.6</ele>
        <time>2023-06-14T14:55:10.869Z</time>
      </trkpt>
      <trkpt lat="44.79987" lon="4.61636">
        <ele>189.9</ele>
        <time>2023-06-14T14:55:13.483Z</time>
      </trkpt>
      <trkpt lat="44.79987" lon="4.61634">
        <ele>190.1</ele>
        <time>2023-06-14T14:55:14.115Z</time>
      </trkpt>
      <trkpt lat="44.79987" lon="4.61631">
        <ele>190.5</ele>
        <time>2023-06-14T14:55:15.082Z</time>
      </trkpt>
      <trkpt lat="44.79987" lon="4.61624">
        <ele>191.3</ele>
        <time>2023-06-14T14:55:17.316Z</time>
      </trkpt>
      <trkpt lat="44.79987" lon="4.61623">
        <ele>191.5</ele>
        <time>2023-06-14T14:55:17.634Z</time>
      </trkpt>
      <trkpt lat="44.79988" lon="4.61615">
        <ele>192.1</ele>
        <time>2023-06-14T14:55:20.213Z</time>
      </trkpt>
      <trkpt lat="44.79988" lon="4.61611">
        <ele>192.6</ele>
        <time>2023-06-14T14:55:21.486Z</time>
      </trkpt>
      <trkpt lat="44.79986" lon="4.61607">
        <ele>193.8</ele>
        <time>2023-06-14T14:55:23.110Z</time>
      </trkpt>
      <trkpt lat="44.79986" lon="4.61605">
        <ele>194.1</ele>
        <time>2023-06-14T14:55:23.753Z</time>
      </trkpt>
      <trkpt lat="44.79986" lon="4.61598">
        <ele>194.9</ele>
        <time>2023-06-14T14:55:25.987Z</time>
      </trkpt>
      <trkpt lat="44.79985" lon="4.61596">
        <ele>195.6</ele>
        <time>2023-06-14T14:55:26.806Z</time>
      </trkpt>
      <trkpt lat="44.79987" lon="4.61589">
        <ele>195.7</ele>
        <time>2023-06-14T14:55:29.188Z</time>
      </trkpt>
      <trkpt lat="44.79987" lon="4.61585">
        <ele>196.2</ele>
        <time>2023-06-14T14:55:30.462Z</time>
      </trkpt>
      <trkpt lat="44.79988" lon="4.61583">
        <ele>196.1</ele>
        <time>2023-06-14T14:55:31.239Z</time>
      </trkpt>
      <trkpt lat="44.79987" lon="4.61581">
        <ele>196.7</ele>
        <time>2023-06-14T14:55:32.044Z</time>
      </trkpt>
      <trkpt lat="44.79985" lon="4.61576">
        <ele>198.1</ele>
        <time>2023-06-14T14:55:33.946Z</time>
      </trkpt>
      <trkpt lat="44.79985" lon="4.61575">
        <ele>198.3</ele>
        <time>2023-06-14T14:55:34.271Z</time>
      </trkpt>
      <trkpt lat="44.79984" lon="4.61573">
        <ele>198.9</ele>
        <time>2023-06-14T14:55:35.075Z</time>
      </trkpt>
      <trkpt lat="44.79984" lon="4.61572">
        <ele>199</ele>
        <time>2023-06-14T14:55:35.400Z</time>
      </trkpt>
      <trkpt lat="44.79982" lon="4.61567">
        <ele>200.5</ele>
        <time>2023-06-14T14:55:37.299Z</time>
      </trkpt>
      <trkpt lat="44.79981" lon="4.61565">
        <ele>201</ele>
        <time>2023-06-14T14:55:38.102Z</time>
      </trkpt>
      <trkpt lat="44.79982" lon="4.61555">
        <ele>202</ele>
        <time>2023-06-14T14:55:41.314Z</time>
      </trkpt>
      <trkpt lat="44.79982" lon="4.61553">
        <ele>202.3</ele>
        <time>2023-06-14T14:55:41.957Z</time>
      </trkpt>
      <trkpt lat="44.7998" lon="4.61552">
        <ele>203.1</ele>
        <time>2023-06-14T14:55:42.952Z</time>
      </trkpt>
      <trkpt lat="44.79978" lon="4.61544">
        <ele>205</ele>
        <time>2023-06-14T14:55:45.731Z</time>
      </trkpt>
      <trkpt lat="44.79976" lon="4.61539">
        <ele>206.2</ele>
        <time>2023-06-14T14:55:47.603Z</time>
      </trkpt>
      <trkpt lat="44.79977" lon="4.61537">
        <ele>206.1</ele>
        <time>2023-06-14T14:55:48.380Z</time>
      </trkpt>
      <trkpt lat="44.79976" lon="4.61536">
        <ele>206.6</ele>
        <time>2023-06-14T14:55:48.963Z</time>
      </trkpt>
      <trkpt lat="44.79976" lon="4.61533">
        <ele>207</ele>
        <time>2023-06-14T14:55:49.919Z</time>
      </trkpt>
      <trkpt lat="44.79975" lon="4.61533">
        <ele>207.4</ele>
        <time>2023-06-14T14:55:50.405Z</time>
      </trkpt>
      <trkpt lat="44.79973" lon="4.61534">
        <ele>208</ele>
        <time>2023-06-14T14:55:51.371Z</time>
      </trkpt>
      <trkpt lat="44.79973" lon="4.61535">
        <ele>207.8</ele>
        <time>2023-06-14T14:55:51.695Z</time>
      </trkpt>
      <trkpt lat="44.79973" lon="4.61537">
        <ele>207.7</ele>
        <time>2023-06-14T14:55:52.327Z</time>
      </trkpt>
      <trkpt lat="44.79974" lon="4.6154">
        <ele>207</ele>
        <time>2023-06-14T14:55:53.409Z</time>
      </trkpt>
      <trkpt lat="44.79975" lon="4.61541">
        <ele>206.5</ele>
        <time>2023-06-14T14:55:53.989Z</time>
      </trkpt>
      <trkpt lat="44.79975" lon="4.61542">
        <ele>206.3</ele>
        <time>2023-06-14T14:55:54.313Z</time>
      </trkpt>
      <trkpt lat="44.79976" lon="4.61546">
        <ele>205.4</ele>
        <time>2023-06-14T14:55:55.704Z</time>
      </trkpt>
      <trkpt lat="44.79977" lon="4.61546">
        <ele>205</ele>
        <time>2023-06-14T14:55:56.175Z</time>
      </trkpt>
      <trkpt lat="44.79977" lon="4.61547">
        <ele>204.8</ele>
        <time>2023-06-14T14:55:56.498Z</time>
      </trkpt>
      <trkpt lat="44.79976" lon="4.61549">
        <ele>205</ele>
        <time>2023-06-14T14:55:57.275Z</time>
      </trkpt>
      <trkpt lat="44.79976" lon="4.6155">
        <ele>204.9</ele>
        <time>2023-06-14T14:55:57.599Z</time>
      </trkpt>
      <trkpt lat="44.79976" lon="4.61552">
        <ele>204.6</ele>
        <time>2023-06-14T14:55:58.241Z</time>
      </trkpt>
      <trkpt lat="44.79977" lon="4.61557">
        <ele>203.7</ele>
        <time>2023-06-14T14:55:59.920Z</time>
      </trkpt>
      <trkpt lat="44.79977" lon="4.61558">
        <ele>203.5</ele>
        <time>2023-06-14T14:56:00.239Z</time>
      </trkpt>
      <trkpt lat="44.79975" lon="4.61563">
        <ele>203.8</ele>
        <time>2023-06-14T14:56:02.054Z</time>
      </trkpt>
      <trkpt lat="44.79973" lon="4.61569">
        <ele>203.8</ele>
        <time>2023-06-14T14:56:04.145Z</time>
      </trkpt>
      <trkpt lat="44.79972" lon="4.61577">
        <ele>203.2</ele>
        <time>2023-06-14T14:56:06.722Z</time>
      </trkpt>
      <trkpt lat="44.79972" lon="4.61579">
        <ele>203</ele>
        <time>2023-06-14T14:56:07.355Z</time>
      </trkpt>
      <trkpt lat="44.79971" lon="4.61583">
        <ele>203</ele>
        <time>2023-06-14T14:56:08.689Z</time>
      </trkpt>
      <trkpt lat="44.79971" lon="4.61585">
        <ele>202.6</ele>
        <time>2023-06-14T14:56:09.338Z</time>
      </trkpt>
      <trkpt lat="44.79969" lon="4.61589">
        <ele>202.9</ele>
        <time>2023-06-14T14:56:10.885Z</time>
      </trkpt>
      <trkpt lat="44.79964" lon="4.61593">
        <ele>204.2</ele>
        <time>2023-06-14T14:56:13.500Z</time>
      </trkpt>
      <trkpt lat="44.79964" lon="4.61593">
        <ele>204.2</ele>
        <time>2023-06-14T14:56:13.500Z</time>
      </trkpt>
      <trkpt lat="44.79962" lon="4.61592">
        <ele>205.2</ele>
        <time>2023-06-14T14:56:14.520Z</time>
      </trkpt>
      <trkpt lat="44.79961" lon="4.61587">
        <ele>206.5</ele>
        <time>2023-06-14T14:56:16.241Z</time>
      </trkpt>
      <trkpt lat="44.79962" lon="4.61584">
        <ele>206.4</ele>
        <time>2023-06-14T14:56:17.289Z</time>
      </trkpt>
      <trkpt lat="44.79963" lon="4.61583">
        <ele>206.2</ele>
        <time>2023-06-14T14:56:17.841Z</time>
      </trkpt>
      <trkpt lat="44.79965" lon="4.61576">
        <ele>206.1</ele>
        <time>2023-06-14T14:56:20.222Z</time>
      </trkpt>
      <trkpt lat="44.79964" lon="4.61572">
        <ele>206.9</ele>
        <time>2023-06-14T14:56:21.603Z</time>
      </trkpt>
      <trkpt lat="44.79963" lon="4.61571">
        <ele>207.5</ele>
        <time>2023-06-14T14:56:22.189Z</time>
      </trkpt>
      <trkpt lat="44.79961" lon="4.61566">
        <ele>208.9</ele>
        <time>2023-06-14T14:56:24.097Z</time>
      </trkpt>
      <trkpt lat="44.79959" lon="4.61562">
        <ele>210.1</ele>
        <time>2023-06-14T14:56:25.708Z</time>
      </trkpt>
      <trkpt lat="44.79958" lon="4.61561">
        <ele>210.5</ele>
        <time>2023-06-14T14:56:26.278Z</time>
      </trkpt>
      <trkpt lat="44.79957" lon="4.6156">
        <ele>211</ele>
        <time>2023-06-14T14:56:26.864Z</time>
      </trkpt>
      <trkpt lat="44.79956" lon="4.61562">
        <ele>211.3</ele>
        <time>2023-06-14T14:56:27.642Z</time>
      </trkpt>
      <trkpt lat="44.79956" lon="4.61564">
        <ele>211</ele>
        <time>2023-06-14T14:56:28.281Z</time>
      </trkpt>
      <trkpt lat="44.79956" lon="4.61568">
        <ele>210.6</ele>
        <time>2023-06-14T14:56:29.556Z</time>
      </trkpt>
      <trkpt lat="44.79957" lon="4.61573">
        <ele>209.6</ele>
        <time>2023-06-14T14:56:31.236Z</time>
      </trkpt>
      <trkpt lat="44.79956" lon="4.61575">
        <ele>209.9</ele>
        <time>2023-06-14T14:56:32.010Z</time>
      </trkpt>
      <trkpt lat="44.79955" lon="4.61585">
        <ele>209.1</ele>
        <time>2023-06-14T14:56:35.214Z</time>
      </trkpt>
      <trkpt lat="44.79955" lon="4.61587">
        <ele>208.9</ele>
        <time>2023-06-14T14:56:35.849Z</time>
      </trkpt>
      <trkpt lat="44.79955" lon="4.61592">
        <ele>208.1</ele>
        <time>2023-06-14T14:56:37.460Z</time>
      </trkpt>
      <trkpt lat="44.79955" lon="4.61594">
        <ele>207.7</ele>
        <time>2023-06-14T14:56:38.117Z</time>
      </trkpt>
      <trkpt lat="44.79954" lon="4.61597">
        <ele>207.6</ele>
        <time>2023-06-14T14:56:39.160Z</time>
      </trkpt>
      <trkpt lat="44.79952" lon="4.61599">
        <ele>208</ele>
        <time>2023-06-14T14:56:40.263Z</time>
      </trkpt>
      <trkpt lat="44.79952" lon="4.616">
        <ele>208</ele>
        <time>2023-06-14T14:56:40.581Z</time>
      </trkpt>
      <trkpt lat="44.79947" lon="4.61608">
        <ele>208.5</ele>
        <time>2023-06-14T14:56:43.948Z</time>
      </trkpt>
      <trkpt lat="44.79945" lon="4.6161">
        <ele>209</ele>
        <time>2023-06-14T14:56:45.055Z</time>
      </trkpt>
      <trkpt lat="44.79944" lon="4.61609">
        <ele>209.6</ele>
        <time>2023-06-14T14:56:45.653Z</time>
      </trkpt>
      <trkpt lat="44.79943" lon="4.61608">
        <ele>209.9</ele>
        <time>2023-06-14T14:56:46.218Z</time>
      </trkpt>
      <trkpt lat="44.79944" lon="4.61604">
        <ele>210.3</ele>
        <time>2023-06-14T14:56:47.564Z</time>
      </trkpt>
      <trkpt lat="44.79945" lon="4.61603">
        <ele>210.1</ele>
        <time>2023-06-14T14:56:48.113Z</time>
      </trkpt>
      <trkpt lat="44.79946" lon="4.61602">
        <ele>209.9</ele>
        <time>2023-06-14T14:56:48.659Z</time>
      </trkpt>
      <trkpt lat="44.79945" lon="4.616">
        <ele>210.8</ele>
        <time>2023-06-14T14:56:49.495Z</time>
      </trkpt>
      <trkpt lat="44.79945" lon="4.61598">
        <ele>211</ele>
        <time>2023-06-14T14:56:50.136Z</time>
      </trkpt>
      <trkpt lat="44.79944" lon="4.61588">
        <ele>213.2</ele>
        <time>2023-06-14T14:56:53.437Z</time>
      </trkpt>
      <trkpt lat="44.79944" lon="4.61587">
        <ele>213.4</ele>
        <time>2023-06-14T14:56:53.767Z</time>
      </trkpt>
      <trkpt lat="44.79944" lon="4.61585">
        <ele>213.6</ele>
        <time>2023-06-14T14:56:54.403Z</time>
      </trkpt>
      <trkpt lat="44.79943" lon="4.61579">
        <ele>214.7</ele>
        <time>2023-06-14T14:56:56.399Z</time>
      </trkpt>
      <trkpt lat="44.79942" lon="4.61577">
        <ele>215.3</ele>
        <time>2023-06-14T14:56:57.194Z</time>
      </trkpt>
      <trkpt lat="44.79941" lon="4.61575">
        <ele>215.9</ele>
        <time>2023-06-14T14:56:58.011Z</time>
      </trkpt>
      <trkpt lat="44.79939" lon="4.61571">
        <ele>217</ele>
        <time>2023-06-14T14:56:59.617Z</time>
      </trkpt>
      <trkpt lat="44.79938" lon="4.61568">
        <ele>217.6</ele>
        <time>2023-06-14T14:57:00.694Z</time>
      </trkpt>
      <trkpt lat="44.79937" lon="4.61567">
        <ele>218.2</ele>
        <time>2023-06-14T14:57:01.278Z</time>
      </trkpt>
      <trkpt lat="44.79936" lon="4.61564">
        <ele>218.8</ele>
        <time>2023-06-14T14:57:02.350Z</time>
      </trkpt>
      <trkpt lat="44.79935" lon="4.61558">
        <ele>219.7</ele>
        <time>2023-06-14T14:57:04.333Z</time>
      </trkpt>
      <trkpt lat="44.79937" lon="4.61555">
        <ele>219.2</ele>
        <time>2023-06-14T14:57:05.647Z</time>
      </trkpt>
      <trkpt lat="44.79938" lon="4.61553">
        <ele>219.1</ele>
        <time>2023-06-14T14:57:06.421Z</time>
      </trkpt>
      <trkpt lat="44.79938" lon="4.61551">
        <ele>219.2</ele>
        <time>2023-06-14T14:57:07.053Z</time>
      </trkpt>
      <trkpt lat="44.79938" lon="4.61543">
        <ele>219.9</ele>
        <time>2023-06-14T14:57:09.597Z</time>
      </trkpt>
      <trkpt lat="44.79937" lon="4.6154">
        <ele>220.6</ele>
        <time>2023-06-14T14:57:10.682Z</time>
      </trkpt>
      <trkpt lat="44.79937" lon="4.61535">
        <ele>221</ele>
        <time>2023-06-14T14:57:12.265Z</time>
      </trkpt>
      <trkpt lat="44.79935" lon="4.6153">
        <ele>222.1</ele>
        <time>2023-06-14T14:57:14.134Z</time>
      </trkpt>
      <trkpt lat="44.79933" lon="4.61525">
        <ele>223.4</ele>
        <time>2023-06-14T14:57:16.013Z</time>
      </trkpt>
      <trkpt lat="44.79932" lon="4.61523">
        <ele>224</ele>
        <time>2023-06-14T14:57:16.822Z</time>
      </trkpt>
      <trkpt lat="44.79932" lon="4.61517">
        <ele>224.4</ele>
        <time>2023-06-14T14:57:18.724Z</time>
      </trkpt>
      <trkpt lat="44.79929" lon="4.61512">
        <ele>225.9</ele>
        <time>2023-06-14T14:57:20.870Z</time>
      </trkpt>
      <trkpt lat="44.79927" lon="4.61509">
        <ele>226.8</ele>
        <time>2023-06-14T14:57:22.215Z</time>
      </trkpt>
      <trkpt lat="44.79926" lon="4.61506">
        <ele>227.4</ele>
        <time>2023-06-14T14:57:23.294Z</time>
      </trkpt>
      <trkpt lat="44.79927" lon="4.61501">
        <ele>227.5</ele>
        <time>2023-06-14T14:57:24.933Z</time>
      </trkpt>
      <trkpt lat="44.79927" lon="4.615">
        <ele>227.5</ele>
        <time>2023-06-14T14:57:25.250Z</time>
      </trkpt>
      <trkpt lat="44.79927" lon="4.61496">
        <ele>228.3</ele>
        <time>2023-06-14T14:57:26.552Z</time>
      </trkpt>
      <trkpt lat="44.79924" lon="4.61491">
        <ele>230.4</ele>
        <time>2023-06-14T14:57:28.780Z</time>
      </trkpt>
      <trkpt lat="44.79924" lon="4.61483">
        <ele>232</ele>
        <time>2023-06-14T14:57:31.387Z</time>
      </trkpt>
      <trkpt lat="44.79924" lon="4.61482">
        <ele>232.3</ele>
        <time>2023-06-14T14:57:31.717Z</time>
      </trkpt>
      <trkpt lat="44.79921" lon="4.61474">
        <ele>234.9</ele>
        <time>2023-06-14T14:57:34.755Z</time>
      </trkpt>
      <trkpt lat="44.79921" lon="4.61473">
        <ele>235.1</ele>
        <time>2023-06-14T14:57:35.085Z</time>
      </trkpt>
      <trkpt lat="44.79918" lon="4.61473">
        <ele>236.2</ele>
        <time>2023-06-14T14:57:36.482Z</time>
      </trkpt>
      <trkpt lat="44.79916" lon="4.61477">
        <ele>236.1</ele>
        <time>2023-06-14T14:57:38.023Z</time>
      </trkpt>
      <trkpt lat="44.79915" lon="4.6148">
        <ele>236</ele>
        <time>2023-06-14T14:57:39.070Z</time>
      </trkpt>
      <trkpt lat="44.79918" lon="4.61487">
        <ele>233.2</ele>
        <time>2023-06-14T14:57:41.875Z</time>
      </trkpt>
      <trkpt lat="44.7992" lon="4.61491">
        <ele>231.7</ele>
        <time>2023-06-14T14:57:43.535Z</time>
      </trkpt>
      <trkpt lat="44.79921" lon="4.615">
        <ele>229.5</ele>
        <time>2023-06-14T14:57:46.543Z</time>
      </trkpt>
      <trkpt lat="44.79921" lon="4.61502">
        <ele>229.4</ele>
        <time>2023-06-14T14:57:47.179Z</time>
      </trkpt>
      <trkpt lat="44.79919" lon="4.61509">
        <ele>229.6</ele>
        <time>2023-06-14T14:57:49.558Z</time>
      </trkpt>
      <trkpt lat="44.79919" lon="4.61512">
        <ele>229.4</ele>
        <time>2023-06-14T14:57:50.508Z</time>
      </trkpt>
      <trkpt lat="44.79919" lon="4.61515">
        <ele>229.2</ele>
        <time>2023-06-14T14:57:51.457Z</time>
      </trkpt>
      <trkpt lat="44.79918" lon="4.61522">
        <ele>228.9</ele>
        <time>2023-06-14T14:57:53.715Z</time>
      </trkpt>
      <trkpt lat="44.79917" lon="4.61528">
        <ele>228.9</ele>
        <time>2023-06-14T14:57:55.661Z</time>
      </trkpt>
      <trkpt lat="44.79916" lon="4.61532">
        <ele>229</ele>
        <time>2023-06-14T14:57:56.995Z</time>
      </trkpt>
      <trkpt lat="44.79916" lon="4.61534">
        <ele>228.9</ele>
        <time>2023-06-14T14:57:57.629Z</time>
      </trkpt>
      <trkpt lat="44.79915" lon="4.61539">
        <ele>228.9</ele>
        <time>2023-06-14T14:57:59.273Z</time>
      </trkpt>
      <trkpt lat="44.79914" lon="4.61542">
        <ele>229.2</ele>
        <time>2023-06-14T14:58:00.325Z</time>
      </trkpt>
      <trkpt lat="44.79913" lon="4.61545">
        <ele>229.4</ele>
        <time>2023-06-14T14:58:01.373Z</time>
      </trkpt>
      <trkpt lat="44.79913" lon="4.61547">
        <ele>229.2</ele>
        <time>2023-06-14T14:58:02.008Z</time>
      </trkpt>
      <trkpt lat="44.79912" lon="4.61548">
        <ele>229.5</ele>
        <time>2023-06-14T14:58:02.572Z</time>
      </trkpt>
      <trkpt lat="44.79907" lon="4.61554">
        <ele>231.3</ele>
        <time>2023-06-14T14:58:05.576Z</time>
      </trkpt>
      <trkpt lat="44.79907" lon="4.61554">
        <ele>231.3</ele>
        <time>2023-06-14T14:58:05.576Z</time>
      </trkpt>
      <trkpt lat="44.79906" lon="4.61554">
        <ele>231.7</ele>
        <time>2023-06-14T14:58:06.055Z</time>
      </trkpt>
      <trkpt lat="44.79905" lon="4.61551">
        <ele>232.5</ele>
        <time>2023-06-14T14:58:07.144Z</time>
      </trkpt>
      <trkpt lat="44.79904" lon="4.61547">
        <ele>233.2</ele>
        <time>2023-06-14T14:58:08.516Z</time>
      </trkpt>
      <trkpt lat="44.79903" lon="4.61543">
        <ele>234</ele>
        <time>2023-06-14T14:58:09.888Z</time>
      </trkpt>
      <trkpt lat="44.79902" lon="4.6154">
        <ele>234.7</ele>
        <time>2023-06-14T14:58:10.972Z</time>
      </trkpt>
      <trkpt lat="44.799" lon="4.61535">
        <ele>235.9</ele>
        <time>2023-06-14T14:58:12.844Z</time>
      </trkpt>
      <trkpt lat="44.79897" lon="4.61531">
        <ele>237.6</ele>
        <time>2023-06-14T14:58:14.802Z</time>
      </trkpt>
      <trkpt lat="44.79897" lon="4.61525">
        <ele>238</ele>
        <time>2023-06-14T14:58:16.703Z</time>
      </trkpt>
      <trkpt lat="44.79898" lon="4.61524">
        <ele>237.6</ele>
        <time>2023-06-14T14:58:17.268Z</time>
      </trkpt>
      <trkpt lat="44.79894" lon="4.61512">
        <ele>240.3</ele>
        <time>2023-06-14T14:58:21.587Z</time>
      </trkpt>
      <trkpt lat="44.79891" lon="4.61506">
        <ele>242.3</ele>
        <time>2023-06-14T14:58:24.037Z</time>
      </trkpt>
      <trkpt lat="44.7989" lon="4.61503">
        <ele>243</ele>
        <time>2023-06-14T14:58:25.113Z</time>
      </trkpt>
      <trkpt lat="44.79889" lon="4.61497">
        <ele>244.3</ele>
        <time>2023-06-14T14:58:27.133Z</time>
      </trkpt>
      <trkpt lat="44.79888" lon="4.61493">
        <ele>245.5</ele>
        <time>2023-06-14T14:58:28.545Z</time>
      </trkpt>
      <trkpt lat="44.79888" lon="4.6149">
        <ele>245.9</ele>
        <time>2023-06-14T14:58:29.510Z</time>
      </trkpt>
      <trkpt lat="44.79887" lon="4.61486">
        <ele>247.1</ele>
        <time>2023-06-14T14:58:30.923Z</time>
      </trkpt>
      <trkpt lat="44.79887" lon="4.61483">
        <ele>247.5</ele>
        <time>2023-06-14T14:58:31.888Z</time>
      </trkpt>
      <trkpt lat="44.79887" lon="4.6148">
        <ele>248.2</ele>
        <time>2023-06-14T14:58:32.875Z</time>
      </trkpt>
      <trkpt lat="44.79887" lon="4.61474">
        <ele>249.2</ele>
        <time>2023-06-14T14:58:34.805Z</time>
      </trkpt>
      <trkpt lat="44.79888" lon="4.61471">
        <ele>249.4</ele>
        <time>2023-06-14T14:58:35.854Z</time>
      </trkpt>
      <trkpt lat="44.79887" lon="4.61468">
        <ele>250.3</ele>
        <time>2023-06-14T14:58:36.957Z</time>
      </trkpt>
      <trkpt lat="44.79886" lon="4.61462">
        <ele>251.9</ele>
        <time>2023-06-14T14:58:38.997Z</time>
      </trkpt>
      <trkpt lat="44.79886" lon="4.61459">
        <ele>252.4</ele>
        <time>2023-06-14T14:58:39.962Z</time>
      </trkpt>
      <trkpt lat="44.79883" lon="4.61451">
        <ele>254.9</ele>
        <time>2023-06-14T14:58:43.004Z</time>
      </trkpt>
      <trkpt lat="44.79882" lon="4.61441">
        <ele>257.2</ele>
        <time>2023-06-14T14:58:46.308Z</time>
      </trkpt>
      <trkpt lat="44.79882" lon="4.61439">
        <ele>257.4</ele>
        <time>2023-06-14T14:58:46.944Z</time>
      </trkpt>
      <trkpt lat="44.79885" lon="4.61427">
        <ele>258.3</ele>
        <time>2023-06-14T14:58:50.975Z</time>
      </trkpt>
      <trkpt lat="44.79888" lon="4.61417">
        <ele>259</ele>
        <time>2023-06-14T14:58:54.412Z</time>
      </trkpt>
      <trkpt lat="44.79889" lon="4.61413">
        <ele>259.5</ele>
        <time>2023-06-14T14:58:55.766Z</time>
      </trkpt>
      <trkpt lat="44.79891" lon="4.61408">
        <ele>260</ele>
        <time>2023-06-14T14:58:57.591Z</time>
      </trkpt>
      <trkpt lat="44.79893" lon="4.61405">
        <ele>259.8</ele>
        <time>2023-06-14T14:58:58.897Z</time>
      </trkpt>
      <trkpt lat="44.79896" lon="4.61401">
        <ele>259.7</ele>
        <time>2023-06-14T14:59:00.732Z</time>
      </trkpt>
      <trkpt lat="44.79899" lon="4.61397">
        <ele>259.6</ele>
        <time>2023-06-14T14:59:02.571Z</time>
      </trkpt>
      <trkpt lat="44.79901" lon="4.61391">
        <ele>260.5</ele>
        <time>2023-06-14T14:59:04.693Z</time>
      </trkpt>
      <trkpt lat="44.79902" lon="4.61386">
        <ele>261.4</ele>
        <time>2023-06-14T14:59:06.375Z</time>
      </trkpt>
      <trkpt lat="44.79902" lon="4.61383">
        <ele>262.1</ele>
        <time>2023-06-14T14:59:07.357Z</time>
      </trkpt>
      <trkpt lat="44.79904" lon="4.61378">
        <ele>262.7</ele>
        <time>2023-06-14T14:59:09.183Z</time>
      </trkpt>
      <trkpt lat="44.79905" lon="4.61373">
        <ele>263.7</ele>
        <time>2023-06-14T14:59:10.873Z</time>
      </trkpt>
      <trkpt lat="44.79906" lon="4.61364">
        <ele>265.5</ele>
        <time>2023-06-14T14:59:13.838Z</time>
      </trkpt>
      <trkpt lat="44.79907" lon="4.61363">
        <ele>265.5</ele>
        <time>2023-06-14T14:59:14.386Z</time>
      </trkpt>
      <trkpt lat="44.79909" lon="4.6136">
        <ele>265.6</ele>
        <time>2023-06-14T14:59:15.684Z</time>
      </trkpt>
      <trkpt lat="44.79909" lon="4.61359">
        <ele>265.9</ele>
        <time>2023-06-14T14:59:16.028Z</time>
      </trkpt>
      <trkpt lat="44.7991" lon="4.61354">
        <ele>266.6</ele>
        <time>2023-06-14T14:59:17.689Z</time>
      </trkpt>
      <trkpt lat="44.7991" lon="4.61351">
        <ele>267.6</ele>
        <time>2023-06-14T14:59:18.718Z</time>
      </trkpt>
      <trkpt lat="44.79911" lon="4.61344">
        <ele>269</ele>
        <time>2023-06-14T14:59:21.033Z</time>
      </trkpt>
      <trkpt lat="44.7991" lon="4.61341">
        <ele>269.9</ele>
        <time>2023-06-14T14:59:22.148Z</time>
      </trkpt>
      <trkpt lat="44.7991" lon="4.6134">
        <ele>270.3</ele>
        <time>2023-06-14T14:59:22.492Z</time>
      </trkpt>
      <trkpt lat="44.7991" lon="4.61335">
        <ele>271.6</ele>
        <time>2023-06-14T14:59:24.157Z</time>
      </trkpt>
      <trkpt lat="44.7991" lon="4.61333">
        <ele>272.2</ele>
        <time>2023-06-14T14:59:24.827Z</time>
      </trkpt>
      <trkpt lat="44.79915" lon="4.61323">
        <ele>272.1</ele>
        <time>2023-06-14T14:59:28.684Z</time>
      </trkpt>
      <trkpt lat="44.79917" lon="4.61317">
        <ele>272.5</ele>
        <time>2023-06-14T14:59:30.781Z</time>
      </trkpt>
      <trkpt lat="44.79918" lon="4.61316">
        <ele>272.4</ele>
        <time>2023-06-14T14:59:31.334Z</time>
      </trkpt>
      <trkpt lat="44.7992" lon="4.61315">
        <ele>271.5</ele>
        <time>2023-06-14T14:59:32.335Z</time>
      </trkpt>
      <trkpt lat="44.79919" lon="4.61315">
        <ele>272</ele>
        <time>2023-06-14T14:59:32.816Z</time>
      </trkpt>
      <trkpt lat="44.7992" lon="4.61315">
        <ele>271.5</ele>
        <time>2023-06-14T14:59:33.298Z</time>
      </trkpt>
      <trkpt lat="44.79919" lon="4.61315">
        <ele>272</ele>
        <time>2023-06-14T14:59:33.779Z</time>
      </trkpt>
      <trkpt lat="44.7992" lon="4.6132">
        <ele>270.9</ele>
        <time>2023-06-14T14:59:35.475Z</time>
      </trkpt>
      <trkpt lat="44.79918" lon="4.61321">
        <ele>271.5</ele>
        <time>2023-06-14T14:59:36.453Z</time>
      </trkpt>
      <trkpt lat="44.79917" lon="4.61321">
        <ele>271.9</ele>
        <time>2023-06-14T14:59:36.924Z</time>
      </trkpt>
      <trkpt lat="44.79914" lon="4.61317">
        <ele>273.4</ele>
        <time>2023-06-14T14:59:38.861Z</time>
      </trkpt>
      <trkpt lat="44.79915" lon="4.61316">
        <ele>273.3</ele>
        <time>2023-06-14T14:59:39.411Z</time>
      </trkpt>
      <trkpt lat="44.7992" lon="4.61316">
        <ele>271.5</ele>
        <time>2023-06-14T14:59:41.751Z</time>
      </trkpt>
      <trkpt lat="44.79919" lon="4.61315">
        <ele>272</ele>
        <time>2023-06-14T14:59:42.325Z</time>
      </trkpt>
      <trkpt lat="44.79918" lon="4.61315">
        <ele>272.4</ele>
        <time>2023-06-14T14:59:42.795Z</time>
      </trkpt>
      <trkpt lat="44.79918" lon="4.61315">
        <ele>272.4</ele>
        <time>2023-06-14T14:59:42.795Z</time>
      </trkpt>
      <trkpt lat="44.79918" lon="4.61317">
        <ele>272.2</ele>
        <time>2023-06-14T14:59:43.430Z</time>
      </trkpt>
      <trkpt lat="44.79916" lon="4.61318">
        <ele>272.6</ele>
        <time>2023-06-14T14:59:44.392Z</time>
      </trkpt>
      <trkpt lat="44.7992" lon="4.61317">
        <ele>271.3</ele>
        <time>2023-06-14T14:59:46.273Z</time>
      </trkpt>
      <trkpt lat="44.79925" lon="4.61318">
        <ele>269.2</ele>
        <time>2023-06-14T14:59:48.668Z</time>
      </trkpt>
      <trkpt lat="44.79926" lon="4.61318">
        <ele>268.9</ele>
        <time>2023-06-14T14:59:49.132Z</time>
      </trkpt>
      <trkpt lat="44.79926" lon="4.61317">
        <ele>269.1</ele>
        <time>2023-06-14T14:59:49.460Z</time>
      </trkpt>
      <trkpt lat="44.79927" lon="4.61316">
        <ele>268.9</ele>
        <time>2023-06-14T14:59:50.013Z</time>
      </trkpt>
      <trkpt lat="44.79929" lon="4.61315">
        <ele>268.2</ele>
        <time>2023-06-14T14:59:50.998Z</time>
      </trkpt>
      <trkpt lat="44.79928" lon="4.61317">
        <ele>268.3</ele>
        <time>2023-06-14T14:59:51.769Z</time>
      </trkpt>
      <trkpt lat="44.79929" lon="4.61318">
        <ele>267.8</ele>
        <time>2023-06-14T14:59:52.358Z</time>
      </trkpt>
      <trkpt lat="44.79927" lon="4.61322">
        <ele>267.9</ele>
        <time>2023-06-14T14:59:53.899Z</time>
      </trkpt>
      <trkpt lat="44.79927" lon="4.61323">
        <ele>267.7</ele>
        <time>2023-06-14T14:59:54.227Z</time>
      </trkpt>
      <trkpt lat="44.79927" lon="4.61323">
        <ele>267.7</ele>
        <time>2023-06-14T14:59:54.227Z</time>
      </trkpt>
      <trkpt lat="44.79927" lon="4.61322">
        <ele>267.9</ele>
        <time>2023-06-14T14:59:54.555Z</time>
      </trkpt>
      <trkpt lat="44.79927" lon="4.61323">
        <ele>267.7</ele>
        <time>2023-06-14T14:59:54.883Z</time>
      </trkpt>
      <trkpt lat="44.79928" lon="4.61323">
        <ele>267.3</ele>
        <time>2023-06-14T14:59:55.355Z</time>
      </trkpt>
      <trkpt lat="44.79928" lon="4.61324">
        <ele>267.3</ele>
        <time>2023-06-14T14:59:55.672Z</time>
      </trkpt>
      <trkpt lat="44.79928" lon="4.61327">
        <ele>266.7</ele>
        <time>2023-06-14T14:59:56.647Z</time>
      </trkpt>
      <trkpt lat="44.79928" lon="4.61325">
        <ele>267.1</ele>
        <time>2023-06-14T14:59:57.298Z</time>
      </trkpt>
      <trkpt lat="44.79929" lon="4.61322">
        <ele>267.1</ele>
        <time>2023-06-14T14:59:58.342Z</time>
      </trkpt>
      <trkpt lat="44.79929" lon="4.61321">
        <ele>267.4</ele>
        <time>2023-06-14T14:59:58.666Z</time>
      </trkpt>
      <trkpt lat="44.79932" lon="4.61315">
        <ele>267.1</ele>
        <time>2023-06-14T15:00:00.985Z</time>
      </trkpt>
      <trkpt lat="44.79935" lon="4.61313">
        <ele>266.3</ele>
        <time>2023-06-14T15:00:02.497Z</time>
      </trkpt>
      <trkpt lat="44.79938" lon="4.6131">
        <ele>265.6</ele>
        <time>2023-06-14T15:00:04.154Z</time>
      </trkpt>
      <trkpt lat="44.79939" lon="4.61309">
        <ele>265.5</ele>
        <time>2023-06-14T15:00:04.703Z</time>
      </trkpt>
      <trkpt lat="44.7994" lon="4.61309">
        <ele>265.1</ele>
        <time>2023-06-14T15:00:05.166Z</time>
      </trkpt>
      <trkpt lat="44.79942" lon="4.6131">
        <ele>264.2</ele>
        <time>2023-06-14T15:00:06.186Z</time>
      </trkpt>
      <trkpt lat="44.79947" lon="4.61309">
        <ele>262.6</ele>
        <time>2023-06-14T15:00:08.520Z</time>
      </trkpt>
      <trkpt lat="44.79953" lon="4.61307">
        <ele>260.7</ele>
        <time>2023-06-14T15:00:11.362Z</time>
      </trkpt>
      <trkpt lat="44.79954" lon="4.61306">
        <ele>260.3</ele>
        <time>2023-06-14T15:00:11.927Z</time>
      </trkpt>
      <trkpt lat="44.79958" lon="4.61299">
        <ele>260.2</ele>
        <time>2023-06-14T15:00:14.762Z</time>
      </trkpt>
      <trkpt lat="44.79958" lon="4.61297">
        <ele>260.5</ele>
        <time>2023-06-14T15:00:15.398Z</time>
      </trkpt>
      <trkpt lat="44.7996" lon="4.61295">
        <ele>260.2</ele>
        <time>2023-06-14T15:00:16.491Z</time>
      </trkpt>
      <trkpt lat="44.79961" lon="4.6129">
        <ele>260.8</ele>
        <time>2023-06-14T15:00:18.149Z</time>
      </trkpt>
      <trkpt lat="44.79962" lon="4.61289">
        <ele>260.3</ele>
        <time>2023-06-14T15:00:18.727Z</time>
      </trkpt>
      <trkpt lat="44.79959" lon="4.61277">
        <ele>263.7</ele>
        <time>2023-06-14T15:00:22.974Z</time>
      </trkpt>
      <trkpt lat="44.79955" lon="4.61271">
        <ele>266</ele>
        <time>2023-06-14T15:00:25.732Z</time>
      </trkpt>
      <trkpt lat="44.79954" lon="4.61268">
        <ele>267.1</ele>
        <time>2023-06-14T15:00:26.853Z</time>
      </trkpt>
      <trkpt lat="44.79953" lon="4.61261">
        <ele>268.5</ele>
        <time>2023-06-14T15:00:29.184Z</time>
      </trkpt>
      <trkpt lat="44.79952" lon="4.61259">
        <ele>269.1</ele>
        <time>2023-06-14T15:00:29.989Z</time>
      </trkpt>
      <trkpt lat="44.79946" lon="4.61248">
        <ele>272.8</ele>
        <time>2023-06-14T15:00:34.614Z</time>
      </trkpt>
      <trkpt lat="44.79942" lon="4.61241">
        <ele>274.2</ele>
        <time>2023-06-14T15:00:37.504Z</time>
      </trkpt>
      <trkpt lat="44.79938" lon="4.61233">
        <ele>275.6</ele>
        <time>2023-06-14T15:00:40.643Z</time>
      </trkpt>
      <trkpt lat="44.79938" lon="4.61231">
        <ele>275.6</ele>
        <time>2023-06-14T15:00:41.273Z</time>
      </trkpt>
      <trkpt lat="44.79934" lon="4.61224">
        <ele>277</ele>
        <time>2023-06-14T15:00:44.165Z</time>
      </trkpt>
      <trkpt lat="44.79927" lon="4.61218">
        <ele>279.5</ele>
        <time>2023-06-14T15:00:47.935Z</time>
      </trkpt>
      <trkpt lat="44.79926" lon="4.61217">
        <ele>279.8</ele>
        <time>2023-06-14T15:00:48.497Z</time>
      </trkpt>
      <trkpt lat="44.79922" lon="4.61209">
        <ele>281.1</ele>
        <time>2023-06-14T15:00:51.631Z</time>
      </trkpt>
      <trkpt lat="44.79921" lon="4.61207">
        <ele>281.5</ele>
        <time>2023-06-14T15:00:52.415Z</time>
      </trkpt>
      <trkpt lat="44.79917" lon="4.61202">
        <ele>282.9</ele>
        <time>2023-06-14T15:00:54.861Z</time>
      </trkpt>
      <trkpt lat="44.79916" lon="4.612">
        <ele>283.2</ele>
        <time>2023-06-14T15:00:55.638Z</time>
      </trkpt>
      <trkpt lat="44.7991" lon="4.61193">
        <ele>284.9</ele>
        <time>2023-06-14T15:00:59.170Z</time>
      </trkpt>
      <trkpt lat="44.79907" lon="4.6119">
        <ele>285.7</ele>
        <time>2023-06-14T15:01:00.840Z</time>
      </trkpt>
      <trkpt lat="44.79902" lon="4.61185">
        <ele>287.2</ele>
        <time>2023-06-14T15:01:03.627Z</time>
      </trkpt>
      <trkpt lat="44.799" lon="4.61183">
        <ele>287.7</ele>
        <time>2023-06-14T15:01:04.741Z</time>
      </trkpt>
      <trkpt lat="44.79895" lon="4.6117">
        <ele>289</ele>
        <time>2023-06-14T15:01:09.434Z</time>
      </trkpt>
      <trkpt lat="44.79895" lon="4.61165">
        <ele>288.5</ele>
        <time>2023-06-14T15:01:11.022Z</time>
      </trkpt>
      <trkpt lat="44.79896" lon="4.6116">
        <ele>287.6</ele>
        <time>2023-06-14T15:01:12.701Z</time>
      </trkpt>
      <trkpt lat="44.79896" lon="4.61153">
        <ele>286.3</ele>
        <time>2023-06-14T15:01:14.971Z</time>
      </trkpt>
      <trkpt lat="44.79896" lon="4.61153">
        <ele>286.3</ele>
        <time>2023-06-14T15:01:14.971Z</time>
      </trkpt>
      <trkpt lat="44.79895" lon="4.61146">
        <ele>285.5</ele>
        <time>2023-06-14T15:01:17.249Z</time>
      </trkpt>
      <trkpt lat="44.79894" lon="4.61142">
        <ele>285.1</ele>
        <time>2023-06-14T15:01:18.593Z</time>
      </trkpt>
      <trkpt lat="44.79893" lon="4.61141">
        <ele>285.2</ele>
        <time>2023-06-14T15:01:19.136Z</time>
      </trkpt>
      <trkpt lat="44.7989" lon="4.61137">
        <ele>285.6</ele>
        <time>2023-06-14T15:01:20.975Z</time>
      </trkpt>
      <trkpt lat="44.79888" lon="4.61133">
        <ele>285.5</ele>
        <time>2023-06-14T15:01:22.524Z</time>
      </trkpt>
      <trkpt lat="44.79885" lon="4.61126">
        <ele>285.2</ele>
        <time>2023-06-14T15:01:25.107Z</time>
      </trkpt>
      <trkpt lat="44.79885" lon="4.61124">
        <ele>285</ele>
        <time>2023-06-14T15:01:25.741Z</time>
      </trkpt>
      <trkpt lat="44.79885" lon="4.61119">
        <ele>284.1</ele>
        <time>2023-06-14T15:01:27.351Z</time>
      </trkpt>
      <trkpt lat="44.79883" lon="4.61113">
        <ele>283.7</ele>
        <time>2023-06-14T15:01:29.452Z</time>
      </trkpt>
      <trkpt lat="44.7988" lon="4.61106">
        <ele>283.7</ele>
        <time>2023-06-14T15:01:32.035Z</time>
      </trkpt>
      <trkpt lat="44.79879" lon="4.61105">
        <ele>283.8</ele>
        <time>2023-06-14T15:01:32.576Z</time>
      </trkpt>
      <trkpt lat="44.79878" lon="4.61103">
        <ele>283.9</ele>
        <time>2023-06-14T15:01:33.354Z</time>
      </trkpt>
      <trkpt lat="44.79872" lon="4.61096">
        <ele>284.7</ele>
        <time>2023-06-14T15:01:36.832Z</time>
      </trkpt>
      <trkpt lat="44.79871" lon="4.61095">
        <ele>285</ele>
        <time>2023-06-14T15:01:37.396Z</time>
      </trkpt>
      <trkpt lat="44.79865" lon="4.61088">
        <ele>285.8</ele>
        <time>2023-06-14T15:01:40.873Z</time>
      </trkpt>
      <trkpt lat="44.79863" lon="4.61084">
        <ele>286</ele>
        <time>2023-06-14T15:01:42.419Z</time>
      </trkpt>
      <trkpt lat="44.79859" lon="4.61078">
        <ele>286.7</ele>
        <time>2023-06-14T15:01:45.027Z</time>
      </trkpt>
      <trkpt lat="44.79858" lon="4.61077">
        <ele>286.9</ele>
        <time>2023-06-14T15:01:45.579Z</time>
      </trkpt>
      <trkpt lat="44.79853" lon="4.61072">
        <ele>287.8</ele>
        <time>2023-06-14T15:01:48.330Z</time>
      </trkpt>
      <trkpt lat="44.79852" lon="4.61071">
        <ele>288</ele>
        <time>2023-06-14T15:01:48.882Z</time>
      </trkpt>
      <trkpt lat="44.79848" lon="4.61066">
        <ele>288.7</ele>
        <time>2023-06-14T15:01:51.280Z</time>
      </trkpt>
      <trkpt lat="44.79843" lon="4.6106">
        <ele>289.7</ele>
        <time>2023-06-14T15:01:54.223Z</time>
      </trkpt>
      <trkpt lat="44.7984" lon="4.61057">
        <ele>290.1</ele>
        <time>2023-06-14T15:01:55.870Z</time>
      </trkpt>
      <trkpt lat="44.79834" lon="4.61053">
        <ele>291.7</ele>
        <time>2023-06-14T15:01:58.884Z</time>
      </trkpt>
      <trkpt lat="44.79833" lon="4.61052">
        <ele>292</ele>
        <time>2023-06-14T15:01:59.442Z</time>
      </trkpt>
      <trkpt lat="44.7983" lon="4.61049">
        <ele>292.4</ele>
        <time>2023-06-14T15:02:01.088Z</time>
      </trkpt>
      <trkpt lat="44.79828" lon="4.61048">
        <ele>293.1</ele>
        <time>2023-06-14T15:02:02.072Z</time>
      </trkpt>
      <trkpt lat="44.79827" lon="4.61048">
        <ele>293.4</ele>
        <time>2023-06-14T15:02:02.531Z</time>
      </trkpt>
      <trkpt lat="44.79825" lon="4.61048">
        <ele>294.1</ele>
        <time>2023-06-14T15:02:03.462Z</time>
      </trkpt>
      <trkpt lat="44.79821" lon="4.61047">
        <ele>295.3</ele>
        <time>2023-06-14T15:02:05.330Z</time>
      </trkpt>
      <trkpt lat="44.7982" lon="4.61047">
        <ele>295.6</ele>
        <time>2023-06-14T15:02:05.795Z</time>
      </trkpt>
      <trkpt lat="44.79813" lon="4.61047">
        <ele>297.9</ele>
        <time>2023-06-14T15:02:09.033Z</time>
      </trkpt>
      <trkpt lat="44.79812" lon="4.61047">
        <ele>298.2</ele>
        <time>2023-06-14T15:02:09.499Z</time>
      </trkpt>
      <trkpt lat="44.79806" lon="4.61044">
        <ele>299.7</ele>
        <time>2023-06-14T15:02:12.393Z</time>
      </trkpt>
      <trkpt lat="44.798" lon="4.61041">
        <ele>301.3</ele>
        <time>2023-06-14T15:02:15.292Z</time>
      </trkpt>
      <trkpt lat="44.79798" lon="4.61041">
        <ele>301.9</ele>
        <time>2023-06-14T15:02:16.216Z</time>
      </trkpt>
      <trkpt lat="44.79792" lon="4.61041">
        <ele>303.9</ele>
        <time>2023-06-14T15:02:19.006Z</time>
      </trkpt>
      <trkpt lat="44.79786" lon="4.6104">
        <ele>305.7</ele>
        <time>2023-06-14T15:02:21.782Z</time>
      </trkpt>
      <trkpt lat="44.79784" lon="4.61039">
        <ele>306.3</ele>
        <time>2023-06-14T15:02:22.756Z</time>
      </trkpt>
      <trkpt lat="44.79783" lon="4.61039">
        <ele>306.6</ele>
        <time>2023-06-14T15:02:23.222Z</time>
      </trkpt>
      <trkpt lat="44.79779" lon="4.61037">
        <ele>307.6</ele>
        <time>2023-06-14T15:02:25.154Z</time>
      </trkpt>
      <trkpt lat="44.79778" lon="4.61038">
        <ele>308.2</ele>
        <time>2023-06-14T15:02:25.736Z</time>
      </trkpt>
      <trkpt lat="44.79776" lon="4.61038">
        <ele>308.8</ele>
        <time>2023-06-14T15:02:26.666Z</time>
      </trkpt>
      <trkpt lat="44.79773" lon="4.61039">
        <ele>310</ele>
        <time>2023-06-14T15:02:28.115Z</time>
      </trkpt>
      <trkpt lat="44.79771" lon="4.61039">
        <ele>310.6</ele>
        <time>2023-06-14T15:02:29.039Z</time>
      </trkpt>
      <trkpt lat="44.79769" lon="4.61039">
        <ele>311.2</ele>
        <time>2023-06-14T15:02:29.962Z</time>
      </trkpt>
      <trkpt lat="44.79761" lon="4.61038">
        <ele>313.7</ele>
        <time>2023-06-14T15:02:33.666Z</time>
      </trkpt>
      <trkpt lat="44.7976" lon="4.61038">
        <ele>314</ele>
        <time>2023-06-14T15:02:34.131Z</time>
      </trkpt>
      <trkpt lat="44.79753" lon="4.61032">
        <ele>315.3</ele>
        <time>2023-06-14T15:02:37.812Z</time>
      </trkpt>
      <trkpt lat="44.79751" lon="4.61032">
        <ele>315.9</ele>
        <time>2023-06-14T15:02:38.735Z</time>
      </trkpt>
      <trkpt lat="44.79743" lon="4.61031">
        <ele>317.8</ele>
        <time>2023-06-14T15:02:42.379Z</time>
      </trkpt>
      <trkpt lat="44.79741" lon="4.61031">
        <ele>318.2</ele>
        <time>2023-06-14T15:02:43.288Z</time>
      </trkpt>
      <trkpt lat="44.79735" lon="4.61027">
        <ele>319.1</ele>
        <time>2023-06-14T15:02:46.261Z</time>
      </trkpt>
      <trkpt lat="44.79729" lon="4.61023">
        <ele>320</ele>
        <time>2023-06-14T15:02:49.232Z</time>
      </trkpt>
      <trkpt lat="44.79727" lon="4.61021">
        <ele>320.2</ele>
        <time>2023-06-14T15:02:50.331Z</time>
      </trkpt>
      <trkpt lat="44.79723" lon="4.61017">
        <ele>320.7</ele>
        <time>2023-06-14T15:02:52.516Z</time>
      </trkpt>
      <trkpt lat="44.79722" lon="4.61016">
        <ele>320.7</ele>
        <time>2023-06-14T15:02:53.062Z</time>
      </trkpt>
      <trkpt lat="44.7971" lon="4.61006">
        <ele>322</ele>
        <time>2023-06-14T15:02:59.285Z</time>
      </trkpt>
      <trkpt lat="44.79708" lon="4.61004">
        <ele>322.2</ele>
        <time>2023-06-14T15:03:00.378Z</time>
      </trkpt>
      <trkpt lat="44.79701" lon="4.61002">
        <ele>323.5</ele>
        <time>2023-06-14T15:03:03.600Z</time>
      </trkpt>
      <trkpt lat="44.79699" lon="4.61002">
        <ele>324</ele>
        <time>2023-06-14T15:03:04.508Z</time>
      </trkpt>
      <trkpt lat="44.79694" lon="4.61006">
        <ele>326</ele>
        <time>2023-06-14T15:03:07.183Z</time>
      </trkpt>
      <trkpt lat="44.79694" lon="4.61009">
        <ele>326.6</ele>
        <time>2023-06-14T15:03:08.165Z</time>
      </trkpt>
      <trkpt lat="44.79698" lon="4.61019">
        <ele>327.1</ele>
        <time>2023-06-14T15:03:11.796Z</time>
      </trkpt>
      <trkpt lat="44.79699" lon="4.61021">
        <ele>327.3</ele>
        <time>2023-06-14T15:03:12.568Z</time>
      </trkpt>
      <trkpt lat="44.79701" lon="4.61024">
        <ele>327.2</ele>
        <time>2023-06-14T15:03:13.866Z</time>
      </trkpt>
      <trkpt lat="44.79701" lon="4.61026">
        <ele>327.7</ele>
        <time>2023-06-14T15:03:14.519Z</time>
      </trkpt>
      <trkpt lat="44.79702" lon="4.61027">
        <ele>327.4</ele>
        <time>2023-06-14T15:03:15.077Z</time>
      </trkpt>
      <trkpt lat="44.79703" lon="4.61029">
        <ele>327.6</ele>
        <time>2023-06-14T15:03:15.853Z</time>
      </trkpt>
      <trkpt lat="44.79706" lon="4.61036">
        <ele>328</ele>
        <time>2023-06-14T15:03:18.439Z</time>
      </trkpt>
      <trkpt lat="44.79707" lon="4.61041">
        <ele>328.6</ele>
        <time>2023-06-14T15:03:20.095Z</time>
      </trkpt>
      <trkpt lat="44.79707" lon="4.61043">
        <ele>329</ele>
        <time>2023-06-14T15:03:20.748Z</time>
      </trkpt>
      <trkpt lat="44.79707" lon="4.61046">
        <ele>329.5</ele>
        <time>2023-06-14T15:03:21.712Z</time>
      </trkpt>
      <trkpt lat="44.79711" lon="4.61053">
        <ele>329.6</ele>
        <time>2023-06-14T15:03:24.552Z</time>
      </trkpt>
      <trkpt lat="44.79714" lon="4.61063">
        <ele>330.5</ele>
        <time>2023-06-14T15:03:27.995Z</time>
      </trkpt>
      <trkpt lat="44.79715" lon="4.61064">
        <ele>330.5</ele>
        <time>2023-06-14T15:03:28.544Z</time>
      </trkpt>
      <trkpt lat="44.79717" lon="4.61071">
        <ele>331.1</ele>
        <time>2023-06-14T15:03:30.934Z</time>
      </trkpt>
      <trkpt lat="44.79718" lon="4.61074">
        <ele>331.3</ele>
        <time>2023-06-14T15:03:31.984Z</time>
      </trkpt>
      <trkpt lat="44.79722" lon="4.61082">
        <ele>331.8</ele>
        <time>2023-06-14T15:03:35.081Z</time>
      </trkpt>
      <trkpt lat="44.79722" lon="4.61083">
        <ele>331.8</ele>
        <time>2023-06-14T15:03:35.393Z</time>
      </trkpt>
      <trkpt lat="44.79726" lon="4.61095">
        <ele>331.6</ele>
        <time>2023-06-14T15:03:39.579Z</time>
      </trkpt>
      <trkpt lat="44.79727" lon="4.61098">
        <ele>331.5</ele>
        <time>2023-06-14T15:03:40.625Z</time>
      </trkpt>
      <trkpt lat="44.79731" lon="4.61105">
        <ele>330.8</ele>
        <time>2023-06-14T15:03:43.477Z</time>
      </trkpt>
      <trkpt lat="44.79732" lon="4.61108">
        <ele>330.8</ele>
        <time>2023-06-14T15:03:44.524Z</time>
      </trkpt>
      <trkpt lat="44.79737" lon="4.61118">
        <ele>330</ele>
        <time>2023-06-14T15:03:48.394Z</time>
      </trkpt>
      <trkpt lat="44.7974" lon="4.61121">
        <ele>329.3</ele>
        <time>2023-06-14T15:03:50.050Z</time>
      </trkpt>
      <trkpt lat="44.79745" lon="4.6113">
        <ele>328.5</ele>
        <time>2023-06-14T15:03:53.674Z</time>
      </trkpt>
      <trkpt lat="44.79748" lon="4.61137">
        <ele>328.1</ele>
        <time>2023-06-14T15:03:56.261Z</time>
      </trkpt>
      <trkpt lat="44.79748" lon="4.61139">
        <ele>328.1</ele>
        <time>2023-06-14T15:03:56.890Z</time>
      </trkpt>
      <trkpt lat="44.79749" lon="4.6114">
        <ele>327.9</ele>
        <time>2023-06-14T15:03:57.441Z</time>
      </trkpt>
      <trkpt lat="44.79752" lon="4.61146">
        <ele>327.4</ele>
        <time>2023-06-14T15:03:59.767Z</time>
      </trkpt>
      <trkpt lat="44.79753" lon="4.61152">
        <ele>327.4</ele>
        <time>2023-06-14T15:04:01.711Z</time>
      </trkpt>
      <trkpt lat="44.79755" lon="4.61161">
        <ele>327.2</ele>
        <time>2023-06-14T15:04:04.690Z</time>
      </trkpt>
      <trkpt lat="44.79756" lon="4.6117">
        <ele>327.5</ele>
        <time>2023-06-14T15:04:07.567Z</time>
      </trkpt>
      <trkpt lat="44.79756" lon="4.61178">
        <ele>328.3</ele>
        <time>2023-06-14T15:04:10.107Z</time>
      </trkpt>
      <trkpt lat="44.79756" lon="4.61182">
        <ele>328.6</ele>
        <time>2023-06-14T15:04:11.379Z</time>
      </trkpt>
      <trkpt lat="44.79756" lon="4.61184">
        <ele>328.9</ele>
        <time>2023-06-14T15:04:12.016Z</time>
      </trkpt>
      <trkpt lat="44.79755" lon="4.61189">
        <ele>329.6</ele>
        <time>2023-06-14T15:04:13.681Z</time>
      </trkpt>
      <trkpt lat="44.79755" lon="4.61198">
        <ele>330.5</ele>
        <time>2023-06-14T15:04:16.542Z</time>
      </trkpt>
      <trkpt lat="44.79756" lon="4.61206">
        <ele>330.9</ele>
        <time>2023-06-14T15:04:19.115Z</time>
      </trkpt>
      <trkpt lat="44.79758" lon="4.6121">
        <ele>330.7</ele>
        <time>2023-06-14T15:04:20.662Z</time>
      </trkpt>
      <trkpt lat="44.7976" lon="4.61214">
        <ele>330.4</ele>
        <time>2023-06-14T15:04:22.209Z</time>
      </trkpt>
      <trkpt lat="44.79764" lon="4.61221">
        <ele>329.8</ele>
        <time>2023-06-14T15:04:25.055Z</time>
      </trkpt>
      <trkpt lat="44.79767" lon="4.61227">
        <ele>329.4</ele>
        <time>2023-06-14T15:04:27.378Z</time>
      </trkpt>
      <trkpt lat="44.79771" lon="4.61233">
        <ele>328.7</ele>
        <time>2023-06-14T15:04:29.987Z</time>
      </trkpt>
      <trkpt lat="44.79778" lon="4.61243">
        <ele>327.3</ele>
        <time>2023-06-14T15:04:34.460Z</time>
      </trkpt>
      <trkpt lat="44.7978" lon="4.61247">
        <ele>327</ele>
        <time>2023-06-14T15:04:36.005Z</time>
      </trkpt>
      <trkpt lat="44.79781" lon="4.6125">
        <ele>326.9</ele>
        <time>2023-06-14T15:04:37.053Z</time>
      </trkpt>
      <trkpt lat="44.79782" lon="4.61259">
        <ele>325.3</ele>
        <time>2023-06-14T15:04:39.994Z</time>
      </trkpt>
      <trkpt lat="44.79781" lon="4.61272">
        <ele>323.9</ele>
        <time>2023-06-14T15:04:44.162Z</time>
      </trkpt>
      <trkpt lat="44.79781" lon="4.61273">
        <ele>323.9</ele>
        <time>2023-06-14T15:04:44.474Z</time>
      </trkpt>
      <trkpt lat="44.79781" lon="4.61275">
        <ele>323.5</ele>
        <time>2023-06-14T15:04:45.125Z</time>
      </trkpt>
      <trkpt lat="44.7978" lon="4.61283">
        <ele>322.9</ele>
        <time>2023-06-14T15:04:47.698Z</time>
      </trkpt>
      <trkpt lat="44.79779" lon="4.61286">
        <ele>322.9</ele>
        <time>2023-06-14T15:04:48.745Z</time>
      </trkpt>
      <trkpt lat="44.79777" lon="4.61298">
        <ele>321.9</ele>
        <time>2023-06-14T15:04:52.657Z</time>
      </trkpt>
      <trkpt lat="44.79776" lon="4.61304">
        <ele>321.6</ele>
        <time>2023-06-14T15:04:54.602Z</time>
      </trkpt>
      <trkpt lat="44.79773" lon="4.61309">
        <ele>322</ele>
        <time>2023-06-14T15:04:56.678Z</time>
      </trkpt>
      <trkpt lat="44.7977" lon="4.61314">
        <ele>322.5</ele>
        <time>2023-06-14T15:04:58.751Z</time>
      </trkpt>
      <trkpt lat="44.79766" lon="4.61314">
        <ele>324.1</ele>
        <time>2023-06-14T15:05:00.638Z</time>
      </trkpt>
      <trkpt lat="44.79764" lon="4.61314">
        <ele>324.8</ele>
        <time>2023-06-14T15:05:01.573Z</time>
      </trkpt>
      <trkpt lat="44.79758" lon="4.61314">
        <ele>327</ele>
        <time>2023-06-14T15:05:04.386Z</time>
      </trkpt>
      <trkpt lat="44.79756" lon="4.61313">
        <ele>327.9</ele>
        <time>2023-06-14T15:05:05.399Z</time>
      </trkpt>
      <trkpt lat="44.7975" lon="4.61307">
        <ele>331</ele>
        <time>2023-06-14T15:05:08.890Z</time>
      </trkpt>
      <trkpt lat="44.79744" lon="4.61301">
        <ele>333.3</ele>
        <time>2023-06-14T15:05:12.289Z</time>
      </trkpt>
      <trkpt lat="44.79743" lon="4.613">
        <ele>333.8</ele>
        <time>2023-06-14T15:05:12.865Z</time>
      </trkpt>
      <trkpt lat="44.79736" lon="4.61295">
        <ele>336.5</ele>
        <time>2023-06-14T15:05:16.526Z</time>
      </trkpt>
      <trkpt lat="44.79731" lon="4.61293">
        <ele>338.1</ele>
        <time>2023-06-14T15:05:18.926Z</time>
      </trkpt>
      <trkpt lat="44.79729" lon="4.61293">
        <ele>338.7</ele>
        <time>2023-06-14T15:05:19.845Z</time>
      </trkpt>
      <trkpt lat="44.79721" lon="4.6129">
        <ele>341.6</ele>
        <time>2023-06-14T15:05:23.700Z</time>
      </trkpt>
      <trkpt lat="44.79717" lon="4.61288">
        <ele>342.9</ele>
        <time>2023-06-14T15:05:25.661Z</time>
      </trkpt>
      <trkpt lat="44.79711" lon="4.61286">
        <ele>345</ele>
        <time>2023-06-14T15:05:28.531Z</time>
      </trkpt>
      <trkpt lat="44.79708" lon="4.61283">
        <ele>346.2</ele>
        <time>2023-06-14T15:05:30.228Z</time>
      </trkpt>
      <trkpt lat="44.79708" lon="4.61282">
        <ele>346.3</ele>
        <time>2023-06-14T15:05:30.548Z</time>
      </trkpt>
      <trkpt lat="44.79706" lon="4.61281">
        <ele>347</ele>
        <time>2023-06-14T15:05:31.532Z</time>
      </trkpt>
      <trkpt lat="44.79701" lon="4.61276">
        <ele>348.8</ele>
        <time>2023-06-14T15:05:34.356Z</time>
      </trkpt>
      <trkpt lat="44.79699" lon="4.61275">
        <ele>349.5</ele>
        <time>2023-06-14T15:05:35.337Z</time>
      </trkpt>
      <trkpt lat="44.79691" lon="4.61269">
        <ele>352.5</ele>
        <time>2023-06-14T15:05:39.537Z</time>
      </trkpt>
      <trkpt lat="44.7969" lon="4.61269">
        <ele>352.8</ele>
        <time>2023-06-14T15:05:39.999Z</time>
      </trkpt>
      <trkpt lat="44.79684" lon="4.61264">
        <ele>354.9</ele>
        <time>2023-06-14T15:05:43.218Z</time>
      </trkpt>
      <trkpt lat="44.79683" lon="4.61263">
        <ele>355.3</ele>
        <time>2023-06-14T15:05:43.778Z</time>
      </trkpt>
      <trkpt lat="44.79677" lon="4.61261">
        <ele>357.2</ele>
        <time>2023-06-14T15:05:46.627Z</time>
      </trkpt>
      <trkpt lat="44.79675" lon="4.61259">
        <ele>357.9</ele>
        <time>2023-06-14T15:05:47.747Z</time>
      </trkpt>
      <trkpt lat="44.79674" lon="4.61257">
        <ele>358.4</ele>
        <time>2023-06-14T15:05:48.543Z</time>
      </trkpt>
      <trkpt lat="44.79672" lon="4.61254">
        <ele>359.1</ele>
        <time>2023-06-14T15:05:49.876Z</time>
      </trkpt>
      <trkpt lat="44.7967" lon="4.61253">
        <ele>359.8</ele>
        <time>2023-06-14T15:05:50.861Z</time>
      </trkpt>
      <trkpt lat="44.79665" lon="4.61247">
        <ele>360.9</ele>
        <time>2023-06-14T15:05:53.812Z</time>
      </trkpt>
      <trkpt lat="44.79665" lon="4.61246">
        <ele>360.9</ele>
        <time>2023-06-14T15:05:54.124Z</time>
      </trkpt>
      <trkpt lat="44.79658" lon="4.61239">
        <ele>361.4</ele>
        <time>2023-06-14T15:05:57.950Z</time>
      </trkpt>
      <trkpt lat="44.79657" lon="4.61238">
        <ele>361.4</ele>
        <time>2023-06-14T15:05:58.493Z</time>
      </trkpt>
      <trkpt lat="44.79653" lon="4.61232">
        <ele>361.8</ele>
        <time>2023-06-14T15:06:01.097Z</time>
      </trkpt>
      <trkpt lat="44.79652" lon="4.61229">
        <ele>361.8</ele>
        <time>2023-06-14T15:06:02.136Z</time>
      </trkpt>
      <trkpt lat="44.79649" lon="4.6122">
        <ele>361.5</ele>
        <time>2023-06-14T15:06:05.276Z</time>
      </trkpt>
      <trkpt lat="44.79646" lon="4.61213">
        <ele>361.5</ele>
        <time>2023-06-14T15:06:07.859Z</time>
      </trkpt>
      <trkpt lat="44.79645" lon="4.61211">
        <ele>361.6</ele>
        <time>2023-06-14T15:06:08.632Z</time>
      </trkpt>
      <trkpt lat="44.79638" lon="4.61202">
        <ele>362.7</ele>
        <time>2023-06-14T15:06:12.870Z</time>
      </trkpt>
      <trkpt lat="44.79635" lon="4.61196">
        <ele>363</ele>
        <time>2023-06-14T15:06:15.189Z</time>
      </trkpt>
      <trkpt lat="44.79635" lon="4.61195">
        <ele>362.9</ele>
        <time>2023-06-14T15:06:15.509Z</time>
      </trkpt>
      <trkpt lat="44.79635" lon="4.61194">
        <ele>362.9</ele>
        <time>2023-06-14T15:06:15.821Z</time>
      </trkpt>
      <trkpt lat="44.79633" lon="4.6119">
        <ele>363.1</ele>
        <time>2023-06-14T15:06:17.369Z</time>
      </trkpt>
      <trkpt lat="44.79633" lon="4.61187">
        <ele>362.9</ele>
        <time>2023-06-14T15:06:18.322Z</time>
      </trkpt>
      <trkpt lat="44.79632" lon="4.61186">
        <ele>363</ele>
        <time>2023-06-14T15:06:18.876Z</time>
      </trkpt>
      <trkpt lat="44.79631" lon="4.61184">
        <ele>363.2</ele>
        <time>2023-06-14T15:06:19.648Z</time>
      </trkpt>
      <trkpt lat="44.79628" lon="4.61179">
        <ele>363.7</ele>
        <time>2023-06-14T15:06:21.723Z</time>
      </trkpt>
      <trkpt lat="44.79628" lon="4.61176">
        <ele>363.6</ele>
        <time>2023-06-14T15:06:22.672Z</time>
      </trkpt>
      <trkpt lat="44.79622" lon="4.61165">
        <ele>364.7</ele>
        <time>2023-06-14T15:06:27.073Z</time>
      </trkpt>
      <trkpt lat="44.79618" lon="4.61157">
        <ele>365.2</ele>
        <time>2023-06-14T15:06:30.169Z</time>
      </trkpt>
      <trkpt lat="44.79617" lon="4.61155">
        <ele>365.4</ele>
        <time>2023-06-14T15:06:30.945Z</time>
      </trkpt>
      <trkpt lat="44.79617" lon="4.61154">
        <ele>365.3</ele>
        <time>2023-06-14T15:06:31.261Z</time>
      </trkpt>
      <trkpt lat="44.79612" lon="4.61152">
        <ele>366.6</ele>
        <time>2023-06-14T15:06:33.640Z</time>
      </trkpt>
      <trkpt lat="44.79609" lon="4.6115">
        <ele>367.4</ele>
        <time>2023-06-14T15:06:35.147Z</time>
      </trkpt>
      <trkpt lat="44.79607" lon="4.61147">
        <ele>367.7</ele>
        <time>2023-06-14T15:06:36.452Z</time>
      </trkpt>
      <trkpt lat="44.79605" lon="4.61146">
        <ele>368.2</ele>
        <time>2023-06-14T15:06:37.412Z</time>
      </trkpt>
      <trkpt lat="44.796" lon="4.61136">
        <ele>368.6</ele>
        <time>2023-06-14T15:06:41.273Z</time>
      </trkpt>
      <trkpt lat="44.79599" lon="4.61135">
        <ele>368.9</ele>
        <time>2023-06-14T15:06:41.831Z</time>
      </trkpt>
      <trkpt lat="44.79593" lon="4.61128">
        <ele>370</ele>
        <time>2023-06-14T15:06:45.319Z</time>
      </trkpt>
      <trkpt lat="44.79587" lon="4.61122">
        <ele>371</ele>
        <time>2023-06-14T15:06:48.616Z</time>
      </trkpt>
      <trkpt lat="44.79584" lon="4.6112">
        <ele>371.8</ele>
        <time>2023-06-14T15:06:50.127Z</time>
      </trkpt>
      <trkpt lat="44.79581" lon="4.61115">
        <ele>372.1</ele>
        <time>2023-06-14T15:06:52.196Z</time>
      </trkpt>
      <trkpt lat="44.79577" lon="4.61113">
        <ele>373</ele>
        <time>2023-06-14T15:06:54.112Z</time>
      </trkpt>
      <trkpt lat="44.79573" lon="4.61109">
        <ele>373.7</ele>
        <time>2023-06-14T15:06:56.316Z</time>
      </trkpt>
      <trkpt lat="44.79562" lon="4.61099">
        <ele>375.9</ele>
        <time>2023-06-14T15:07:02.203Z</time>
      </trkpt>
      <trkpt lat="44.79561" lon="4.61098">
        <ele>376.1</ele>
        <time>2023-06-14T15:07:02.754Z</time>
      </trkpt>
      <trkpt lat="44.79552" lon="4.61091">
        <ele>377.9</ele>
        <time>2023-06-14T15:07:07.387Z</time>
      </trkpt>
      <trkpt lat="44.79551" lon="4.61091">
        <ele>378.2</ele>
        <time>2023-06-14T15:07:07.842Z</time>
      </trkpt>
      <trkpt lat="44.79549" lon="4.61088">
        <ele>378.3</ele>
        <time>2023-06-14T15:07:09.145Z</time>
      </trkpt>
      <trkpt lat="44.79547" lon="4.61087">
        <ele>378.7</ele>
        <time>2023-06-14T15:07:10.101Z</time>
      </trkpt>
      <trkpt lat="44.79542" lon="4.61084">
        <ele>379.9</ele>
        <time>2023-06-14T15:07:12.561Z</time>
      </trkpt>
      <trkpt lat="44.79541" lon="4.61083">
        <ele>379.9</ele>
        <time>2023-06-14T15:07:13.110Z</time>
      </trkpt>
      <trkpt lat="44.7954" lon="4.61082">
        <ele>380.2</ele>
        <time>2023-06-14T15:07:13.667Z</time>
      </trkpt>
      <trkpt lat="44.79536" lon="4.6108">
        <ele>380.7</ele>
        <time>2023-06-14T15:07:15.563Z</time>
      </trkpt>
      <trkpt lat="44.79535" lon="4.6108">
        <ele>381</ele>
        <time>2023-06-14T15:07:16.024Z</time>
      </trkpt>
      <trkpt lat="44.79534" lon="4.61079">
        <ele>381</ele>
        <time>2023-06-14T15:07:16.564Z</time>
      </trkpt>
      <trkpt lat="44.79528" lon="4.61077">
        <ele>382.5</ele>
        <time>2023-06-14T15:07:19.372Z</time>
      </trkpt>
      <trkpt lat="44.79526" lon="4.61076">
        <ele>382.8</ele>
        <time>2023-06-14T15:07:20.325Z</time>
      </trkpt>
      <trkpt lat="44.79521" lon="4.61073">
        <ele>383.6</ele>
        <time>2023-06-14T15:07:22.764Z</time>
      </trkpt>
      <trkpt lat="44.79516" lon="4.6107">
        <ele>384.2</ele>
        <time>2023-06-14T15:07:25.193Z</time>
      </trkpt>
      <trkpt lat="44.79515" lon="4.61069">
        <ele>384.5</ele>
        <time>2023-06-14T15:07:25.753Z</time>
      </trkpt>
      <trkpt lat="44.7951" lon="4.61063">
        <ele>384.5</ele>
        <time>2023-06-14T15:07:28.672Z</time>
      </trkpt>
      <trkpt lat="44.79505" lon="4.6106">
        <ele>385.4</ele>
        <time>2023-06-14T15:07:31.112Z</time>
      </trkpt>
      <trkpt lat="44.79504" lon="4.61058">
        <ele>385.1</ele>
        <time>2023-06-14T15:07:31.892Z</time>
      </trkpt>
      <trkpt lat="44.79499" lon="4.61059">
        <ele>386.8</ele>
        <time>2023-06-14T15:07:34.236Z</time>
      </trkpt>
      <trkpt lat="44.79499" lon="4.61059">
        <ele>386.8</ele>
        <time>2023-06-14T15:07:34.236Z</time>
      </trkpt>
      <trkpt lat="44.79499" lon="4.61057">
        <ele>386.3</ele>
        <time>2023-06-14T15:07:34.909Z</time>
      </trkpt>
      <trkpt lat="44.795" lon="4.61055">
        <ele>385.8</ele>
        <time>2023-06-14T15:07:35.697Z</time>
      </trkpt>
      <trkpt lat="44.79501" lon="4.61055">
        <ele>385.5</ele>
        <time>2023-06-14T15:07:36.159Z</time>
      </trkpt>
      <trkpt lat="44.79501" lon="4.61055">
        <ele>385.5</ele>
        <time>2023-06-14T15:07:36.159Z</time>
      </trkpt>
      <trkpt lat="44.79503" lon="4.61055">
        <ele>384.9</ele>
        <time>2023-06-14T15:07:37.076Z</time>
      </trkpt>
      <trkpt lat="44.79505" lon="4.61057">
        <ele>384.6</ele>
        <time>2023-06-14T15:07:38.180Z</time>
      </trkpt>
      <trkpt lat="44.79505" lon="4.61059">
        <ele>385.1</ele>
        <time>2023-06-14T15:07:38.854Z</time>
      </trkpt>
      <trkpt lat="44.79507" lon="4.61063">
        <ele>385.4</ele>
        <time>2023-06-14T15:07:40.399Z</time>
      </trkpt>
      <trkpt lat="44.7951" lon="4.61067">
        <ele>385.4</ele>
        <time>2023-06-14T15:07:42.237Z</time>
      </trkpt>
      <trkpt lat="44.79512" lon="4.61071">
        <ele>385.7</ele>
        <time>2023-06-14T15:07:43.781Z</time>
      </trkpt>
      <trkpt lat="44.79515" lon="4.61075">
        <ele>385.7</ele>
        <time>2023-06-14T15:07:45.620Z</time>
      </trkpt>
      <trkpt lat="44.79521" lon="4.61079">
        <ele>384.7</ele>
        <time>2023-06-14T15:07:48.596Z</time>
      </trkpt>
      <trkpt lat="44.79524" lon="4.61082">
        <ele>384.8</ele>
        <time>2023-06-14T15:07:50.232Z</time>
      </trkpt>
      <trkpt lat="44.79525" lon="4.61085">
        <ele>385</ele>
        <time>2023-06-14T15:07:51.282Z</time>
      </trkpt>
      <trkpt lat="44.79524" lon="4.61088">
        <ele>385.6</ele>
        <time>2023-06-14T15:07:52.359Z</time>
      </trkpt>
      <trkpt lat="44.79521" lon="4.61091">
        <ele>387</ele>
        <time>2023-06-14T15:07:54.085Z</time>
      </trkpt>
      <trkpt lat="44.7952" lon="4.61092">
        <ele>387.2</ele>
        <time>2023-06-14T15:07:54.643Z</time>
      </trkpt>
      <trkpt lat="44.79517" lon="4.61094">
        <ele>388.5</ele>
        <time>2023-06-14T15:07:56.208Z</time>
      </trkpt>
      <trkpt lat="44.79512" lon="4.61093">
        <ele>389.8</ele>
        <time>2023-06-14T15:07:58.506Z</time>
      </trkpt>
      <trkpt lat="44.7951" lon="4.61093">
        <ele>390.4</ele>
        <time>2023-06-14T15:07:59.421Z</time>
      </trkpt>
      <trkpt lat="44.79505" lon="4.61091">
        <ele>391.6</ele>
        <time>2023-06-14T15:08:01.783Z</time>
      </trkpt>
      <trkpt lat="44.79504" lon="4.61091">
        <ele>391.9</ele>
        <time>2023-06-14T15:08:02.245Z</time>
      </trkpt>
      <trkpt lat="44.79503" lon="4.6109">
        <ele>392.1</ele>
        <time>2023-06-14T15:08:02.799Z</time>
      </trkpt>
      <trkpt lat="44.79499" lon="4.61087">
        <ele>392.5</ele>
        <time>2023-06-14T15:08:04.816Z</time>
      </trkpt>
      <trkpt lat="44.79496" lon="4.61085">
        <ele>392.6</ele>
        <time>2023-06-14T15:08:06.293Z</time>
      </trkpt>
      <trkpt lat="44.7949" lon="4.61081">
        <ele>392.7</ele>
        <time>2023-06-14T15:08:09.246Z</time>
      </trkpt>
      <trkpt lat="44.79487" lon="4.61078">
        <ele>392.6</ele>
        <time>2023-06-14T15:08:10.883Z</time>
      </trkpt>
      <trkpt lat="44.79481" lon="4.6107">
        <ele>391.6</ele>
        <time>2023-06-14T15:08:14.574Z</time>
      </trkpt>
      <trkpt lat="44.79478" lon="4.61068">
        <ele>391.8</ele>
        <time>2023-06-14T15:08:16.051Z</time>
      </trkpt>
      <trkpt lat="44.79474" lon="4.6106">
        <ele>391.1</ele>
        <time>2023-06-14T15:08:19.158Z</time>
      </trkpt>
      <trkpt lat="44.79467" lon="4.61047">
        <ele>390.1</ele>
        <time>2023-06-14T15:08:24.318Z</time>
      </trkpt>
      <trkpt lat="44.79457" lon="4.6103">
        <ele>389.6</ele>
        <time>2023-06-14T15:08:31.291Z</time>
      </trkpt>
      <trkpt lat="44.79452" lon="4.61017">
        <ele>388.9</ele>
        <time>2023-06-14T15:08:35.967Z</time>
      </trkpt>
      <trkpt lat="44.79451" lon="4.61014">
        <ele>388.6</ele>
        <time>2023-06-14T15:08:37.021Z</time>
      </trkpt>
      <trkpt lat="44.79443" lon="4.60999">
        <ele>388.8</ele>
        <time>2023-06-14T15:08:42.938Z</time>
      </trkpt>
      <trkpt lat="44.79441" lon="4.60994">
        <ele>388.5</ele>
        <time>2023-06-14T15:08:44.756Z</time>
      </trkpt>
      <trkpt lat="44.79437" lon="4.60985">
        <ele>388.1</ele>
        <time>2023-06-14T15:08:48.113Z</time>
      </trkpt>
      <trkpt lat="44.79436" lon="4.60982">
        <ele>387.9</ele>
        <time>2023-06-14T15:08:49.160Z</time>
      </trkpt>
      <trkpt lat="44.79428" lon="4.60969">
        <ele>387.9</ele>
        <time>2023-06-14T15:08:54.592Z</time>
      </trkpt>
      <trkpt lat="44.79423" lon="4.6096">
        <ele>387.6</ele>
        <time>2023-06-14T15:08:58.200Z</time>
      </trkpt>
      <trkpt lat="44.79418" lon="4.60953">
        <ele>387.8</ele>
        <time>2023-06-14T15:09:01.335Z</time>
      </trkpt>
      <trkpt lat="44.79417" lon="4.6095">
        <ele>387.4</ele>
        <time>2023-06-14T15:09:02.391Z</time>
      </trkpt>
      <trkpt lat="44.79414" lon="4.60944">
        <ele>387.2</ele>
        <time>2023-06-14T15:09:04.708Z</time>
      </trkpt>
      <trkpt lat="44.79413" lon="4.60942">
        <ele>387</ele>
        <time>2023-06-14T15:09:05.484Z</time>
      </trkpt>
      <trkpt lat="44.79407" lon="4.60933">
        <ele>387</ele>
        <time>2023-06-14T15:09:09.382Z</time>
      </trkpt>
      <trkpt lat="44.79406" lon="4.60931">
        <ele>387.1</ele>
        <time>2023-06-14T15:09:10.155Z</time>
      </trkpt>
      <trkpt lat="44.79398" lon="4.60919">
        <ele>387.5</ele>
        <time>2023-06-14T15:09:15.353Z</time>
      </trkpt>
      <trkpt lat="44.79395" lon="4.60915">
        <ele>387.8</ele>
        <time>2023-06-14T15:09:17.191Z</time>
      </trkpt>
      <trkpt lat="44.79387" lon="4.60906">
        <ele>388.8</ele>
        <time>2023-06-14T15:09:21.760Z</time>
      </trkpt>
      <trkpt lat="44.79386" lon="4.60905">
        <ele>389.1</ele>
        <time>2023-06-14T15:09:22.321Z</time>
      </trkpt>
      <trkpt lat="44.7938" lon="4.60898">
        <ele>389.7</ele>
        <time>2023-06-14T15:09:25.792Z</time>
      </trkpt>
      <trkpt lat="44.79379" lon="4.60897">
        <ele>390</ele>
        <time>2023-06-14T15:09:26.353Z</time>
      </trkpt>
      <trkpt lat="44.79372" lon="4.60891">
        <ele>391.3</ele>
        <time>2023-06-14T15:09:30.029Z</time>
      </trkpt>
      <trkpt lat="44.79371" lon="4.6089">
        <ele>391.4</ele>
        <time>2023-06-14T15:09:30.579Z</time>
      </trkpt>
      <trkpt lat="44.79363" lon="4.60882">
        <ele>392.9</ele>
        <time>2023-06-14T15:09:34.981Z</time>
      </trkpt>
      <trkpt lat="44.79361" lon="4.60879">
        <ele>393.2</ele>
        <time>2023-06-14T15:09:36.283Z</time>
      </trkpt>
      <trkpt lat="44.79356" lon="4.60871">
        <ele>393.8</ele>
        <time>2023-06-14T15:09:39.658Z</time>
      </trkpt>
      <trkpt lat="44.79355" lon="4.60867">
        <ele>393.6</ele>
        <time>2023-06-14T15:09:40.998Z</time>
      </trkpt>
      <trkpt lat="44.79355" lon="4.60864">
        <ele>393.1</ele>
        <time>2023-06-14T15:09:41.965Z</time>
      </trkpt>
      <trkpt lat="44.79351" lon="4.60857">
        <ele>393.6</ele>
        <time>2023-06-14T15:09:44.807Z</time>
      </trkpt>
      <trkpt lat="44.7935" lon="4.60855">
        <ele>393.6</ele>
        <time>2023-06-14T15:09:45.575Z</time>
      </trkpt>
      <trkpt lat="44.79348" lon="4.60852">
        <ele>394.1</ele>
        <time>2023-06-14T15:09:46.890Z</time>
      </trkpt>
      <trkpt lat="44.79344" lon="4.60848">
        <ele>394.9</ele>
        <time>2023-06-14T15:09:49.095Z</time>
      </trkpt>
      <trkpt lat="44.79344" lon="4.60846">
        <ele>394.6</ele>
        <time>2023-06-14T15:09:49.736Z</time>
      </trkpt>
      <trkpt lat="44.7934" lon="4.60839">
        <ele>395.2</ele>
        <time>2023-06-14T15:09:52.586Z</time>
      </trkpt>
      <trkpt lat="44.79337" lon="4.60836">
        <ele>395.9</ele>
        <time>2023-06-14T15:09:54.247Z</time>
      </trkpt>
      <trkpt lat="44.79331" lon="4.6083">
        <ele>397.1</ele>
        <time>2023-06-14T15:09:57.553Z</time>
      </trkpt>
      <trkpt lat="44.7933" lon="4.60828">
        <ele>397.2</ele>
        <time>2023-06-14T15:09:58.326Z</time>
      </trkpt>
      <trkpt lat="44.7932" lon="4.60812">
        <ele>397.9</ele>
        <time>2023-06-14T15:10:05.057Z</time>
      </trkpt>
      <trkpt lat="44.79319" lon="4.6081">
        <ele>398.1</ele>
        <time>2023-06-14T15:10:05.835Z</time>
      </trkpt>
      <trkpt lat="44.79309" lon="4.60795">
        <ele>399.3</ele>
        <time>2023-06-14T15:10:12.346Z</time>
      </trkpt>
      <trkpt lat="44.79308" lon="4.60793">
        <ele>399.6</ele>
        <time>2023-06-14T15:10:13.125Z</time>
      </trkpt>
      <trkpt lat="44.79299" lon="4.60784">
        <ele>401.4</ele>
        <time>2023-06-14T15:10:18.092Z</time>
      </trkpt>
      <trkpt lat="44.79295" lon="4.60779">
        <ele>402.2</ele>
        <time>2023-06-14T15:10:20.487Z</time>
      </trkpt>
      <trkpt lat="44.7929" lon="4.60774">
        <ele>403.5</ele>
        <time>2023-06-14T15:10:23.264Z</time>
      </trkpt>
      <trkpt lat="44.79283" lon="4.60769">
        <ele>405.4</ele>
        <time>2023-06-14T15:10:26.833Z</time>
      </trkpt>
      <trkpt lat="44.79277" lon="4.60765">
        <ele>407.2</ele>
        <time>2023-06-14T15:10:29.874Z</time>
      </trkpt>
      <trkpt lat="44.79267" lon="4.60762">
        <ele>410.6</ele>
        <time>2023-06-14T15:10:34.614Z</time>
      </trkpt>
      <trkpt lat="44.7926" lon="4.60763">
        <ele>413</ele>
        <time>2023-06-14T15:10:37.886Z</time>
      </trkpt>
      <trkpt lat="44.79259" lon="4.60763">
        <ele>413.3</ele>
        <time>2023-06-14T15:10:38.353Z</time>
      </trkpt>
      <trkpt lat="44.79257" lon="4.60764">
        <ele>414</ele>
        <time>2023-06-14T15:10:39.331Z</time>
      </trkpt>
      <trkpt lat="44.79248" lon="4.60768">
        <ele>416.9</ele>
        <time>2023-06-14T15:10:43.688Z</time>
      </trkpt>
      <trkpt lat="44.79245" lon="4.6077">
        <ele>417.4</ele>
        <time>2023-06-14T15:10:45.179Z</time>
      </trkpt>
      <trkpt lat="44.79235" lon="4.60773">
        <ele>419</ele>
        <time>2023-06-14T15:10:49.765Z</time>
      </trkpt>
      <trkpt lat="44.79232" lon="4.60774">
        <ele>419.5</ele>
        <time>2023-06-14T15:10:51.149Z</time>
      </trkpt>
      <trkpt lat="44.79231" lon="4.60774">
        <ele>419.6</ele>
        <time>2023-06-14T15:10:51.600Z</time>
      </trkpt>
      <trkpt lat="44.7923" lon="4.60775">
        <ele>419.8</ele>
        <time>2023-06-14T15:10:52.148Z</time>
      </trkpt>
      <trkpt lat="44.7923" lon="4.60776">
        <ele>419.8</ele>
        <time>2023-06-14T15:10:52.466Z</time>
      </trkpt>
      <trkpt lat="44.7923" lon="4.60776">
        <ele>419.8</ele>
        <time>2023-06-14T15:10:52.466Z</time>
      </trkpt>
      <trkpt lat="44.7923" lon="4.60777">
        <ele>419.8</ele>
        <time>2023-06-14T15:10:52.783Z</time>
      </trkpt>
      <trkpt lat="44.7923" lon="4.60779">
        <ele>419.8</ele>
        <time>2023-06-14T15:10:53.413Z</time>
      </trkpt>
      <trkpt lat="44.79229" lon="4.6078">
        <ele>419.9</ele>
        <time>2023-06-14T15:10:53.959Z</time>
      </trkpt>
      <trkpt lat="44.79218" lon="4.60787">
        <ele>421.4</ele>
        <time>2023-06-14T15:10:59.361Z</time>
      </trkpt>
      <trkpt lat="44.79205" lon="4.60796">
        <ele>422.8</ele>
        <time>2023-06-14T15:11:05.824Z</time>
      </trkpt>
      <trkpt lat="44.79202" lon="4.60798">
        <ele>423</ele>
        <time>2023-06-14T15:11:07.303Z</time>
      </trkpt>
      <trkpt lat="44.79191" lon="4.60807">
        <ele>423.9</ele>
        <time>2023-06-14T15:11:12.968Z</time>
      </trkpt>
      <trkpt lat="44.79186" lon="4.60811">
        <ele>424.1</ele>
        <time>2023-06-14T15:11:15.526Z</time>
      </trkpt>
      <trkpt lat="44.79176" lon="4.60812">
        <ele>425</ele>
        <time>2023-06-14T15:11:20.003Z</time>
      </trkpt>
      <trkpt lat="44.79174" lon="4.60814">
        <ele>425</ele>
        <time>2023-06-14T15:11:21.091Z</time>
      </trkpt>
      <trkpt lat="44.79163" lon="4.60819">
        <ele>425.5</ele>
        <time>2023-06-14T15:11:26.233Z</time>
      </trkpt>
      <trkpt lat="44.7916" lon="4.6082">
        <ele>425.8</ele>
        <time>2023-06-14T15:11:27.609Z</time>
      </trkpt>
      <trkpt lat="44.79152" lon="4.60825">
        <ele>426</ele>
        <time>2023-06-14T15:11:31.507Z</time>
      </trkpt>
      <trkpt lat="44.79149" lon="4.60827">
        <ele>426.1</ele>
        <time>2023-06-14T15:11:32.982Z</time>
      </trkpt>
      <trkpt lat="44.79132" lon="4.60834">
        <ele>426.9</ele>
        <time>2023-06-14T15:11:40.866Z</time>
      </trkpt>
      <trkpt lat="44.79115" lon="4.60834">
        <ele>428.3</ele>
        <time>2023-06-14T15:11:48.446Z</time>
      </trkpt>
      <trkpt lat="44.7911" lon="4.60832">
        <ele>428.9</ele>
        <time>2023-06-14T15:11:50.766Z</time>
      </trkpt>
      <trkpt lat="44.79104" lon="4.6083">
        <ele>429.6</ele>
        <time>2023-06-14T15:11:53.526Z</time>
      </trkpt>
      <trkpt lat="44.791" lon="4.60828">
        <ele>430.1</ele>
        <time>2023-06-14T15:11:55.426Z</time>
      </trkpt>
      <trkpt lat="44.79094" lon="4.60825">
        <ele>431.1</ele>
        <time>2023-06-14T15:11:58.275Z</time>
      </trkpt>
      <trkpt lat="44.79092" lon="4.60823">
        <ele>431.4</ele>
        <time>2023-06-14T15:11:59.375Z</time>
      </trkpt>
      <trkpt lat="44.79087" lon="4.60821">
        <ele>432.1</ele>
        <time>2023-06-14T15:12:01.703Z</time>
      </trkpt>
      <trkpt lat="44.79083" lon="4.60818">
        <ele>432.7</ele>
        <time>2023-06-14T15:12:03.736Z</time>
      </trkpt>
      <trkpt lat="44.79069" lon="4.60809">
        <ele>433.8</ele>
        <time>2023-06-14T15:12:10.590Z</time>
      </trkpt>
      <trkpt lat="44.79064" lon="4.60805">
        <ele>434.3</ele>
        <time>2023-06-14T15:12:13.156Z</time>
      </trkpt>
      <trkpt lat="44.79053" lon="4.60797">
        <ele>435.6</ele>
        <time>2023-06-14T15:12:18.683Z</time>
      </trkpt>
      <trkpt lat="44.7904" lon="4.60785">
        <ele>437.9</ele>
        <time>2023-06-14T15:12:25.655Z</time>
      </trkpt>
      <trkpt lat="44.79039" lon="4.60784">
        <ele>438.1</ele>
        <time>2023-06-14T15:12:26.207Z</time>
      </trkpt>
      <trkpt lat="44.79034" lon="4.6078">
        <ele>439</ele>
        <time>2023-06-14T15:12:28.790Z</time>
      </trkpt>
      <trkpt lat="44.79031" lon="4.60777">
        <ele>439.8</ele>
        <time>2023-06-14T15:12:30.460Z</time>
      </trkpt>
      <trkpt lat="44.79028" lon="4.60776">
        <ele>440</ele>
        <time>2023-06-14T15:12:31.833Z</time>
      </trkpt>
      <trkpt lat="44.79027" lon="4.60775">
        <ele>440.3</ele>
        <time>2023-06-14T15:12:32.387Z</time>
      </trkpt>
      <trkpt lat="44.79016" lon="4.60773">
        <ele>441.3</ele>
        <time>2023-06-14T15:12:37.337Z</time>
      </trkpt>
      <trkpt lat="44.79008" lon="4.60779">
        <ele>440.4</ele>
        <time>2023-06-14T15:12:41.389Z</time>
      </trkpt>
      <trkpt lat="44.79005" lon="4.60783">
        <ele>439.8</ele>
        <time>2023-06-14T15:12:43.247Z</time>
      </trkpt>
      <trkpt lat="44.78998" lon="4.60789">
        <ele>438.6</ele>
        <time>2023-06-14T15:12:46.917Z</time>
      </trkpt>
      <trkpt lat="44.78997" lon="4.6079">
        <ele>438.6</ele>
        <time>2023-06-14T15:12:47.463Z</time>
      </trkpt>
      <trkpt lat="44.78994" lon="4.60793">
        <ele>437.8</ele>
        <time>2023-06-14T15:12:49.128Z</time>
      </trkpt>
      <trkpt lat="44.7899" lon="4.60795">
        <ele>437.6</ele>
        <time>2023-06-14T15:12:51.012Z</time>
      </trkpt>
      <trkpt lat="44.78989" lon="4.60795">
        <ele>437.7</ele>
        <time>2023-06-14T15:12:51.459Z</time>
      </trkpt>
      <trkpt lat="44.78982" lon="4.60798">
        <ele>437.1</ele>
        <time>2023-06-14T15:12:54.725Z</time>
      </trkpt>
      <trkpt lat="44.78979" lon="4.60799">
        <ele>437.1</ele>
        <time>2023-06-14T15:12:56.090Z</time>
      </trkpt>
      <trkpt lat="44.78969" lon="4.60795">
        <ele>438.1</ele>
        <time>2023-06-14T15:13:00.732Z</time>
      </trkpt>
      <trkpt lat="44.78965" lon="4.60794">
        <ele>438.4</ele>
        <time>2023-06-14T15:13:02.545Z</time>
      </trkpt>
      <trkpt lat="44.78957" lon="4.60792">
        <ele>438.8</ele>
        <time>2023-06-14T15:13:06.160Z</time>
      </trkpt>
      <trkpt lat="44.78956" lon="4.60792">
        <ele>438.8</ele>
        <time>2023-06-14T15:13:06.600Z</time>
      </trkpt>
      <trkpt lat="44.78949" lon="4.60794">
        <ele>438.7</ele>
        <time>2023-06-14T15:13:09.780Z</time>
      </trkpt>
      <trkpt lat="44.78945" lon="4.60796">
        <ele>438.4</ele>
        <time>2023-06-14T15:13:11.673Z</time>
      </trkpt>
      <trkpt lat="44.78937" lon="4.60804">
        <ele>437.6</ele>
        <time>2023-06-14T15:13:16.047Z</time>
      </trkpt>
      <trkpt lat="44.78929" lon="4.60813">
        <ele>436.7</ele>
        <time>2023-06-14T15:13:20.612Z</time>
      </trkpt>
      <trkpt lat="44.78926" lon="4.60816">
        <ele>436.5</ele>
        <time>2023-06-14T15:13:22.250Z</time>
      </trkpt>
      <trkpt lat="44.78925" lon="4.60818">
        <ele>436.2</ele>
        <time>2023-06-14T15:13:23.030Z</time>
      </trkpt>
      <trkpt lat="44.78921" lon="4.60822">
        <ele>436</ele>
        <time>2023-06-14T15:13:25.210Z</time>
      </trkpt>
      <trkpt lat="44.78916" lon="4.60826">
        <ele>436</ele>
        <time>2023-06-14T15:13:27.773Z</time>
      </trkpt>
      <trkpt lat="44.78914" lon="4.60828">
        <ele>436.1</ele>
        <time>2023-06-14T15:13:28.862Z</time>
      </trkpt>
      <trkpt lat="44.78911" lon="4.60831">
        <ele>436.3</ele>
        <time>2023-06-14T15:13:30.502Z</time>
      </trkpt>
      <trkpt lat="44.78907" lon="4.60834">
        <ele>436.8</ele>
        <time>2023-06-14T15:13:32.522Z</time>
      </trkpt>
      <trkpt lat="44.78905" lon="4.60836">
        <ele>436.8</ele>
        <time>2023-06-14T15:13:33.616Z</time>
      </trkpt>
      <trkpt lat="44.78898" lon="4.60839">
        <ele>437.7</ele>
        <time>2023-06-14T15:13:36.886Z</time>
      </trkpt>
      <trkpt lat="44.78897" lon="4.6084">
        <ele>437.7</ele>
        <time>2023-06-14T15:13:37.435Z</time>
      </trkpt>
      <trkpt lat="44.78888" lon="4.6085">
        <ele>438.2</ele>
        <time>2023-06-14T15:13:42.534Z</time>
      </trkpt>
      <trkpt lat="44.78881" lon="4.60863">
        <ele>437.8</ele>
        <time>2023-06-14T15:13:47.686Z</time>
      </trkpt>
      <trkpt lat="44.78877" lon="4.60871">
        <ele>437.6</ele>
        <time>2023-06-14T15:13:50.778Z</time>
      </trkpt>
      <trkpt lat="44.78876" lon="4.60873">
        <ele>437.6</ele>
        <time>2023-06-14T15:13:51.550Z</time>
      </trkpt>
      <trkpt lat="44.78874" lon="4.60878">
        <ele>437.4</ele>
        <time>2023-06-14T15:13:53.366Z</time>
      </trkpt>
      <trkpt lat="44.7887" lon="4.60883">
        <ele>437.7</ele>
        <time>2023-06-14T15:13:55.748Z</time>
      </trkpt>
      <trkpt lat="44.78869" lon="4.60887">
        <ele>437.4</ele>
        <time>2023-06-14T15:13:57.085Z</time>
      </trkpt>
      <trkpt lat="44.78867" lon="4.60902">
        <ele>436.2</ele>
        <time>2023-06-14T15:14:01.930Z</time>
      </trkpt>
      <trkpt lat="44.78862" lon="4.60919">
        <ele>435.6</ele>
        <time>2023-06-14T15:14:07.742Z</time>
      </trkpt>
      <trkpt lat="44.78857" lon="4.6093">
        <ele>435.4</ele>
        <time>2023-06-14T15:14:11.864Z</time>
      </trkpt>
      <trkpt lat="44.78857" lon="4.60933">
        <ele>435</ele>
        <time>2023-06-14T15:14:12.821Z</time>
      </trkpt>
      <trkpt lat="44.78851" lon="4.60946">
        <ele>435.2</ele>
        <time>2023-06-14T15:14:17.719Z</time>
      </trkpt>
      <trkpt lat="44.7885" lon="4.6095">
        <ele>435.2</ele>
        <time>2023-06-14T15:14:19.060Z</time>
      </trkpt>
      <trkpt lat="44.78846" lon="4.60964">
        <ele>434.8</ele>
        <time>2023-06-14T15:14:23.823Z</time>
      </trkpt>
      <trkpt lat="44.7884" lon="4.60979">
        <ele>435.3</ele>
        <time>2023-06-14T15:14:29.257Z</time>
      </trkpt>
      <trkpt lat="44.78836" lon="4.60991">
        <ele>435.8</ele>
        <time>2023-06-14T15:14:33.447Z</time>
      </trkpt>
      <trkpt lat="44.78834" lon="4.61">
        <ele>435.7</ele>
        <time>2023-06-14T15:14:36.424Z</time>
      </trkpt>
      <trkpt lat="44.78833" lon="4.61007">
        <ele>435.4</ele>
        <time>2023-06-14T15:14:38.683Z</time>
      </trkpt>
      <trkpt lat="44.78831" lon="4.61013">
        <ele>435.5</ele>
        <time>2023-06-14T15:14:40.775Z</time>
      </trkpt>
      <trkpt lat="44.78828" lon="4.6102">
        <ele>436</ele>
        <time>2023-06-14T15:14:43.360Z</time>
      </trkpt>
      <trkpt lat="44.78825" lon="4.61033">
        <ele>435.7</ele>
        <time>2023-06-14T15:14:47.678Z</time>
      </trkpt>
      <trkpt lat="44.78823" lon="4.61037">
        <ele>436.1</ele>
        <time>2023-06-14T15:14:49.225Z</time>
      </trkpt>
      <trkpt lat="44.78821" lon="4.61051">
        <ele>435.4</ele>
        <time>2023-06-14T15:14:53.739Z</time>
      </trkpt>
      <trkpt lat="44.78821" lon="4.61053">
        <ele>435.3</ele>
        <time>2023-06-14T15:14:54.377Z</time>
      </trkpt>
      <trkpt lat="44.78816" lon="4.61062">
        <ele>436.2</ele>
        <time>2023-06-14T15:14:58.003Z</time>
      </trkpt>
      <trkpt lat="44.78815" lon="4.61065">
        <ele>436.2</ele>
        <time>2023-06-14T15:14:59.048Z</time>
      </trkpt>
      <trkpt lat="44.78811" lon="4.61075">
        <ele>436.8</ele>
        <time>2023-06-14T15:15:02.677Z</time>
      </trkpt>
      <trkpt lat="44.7881" lon="4.6108">
        <ele>436.6</ele>
        <time>2023-06-14T15:15:04.317Z</time>
      </trkpt>
      <trkpt lat="44.78806" lon="4.61086">
        <ele>437.6</ele>
        <time>2023-06-14T15:15:06.944Z</time>
      </trkpt>
      <trkpt lat="44.78804" lon="4.61088">
        <ele>438.2</ele>
        <time>2023-06-14T15:15:08.071Z</time>
      </trkpt>
      <trkpt lat="44.78799" lon="4.61092">
        <ele>439.8</ele>
        <time>2023-06-14T15:15:10.696Z</time>
      </trkpt>
      <trkpt lat="44.78791" lon="4.61097">
        <ele>442.3</ele>
        <time>2023-06-14T15:15:14.721Z</time>
      </trkpt>
      <trkpt lat="44.78788" lon="4.61099">
        <ele>443.2</ele>
        <time>2023-06-14T15:15:16.235Z</time>
      </trkpt>
      <trkpt lat="44.78785" lon="4.611">
        <ele>444.3</ele>
        <time>2023-06-14T15:15:17.675Z</time>
      </trkpt>
      <trkpt lat="44.78777" lon="4.61104">
        <ele>446.7</ele>
        <time>2023-06-14T15:15:21.572Z</time>
      </trkpt>
      <trkpt lat="44.78776" lon="4.61103">
        <ele>447.2</ele>
        <time>2023-06-14T15:15:22.160Z</time>
      </trkpt>
      <trkpt lat="44.78763" lon="4.61104">
        <ele>451.9</ele>
        <time>2023-06-14T15:15:28.241Z</time>
      </trkpt>
      <trkpt lat="44.78755" lon="4.61104">
        <ele>454.8</ele>
        <time>2023-06-14T15:15:31.989Z</time>
      </trkpt>
      <trkpt lat="44.78751" lon="4.61105">
        <ele>456.4</ele>
        <time>2023-06-14T15:15:33.898Z</time>
      </trkpt>
      <trkpt lat="44.7875" lon="4.61105">
        <ele>456.8</ele>
        <time>2023-06-14T15:15:34.368Z</time>
      </trkpt>
      <trkpt lat="44.78736" lon="4.61107">
        <ele>459.3</ele>
        <time>2023-06-14T15:15:40.710Z</time>
      </trkpt>
      <trkpt lat="44.78734" lon="4.61108">
        <ele>459.6</ele>
        <time>2023-06-14T15:15:41.656Z</time>
      </trkpt>
      <trkpt lat="44.78723" lon="4.61113">
        <ele>461.4</ele>
        <time>2023-06-14T15:15:46.846Z</time>
      </trkpt>
      <trkpt lat="44.78718" lon="4.61113">
        <ele>462.4</ele>
        <time>2023-06-14T15:15:49.114Z</time>
      </trkpt>
      <trkpt lat="44.78712" lon="4.61116">
        <ele>463.2</ele>
        <time>2023-06-14T15:15:51.961Z</time>
      </trkpt>
      <trkpt lat="44.78699" lon="4.61117">
        <ele>465.8</ele>
        <time>2023-06-14T15:15:57.844Z</time>
      </trkpt>
      <trkpt lat="44.78688" lon="4.61118">
        <ele>468.2</ele>
        <time>2023-06-14T15:16:02.840Z</time>
      </trkpt>
      <trkpt lat="44.78682" lon="4.61119">
        <ele>469.4</ele>
        <time>2023-06-14T15:16:05.569Z</time>
      </trkpt>
      <trkpt lat="44.78669" lon="4.61123">
        <ele>471.8</ele>
        <time>2023-06-14T15:16:11.565Z</time>
      </trkpt>
      <trkpt lat="44.78659" lon="4.61123">
        <ele>472.7</ele>
        <time>2023-06-14T15:16:16.022Z</time>
      </trkpt>
      <trkpt lat="44.7865" lon="4.61124">
        <ele>473</ele>
        <time>2023-06-14T15:16:20.040Z</time>
      </trkpt>
      <trkpt lat="44.78632" lon="4.61127">
        <ele>473.8</ele>
        <time>2023-06-14T15:16:28.107Z</time>
      </trkpt>
      <trkpt lat="44.78625" lon="4.61128">
        <ele>474</ele>
        <time>2023-06-14T15:16:31.234Z</time>
      </trkpt>
      <trkpt lat="44.78618" lon="4.61129">
        <ele>474.3</ele>
        <time>2023-06-14T15:16:34.368Z</time>
      </trkpt>
      <trkpt lat="44.78616" lon="4.61129">
        <ele>474.5</ele>
        <time>2023-06-14T15:16:35.256Z</time>
      </trkpt>
      <trkpt lat="44.78595" lon="4.61133">
        <ele>475.5</ele>
        <time>2023-06-14T15:16:44.691Z</time>
      </trkpt>
      <trkpt lat="44.78584" lon="4.61136">
        <ele>476.1</ele>
        <time>2023-06-14T15:16:49.678Z</time>
      </trkpt>
      <trkpt lat="44.7858" lon="4.61138">
        <ele>476.1</ele>
        <time>2023-06-14T15:16:51.568Z</time>
      </trkpt>
      <trkpt lat="44.78576" lon="4.61139">
        <ele>476.1</ele>
        <time>2023-06-14T15:16:53.370Z</time>
      </trkpt>
      <trkpt lat="44.78568" lon="4.61141">
        <ele>476.1</ele>
        <time>2023-06-14T15:16:56.989Z</time>
      </trkpt>
      <trkpt lat="44.78564" lon="4.61142">
        <ele>476.1</ele>
        <time>2023-06-14T15:16:58.791Z</time>
      </trkpt>
      <trkpt lat="44.78555" lon="4.61147">
        <ele>476.1</ele>
        <time>2023-06-14T15:17:03.094Z</time>
      </trkpt>
      <trkpt lat="44.78549" lon="4.61148">
        <ele>476.2</ele>
        <time>2023-06-14T15:17:05.781Z</time>
      </trkpt>
      <trkpt lat="44.78538" lon="4.61149">
        <ele>476.4</ele>
        <time>2023-06-14T15:17:10.682Z</time>
      </trkpt>
      <trkpt lat="44.78534" lon="4.61149">
        <ele>476.4</ele>
        <time>2023-06-14T15:17:12.464Z</time>
      </trkpt>
      <trkpt lat="44.78524" lon="4.61144">
        <ele>476.7</ele>
        <time>2023-06-14T15:17:17.179Z</time>
      </trkpt>
      <trkpt lat="44.78522" lon="4.61144">
        <ele>476.7</ele>
        <time>2023-06-14T15:17:18.074Z</time>
      </trkpt>
      <trkpt lat="44.78509" lon="4.61142">
        <ele>476.9</ele>
        <time>2023-06-14T15:17:23.886Z</time>
      </trkpt>
      <trkpt lat="44.78501" lon="4.6114">
        <ele>477</ele>
        <time>2023-06-14T15:17:27.499Z</time>
      </trkpt>
      <trkpt lat="44.78495" lon="4.6114">
        <ele>477</ele>
        <time>2023-06-14T15:17:30.168Z</time>
      </trkpt>
      <trkpt lat="44.78489" lon="4.61137">
        <ele>477.1</ele>
        <time>2023-06-14T15:17:32.998Z</time>
      </trkpt>
      <trkpt lat="44.78487" lon="4.61135">
        <ele>477.1</ele>
        <time>2023-06-14T15:17:34.089Z</time>
      </trkpt>
      <trkpt lat="44.78486" lon="4.61133">
        <ele>477.1</ele>
        <time>2023-06-14T15:17:34.861Z</time>
      </trkpt>
      <trkpt lat="44.78487" lon="4.61128">
        <ele>477</ele>
        <time>2023-06-14T15:17:36.500Z</time>
      </trkpt>
      <trkpt lat="44.78491" lon="4.61123">
        <ele>477</ele>
        <time>2023-06-14T15:17:38.878Z</time>
      </trkpt>
      <trkpt lat="44.78493" lon="4.6112">
        <ele>477</ele>
        <time>2023-06-14T15:17:40.175Z</time>
      </trkpt>
      <trkpt lat="44.78494" lon="4.61111">
        <ele>477</ele>
        <time>2023-06-14T15:17:43.046Z</time>
      </trkpt>
      <trkpt lat="44.78494" lon="4.61109">
        <ele>476.9</ele>
        <time>2023-06-14T15:17:43.681Z</time>
      </trkpt>
      <trkpt lat="44.78491" lon="4.61107">
        <ele>476.9</ele>
        <time>2023-06-14T15:17:45.157Z</time>
      </trkpt>
      <trkpt lat="44.78489" lon="4.61107">
        <ele>476.9</ele>
        <time>2023-06-14T15:17:46.044Z</time>
      </trkpt>
      <trkpt lat="44.78486" lon="4.61109">
        <ele>476.9</ele>
        <time>2023-06-14T15:17:47.520Z</time>
      </trkpt>
      <trkpt lat="44.78477" lon="4.61114">
        <ele>476.8</ele>
        <time>2023-06-14T15:17:51.824Z</time>
      </trkpt>
      <trkpt lat="44.78473" lon="4.61116">
        <ele>476.9</ele>
        <time>2023-06-14T15:17:53.714Z</time>
      </trkpt>
      <trkpt lat="44.78471" lon="4.61116">
        <ele>476.8</ele>
        <time>2023-06-14T15:17:54.601Z</time>
      </trkpt>
      <trkpt lat="44.78468" lon="4.61115">
        <ele>476.8</ele>
        <time>2023-06-14T15:17:55.972Z</time>
      </trkpt>
      <trkpt lat="44.78468" lon="4.61115">
        <ele>476.8</ele>
        <time>2023-06-14T15:17:55.972Z</time>
      </trkpt>
      <trkpt lat="44.78468" lon="4.61117">
        <ele>476.9</ele>
        <time>2023-06-14T15:17:56.602Z</time>
      </trkpt>
      <trkpt lat="44.78468" lon="4.61118">
        <ele>476.9</ele>
        <time>2023-06-14T15:17:56.920Z</time>
      </trkpt>
      <trkpt lat="44.78466" lon="4.61115">
        <ele>476.8</ele>
        <time>2023-06-14T15:17:58.217Z</time>
      </trkpt>
      <trkpt lat="44.78466" lon="4.61115">
        <ele>476.8</ele>
        <time>2023-06-14T15:17:58.217Z</time>
      </trkpt>
      <trkpt lat="44.78466" lon="4.61114">
        <ele>476.8</ele>
        <time>2023-06-14T15:17:58.530Z</time>
      </trkpt>
      <trkpt lat="44.78465" lon="4.61114">
        <ele>476.8</ele>
        <time>2023-06-14T15:17:58.977Z</time>
      </trkpt>
      <trkpt lat="44.78465" lon="4.61114">
        <ele>476.8</ele>
        <time>2023-06-14T15:17:58.977Z</time>
      </trkpt>
      <trkpt lat="44.78464" lon="4.61114">
        <ele>476.8</ele>
        <time>2023-06-14T15:17:59.417Z</time>
      </trkpt>
      <trkpt lat="44.78463" lon="4.61115">
        <ele>476.8</ele>
        <time>2023-06-14T15:17:59.962Z</time>
      </trkpt>
      <trkpt lat="44.78463" lon="4.61115">
        <ele>476.8</ele>
        <time>2023-06-14T15:17:59.962Z</time>
      </trkpt>
      <trkpt lat="44.78464" lon="4.61115">
        <ele>476.8</ele>
        <time>2023-06-14T15:18:00.410Z</time>
      </trkpt>
      <trkpt lat="44.78464" lon="4.61114">
        <ele>476.8</ele>
        <time>2023-06-14T15:18:00.722Z</time>
      </trkpt>
      <trkpt lat="44.78462" lon="4.61113">
        <ele>476.7</ele>
        <time>2023-06-14T15:18:01.671Z</time>
      </trkpt>
      <trkpt lat="44.78462" lon="4.61112">
        <ele>476.7</ele>
        <time>2023-06-14T15:18:01.989Z</time>
      </trkpt>
      <trkpt lat="44.78462" lon="4.61111">
        <ele>476.7</ele>
        <time>2023-06-14T15:18:02.301Z</time>
      </trkpt>
      <trkpt lat="44.78461" lon="4.61111">
        <ele>476.7</ele>
        <time>2023-06-14T15:18:02.741Z</time>
      </trkpt>
      <trkpt lat="44.78463" lon="4.61117">
        <ele>476.8</ele>
        <time>2023-06-14T15:18:04.829Z</time>
      </trkpt>
      <trkpt lat="44.78466" lon="4.6112">
        <ele>476.9</ele>
        <time>2023-06-14T15:18:06.465Z</time>
      </trkpt>
      <trkpt lat="44.78465" lon="4.61118">
        <ele>476.8</ele>
        <time>2023-06-14T15:18:07.238Z</time>
      </trkpt>
      <trkpt lat="44.78465" lon="4.61118">
        <ele>476.8</ele>
        <time>2023-06-14T15:18:07.238Z</time>
      </trkpt>
      <trkpt lat="44.78465" lon="4.61118">
        <ele>476.8</ele>
        <time>2023-06-14T15:18:07.238Z</time>
      </trkpt>
      <trkpt lat="44.78465" lon="4.61117">
        <ele>476.8</ele>
        <time>2023-06-14T15:18:07.555Z</time>
      </trkpt>
      <trkpt lat="44.78465" lon="4.61117">
        <ele>476.8</ele>
        <time>2023-06-14T15:18:07.555Z</time>
      </trkpt>
      <trkpt lat="44.78465" lon="4.61117">
        <ele>476.8</ele>
        <time>2023-06-14T15:18:07.555Z</time>
      </trkpt>
      <trkpt lat="44.78465" lon="4.61117">
        <ele>476.8</ele>
        <time>2023-06-14T15:18:07.555Z</time>
      </trkpt>
      <trkpt lat="44.78465" lon="4.61117">
        <ele>476.8</ele>
        <time>2023-06-14T15:18:07.555Z</time>
      </trkpt>
      <trkpt lat="44.78466" lon="4.61117">
        <ele>476.8</ele>
        <time>2023-06-14T15:18:08.003Z</time>
      </trkpt>
      <trkpt lat="44.78469" lon="4.61121">
        <ele>476.9</ele>
        <time>2023-06-14T15:18:09.841Z</time>
      </trkpt>
      <trkpt lat="44.78468" lon="4.61121">
        <ele>476.9</ele>
        <time>2023-06-14T15:18:10.288Z</time>
      </trkpt>
      <trkpt lat="44.78467" lon="4.61121">
        <ele>476.9</ele>
        <time>2023-06-14T15:18:10.728Z</time>
      </trkpt>
      <trkpt lat="44.78466" lon="4.61122">
        <ele>476.9</ele>
        <time>2023-06-14T15:18:11.277Z</time>
      </trkpt>
      <trkpt lat="44.78467" lon="4.61122">
        <ele>476.9</ele>
        <time>2023-06-14T15:18:11.724Z</time>
      </trkpt>
      <trkpt lat="44.78469" lon="4.61121">
        <ele>476.9</ele>
        <time>2023-06-14T15:18:12.666Z</time>
      </trkpt>
      <trkpt lat="44.78478" lon="4.61114">
        <ele>476.9</ele>
        <time>2023-06-14T15:18:17.237Z</time>
      </trkpt>
      <trkpt lat="44.78481" lon="4.6111">
        <ele>476.8</ele>
        <time>2023-06-14T15:18:19.075Z</time>
      </trkpt>
      <trkpt lat="44.78486" lon="4.6111">
        <ele>476.9</ele>
        <time>2023-06-14T15:18:21.297Z</time>
      </trkpt>
      <trkpt lat="44.78488" lon="4.61111">
        <ele>476.9</ele>
        <time>2023-06-14T15:18:22.239Z</time>
      </trkpt>
      <trkpt lat="44.78489" lon="4.61112">
        <ele>476.9</ele>
        <time>2023-06-14T15:18:22.785Z</time>
      </trkpt>
      <trkpt lat="44.7849" lon="4.61114">
        <ele>476.9</ele>
        <time>2023-06-14T15:18:23.562Z</time>
      </trkpt>
      <trkpt lat="44.7849" lon="4.61116">
        <ele>476.9</ele>
        <time>2023-06-14T15:18:24.191Z</time>
      </trkpt>
      <trkpt lat="44.78489" lon="4.61119">
        <ele>477</ele>
        <time>2023-06-14T15:18:25.239Z</time>
      </trkpt>
      <trkpt lat="44.78485" lon="4.61125">
        <ele>477</ele>
        <time>2023-06-14T15:18:27.839Z</time>
      </trkpt>
      <trkpt lat="44.78484" lon="4.61131">
        <ele>477</ele>
        <time>2023-06-14T15:18:29.784Z</time>
      </trkpt>
      <trkpt lat="44.78484" lon="4.61135">
        <ele>477.1</ele>
        <time>2023-06-14T15:18:31.043Z</time>
      </trkpt>
      <trkpt lat="44.78485" lon="4.61136">
        <ele>477.1</ele>
        <time>2023-06-14T15:18:31.586Z</time>
      </trkpt>
      <trkpt lat="44.78485" lon="4.61137">
        <ele>477.1</ele>
        <time>2023-06-14T15:18:31.903Z</time>
      </trkpt>
      <trkpt lat="44.78488" lon="4.61139">
        <ele>477.1</ele>
        <time>2023-06-14T15:18:33.379Z</time>
      </trkpt>
      <trkpt lat="44.7849" lon="4.6114">
        <ele>477.1</ele>
        <time>2023-06-14T15:18:34.326Z</time>
      </trkpt>
      <trkpt lat="44.78493" lon="4.61142">
        <ele>477.1</ele>
        <time>2023-06-14T15:18:35.797Z</time>
      </trkpt>
      <trkpt lat="44.78494" lon="4.61142">
        <ele>477.1</ele>
        <time>2023-06-14T15:18:36.245Z</time>
      </trkpt>
      <trkpt lat="44.78497" lon="4.61143">
        <ele>477</ele>
        <time>2023-06-14T15:18:37.615Z</time>
      </trkpt>
      <trkpt lat="44.78501" lon="4.61144">
        <ele>477</ele>
        <time>2023-06-14T15:18:39.425Z</time>
      </trkpt>
      <trkpt lat="44.78507" lon="4.61149">
        <ele>476.9</ele>
        <time>2023-06-14T15:18:42.525Z</time>
      </trkpt>
      <trkpt lat="44.78507" lon="4.61151">
        <ele>476.9</ele>
        <time>2023-06-14T15:18:43.160Z</time>
      </trkpt>
      <trkpt lat="44.78508" lon="4.61158">
        <ele>476.8</ele>
        <time>2023-06-14T15:18:45.410Z</time>
      </trkpt>
      <trkpt lat="44.78509" lon="4.61171">
        <ele>476.6</ele>
        <time>2023-06-14T15:18:49.542Z</time>
      </trkpt>
      <trkpt lat="44.78508" lon="4.61191">
        <ele>475.5</ele>
        <time>2023-06-14T15:18:55.883Z</time>
      </trkpt>
      <trkpt lat="44.78506" lon="4.61203">
        <ele>474.9</ele>
        <time>2023-06-14T15:18:59.782Z</time>
      </trkpt>
      <trkpt lat="44.78503" lon="4.61217">
        <ele>474.4</ele>
        <time>2023-06-14T15:19:04.401Z</time>
      </trkpt>
      <trkpt lat="44.785" lon="4.61231">
        <ele>473.9</ele>
        <time>2023-06-14T15:19:09.020Z</time>
      </trkpt>
      <trkpt lat="44.785" lon="4.61233">
        <ele>473.8</ele>
        <time>2023-06-14T15:19:09.652Z</time>
      </trkpt>
      <trkpt lat="44.78498" lon="4.6124">
        <ele>473.6</ele>
        <time>2023-06-14T15:19:12.036Z</time>
      </trkpt>
      <trkpt lat="44.78496" lon="4.61245">
        <ele>473.6</ele>
        <time>2023-06-14T15:19:13.849Z</time>
      </trkpt>
      <trkpt lat="44.78495" lon="4.61251">
        <ele>473.4</ele>
        <time>2023-06-14T15:19:15.795Z</time>
      </trkpt>
      <trkpt lat="44.78492" lon="4.61262">
        <ele>472.6</ele>
        <time>2023-06-14T15:19:19.527Z</time>
      </trkpt>
      <trkpt lat="44.78487" lon="4.61277">
        <ele>471.8</ele>
        <time>2023-06-14T15:19:24.767Z</time>
      </trkpt>
      <trkpt lat="44.78482" lon="4.61295">
        <ele>470.8</ele>
        <time>2023-06-14T15:19:30.884Z</time>
      </trkpt>
      <trkpt lat="44.78477" lon="4.61311">
        <ele>470</ele>
        <time>2023-06-14T15:19:36.408Z</time>
      </trkpt>
      <trkpt lat="44.78477" lon="4.61313">
        <ele>469.9</ele>
        <time>2023-06-14T15:19:37.039Z</time>
      </trkpt>
      <trkpt lat="44.78474" lon="4.61319">
        <ele>469.9</ele>
        <time>2023-06-14T15:19:39.356Z</time>
      </trkpt>
      <trkpt lat="44.78473" lon="4.61324">
        <ele>469.7</ele>
        <time>2023-06-14T15:19:41.002Z</time>
      </trkpt>
      <trkpt lat="44.78471" lon="4.61331">
        <ele>469.4</ele>
        <time>2023-06-14T15:19:43.383Z</time>
      </trkpt>
      <trkpt lat="44.78468" lon="4.6134">
        <ele>468.5</ele>
        <time>2023-06-14T15:19:46.539Z</time>
      </trkpt>
      <trkpt lat="44.78462" lon="4.61356">
        <ele>467.1</ele>
        <time>2023-06-14T15:19:52.278Z</time>
      </trkpt>
      <trkpt lat="44.78455" lon="4.61379">
        <ele>465.2</ele>
        <time>2023-06-14T15:20:00.213Z</time>
      </trkpt>
      <trkpt lat="44.78452" lon="4.61389">
        <ele>464.6</ele>
        <time>2023-06-14T15:20:03.649Z</time>
      </trkpt>
      <trkpt lat="44.78449" lon="4.61412">
        <ele>462.3</ele>
        <time>2023-06-14T15:20:11.088Z</time>
      </trkpt>
      <trkpt lat="44.78448" lon="4.61432">
        <ele>460.6</ele>
        <time>2023-06-14T15:20:17.451Z</time>
      </trkpt>
      <trkpt lat="44.78448" lon="4.61441">
        <ele>459.8</ele>
        <time>2023-06-14T15:20:20.310Z</time>
      </trkpt>
      <trkpt lat="44.78448" lon="4.61472">
        <ele>457</ele>
        <time>2023-06-14T15:20:30.156Z</time>
      </trkpt>
      <trkpt lat="44.78443" lon="4.61496">
        <ele>456.9</ele>
        <time>2023-06-14T15:20:38.052Z</time>
      </trkpt>
      <trkpt lat="44.78441" lon="4.61512">
        <ele>456.5</ele>
        <time>2023-06-14T15:20:43.180Z</time>
      </trkpt>
      <trkpt lat="44.78436" lon="4.61533">
        <ele>456.9</ele>
        <time>2023-06-14T15:20:50.176Z</time>
      </trkpt>
      <trkpt lat="44.78435" lon="4.61536">
        <ele>457.1</ele>
        <time>2023-06-14T15:20:51.224Z</time>
      </trkpt>
      <trkpt lat="44.78435" lon="4.61539">
        <ele>456.8</ele>
        <time>2023-06-14T15:20:52.177Z</time>
      </trkpt>
      <trkpt lat="44.78431" lon="4.61557">
        <ele>457.3</ele>
        <time>2023-06-14T15:20:58.135Z</time>
      </trkpt>
      <trkpt lat="44.78429" lon="4.61569">
        <ele>457.1</ele>
        <time>2023-06-14T15:21:02.022Z</time>
      </trkpt>
      <trkpt lat="44.78424" lon="4.61579">
        <ele>458.4</ele>
        <time>2023-06-14T15:21:05.921Z</time>
      </trkpt>
      <trkpt lat="44.7842" lon="4.61595">
        <ele>459.3</ele>
        <time>2023-06-14T15:21:11.285Z</time>
      </trkpt>
      <trkpt lat="44.78416" lon="4.61607">
        <ele>460.6</ele>
        <time>2023-06-14T15:21:15.499Z</time>
      </trkpt>
      <trkpt lat="44.78414" lon="4.61613">
        <ele>460.8</ele>
        <time>2023-06-14T15:21:17.593Z</time>
      </trkpt>
      <trkpt lat="44.78405" lon="4.61634">
        <ele>461.7</ele>
        <time>2023-06-14T15:21:25.347Z</time>
      </trkpt>
      <trkpt lat="44.78401" lon="4.61644">
        <ele>462.1</ele>
        <time>2023-06-14T15:21:28.971Z</time>
      </trkpt>
      <trkpt lat="44.78398" lon="4.61656">
        <ele>462.1</ele>
        <time>2023-06-14T15:21:32.986Z</time>
      </trkpt>
      <trkpt lat="44.78397" lon="4.61669">
        <ele>461.9</ele>
        <time>2023-06-14T15:21:37.117Z</time>
      </trkpt>
      <trkpt lat="44.78397" lon="4.61676">
        <ele>462.6</ele>
        <time>2023-06-14T15:21:39.338Z</time>
      </trkpt>
      <trkpt lat="44.78402" lon="4.61709">
        <ele>464.8</ele>
        <time>2023-06-14T15:21:50.029Z</time>
      </trkpt>
      <trkpt lat="44.78403" lon="4.61715">
        <ele>465.3</ele>
        <time>2023-06-14T15:21:51.985Z</time>
      </trkpt>
      <trkpt lat="44.78404" lon="4.61722">
        <ele>465.8</ele>
        <time>2023-06-14T15:21:54.245Z</time>
      </trkpt>
      <trkpt lat="44.78405" lon="4.61728">
        <ele>466.4</ele>
        <time>2023-06-14T15:21:56.202Z</time>
      </trkpt>
      <trkpt lat="44.78412" lon="4.61749">
        <ele>468</ele>
        <time>2023-06-14T15:22:03.558Z</time>
      </trkpt>
      <trkpt lat="44.78421" lon="4.61774">
        <ele>469.9</ele>
        <time>2023-06-14T15:22:12.436Z</time>
      </trkpt>
      <trkpt lat="44.78428" lon="4.61794">
        <ele>471</ele>
        <time>2023-06-14T15:22:19.487Z</time>
      </trkpt>
      <trkpt lat="44.78429" lon="4.61797">
        <ele>471.4</ele>
        <time>2023-06-14T15:22:20.542Z</time>
      </trkpt>
      <trkpt lat="44.78432" lon="4.61803">
        <ele>471.5</ele>
        <time>2023-06-14T15:22:22.860Z</time>
      </trkpt>
      <trkpt lat="44.78434" lon="4.61808">
        <ele>471.8</ele>
        <time>2023-06-14T15:22:24.673Z</time>
      </trkpt>
      <trkpt lat="44.78435" lon="4.6181">
        <ele>472</ele>
        <time>2023-06-14T15:22:25.453Z</time>
      </trkpt>
      <trkpt lat="44.78437" lon="4.61816">
        <ele>472.3</ele>
        <time>2023-06-14T15:22:27.545Z</time>
      </trkpt>
      <trkpt lat="44.78437" lon="4.61817">
        <ele>472.5</ele>
        <time>2023-06-14T15:22:27.870Z</time>
      </trkpt>
      <trkpt lat="44.78437" lon="4.61816">
        <ele>472.3</ele>
        <time>2023-06-14T15:22:28.195Z</time>
      </trkpt>
      <trkpt lat="44.78436" lon="4.61816">
        <ele>472.5</ele>
        <time>2023-06-14T15:22:28.647Z</time>
      </trkpt>
      <trkpt lat="44.78435" lon="4.61816">
        <ele>472.7</ele>
        <time>2023-06-14T15:22:29.092Z</time>
      </trkpt>
      <trkpt lat="44.78435" lon="4.61815">
        <ele>472.7</ele>
        <time>2023-06-14T15:22:29.404Z</time>
      </trkpt>
      <trkpt lat="44.78436" lon="4.61816">
        <ele>472.5</ele>
        <time>2023-06-14T15:22:29.947Z</time>
      </trkpt>
      <trkpt lat="44.78434" lon="4.61818">
        <ele>473.2</ele>
        <time>2023-06-14T15:22:31.071Z</time>
      </trkpt>
      <trkpt lat="44.78434" lon="4.61818">
        <ele>473.2</ele>
        <time>2023-06-14T15:22:31.071Z</time>
      </trkpt>
      <trkpt lat="44.78434" lon="4.61818">
        <ele>473.2</ele>
        <time>2023-06-14T15:22:31.071Z</time>
      </trkpt>
      <trkpt lat="44.78434" lon="4.61817">
        <ele>473</ele>
        <time>2023-06-14T15:22:31.396Z</time>
      </trkpt>
      <trkpt lat="44.78433" lon="4.61818">
        <ele>473.4</ele>
        <time>2023-06-14T15:22:31.966Z</time>
      </trkpt>
      <trkpt lat="44.78433" lon="4.61818">
        <ele>473.4</ele>
        <time>2023-06-14T15:22:31.966Z</time>
      </trkpt>
      <trkpt lat="44.78433" lon="4.61818">
        <ele>473.4</ele>
        <time>2023-06-14T15:22:31.966Z</time>
      </trkpt>
      <trkpt lat="44.78433" lon="4.61818">
        <ele>473.4</ele>
        <time>2023-06-14T15:22:31.966Z</time>
      </trkpt>
      <trkpt lat="44.78433" lon="4.61818">
        <ele>473.4</ele>
        <time>2023-06-14T15:22:31.966Z</time>
      </trkpt>
      <trkpt lat="44.78433" lon="4.61818">
        <ele>473.4</ele>
        <time>2023-06-14T15:22:31.966Z</time>
      </trkpt>
      <trkpt lat="44.78433" lon="4.61818">
        <ele>473.4</ele>
        <time>2023-06-14T15:22:31.966Z</time>
      </trkpt>
      <trkpt lat="44.78433" lon="4.61819">
        <ele>473.6</ele>
        <time>2023-06-14T15:22:32.286Z</time>
      </trkpt>
      <trkpt lat="44.78433" lon="4.61819">
        <ele>473.6</ele>
        <time>2023-06-14T15:22:32.286Z</time>
      </trkpt>
      <trkpt lat="44.78433" lon="4.61819">
        <ele>473.6</ele>
        <time>2023-06-14T15:22:32.286Z</time>
      </trkpt>
      <trkpt lat="44.78433" lon="4.61819">
        <ele>473.6</ele>
        <time>2023-06-14T15:22:32.286Z</time>
      </trkpt>
      <trkpt lat="44.78433" lon="4.61819">
        <ele>473.6</ele>
        <time>2023-06-14T15:22:32.286Z</time>
      </trkpt>
      <trkpt lat="44.78433" lon="4.61819">
        <ele>473.6</ele>
        <time>2023-06-14T15:22:32.286Z</time>
      </trkpt>
      <trkpt lat="44.78433" lon="4.61819">
        <ele>473.6</ele>
        <time>2023-06-14T15:22:32.286Z</time>
      </trkpt>
      <trkpt lat="44.78433" lon="4.61819">
        <ele>473.6</ele>
        <time>2023-06-14T15:22:32.286Z</time>
      </trkpt>
      <trkpt lat="44.78433" lon="4.61819">
        <ele>473.6</ele>
        <time>2023-06-14T15:22:32.286Z</time>
      </trkpt>
      <trkpt lat="44.78433" lon="4.61819">
        <ele>473.6</ele>
        <time>2023-06-14T15:22:32.286Z</time>
      </trkpt>
      <trkpt lat="44.78433" lon="4.61819">
        <ele>473.6</ele>
        <time>2023-06-14T15:22:32.286Z</time>
      </trkpt>
      <trkpt lat="44.78433" lon="4.61819">
        <ele>473.6</ele>
        <time>2023-06-14T15:22:32.286Z</time>
      </trkpt>
      <trkpt lat="44.78433" lon="4.61819">
        <ele>473.6</ele>
        <time>2023-06-14T15:22:32.286Z</time>
      </trkpt>
      <trkpt lat="44.78433" lon="4.61819">
        <ele>473.6</ele>
        <time>2023-06-14T15:22:32.286Z</time>
      </trkpt>
      <trkpt lat="44.78433" lon="4.61819">
        <ele>473.6</ele>
        <time>2023-06-14T15:22:32.286Z</time>
      </trkpt>
      <trkpt lat="44.78433" lon="4.61819">
        <ele>473.6</ele>
        <time>2023-06-14T15:22:32.286Z</time>
      </trkpt>
      <trkpt lat="44.78434" lon="4.61819">
        <ele>473.4</ele>
        <time>2023-06-14T15:22:32.742Z</time>
      </trkpt>
      <trkpt lat="44.78434" lon="4.61819">
        <ele>473.4</ele>
        <time>2023-06-14T15:22:32.742Z</time>
      </trkpt>
      <trkpt lat="44.78434" lon="4.61819">
        <ele>473.4</ele>
        <time>2023-06-14T15:22:32.742Z</time>
      </trkpt>
      <trkpt lat="44.78434" lon="4.61818">
        <ele>473.2</ele>
        <time>2023-06-14T15:22:33.061Z</time>
      </trkpt>
      <trkpt lat="44.78434" lon="4.61817">
        <ele>473</ele>
        <time>2023-06-14T15:22:33.386Z</time>
      </trkpt>
      <trkpt lat="44.78433" lon="4.61817">
        <ele>473.2</ele>
        <time>2023-06-14T15:22:33.842Z</time>
      </trkpt>
      <trkpt lat="44.78433" lon="4.61817">
        <ele>473.2</ele>
        <time>2023-06-14T15:22:33.842Z</time>
      </trkpt>
      <trkpt lat="44.78433" lon="4.61817">
        <ele>473.2</ele>
        <time>2023-06-14T15:22:33.842Z</time>
      </trkpt>
      <trkpt lat="44.78433" lon="4.61817">
        <ele>473.2</ele>
        <time>2023-06-14T15:22:33.842Z</time>
      </trkpt>
      <trkpt lat="44.78434" lon="4.61818">
        <ele>473.2</ele>
        <time>2023-06-14T15:22:34.391Z</time>
      </trkpt>
      <trkpt lat="44.78434" lon="4.61818">
        <ele>473.2</ele>
        <time>2023-06-14T15:22:34.391Z</time>
      </trkpt>
      <trkpt lat="44.78435" lon="4.61817">
        <ele>472.8</ele>
        <time>2023-06-14T15:22:34.956Z</time>
      </trkpt>
      <trkpt lat="44.78435" lon="4.61817">
        <ele>472.8</ele>
        <time>2023-06-14T15:22:34.956Z</time>
      </trkpt>
      <trkpt lat="44.78435" lon="4.61816">
        <ele>472.7</ele>
        <time>2023-06-14T15:22:35.281Z</time>
      </trkpt>
      <trkpt lat="44.78435" lon="4.61815">
        <ele>472.7</ele>
        <time>2023-06-14T15:22:35.593Z</time>
      </trkpt>
      <trkpt lat="44.78433" lon="4.61816">
        <ele>473.1</ele>
        <time>2023-06-14T15:22:36.553Z</time>
      </trkpt>
      <trkpt lat="44.78431" lon="4.61818">
        <ele>473.7</ele>
        <time>2023-06-14T15:22:37.676Z</time>
      </trkpt>
      <trkpt lat="44.7843" lon="4.61818">
        <ele>473.9</ele>
        <time>2023-06-14T15:22:38.128Z</time>
      </trkpt>
      <trkpt lat="44.78429" lon="4.6182">
        <ele>474.2</ele>
        <time>2023-06-14T15:22:38.907Z</time>
      </trkpt>
      <trkpt lat="44.78428" lon="4.6182">
        <ele>474.4</ele>
        <time>2023-06-14T15:22:39.359Z</time>
      </trkpt>
      <trkpt lat="44.78428" lon="4.61823">
        <ele>474.9</ele>
        <time>2023-06-14T15:22:40.327Z</time>
      </trkpt>
      <trkpt lat="44.78427" lon="4.61823">
        <ele>475</ele>
        <time>2023-06-14T15:22:40.779Z</time>
      </trkpt>
      <trkpt lat="44.78425" lon="4.61823">
        <ele>475.4</ele>
        <time>2023-06-14T15:22:41.675Z</time>
      </trkpt>
      <trkpt lat="44.78425" lon="4.61823">
        <ele>475.4</ele>
        <time>2023-06-14T15:22:41.675Z</time>
      </trkpt>
      <trkpt lat="44.78425" lon="4.61823">
        <ele>475.4</ele>
        <time>2023-06-14T15:22:41.675Z</time>
      </trkpt>
      <trkpt lat="44.78422" lon="4.61825">
        <ele>476</ele>
        <time>2023-06-14T15:22:43.173Z</time>
      </trkpt>
      <trkpt lat="44.78423" lon="4.61826">
        <ele>476</ele>
        <time>2023-06-14T15:22:43.721Z</time>
      </trkpt>
      <trkpt lat="44.78423" lon="4.61827">
        <ele>476.2</ele>
        <time>2023-06-14T15:22:44.045Z</time>
      </trkpt>
      <trkpt lat="44.7842" lon="4.6183">
        <ele>477</ele>
        <time>2023-06-14T15:22:45.712Z</time>
      </trkpt>
      <trkpt lat="44.78419" lon="4.6183">
        <ele>477.2</ele>
        <time>2023-06-14T15:22:46.167Z</time>
      </trkpt>
      <trkpt lat="44.7842" lon="4.6183">
        <ele>477</ele>
        <time>2023-06-14T15:22:46.622Z</time>
      </trkpt>
      <trkpt lat="44.7842" lon="4.6183">
        <ele>477</ele>
        <time>2023-06-14T15:22:46.622Z</time>
      </trkpt>
      <trkpt lat="44.7842" lon="4.6183">
        <ele>477</ele>
        <time>2023-06-14T15:22:46.622Z</time>
      </trkpt>
      <trkpt lat="44.7842" lon="4.6183">
        <ele>477</ele>
        <time>2023-06-14T15:22:46.622Z</time>
      </trkpt>
      <trkpt lat="44.7842" lon="4.61829">
        <ele>476.8</ele>
        <time>2023-06-14T15:22:46.945Z</time>
      </trkpt>
      <trkpt lat="44.78421" lon="4.61828">
        <ele>476.6</ele>
        <time>2023-06-14T15:22:47.497Z</time>
      </trkpt>
      <trkpt lat="44.7842" lon="4.61828">
        <ele>476.8</ele>
        <time>2023-06-14T15:22:47.949Z</time>
      </trkpt>
      <trkpt lat="44.7842" lon="4.61826">
        <ele>476.5</ele>
        <time>2023-06-14T15:22:48.591Z</time>
      </trkpt>
      <trkpt lat="44.78421" lon="4.61825">
        <ele>476.2</ele>
        <time>2023-06-14T15:22:49.154Z</time>
      </trkpt>
      <trkpt lat="44.78421" lon="4.61825">
        <ele>476.2</ele>
        <time>2023-06-14T15:22:49.154Z</time>
      </trkpt>
      <trkpt lat="44.78421" lon="4.61823">
        <ele>476</ele>
        <time>2023-06-14T15:22:49.787Z</time>
      </trkpt>
      <trkpt lat="44.78421" lon="4.61823">
        <ele>476</ele>
        <time>2023-06-14T15:22:49.787Z</time>
      </trkpt>
      <trkpt lat="44.78421" lon="4.61824">
        <ele>476</ele>
        <time>2023-06-14T15:22:50.105Z</time>
      </trkpt>
      <trkpt lat="44.78422" lon="4.61823">
        <ele>475.8</ele>
        <time>2023-06-14T15:22:50.651Z</time>
      </trkpt>
      <trkpt lat="44.78422" lon="4.61823">
        <ele>475.8</ele>
        <time>2023-06-14T15:22:50.651Z</time>
      </trkpt>
      <trkpt lat="44.78422" lon="4.61823">
        <ele>475.8</ele>
        <time>2023-06-14T15:22:50.651Z</time>
      </trkpt>
      <trkpt lat="44.78422" lon="4.61824">
        <ele>475.8</ele>
        <time>2023-06-14T15:22:50.968Z</time>
      </trkpt>
      <trkpt lat="44.78422" lon="4.61824">
        <ele>475.8</ele>
        <time>2023-06-14T15:22:50.968Z</time>
      </trkpt>
      <trkpt lat="44.78422" lon="4.61824">
        <ele>475.8</ele>
        <time>2023-06-14T15:22:50.968Z</time>
      </trkpt>
      <trkpt lat="44.78422" lon="4.61827">
        <ele>476.3</ele>
        <time>2023-06-14T15:22:51.935Z</time>
      </trkpt>
      <trkpt lat="44.78423" lon="4.61827">
        <ele>476.2</ele>
        <time>2023-06-14T15:22:52.387Z</time>
      </trkpt>
      <trkpt lat="44.78424" lon="4.61824">
        <ele>475.5</ele>
        <time>2023-06-14T15:22:53.462Z</time>
      </trkpt>
      <trkpt lat="44.78424" lon="4.61824">
        <ele>475.5</ele>
        <time>2023-06-14T15:22:53.462Z</time>
      </trkpt>
      <trkpt lat="44.78424" lon="4.61825">
        <ele>475.7</ele>
        <time>2023-06-14T15:22:53.782Z</time>
      </trkpt>
      <trkpt lat="44.78424" lon="4.61826">
        <ele>475.9</ele>
        <time>2023-06-14T15:22:54.106Z</time>
      </trkpt>
      <trkpt lat="44.78423" lon="4.61826">
        <ele>476</ele>
        <time>2023-06-14T15:22:54.550Z</time>
      </trkpt>
      <trkpt lat="44.78422" lon="4.61829">
        <ele>476.5</ele>
        <time>2023-06-14T15:22:55.615Z</time>
      </trkpt>
      <trkpt lat="44.78421" lon="4.61828">
        <ele>476.6</ele>
        <time>2023-06-14T15:22:56.161Z</time>
      </trkpt>
      <trkpt lat="44.78421" lon="4.61828">
        <ele>476.6</ele>
        <time>2023-06-14T15:22:56.161Z</time>
      </trkpt>
      <trkpt lat="44.78421" lon="4.61828">
        <ele>476.6</ele>
        <time>2023-06-14T15:22:56.161Z</time>
      </trkpt>
      <trkpt lat="44.78421" lon="4.61827">
        <ele>476.5</ele>
        <time>2023-06-14T15:22:56.480Z</time>
      </trkpt>
      <trkpt lat="44.78421" lon="4.61827">
        <ele>476.5</ele>
        <time>2023-06-14T15:22:56.480Z</time>
      </trkpt>
      <trkpt lat="44.78421" lon="4.61827">
        <ele>476.5</ele>
        <time>2023-06-14T15:22:56.480Z</time>
      </trkpt>
      <trkpt lat="44.78422" lon="4.61826">
        <ele>476.2</ele>
        <time>2023-06-14T15:22:57.037Z</time>
      </trkpt>
      <trkpt lat="44.78421" lon="4.61824">
        <ele>476</ele>
        <time>2023-06-14T15:22:57.808Z</time>
      </trkpt>
      <trkpt lat="44.78423" lon="4.6182">
        <ele>475.2</ele>
        <time>2023-06-14T15:22:59.386Z</time>
      </trkpt>
      <trkpt lat="44.78425" lon="4.61822">
        <ele>475.2</ele>
        <time>2023-06-14T15:23:00.474Z</time>
      </trkpt>
      <trkpt lat="44.78425" lon="4.61823">
        <ele>475.4</ele>
        <time>2023-06-14T15:23:00.798Z</time>
      </trkpt>
      <trkpt lat="44.7842" lon="4.6183">
        <ele>477</ele>
        <time>2023-06-14T15:23:03.997Z</time>
      </trkpt>
      <trkpt lat="44.78418" lon="4.61832">
        <ele>477.6</ele>
        <time>2023-06-14T15:23:05.118Z</time>
      </trkpt>
      <trkpt lat="44.78416" lon="4.61834">
        <ele>478</ele>
        <time>2023-06-14T15:23:06.219Z</time>
      </trkpt>
      <trkpt lat="44.78411" lon="4.6184">
        <ele>476.8</ele>
        <time>2023-06-14T15:23:09.175Z</time>
      </trkpt>
      <trkpt lat="44.78408" lon="4.61842">
        <ele>476.4</ele>
        <time>2023-06-14T15:23:10.658Z</time>
      </trkpt>
      <trkpt lat="44.78405" lon="4.61844">
        <ele>475.9</ele>
        <time>2023-06-14T15:23:12.152Z</time>
      </trkpt>
      <trkpt lat="44.78397" lon="4.61847">
        <ele>475</ele>
        <time>2023-06-14T15:23:15.848Z</time>
      </trkpt>
      <trkpt lat="44.78389" lon="4.61848">
        <ele>474.3</ele>
        <time>2023-06-14T15:23:19.428Z</time>
      </trkpt>
      <trkpt lat="44.78384" lon="4.61848">
        <ele>474</ele>
        <time>2023-06-14T15:23:21.661Z</time>
      </trkpt>
      <trkpt lat="44.78376" lon="4.61848">
        <ele>473.5</ele>
        <time>2023-06-14T15:23:25.223Z</time>
      </trkpt>
      <trkpt lat="44.78372" lon="4.61847">
        <ele>473.4</ele>
        <time>2023-06-14T15:23:27.025Z</time>
      </trkpt>
      <trkpt lat="44.78366" lon="4.61846">
        <ele>473.3</ele>
        <time>2023-06-14T15:23:29.713Z</time>
      </trkpt>
      <trkpt lat="44.78364" lon="4.61847">
        <ele>472.9</ele>
        <time>2023-06-14T15:23:30.672Z</time>
      </trkpt>
      <trkpt lat="44.78364" lon="4.61848">
        <ele>472.7</ele>
        <time>2023-06-14T15:23:30.993Z</time>
      </trkpt>
      <trkpt lat="44.78365" lon="4.6185">
        <ele>472.6</ele>
        <time>2023-06-14T15:23:31.771Z</time>
      </trkpt>
      <trkpt lat="44.78366" lon="4.61853">
        <ele>472.1</ele>
        <time>2023-06-14T15:23:32.838Z</time>
      </trkpt>
      <trkpt lat="44.78368" lon="4.61855">
        <ele>472</ele>
        <time>2023-06-14T15:23:33.926Z</time>
      </trkpt>
      <trkpt lat="44.78369" lon="4.61857">
        <ele>471.7</ele>
        <time>2023-06-14T15:23:34.709Z</time>
      </trkpt>
      <trkpt lat="44.78369" lon="4.6186">
        <ele>471.4</ele>
        <time>2023-06-14T15:23:35.668Z</time>
      </trkpt>
      <trkpt lat="44.78365" lon="4.61863">
        <ele>470.7</ele>
        <time>2023-06-14T15:23:37.703Z</time>
      </trkpt>
      <trkpt lat="44.78359" lon="4.6186">
        <ele>470.7</ele>
        <time>2023-06-14T15:23:40.534Z</time>
      </trkpt>
      <trkpt lat="44.78355" lon="4.61858">
        <ele>470.6</ele>
        <time>2023-06-14T15:23:42.424Z</time>
      </trkpt>
      <trkpt lat="44.78351" lon="4.61854">
        <ele>470.9</ele>
        <time>2023-06-14T15:23:44.607Z</time>
      </trkpt>
      <trkpt lat="44.78342" lon="4.61847">
        <ele>471.5</ele>
        <time>2023-06-14T15:23:49.184Z</time>
      </trkpt>
      <trkpt lat="44.78335" lon="4.61841">
        <ele>471.9</ele>
        <time>2023-06-14T15:23:52.833Z</time>
      </trkpt>
      <trkpt lat="44.78329" lon="4.61833">
        <ele>472.3</ele>
        <time>2023-06-14T15:23:56.510Z</time>
      </trkpt>
      <trkpt lat="44.78322" lon="4.6182">
        <ele>470.9</ele>
        <time>2023-06-14T15:24:01.688Z</time>
      </trkpt>
      <trkpt lat="44.78319" lon="4.6181">
        <ele>470.4</ele>
        <time>2023-06-14T15:24:05.119Z</time>
      </trkpt>
      <trkpt lat="44.78316" lon="4.61801">
        <ele>469.9</ele>
        <time>2023-06-14T15:24:08.264Z</time>
      </trkpt>
      <trkpt lat="44.78316" lon="4.618">
        <ele>469.9</ele>
        <time>2023-06-14T15:24:08.582Z</time>
      </trkpt>
      <trkpt lat="44.78314" lon="4.61798">
        <ele>469.6</ele>
        <time>2023-06-14T15:24:09.675Z</time>
      </trkpt>
      <trkpt lat="44.78309" lon="4.61793">
        <ele>469</ele>
        <time>2023-06-14T15:24:12.421Z</time>
      </trkpt>
      <trkpt lat="44.78306" lon="4.61792">
        <ele>468.6</ele>
        <time>2023-06-14T15:24:13.801Z</time>
      </trkpt>
      <trkpt lat="44.78302" lon="4.6179">
        <ele>468.1</ele>
        <time>2023-06-14T15:24:15.695Z</time>
      </trkpt>
      <trkpt lat="44.78299" lon="4.61788">
        <ele>467.7</ele>
        <time>2023-06-14T15:24:17.177Z</time>
      </trkpt>
      <trkpt lat="44.78292" lon="4.61781">
        <ele>467</ele>
        <time>2023-06-14T15:24:21.006Z</time>
      </trkpt>
      <trkpt lat="44.7829" lon="4.6178">
        <ele>466.8</ele>
        <time>2023-06-14T15:24:21.952Z</time>
      </trkpt>
      <trkpt lat="44.78282" lon="4.61773">
        <ele>466.1</ele>
        <time>2023-06-14T15:24:26.149Z</time>
      </trkpt>
      <trkpt lat="44.78279" lon="4.61771">
        <ele>465.8</ele>
        <time>2023-06-14T15:24:27.629Z</time>
      </trkpt>
      <trkpt lat="44.78268" lon="4.61762">
        <ele>465</ele>
        <time>2023-06-14T15:24:33.293Z</time>
      </trkpt>
      <trkpt lat="44.7826" lon="4.61757">
        <ele>464.5</ele>
        <time>2023-06-14T15:24:37.195Z</time>
      </trkpt>
      <trkpt lat="44.78248" lon="4.61749">
        <ele>463.9</ele>
        <time>2023-06-14T15:24:43.099Z</time>
      </trkpt>
      <trkpt lat="44.78246" lon="4.61747">
        <ele>463.9</ele>
        <time>2023-06-14T15:24:44.196Z</time>
      </trkpt>
      <trkpt lat="44.78241" lon="4.61744">
        <ele>463.4</ele>
        <time>2023-06-14T15:24:46.617Z</time>
      </trkpt>
      <trkpt lat="44.78238" lon="4.61743">
        <ele>463.1</ele>
        <time>2023-06-14T15:24:47.994Z</time>
      </trkpt>
      <trkpt lat="44.78231" lon="4.61741">
        <ele>462.2</ele>
        <time>2023-06-14T15:24:51.184Z</time>
      </trkpt>
      <trkpt lat="44.78227" lon="4.61739">
        <ele>462</ele>
        <time>2023-06-14T15:24:53.078Z</time>
      </trkpt>
      <trkpt lat="44.78226" lon="4.61739">
        <ele>461.9</ele>
        <time>2023-06-14T15:24:53.529Z</time>
      </trkpt>
      <trkpt lat="44.78222" lon="4.61741">
        <ele>460.9</ele>
        <time>2023-06-14T15:24:55.454Z</time>
      </trkpt>
      <trkpt lat="44.78205" lon="4.61737">
        <ele>458.9</ele>
        <time>2023-06-14T15:25:03.159Z</time>
      </trkpt>
      <trkpt lat="44.78203" lon="4.61735">
        <ele>459</ele>
        <time>2023-06-14T15:25:04.254Z</time>
      </trkpt>
      <trkpt lat="44.78192" lon="4.61727">
        <ele>458.6</ele>
        <time>2023-06-14T15:25:09.762Z</time>
      </trkpt>
      <trkpt lat="44.7819" lon="4.61725">
        <ele>458.7</ele>
        <time>2023-06-14T15:25:10.851Z</time>
      </trkpt>
      <trkpt lat="44.78187" lon="4.61723">
        <ele>458.5</ele>
        <time>2023-06-14T15:25:12.329Z</time>
      </trkpt>
      <trkpt lat="44.7818" lon="4.61717">
        <ele>458.5</ele>
        <time>2023-06-14T15:25:15.975Z</time>
      </trkpt>
      <trkpt lat="44.78174" lon="4.6171">
        <ele>458.8</ele>
        <time>2023-06-14T15:25:19.443Z</time>
      </trkpt>
      <trkpt lat="44.78169" lon="4.61702">
        <ele>459.4</ele>
        <time>2023-06-14T15:25:22.814Z</time>
      </trkpt>
      <trkpt lat="44.78167" lon="4.61698">
        <ele>459.8</ele>
        <time>2023-06-14T15:25:24.367Z</time>
      </trkpt>
      <trkpt lat="44.78165" lon="4.61696">
        <ele>459.9</ele>
        <time>2023-06-14T15:25:25.456Z</time>
      </trkpt>
      <trkpt lat="44.78163" lon="4.61694">
        <ele>459.7</ele>
        <time>2023-06-14T15:25:26.551Z</time>
      </trkpt>
      <trkpt lat="44.7816" lon="4.61696">
        <ele>458.9</ele>
        <time>2023-06-14T15:25:28.060Z</time>
      </trkpt>
      <trkpt lat="44.78162" lon="4.61701">
        <ele>458.4</ele>
        <time>2023-06-14T15:25:29.884Z</time>
      </trkpt>
      <trkpt lat="44.78163" lon="4.61703">
        <ele>458.2</ele>
        <time>2023-06-14T15:25:30.664Z</time>
      </trkpt>
      <trkpt lat="44.78168" lon="4.61713">
        <ele>457.5</ele>
        <time>2023-06-14T15:25:34.530Z</time>
      </trkpt>
      <trkpt lat="44.7817" lon="4.61716">
        <ele>457.2</ele>
        <time>2023-06-14T15:25:35.840Z</time>
      </trkpt>
      <trkpt lat="44.78175" lon="4.61731">
        <ele>455.5</ele>
        <time>2023-06-14T15:25:41.113Z</time>
      </trkpt>
      <trkpt lat="44.78177" lon="4.61734">
        <ele>455.4</ele>
        <time>2023-06-14T15:25:42.412Z</time>
      </trkpt>
      <trkpt lat="44.78181" lon="4.61744">
        <ele>454.3</ele>
        <time>2023-06-14T15:25:46.061Z</time>
      </trkpt>
      <trkpt lat="44.78188" lon="4.61759">
        <ele>453.3</ele>
        <time>2023-06-14T15:25:51.743Z</time>
      </trkpt>
      <trkpt lat="44.78193" lon="4.6177">
        <ele>453</ele>
        <time>2023-06-14T15:25:55.866Z</time>
      </trkpt>
      <trkpt lat="44.78198" lon="4.6178">
        <ele>452.8</ele>
        <time>2023-06-14T15:25:59.728Z</time>
      </trkpt>
      <trkpt lat="44.782" lon="4.61785">
        <ele>452.6</ele>
        <time>2023-06-14T15:26:01.539Z</time>
      </trkpt>
      <trkpt lat="44.78203" lon="4.6179">
        <ele>452.8</ele>
        <time>2023-06-14T15:26:03.605Z</time>
      </trkpt>
      <trkpt lat="44.78213" lon="4.6181">
        <ele>452.8</ele>
        <time>2023-06-14T15:26:11.333Z</time>
      </trkpt>
      <trkpt lat="44.78218" lon="4.61822">
        <ele>452.8</ele>
        <time>2023-06-14T15:26:15.721Z</time>
      </trkpt>
      <trkpt lat="44.7822" lon="4.61827">
        <ele>452.7</ele>
        <time>2023-06-14T15:26:17.534Z</time>
      </trkpt>
      <trkpt lat="44.7822" lon="4.61836">
        <ele>451.8</ele>
        <time>2023-06-14T15:26:20.399Z</time>
      </trkpt>
      <trkpt lat="44.7822" lon="4.61841">
        <ele>451.1</ele>
        <time>2023-06-14T15:26:22.001Z</time>
      </trkpt>
      <trkpt lat="44.78221" lon="4.61865">
        <ele>448.2</ele>
        <time>2023-06-14T15:26:29.677Z</time>
      </trkpt>
      <trkpt lat="44.78222" lon="4.6187">
        <ele>447.7</ele>
        <time>2023-06-14T15:26:31.333Z</time>
      </trkpt>
      <trkpt lat="44.78231" lon="4.61897">
        <ele>445.9</ele>
        <time>2023-06-14T15:26:40.773Z</time>
      </trkpt>
      <trkpt lat="44.78242" lon="4.61922">
        <ele>444.6</ele>
        <time>2023-06-14T15:26:50.074Z</time>
      </trkpt>
      <trkpt lat="44.78244" lon="4.61927">
        <ele>444.1</ele>
        <time>2023-06-14T15:26:51.893Z</time>
      </trkpt>
      <trkpt lat="44.78246" lon="4.61933">
        <ele>443.6</ele>
        <time>2023-06-14T15:26:53.993Z</time>
      </trkpt>
      <trkpt lat="44.78249" lon="4.61938">
        <ele>443.3</ele>
        <time>2023-06-14T15:26:56.063Z</time>
      </trkpt>
      <trkpt lat="44.78265" lon="4.61976">
        <ele>438.2</ele>
        <time>2023-06-14T15:27:10.159Z</time>
      </trkpt>
      <trkpt lat="44.78281" lon="4.61999">
        <ele>434.4</ele>
        <time>2023-06-14T15:27:20.436Z</time>
      </trkpt>
      <trkpt lat="44.78288" lon="4.62008">
        <ele>432.9</ele>
        <time>2023-06-14T15:27:24.694Z</time>
      </trkpt>
      <trkpt lat="44.78294" lon="4.62018">
        <ele>431.4</ele>
        <time>2023-06-14T15:27:28.869Z</time>
      </trkpt>
      <trkpt lat="44.78313" lon="4.62047">
        <ele>426.4</ele>
        <time>2023-06-14T15:27:41.484Z</time>
      </trkpt>
      <trkpt lat="44.78316" lon="4.62051">
        <ele>425.8</ele>
        <time>2023-06-14T15:27:43.341Z</time>
      </trkpt>
      <trkpt lat="44.7832" lon="4.62056">
        <ele>424.9</ele>
        <time>2023-06-14T15:27:45.746Z</time>
      </trkpt>
      <trkpt lat="44.78327" lon="4.6206">
        <ele>424.3</ele>
        <time>2023-06-14T15:27:49.109Z</time>
      </trkpt>
      <trkpt lat="44.78331" lon="4.62062">
        <ele>424.2</ele>
        <time>2023-06-14T15:27:51.000Z</time>
      </trkpt>
      <trkpt lat="44.78335" lon="4.62062">
        <ele>424.1</ele>
        <time>2023-06-14T15:27:52.774Z</time>
      </trkpt>
      <trkpt lat="44.78342" lon="4.62063">
        <ele>423.4</ele>
        <time>2023-06-14T15:27:55.920Z</time>
      </trkpt>
      <trkpt lat="44.7835" lon="4.62061">
        <ele>423.2</ele>
        <time>2023-06-14T15:27:59.533Z</time>
      </trkpt>
      <trkpt lat="44.78354" lon="4.62059">
        <ele>423.4</ele>
        <time>2023-06-14T15:28:01.426Z</time>
      </trkpt>
      <trkpt lat="44.78371" lon="4.62046">
        <ele>425.3</ele>
        <time>2023-06-14T15:28:10.061Z</time>
      </trkpt>
      <trkpt lat="44.78396" lon="4.62027">
        <ele>428.8</ele>
        <time>2023-06-14T15:28:22.768Z</time>
      </trkpt>
      <trkpt lat="44.78404" lon="4.62022">
        <ele>429.6</ele>
        <time>2023-06-14T15:28:26.668Z</time>
      </trkpt>
      <trkpt lat="44.7843" lon="4.62008">
        <ele>434</ele>
        <time>2023-06-14T15:28:39.175Z</time>
      </trkpt>
      <trkpt lat="44.7846" lon="4.62003">
        <ele>437.9</ele>
        <time>2023-06-14T15:28:52.702Z</time>
      </trkpt>
      <trkpt lat="44.78486" lon="4.62009">
        <ele>438.3</ele>
        <time>2023-06-14T15:29:04.420Z</time>
      </trkpt>
      <trkpt lat="44.7849" lon="4.6201">
        <ele>438.7</ele>
        <time>2023-06-14T15:29:06.235Z</time>
      </trkpt>
      <trkpt lat="44.78495" lon="4.6201">
        <ele>439.1</ele>
        <time>2023-06-14T15:29:08.462Z</time>
      </trkpt>
      <trkpt lat="44.78528" lon="4.6201">
        <ele>444.7</ele>
        <time>2023-06-14T15:29:23.305Z</time>
      </trkpt>
      <trkpt lat="44.78546" lon="4.62016">
        <ele>446.5</ele>
        <time>2023-06-14T15:29:31.564Z</time>
      </trkpt>
      <trkpt lat="44.78555" lon="4.6202">
        <ele>447.3</ele>
        <time>2023-06-14T15:29:35.773Z</time>
      </trkpt>
      <trkpt lat="44.78563" lon="4.62026">
        <ele>447.4</ele>
        <time>2023-06-14T15:29:39.800Z</time>
      </trkpt>
      <trkpt lat="44.78578" lon="4.62039">
        <ele>447.5</ele>
        <time>2023-06-14T15:29:47.634Z</time>
      </trkpt>
      <trkpt lat="44.78601" lon="4.62058">
        <ele>447.2</ele>
        <time>2023-06-14T15:29:59.490Z</time>
      </trkpt>
      <trkpt lat="44.78612" lon="4.62068">
        <ele>446.8</ele>
        <time>2023-06-14T15:30:05.314Z</time>
      </trkpt>
      <trkpt lat="44.78632" lon="4.62083">
        <ele>447.4</ele>
        <time>2023-06-14T15:30:15.393Z</time>
      </trkpt>
      <trkpt lat="44.78638" lon="4.6209">
        <ele>447.1</ele>
        <time>2023-06-14T15:30:18.859Z</time>
      </trkpt>
      <trkpt lat="44.78644" lon="4.62097">
        <ele>447.1</ele>
        <time>2023-06-14T15:30:22.325Z</time>
      </trkpt>
      <trkpt lat="44.78655" lon="4.6211">
        <ele>447</ele>
        <time>2023-06-14T15:30:28.707Z</time>
      </trkpt>
      <trkpt lat="44.78663" lon="4.6212">
        <ele>447</ele>
        <time>2023-06-14T15:30:33.463Z</time>
      </trkpt>
      <trkpt lat="44.78666" lon="4.62122">
        <ele>447.4</ele>
        <time>2023-06-14T15:30:34.948Z</time>
      </trkpt>
      <trkpt lat="44.78678" lon="4.62135">
        <ele>444.1</ele>
        <time>2023-06-14T15:30:41.812Z</time>
      </trkpt>
      <trkpt lat="44.78685" lon="4.62147">
        <ele>441.4</ele>
        <time>2023-06-14T15:30:46.833Z</time>
      </trkpt>
      <trkpt lat="44.78699" lon="4.62176">
        <ele>436.5</ele>
        <time>2023-06-14T15:30:58.075Z</time>
      </trkpt>
      <trkpt lat="44.78706" lon="4.62192">
        <ele>435</ele>
        <time>2023-06-14T15:31:04.039Z</time>
      </trkpt>
      <trkpt lat="44.78716" lon="4.62211">
        <ele>433.7</ele>
        <time>2023-06-14T15:31:11.521Z</time>
      </trkpt>
      <trkpt lat="44.78729" lon="4.62234">
        <ele>433.5</ele>
        <time>2023-06-14T15:31:20.799Z</time>
      </trkpt>
      <trkpt lat="44.78741" lon="4.62249">
        <ele>434.3</ele>
        <time>2023-06-14T15:31:27.942Z</time>
      </trkpt>
      <trkpt lat="44.78747" lon="4.62258">
        <ele>434.7</ele>
        <time>2023-06-14T15:31:31.843Z</time>
      </trkpt>
      <trkpt lat="44.7876" lon="4.62274">
        <ele>432.9</ele>
        <time>2023-06-14T15:31:39.556Z</time>
      </trkpt>
      <trkpt lat="44.78762" lon="4.62276">
        <ele>432.5</ele>
        <time>2023-06-14T15:31:40.656Z</time>
      </trkpt>
      <trkpt lat="44.78776" lon="4.62294">
        <ele>430.7</ele>
        <time>2023-06-14T15:31:49.112Z</time>
      </trkpt>
      <trkpt lat="44.78782" lon="4.62301">
        <ele>430.3</ele>
        <time>2023-06-14T15:31:52.582Z</time>
      </trkpt>
      <trkpt lat="44.78791" lon="4.6231">
        <ele>429.8</ele>
        <time>2023-06-14T15:31:57.494Z</time>
      </trkpt>
      <trkpt lat="44.78808" lon="4.62323">
        <ele>429.4</ele>
        <time>2023-06-14T15:32:06.095Z</time>
      </trkpt>
      <trkpt lat="44.78813" lon="4.62328">
        <ele>429.7</ele>
        <time>2023-06-14T15:32:08.821Z</time>
      </trkpt>
      <trkpt lat="44.78817" lon="4.62333">
        <ele>430</ele>
        <time>2023-06-14T15:32:11.206Z</time>
      </trkpt>
      <trkpt lat="44.78829" lon="4.62351">
        <ele>431.5</ele>
        <time>2023-06-14T15:32:19.023Z</time>
      </trkpt>
      <trkpt lat="44.78833" lon="4.62357">
        <ele>432.4</ele>
        <time>2023-06-14T15:32:21.641Z</time>
      </trkpt>
      <trkpt lat="44.78839" lon="4.62368">
        <ele>432.8</ele>
        <time>2023-06-14T15:32:26.027Z</time>
      </trkpt>
      <trkpt lat="44.78846" lon="4.62379">
        <ele>433.3</ele>
        <time>2023-06-14T15:32:30.695Z</time>
      </trkpt>
      <trkpt lat="44.78852" lon="4.62387">
        <ele>433.4</ele>
        <time>2023-06-14T15:32:34.369Z</time>
      </trkpt>
      <trkpt lat="44.78856" lon="4.62394">
        <ele>433.8</ele>
        <time>2023-06-14T15:32:37.203Z</time>
      </trkpt>
      <trkpt lat="44.78867" lon="4.62406">
        <ele>433.8</ele>
        <time>2023-06-14T15:32:43.389Z</time>
      </trkpt>
      <trkpt lat="44.78872" lon="4.62412">
        <ele>434.1</ele>
        <time>2023-06-14T15:32:46.316Z</time>
      </trkpt>
      <trkpt lat="44.78881" lon="4.62423">
        <ele>434.3</ele>
        <time>2023-06-14T15:32:51.615Z</time>
      </trkpt>
      <trkpt lat="44.78885" lon="4.62428">
        <ele>434.2</ele>
        <time>2023-06-14T15:32:53.992Z</time>
      </trkpt>
      <trkpt lat="44.78889" lon="4.62431">
        <ele>434.2</ele>
        <time>2023-06-14T15:32:56.010Z</time>
      </trkpt>
      <trkpt lat="44.789" lon="4.62441">
        <ele>434.4</ele>
        <time>2023-06-14T15:33:01.829Z</time>
      </trkpt>
      <trkpt lat="44.78902" lon="4.62442">
        <ele>434.4</ele>
        <time>2023-06-14T15:33:02.771Z</time>
      </trkpt>
      <trkpt lat="44.78915" lon="4.62459">
        <ele>436.6</ele>
        <time>2023-06-14T15:33:10.709Z</time>
      </trkpt>
      <trkpt lat="44.78915" lon="4.62462">
        <ele>437.1</ele>
        <time>2023-06-14T15:33:11.679Z</time>
      </trkpt>
      <trkpt lat="44.78918" lon="4.62471">
        <ele>438.8</ele>
        <time>2023-06-14T15:33:14.893Z</time>
      </trkpt>
      <trkpt lat="44.78918" lon="4.62473">
        <ele>439.4</ele>
        <time>2023-06-14T15:33:15.557Z</time>
      </trkpt>
      <trkpt lat="44.78918" lon="4.62474">
        <ele>439.6</ele>
        <time>2023-06-14T15:33:15.892Z</time>
      </trkpt>
      <trkpt lat="44.78917" lon="4.6248">
        <ele>440.7</ele>
        <time>2023-06-14T15:33:17.888Z</time>
      </trkpt>
      <trkpt lat="44.78917" lon="4.62482">
        <ele>441.3</ele>
        <time>2023-06-14T15:33:18.553Z</time>
      </trkpt>
      <trkpt lat="44.78917" lon="4.62483">
        <ele>441.5</ele>
        <time>2023-06-14T15:33:18.888Z</time>
      </trkpt>
      <trkpt lat="44.78917" lon="4.62487">
        <ele>442.3</ele>
        <time>2023-06-14T15:33:20.187Z</time>
      </trkpt>
      <trkpt lat="44.78916" lon="4.62491">
        <ele>443.1</ele>
        <time>2023-06-14T15:33:21.564Z</time>
      </trkpt>
      <trkpt lat="44.78916" lon="4.62504">
        <ele>445.4</ele>
        <time>2023-06-14T15:33:25.767Z</time>
      </trkpt>
      <trkpt lat="44.78917" lon="4.62507">
        <ele>445.8</ele>
        <time>2023-06-14T15:33:26.823Z</time>
      </trkpt>
      <trkpt lat="44.78919" lon="4.62525">
        <ele>448</ele>
        <time>2023-06-14T15:33:32.643Z</time>
      </trkpt>
      <trkpt lat="44.78919" lon="4.62527">
        <ele>448.2</ele>
        <time>2023-06-14T15:33:33.276Z</time>
      </trkpt>
      <trkpt lat="44.78923" lon="4.62538">
        <ele>449.8</ele>
        <time>2023-06-14T15:33:37.229Z</time>
      </trkpt>
      <trkpt lat="44.78925" lon="4.6254">
        <ele>450</ele>
        <time>2023-06-14T15:33:38.324Z</time>
      </trkpt>
      <trkpt lat="44.78931" lon="4.62547">
        <ele>451.3</ele>
        <time>2023-06-14T15:33:41.828Z</time>
      </trkpt>
      <trkpt lat="44.78935" lon="4.62552">
        <ele>452.3</ele>
        <time>2023-06-14T15:33:44.243Z</time>
      </trkpt>
      <trkpt lat="44.78941" lon="4.62558">
        <ele>453.5</ele>
        <time>2023-06-14T15:33:47.546Z</time>
      </trkpt>
      <trkpt lat="44.78953" lon="4.62569">
        <ele>456.4</ele>
        <time>2023-06-14T15:33:54.019Z</time>
      </trkpt>
      <trkpt lat="44.78954" lon="4.62571">
        <ele>456.7</ele>
        <time>2023-06-14T15:33:54.798Z</time>
      </trkpt>
      <trkpt lat="44.78962" lon="4.62578">
        <ele>458.9</ele>
        <time>2023-06-14T15:33:59.078Z</time>
      </trkpt>
      <trkpt lat="44.78967" lon="4.62584">
        <ele>460.4</ele>
        <time>2023-06-14T15:34:02.062Z</time>
      </trkpt>
      <trkpt lat="44.78976" lon="4.62596">
        <ele>462.6</ele>
        <time>2023-06-14T15:34:07.642Z</time>
      </trkpt>
      <trkpt lat="44.78978" lon="4.62597">
        <ele>463</ele>
        <time>2023-06-14T15:34:08.598Z</time>
      </trkpt>
      <trkpt lat="44.78991" lon="4.62616">
        <ele>467.5</ele>
        <time>2023-06-14T15:34:17.111Z</time>
      </trkpt>
      <trkpt lat="44.78993" lon="4.62618">
        <ele>468</ele>
        <time>2023-06-14T15:34:18.229Z</time>
      </trkpt>
      <trkpt lat="44.79001" lon="4.6263">
        <ele>471</ele>
        <time>2023-06-14T15:34:23.558Z</time>
      </trkpt>
      <trkpt lat="44.79006" lon="4.62641">
        <ele>472.5</ele>
        <time>2023-06-14T15:34:27.723Z</time>
      </trkpt>
      <trkpt lat="44.79011" lon="4.62652">
        <ele>473.8</ele>
        <time>2023-06-14T15:34:31.880Z</time>
      </trkpt>
      <trkpt lat="44.79012" lon="4.62654">
        <ele>474.2</ele>
        <time>2023-06-14T15:34:32.667Z</time>
      </trkpt>
      <trkpt lat="44.79019" lon="4.62669">
        <ele>476.1</ele>
        <time>2023-06-14T15:34:38.388Z</time>
      </trkpt>
      <trkpt lat="44.79026" lon="4.62687">
        <ele>477.1</ele>
        <time>2023-06-14T15:34:44.875Z</time>
      </trkpt>
      <trkpt lat="44.7903" lon="4.62698">
        <ele>478</ele>
        <time>2023-06-14T15:34:48.794Z</time>
      </trkpt>
      <trkpt lat="44.79035" lon="4.62711">
        <ele>479.3</ele>
        <time>2023-06-14T15:34:53.489Z</time>
      </trkpt>
      <trkpt lat="44.79041" lon="4.62738">
        <ele>482.5</ele>
        <time>2023-06-14T15:35:02.509Z</time>
      </trkpt>
      <trkpt lat="44.79044" lon="4.62757">
        <ele>484.4</ele>
        <time>2023-06-14T15:35:08.696Z</time>
      </trkpt>
      <trkpt lat="44.79045" lon="4.6276">
        <ele>484.6</ele>
        <time>2023-06-14T15:35:09.748Z</time>
      </trkpt>
      <trkpt lat="44.79049" lon="4.62782">
        <ele>485.5</ele>
        <time>2023-06-14T15:35:16.926Z</time>
      </trkpt>
      <trkpt lat="44.79051" lon="4.62788">
        <ele>486</ele>
        <time>2023-06-14T15:35:19.026Z</time>
      </trkpt>
      <trkpt lat="44.79053" lon="4.62799">
        <ele>486.5</ele>
        <time>2023-06-14T15:35:22.617Z</time>
      </trkpt>
      <trkpt lat="44.79054" lon="4.62811">
        <ele>487</ele>
        <time>2023-06-14T15:35:26.434Z</time>
      </trkpt>
      <trkpt lat="44.79055" lon="4.62819">
        <ele>487.3</ele>
        <time>2023-06-14T15:35:29.000Z</time>
      </trkpt>
      <trkpt lat="44.79058" lon="4.62826">
        <ele>488.2</ele>
        <time>2023-06-14T15:35:31.601Z</time>
      </trkpt>
      <trkpt lat="44.79058" lon="4.62829">
        <ele>488.2</ele>
        <time>2023-06-14T15:35:32.548Z</time>
      </trkpt>
      <trkpt lat="44.79067" lon="4.62848">
        <ele>487.8</ele>
        <time>2023-06-14T15:35:39.762Z</time>
      </trkpt>
      <trkpt lat="44.79068" lon="4.6285">
        <ele>487.8</ele>
        <time>2023-06-14T15:35:40.534Z</time>
      </trkpt>
      <trkpt lat="44.79081" lon="4.62866">
        <ele>487.4</ele>
        <time>2023-06-14T15:35:48.207Z</time>
      </trkpt>
      <trkpt lat="44.79095" lon="4.62882">
        <ele>486.1</ele>
        <time>2023-06-14T15:35:56.244Z</time>
      </trkpt>
      <trkpt lat="44.79102" lon="4.62891">
        <ele>485.2</ele>
        <time>2023-06-14T15:36:00.473Z</time>
      </trkpt>
      <trkpt lat="44.79107" lon="4.62899">
        <ele>484.5</ele>
        <time>2023-06-14T15:36:03.847Z</time>
      </trkpt>
      <trkpt lat="44.79109" lon="4.62902">
        <ele>484.4</ele>
        <time>2023-06-14T15:36:05.147Z</time>
      </trkpt>
      <trkpt lat="44.79122" lon="4.62918">
        <ele>483.7</ele>
        <time>2023-06-14T15:36:12.829Z</time>
      </trkpt>
      <trkpt lat="44.79126" lon="4.62922">
        <ele>483.5</ele>
        <time>2023-06-14T15:36:15.008Z</time>
      </trkpt>
      <trkpt lat="44.7913" lon="4.62927">
        <ele>483.1</ele>
        <time>2023-06-14T15:36:17.392Z</time>
      </trkpt>
      <trkpt lat="44.79139" lon="4.62935">
        <ele>483</ele>
        <time>2023-06-14T15:36:22.125Z</time>
      </trkpt>
      <trkpt lat="44.79149" lon="4.62944">
        <ele>482.9</ele>
        <time>2023-06-14T15:36:27.399Z</time>
      </trkpt>
      <trkpt lat="44.79167" lon="4.62955">
        <ele>483.9</ele>
        <time>2023-06-14T15:36:36.135Z</time>
      </trkpt>
      <trkpt lat="44.79187" lon="4.62964">
        <ele>484.7</ele>
        <time>2023-06-14T15:36:45.476Z</time>
      </trkpt>
      <trkpt lat="44.79207" lon="4.62972">
        <ele>486.1</ele>
        <time>2023-06-14T15:36:54.740Z</time>
      </trkpt>
      <trkpt lat="44.79227" lon="4.62984">
        <ele>487.4</ele>
        <time>2023-06-14T15:37:04.417Z</time>
      </trkpt>
      <trkpt lat="44.7925" lon="4.63">
        <ele>489</ele>
        <time>2023-06-14T15:37:15.843Z</time>
      </trkpt>
      <trkpt lat="44.79269" lon="4.63021">
        <ele>488.3</ele>
        <time>2023-06-14T15:37:26.590Z</time>
      </trkpt>
      <trkpt lat="44.79288" lon="4.63047">
        <ele>486.9</ele>
        <time>2023-06-14T15:37:38.375Z</time>
      </trkpt>
      <trkpt lat="44.79307" lon="4.63076">
        <ele>485.2</ele>
        <time>2023-06-14T15:37:50.848Z</time>
      </trkpt>
      <trkpt lat="44.79317" lon="4.63095">
        <ele>484.2</ele>
        <time>2023-06-14T15:37:58.328Z</time>
      </trkpt>
      <trkpt lat="44.79321" lon="4.63104">
        <ele>483.8</ele>
        <time>2023-06-14T15:38:01.686Z</time>
      </trkpt>
      <trkpt lat="44.79322" lon="4.63108">
        <ele>483.5</ele>
        <time>2023-06-14T15:38:03.023Z</time>
      </trkpt>
      <trkpt lat="44.79333" lon="4.6313">
        <ele>482.5</ele>
        <time>2023-06-14T15:38:11.529Z</time>
      </trkpt>
      <trkpt lat="44.79346" lon="4.63152">
        <ele>480.8</ele>
        <time>2023-06-14T15:38:20.590Z</time>
      </trkpt>
      <trkpt lat="44.7935" lon="4.63159">
        <ele>480.1</ele>
        <time>2023-06-14T15:38:23.441Z</time>
      </trkpt>
      <trkpt lat="44.79362" lon="4.63178">
        <ele>479.2</ele>
        <time>2023-06-14T15:38:31.470Z</time>
      </trkpt>
      <trkpt lat="44.79365" lon="4.63185">
        <ele>479</ele>
        <time>2023-06-14T15:38:34.050Z</time>
      </trkpt>
      <trkpt lat="44.79382" lon="4.63209">
        <ele>478.8</ele>
        <time>2023-06-14T15:38:44.752Z</time>
      </trkpt>
      <trkpt lat="44.79403" lon="4.63222">
        <ele>479.6</ele>
        <time>2023-06-14T15:38:54.959Z</time>
      </trkpt>
      <trkpt lat="44.79405" lon="4.63223">
        <ele>479.7</ele>
        <time>2023-06-14T15:38:55.900Z</time>
      </trkpt>
      <trkpt lat="44.79409" lon="4.63226">
        <ele>479.9</ele>
        <time>2023-06-14T15:38:57.919Z</time>
      </trkpt>
      <trkpt lat="44.79421" lon="4.63234">
        <ele>480.1</ele>
        <time>2023-06-14T15:39:03.824Z</time>
      </trkpt>
      <trkpt lat="44.79421" lon="4.63234">
        <ele>480.1</ele>
        <time>2023-06-14T15:39:03.824Z</time>
      </trkpt>
      <trkpt lat="44.79441" lon="4.63247">
        <ele>479.7</ele>
        <time>2023-06-14T15:39:13.620Z</time>
      </trkpt>
      <trkpt lat="44.79453" lon="4.63257">
        <ele>479.7</ele>
        <time>2023-06-14T15:39:19.820Z</time>
      </trkpt>
      <trkpt lat="44.79457" lon="4.6326">
        <ele>479.7</ele>
        <time>2023-06-14T15:39:21.831Z</time>
      </trkpt>
      <trkpt lat="44.79471" lon="4.63269">
        <ele>479.8</ele>
        <time>2023-06-14T15:39:28.674Z</time>
      </trkpt>
      <trkpt lat="44.79475" lon="4.63272">
        <ele>480</ele>
        <time>2023-06-14T15:39:30.692Z</time>
      </trkpt>
      <trkpt lat="44.79486" lon="4.63281">
        <ele>480.3</ele>
        <time>2023-06-14T15:39:36.349Z</time>
      </trkpt>
      <trkpt lat="44.79489" lon="4.63284">
        <ele>480.5</ele>
        <time>2023-06-14T15:39:37.987Z</time>
      </trkpt>
      <trkpt lat="44.79498" lon="4.63292">
        <ele>481</ele>
        <time>2023-06-14T15:39:42.723Z</time>
      </trkpt>
      <trkpt lat="44.79499" lon="4.63294">
        <ele>481</ele>
        <time>2023-06-14T15:39:43.500Z</time>
      </trkpt>
      <trkpt lat="44.79506" lon="4.63299">
        <ele>479.7</ele>
        <time>2023-06-14T15:39:47.025Z</time>
      </trkpt>
      <trkpt lat="44.79508" lon="4.633">
        <ele>479.3</ele>
        <time>2023-06-14T15:39:47.990Z</time>
      </trkpt>
      <trkpt lat="44.79523" lon="4.63311">
        <ele>476.4</ele>
        <time>2023-06-14T15:39:55.595Z</time>
      </trkpt>
      <trkpt lat="44.79527" lon="4.63312">
        <ele>475.4</ele>
        <time>2023-06-14T15:39:57.443Z</time>
      </trkpt>
      <trkpt lat="44.79528" lon="4.63312">
        <ele>475.2</ele>
        <time>2023-06-14T15:39:57.900Z</time>
      </trkpt>
      <trkpt lat="44.79529" lon="4.63312">
        <ele>474.9</ele>
        <time>2023-06-14T15:39:58.350Z</time>
      </trkpt>
      <trkpt lat="44.79531" lon="4.63313">
        <ele>474.5</ele>
        <time>2023-06-14T15:39:59.315Z</time>
      </trkpt>
      <trkpt lat="44.79535" lon="4.63316">
        <ele>473.8</ele>
        <time>2023-06-14T15:40:01.346Z</time>
      </trkpt>
      <trkpt lat="44.79539" lon="4.63319">
        <ele>473.2</ele>
        <time>2023-06-14T15:40:03.376Z</time>
      </trkpt>
      <trkpt lat="44.79545" lon="4.63323">
        <ele>472.2</ele>
        <time>2023-06-14T15:40:06.359Z</time>
      </trkpt>
      <trkpt lat="44.7955" lon="4.63328">
        <ele>471.6</ele>
        <time>2023-06-14T15:40:09.092Z</time>
      </trkpt>
      <trkpt lat="44.79553" lon="4.63332">
        <ele>471.4</ele>
        <time>2023-06-14T15:40:10.929Z</time>
      </trkpt>
      <trkpt lat="44.79565" lon="4.63347">
        <ele>470.2</ele>
        <time>2023-06-14T15:40:18.081Z</time>
      </trkpt>
      <trkpt lat="44.79574" lon="4.6336">
        <ele>469.9</ele>
        <time>2023-06-14T15:40:23.815Z</time>
      </trkpt>
      <trkpt lat="44.79589" lon="4.63382">
        <ele>469.5</ele>
        <time>2023-06-14T15:40:33.439Z</time>
      </trkpt>
      <trkpt lat="44.79598" lon="4.63392">
        <ele>468.3</ele>
        <time>2023-06-14T15:40:38.563Z</time>
      </trkpt>
      <trkpt lat="44.79602" lon="4.63396">
        <ele>467.5</ele>
        <time>2023-06-14T15:40:40.764Z</time>
      </trkpt>
      <trkpt lat="44.79612" lon="4.63407">
        <ele>466.2</ele>
        <time>2023-06-14T15:40:46.428Z</time>
      </trkpt>
      <trkpt lat="44.79618" lon="4.63413">
        <ele>465.4</ele>
        <time>2023-06-14T15:40:49.716Z</time>
      </trkpt>
      <trkpt lat="44.79623" lon="4.63418">
        <ele>464.5</ele>
        <time>2023-06-14T15:40:52.466Z</time>
      </trkpt>
      <trkpt lat="44.79629" lon="4.63429">
        <ele>462.6</ele>
        <time>2023-06-14T15:40:56.913Z</time>
      </trkpt>
      <trkpt lat="44.7963" lon="4.63438">
        <ele>462.3</ele>
        <time>2023-06-14T15:40:59.792Z</time>
      </trkpt>
      <trkpt lat="44.7963" lon="4.63452">
        <ele>462.1</ele>
        <time>2023-06-14T15:41:04.209Z</time>
      </trkpt>
      <trkpt lat="44.7963" lon="4.63456">
        <ele>462.1</ele>
        <time>2023-06-14T15:41:05.468Z</time>
      </trkpt>
      <trkpt lat="44.79632" lon="4.63464">
        <ele>461.5</ele>
        <time>2023-06-14T15:41:08.151Z</time>
      </trkpt>
      <trkpt lat="44.79635" lon="4.63475">
        <ele>460.8</ele>
        <time>2023-06-14T15:41:11.885Z</time>
      </trkpt>
      <trkpt lat="44.79636" lon="4.63478">
        <ele>460.6</ele>
        <time>2023-06-14T15:41:12.936Z</time>
      </trkpt>
      <trkpt lat="44.79638" lon="4.63483">
        <ele>460.2</ele>
        <time>2023-06-14T15:41:14.753Z</time>
      </trkpt>
      <trkpt lat="44.79641" lon="4.6349">
        <ele>459.6</ele>
        <time>2023-06-14T15:41:17.341Z</time>
      </trkpt>
      <trkpt lat="44.79643" lon="4.63493">
        <ele>459.2</ele>
        <time>2023-06-14T15:41:18.655Z</time>
      </trkpt>
      <trkpt lat="44.79647" lon="4.63496">
        <ele>458.5</ele>
        <time>2023-06-14T15:41:20.685Z</time>
      </trkpt>
      <trkpt lat="44.79649" lon="4.63498">
        <ele>458.1</ele>
        <time>2023-06-14T15:41:21.791Z</time>
      </trkpt>
      <trkpt lat="44.79659" lon="4.63505">
        <ele>455.6</ele>
        <time>2023-06-14T15:41:26.853Z</time>
      </trkpt>
      <trkpt lat="44.79667" lon="4.63508">
        <ele>453.6</ele>
        <time>2023-06-14T15:41:30.623Z</time>
      </trkpt>
      <trkpt lat="44.79675" lon="4.6351">
        <ele>452.5</ele>
        <time>2023-06-14T15:41:34.265Z</time>
      </trkpt>
      <trkpt lat="44.79684" lon="4.63514">
        <ele>451</ele>
        <time>2023-06-14T15:41:38.502Z</time>
      </trkpt>
      <trkpt lat="44.79688" lon="4.63514">
        <ele>450.6</ele>
        <time>2023-06-14T15:41:40.290Z</time>
      </trkpt>
      <trkpt lat="44.79694" lon="4.63515">
        <ele>449.8</ele>
        <time>2023-06-14T15:41:42.996Z</time>
      </trkpt>
      <trkpt lat="44.79701" lon="4.63516">
        <ele>448.9</ele>
        <time>2023-06-14T15:41:46.140Z</time>
      </trkpt>
      <trkpt lat="44.79704" lon="4.63516">
        <ele>448.6</ele>
        <time>2023-06-14T15:41:47.478Z</time>
      </trkpt>
      <trkpt lat="44.7971" lon="4.63512">
        <ele>448.7</ele>
        <time>2023-06-14T15:41:50.429Z</time>
      </trkpt>
      <trkpt lat="44.79712" lon="4.63509">
        <ele>448.8</ele>
        <time>2023-06-14T15:41:51.733Z</time>
      </trkpt>
      <trkpt lat="44.79715" lon="4.63503">
        <ele>449.4</ele>
        <time>2023-06-14T15:41:54.063Z</time>
      </trkpt>
      <trkpt lat="44.79717" lon="4.63496">
        <ele>449.3</ele>
        <time>2023-06-14T15:41:56.445Z</time>
      </trkpt>
      <trkpt lat="44.79723" lon="4.63491">
        <ele>448.3</ele>
        <time>2023-06-14T15:41:59.571Z</time>
      </trkpt>
      <trkpt lat="44.79726" lon="4.63488">
        <ele>447.7</ele>
        <time>2023-06-14T15:42:01.227Z</time>
      </trkpt>
      <trkpt lat="44.79728" lon="4.63486">
        <ele>447.3</ele>
        <time>2023-06-14T15:42:02.322Z</time>
      </trkpt>
      <trkpt lat="44.79733" lon="4.63479">
        <ele>446.3</ele>
        <time>2023-06-14T15:42:05.485Z</time>
      </trkpt>
      <trkpt lat="44.79735" lon="4.63477">
        <ele>445.9</ele>
        <time>2023-06-14T15:42:06.592Z</time>
      </trkpt>
      <trkpt lat="44.79743" lon="4.63466">
        <ele>444</ele>
        <time>2023-06-14T15:42:11.613Z</time>
      </trkpt>
      <trkpt lat="44.79743" lon="4.63463">
        <ele>443.7</ele>
        <time>2023-06-14T15:42:12.569Z</time>
      </trkpt>
      <trkpt lat="44.79744" lon="4.63463">
        <ele>443.6</ele>
        <time>2023-06-14T15:42:13.019Z</time>
      </trkpt>
      <trkpt lat="44.79744" lon="4.63463">
        <ele>443.6</ele>
        <time>2023-06-14T15:42:13.019Z</time>
      </trkpt>
      <trkpt lat="44.79746" lon="4.63465">
        <ele>443.5</ele>
        <time>2023-06-14T15:42:14.107Z</time>
      </trkpt>
      <trkpt lat="44.79746" lon="4.63462">
        <ele>443.2</ele>
        <time>2023-06-14T15:42:15.062Z</time>
      </trkpt>
      <trkpt lat="44.79745" lon="4.63461">
        <ele>443.4</ele>
        <time>2023-06-14T15:42:15.610Z</time>
      </trkpt>
      <trkpt lat="44.79746" lon="4.6346">
        <ele>443.1</ele>
        <time>2023-06-14T15:42:16.167Z</time>
      </trkpt>
      <trkpt lat="44.79746" lon="4.6346">
        <ele>443.1</ele>
        <time>2023-06-14T15:42:16.167Z</time>
      </trkpt>
      <trkpt lat="44.79744" lon="4.63459">
        <ele>443.3</ele>
        <time>2023-06-14T15:42:17.111Z</time>
      </trkpt>
      <trkpt lat="44.79745" lon="4.63457">
        <ele>443</ele>
        <time>2023-06-14T15:42:17.884Z</time>
      </trkpt>
      <trkpt lat="44.79745" lon="4.63457">
        <ele>443</ele>
        <time>2023-06-14T15:42:17.884Z</time>
      </trkpt>
      <trkpt lat="44.79745" lon="4.63457">
        <ele>443</ele>
        <time>2023-06-14T15:42:17.884Z</time>
      </trkpt>
      <trkpt lat="44.79745" lon="4.63458">
        <ele>443</ele>
        <time>2023-06-14T15:42:18.202Z</time>
      </trkpt>
      <trkpt lat="44.79745" lon="4.63457">
        <ele>443</ele>
        <time>2023-06-14T15:42:18.519Z</time>
      </trkpt>
      <trkpt lat="44.79745" lon="4.63456">
        <ele>442.9</ele>
        <time>2023-06-14T15:42:18.840Z</time>
      </trkpt>
      <trkpt lat="44.79745" lon="4.63456">
        <ele>442.9</ele>
        <time>2023-06-14T15:42:18.840Z</time>
      </trkpt>
      <trkpt lat="44.79746" lon="4.63457">
        <ele>442.9</ele>
        <time>2023-06-14T15:42:19.388Z</time>
      </trkpt>
      <trkpt lat="44.79746" lon="4.63457">
        <ele>442.9</ele>
        <time>2023-06-14T15:42:19.388Z</time>
      </trkpt>
      <trkpt lat="44.79745" lon="4.63455">
        <ele>442.8</ele>
        <time>2023-06-14T15:42:20.161Z</time>
      </trkpt>
      <trkpt lat="44.79744" lon="4.63454">
        <ele>442.9</ele>
        <time>2023-06-14T15:42:20.704Z</time>
      </trkpt>
      <trkpt lat="44.79743" lon="4.63454">
        <ele>443</ele>
        <time>2023-06-14T15:42:21.154Z</time>
      </trkpt>
      <trkpt lat="44.79742" lon="4.63459">
        <ele>443.5</ele>
        <time>2023-06-14T15:42:22.807Z</time>
      </trkpt>
      <trkpt lat="44.79743" lon="4.63461">
        <ele>443.6</ele>
        <time>2023-06-14T15:42:23.584Z</time>
      </trkpt>
      <trkpt lat="44.79744" lon="4.6346">
        <ele>443.4</ele>
        <time>2023-06-14T15:42:24.141Z</time>
      </trkpt>
      <trkpt lat="44.79744" lon="4.63461">
        <ele>443.5</ele>
        <time>2023-06-14T15:42:24.461Z</time>
      </trkpt>
      <trkpt lat="44.79745" lon="4.6346">
        <ele>443.3</ele>
        <time>2023-06-14T15:42:25.011Z</time>
      </trkpt>
      <trkpt lat="44.79743" lon="4.63457">
        <ele>443.3</ele>
        <time>2023-06-14T15:42:26.309Z</time>
      </trkpt>
      <trkpt lat="44.79743" lon="4.63457">
        <ele>443.3</ele>
        <time>2023-06-14T15:42:26.309Z</time>
      </trkpt>
      <trkpt lat="44.79743" lon="4.63456">
        <ele>443.2</ele>
        <time>2023-06-14T15:42:26.629Z</time>
      </trkpt>
      <trkpt lat="44.79746" lon="4.63458">
        <ele>442.9</ele>
        <time>2023-06-14T15:42:28.111Z</time>
      </trkpt>
      <trkpt lat="44.79749" lon="4.63459">
        <ele>442.6</ele>
        <time>2023-06-14T15:42:29.486Z</time>
      </trkpt>
      <trkpt lat="44.79751" lon="4.63461">
        <ele>442.5</ele>
        <time>2023-06-14T15:42:30.578Z</time>
      </trkpt>
      <trkpt lat="44.79751" lon="4.63461">
        <ele>442.5</ele>
        <time>2023-06-14T15:42:30.578Z</time>
      </trkpt>
      <trkpt lat="44.79751" lon="4.63461">
        <ele>442.5</ele>
        <time>2023-06-14T15:42:30.578Z</time>
      </trkpt>
      <trkpt lat="44.7975" lon="4.63462">
        <ele>442.7</ele>
        <time>2023-06-14T15:42:31.130Z</time>
      </trkpt>
      <trkpt lat="44.7975" lon="4.63462">
        <ele>442.7</ele>
        <time>2023-06-14T15:42:31.130Z</time>
      </trkpt>
      <trkpt lat="44.7975" lon="4.63462">
        <ele>442.7</ele>
        <time>2023-06-14T15:42:31.130Z</time>
      </trkpt>
      <trkpt lat="44.7975" lon="4.63462">
        <ele>442.7</ele>
        <time>2023-06-14T15:42:31.130Z</time>
      </trkpt>
      <trkpt lat="44.79751" lon="4.63462">
        <ele>442.5</ele>
        <time>2023-06-14T15:42:31.585Z</time>
      </trkpt>
      <trkpt lat="44.79751" lon="4.63461">
        <ele>442.5</ele>
        <time>2023-06-14T15:42:31.897Z</time>
      </trkpt>
      <trkpt lat="44.7975" lon="4.63461">
        <ele>442.7</ele>
        <time>2023-06-14T15:42:32.352Z</time>
      </trkpt>
      <trkpt lat="44.7975" lon="4.63461">
        <ele>442.7</ele>
        <time>2023-06-14T15:42:32.352Z</time>
      </trkpt>
      <trkpt lat="44.79749" lon="4.6346">
        <ele>442.7</ele>
        <time>2023-06-14T15:42:32.895Z</time>
      </trkpt>
      <trkpt lat="44.79747" lon="4.63458">
        <ele>442.8</ele>
        <time>2023-06-14T15:42:33.989Z</time>
      </trkpt>
      <trkpt lat="44.79745" lon="4.63457">
        <ele>443</ele>
        <time>2023-06-14T15:42:34.936Z</time>
      </trkpt>
      <trkpt lat="44.79745" lon="4.63456">
        <ele>442.9</ele>
        <time>2023-06-14T15:42:35.257Z</time>
      </trkpt>
      <trkpt lat="44.79745" lon="4.63454">
        <ele>442.7</ele>
        <time>2023-06-14T15:42:35.892Z</time>
      </trkpt>
      <trkpt lat="44.79746" lon="4.63454">
        <ele>442.6</ele>
        <time>2023-06-14T15:42:36.342Z</time>
      </trkpt>
      <trkpt lat="44.79748" lon="4.63453">
        <ele>442.3</ele>
        <time>2023-06-14T15:42:37.290Z</time>
      </trkpt>
      <trkpt lat="44.79751" lon="4.63452">
        <ele>441.7</ele>
        <time>2023-06-14T15:42:38.681Z</time>
      </trkpt>
      <trkpt lat="44.79752" lon="4.63451">
        <ele>441.4</ele>
        <time>2023-06-14T15:42:39.245Z</time>
      </trkpt>
      <trkpt lat="44.79752" lon="4.63451">
        <ele>441.4</ele>
        <time>2023-06-14T15:42:39.245Z</time>
      </trkpt>
      <trkpt lat="44.7975" lon="4.63451">
        <ele>441.8</ele>
        <time>2023-06-14T15:42:40.157Z</time>
      </trkpt>
      <trkpt lat="44.79748" lon="4.63449">
        <ele>441.9</ele>
        <time>2023-06-14T15:42:41.245Z</time>
      </trkpt>
      <trkpt lat="44.79748" lon="4.63449">
        <ele>441.9</ele>
        <time>2023-06-14T15:42:41.245Z</time>
      </trkpt>
      <trkpt lat="44.79748" lon="4.6345">
        <ele>442</ele>
        <time>2023-06-14T15:42:41.560Z</time>
      </trkpt>
      <trkpt lat="44.79747" lon="4.6345">
        <ele>442.1</ele>
        <time>2023-06-14T15:42:42.010Z</time>
      </trkpt>
      <trkpt lat="44.79747" lon="4.6345">
        <ele>442.1</ele>
        <time>2023-06-14T15:42:42.010Z</time>
      </trkpt>
      <trkpt lat="44.79747" lon="4.63449">
        <ele>442</ele>
        <time>2023-06-14T15:42:42.326Z</time>
      </trkpt>
      <trkpt lat="44.79747" lon="4.63447">
        <ele>441.9</ele>
        <time>2023-06-14T15:42:42.962Z</time>
      </trkpt>
      <trkpt lat="44.79747" lon="4.63447">
        <ele>441.9</ele>
        <time>2023-06-14T15:42:42.962Z</time>
      </trkpt>
      <trkpt lat="44.79747" lon="4.63447">
        <ele>441.9</ele>
        <time>2023-06-14T15:42:42.962Z</time>
      </trkpt>
      <trkpt lat="44.79746" lon="4.63447">
        <ele>442.1</ele>
        <time>2023-06-14T15:42:43.405Z</time>
      </trkpt>
      <trkpt lat="44.79746" lon="4.63448">
        <ele>442.2</ele>
        <time>2023-06-14T15:42:43.725Z</time>
      </trkpt>
      <trkpt lat="44.79746" lon="4.63448">
        <ele>442.2</ele>
        <time>2023-06-14T15:42:43.725Z</time>
      </trkpt>
      <trkpt lat="44.79746" lon="4.63448">
        <ele>442.2</ele>
        <time>2023-06-14T15:42:43.725Z</time>
      </trkpt>
      <trkpt lat="44.79746" lon="4.63448">
        <ele>442.2</ele>
        <time>2023-06-14T15:42:43.725Z</time>
      </trkpt>
      <trkpt lat="44.79746" lon="4.63446">
        <ele>442</ele>
        <time>2023-06-14T15:42:44.361Z</time>
      </trkpt>
      <trkpt lat="44.79745" lon="4.63441">
        <ele>441.7</ele>
        <time>2023-06-14T15:42:46.008Z</time>
      </trkpt>
      <trkpt lat="44.79741" lon="4.63425">
        <ele>441</ele>
        <time>2023-06-14T15:42:51.365Z</time>
      </trkpt>
      <trkpt lat="44.7974" lon="4.63423">
        <ele>441</ele>
        <time>2023-06-14T15:42:52.137Z</time>
      </trkpt>
      <trkpt lat="44.79739" lon="4.63418">
        <ele>440.8</ele>
        <time>2023-06-14T15:42:53.783Z</time>
      </trkpt>
      <trkpt lat="44.7974" lon="4.63418">
        <ele>440.6</ele>
        <time>2023-06-14T15:42:54.238Z</time>
      </trkpt>
      <trkpt lat="44.79739" lon="4.63418">
        <ele>440.8</ele>
        <time>2023-06-14T15:42:54.692Z</time>
      </trkpt>
      <trkpt lat="44.79739" lon="4.63418">
        <ele>440.8</ele>
        <time>2023-06-14T15:42:54.692Z</time>
      </trkpt>
      <trkpt lat="44.79739" lon="4.63418">
        <ele>440.8</ele>
        <time>2023-06-14T15:42:54.692Z</time>
      </trkpt>
      <trkpt lat="44.79739" lon="4.63417">
        <ele>440.7</ele>
        <time>2023-06-14T15:42:55.007Z</time>
      </trkpt>
      <trkpt lat="44.79739" lon="4.63417">
        <ele>440.7</ele>
        <time>2023-06-14T15:42:55.007Z</time>
      </trkpt>
      <trkpt lat="44.7974" lon="4.63416">
        <ele>440.3</ele>
        <time>2023-06-14T15:42:55.586Z</time>
      </trkpt>
      <trkpt lat="44.79739" lon="4.63416">
        <ele>440.5</ele>
        <time>2023-06-14T15:42:56.041Z</time>
      </trkpt>
      <trkpt lat="44.79741" lon="4.63414">
        <ele>439.8</ele>
        <time>2023-06-14T15:42:57.163Z</time>
      </trkpt>
      <trkpt lat="44.79741" lon="4.63412">
        <ele>439.3</ele>
        <time>2023-06-14T15:42:57.826Z</time>
      </trkpt>
      <trkpt lat="44.79741" lon="4.63411">
        <ele>439.1</ele>
        <time>2023-06-14T15:42:58.161Z</time>
      </trkpt>
      <trkpt lat="44.79737" lon="4.634">
        <ele>437.6</ele>
        <time>2023-06-14T15:43:02.104Z</time>
      </trkpt>
      <trkpt lat="44.79734" lon="4.63393">
        <ele>436.5</ele>
        <time>2023-06-14T15:43:04.725Z</time>
      </trkpt>
      <trkpt lat="44.79734" lon="4.6339">
        <ele>436</ele>
        <time>2023-06-14T15:43:05.694Z</time>
      </trkpt>
      <trkpt lat="44.79733" lon="4.63385">
        <ele>435.1</ele>
        <time>2023-06-14T15:43:07.371Z</time>
      </trkpt>
      <trkpt lat="44.79732" lon="4.63383">
        <ele>435</ele>
        <time>2023-06-14T15:43:08.140Z</time>
      </trkpt>
      <trkpt lat="44.7973" lon="4.63378">
        <ele>434.2</ele>
        <time>2023-06-14T15:43:09.981Z</time>
      </trkpt>
      <trkpt lat="44.79728" lon="4.63375">
        <ele>434</ele>
        <time>2023-06-14T15:43:11.281Z</time>
      </trkpt>
      <trkpt lat="44.79727" lon="4.63372">
        <ele>433.4</ele>
        <time>2023-06-14T15:43:12.358Z</time>
      </trkpt>
      <trkpt lat="44.79726" lon="4.63369">
        <ele>433</ele>
        <time>2023-06-14T15:43:13.407Z</time>
      </trkpt>
      <trkpt lat="44.79725" lon="4.63366">
        <ele>432.7</ele>
        <time>2023-06-14T15:43:14.462Z</time>
      </trkpt>
      <trkpt lat="44.79724" lon="4.63364">
        <ele>432.4</ele>
        <time>2023-06-14T15:43:15.252Z</time>
      </trkpt>
      <trkpt lat="44.79721" lon="4.63358">
        <ele>431.8</ele>
        <time>2023-06-14T15:43:17.575Z</time>
      </trkpt>
      <trkpt lat="44.7972" lon="4.63355">
        <ele>431.2</ele>
        <time>2023-06-14T15:43:18.651Z</time>
      </trkpt>
      <trkpt lat="44.79717" lon="4.63345">
        <ele>429.9</ele>
        <time>2023-06-14T15:43:22.116Z</time>
      </trkpt>
      <trkpt lat="44.79712" lon="4.63336">
        <ele>428.9</ele>
        <time>2023-06-14T15:43:25.744Z</time>
      </trkpt>
      <trkpt lat="44.79711" lon="4.63332">
        <ele>428.2</ele>
        <time>2023-06-14T15:43:27.110Z</time>
      </trkpt>
      <trkpt lat="44.79707" lon="4.63318">
        <ele>425.1</ele>
        <time>2023-06-14T15:43:32.032Z</time>
      </trkpt>
      <trkpt lat="44.79706" lon="4.63308">
        <ele>422.6</ele>
        <time>2023-06-14T15:43:35.375Z</time>
      </trkpt>
      <trkpt lat="44.79704" lon="4.63297">
        <ele>420.2</ele>
        <time>2023-06-14T15:43:39.079Z</time>
      </trkpt>
      <trkpt lat="44.79703" lon="4.63293">
        <ele>419.4</ele>
        <time>2023-06-14T15:43:40.457Z</time>
      </trkpt>
      <trkpt lat="44.79701" lon="4.63285">
        <ele>417.8</ele>
        <time>2023-06-14T15:43:43.211Z</time>
      </trkpt>
      <trkpt lat="44.797" lon="4.6328">
        <ele>416.6</ele>
        <time>2023-06-14T15:43:44.914Z</time>
      </trkpt>
      <trkpt lat="44.79699" lon="4.63276">
        <ele>415.9</ele>
        <time>2023-06-14T15:43:46.288Z</time>
      </trkpt>
      <trkpt lat="44.79697" lon="4.63271">
        <ele>415</ele>
        <time>2023-06-14T15:43:48.127Z</time>
      </trkpt>
      <trkpt lat="44.79695" lon="4.63262">
        <ele>413.2</ele>
        <time>2023-06-14T15:43:51.195Z</time>
      </trkpt>
      <trkpt lat="44.7969" lon="4.63244">
        <ele>410.6</ele>
        <time>2023-06-14T15:43:57.384Z</time>
      </trkpt>
      <trkpt lat="44.79689" lon="4.63239">
        <ele>410.2</ele>
        <time>2023-06-14T15:43:59.028Z</time>
      </trkpt>
      <trkpt lat="44.79688" lon="4.63227">
        <ele>409.1</ele>
        <time>2023-06-14T15:44:02.868Z</time>
      </trkpt>
      <trkpt lat="44.79687" lon="4.63221">
        <ele>408.6</ele>
        <time>2023-06-14T15:44:04.824Z</time>
      </trkpt>
      <trkpt lat="44.79685" lon="4.6321">
        <ele>408</ele>
        <time>2023-06-14T15:44:08.414Z</time>
      </trkpt>
      <trkpt lat="44.79685" lon="4.63205">
        <ele>407.4</ele>
        <time>2023-06-14T15:44:10.008Z</time>
      </trkpt>
      <trkpt lat="44.79685" lon="4.63195">
        <ele>406.2</ele>
        <time>2023-06-14T15:44:13.201Z</time>
      </trkpt>
      <trkpt lat="44.79686" lon="4.63183">
        <ele>404.5</ele>
        <time>2023-06-14T15:44:17.073Z</time>
      </trkpt>
      <trkpt lat="44.79687" lon="4.63176">
        <ele>403.4</ele>
        <time>2023-06-14T15:44:19.365Z</time>
      </trkpt>
      <trkpt lat="44.79691" lon="4.63169">
        <ele>401.1</ele>
        <time>2023-06-14T15:44:22.356Z</time>
      </trkpt>
      <trkpt lat="44.79693" lon="4.63167">
        <ele>400.2</ele>
        <time>2023-06-14T15:44:23.500Z</time>
      </trkpt>
      <trkpt lat="44.79697" lon="4.6316">
        <ele>400.1</ele>
        <time>2023-06-14T15:44:26.340Z</time>
      </trkpt>
      <trkpt lat="44.79699" lon="4.63157">
        <ele>400</ele>
        <time>2023-06-14T15:44:27.638Z</time>
      </trkpt>
      <trkpt lat="44.79704" lon="4.63149">
        <ele>399.8</ele>
        <time>2023-06-14T15:44:31.001Z</time>
      </trkpt>
      <trkpt lat="44.7971" lon="4.63134">
        <ele>400.5</ele>
        <time>2023-06-14T15:44:36.444Z</time>
      </trkpt>
      <trkpt lat="44.79713" lon="4.63128">
        <ele>400.6</ele>
        <time>2023-06-14T15:44:38.760Z</time>
      </trkpt>
      <trkpt lat="44.79717" lon="4.63123">
        <ele>400.1</ele>
        <time>2023-06-14T15:44:41.146Z</time>
      </trkpt>
      <trkpt lat="44.79721" lon="4.63112">
        <ele>400.7</ele>
        <time>2023-06-14T15:44:45.054Z</time>
      </trkpt>
      <trkpt lat="44.79722" lon="4.63108">
        <ele>401.1</ele>
        <time>2023-06-14T15:44:46.402Z</time>
      </trkpt>
      <trkpt lat="44.79724" lon="4.63103">
        <ele>401.4</ele>
        <time>2023-06-14T15:44:48.214Z</time>
      </trkpt>
      <trkpt lat="44.79726" lon="4.63101">
        <ele>401</ele>
        <time>2023-06-14T15:44:49.318Z</time>
      </trkpt>
      <trkpt lat="44.79727" lon="4.631">
        <ele>400.9</ele>
        <time>2023-06-14T15:44:49.863Z</time>
      </trkpt>
      <trkpt lat="44.79728" lon="4.631">
        <ele>400.5</ele>
        <time>2023-06-14T15:44:50.336Z</time>
      </trkpt>
      <trkpt lat="44.79727" lon="4.63099">
        <ele>400.9</ele>
        <time>2023-06-14T15:44:50.905Z</time>
      </trkpt>
      <trkpt lat="44.79729" lon="4.63096">
        <ele>400.9</ele>
        <time>2023-06-14T15:44:52.208Z</time>
      </trkpt>
      <trkpt lat="44.7973" lon="4.63097">
        <ele>400.3</ele>
        <time>2023-06-14T15:44:52.807Z</time>
      </trkpt>
      <trkpt lat="44.79733" lon="4.63102">
        <ele>398.1</ele>
        <time>2023-06-14T15:44:55.048Z</time>
      </trkpt>
      <trkpt lat="44.79734" lon="4.63103">
        <ele>397.5</ele>
        <time>2023-06-14T15:44:55.653Z</time>
      </trkpt>
      <trkpt lat="44.79735" lon="4.63106">
        <ele>396.6</ele>
        <time>2023-06-14T15:44:56.760Z</time>
      </trkpt>
      <trkpt lat="44.79735" lon="4.63107">
        <ele>396.3</ele>
        <time>2023-06-14T15:44:57.093Z</time>
      </trkpt>
      <trkpt lat="44.79735" lon="4.63108">
        <ele>396.1</ele>
        <time>2023-06-14T15:44:57.422Z</time>
      </trkpt>
      <trkpt lat="44.79736" lon="4.63109">
        <ele>395.7</ele>
        <time>2023-06-14T15:44:57.985Z</time>
      </trkpt>
      <trkpt lat="44.79738" lon="4.63109">
        <ele>394.9</ele>
        <time>2023-06-14T15:44:58.930Z</time>
      </trkpt>
      <trkpt lat="44.79737" lon="4.6311">
        <ele>395.1</ele>
        <time>2023-06-14T15:44:59.480Z</time>
      </trkpt>
      <trkpt lat="44.79737" lon="4.63111">
        <ele>394.8</ele>
        <time>2023-06-14T15:44:59.809Z</time>
      </trkpt>
      <trkpt lat="44.79736" lon="4.63111">
        <ele>395.2</ele>
        <time>2023-06-14T15:45:00.281Z</time>
      </trkpt>
      <trkpt lat="44.79736" lon="4.6311">
        <ele>395.4</ele>
        <time>2023-06-14T15:45:00.609Z</time>
      </trkpt>
      <trkpt lat="44.79736" lon="4.63109">
        <ele>395.7</ele>
        <time>2023-06-14T15:45:00.943Z</time>
      </trkpt>
      <trkpt lat="44.79733" lon="4.63109">
        <ele>396.8</ele>
        <time>2023-06-14T15:45:02.353Z</time>
      </trkpt>
      <trkpt lat="44.79729" lon="4.63109">
        <ele>398.4</ele>
        <time>2023-06-14T15:45:04.228Z</time>
      </trkpt>
      <trkpt lat="44.79729" lon="4.63109">
        <ele>398.4</ele>
        <time>2023-06-14T15:45:04.228Z</time>
      </trkpt>
      <trkpt lat="44.79729" lon="4.63109">
        <ele>398.4</ele>
        <time>2023-06-14T15:45:04.228Z</time>
      </trkpt>
      <trkpt lat="44.79732" lon="4.63114">
        <ele>396.2</ele>
        <time>2023-06-14T15:45:06.468Z</time>
      </trkpt>
      <trkpt lat="44.7973" lon="4.63116">
        <ele>396.4</ele>
        <time>2023-06-14T15:45:07.566Z</time>
      </trkpt>
      <trkpt lat="44.7973" lon="4.63116">
        <ele>396.4</ele>
        <time>2023-06-14T15:45:07.566Z</time>
      </trkpt>
      <trkpt lat="44.7973" lon="4.63116">
        <ele>396.4</ele>
        <time>2023-06-14T15:45:07.566Z</time>
      </trkpt>
      <trkpt lat="44.79727" lon="4.63116">
        <ele>397.6</ele>
        <time>2023-06-14T15:45:08.975Z</time>
      </trkpt>
      <trkpt lat="44.79728" lon="4.63107">
        <ele>399</ele>
        <time>2023-06-14T15:45:11.902Z</time>
      </trkpt>
      <trkpt lat="44.7973" lon="4.63107">
        <ele>398.2</ele>
        <time>2023-06-14T15:45:12.840Z</time>
      </trkpt>
      <trkpt lat="44.79731" lon="4.63107">
        <ele>397.8</ele>
        <time>2023-06-14T15:45:13.312Z</time>
      </trkpt>
      <trkpt lat="44.79732" lon="4.63107">
        <ele>397.5</ele>
        <time>2023-06-14T15:45:13.785Z</time>
      </trkpt>
      <trkpt lat="44.79732" lon="4.63107">
        <ele>397.5</ele>
        <time>2023-06-14T15:45:13.785Z</time>
      </trkpt>
      <trkpt lat="44.79731" lon="4.63107">
        <ele>397.8</ele>
        <time>2023-06-14T15:45:14.257Z</time>
      </trkpt>
      <trkpt lat="44.79732" lon="4.63109">
        <ele>397.2</ele>
        <time>2023-06-14T15:45:15.071Z</time>
      </trkpt>
      <trkpt lat="44.79732" lon="4.63108">
        <ele>397.2</ele>
        <time>2023-06-14T15:45:15.388Z</time>
      </trkpt>
      <trkpt lat="44.7973" lon="4.63109">
        <ele>398</ele>
        <time>2023-06-14T15:45:16.385Z</time>
      </trkpt>
      <trkpt lat="44.79731" lon="4.63109">
        <ele>397.6</ele>
        <time>2023-06-14T15:45:16.857Z</time>
      </trkpt>
      <trkpt lat="44.7973" lon="4.6311">
        <ele>397.7</ele>
        <time>2023-06-14T15:45:17.408Z</time>
      </trkpt>
      <trkpt lat="44.79731" lon="4.6311">
        <ele>397.3</ele>
        <time>2023-06-14T15:45:17.880Z</time>
      </trkpt>
      <trkpt lat="44.79733" lon="4.6311">
        <ele>396.6</ele>
        <time>2023-06-14T15:45:18.818Z</time>
      </trkpt>
      <trkpt lat="44.79734" lon="4.6311">
        <ele>396.2</ele>
        <time>2023-06-14T15:45:19.290Z</time>
      </trkpt>
      <trkpt lat="44.79734" lon="4.63112">
        <ele>395.7</ele>
        <time>2023-06-14T15:45:19.952Z</time>
      </trkpt>
      <trkpt lat="44.79729" lon="4.63111">
        <ele>397.8</ele>
        <time>2023-06-14T15:45:22.355Z</time>
      </trkpt>
      <trkpt lat="44.79728" lon="4.63111">
        <ele>398.2</ele>
        <time>2023-06-14T15:45:22.827Z</time>
      </trkpt>
      <trkpt lat="44.7973" lon="4.6311">
        <ele>397.7</ele>
        <time>2023-06-14T15:45:23.789Z</time>
      </trkpt>
      <trkpt lat="44.79726" lon="4.63108">
        <ele>399.5</ele>
        <time>2023-06-14T15:45:25.802Z</time>
      </trkpt>
      <trkpt lat="44.79728" lon="4.63108">
        <ele>398.7</ele>
        <time>2023-06-14T15:45:26.740Z</time>
      </trkpt>
      <trkpt lat="44.7973" lon="4.63106">
        <ele>398.5</ele>
        <time>2023-06-14T15:45:27.832Z</time>
      </trkpt>
      <trkpt lat="44.7973" lon="4.6311">
        <ele>397.7</ele>
        <time>2023-06-14T15:45:29.133Z</time>
      </trkpt>
      <trkpt lat="44.79727" lon="4.6311">
        <ele>398.9</ele>
        <time>2023-06-14T15:45:30.543Z</time>
      </trkpt>
      <trkpt lat="44.79727" lon="4.6311">
        <ele>398.9</ele>
        <time>2023-06-14T15:45:30.543Z</time>
      </trkpt>
      <trkpt lat="44.79727" lon="4.6311">
        <ele>398.9</ele>
        <time>2023-06-14T15:45:30.543Z</time>
      </trkpt>
      <trkpt lat="44.79727" lon="4.63108">
        <ele>399.1</ele>
        <time>2023-06-14T15:45:31.187Z</time>
      </trkpt>
      <trkpt lat="44.79727" lon="4.63108">
        <ele>399.1</ele>
        <time>2023-06-14T15:45:31.187Z</time>
      </trkpt>
      <trkpt lat="44.79729" lon="4.63107">
        <ele>398.6</ele>
        <time>2023-06-14T15:45:32.155Z</time>
      </trkpt>
      <trkpt lat="44.79734" lon="4.63106">
        <ele>397</ele>
        <time>2023-06-14T15:45:34.494Z</time>
      </trkpt>
      <trkpt lat="44.79735" lon="4.63107">
        <ele>396.3</ele>
        <time>2023-06-14T15:45:35.098Z</time>
      </trkpt>
      <trkpt lat="44.79741" lon="4.63108">
        <ele>393.7</ele>
        <time>2023-06-14T15:45:37.988Z</time>
      </trkpt>
      <trkpt lat="44.79741" lon="4.6311">
        <ele>393.4</ele>
        <time>2023-06-14T15:45:38.631Z</time>
      </trkpt>
      <trkpt lat="44.79738" lon="4.6311">
        <ele>394.7</ele>
        <time>2023-06-14T15:45:40.058Z</time>
      </trkpt>
      <trkpt lat="44.79738" lon="4.6311">
        <ele>394.7</ele>
        <time>2023-06-14T15:45:40.058Z</time>
      </trkpt>
      <trkpt lat="44.79736" lon="4.63111">
        <ele>395.2</ele>
        <time>2023-06-14T15:45:41.027Z</time>
      </trkpt>
      <trkpt lat="44.79736" lon="4.63112">
        <ele>394.9</ele>
        <time>2023-06-14T15:45:41.360Z</time>
      </trkpt>
      <trkpt lat="44.79733" lon="4.63115">
        <ele>395.6</ele>
        <time>2023-06-14T15:45:43.015Z</time>
      </trkpt>
      <trkpt lat="44.79734" lon="4.63115">
        <ele>395.2</ele>
        <time>2023-06-14T15:45:43.488Z</time>
      </trkpt>
      <trkpt lat="44.79734" lon="4.63115">
        <ele>395.2</ele>
        <time>2023-06-14T15:45:43.488Z</time>
      </trkpt>
      <trkpt lat="44.79733" lon="4.63117">
        <ele>395</ele>
        <time>2023-06-14T15:45:44.262Z</time>
      </trkpt>
      <trkpt lat="44.79733" lon="4.63117">
        <ele>395</ele>
        <time>2023-06-14T15:45:44.262Z</time>
      </trkpt>
      <trkpt lat="44.79733" lon="4.6312">
        <ele>394.5</ele>
        <time>2023-06-14T15:45:45.231Z</time>
      </trkpt>
      <trkpt lat="44.79733" lon="4.63118">
        <ele>395</ele>
        <time>2023-06-14T15:45:45.893Z</time>
      </trkpt>
      <trkpt lat="44.79734" lon="4.63116">
        <ele>394.9</ele>
        <time>2023-06-14T15:45:46.671Z</time>
      </trkpt>
      <trkpt lat="44.79735" lon="4.63114">
        <ele>395.1</ele>
        <time>2023-06-14T15:45:47.445Z</time>
      </trkpt>
      <trkpt lat="44.79734" lon="4.63113">
        <ele>395.7</ele>
        <time>2023-06-14T15:45:48.046Z</time>
      </trkpt>
      <trkpt lat="44.79735" lon="4.63111">
        <ele>395.6</ele>
        <time>2023-06-14T15:45:48.824Z</time>
      </trkpt>
      <trkpt lat="44.79736" lon="4.63111">
        <ele>395.2</ele>
        <time>2023-06-14T15:45:49.289Z</time>
      </trkpt>
      <trkpt lat="44.79736" lon="4.63111">
        <ele>395.2</ele>
        <time>2023-06-14T15:45:49.289Z</time>
      </trkpt>
      <trkpt lat="44.79736" lon="4.63111">
        <ele>395.2</ele>
        <time>2023-06-14T15:45:49.289Z</time>
      </trkpt>
      <trkpt lat="44.79737" lon="4.63107">
        <ele>395.6</ele>
        <time>2023-06-14T15:45:50.634Z</time>
      </trkpt>
      <trkpt lat="44.79732" lon="4.631">
        <ele>399</ele>
        <time>2023-06-14T15:45:54.057Z</time>
      </trkpt>
      <trkpt lat="44.79731" lon="4.631">
        <ele>399.4</ele>
        <time>2023-06-14T15:45:54.530Z</time>
      </trkpt>
      <trkpt lat="44.79733" lon="4.631">
        <ele>398.6</ele>
        <time>2023-06-14T15:45:55.468Z</time>
      </trkpt>
      <trkpt lat="44.79734" lon="4.63101">
        <ele>398</ele>
        <time>2023-06-14T15:45:56.073Z</time>
      </trkpt>
      <trkpt lat="44.79731" lon="4.63095">
        <ele>400.2</ele>
        <time>2023-06-14T15:45:58.548Z</time>
      </trkpt>
      <trkpt lat="44.79731" lon="4.63095">
        <ele>400.2</ele>
        <time>2023-06-14T15:45:58.548Z</time>
      </trkpt>
      <trkpt lat="44.79731" lon="4.63092">
        <ele>400.9</ele>
        <time>2023-06-14T15:45:59.544Z</time>
      </trkpt>
      <trkpt lat="44.79731" lon="4.63092">
        <ele>400.9</ele>
        <time>2023-06-14T15:45:59.544Z</time>
      </trkpt>
      <trkpt lat="44.79731" lon="4.63092">
        <ele>400.9</ele>
        <time>2023-06-14T15:45:59.544Z</time>
      </trkpt>
      <trkpt lat="44.79731" lon="4.63092">
        <ele>400.9</ele>
        <time>2023-06-14T15:45:59.544Z</time>
      </trkpt>
      <trkpt lat="44.79731" lon="4.63093">
        <ele>400.7</ele>
        <time>2023-06-14T15:45:59.872Z</time>
      </trkpt>
      <trkpt lat="44.79732" lon="4.631">
        <ele>399</ele>
        <time>2023-06-14T15:46:02.225Z</time>
      </trkpt>
      <trkpt lat="44.7973" lon="4.63117">
        <ele>396.2</ele>
        <time>2023-06-14T15:46:07.780Z</time>
      </trkpt>
      <trkpt lat="44.79725" lon="4.63137">
        <ele>394.3</ele>
        <time>2023-06-14T15:46:14.513Z</time>
      </trkpt>
      <trkpt lat="44.79725" lon="4.63141">
        <ele>393.5</ele>
        <time>2023-06-14T15:46:15.815Z</time>
      </trkpt>
      <trkpt lat="44.7972" lon="4.63158">
        <ele>392</ele>
        <time>2023-06-14T15:46:21.653Z</time>
      </trkpt>
      <trkpt lat="44.79719" lon="4.63163">
        <ele>391.3</ele>
        <time>2023-06-14T15:46:23.314Z</time>
      </trkpt>
      <trkpt lat="44.79717" lon="4.63169">
        <ele>391.4</ele>
        <time>2023-06-14T15:46:25.407Z</time>
      </trkpt>
      <trkpt lat="44.79715" lon="4.63185">
        <ele>394.9</ele>
        <time>2023-06-14T15:46:30.713Z</time>
      </trkpt>
      <trkpt lat="44.79716" lon="4.6319">
        <ele>395.4</ele>
        <time>2023-06-14T15:46:32.367Z</time>
      </trkpt>
      <trkpt lat="44.7972" lon="4.63206">
        <ele>396.7</ele>
        <time>2023-06-14T15:46:37.745Z</time>
      </trkpt>
      <trkpt lat="44.79723" lon="4.63216">
        <ele>397.6</ele>
        <time>2023-06-14T15:46:41.192Z</time>
      </trkpt>
      <trkpt lat="44.79728" lon="4.63227">
        <ele>398</ele>
        <time>2023-06-14T15:46:45.315Z</time>
      </trkpt>
      <trkpt lat="44.7973" lon="4.63231">
        <ele>398.2</ele>
        <time>2023-06-14T15:46:46.857Z</time>
      </trkpt>
      <trkpt lat="44.79735" lon="4.63237">
        <ele>398.1</ele>
        <time>2023-06-14T15:46:49.782Z</time>
      </trkpt>
      <trkpt lat="44.79737" lon="4.63239">
        <ele>397.8</ele>
        <time>2023-06-14T15:46:50.877Z</time>
      </trkpt>
      <trkpt lat="44.79738" lon="4.6324">
        <ele>397.8</ele>
        <time>2023-06-14T15:46:51.423Z</time>
      </trkpt>
      <trkpt lat="44.79738" lon="4.63242">
        <ele>398.4</ele>
        <time>2023-06-14T15:46:52.090Z</time>
      </trkpt>
      <trkpt lat="44.79738" lon="4.63242">
        <ele>398.4</ele>
        <time>2023-06-14T15:46:52.090Z</time>
      </trkpt>
      <trkpt lat="44.79737" lon="4.63239">
        <ele>397.8</ele>
        <time>2023-06-14T15:46:53.157Z</time>
      </trkpt>
      <trkpt lat="44.79737" lon="4.63239">
        <ele>397.8</ele>
        <time>2023-06-14T15:46:53.157Z</time>
      </trkpt>
      <trkpt lat="44.79737" lon="4.63239">
        <ele>397.8</ele>
        <time>2023-06-14T15:46:53.157Z</time>
      </trkpt>
      <trkpt lat="44.79738" lon="4.63239">
        <ele>397.6</ele>
        <time>2023-06-14T15:46:53.616Z</time>
      </trkpt>
      <trkpt lat="44.79739" lon="4.63239">
        <ele>397.3</ele>
        <time>2023-06-14T15:46:54.067Z</time>
      </trkpt>
      <trkpt lat="44.7974" lon="4.63243">
        <ele>397.8</ele>
        <time>2023-06-14T15:46:55.415Z</time>
      </trkpt>
      <trkpt lat="44.79737" lon="4.63242">
        <ele>398.6</ele>
        <time>2023-06-14T15:46:56.824Z</time>
      </trkpt>
      <trkpt lat="44.79735" lon="4.63237">
        <ele>398.1</ele>
        <time>2023-06-14T15:46:58.649Z</time>
      </trkpt>
      <trkpt lat="44.79736" lon="4.63236">
        <ele>397.6</ele>
        <time>2023-06-14T15:46:59.225Z</time>
      </trkpt>
      <trkpt lat="44.79737" lon="4.63236">
        <ele>397.3</ele>
        <time>2023-06-14T15:46:59.684Z</time>
      </trkpt>
      <trkpt lat="44.79738" lon="4.63235">
        <ele>396.8</ele>
        <time>2023-06-14T15:47:00.269Z</time>
      </trkpt>
      <trkpt lat="44.79737" lon="4.63236">
        <ele>397.3</ele>
        <time>2023-06-14T15:47:00.855Z</time>
      </trkpt>
      <trkpt lat="44.79736" lon="4.63237">
        <ele>397.8</ele>
        <time>2023-06-14T15:47:01.437Z</time>
      </trkpt>
      <trkpt lat="44.79737" lon="4.63238">
        <ele>397.6</ele>
        <time>2023-06-14T15:47:01.995Z</time>
      </trkpt>
      <trkpt lat="44.79738" lon="4.63236">
        <ele>397.1</ele>
        <time>2023-06-14T15:47:02.793Z</time>
      </trkpt>
      <trkpt lat="44.79739" lon="4.63232">
        <ele>396</ele>
        <time>2023-06-14T15:47:04.194Z</time>
      </trkpt>
      <trkpt lat="44.79741" lon="4.63233">
        <ele>395.7</ele>
        <time>2023-06-14T15:47:05.154Z</time>
      </trkpt>
      <trkpt lat="44.79743" lon="4.63234">
        <ele>395.2</ele>
        <time>2023-06-14T15:47:06.117Z</time>
      </trkpt>
      <trkpt lat="44.79743" lon="4.63236">
        <ele>395.7</ele>
        <time>2023-06-14T15:47:06.787Z</time>
      </trkpt>
      <trkpt lat="44.79743" lon="4.63235">
        <ele>395.4</ele>
        <time>2023-06-14T15:47:07.121Z</time>
      </trkpt>
      <trkpt lat="44.79743" lon="4.63234">
        <ele>395.2</ele>
        <time>2023-06-14T15:47:07.456Z</time>
      </trkpt>
      <trkpt lat="44.79742" lon="4.63235">
        <ele>395.7</ele>
        <time>2023-06-14T15:47:08.043Z</time>
      </trkpt>
      <trkpt lat="44.79744" lon="4.63234">
        <ele>394.9</ele>
        <time>2023-06-14T15:47:09.043Z</time>
      </trkpt>
      <trkpt lat="44.79741" lon="4.63235">
        <ele>396</ele>
        <time>2023-06-14T15:47:10.477Z</time>
      </trkpt>
      <trkpt lat="44.79741" lon="4.63235">
        <ele>396</ele>
        <time>2023-06-14T15:47:10.477Z</time>
      </trkpt>
      <trkpt lat="44.79742" lon="4.63237">
        <ele>396.2</ele>
        <time>2023-06-14T15:47:11.253Z</time>
      </trkpt>
      <trkpt lat="44.79741" lon="4.63238">
        <ele>396.5</ele>
        <time>2023-06-14T15:47:11.804Z</time>
      </trkpt>
      <trkpt lat="44.79739" lon="4.63238">
        <ele>397.1</ele>
        <time>2023-06-14T15:47:12.730Z</time>
      </trkpt>
      <trkpt lat="44.79739" lon="4.63239">
        <ele>397.3</ele>
        <time>2023-06-14T15:47:13.064Z</time>
      </trkpt>
      <trkpt lat="44.79739" lon="4.63239">
        <ele>397.3</ele>
        <time>2023-06-14T15:47:13.064Z</time>
      </trkpt>
      <trkpt lat="44.79739" lon="4.63239">
        <ele>397.3</ele>
        <time>2023-06-14T15:47:13.064Z</time>
      </trkpt>
      <trkpt lat="44.79738" lon="4.63239">
        <ele>397.6</ele>
        <time>2023-06-14T15:47:13.515Z</time>
      </trkpt>
      <trkpt lat="44.79738" lon="4.63239">
        <ele>397.6</ele>
        <time>2023-06-14T15:47:13.515Z</time>
      </trkpt>
      <trkpt lat="44.79737" lon="4.6324">
        <ele>398.1</ele>
        <time>2023-06-14T15:47:14.097Z</time>
      </trkpt>
      <trkpt lat="44.79737" lon="4.6324">
        <ele>398.1</ele>
        <time>2023-06-14T15:47:14.097Z</time>
      </trkpt>
      <trkpt lat="44.79736" lon="4.63241">
        <ele>398.6</ele>
        <time>2023-06-14T15:47:14.681Z</time>
      </trkpt>
      <trkpt lat="44.79736" lon="4.63241">
        <ele>398.6</ele>
        <time>2023-06-14T15:47:14.681Z</time>
      </trkpt>
      <trkpt lat="44.79736" lon="4.63242">
        <ele>398.8</ele>
        <time>2023-06-14T15:47:15.014Z</time>
      </trkpt>
      <trkpt lat="44.79736" lon="4.63242">
        <ele>398.8</ele>
        <time>2023-06-14T15:47:15.014Z</time>
      </trkpt>
      <trkpt lat="44.79736" lon="4.63243">
        <ele>398.8</ele>
        <time>2023-06-14T15:47:15.326Z</time>
      </trkpt>
      <trkpt lat="44.79737" lon="4.63242">
        <ele>398.6</ele>
        <time>2023-06-14T15:47:15.881Z</time>
      </trkpt>
      <trkpt lat="44.79739" lon="4.63237">
        <ele>397.1</ele>
        <time>2023-06-14T15:47:17.794Z</time>
      </trkpt>
      <trkpt lat="44.79739" lon="4.63237">
        <ele>397.1</ele>
        <time>2023-06-14T15:47:17.794Z</time>
      </trkpt>
      <trkpt lat="44.79736" lon="4.63236">
        <ele>397.6</ele>
        <time>2023-06-14T15:47:19.179Z</time>
      </trkpt>
      <trkpt lat="44.79732" lon="4.63234">
        <ele>398.1</ele>
        <time>2023-06-14T15:47:21.076Z</time>
      </trkpt>
      <trkpt lat="44.79733" lon="4.63233">
        <ele>397.9</ele>
        <time>2023-06-14T15:47:21.625Z</time>
      </trkpt>
      <trkpt lat="44.79733" lon="4.63233">
        <ele>397.9</ele>
        <time>2023-06-14T15:47:21.625Z</time>
      </trkpt>
      <trkpt lat="44.79733" lon="4.63232">
        <ele>397.6</ele>
        <time>2023-06-14T15:47:21.957Z</time>
      </trkpt>
      <trkpt lat="44.79733" lon="4.63231">
        <ele>397.4</ele>
        <time>2023-06-14T15:47:22.290Z</time>
      </trkpt>
      <trkpt lat="44.79733" lon="4.63232">
        <ele>397.6</ele>
        <time>2023-06-14T15:47:22.622Z</time>
      </trkpt>
      <trkpt lat="44.79733" lon="4.63232">
        <ele>397.6</ele>
        <time>2023-06-14T15:47:22.622Z</time>
      </trkpt>
      <trkpt lat="44.79733" lon="4.6323">
        <ele>397.1</ele>
        <time>2023-06-14T15:47:23.282Z</time>
      </trkpt>
      <trkpt lat="44.79733" lon="4.63228">
        <ele>396.9</ele>
        <time>2023-06-14T15:47:23.919Z</time>
      </trkpt>
      <trkpt lat="44.79733" lon="4.63226">
        <ele>396.4</ele>
        <time>2023-06-14T15:47:24.583Z</time>
      </trkpt>
      <trkpt lat="44.79733" lon="4.63227">
        <ele>396.6</ele>
        <time>2023-06-14T15:47:24.916Z</time>
      </trkpt>
      <trkpt lat="44.79732" lon="4.63227">
        <ele>396.9</ele>
        <time>2023-06-14T15:47:25.369Z</time>
      </trkpt>
      <trkpt lat="44.79731" lon="4.63229">
        <ele>397.7</ele>
        <time>2023-06-14T15:47:26.198Z</time>
      </trkpt>
      <trkpt lat="44.79734" lon="4.63229">
        <ele>396.9</ele>
        <time>2023-06-14T15:47:27.570Z</time>
      </trkpt>
      <trkpt lat="44.79733" lon="4.63227">
        <ele>396.6</ele>
        <time>2023-06-14T15:47:28.348Z</time>
      </trkpt>
      <trkpt lat="44.79732" lon="4.63226">
        <ele>396.7</ele>
        <time>2023-06-14T15:47:28.890Z</time>
      </trkpt>
      <trkpt lat="44.79732" lon="4.63226">
        <ele>396.7</ele>
        <time>2023-06-14T15:47:28.890Z</time>
      </trkpt>
      <trkpt lat="44.79733" lon="4.63227">
        <ele>396.6</ele>
        <time>2023-06-14T15:47:29.433Z</time>
      </trkpt>
      <trkpt lat="44.79733" lon="4.63227">
        <ele>396.6</ele>
        <time>2023-06-14T15:47:29.433Z</time>
      </trkpt>
      <trkpt lat="44.79733" lon="4.63229">
        <ele>397.1</ele>
        <time>2023-06-14T15:47:30.093Z</time>
      </trkpt>
      <trkpt lat="44.79733" lon="4.6323">
        <ele>397.1</ele>
        <time>2023-06-14T15:47:30.410Z</time>
      </trkpt>
      <trkpt lat="44.79738" lon="4.63233">
        <ele>396.6</ele>
        <time>2023-06-14T15:47:32.842Z</time>
      </trkpt>
      <trkpt lat="44.7974" lon="4.63235">
        <ele>396.2</ele>
        <time>2023-06-14T15:47:33.939Z</time>
      </trkpt>
      <trkpt lat="44.79742" lon="4.63238">
        <ele>396.2</ele>
        <time>2023-06-14T15:47:35.236Z</time>
      </trkpt>
      <trkpt lat="44.79742" lon="4.63238">
        <ele>396.2</ele>
        <time>2023-06-14T15:47:35.236Z</time>
      </trkpt>
      <trkpt lat="44.79741" lon="4.63239">
        <ele>396.7</ele>
        <time>2023-06-14T15:47:35.817Z</time>
      </trkpt>
      <trkpt lat="44.79741" lon="4.63239">
        <ele>396.7</ele>
        <time>2023-06-14T15:47:35.817Z</time>
      </trkpt>
      <trkpt lat="44.79742" lon="4.63239">
        <ele>396.5</ele>
        <time>2023-06-14T15:47:36.268Z</time>
      </trkpt>
      <trkpt lat="44.79741" lon="4.6324">
        <ele>397</ele>
        <time>2023-06-14T15:47:36.845Z</time>
      </trkpt>
      <trkpt lat="44.79741" lon="4.63241">
        <ele>397.3</ele>
        <time>2023-06-14T15:47:37.180Z</time>
      </trkpt>
      <trkpt lat="44.79742" lon="4.63241">
        <ele>397</ele>
        <time>2023-06-14T15:47:37.631Z</time>
      </trkpt>
      <trkpt lat="44.79743" lon="4.63241">
        <ele>396.8</ele>
        <time>2023-06-14T15:47:38.089Z</time>
      </trkpt>
      <trkpt lat="44.79744" lon="4.63241">
        <ele>396.5</ele>
        <time>2023-06-14T15:47:38.547Z</time>
      </trkpt>
      <trkpt lat="44.79747" lon="4.63239">
        <ele>395.2</ele>
        <time>2023-06-14T15:47:40.105Z</time>
      </trkpt>
      <trkpt lat="44.79748" lon="4.63238">
        <ele>394.7</ele>
        <time>2023-06-14T15:47:40.692Z</time>
      </trkpt>
      <trkpt lat="44.79749" lon="4.63239">
        <ele>394.7</ele>
        <time>2023-06-14T15:47:41.241Z</time>
      </trkpt>
      <trkpt lat="44.7975" lon="4.63239">
        <ele>394.5</ele>
        <time>2023-06-14T15:47:41.692Z</time>
      </trkpt>
      <trkpt lat="44.79751" lon="4.6324">
        <ele>394.5</ele>
        <time>2023-06-14T15:47:42.238Z</time>
      </trkpt>
      <trkpt lat="44.79751" lon="4.6324">
        <ele>394.5</ele>
        <time>2023-06-14T15:47:42.238Z</time>
      </trkpt>
      <trkpt lat="44.79751" lon="4.63242">
        <ele>395.1</ele>
        <time>2023-06-14T15:47:42.911Z</time>
      </trkpt>
      <trkpt lat="44.79753" lon="4.63244">
        <ele>394.9</ele>
        <time>2023-06-14T15:47:44.002Z</time>
      </trkpt>
      <trkpt lat="44.7976" lon="4.63249">
        <ele>394.3</ele>
        <time>2023-06-14T15:47:47.502Z</time>
      </trkpt>
      <trkpt lat="44.79776" lon="4.63262">
        <ele>394</ele>
        <time>2023-06-14T15:47:55.714Z</time>
      </trkpt>
      <trkpt lat="44.79788" lon="4.63268">
        <ele>392.4</ele>
        <time>2023-06-14T15:48:01.414Z</time>
      </trkpt>
      <trkpt lat="44.79795" lon="4.63271">
        <ele>391.6</ele>
        <time>2023-06-14T15:48:04.687Z</time>
      </trkpt>
      <trkpt lat="44.79813" lon="4.63276">
        <ele>388.2</ele>
        <time>2023-06-14T15:48:12.956Z</time>
      </trkpt>
      <trkpt lat="44.79817" lon="4.63277">
        <ele>387.2</ele>
        <time>2023-06-14T15:48:14.804Z</time>
      </trkpt>
      <trkpt lat="44.79829" lon="4.63277">
        <ele>384</ele>
        <time>2023-06-14T15:48:20.289Z</time>
      </trkpt>
      <trkpt lat="44.79836" lon="4.63279">
        <ele>382.7</ele>
        <time>2023-06-14T15:48:23.514Z</time>
      </trkpt>
      <trkpt lat="44.79844" lon="4.63279">
        <ele>380.5</ele>
        <time>2023-06-14T15:48:27.178Z</time>
      </trkpt>
      <trkpt lat="44.79852" lon="4.63277">
        <ele>377.5</ele>
        <time>2023-06-14T15:48:30.980Z</time>
      </trkpt>
      <trkpt lat="44.79864" lon="4.63277">
        <ele>374.1</ele>
        <time>2023-06-14T15:48:36.493Z</time>
      </trkpt>
      <trkpt lat="44.79868" lon="4.63276">
        <ele>373</ele>
        <time>2023-06-14T15:48:38.349Z</time>
      </trkpt>
      <trkpt lat="44.79877" lon="4.63276">
        <ele>370.4</ele>
        <time>2023-06-14T15:48:42.477Z</time>
      </trkpt>
      <trkpt lat="44.79884" lon="4.63278">
        <ele>368.8</ele>
        <time>2023-06-14T15:48:45.724Z</time>
      </trkpt>
      <trkpt lat="44.79889" lon="4.63281">
        <ele>368.2</ele>
        <time>2023-06-14T15:48:48.150Z</time>
      </trkpt>
      <trkpt lat="44.79891" lon="4.63281">
        <ele>367.6</ele>
        <time>2023-06-14T15:48:49.064Z</time>
      </trkpt>
      <trkpt lat="44.79892" lon="4.6328">
        <ele>367.3</ele>
        <time>2023-06-14T15:48:49.632Z</time>
      </trkpt>
      <trkpt lat="44.79892" lon="4.6328">
        <ele>367.3</ele>
        <time>2023-06-14T15:48:49.632Z</time>
      </trkpt>
      <trkpt lat="44.79892" lon="4.6328">
        <ele>367.3</ele>
        <time>2023-06-14T15:48:49.632Z</time>
      </trkpt>
      <trkpt lat="44.79891" lon="4.63278">
        <ele>366.8</ele>
        <time>2023-06-14T15:48:50.424Z</time>
      </trkpt>
      <trkpt lat="44.79889" lon="4.63273">
        <ele>365.8</ele>
        <time>2023-06-14T15:48:52.281Z</time>
      </trkpt>
      <trkpt lat="44.79885" lon="4.63268">
        <ele>365.4</ele>
        <time>2023-06-14T15:48:54.660Z</time>
      </trkpt>
      <trkpt lat="44.79882" lon="4.63267">
        <ele>366.2</ele>
        <time>2023-06-14T15:48:56.076Z</time>
      </trkpt>
      <trkpt lat="44.79881" lon="4.63266">
        <ele>366.1</ele>
        <time>2023-06-14T15:48:56.626Z</time>
      </trkpt>
      <trkpt lat="44.7988" lon="4.63265">
        <ele>366</ele>
        <time>2023-06-14T15:48:57.173Z</time>
      </trkpt>
      <trkpt lat="44.7988" lon="4.63263">
        <ele>365.7</ele>
        <time>2023-06-14T15:48:57.826Z</time>
      </trkpt>
      <trkpt lat="44.79877" lon="4.63263">
        <ele>366.7</ele>
        <time>2023-06-14T15:48:59.218Z</time>
      </trkpt>
      <trkpt lat="44.79877" lon="4.63263">
        <ele>366.7</ele>
        <time>2023-06-14T15:48:59.218Z</time>
      </trkpt>
      <trkpt lat="44.79877" lon="4.63263">
        <ele>366.7</ele>
        <time>2023-06-14T15:48:59.218Z</time>
      </trkpt>
      <trkpt lat="44.79873" lon="4.63257">
        <ele>366</ele>
        <time>2023-06-14T15:49:01.827Z</time>
      </trkpt>
      <trkpt lat="44.79871" lon="4.63254">
        <ele>365.9</ele>
        <time>2023-06-14T15:49:03.130Z</time>
      </trkpt>
      <trkpt lat="44.79863" lon="4.63249">
        <ele>367.1</ele>
        <time>2023-06-14T15:49:07.049Z</time>
      </trkpt>
      <trkpt lat="44.79861" lon="4.63248">
        <ele>367.3</ele>
        <time>2023-06-14T15:49:07.996Z</time>
      </trkpt>
      <trkpt lat="44.79856" lon="4.63244">
        <ele>367.9</ele>
        <time>2023-06-14T15:49:10.562Z</time>
      </trkpt>
      <trkpt lat="44.79849" lon="4.63238">
        <ele>368.6</ele>
        <time>2023-06-14T15:49:14.218Z</time>
      </trkpt>
      <trkpt lat="44.79843" lon="4.63231">
        <ele>368.8</ele>
        <time>2023-06-14T15:49:17.686Z</time>
      </trkpt>
      <trkpt lat="44.79839" lon="4.63225">
        <ele>368.5</ele>
        <time>2023-06-14T15:49:20.281Z</time>
      </trkpt>
      <trkpt lat="44.79837" lon="4.63222">
        <ele>368.5</ele>
        <time>2023-06-14T15:49:21.583Z</time>
      </trkpt>
      <trkpt lat="44.79833" lon="4.63216">
        <ele>368.6</ele>
        <time>2023-06-14T15:49:24.178Z</time>
      </trkpt>
      <trkpt lat="44.79829" lon="4.6321">
        <ele>367.9</ele>
        <time>2023-06-14T15:49:26.791Z</time>
      </trkpt>
      <trkpt lat="44.79825" lon="4.63205">
        <ele>367.6</ele>
        <time>2023-06-14T15:49:29.172Z</time>
      </trkpt>
      <trkpt lat="44.7982" lon="4.632">
        <ele>367.7</ele>
        <time>2023-06-14T15:49:31.900Z</time>
      </trkpt>
      <trkpt lat="44.79817" lon="4.63198">
        <ele>368.1</ele>
        <time>2023-06-14T15:49:33.386Z</time>
      </trkpt>
      <trkpt lat="44.79814" lon="4.63196">
        <ele>368.3</ele>
        <time>2023-06-14T15:49:34.862Z</time>
      </trkpt>
      <trkpt lat="44.79808" lon="4.63194">
        <ele>369.6</ele>
        <time>2023-06-14T15:49:37.655Z</time>
      </trkpt>
      <trkpt lat="44.79805" lon="4.63193">
        <ele>370.1</ele>
        <time>2023-06-14T15:49:39.038Z</time>
      </trkpt>
      <trkpt lat="44.79803" lon="4.6319">
        <ele>370</ele>
        <time>2023-06-14T15:49:40.337Z</time>
      </trkpt>
      <trkpt lat="44.79803" lon="4.63187">
        <ele>369</ele>
        <time>2023-06-14T15:49:41.354Z</time>
      </trkpt>
      <trkpt lat="44.79804" lon="4.63185">
        <ele>368.4</ele>
        <time>2023-06-14T15:49:42.164Z</time>
      </trkpt>
      <trkpt lat="44.79806" lon="4.63183">
        <ele>367.3</ele>
        <time>2023-06-14T15:49:43.345Z</time>
      </trkpt>
      <trkpt lat="44.79806" lon="4.63182">
        <ele>367</ele>
        <time>2023-06-14T15:49:43.681Z</time>
      </trkpt>
      <trkpt lat="44.79806" lon="4.6318">
        <ele>366.7</ele>
        <time>2023-06-14T15:49:44.328Z</time>
      </trkpt>
      <trkpt lat="44.79808" lon="4.63177">
        <ele>365.5</ele>
        <time>2023-06-14T15:49:45.706Z</time>
      </trkpt>
      <trkpt lat="44.79812" lon="4.63172">
        <ele>363.1</ele>
        <time>2023-06-14T15:49:48.273Z</time>
      </trkpt>
      <trkpt lat="44.79815" lon="4.63167">
        <ele>361</ele>
        <time>2023-06-14T15:49:50.499Z</time>
      </trkpt>
      <trkpt lat="44.79819" lon="4.63162">
        <ele>360.4</ele>
        <time>2023-06-14T15:49:52.888Z</time>
      </trkpt>
      <trkpt lat="44.79824" lon="4.63158">
        <ele>359.3</ele>
        <time>2023-06-14T15:49:55.488Z</time>
      </trkpt>
      <trkpt lat="44.79832" lon="4.63153">
        <ele>357.4</ele>
        <time>2023-06-14T15:49:59.449Z</time>
      </trkpt>
      <trkpt lat="44.79835" lon="4.63151">
        <ele>356.5</ele>
        <time>2023-06-14T15:50:00.970Z</time>
      </trkpt>
      <trkpt lat="44.79841" lon="4.63148">
        <ele>354.5</ele>
        <time>2023-06-14T15:50:03.912Z</time>
      </trkpt>
      <trkpt lat="44.79851" lon="4.63147">
        <ele>350.8</ele>
        <time>2023-06-14T15:50:08.608Z</time>
      </trkpt>
      <trkpt lat="44.79857" lon="4.63144">
        <ele>348.9</ele>
        <time>2023-06-14T15:50:11.542Z</time>
      </trkpt>
      <trkpt lat="44.79861" lon="4.63141">
        <ele>347.6</ele>
        <time>2023-06-14T15:50:13.624Z</time>
      </trkpt>
      <trkpt lat="44.79864" lon="4.6314">
        <ele>346.5</ele>
        <time>2023-06-14T15:50:15.068Z</time>
      </trkpt>
      <trkpt lat="44.79865" lon="4.63141">
        <ele>346</ele>
        <time>2023-06-14T15:50:15.638Z</time>
      </trkpt>
      <trkpt lat="44.79866" lon="4.6314">
        <ele>345.7</ele>
        <time>2023-06-14T15:50:16.199Z</time>
      </trkpt>
      <trkpt lat="44.79867" lon="4.6314">
        <ele>345.4</ele>
        <time>2023-06-14T15:50:16.669Z</time>
      </trkpt>
      <trkpt lat="44.79869" lon="4.63139">
        <ele>344.7</ele>
        <time>2023-06-14T15:50:17.647Z</time>
      </trkpt>
      <trkpt lat="44.7987" lon="4.63136">
        <ele>344.5</ele>
        <time>2023-06-14T15:50:18.693Z</time>
      </trkpt>
      <trkpt lat="44.79869" lon="4.63136">
        <ele>344.9</ele>
        <time>2023-06-14T15:50:19.163Z</time>
      </trkpt>
      <trkpt lat="44.79868" lon="4.63137">
        <ele>345.2</ele>
        <time>2023-06-14T15:50:19.721Z</time>
      </trkpt>
      <trkpt lat="44.79868" lon="4.63138">
        <ele>345.1</ele>
        <time>2023-06-14T15:50:20.040Z</time>
      </trkpt>
      <trkpt lat="44.79869" lon="4.6314">
        <ele>344.7</ele>
        <time>2023-06-14T15:50:20.831Z</time>
      </trkpt>
      <trkpt lat="44.79867" lon="4.63139">
        <ele>345.5</ele>
        <time>2023-06-14T15:50:21.826Z</time>
      </trkpt>
      <trkpt lat="44.79865" lon="4.6314">
        <ele>346.1</ele>
        <time>2023-06-14T15:50:22.810Z</time>
      </trkpt>
      <trkpt lat="44.79866" lon="4.63139">
        <ele>345.8</ele>
        <time>2023-06-14T15:50:23.371Z</time>
      </trkpt>
      <trkpt lat="44.79867" lon="4.63139">
        <ele>345.5</ele>
        <time>2023-06-14T15:50:23.841Z</time>
      </trkpt>
      <trkpt lat="44.79867" lon="4.6314">
        <ele>345.4</ele>
        <time>2023-06-14T15:50:24.160Z</time>
      </trkpt>
      <trkpt lat="44.79867" lon="4.63141">
        <ele>345.3</ele>
        <time>2023-06-14T15:50:24.478Z</time>
      </trkpt>
      <trkpt lat="44.79867" lon="4.63141">
        <ele>345.3</ele>
        <time>2023-06-14T15:50:24.478Z</time>
      </trkpt>
      <trkpt lat="44.79867" lon="4.63141">
        <ele>345.3</ele>
        <time>2023-06-14T15:50:24.478Z</time>
      </trkpt>
      <trkpt lat="44.79868" lon="4.63141">
        <ele>344.9</ele>
        <time>2023-06-14T15:50:24.942Z</time>
      </trkpt>
      <trkpt lat="44.7987" lon="4.6314">
        <ele>344.3</ele>
        <time>2023-06-14T15:50:25.926Z</time>
      </trkpt>
      <trkpt lat="44.79871" lon="4.63139">
        <ele>344</ele>
        <time>2023-06-14T15:50:26.480Z</time>
      </trkpt>
      <trkpt lat="44.79871" lon="4.63136">
        <ele>344.1</ele>
        <time>2023-06-14T15:50:27.424Z</time>
      </trkpt>
      <trkpt lat="44.7987" lon="4.63136">
        <ele>344.5</ele>
        <time>2023-06-14T15:50:27.887Z</time>
      </trkpt>
      <trkpt lat="44.7987" lon="4.63135">
        <ele>344.6</ele>
        <time>2023-06-14T15:50:28.206Z</time>
      </trkpt>
      <trkpt lat="44.79868" lon="4.63135">
        <ele>345.3</ele>
        <time>2023-06-14T15:50:29.147Z</time>
      </trkpt>
      <trkpt lat="44.79868" lon="4.63135">
        <ele>345.3</ele>
        <time>2023-06-14T15:50:29.147Z</time>
      </trkpt>
      <trkpt lat="44.79869" lon="4.6314">
        <ele>344.7</ele>
        <time>2023-06-14T15:50:30.807Z</time>
      </trkpt>
      <trkpt lat="44.7987" lon="4.63139">
        <ele>344.4</ele>
        <time>2023-06-14T15:50:31.368Z</time>
      </trkpt>
      <trkpt lat="44.79871" lon="4.63138">
        <ele>344</ele>
        <time>2023-06-14T15:50:31.926Z</time>
      </trkpt>
      <trkpt lat="44.79871" lon="4.63139">
        <ele>344</ele>
        <time>2023-06-14T15:50:32.239Z</time>
      </trkpt>
      <trkpt lat="44.79871" lon="4.63139">
        <ele>344</ele>
        <time>2023-06-14T15:50:32.239Z</time>
      </trkpt>
      <trkpt lat="44.79871" lon="4.63139">
        <ele>344</ele>
        <time>2023-06-14T15:50:32.239Z</time>
      </trkpt>
      <trkpt lat="44.79872" lon="4.63141">
        <ele>343.5</ele>
        <time>2023-06-14T15:50:33.042Z</time>
      </trkpt>
      <trkpt lat="44.79872" lon="4.63143">
        <ele>343.4</ele>
        <time>2023-06-14T15:50:33.672Z</time>
      </trkpt>
      <trkpt lat="44.79872" lon="4.63145">
        <ele>343.3</ele>
        <time>2023-06-14T15:50:34.304Z</time>
      </trkpt>
      <trkpt lat="44.79871" lon="4.63145">
        <ele>343.6</ele>
        <time>2023-06-14T15:50:34.774Z</time>
      </trkpt>
      <trkpt lat="44.7987" lon="4.63145">
        <ele>344</ele>
        <time>2023-06-14T15:50:35.237Z</time>
      </trkpt>
      <trkpt lat="44.79871" lon="4.63144">
        <ele>343.7</ele>
        <time>2023-06-14T15:50:35.789Z</time>
      </trkpt>
      <trkpt lat="44.79871" lon="4.63144">
        <ele>343.7</ele>
        <time>2023-06-14T15:50:35.789Z</time>
      </trkpt>
      <trkpt lat="44.79871" lon="4.63143">
        <ele>343.8</ele>
        <time>2023-06-14T15:50:36.107Z</time>
      </trkpt>
      <trkpt lat="44.79871" lon="4.63143">
        <ele>343.8</ele>
        <time>2023-06-14T15:50:36.107Z</time>
      </trkpt>
      <trkpt lat="44.79872" lon="4.63142">
        <ele>343.4</ele>
        <time>2023-06-14T15:50:36.674Z</time>
      </trkpt>
      <trkpt lat="44.79872" lon="4.63141">
        <ele>343.5</ele>
        <time>2023-06-14T15:50:36.988Z</time>
      </trkpt>
      <trkpt lat="44.79872" lon="4.63141">
        <ele>343.5</ele>
        <time>2023-06-14T15:50:36.988Z</time>
      </trkpt>
      <trkpt lat="44.79873" lon="4.63143">
        <ele>343.1</ele>
        <time>2023-06-14T15:50:37.779Z</time>
      </trkpt>
      <trkpt lat="44.79872" lon="4.63142">
        <ele>343.4</ele>
        <time>2023-06-14T15:50:38.346Z</time>
      </trkpt>
      <trkpt lat="44.79873" lon="4.63143">
        <ele>343.1</ele>
        <time>2023-06-14T15:50:38.913Z</time>
      </trkpt>
      <trkpt lat="44.79873" lon="4.63143">
        <ele>343.1</ele>
        <time>2023-06-14T15:50:38.913Z</time>
      </trkpt>
      <trkpt lat="44.79873" lon="4.63144">
        <ele>343</ele>
        <time>2023-06-14T15:50:39.232Z</time>
      </trkpt>
      <trkpt lat="44.79873" lon="4.63144">
        <ele>343</ele>
        <time>2023-06-14T15:50:39.232Z</time>
      </trkpt>
      <trkpt lat="44.79873" lon="4.63144">
        <ele>343</ele>
        <time>2023-06-14T15:50:39.232Z</time>
      </trkpt>
      <trkpt lat="44.79873" lon="4.63144">
        <ele>343</ele>
        <time>2023-06-14T15:50:39.232Z</time>
      </trkpt>
      <trkpt lat="44.79873" lon="4.63143">
        <ele>343.1</ele>
        <time>2023-06-14T15:50:39.550Z</time>
      </trkpt>
      <trkpt lat="44.79872" lon="4.63141">
        <ele>343.5</ele>
        <time>2023-06-14T15:50:40.342Z</time>
      </trkpt>
      <trkpt lat="44.79876" lon="4.63131">
        <ele>342.6</ele>
        <time>2023-06-14T15:50:43.986Z</time>
      </trkpt>
      <trkpt lat="44.79875" lon="4.63131">
        <ele>343</ele>
        <time>2023-06-14T15:50:44.457Z</time>
      </trkpt>
      <trkpt lat="44.79874" lon="4.63131">
        <ele>343.3</ele>
        <time>2023-06-14T15:50:44.928Z</time>
      </trkpt>
      <trkpt lat="44.79873" lon="4.63131">
        <ele>343.7</ele>
        <time>2023-06-14T15:50:45.392Z</time>
      </trkpt>
      <trkpt lat="44.79872" lon="4.63134">
        <ele>343.9</ele>
        <time>2023-06-14T15:50:46.441Z</time>
      </trkpt>
      <trkpt lat="44.7987" lon="4.63134">
        <ele>344.6</ele>
        <time>2023-06-14T15:50:47.375Z</time>
      </trkpt>
      <trkpt lat="44.7987" lon="4.63135">
        <ele>344.6</ele>
        <time>2023-06-14T15:50:47.692Z</time>
      </trkpt>
      <trkpt lat="44.79872" lon="4.63137">
        <ele>343.7</ele>
        <time>2023-06-14T15:50:48.835Z</time>
      </trkpt>
      <trkpt lat="44.79872" lon="4.63138">
        <ele>343.6</ele>
        <time>2023-06-14T15:50:49.153Z</time>
      </trkpt>
      <trkpt lat="44.79872" lon="4.63139">
        <ele>343.6</ele>
        <time>2023-06-14T15:50:49.466Z</time>
      </trkpt>
      <trkpt lat="44.79872" lon="4.63139">
        <ele>343.6</ele>
        <time>2023-06-14T15:50:49.466Z</time>
      </trkpt>
      <trkpt lat="44.79873" lon="4.63138">
        <ele>343.3</ele>
        <time>2023-06-14T15:50:50.030Z</time>
      </trkpt>
      <trkpt lat="44.79872" lon="4.63138">
        <ele>343.6</ele>
        <time>2023-06-14T15:50:50.501Z</time>
      </trkpt>
      <trkpt lat="44.79872" lon="4.63138">
        <ele>343.6</ele>
        <time>2023-06-14T15:50:50.501Z</time>
      </trkpt>
      <trkpt lat="44.79872" lon="4.63136">
        <ele>343.8</ele>
        <time>2023-06-14T15:50:51.133Z</time>
      </trkpt>
      <trkpt lat="44.79871" lon="4.63134">
        <ele>344.2</ele>
        <time>2023-06-14T15:50:51.928Z</time>
      </trkpt>
      <trkpt lat="44.79872" lon="4.63136">
        <ele>343.8</ele>
        <time>2023-06-14T15:50:52.724Z</time>
      </trkpt>
      <trkpt lat="44.79872" lon="4.63136">
        <ele>343.8</ele>
        <time>2023-06-14T15:50:52.724Z</time>
      </trkpt>
      <trkpt lat="44.79872" lon="4.63136">
        <ele>343.8</ele>
        <time>2023-06-14T15:50:52.724Z</time>
      </trkpt>
      <trkpt lat="44.79872" lon="4.63136">
        <ele>343.8</ele>
        <time>2023-06-14T15:50:52.724Z</time>
      </trkpt>
      <trkpt lat="44.79873" lon="4.63137">
        <ele>343.3</ele>
        <time>2023-06-14T15:50:53.297Z</time>
      </trkpt>
      <trkpt lat="44.79874" lon="4.63138">
        <ele>342.9</ele>
        <time>2023-06-14T15:50:53.866Z</time>
      </trkpt>
      <trkpt lat="44.79869" lon="4.63138">
        <ele>344.7</ele>
        <time>2023-06-14T15:50:56.204Z</time>
      </trkpt>
      <trkpt lat="44.79868" lon="4.63138">
        <ele>345.1</ele>
        <time>2023-06-14T15:50:56.674Z</time>
      </trkpt>
      <trkpt lat="44.79868" lon="4.63139">
        <ele>345.1</ele>
        <time>2023-06-14T15:50:56.987Z</time>
      </trkpt>
      <trkpt lat="44.79867" lon="4.63139">
        <ele>345.5</ele>
        <time>2023-06-14T15:50:57.450Z</time>
      </trkpt>
      <trkpt lat="44.79869" lon="4.63136">
        <ele>344.9</ele>
        <time>2023-06-14T15:50:58.765Z</time>
      </trkpt>
      <trkpt lat="44.79869" lon="4.63136">
        <ele>344.9</ele>
        <time>2023-06-14T15:50:58.765Z</time>
      </trkpt>
      <trkpt lat="44.79869" lon="4.63135">
        <ele>344.9</ele>
        <time>2023-06-14T15:50:59.083Z</time>
      </trkpt>
      <trkpt lat="44.7987" lon="4.63134">
        <ele>344.6</ele>
        <time>2023-06-14T15:50:59.651Z</time>
      </trkpt>
      <trkpt lat="44.7987" lon="4.63134">
        <ele>344.6</ele>
        <time>2023-06-14T15:50:59.651Z</time>
      </trkpt>
      <trkpt lat="44.79871" lon="4.63135">
        <ele>344.2</ele>
        <time>2023-06-14T15:51:00.213Z</time>
      </trkpt>
      <trkpt lat="44.79871" lon="4.63136">
        <ele>344.1</ele>
        <time>2023-06-14T15:51:00.531Z</time>
      </trkpt>
      <trkpt lat="44.79869" lon="4.63138">
        <ele>344.7</ele>
        <time>2023-06-14T15:51:01.644Z</time>
      </trkpt>
      <trkpt lat="44.79867" lon="4.63139">
        <ele>345.5</ele>
        <time>2023-06-14T15:51:02.628Z</time>
      </trkpt>
      <trkpt lat="44.79867" lon="4.6314">
        <ele>345.4</ele>
        <time>2023-06-14T15:51:02.947Z</time>
      </trkpt>
      <trkpt lat="44.79869" lon="4.63141">
        <ele>344.6</ele>
        <time>2023-06-14T15:51:03.942Z</time>
      </trkpt>
      <trkpt lat="44.79868" lon="4.63138">
        <ele>345.1</ele>
        <time>2023-06-14T15:51:05.009Z</time>
      </trkpt>
      <trkpt lat="44.79868" lon="4.63138">
        <ele>345.1</ele>
        <time>2023-06-14T15:51:05.009Z</time>
      </trkpt>
      <trkpt lat="44.79869" lon="4.63137">
        <ele>344.8</ele>
        <time>2023-06-14T15:51:05.570Z</time>
      </trkpt>
      <trkpt lat="44.79868" lon="4.63137">
        <ele>345.2</ele>
        <time>2023-06-14T15:51:06.040Z</time>
      </trkpt>
      <trkpt lat="44.79869" lon="4.63137">
        <ele>344.8</ele>
        <time>2023-06-14T15:51:06.510Z</time>
      </trkpt>
      <trkpt lat="44.7987" lon="4.63137">
        <ele>344.4</ele>
        <time>2023-06-14T15:51:06.980Z</time>
      </trkpt>
      <trkpt lat="44.79871" lon="4.63138">
        <ele>344</ele>
        <time>2023-06-14T15:51:07.550Z</time>
      </trkpt>
      <trkpt lat="44.79871" lon="4.63137">
        <ele>344.1</ele>
        <time>2023-06-14T15:51:07.869Z</time>
      </trkpt>
      <trkpt lat="44.79871" lon="4.63138">
        <ele>344</ele>
        <time>2023-06-14T15:51:08.188Z</time>
      </trkpt>
      <trkpt lat="44.79871" lon="4.63138">
        <ele>344</ele>
        <time>2023-06-14T15:51:08.188Z</time>
      </trkpt>
      <trkpt lat="44.7987" lon="4.63139">
        <ele>344.4</ele>
        <time>2023-06-14T15:51:08.746Z</time>
      </trkpt>
      <trkpt lat="44.79871" lon="4.6314">
        <ele>343.9</ele>
        <time>2023-06-14T15:51:09.316Z</time>
      </trkpt>
      <trkpt lat="44.79869" lon="4.6314">
        <ele>344.7</ele>
        <time>2023-06-14T15:51:10.249Z</time>
      </trkpt>
      <trkpt lat="44.79869" lon="4.63139">
        <ele>344.7</ele>
        <time>2023-06-14T15:51:10.568Z</time>
      </trkpt>
      <trkpt lat="44.79869" lon="4.63141">
        <ele>344.6</ele>
        <time>2023-06-14T15:51:11.205Z</time>
      </trkpt>
      <trkpt lat="44.79869" lon="4.63141">
        <ele>344.6</ele>
        <time>2023-06-14T15:51:11.205Z</time>
      </trkpt>
      <trkpt lat="44.79868" lon="4.63139">
        <ele>345.1</ele>
        <time>2023-06-14T15:51:12.008Z</time>
      </trkpt>
      <trkpt lat="44.79867" lon="4.6314">
        <ele>345.4</ele>
        <time>2023-06-14T15:51:12.563Z</time>
      </trkpt>
      <trkpt lat="44.79865" lon="4.6314">
        <ele>346.1</ele>
        <time>2023-06-14T15:51:13.503Z</time>
      </trkpt>
      <trkpt lat="44.79866" lon="4.6314">
        <ele>345.7</ele>
        <time>2023-06-14T15:51:13.973Z</time>
      </trkpt>
      <trkpt lat="44.79867" lon="4.6314">
        <ele>345.4</ele>
        <time>2023-06-14T15:51:14.444Z</time>
      </trkpt>
      <trkpt lat="44.79868" lon="4.63141">
        <ele>344.9</ele>
        <time>2023-06-14T15:51:15.014Z</time>
      </trkpt>
      <trkpt lat="44.79868" lon="4.63142">
        <ele>344.9</ele>
        <time>2023-06-14T15:51:15.327Z</time>
      </trkpt>
      <trkpt lat="44.79868" lon="4.63142">
        <ele>344.9</ele>
        <time>2023-06-14T15:51:15.327Z</time>
      </trkpt>
      <trkpt lat="44.79868" lon="4.63142">
        <ele>344.9</ele>
        <time>2023-06-14T15:51:15.327Z</time>
      </trkpt>
      <trkpt lat="44.79868" lon="4.63142">
        <ele>344.9</ele>
        <time>2023-06-14T15:51:15.327Z</time>
      </trkpt>
      <trkpt lat="44.79866" lon="4.63143">
        <ele>345.6</ele>
        <time>2023-06-14T15:51:16.313Z</time>
      </trkpt>
      <trkpt lat="44.79863" lon="4.63143">
        <ele>346.8</ele>
        <time>2023-06-14T15:51:17.732Z</time>
      </trkpt>
      <trkpt lat="44.79862" lon="4.63146">
        <ele>346.9</ele>
        <time>2023-06-14T15:51:18.777Z</time>
      </trkpt>
      <trkpt lat="44.79864" lon="4.63143">
        <ele>346.3</ele>
        <time>2023-06-14T15:51:20.097Z</time>
      </trkpt>
      <trkpt lat="44.79865" lon="4.63143">
        <ele>346</ele>
        <time>2023-06-14T15:51:20.560Z</time>
      </trkpt>
      <trkpt lat="44.79868" lon="4.63139">
        <ele>345.1</ele>
        <time>2023-06-14T15:51:22.431Z</time>
      </trkpt>
      <trkpt lat="44.79868" lon="4.63138">
        <ele>345.1</ele>
        <time>2023-06-14T15:51:22.743Z</time>
      </trkpt>
      <trkpt lat="44.79871" lon="4.63135">
        <ele>344.2</ele>
        <time>2023-06-14T15:51:24.417Z</time>
      </trkpt>
      <trkpt lat="44.79872" lon="4.63137">
        <ele>343.7</ele>
        <time>2023-06-14T15:51:25.215Z</time>
      </trkpt>
      <trkpt lat="44.79866" lon="4.63144">
        <ele>345.5</ele>
        <time>2023-06-14T15:51:28.756Z</time>
      </trkpt>
      <trkpt lat="44.79865" lon="4.63145">
        <ele>345.8</ele>
        <time>2023-06-14T15:51:29.312Z</time>
      </trkpt>
      <trkpt lat="44.79864" lon="4.63146">
        <ele>346.1</ele>
        <time>2023-06-14T15:51:29.867Z</time>
      </trkpt>
      <trkpt lat="44.79864" lon="4.63144">
        <ele>346.2</ele>
        <time>2023-06-14T15:51:30.500Z</time>
      </trkpt>
      <trkpt lat="44.79864" lon="4.63143">
        <ele>346.3</ele>
        <time>2023-06-14T15:51:30.818Z</time>
      </trkpt>
      <trkpt lat="44.79865" lon="4.63142">
        <ele>346</ele>
        <time>2023-06-14T15:51:31.380Z</time>
      </trkpt>
      <trkpt lat="44.79868" lon="4.63141">
        <ele>344.9</ele>
        <time>2023-06-14T15:51:32.809Z</time>
      </trkpt>
      <trkpt lat="44.79871" lon="4.63138">
        <ele>344</ele>
        <time>2023-06-14T15:51:34.488Z</time>
      </trkpt>
      <trkpt lat="44.7988" lon="4.63133">
        <ele>340.9</ele>
        <time>2023-06-14T15:51:38.968Z</time>
      </trkpt>
      <trkpt lat="44.79881" lon="4.63131">
        <ele>340.6</ele>
        <time>2023-06-14T15:51:39.750Z</time>
      </trkpt>
      <trkpt lat="44.79886" lon="4.63126">
        <ele>339.1</ele>
        <time>2023-06-14T15:51:42.547Z</time>
      </trkpt>
      <trkpt lat="44.79893" lon="4.63116">
        <ele>336.8</ele>
        <time>2023-06-14T15:51:47.076Z</time>
      </trkpt>
      <trkpt lat="44.79895" lon="4.63112">
        <ele>336.2</ele>
        <time>2023-06-14T15:51:48.633Z</time>
      </trkpt>
      <trkpt lat="44.79896" lon="4.63112">
        <ele>335.8</ele>
        <time>2023-06-14T15:51:49.105Z</time>
      </trkpt>
      <trkpt lat="44.79897" lon="4.63112">
        <ele>335.5</ele>
        <time>2023-06-14T15:51:49.569Z</time>
      </trkpt>
      <trkpt lat="44.79898" lon="4.63111">
        <ele>335.1</ele>
        <time>2023-06-14T15:51:50.133Z</time>
      </trkpt>
      <trkpt lat="44.79901" lon="4.6311">
        <ele>334.1</ele>
        <time>2023-06-14T15:51:51.568Z</time>
      </trkpt>
      <trkpt lat="44.79906" lon="4.63108">
        <ele>332.1</ele>
        <time>2023-06-14T15:51:54.007Z</time>
      </trkpt>
      <trkpt lat="44.7991" lon="4.63104">
        <ele>330.8</ele>
        <time>2023-06-14T15:51:56.255Z</time>
      </trkpt>
      <trkpt lat="44.79912" lon="4.63102">
        <ele>330.1</ele>
        <time>2023-06-14T15:51:57.376Z</time>
      </trkpt>
      <trkpt lat="44.79914" lon="4.63101">
        <ele>329.4</ele>
        <time>2023-06-14T15:51:58.359Z</time>
      </trkpt>
      <trkpt lat="44.79918" lon="4.63099">
        <ele>328.1</ele>
        <time>2023-06-14T15:52:00.323Z</time>
      </trkpt>
      <trkpt lat="44.79922" lon="4.63096">
        <ele>327</ele>
        <time>2023-06-14T15:52:02.383Z</time>
      </trkpt>
      <trkpt lat="44.79927" lon="4.63093">
        <ele>325.8</ele>
        <time>2023-06-14T15:52:04.850Z</time>
      </trkpt>
      <trkpt lat="44.79929" lon="4.63093">
        <ele>325.2</ele>
        <time>2023-06-14T15:52:05.763Z</time>
      </trkpt>
      <trkpt lat="44.79929" lon="4.63092">
        <ele>325.3</ele>
        <time>2023-06-14T15:52:06.075Z</time>
      </trkpt>
      <trkpt lat="44.7993" lon="4.63092">
        <ele>325</ele>
        <time>2023-06-14T15:52:06.536Z</time>
      </trkpt>
      <trkpt lat="44.79932" lon="4.63092">
        <ele>324.5</ele>
        <time>2023-06-14T15:52:07.449Z</time>
      </trkpt>
      <trkpt lat="44.7994" lon="4.63091">
        <ele>322.2</ele>
        <time>2023-06-14T15:52:11.131Z</time>
      </trkpt>
      <trkpt lat="44.79947" lon="4.63088">
        <ele>320.5</ele>
        <time>2023-06-14T15:52:14.460Z</time>
      </trkpt>
      <trkpt lat="44.7995" lon="4.63087">
        <ele>319.6</ele>
        <time>2023-06-14T15:52:15.872Z</time>
      </trkpt>
      <trkpt lat="44.79955" lon="4.63083">
        <ele>318.7</ele>
        <time>2023-06-14T15:52:18.453Z</time>
      </trkpt>
      <trkpt lat="44.79964" lon="4.6308">
        <ele>317</ele>
        <time>2023-06-14T15:52:22.624Z</time>
      </trkpt>
      <trkpt lat="44.79975" lon="4.63074">
        <ele>316.2</ele>
        <time>2023-06-14T15:52:27.879Z</time>
      </trkpt>
      <trkpt lat="44.79979" lon="4.63071">
        <ele>316</ele>
        <time>2023-06-14T15:52:29.899Z</time>
      </trkpt>
      <trkpt lat="44.79982" lon="4.63068">
        <ele>316.1</ele>
        <time>2023-06-14T15:52:31.536Z</time>
      </trkpt>
      <trkpt lat="44.79987" lon="4.63062">
        <ele>317.2</ele>
        <time>2023-06-14T15:52:34.485Z</time>
      </trkpt>
      <trkpt lat="44.79992" lon="4.63057">
        <ele>317.8</ele>
        <time>2023-06-14T15:52:37.222Z</time>
      </trkpt>
      <trkpt lat="44.79993" lon="4.63053">
        <ele>319</ele>
        <time>2023-06-14T15:52:38.645Z</time>
      </trkpt>
      <trkpt lat="44.79999" lon="4.63041">
        <ele>322.2</ele>
        <time>2023-06-14T15:52:43.441Z</time>
      </trkpt>
      <trkpt lat="44.80002" lon="4.63038">
        <ele>322.4</ele>
        <time>2023-06-14T15:52:45.079Z</time>
      </trkpt>
      <trkpt lat="44.80005" lon="4.63036">
        <ele>322.3</ele>
        <time>2023-06-14T15:52:46.556Z</time>
      </trkpt>
      <trkpt lat="44.8001" lon="4.63031">
        <ele>322.8</ele>
        <time>2023-06-14T15:52:49.286Z</time>
      </trkpt>
      <trkpt lat="44.80014" lon="4.63026">
        <ele>323</ele>
        <time>2023-06-14T15:52:51.666Z</time>
      </trkpt>
      <trkpt lat="44.80015" lon="4.63022">
        <ele>324.1</ele>
        <time>2023-06-14T15:52:53.078Z</time>
      </trkpt>
      <trkpt lat="44.80019" lon="4.63013">
        <ele>326.1</ele>
        <time>2023-06-14T15:52:56.522Z</time>
      </trkpt>
      <trkpt lat="44.8002" lon="4.63009">
        <ele>327.2</ele>
        <time>2023-06-14T15:52:57.929Z</time>
      </trkpt>
      <trkpt lat="44.80022" lon="4.62999">
        <ele>330.1</ele>
        <time>2023-06-14T15:53:01.415Z</time>
      </trkpt>
      <trkpt lat="44.80022" lon="4.62989">
        <ele>332.5</ele>
        <time>2023-06-14T15:53:04.708Z</time>
      </trkpt>
      <trkpt lat="44.80021" lon="4.62986">
        <ele>333.4</ele>
        <time>2023-06-14T15:53:05.816Z</time>
      </trkpt>
      <trkpt lat="44.80023" lon="4.62978">
        <ele>334.6</ele>
        <time>2023-06-14T15:53:08.537Z</time>
      </trkpt>
      <trkpt lat="44.80025" lon="4.62975">
        <ele>334.8</ele>
        <time>2023-06-14T15:53:09.839Z</time>
      </trkpt>
      <trkpt lat="44.80028" lon="4.62975">
        <ele>333.9</ele>
        <time>2023-06-14T15:53:11.226Z</time>
      </trkpt>
      <trkpt lat="44.80036" lon="4.62976">
        <ele>330.9</ele>
        <time>2023-06-14T15:53:14.984Z</time>
      </trkpt>
      <trkpt lat="44.80037" lon="4.62978">
        <ele>330</ele>
        <time>2023-06-14T15:53:15.837Z</time>
      </trkpt>
      <trkpt lat="44.80037" lon="4.62979">
        <ele>329.7</ele>
        <time>2023-06-14T15:53:16.176Z</time>
      </trkpt>
      <trkpt lat="44.80037" lon="4.62979">
        <ele>329.7</ele>
        <time>2023-06-14T15:53:16.176Z</time>
      </trkpt>
      <trkpt lat="44.80036" lon="4.62979">
        <ele>330</ele>
        <time>2023-06-14T15:53:16.641Z</time>
      </trkpt>
      <trkpt lat="44.80036" lon="4.62979">
        <ele>330</ele>
        <time>2023-06-14T15:53:16.641Z</time>
      </trkpt>
      <trkpt lat="44.80037" lon="4.6298">
        <ele>329.7</ele>
        <time>2023-06-14T15:53:17.204Z</time>
      </trkpt>
      <trkpt lat="44.80042" lon="4.62986">
        <ele>326.7</ele>
        <time>2023-06-14T15:53:20.371Z</time>
      </trkpt>
      <trkpt lat="44.80043" lon="4.62989">
        <ele>325.8</ele>
        <time>2023-06-14T15:53:21.479Z</time>
      </trkpt>
      <trkpt lat="44.80047" lon="4.63002">
        <ele>321.3</ele>
        <time>2023-06-14T15:53:26.294Z</time>
      </trkpt>
      <trkpt lat="44.80049" lon="4.63005">
        <ele>319.7</ele>
        <time>2023-06-14T15:53:27.728Z</time>
      </trkpt>
      <trkpt lat="44.80052" lon="4.63009">
        <ele>317</ele>
        <time>2023-06-14T15:53:29.865Z</time>
      </trkpt>
      <trkpt lat="44.80056" lon="4.63015">
        <ele>314</ele>
        <time>2023-06-14T15:53:32.731Z</time>
      </trkpt>
      <trkpt lat="44.80058" lon="4.63019">
        <ele>312.1</ele>
        <time>2023-06-14T15:53:34.455Z</time>
      </trkpt>
      <trkpt lat="44.8006" lon="4.63023">
        <ele>310</ele>
        <time>2023-06-14T15:53:36.204Z</time>
      </trkpt>
      <trkpt lat="44.80064" lon="4.63035">
        <ele>304.4</ele>
        <time>2023-06-14T15:53:40.944Z</time>
      </trkpt>
      <trkpt lat="44.80067" lon="4.63049">
        <ele>299.2</ele>
        <time>2023-06-14T15:53:46.010Z</time>
      </trkpt>
      <trkpt lat="44.80068" lon="4.63051">
        <ele>298.1</ele>
        <time>2023-06-14T15:53:46.910Z</time>
      </trkpt>
      <trkpt lat="44.80067" lon="4.63052">
        <ele>297.9</ele>
        <time>2023-06-14T15:53:47.461Z</time>
      </trkpt>
      <trkpt lat="44.80067" lon="4.63052">
        <ele>297.9</ele>
        <time>2023-06-14T15:53:47.461Z</time>
      </trkpt>
      <trkpt lat="44.80066" lon="4.63053">
        <ele>298.2</ele>
        <time>2023-06-14T15:53:48.013Z</time>
      </trkpt>
      <trkpt lat="44.80067" lon="4.63053">
        <ele>297.9</ele>
        <time>2023-06-14T15:53:48.468Z</time>
      </trkpt>
      <trkpt lat="44.80067" lon="4.63052">
        <ele>297.9</ele>
        <time>2023-06-14T15:53:48.780Z</time>
      </trkpt>
      <trkpt lat="44.80069" lon="4.63052">
        <ele>297.3</ele>
        <time>2023-06-14T15:53:49.703Z</time>
      </trkpt>
      <trkpt lat="44.80069" lon="4.63053">
        <ele>297.3</ele>
        <time>2023-06-14T15:53:50.016Z</time>
      </trkpt>
      <trkpt lat="44.8007" lon="4.63054">
        <ele>296.6</ele>
        <time>2023-06-14T15:53:50.630Z</time>
      </trkpt>
      <trkpt lat="44.80072" lon="4.63058">
        <ele>294.8</ele>
        <time>2023-06-14T15:53:52.345Z</time>
      </trkpt>
      <trkpt lat="44.80076" lon="4.63061">
        <ele>292.2</ele>
        <time>2023-06-14T15:53:54.599Z</time>
      </trkpt>
      <trkpt lat="44.80085" lon="4.63065">
        <ele>288.3</ele>
        <time>2023-06-14T15:53:59.083Z</time>
      </trkpt>
      <trkpt lat="44.8009" lon="4.63064">
        <ele>286.7</ele>
        <time>2023-06-14T15:54:01.410Z</time>
      </trkpt>
      <trkpt lat="44.80092" lon="4.63063">
        <ele>286.4</ele>
        <time>2023-06-14T15:54:02.369Z</time>
      </trkpt>
      <trkpt lat="44.80096" lon="4.63061">
        <ele>285.3</ele>
        <time>2023-06-14T15:54:04.303Z</time>
      </trkpt>
      <trkpt lat="44.80102" lon="4.63058">
        <ele>284</ele>
        <time>2023-06-14T15:54:07.179Z</time>
      </trkpt>
      <trkpt lat="44.80107" lon="4.63056">
        <ele>282.5</ele>
        <time>2023-06-14T15:54:09.573Z</time>
      </trkpt>
      <trkpt lat="44.80111" lon="4.63054">
        <ele>281.6</ele>
        <time>2023-06-14T15:54:11.493Z</time>
      </trkpt>
      <trkpt lat="44.80119" lon="4.63052">
        <ele>278.7</ele>
        <time>2023-06-14T15:54:15.290Z</time>
      </trkpt>
      <trkpt lat="44.80123" lon="4.63051">
        <ele>277.4</ele>
        <time>2023-06-14T15:54:17.170Z</time>
      </trkpt>
      <trkpt lat="44.80128" lon="4.63049">
        <ele>276</ele>
        <time>2023-06-14T15:54:19.545Z</time>
      </trkpt>
      <trkpt lat="44.8013" lon="4.63047">
        <ele>275.4</ele>
        <time>2023-06-14T15:54:20.666Z</time>
      </trkpt>
      <trkpt lat="44.80134" lon="4.63045">
        <ele>274.3</ele>
        <time>2023-06-14T15:54:22.603Z</time>
      </trkpt>
      <trkpt lat="44.80137" lon="4.63043">
        <ele>273.3</ele>
        <time>2023-06-14T15:54:24.128Z</time>
      </trkpt>
      <trkpt lat="44.80139" lon="4.63042">
        <ele>272.8</ele>
        <time>2023-06-14T15:54:25.096Z</time>
      </trkpt>
      <trkpt lat="44.80141" lon="4.6304">
        <ele>272.5</ele>
        <time>2023-06-14T15:54:26.197Z</time>
      </trkpt>
      <trkpt lat="44.80143" lon="4.63038">
        <ele>271.7</ele>
        <time>2023-06-14T15:54:27.323Z</time>
      </trkpt>
      <trkpt lat="44.80146" lon="4.63035">
        <ele>271</ele>
        <time>2023-06-14T15:54:28.989Z</time>
      </trkpt>
      <trkpt lat="44.8015" lon="4.63031">
        <ele>270.2</ele>
        <time>2023-06-14T15:54:31.190Z</time>
      </trkpt>
      <trkpt lat="44.80158" lon="4.63021">
        <ele>268</ele>
        <time>2023-06-14T15:54:36.028Z</time>
      </trkpt>
      <trkpt lat="44.80162" lon="4.63017">
        <ele>266.7</ele>
        <time>2023-06-14T15:54:38.262Z</time>
      </trkpt>
      <trkpt lat="44.80169" lon="4.63008">
        <ele>265</ele>
        <time>2023-06-14T15:54:42.540Z</time>
      </trkpt>
      <trkpt lat="44.80177" lon="4.63001">
        <ele>262.6</ele>
        <time>2023-06-14T15:54:46.829Z</time>
      </trkpt>
      <trkpt lat="44.80188" lon="4.62991">
        <ele>259.7</ele>
        <time>2023-06-14T15:54:52.765Z</time>
      </trkpt>
      <trkpt lat="44.8019" lon="4.62989">
        <ele>259.3</ele>
        <time>2023-06-14T15:54:53.862Z</time>
      </trkpt>
      <trkpt lat="44.80197" lon="4.62984">
        <ele>257.4</ele>
        <time>2023-06-14T15:54:57.444Z</time>
      </trkpt>
      <trkpt lat="44.80198" lon="4.62983">
        <ele>256.8</ele>
        <time>2023-06-14T15:54:58.034Z</time>
      </trkpt>
      <trkpt lat="44.80198" lon="4.62983">
        <ele>256.8</ele>
        <time>2023-06-14T15:54:58.034Z</time>
      </trkpt>
      <trkpt lat="44.80199" lon="4.62983">
        <ele>256.4</ele>
        <time>2023-06-14T15:54:58.505Z</time>
      </trkpt>
      <trkpt lat="44.80203" lon="4.62979">
        <ele>255.4</ele>
        <time>2023-06-14T15:55:00.726Z</time>
      </trkpt>
      <trkpt lat="44.80203" lon="4.62979">
        <ele>255.4</ele>
        <time>2023-06-14T15:55:00.726Z</time>
      </trkpt>
      <trkpt lat="44.80201" lon="4.62979">
        <ele>256.2</ele>
        <time>2023-06-14T15:55:01.676Z</time>
      </trkpt>
      <trkpt lat="44.80201" lon="4.62979">
        <ele>256.2</ele>
        <time>2023-06-14T15:55:01.676Z</time>
      </trkpt>
      <trkpt lat="44.80203" lon="4.62977">
        <ele>255.9</ele>
        <time>2023-06-14T15:55:02.775Z</time>
      </trkpt>
      <trkpt lat="44.80203" lon="4.62977">
        <ele>255.9</ele>
        <time>2023-06-14T15:55:02.775Z</time>
      </trkpt>
      <trkpt lat="44.80203" lon="4.62978">
        <ele>255.6</ele>
        <time>2023-06-14T15:55:03.100Z</time>
      </trkpt>
      <trkpt lat="44.80203" lon="4.62979">
        <ele>255.4</ele>
        <time>2023-06-14T15:55:03.431Z</time>
      </trkpt>
      <trkpt lat="44.80203" lon="4.62981">
        <ele>255.2</ele>
        <time>2023-06-14T15:55:04.067Z</time>
      </trkpt>
      <trkpt lat="44.80202" lon="4.62982">
        <ele>255.4</ele>
        <time>2023-06-14T15:55:04.621Z</time>
      </trkpt>
      <trkpt lat="44.80202" lon="4.62983">
        <ele>255.1</ele>
        <time>2023-06-14T15:55:04.952Z</time>
      </trkpt>
      <trkpt lat="44.80201" lon="4.62984">
        <ele>255.5</ele>
        <time>2023-06-14T15:55:05.516Z</time>
      </trkpt>
      <trkpt lat="44.80197" lon="4.62988">
        <ele>256.7</ele>
        <time>2023-06-14T15:55:07.746Z</time>
      </trkpt>
      <trkpt lat="44.80196" lon="4.62987">
        <ele>257.1</ele>
        <time>2023-06-14T15:55:08.320Z</time>
      </trkpt>
      <trkpt lat="44.80194" lon="4.62984">
        <ele>258.6</ele>
        <time>2023-06-14T15:55:09.759Z</time>
      </trkpt>
      <trkpt lat="44.80197" lon="4.62983">
        <ele>257.4</ele>
        <time>2023-06-14T15:55:11.220Z</time>
      </trkpt>
      <trkpt lat="44.80204" lon="4.62978">
        <ele>255.2</ele>
        <time>2023-06-14T15:55:14.821Z</time>
      </trkpt>
      <trkpt lat="44.80208" lon="4.62974">
        <ele>254.2</ele>
        <time>2023-06-14T15:55:17.034Z</time>
      </trkpt>
      <trkpt lat="44.80213" lon="4.62969">
        <ele>252.8</ele>
        <time>2023-06-14T15:55:19.815Z</time>
      </trkpt>
      <trkpt lat="44.80216" lon="4.62967">
        <ele>251.9</ele>
        <time>2023-06-14T15:55:21.332Z</time>
      </trkpt>
      <trkpt lat="44.80218" lon="4.62965">
        <ele>251.3</ele>
        <time>2023-06-14T15:55:22.456Z</time>
      </trkpt>
      <trkpt lat="44.80226" lon="4.62958">
        <ele>248.9</ele>
        <time>2023-06-14T15:55:26.749Z</time>
      </trkpt>
      <trkpt lat="44.80229" lon="4.62955">
        <ele>248</ele>
        <time>2023-06-14T15:55:28.425Z</time>
      </trkpt>
      <trkpt lat="44.80242" lon="4.62945">
        <ele>243.7</ele>
        <time>2023-06-14T15:55:35.231Z</time>
      </trkpt>
      <trkpt lat="44.80248" lon="4.62938">
        <ele>241.9</ele>
        <time>2023-06-14T15:55:38.767Z</time>
      </trkpt>
      <trkpt lat="44.8025" lon="4.62936">
        <ele>241.2</ele>
        <time>2023-06-14T15:55:39.898Z</time>
      </trkpt>
      <trkpt lat="44.8025" lon="4.6293">
        <ele>242.1</ele>
        <time>2023-06-14T15:55:41.829Z</time>
      </trkpt>
      <trkpt lat="44.80247" lon="4.62916">
        <ele>245.4</ele>
        <time>2023-06-14T15:55:46.621Z</time>
      </trkpt>
      <trkpt lat="44.80244" lon="4.62908">
        <ele>246.5</ele>
        <time>2023-06-14T15:55:49.510Z</time>
      </trkpt>
      <trkpt lat="44.80243" lon="4.62904">
        <ele>246.8</ele>
        <time>2023-06-14T15:55:50.857Z</time>
      </trkpt>
      <trkpt lat="44.80242" lon="4.62898">
        <ele>247</ele>
        <time>2023-06-14T15:55:52.805Z</time>
      </trkpt>
      <trkpt lat="44.80244" lon="4.62888">
        <ele>245.8</ele>
        <time>2023-06-14T15:55:56.121Z</time>
      </trkpt>
      <trkpt lat="44.80248" lon="4.62876">
        <ele>243.4</ele>
        <time>2023-06-14T15:56:00.407Z</time>
      </trkpt>
      <trkpt lat="44.80254" lon="4.62854">
        <ele>240</ele>
        <time>2023-06-14T15:56:07.971Z</time>
      </trkpt>
      <trkpt lat="44.80254" lon="4.62847">
        <ele>239.7</ele>
        <time>2023-06-14T15:56:10.185Z</time>
      </trkpt>
      <trkpt lat="44.80255" lon="4.62841">
        <ele>239.1</ele>
        <time>2023-06-14T15:56:12.144Z</time>
      </trkpt>
      <trkpt lat="44.80255" lon="4.62829">
        <ele>238.4</ele>
        <time>2023-06-14T15:56:15.941Z</time>
      </trkpt>
      <trkpt lat="44.80255" lon="4.62823">
        <ele>238</ele>
        <time>2023-06-14T15:56:17.842Z</time>
      </trkpt>
      <trkpt lat="44.80254" lon="4.6282">
        <ele>238.1</ele>
        <time>2023-06-14T15:56:18.889Z</time>
      </trkpt>
      <trkpt lat="44.80252" lon="4.62815">
        <ele>238.7</ele>
        <time>2023-06-14T15:56:20.714Z</time>
      </trkpt>
      <trkpt lat="44.80247" lon="4.62804">
        <ele>239.9</ele>
        <time>2023-06-14T15:56:24.862Z</time>
      </trkpt>
      <trkpt lat="44.80243" lon="4.62798">
        <ele>241.3</ele>
        <time>2023-06-14T15:56:27.523Z</time>
      </trkpt>
      <trkpt lat="44.80241" lon="4.62793">
        <ele>241.8</ele>
        <time>2023-06-14T15:56:29.343Z</time>
      </trkpt>
      <trkpt lat="44.80235" lon="4.62779">
        <ele>243.5</ele>
        <time>2023-06-14T15:56:34.548Z</time>
      </trkpt>
      <trkpt lat="44.80228" lon="4.6277">
        <ele>245.9</ele>
        <time>2023-06-14T15:56:38.875Z</time>
      </trkpt>
      <trkpt lat="44.80224" lon="4.62751">
        <ele>246.2</ele>
        <time>2023-06-14T15:56:45.131Z</time>
      </trkpt>
      <trkpt lat="44.80226" lon="4.62743">
        <ele>244.9</ele>
        <time>2023-06-14T15:56:47.858Z</time>
      </trkpt>
      <trkpt lat="44.80228" lon="4.62737">
        <ele>243.7</ele>
        <time>2023-06-14T15:56:49.996Z</time>
      </trkpt>
      <trkpt lat="44.80235" lon="4.62731">
        <ele>240.2</ele>
        <time>2023-06-14T15:56:53.903Z</time>
      </trkpt>
      <trkpt lat="44.80242" lon="4.62725">
        <ele>236.5</ele>
        <time>2023-06-14T15:56:57.835Z</time>
      </trkpt>
      <trkpt lat="44.8025" lon="4.62716">
        <ele>232.4</ele>
        <time>2023-06-14T15:57:02.681Z</time>
      </trkpt>
      <trkpt lat="44.80254" lon="4.62711">
        <ele>230.3</ele>
        <time>2023-06-14T15:57:05.195Z</time>
      </trkpt>
      <trkpt lat="44.80258" lon="4.62703">
        <ele>228.3</ele>
        <time>2023-06-14T15:57:08.393Z</time>
      </trkpt>
      <trkpt lat="44.80264" lon="4.62694">
        <ele>225.2</ele>
        <time>2023-06-14T15:57:12.477Z</time>
      </trkpt>
      <trkpt lat="44.80268" lon="4.62685">
        <ele>222.8</ele>
        <time>2023-06-14T15:57:15.961Z</time>
      </trkpt>
      <trkpt lat="44.80273" lon="4.62674">
        <ele>219.9</ele>
        <time>2023-06-14T15:57:20.248Z</time>
      </trkpt>
      <trkpt lat="44.80277" lon="4.62666">
        <ele>217.5</ele>
        <time>2023-06-14T15:57:23.472Z</time>
      </trkpt>
      <trkpt lat="44.80281" lon="4.62657">
        <ele>214.6</ele>
        <time>2023-06-14T15:57:27.029Z</time>
      </trkpt>
      <trkpt lat="44.80282" lon="4.62652">
        <ele>213.5</ele>
        <time>2023-06-14T15:57:28.719Z</time>
      </trkpt>
      <trkpt lat="44.80283" lon="4.62649">
        <ele>212.8</ele>
        <time>2023-06-14T15:57:29.809Z</time>
      </trkpt>
      <trkpt lat="44.80283" lon="4.62646">
        <ele>212.5</ele>
        <time>2023-06-14T15:57:30.763Z</time>
      </trkpt>
      <trkpt lat="44.80283" lon="4.62643">
        <ele>212</ele>
        <time>2023-06-14T15:57:31.727Z</time>
      </trkpt>
      <trkpt lat="44.80282" lon="4.6264">
        <ele>212.2</ele>
        <time>2023-06-14T15:57:32.776Z</time>
      </trkpt>
      <trkpt lat="44.80282" lon="4.62639">
        <ele>212</ele>
        <time>2023-06-14T15:57:33.099Z</time>
      </trkpt>
      <trkpt lat="44.80276" lon="4.62637">
        <ele>214.8</ele>
        <time>2023-06-14T15:57:36.050Z</time>
      </trkpt>
      <trkpt lat="44.80289" lon="4.62638">
        <ele>208.8</ele>
        <time>2023-06-14T15:57:42.315Z</time>
      </trkpt>
      <trkpt lat="44.80289" lon="4.62637">
        <ele>208.6</ele>
        <time>2023-06-14T15:57:42.639Z</time>
      </trkpt>
      <trkpt lat="44.8029" lon="4.62631">
        <ele>207.4</ele>
        <time>2023-06-14T15:57:44.646Z</time>
      </trkpt>
      <trkpt lat="44.80288" lon="4.62614">
        <ele>206.3</ele>
        <time>2023-06-14T15:57:50.101Z</time>
      </trkpt>
      <trkpt lat="44.80288" lon="4.6261">
        <ele>205.9</ele>
        <time>2023-06-14T15:57:51.379Z</time>
      </trkpt>
      <trkpt lat="44.80285" lon="4.62599">
        <ele>206.1</ele>
        <time>2023-06-14T15:57:55.097Z</time>
      </trkpt>
      <trkpt lat="44.80284" lon="4.62593">
        <ele>205.8</ele>
        <time>2023-06-14T15:57:57.045Z</time>
      </trkpt>
      <trkpt lat="44.80282" lon="4.62589">
        <ele>206.4</ele>
        <time>2023-06-14T15:57:58.603Z</time>
      </trkpt>
      <trkpt lat="44.80275" lon="4.62578">
        <ele>208.4</ele>
        <time>2023-06-14T15:58:03.335Z</time>
      </trkpt>
      <trkpt lat="44.80271" lon="4.62576">
        <ele>209.9</ele>
        <time>2023-06-14T15:58:05.314Z</time>
      </trkpt>
      <trkpt lat="44.8026" lon="4.62569">
        <ele>214</ele>
        <time>2023-06-14T15:58:10.929Z</time>
      </trkpt>
      <trkpt lat="44.8025" lon="4.62562">
        <ele>217.2</ele>
        <time>2023-06-14T15:58:16.053Z</time>
      </trkpt>
      <trkpt lat="44.80246" lon="4.62558">
        <ele>218.4</ele>
        <time>2023-06-14T15:58:18.287Z</time>
      </trkpt>
      <trkpt lat="44.80242" lon="4.62555">
        <ele>219.8</ele>
        <time>2023-06-14T15:58:20.383Z</time>
      </trkpt>
      <trkpt lat="44.80234" lon="4.62549">
        <ele>222.5</ele>
        <time>2023-06-14T15:58:24.553Z</time>
      </trkpt>
      <trkpt lat="44.8023" lon="4.62548">
        <ele>224.5</ele>
        <time>2023-06-14T15:58:26.524Z</time>
      </trkpt>
      <trkpt lat="44.80226" lon="4.62549">
        <ele>226.5</ele>
        <time>2023-06-14T15:58:28.501Z</time>
      </trkpt>
      <trkpt lat="44.80224" lon="4.62547">
        <ele>227.4</ele>
        <time>2023-06-14T15:58:29.644Z</time>
      </trkpt>
      <trkpt lat="44.80221" lon="4.62545">
        <ele>228.2</ele>
        <time>2023-06-14T15:58:31.159Z</time>
      </trkpt>
      <trkpt lat="44.80219" lon="4.62539">
        <ele>228</ele>
        <time>2023-06-14T15:58:33.256Z</time>
      </trkpt>
      <trkpt lat="44.80219" lon="4.62535">
        <ele>227</ele>
        <time>2023-06-14T15:58:34.576Z</time>
      </trkpt>
      <trkpt lat="44.80219" lon="4.62531">
        <ele>225.7</ele>
        <time>2023-06-14T15:58:35.933Z</time>
      </trkpt>
      <trkpt lat="44.80219" lon="4.6253">
        <ele>225.7</ele>
        <time>2023-06-14T15:58:36.250Z</time>
      </trkpt>
      <trkpt lat="44.80219" lon="4.62526">
        <ele>224.8</ele>
        <time>2023-06-14T15:58:37.565Z</time>
      </trkpt>
      <trkpt lat="44.80219" lon="4.62525">
        <ele>224.5</ele>
        <time>2023-06-14T15:58:37.906Z</time>
      </trkpt>
      <trkpt lat="44.80218" lon="4.62522">
        <ele>224.3</ele>
        <time>2023-06-14T15:58:38.952Z</time>
      </trkpt>
      <trkpt lat="44.80218" lon="4.62522">
        <ele>224.3</ele>
        <time>2023-06-14T15:58:38.952Z</time>
      </trkpt>
      <trkpt lat="44.80219" lon="4.62522">
        <ele>223.8</ele>
        <time>2023-06-14T15:58:39.431Z</time>
      </trkpt>
      <trkpt lat="44.80219" lon="4.62521">
        <ele>223.5</ele>
        <time>2023-06-14T15:58:39.773Z</time>
      </trkpt>
      <trkpt lat="44.80218" lon="4.62521">
        <ele>224</ele>
        <time>2023-06-14T15:58:40.252Z</time>
      </trkpt>
      <trkpt lat="44.80218" lon="4.62521">
        <ele>224</ele>
        <time>2023-06-14T15:58:40.252Z</time>
      </trkpt>
      <trkpt lat="44.80218" lon="4.6252">
        <ele>223.7</ele>
        <time>2023-06-14T15:58:40.588Z</time>
      </trkpt>
      <trkpt lat="44.80219" lon="4.62518">
        <ele>222.6</ele>
        <time>2023-06-14T15:58:41.478Z</time>
      </trkpt>
      <trkpt lat="44.80222" lon="4.6251">
        <ele>219.3</ele>
        <time>2023-06-14T15:58:44.621Z</time>
      </trkpt>
      <trkpt lat="44.80222" lon="4.62508">
        <ele>219</ele>
        <time>2023-06-14T15:58:45.263Z</time>
      </trkpt>
      <trkpt lat="44.80225" lon="4.62501">
        <ele>215.7</ele>
        <time>2023-06-14T15:58:48.154Z</time>
      </trkpt>
      <trkpt lat="44.80226" lon="4.62498">
        <ele>214.5</ele>
        <time>2023-06-14T15:58:49.307Z</time>
      </trkpt>
      <trkpt lat="44.80224" lon="4.62501">
        <ele>216.2</ele>
        <time>2023-06-14T15:58:50.765Z</time>
      </trkpt>
      <trkpt lat="44.80224" lon="4.62502">
        <ele>216.5</ele>
        <time>2023-06-14T15:58:51.106Z</time>
      </trkpt>
      <trkpt lat="44.80224" lon="4.62503">
        <ele>216.8</ele>
        <time>2023-06-14T15:58:51.446Z</time>
      </trkpt>
      <trkpt lat="44.80223" lon="4.62504">
        <ele>217.6</ele>
        <time>2023-06-14T15:58:52.073Z</time>
      </trkpt>
      <trkpt lat="44.80223" lon="4.62506">
        <ele>217.9</ele>
        <time>2023-06-14T15:58:52.719Z</time>
      </trkpt>
      <trkpt lat="44.80221" lon="4.62509">
        <ele>219.8</ele>
        <time>2023-06-14T15:58:54.216Z</time>
      </trkpt>
      <trkpt lat="44.8022" lon="4.62518">
        <ele>222.1</ele>
        <time>2023-06-14T15:58:57.236Z</time>
      </trkpt>
      <trkpt lat="44.80223" lon="4.62522">
        <ele>221.9</ele>
        <time>2023-06-14T15:58:59.076Z</time>
      </trkpt>
      <trkpt lat="44.80222" lon="4.62523">
        <ele>222.4</ele>
        <time>2023-06-14T15:58:59.656Z</time>
      </trkpt>
      <trkpt lat="44.80222" lon="4.62523">
        <ele>222.4</ele>
        <time>2023-06-14T15:58:59.656Z</time>
      </trkpt>
      <trkpt lat="44.80222" lon="4.62524">
        <ele>222.7</ele>
        <time>2023-06-14T15:58:59.992Z</time>
      </trkpt>
      <trkpt lat="44.8022" lon="4.62526">
        <ele>224.3</ele>
        <time>2023-06-14T15:59:01.254Z</time>
      </trkpt>
      <trkpt lat="44.80219" lon="4.62528">
        <ele>225.1</ele>
        <time>2023-06-14T15:59:02.089Z</time>
      </trkpt>
      <trkpt lat="44.80217" lon="4.62532">
        <ele>227</ele>
        <time>2023-06-14T15:59:03.813Z</time>
      </trkpt>
      <trkpt lat="44.80217" lon="4.62532">
        <ele>227</ele>
        <time>2023-06-14T15:59:03.813Z</time>
      </trkpt>
      <trkpt lat="44.80213" lon="4.62531">
        <ele>228.6</ele>
        <time>2023-06-14T15:59:05.733Z</time>
      </trkpt>
      <trkpt lat="44.80213" lon="4.62528">
        <ele>228</ele>
        <time>2023-06-14T15:59:06.714Z</time>
      </trkpt>
      <trkpt lat="44.80213" lon="4.62527">
        <ele>227.7</ele>
        <time>2023-06-14T15:59:07.057Z</time>
      </trkpt>
      <trkpt lat="44.80212" lon="4.62528">
        <ele>228.5</ele>
        <time>2023-06-14T15:59:07.688Z</time>
      </trkpt>
      <trkpt lat="44.80216" lon="4.62523">
        <ele>225.3</ele>
        <time>2023-06-14T15:59:10.383Z</time>
      </trkpt>
      <trkpt lat="44.80218" lon="4.62521">
        <ele>224</ele>
        <time>2023-06-14T15:59:11.591Z</time>
      </trkpt>
      <trkpt lat="44.80217" lon="4.62521">
        <ele>224.5</ele>
        <time>2023-06-14T15:59:12.077Z</time>
      </trkpt>
      <trkpt lat="44.80214" lon="4.62526">
        <ele>227.2</ele>
        <time>2023-06-14T15:59:14.414Z</time>
      </trkpt>
      <trkpt lat="44.80214" lon="4.62528">
        <ele>227.5</ele>
        <time>2023-06-14T15:59:15.056Z</time>
      </trkpt>
      <trkpt lat="44.80215" lon="4.62528">
        <ele>227</ele>
        <time>2023-06-14T15:59:15.542Z</time>
      </trkpt>
      <trkpt lat="44.80213" lon="4.62535">
        <ele>229.9</ele>
        <time>2023-06-14T15:59:18.189Z</time>
      </trkpt>
      <trkpt lat="44.80213" lon="4.62536">
        <ele>229.9</ele>
        <time>2023-06-14T15:59:18.506Z</time>
      </trkpt>
      <trkpt lat="44.80213" lon="4.62534">
        <ele>229.6</ele>
        <time>2023-06-14T15:59:19.149Z</time>
      </trkpt>
      <trkpt lat="44.80213" lon="4.62529">
        <ele>228.3</ele>
        <time>2023-06-14T15:59:20.808Z</time>
      </trkpt>
      <trkpt lat="44.80218" lon="4.62524">
        <ele>224.6</ele>
        <time>2023-06-14T15:59:23.911Z</time>
      </trkpt>
      <trkpt lat="44.80219" lon="4.62514">
        <ele>221.6</ele>
        <time>2023-06-14T15:59:27.313Z</time>
      </trkpt>
      <trkpt lat="44.80219" lon="4.62514">
        <ele>221.6</ele>
        <time>2023-06-14T15:59:27.313Z</time>
      </trkpt>
      <trkpt lat="44.80218" lon="4.62515">
        <ele>222.4</ele>
        <time>2023-06-14T15:59:27.937Z</time>
      </trkpt>
      <trkpt lat="44.80218" lon="4.62515">
        <ele>222.4</ele>
        <time>2023-06-14T15:59:27.937Z</time>
      </trkpt>
      <trkpt lat="44.80217" lon="4.62516">
        <ele>223.2</ele>
        <time>2023-06-14T15:59:28.570Z</time>
      </trkpt>
      <trkpt lat="44.80213" lon="4.62523">
        <ele>226.7</ele>
        <time>2023-06-14T15:59:31.735Z</time>
      </trkpt>
      <trkpt lat="44.80217" lon="4.6253">
        <ele>226.7</ele>
        <time>2023-06-14T15:59:34.570Z</time>
      </trkpt>
      <trkpt lat="44.80218" lon="4.62528">
        <ele>225.6</ele>
        <time>2023-06-14T15:59:35.462Z</time>
      </trkpt>
      <trkpt lat="44.80218" lon="4.62527">
        <ele>225.3</ele>
        <time>2023-06-14T15:59:35.805Z</time>
      </trkpt>
      <trkpt lat="44.80219" lon="4.62526">
        <ele>224.8</ele>
        <time>2023-06-14T15:59:36.377Z</time>
      </trkpt>
      <trkpt lat="44.80219" lon="4.62525">
        <ele>224.5</ele>
        <time>2023-06-14T15:59:36.718Z</time>
      </trkpt>
      <trkpt lat="44.80219" lon="4.62524">
        <ele>224.2</ele>
        <time>2023-06-14T15:59:37.060Z</time>
      </trkpt>
      <trkpt lat="44.80218" lon="4.62525">
        <ele>225</ele>
        <time>2023-06-14T15:59:37.689Z</time>
      </trkpt>
      <trkpt lat="44.80217" lon="4.62528">
        <ele>226.1</ele>
        <time>2023-06-14T15:59:38.827Z</time>
      </trkpt>
      <trkpt lat="44.80216" lon="4.62534">
        <ele>228.1</ele>
        <time>2023-06-14T15:59:40.942Z</time>
      </trkpt>
      <trkpt lat="44.80218" lon="4.62531">
        <ele>226.2</ele>
        <time>2023-06-14T15:59:42.454Z</time>
      </trkpt>
      <trkpt lat="44.80218" lon="4.62531">
        <ele>226.2</ele>
        <time>2023-06-14T15:59:42.454Z</time>
      </trkpt>
      <trkpt lat="44.80214" lon="4.62533">
        <ele>228.8</ele>
        <time>2023-06-14T15:59:44.605Z</time>
      </trkpt>
      <trkpt lat="44.80217" lon="4.62528">
        <ele>226.1</ele>
        <time>2023-06-14T15:59:46.941Z</time>
      </trkpt>
      <trkpt lat="44.80216" lon="4.62526">
        <ele>226.2</ele>
        <time>2023-06-14T15:59:47.715Z</time>
      </trkpt>
      <trkpt lat="44.80215" lon="4.62527">
        <ele>226.7</ele>
        <time>2023-06-14T15:59:48.288Z</time>
      </trkpt>
      <trkpt lat="44.80215" lon="4.6253">
        <ele>227.7</ele>
        <time>2023-06-14T15:59:49.310Z</time>
      </trkpt>
      <trkpt lat="44.80217" lon="4.62529">
        <ele>226.4</ele>
        <time>2023-06-14T15:59:50.381Z</time>
      </trkpt>
      <trkpt lat="44.8022" lon="4.62524">
        <ele>223.7</ele>
        <time>2023-06-14T15:59:52.715Z</time>
      </trkpt>
      <trkpt lat="44.80221" lon="4.62523">
        <ele>222.9</ele>
        <time>2023-06-14T15:59:53.346Z</time>
      </trkpt>
      <trkpt lat="44.80226" lon="4.62521">
        <ele>220</ele>
        <time>2023-06-14T15:59:55.921Z</time>
      </trkpt>
      <trkpt lat="44.80227" lon="4.6252">
        <ele>219.3</ele>
        <time>2023-06-14T15:59:56.550Z</time>
      </trkpt>
      <trkpt lat="44.80225" lon="4.62521">
        <ele>220.7</ele>
        <time>2023-06-14T15:59:57.653Z</time>
      </trkpt>
      <trkpt lat="44.8022" lon="4.62517">
        <ele>222.1</ele>
        <time>2023-06-14T16:00:00.270Z</time>
      </trkpt>
      <trkpt lat="44.80219" lon="4.62517">
        <ele>222.6</ele>
        <time>2023-06-14T16:00:00.755Z</time>
      </trkpt>
      <trkpt lat="44.80221" lon="4.62514">
        <ele>220.7</ele>
        <time>2023-06-14T16:00:02.260Z</time>
      </trkpt>
      <trkpt lat="44.80221" lon="4.62514">
        <ele>220.7</ele>
        <time>2023-06-14T16:00:02.260Z</time>
      </trkpt>
      <trkpt lat="44.80219" lon="4.62516">
        <ele>222.3</ele>
        <time>2023-06-14T16:00:03.521Z</time>
      </trkpt>
      <trkpt lat="44.80219" lon="4.62516">
        <ele>222.3</ele>
        <time>2023-06-14T16:00:03.521Z</time>
      </trkpt>
      <trkpt lat="44.80218" lon="4.62517">
        <ele>223.1</ele>
        <time>2023-06-14T16:00:04.148Z</time>
      </trkpt>
      <trkpt lat="44.80217" lon="4.62517">
        <ele>223.5</ele>
        <time>2023-06-14T16:00:04.633Z</time>
      </trkpt>
      <trkpt lat="44.80217" lon="4.62519">
        <ele>223.8</ele>
        <time>2023-06-14T16:00:05.275Z</time>
      </trkpt>
      <trkpt lat="44.80218" lon="4.62519">
        <ele>223.4</ele>
        <time>2023-06-14T16:00:05.761Z</time>
      </trkpt>
      <trkpt lat="44.80219" lon="4.62524">
        <ele>224.2</ele>
        <time>2023-06-14T16:00:07.428Z</time>
      </trkpt>
      <trkpt lat="44.80217" lon="4.62526">
        <ele>225.8</ele>
        <time>2023-06-14T16:00:08.690Z</time>
      </trkpt>
      <trkpt lat="44.8022" lon="4.62523">
        <ele>223.4</ele>
        <time>2023-06-14T16:00:10.584Z</time>
      </trkpt>
      <trkpt lat="44.80221" lon="4.62523">
        <ele>222.9</ele>
        <time>2023-06-14T16:00:11.069Z</time>
      </trkpt>
      <trkpt lat="44.80223" lon="4.62521">
        <ele>221.6</ele>
        <time>2023-06-14T16:00:12.272Z</time>
      </trkpt>
      <trkpt lat="44.80223" lon="4.62521">
        <ele>221.6</ele>
        <time>2023-06-14T16:00:12.272Z</time>
      </trkpt>
      <trkpt lat="44.80224" lon="4.6252">
        <ele>220.8</ele>
        <time>2023-06-14T16:00:12.901Z</time>
      </trkpt>
      <trkpt lat="44.80223" lon="4.62521">
        <ele>221.6</ele>
        <time>2023-06-14T16:00:13.531Z</time>
      </trkpt>
      <trkpt lat="44.80223" lon="4.62521">
        <ele>221.6</ele>
        <time>2023-06-14T16:00:13.531Z</time>
      </trkpt>
      <trkpt lat="44.80223" lon="4.62521">
        <ele>221.6</ele>
        <time>2023-06-14T16:00:13.531Z</time>
      </trkpt>
      <trkpt lat="44.80223" lon="4.62523">
        <ele>221.9</ele>
        <time>2023-06-14T16:00:14.177Z</time>
      </trkpt>
      <trkpt lat="44.80222" lon="4.62524">
        <ele>222.7</ele>
        <time>2023-06-14T16:00:14.808Z</time>
      </trkpt>
      <trkpt lat="44.80221" lon="4.62526">
        <ele>223.8</ele>
        <time>2023-06-14T16:00:15.697Z</time>
      </trkpt>
      <trkpt lat="44.80221" lon="4.62525">
        <ele>223.5</ele>
        <time>2023-06-14T16:00:16.039Z</time>
      </trkpt>
      <trkpt lat="44.80221" lon="4.62525">
        <ele>223.5</ele>
        <time>2023-06-14T16:00:16.039Z</time>
      </trkpt>
      <trkpt lat="44.80221" lon="4.62524">
        <ele>223.2</ele>
        <time>2023-06-14T16:00:16.380Z</time>
      </trkpt>
      <trkpt lat="44.8022" lon="4.62523">
        <ele>223.4</ele>
        <time>2023-06-14T16:00:16.929Z</time>
      </trkpt>
      <trkpt lat="44.80219" lon="4.62524">
        <ele>224.2</ele>
        <time>2023-06-14T16:00:17.560Z</time>
      </trkpt>
      <trkpt lat="44.8022" lon="4.62525">
        <ele>224</ele>
        <time>2023-06-14T16:00:18.112Z</time>
      </trkpt>
      <trkpt lat="44.80219" lon="4.62527">
        <ele>224.8</ele>
        <time>2023-06-14T16:00:18.947Z</time>
      </trkpt>
      <trkpt lat="44.80215" lon="4.62526">
        <ele>226.7</ele>
        <time>2023-06-14T16:00:20.904Z</time>
      </trkpt>
      <trkpt lat="44.80219" lon="4.62523">
        <ele>223.8</ele>
        <time>2023-06-14T16:00:23.219Z</time>
      </trkpt>
      <trkpt lat="44.80217" lon="4.62523">
        <ele>224.8</ele>
        <time>2023-06-14T16:00:24.184Z</time>
      </trkpt>
      <trkpt lat="44.80216" lon="4.62524">
        <ele>225.6</ele>
        <time>2023-06-14T16:00:24.815Z</time>
      </trkpt>
      <trkpt lat="44.80216" lon="4.62525">
        <ele>225.9</ele>
        <time>2023-06-14T16:00:25.157Z</time>
      </trkpt>
      <trkpt lat="44.80216" lon="4.62525">
        <ele>225.9</ele>
        <time>2023-06-14T16:00:25.157Z</time>
      </trkpt>
      <trkpt lat="44.80218" lon="4.62525">
        <ele>225</ele>
        <time>2023-06-14T16:00:26.130Z</time>
      </trkpt>
      <trkpt lat="44.80219" lon="4.62525">
        <ele>224.5</ele>
        <time>2023-06-14T16:00:26.609Z</time>
      </trkpt>
      <trkpt lat="44.8022" lon="4.62524">
        <ele>223.7</ele>
        <time>2023-06-14T16:00:27.243Z</time>
      </trkpt>
      <trkpt lat="44.80224" lon="4.62522">
        <ele>221.5</ele>
        <time>2023-06-14T16:00:29.330Z</time>
      </trkpt>
      <trkpt lat="44.80222" lon="4.62522">
        <ele>222.4</ele>
        <time>2023-06-14T16:00:30.302Z</time>
      </trkpt>
      <trkpt lat="44.80221" lon="4.62522">
        <ele>222.9</ele>
        <time>2023-06-14T16:00:30.782Z</time>
      </trkpt>
      <trkpt lat="44.80219" lon="4.62522">
        <ele>223.8</ele>
        <time>2023-06-14T16:00:31.754Z</time>
      </trkpt>
      <trkpt lat="44.8022" lon="4.62521">
        <ele>223.1</ele>
        <time>2023-06-14T16:00:32.387Z</time>
      </trkpt>
      <trkpt lat="44.80218" lon="4.62525">
        <ele>225</ele>
        <time>2023-06-14T16:00:34.109Z</time>
      </trkpt>
      <trkpt lat="44.80217" lon="4.62527">
        <ele>225.8</ele>
        <time>2023-06-14T16:00:34.944Z</time>
      </trkpt>
      <trkpt lat="44.80218" lon="4.62525">
        <ele>225</ele>
        <time>2023-06-14T16:00:35.779Z</time>
      </trkpt>
      <trkpt lat="44.80213" lon="4.62527">
        <ele>227.7</ele>
        <time>2023-06-14T16:00:38.336Z</time>
      </trkpt>
      <trkpt lat="44.80211" lon="4.62528">
        <ele>229.1</ele>
        <time>2023-06-14T16:00:39.440Z</time>
      </trkpt>
      <trkpt lat="44.80213" lon="4.62525">
        <ele>227.3</ele>
        <time>2023-06-14T16:00:40.917Z</time>
      </trkpt>
      <trkpt lat="44.80216" lon="4.62531">
        <ele>227.2</ele>
        <time>2023-06-14T16:00:43.235Z</time>
      </trkpt>
      <trkpt lat="44.80219" lon="4.6253">
        <ele>225.7</ele>
        <time>2023-06-14T16:00:44.724Z</time>
      </trkpt>
      <trkpt lat="44.80223" lon="4.62528">
        <ele>223.2</ele>
        <time>2023-06-14T16:00:46.872Z</time>
      </trkpt>
      <trkpt lat="44.80224" lon="4.62528">
        <ele>222.7</ele>
        <time>2023-06-14T16:00:47.358Z</time>
      </trkpt>
      <trkpt lat="44.80223" lon="4.62528">
        <ele>223.2</ele>
        <time>2023-06-14T16:00:47.845Z</time>
      </trkpt>
      <trkpt lat="44.80223" lon="4.62525">
        <ele>222.6</ele>
        <time>2023-06-14T16:00:48.824Z</time>
      </trkpt>
      <trkpt lat="44.80221" lon="4.62519">
        <ele>222</ele>
        <time>2023-06-14T16:00:50.929Z</time>
      </trkpt>
      <trkpt lat="44.80221" lon="4.62519">
        <ele>222</ele>
        <time>2023-06-14T16:00:50.929Z</time>
      </trkpt>
      <trkpt lat="44.80222" lon="4.62518">
        <ele>221.2</ele>
        <time>2023-06-14T16:00:51.556Z</time>
      </trkpt>
      <trkpt lat="44.80222" lon="4.62517">
        <ele>221.2</ele>
        <time>2023-06-14T16:00:51.868Z</time>
      </trkpt>
      <trkpt lat="44.8022" lon="4.62519">
        <ele>222.4</ele>
        <time>2023-06-14T16:00:53.067Z</time>
      </trkpt>
      <trkpt lat="44.80219" lon="4.62521">
        <ele>223.5</ele>
        <time>2023-06-14T16:00:53.956Z</time>
      </trkpt>
      <trkpt lat="44.80219" lon="4.62523">
        <ele>223.8</ele>
        <time>2023-06-14T16:00:54.604Z</time>
      </trkpt>
      <trkpt lat="44.80219" lon="4.62524">
        <ele>224.2</ele>
        <time>2023-06-14T16:00:54.940Z</time>
      </trkpt>
      <trkpt lat="44.8022" lon="4.62528">
        <ele>224.6</ele>
        <time>2023-06-14T16:00:56.294Z</time>
      </trkpt>
      <trkpt lat="44.80219" lon="4.62528">
        <ele>225.1</ele>
        <time>2023-06-14T16:00:56.781Z</time>
      </trkpt>
      <trkpt lat="44.80219" lon="4.62528">
        <ele>225.1</ele>
        <time>2023-06-14T16:00:56.781Z</time>
      </trkpt>
      <trkpt lat="44.8022" lon="4.62528">
        <ele>224.6</ele>
        <time>2023-06-14T16:00:57.267Z</time>
      </trkpt>
      <trkpt lat="44.80222" lon="4.6253">
        <ele>224.3</ele>
        <time>2023-06-14T16:00:58.363Z</time>
      </trkpt>
      <trkpt lat="44.80221" lon="4.6253">
        <ele>224.8</ele>
        <time>2023-06-14T16:00:58.844Z</time>
      </trkpt>
      <trkpt lat="44.8022" lon="4.62531">
        <ele>225.3</ele>
        <time>2023-06-14T16:00:59.425Z</time>
      </trkpt>
      <trkpt lat="44.80219" lon="4.62531">
        <ele>225.7</ele>
        <time>2023-06-14T16:00:59.912Z</time>
      </trkpt>
      <trkpt lat="44.80221" lon="4.6253">
        <ele>224.8</ele>
        <time>2023-06-14T16:01:00.937Z</time>
      </trkpt>
      <trkpt lat="44.80221" lon="4.62529">
        <ele>224.5</ele>
        <time>2023-06-14T16:01:01.274Z</time>
      </trkpt>
      <trkpt lat="44.80221" lon="4.62526">
        <ele>223.8</ele>
        <time>2023-06-14T16:01:02.253Z</time>
      </trkpt>
      <trkpt lat="44.80222" lon="4.62523">
        <ele>222.4</ele>
        <time>2023-06-14T16:01:03.441Z</time>
      </trkpt>
      <trkpt lat="44.80222" lon="4.62522">
        <ele>222.4</ele>
        <time>2023-06-14T16:01:03.758Z</time>
      </trkpt>
      <trkpt lat="44.80221" lon="4.62519">
        <ele>222</ele>
        <time>2023-06-14T16:01:04.819Z</time>
      </trkpt>
      <trkpt lat="44.80223" lon="4.62519">
        <ele>221</ele>
        <time>2023-06-14T16:01:05.783Z</time>
      </trkpt>
      <trkpt lat="44.80223" lon="4.62517">
        <ele>220.7</ele>
        <time>2023-06-14T16:01:06.424Z</time>
      </trkpt>
      <trkpt lat="44.80222" lon="4.62517">
        <ele>221.2</ele>
        <time>2023-06-14T16:01:06.909Z</time>
      </trkpt>
      <trkpt lat="44.80221" lon="4.62516">
        <ele>221.3</ele>
        <time>2023-06-14T16:01:07.455Z</time>
      </trkpt>
      <trkpt lat="44.80223" lon="4.62514">
        <ele>219.8</ele>
        <time>2023-06-14T16:01:08.710Z</time>
      </trkpt>
      <trkpt lat="44.80224" lon="4.62512">
        <ele>219</ele>
        <time>2023-06-14T16:01:09.546Z</time>
      </trkpt>
      <trkpt lat="44.80223" lon="4.62509">
        <ele>218.8</ele>
        <time>2023-06-14T16:01:10.590Z</time>
      </trkpt>
      <trkpt lat="44.80222" lon="4.62505">
        <ele>218</ele>
        <time>2023-06-14T16:01:11.967Z</time>
      </trkpt>
      <trkpt lat="44.80221" lon="4.62506">
        <ele>218.8</ele>
        <time>2023-06-14T16:01:12.592Z</time>
      </trkpt>
      <trkpt lat="44.80221" lon="4.62509">
        <ele>219.8</ele>
        <time>2023-06-14T16:01:13.611Z</time>
      </trkpt>
      <trkpt lat="44.80221" lon="4.62512">
        <ele>220.4</ele>
        <time>2023-06-14T16:01:14.585Z</time>
      </trkpt>
      <trkpt lat="44.80218" lon="4.62517">
        <ele>223.1</ele>
        <time>2023-06-14T16:01:16.913Z</time>
      </trkpt>
      <trkpt lat="44.80221" lon="4.62509">
        <ele>219.8</ele>
        <time>2023-06-14T16:01:13.611Z</time>
      </trkpt>
      <trkpt lat="44.80221" lon="4.62512">
        <ele>220.4</ele>
        <time>2023-06-14T16:01:14.585Z</time>
      </trkpt>
      <trkpt lat="44.80218" lon="4.62517">
        <ele>223.1</ele>
        <time>2023-06-14T16:01:16.913Z</time>
      </trkpt>
      <trkpt lat="44.80215" lon="4.62524">
        <ele>226.1</ele>
        <time>2023-06-14T16:01:19.760Z</time>
      </trkpt>
      <trkpt lat="44.80215" lon="4.62531">
        <ele>227.7</ele>
        <time>2023-06-14T16:01:22.062Z</time>
      </trkpt>
      <trkpt lat="44.80221" lon="4.62533">
        <ele>225.4</ele>
        <time>2023-06-14T16:01:24.949Z</time>
      </trkpt>
      <trkpt lat="44.80235" lon="4.62536">
        <ele>219.1</ele>
        <time>2023-06-14T16:01:31.738Z</time>
      </trkpt>
      <trkpt lat="44.80239" lon="4.62538">
        <ele>217.7</ele>
        <time>2023-06-14T16:01:33.698Z</time>
      </trkpt>
      <trkpt lat="44.80238" lon="4.62538">
        <ele>218.2</ele>
        <time>2023-06-14T16:01:34.179Z</time>
      </trkpt>
      <trkpt lat="44.80236" lon="4.62538">
        <ele>219.2</ele>
        <time>2023-06-14T16:01:35.155Z</time>
      </trkpt>
      <trkpt lat="44.80235" lon="4.62537">
        <ele>219.4</ele>
        <time>2023-06-14T16:01:35.699Z</time>
      </trkpt>
      <trkpt lat="44.80232" lon="4.62536">
        <ele>220.5</ele>
        <time>2023-06-14T16:01:37.148Z</time>
      </trkpt>
      <trkpt lat="44.8022" lon="4.62532">
        <ele>225.6</ele>
        <time>2023-06-14T16:01:42.993Z</time>
      </trkpt>
      <trkpt lat="44.80219" lon="4.6253">
        <ele>225.7</ele>
        <time>2023-06-14T16:01:43.772Z</time>
      </trkpt>
      <trkpt lat="44.80219" lon="4.62527">
        <ele>224.8</ele>
        <time>2023-06-14T16:01:44.792Z</time>
      </trkpt>
      <trkpt lat="44.80221" lon="4.62521">
        <ele>222.6</ele>
        <time>2023-06-14T16:01:47.066Z</time>
      </trkpt>
      <trkpt lat="44.80222" lon="4.62519">
        <ele>221.5</ele>
        <time>2023-06-14T16:01:47.951Z</time>
      </trkpt>
      <trkpt lat="44.80223" lon="4.62518">
        <ele>220.7</ele>
        <time>2023-06-14T16:01:48.583Z</time>
      </trkpt>
      <trkpt lat="44.80225" lon="4.62514">
        <ele>218.8</ele>
        <time>2023-06-14T16:01:50.295Z</time>
      </trkpt>
      <trkpt lat="44.80226" lon="4.62512">
        <ele>217.9</ele>
        <time>2023-06-14T16:01:51.157Z</time>
      </trkpt>
      <trkpt lat="44.80226" lon="4.62512">
        <ele>217.9</ele>
        <time>2023-06-14T16:01:51.157Z</time>
      </trkpt>
      <trkpt lat="44.80226" lon="4.62509">
        <ele>217.3</ele>
        <time>2023-06-14T16:01:52.130Z</time>
      </trkpt>
      <trkpt lat="44.80224" lon="4.62509">
        <ele>218.4</ele>
        <time>2023-06-14T16:01:53.117Z</time>
      </trkpt>
      <trkpt lat="44.80225" lon="4.62514">
        <ele>218.8</ele>
        <time>2023-06-14T16:01:54.764Z</time>
      </trkpt>
      <trkpt lat="44.80227" lon="4.62516">
        <ele>218.3</ele>
        <time>2023-06-14T16:01:55.874Z</time>
      </trkpt>
      <trkpt lat="44.80232" lon="4.6252">
        <ele>216.9</ele>
        <time>2023-06-14T16:01:58.495Z</time>
      </trkpt>
      <trkpt lat="44.80232" lon="4.62524">
        <ele>217.8</ele>
        <time>2023-06-14T16:01:59.805Z</time>
      </trkpt>
      <trkpt lat="44.80231" lon="4.62527">
        <ele>218.9</ele>
        <time>2023-06-14T16:02:00.938Z</time>
      </trkpt>
      <trkpt lat="44.80229" lon="4.62528">
        <ele>220.1</ele>
        <time>2023-06-14T16:02:02.007Z</time>
      </trkpt>
      <trkpt lat="44.80229" lon="4.62529">
        <ele>220.5</ele>
        <time>2023-06-14T16:02:02.347Z</time>
      </trkpt>
      <trkpt lat="44.80227" lon="4.6253">
        <ele>221.7</ele>
        <time>2023-06-14T16:02:03.416Z</time>
      </trkpt>
      <trkpt lat="44.80225" lon="4.6253">
        <ele>222.8</ele>
        <time>2023-06-14T16:02:04.417Z</time>
      </trkpt>
      <trkpt lat="44.80222" lon="4.62526">
        <ele>223.4</ele>
        <time>2023-06-14T16:02:06.263Z</time>
      </trkpt>
      <trkpt lat="44.80223" lon="4.62524">
        <ele>222.3</ele>
        <time>2023-06-14T16:02:07.156Z</time>
      </trkpt>
      <trkpt lat="44.80218" lon="4.62521">
        <ele>224</ele>
        <time>2023-06-14T16:02:09.670Z</time>
      </trkpt>
      <trkpt lat="44.80217" lon="4.62521">
        <ele>224.5</ele>
        <time>2023-06-14T16:02:10.156Z</time>
      </trkpt>
      <trkpt lat="44.80218" lon="4.62516">
        <ele>222.7</ele>
        <time>2023-06-14T16:02:11.937Z</time>
      </trkpt>
      <trkpt lat="44.8022" lon="4.62509">
        <ele>220.2</ele>
        <time>2023-06-14T16:02:14.518Z</time>
      </trkpt>
      <trkpt lat="44.8022" lon="4.62506">
        <ele>219.3</ele>
        <time>2023-06-14T16:02:15.538Z</time>
      </trkpt>
      <trkpt lat="44.8022" lon="4.62505">
        <ele>219</ele>
        <time>2023-06-14T16:02:15.879Z</time>
      </trkpt>
      <trkpt lat="44.80223" lon="4.62502">
        <ele>217</ele>
        <time>2023-06-14T16:02:17.701Z</time>
      </trkpt>
      <trkpt lat="44.80224" lon="4.62502">
        <ele>216.5</ele>
        <time>2023-06-14T16:02:18.185Z</time>
      </trkpt>
      <trkpt lat="44.80224" lon="4.62502">
        <ele>216.5</ele>
        <time>2023-06-14T16:02:18.185Z</time>
      </trkpt>
      <trkpt lat="44.80224" lon="4.62508">
        <ele>218.1</ele>
        <time>2023-06-14T16:02:20.177Z</time>
      </trkpt>
      <trkpt lat="44.80226" lon="4.6251">
        <ele>217.3</ele>
        <time>2023-06-14T16:02:21.308Z</time>
      </trkpt>
      <trkpt lat="44.80226" lon="4.6251">
        <ele>217.3</ele>
        <time>2023-06-14T16:02:21.308Z</time>
      </trkpt>
      <trkpt lat="44.80226" lon="4.6251">
        <ele>217.3</ele>
        <time>2023-06-14T16:02:21.308Z</time>
      </trkpt>
      <trkpt lat="44.80218" lon="4.62511">
        <ele>221.5</ele>
        <time>2023-06-14T16:02:25.252Z</time>
      </trkpt>
      <trkpt lat="44.80211" lon="4.6251">
        <ele>224.6</ele>
        <time>2023-06-14T16:02:28.619Z</time>
      </trkpt>
      <trkpt lat="44.8021" lon="4.62511">
        <ele>225.3</ele>
        <time>2023-06-14T16:02:29.247Z</time>
      </trkpt>
      <trkpt lat="44.80211" lon="4.62512">
        <ele>225.2</ele>
        <time>2023-06-14T16:02:29.789Z</time>
      </trkpt>
      <trkpt lat="44.80212" lon="4.62515">
        <ele>225.2</ele>
        <time>2023-06-14T16:02:30.837Z</time>
      </trkpt>
      <trkpt lat="44.80211" lon="4.62515">
        <ele>225.9</ele>
        <time>2023-06-14T16:02:31.349Z</time>
      </trkpt>
      <trkpt lat="44.80212" lon="4.62516">
        <ele>225.6</ele>
        <time>2023-06-14T16:02:31.911Z</time>
      </trkpt>
      <trkpt lat="44.80215" lon="4.62517">
        <ele>224.5</ele>
        <time>2023-06-14T16:02:33.350Z</time>
      </trkpt>
      <trkpt lat="44.80216" lon="4.62518">
        <ele>224</ele>
        <time>2023-06-14T16:02:33.921Z</time>
      </trkpt>
      <trkpt lat="44.80216" lon="4.62517">
        <ele>224</ele>
        <time>2023-06-14T16:02:34.234Z</time>
      </trkpt>
      <trkpt lat="44.80217" lon="4.62516">
        <ele>223.2</ele>
        <time>2023-06-14T16:02:34.867Z</time>
      </trkpt>
      <trkpt lat="44.80221" lon="4.62516">
        <ele>221.3</ele>
        <time>2023-06-14T16:02:36.801Z</time>
      </trkpt>
      <trkpt lat="44.80227" lon="4.62512">
        <ele>217.4</ele>
        <time>2023-06-14T16:02:40.140Z</time>
      </trkpt>
      <trkpt lat="44.80232" lon="4.6251">
        <ele>214.5</ele>
        <time>2023-06-14T16:02:42.731Z</time>
      </trkpt>
      <trkpt lat="44.80235" lon="4.62509">
        <ele>213.1</ele>
        <time>2023-06-14T16:02:44.210Z</time>
      </trkpt>
      <trkpt lat="44.8024" lon="4.62508">
        <ele>210.3</ele>
        <time>2023-06-14T16:02:46.713Z</time>
      </trkpt>
      <trkpt lat="44.80237" lon="4.62511">
        <ele>212.5</ele>
        <time>2023-06-14T16:02:48.558Z</time>
      </trkpt>
      <trkpt lat="44.80233" lon="4.62517">
        <ele>215.8</ele>
        <time>2023-06-14T16:02:51.481Z</time>
      </trkpt>
      <trkpt lat="44.80228" lon="4.62521">
        <ele>219.1</ele>
        <time>2023-06-14T16:02:54.356Z</time>
      </trkpt>
      <trkpt lat="44.80225" lon="4.62521">
        <ele>220.7</ele>
        <time>2023-06-14T16:02:55.833Z</time>
      </trkpt>
      <trkpt lat="44.80223" lon="4.6252">
        <ele>221.3</ele>
        <time>2023-06-14T16:02:56.808Z</time>
      </trkpt>
      <trkpt lat="44.80223" lon="4.6252">
        <ele>221.3</ele>
        <time>2023-06-14T16:02:56.808Z</time>
      </trkpt>
      <trkpt lat="44.80224" lon="4.62517">
        <ele>220.2</ele>
        <time>2023-06-14T16:02:57.942Z</time>
      </trkpt>
      <trkpt lat="44.80224" lon="4.62517">
        <ele>220.2</ele>
        <time>2023-06-14T16:02:57.942Z</time>
      </trkpt>
      <trkpt lat="44.80224" lon="4.62518">
        <ele>220.2</ele>
        <time>2023-06-14T16:02:58.255Z</time>
      </trkpt>
      <trkpt lat="44.80224" lon="4.6252">
        <ele>220.8</ele>
        <time>2023-06-14T16:02:58.937Z</time>
      </trkpt>
      <trkpt lat="44.80224" lon="4.62522">
        <ele>221.5</ele>
        <time>2023-06-14T16:02:59.613Z</time>
      </trkpt>
      <trkpt lat="44.80223" lon="4.62523">
        <ele>221.9</ele>
        <time>2023-06-14T16:03:00.194Z</time>
      </trkpt>
      <trkpt lat="44.80223" lon="4.62523">
        <ele>221.9</ele>
        <time>2023-06-14T16:03:00.194Z</time>
      </trkpt>
      <trkpt lat="44.80222" lon="4.62524">
        <ele>222.7</ele>
        <time>2023-06-14T16:03:00.824Z</time>
      </trkpt>
      <trkpt lat="44.80222" lon="4.62524">
        <ele>222.7</ele>
        <time>2023-06-14T16:03:00.824Z</time>
      </trkpt>
      <trkpt lat="44.80222" lon="4.62525">
        <ele>223</ele>
        <time>2023-06-14T16:03:01.165Z</time>
      </trkpt>
      <trkpt lat="44.80221" lon="4.62524">
        <ele>223.2</ele>
        <time>2023-06-14T16:03:01.711Z</time>
      </trkpt>
      <trkpt lat="44.80225" lon="4.62522">
        <ele>221</ele>
        <time>2023-06-14T16:03:03.792Z</time>
      </trkpt>
      <trkpt lat="44.8023" lon="4.62523">
        <ele>218.5</ele>
        <time>2023-06-14T16:03:06.262Z</time>
      </trkpt>
      <trkpt lat="44.80225" lon="4.62522">
        <ele>221</ele>
        <time>2023-06-14T16:03:08.732Z</time>
      </trkpt>
      <trkpt lat="44.8023" lon="4.62523">
        <ele>218.5</ele>
        <time>2023-06-14T16:03:11.202Z</time>
      </trkpt>
      <trkpt lat="44.80231" lon="4.62524">
        <ele>218.3</ele>
        <time>2023-06-14T16:03:11.745Z</time>
      </trkpt>
      <trkpt lat="44.80232" lon="4.62524">
        <ele>217.8</ele>
        <time>2023-06-14T16:03:12.232Z</time>
      </trkpt>
      <trkpt lat="44.80232" lon="4.62525">
        <ele>218.1</ele>
        <time>2023-06-14T16:03:12.572Z</time>
      </trkpt>
      <trkpt lat="44.80229" lon="4.62529">
        <ele>220.5</ele>
        <time>2023-06-14T16:03:14.636Z</time>
      </trkpt>
      <trkpt lat="44.80226" lon="4.62532">
        <ele>222.5</ele>
        <time>2023-06-14T16:03:16.468Z</time>
      </trkpt>
      <trkpt lat="44.80226" lon="4.62535">
        <ele>223.4</ele>
        <time>2023-06-14T16:03:17.479Z</time>
      </trkpt>
      <trkpt lat="44.80229" lon="4.62536">
        <ele>222</ele>
        <time>2023-06-14T16:03:18.970Z</time>
      </trkpt>
      <trkpt lat="44.80233" lon="4.62536">
        <ele>220</ele>
        <time>2023-06-14T16:03:20.914Z</time>
      </trkpt>
      <trkpt lat="44.80236" lon="4.62535">
        <ele>218.6</ele>
        <time>2023-06-14T16:03:22.399Z</time>
      </trkpt>
      <trkpt lat="44.80239" lon="4.62536">
        <ele>217.1</ele>
        <time>2023-06-14T16:03:23.890Z</time>
      </trkpt>
      <trkpt lat="44.80241" lon="4.62536">
        <ele>216</ele>
        <time>2023-06-14T16:03:24.893Z</time>
      </trkpt>
      <trkpt lat="44.80241" lon="4.62537">
        <ele>216.3</ele>
        <time>2023-06-14T16:03:25.231Z</time>
      </trkpt>
      <trkpt lat="44.8024" lon="4.62537">
        <ele>216.8</ele>
        <time>2023-06-14T16:03:25.719Z</time>
      </trkpt>
      <trkpt lat="44.80237" lon="4.62538">
        <ele>218.7</ele>
        <time>2023-06-14T16:03:27.291Z</time>
      </trkpt>
      <trkpt lat="44.80235" lon="4.62537">
        <ele>219.4</ele>
        <time>2023-06-14T16:03:28.269Z</time>
      </trkpt>
      <trkpt lat="44.80231" lon="4.62536">
        <ele>221</ele>
        <time>2023-06-14T16:03:30.195Z</time>
      </trkpt>
      <trkpt lat="44.80219" lon="4.62534">
        <ele>226.7</ele>
        <time>2023-06-14T16:03:36.032Z</time>
      </trkpt>
      <trkpt lat="44.80218" lon="4.62531">
        <ele>226.2</ele>
        <time>2023-06-14T16:03:37.092Z</time>
      </trkpt>
      <trkpt lat="44.80222" lon="4.6252">
        <ele>221.8</ele>
        <time>2023-06-14T16:03:41.374Z</time>
      </trkpt>
      <trkpt lat="44.80223" lon="4.62517">
        <ele>220.7</ele>
        <time>2023-06-14T16:03:42.509Z</time>
      </trkpt>
      <trkpt lat="44.80225" lon="4.62514">
        <ele>218.8</ele>
        <time>2023-06-14T16:03:44.007Z</time>
      </trkpt>
      <trkpt lat="44.80224" lon="4.62513">
        <ele>219.3</ele>
        <time>2023-06-14T16:03:44.581Z</time>
      </trkpt>
      <trkpt lat="44.80223" lon="4.62511">
        <ele>219.1</ele>
        <time>2023-06-14T16:03:45.356Z</time>
      </trkpt>
      <trkpt lat="44.80221" lon="4.62512">
        <ele>220.4</ele>
        <time>2023-06-14T16:03:46.420Z</time>
      </trkpt>
      <trkpt lat="44.80223" lon="4.62512">
        <ele>219.4</ele>
        <time>2023-06-14T16:03:47.382Z</time>
      </trkpt>
      <trkpt lat="44.80224" lon="4.62513">
        <ele>219.3</ele>
        <time>2023-06-14T16:03:47.934Z</time>
      </trkpt>
      <trkpt lat="44.80225" lon="4.6252">
        <ele>220.4</ele>
        <time>2023-06-14T16:03:50.230Z</time>
      </trkpt>
      <trkpt lat="44.80224" lon="4.62521">
        <ele>221.2</ele>
        <time>2023-06-14T16:03:50.854Z</time>
      </trkpt>
      <trkpt lat="44.80227" lon="4.62523">
        <ele>219.9</ele>
        <time>2023-06-14T16:03:52.417Z</time>
      </trkpt>
      <trkpt lat="44.80226" lon="4.62524">
        <ele>220.7</ele>
        <time>2023-06-14T16:03:53.046Z</time>
      </trkpt>
      <trkpt lat="44.80224" lon="4.62524">
        <ele>221.8</ele>
        <time>2023-06-14T16:03:54.038Z</time>
      </trkpt>
      <trkpt lat="44.80222" lon="4.62521">
        <ele>222.1</ele>
        <time>2023-06-14T16:03:55.347Z</time>
      </trkpt>
      <trkpt lat="44.80222" lon="4.6252">
        <ele>221.8</ele>
        <time>2023-06-14T16:03:55.683Z</time>
      </trkpt>
      <trkpt lat="44.80223" lon="4.62517">
        <ele>220.7</ele>
        <time>2023-06-14T16:03:56.818Z</time>
      </trkpt>
      <trkpt lat="44.80225" lon="4.62513">
        <ele>218.8</ele>
        <time>2023-06-14T16:03:58.534Z</time>
      </trkpt>
      <trkpt lat="44.80224" lon="4.62513">
        <ele>219.3</ele>
        <time>2023-06-14T16:03:59.012Z</time>
      </trkpt>
      <trkpt lat="44.80226" lon="4.62515">
        <ele>218.5</ele>
        <time>2023-06-14T16:04:00.144Z</time>
      </trkpt>
      <trkpt lat="44.80228" lon="4.62513">
        <ele>217.3</ele>
        <time>2023-06-14T16:04:01.340Z</time>
      </trkpt>
      <trkpt lat="44.80225" lon="4.62513">
        <ele>218.8</ele>
        <time>2023-06-14T16:04:02.813Z</time>
      </trkpt>
      <trkpt lat="44.80224" lon="4.62512">
        <ele>219</ele>
        <time>2023-06-14T16:04:03.359Z</time>
      </trkpt>
      <trkpt lat="44.80224" lon="4.62511">
        <ele>218.7</ele>
        <time>2023-06-14T16:04:03.695Z</time>
      </trkpt>
      <trkpt lat="44.80224" lon="4.62511">
        <ele>218.7</ele>
        <time>2023-06-14T16:04:03.695Z</time>
      </trkpt>
      <trkpt lat="44.80224" lon="4.62511">
        <ele>218.7</ele>
        <time>2023-06-14T16:04:03.695Z</time>
      </trkpt>
      <trkpt lat="44.80224" lon="4.62511">
        <ele>218.7</ele>
        <time>2023-06-14T16:04:03.695Z</time>
      </trkpt>
      <trkpt lat="44.80223" lon="4.62511">
        <ele>219.1</ele>
        <time>2023-06-14T16:04:04.179Z</time>
      </trkpt>
      <trkpt lat="44.80223" lon="4.62512">
        <ele>219.4</ele>
        <time>2023-06-14T16:04:04.515Z</time>
      </trkpt>
      <trkpt lat="44.80222" lon="4.62512">
        <ele>219.9</ele>
        <time>2023-06-14T16:04:05.000Z</time>
      </trkpt>
      <trkpt lat="44.80221" lon="4.62511">
        <ele>220.1</ele>
        <time>2023-06-14T16:04:05.543Z</time>
      </trkpt>
      <trkpt lat="44.8022" lon="4.62508">
        <ele>219.9</ele>
        <time>2023-06-14T16:04:06.592Z</time>
      </trkpt>
      <trkpt lat="44.80224" lon="4.62504">
        <ele>217.1</ele>
        <time>2023-06-14T16:04:09.045Z</time>
      </trkpt>
      <trkpt lat="44.80227" lon="4.62504">
        <ele>215.6</ele>
        <time>2023-06-14T16:04:10.513Z</time>
      </trkpt>
      <trkpt lat="44.80227" lon="4.62508">
        <ele>216.5</ele>
        <time>2023-06-14T16:04:11.830Z</time>
      </trkpt>
      <trkpt lat="44.80223" lon="4.62511">
        <ele>219.1</ele>
        <time>2023-06-14T16:04:14.106Z</time>
      </trkpt>
      <trkpt lat="44.80223" lon="4.6251">
        <ele>218.8</ele>
        <time>2023-06-14T16:04:14.448Z</time>
      </trkpt>
      <trkpt lat="44.8022" lon="4.62513">
        <ele>221.2</ele>
        <time>2023-06-14T16:04:16.332Z</time>
      </trkpt>
      <trkpt lat="44.8022" lon="4.62517">
        <ele>222.1</ele>
        <time>2023-06-14T16:04:17.652Z</time>
      </trkpt>
      <trkpt lat="44.80217" lon="4.6252">
        <ele>224.2</ele>
        <time>2023-06-14T16:04:19.482Z</time>
      </trkpt>
      <trkpt lat="44.80216" lon="4.62521">
        <ele>225</ele>
        <time>2023-06-14T16:04:20.113Z</time>
      </trkpt>
      <trkpt lat="44.80216" lon="4.62523">
        <ele>225.3</ele>
        <time>2023-06-14T16:04:20.760Z</time>
      </trkpt>
      <trkpt lat="44.80216" lon="4.62523">
        <ele>225.3</ele>
        <time>2023-06-14T16:04:20.760Z</time>
      </trkpt>
      <trkpt lat="44.80217" lon="4.62523">
        <ele>224.8</ele>
        <time>2023-06-14T16:04:21.246Z</time>
      </trkpt>
      <trkpt lat="44.80217" lon="4.62523">
        <ele>224.8</ele>
        <time>2023-06-14T16:04:21.246Z</time>
      </trkpt>
      <trkpt lat="44.80218" lon="4.62523">
        <ele>224.3</ele>
        <time>2023-06-14T16:04:21.732Z</time>
      </trkpt>
      <trkpt lat="44.80218" lon="4.62522">
        <ele>224.3</ele>
        <time>2023-06-14T16:04:22.049Z</time>
      </trkpt>
      <trkpt lat="44.80216" lon="4.62521">
        <ele>225</ele>
        <time>2023-06-14T16:04:23.032Z</time>
      </trkpt>
      <trkpt lat="44.80213" lon="4.62517">
        <ele>225.4</ele>
        <time>2023-06-14T16:04:24.875Z</time>
      </trkpt>
      <trkpt lat="44.80214" lon="4.62517">
        <ele>224.9</ele>
        <time>2023-06-14T16:04:25.360Z</time>
      </trkpt>
      <trkpt lat="44.80212" lon="4.62516">
        <ele>225.6</ele>
        <time>2023-06-14T16:04:26.334Z</time>
      </trkpt>
      <trkpt lat="44.8021" lon="4.62509">
        <ele>225</ele>
        <time>2023-06-14T16:04:28.721Z</time>
      </trkpt>
      <trkpt lat="44.80212" lon="4.6251">
        <ele>223.9</ele>
        <time>2023-06-14T16:04:29.757Z</time>
      </trkpt>
      <trkpt lat="44.80215" lon="4.62515">
        <ele>223.8</ele>
        <time>2023-06-14T16:04:31.823Z</time>
      </trkpt>
      <trkpt lat="44.80212" lon="4.62518">
        <ele>225.9</ele>
        <time>2023-06-14T16:04:33.654Z</time>
      </trkpt>
      <trkpt lat="44.80212" lon="4.62518">
        <ele>225.9</ele>
        <time>2023-06-14T16:04:33.654Z</time>
      </trkpt>
      <trkpt lat="44.80212" lon="4.62518">
        <ele>225.9</ele>
        <time>2023-06-14T16:04:33.654Z</time>
      </trkpt>
      <trkpt lat="44.80212" lon="4.62518">
        <ele>225.9</ele>
        <time>2023-06-14T16:04:33.654Z</time>
      </trkpt>
      <trkpt lat="44.80213" lon="4.62519">
        <ele>225.7</ele>
        <time>2023-06-14T16:04:34.200Z</time>
      </trkpt>
      <trkpt lat="44.80214" lon="4.62519">
        <ele>225.3</ele>
        <time>2023-06-14T16:04:34.686Z</time>
      </trkpt>
      <trkpt lat="44.80215" lon="4.62519">
        <ele>224.8</ele>
        <time>2023-06-14T16:04:35.172Z</time>
      </trkpt>
      <trkpt lat="44.80215" lon="4.6252">
        <ele>225.1</ele>
        <time>2023-06-14T16:04:35.514Z</time>
      </trkpt>
      <trkpt lat="44.80214" lon="4.62518">
        <ele>224.9</ele>
        <time>2023-06-14T16:04:36.293Z</time>
      </trkpt>
      <trkpt lat="44.80216" lon="4.62515">
        <ele>223.4</ele>
        <time>2023-06-14T16:04:37.737Z</time>
      </trkpt>
      <trkpt lat="44.80219" lon="4.62516">
        <ele>222.3</ele>
        <time>2023-06-14T16:04:39.176Z</time>
      </trkpt>
      <trkpt lat="44.8022" lon="4.62516">
        <ele>221.8</ele>
        <time>2023-06-14T16:04:39.661Z</time>
      </trkpt>
      <trkpt lat="44.80224" lon="4.62513">
        <ele>219.3</ele>
        <time>2023-06-14T16:04:41.913Z</time>
      </trkpt>
      <trkpt lat="44.80226" lon="4.62512">
        <ele>217.9</ele>
        <time>2023-06-14T16:04:43.009Z</time>
      </trkpt>
      <trkpt lat="44.80219" lon="4.6252">
        <ele>223.2</ele>
        <time>2023-06-14T16:04:47.551Z</time>
      </trkpt>
      <trkpt lat="44.80218" lon="4.62521">
        <ele>224</ele>
        <time>2023-06-14T16:04:48.176Z</time>
      </trkpt>
      <trkpt lat="44.80214" lon="4.62525">
        <ele>226.9</ele>
        <time>2023-06-14T16:04:50.643Z</time>
      </trkpt>
      <trkpt lat="44.8021" lon="4.62526">
        <ele>229.3</ele>
        <time>2023-06-14T16:04:52.684Z</time>
      </trkpt>
      <trkpt lat="44.8021" lon="4.62527">
        <ele>229.3</ele>
        <time>2023-06-14T16:04:52.997Z</time>
      </trkpt>
      <trkpt lat="44.8021" lon="4.62527">
        <ele>229.3</ele>
        <time>2023-06-14T16:04:52.997Z</time>
      </trkpt>
      <trkpt lat="44.80219" lon="4.62519">
        <ele>222.9</ele>
        <time>2023-06-14T16:04:58.365Z</time>
      </trkpt>
      <trkpt lat="44.80219" lon="4.62519">
        <ele>222.9</ele>
        <time>2023-06-14T16:04:58.365Z</time>
      </trkpt>
      <trkpt lat="44.80219" lon="4.62519">
        <ele>222.9</ele>
        <time>2023-06-14T16:04:58.365Z</time>
      </trkpt>
      <trkpt lat="44.80219" lon="4.62519">
        <ele>222.9</ele>
        <time>2023-06-14T16:04:58.365Z</time>
      </trkpt>
      <trkpt lat="44.80219" lon="4.62519">
        <ele>222.9</ele>
        <time>2023-06-14T16:04:58.365Z</time>
      </trkpt>
      <trkpt lat="44.80219" lon="4.62518">
        <ele>222.6</ele>
        <time>2023-06-14T16:04:58.706Z</time>
      </trkpt>
      <trkpt lat="44.80219" lon="4.62517">
        <ele>222.6</ele>
        <time>2023-06-14T16:04:59.018Z</time>
      </trkpt>
      <trkpt lat="44.8022" lon="4.62516">
        <ele>221.8</ele>
        <time>2023-06-14T16:04:59.650Z</time>
      </trkpt>
      <trkpt lat="44.8022" lon="4.62518">
        <ele>222.1</ele>
        <time>2023-06-14T16:05:00.292Z</time>
      </trkpt>
      <trkpt lat="44.8022" lon="4.62518">
        <ele>222.1</ele>
        <time>2023-06-14T16:05:00.292Z</time>
      </trkpt>
      <trkpt lat="44.80223" lon="4.6252">
        <ele>221.3</ele>
        <time>2023-06-14T16:05:01.804Z</time>
      </trkpt>
      <trkpt lat="44.80223" lon="4.6252">
        <ele>221.3</ele>
        <time>2023-06-14T16:05:01.804Z</time>
      </trkpt>
      <trkpt lat="44.80222" lon="4.62521">
        <ele>222.1</ele>
        <time>2023-06-14T16:05:02.433Z</time>
      </trkpt>
      <trkpt lat="44.80222" lon="4.62521">
        <ele>222.1</ele>
        <time>2023-06-14T16:05:02.433Z</time>
      </trkpt>
      <trkpt lat="44.80222" lon="4.62521">
        <ele>222.1</ele>
        <time>2023-06-14T16:05:02.433Z</time>
      </trkpt>
      <trkpt lat="44.80223" lon="4.62521">
        <ele>221.6</ele>
        <time>2023-06-14T16:05:02.919Z</time>
      </trkpt>
      <trkpt lat="44.80227" lon="4.62523">
        <ele>219.9</ele>
        <time>2023-06-14T16:05:04.936Z</time>
      </trkpt>
      <trkpt lat="44.80227" lon="4.62525">
        <ele>220.5</ele>
        <time>2023-06-14T16:05:05.612Z</time>
      </trkpt>
      <trkpt lat="44.80225" lon="4.62525">
        <ele>221.6</ele>
        <time>2023-06-14T16:05:06.611Z</time>
      </trkpt>
      <trkpt lat="44.80221" lon="4.62522">
        <ele>222.9</ele>
        <time>2023-06-14T16:05:08.687Z</time>
      </trkpt>
      <trkpt lat="44.80221" lon="4.62522">
        <ele>222.9</ele>
        <time>2023-06-14T16:05:08.687Z</time>
      </trkpt>
      <trkpt lat="44.8022" lon="4.62522">
        <ele>223.4</ele>
        <time>2023-06-14T16:05:09.173Z</time>
      </trkpt>
      <trkpt lat="44.80221" lon="4.6252">
        <ele>222.3</ele>
        <time>2023-06-14T16:05:10.062Z</time>
      </trkpt>
      <trkpt lat="44.8022" lon="4.62521">
        <ele>223.1</ele>
        <time>2023-06-14T16:05:10.693Z</time>
      </trkpt>
      <trkpt lat="44.80216" lon="4.62527">
        <ele>226.2</ele>
        <time>2023-06-14T16:05:13.587Z</time>
      </trkpt>
      <trkpt lat="44.80211" lon="4.62531">
        <ele>229.8</ele>
        <time>2023-06-14T16:05:16.506Z</time>
      </trkpt>
      <trkpt lat="44.80208" lon="4.62531">
        <ele>231.2</ele>
        <time>2023-06-14T16:05:17.961Z</time>
      </trkpt>
      <trkpt lat="44.80208" lon="4.62532">
        <ele>231.5</ele>
        <time>2023-06-14T16:05:18.304Z</time>
      </trkpt>
      <trkpt lat="44.80208" lon="4.62531">
        <ele>231.2</ele>
        <time>2023-06-14T16:05:18.648Z</time>
      </trkpt>
      <trkpt lat="44.80211" lon="4.62528">
        <ele>229.1</ele>
        <time>2023-06-14T16:05:20.487Z</time>
      </trkpt>
      <trkpt lat="44.80214" lon="4.62524">
        <ele>226.5</ele>
        <time>2023-06-14T16:05:22.592Z</time>
      </trkpt>
      <trkpt lat="44.80215" lon="4.62524">
        <ele>226.1</ele>
        <time>2023-06-14T16:05:23.078Z</time>
      </trkpt>
      <trkpt lat="44.80215" lon="4.62525">
        <ele>226.4</ele>
        <time>2023-06-14T16:05:23.420Z</time>
      </trkpt>
      <trkpt lat="44.80215" lon="4.62525">
        <ele>226.4</ele>
        <time>2023-06-14T16:05:23.420Z</time>
      </trkpt>
      <trkpt lat="44.80217" lon="4.62524">
        <ele>225.1</ele>
        <time>2023-06-14T16:05:24.491Z</time>
      </trkpt>
      <trkpt lat="44.80219" lon="4.62523">
        <ele>223.8</ele>
        <time>2023-06-14T16:05:25.560Z</time>
      </trkpt>
      <trkpt lat="44.80221" lon="4.62521">
        <ele>222.6</ele>
        <time>2023-06-14T16:05:26.767Z</time>
      </trkpt>
      <trkpt lat="44.80225" lon="4.62519">
        <ele>220.1</ele>
        <time>2023-06-14T16:05:28.902Z</time>
      </trkpt>
      <trkpt lat="44.80227" lon="4.62518">
        <ele>218.7</ele>
        <time>2023-06-14T16:05:30.006Z</time>
      </trkpt>
      <trkpt lat="44.80231" lon="4.62515">
        <ele>216.2</ele>
        <time>2023-06-14T16:05:32.250Z</time>
      </trkpt>
      <trkpt lat="44.80225" lon="4.6252">
        <ele>220.4</ele>
        <time>2023-06-14T16:05:35.780Z</time>
      </trkpt>
      <trkpt lat="44.80223" lon="4.6252">
        <ele>221.3</ele>
        <time>2023-06-14T16:05:36.744Z</time>
      </trkpt>
      <trkpt lat="44.8022" lon="4.62524">
        <ele>223.7</ele>
        <time>2023-06-14T16:05:38.808Z</time>
      </trkpt>
      <trkpt lat="44.80217" lon="4.62529">
        <ele>226.4</ele>
        <time>2023-06-14T16:05:41.143Z</time>
      </trkpt>
      <trkpt lat="44.80217" lon="4.62531">
        <ele>226.7</ele>
        <time>2023-06-14T16:05:41.785Z</time>
      </trkpt>
      <trkpt lat="44.80216" lon="4.62531">
        <ele>227.2</ele>
        <time>2023-06-14T16:05:42.272Z</time>
      </trkpt>
      <trkpt lat="44.80216" lon="4.62532">
        <ele>227.5</ele>
        <time>2023-06-14T16:05:42.614Z</time>
      </trkpt>
      <trkpt lat="44.80212" lon="4.62537">
        <ele>230.7</ele>
        <time>2023-06-14T16:05:45.316Z</time>
      </trkpt>
      <trkpt lat="44.80204" lon="4.62544">
        <ele>236.5</ele>
        <time>2023-06-14T16:05:50.086Z</time>
      </trkpt>
      <trkpt lat="44.80205" lon="4.62541">
        <ele>235.3</ele>
        <time>2023-06-14T16:05:51.228Z</time>
      </trkpt>
      <trkpt lat="44.80207" lon="4.62538">
        <ele>233.7</ele>
        <time>2023-06-14T16:05:52.687Z</time>
      </trkpt>
      <trkpt lat="44.80207" lon="4.62538">
        <ele>233.7</ele>
        <time>2023-06-14T16:05:52.687Z</time>
      </trkpt>
      <trkpt lat="44.80209" lon="4.62534">
        <ele>231.7</ele>
        <time>2023-06-14T16:05:54.414Z</time>
      </trkpt>
      <trkpt lat="44.80214" lon="4.62528">
        <ele>227.5</ele>
        <time>2023-06-14T16:05:57.782Z</time>
      </trkpt>
      <trkpt lat="44.80217" lon="4.62525">
        <ele>225.4</ele>
        <time>2023-06-14T16:05:59.616Z</time>
      </trkpt>
      <trkpt lat="44.80222" lon="4.6252">
        <ele>221.8</ele>
        <time>2023-06-14T16:06:02.705Z</time>
      </trkpt>
      <trkpt lat="44.80222" lon="4.62519">
        <ele>221.5</ele>
        <time>2023-06-14T16:06:03.046Z</time>
      </trkpt>
      <trkpt lat="44.80224" lon="4.62517">
        <ele>220.2</ele>
        <time>2023-06-14T16:06:04.250Z</time>
      </trkpt>
      <trkpt lat="44.80225" lon="4.62516">
        <ele>219.4</ele>
        <time>2023-06-14T16:06:04.876Z</time>
      </trkpt>
      <trkpt lat="44.80226" lon="4.62512">
        <ele>217.9</ele>
        <time>2023-06-14T16:06:06.353Z</time>
      </trkpt>
      <trkpt lat="44.80225" lon="4.62512">
        <ele>218.5</ele>
        <time>2023-06-14T16:06:06.865Z</time>
      </trkpt>
      <trkpt lat="44.80225" lon="4.62512">
        <ele>218.5</ele>
        <time>2023-06-14T16:06:06.865Z</time>
      </trkpt>
      <trkpt lat="44.80226" lon="4.62511">
        <ele>217.6</ele>
        <time>2023-06-14T16:06:07.525Z</time>
      </trkpt>
      <trkpt lat="44.80227" lon="4.6251">
        <ele>216.8</ele>
        <time>2023-06-14T16:06:08.155Z</time>
      </trkpt>
      <trkpt lat="44.80227" lon="4.62508">
        <ele>216.5</ele>
        <time>2023-06-14T16:06:08.796Z</time>
      </trkpt>
      <trkpt lat="44.80227" lon="4.62508">
        <ele>216.5</ele>
        <time>2023-06-14T16:06:08.796Z</time>
      </trkpt>
      <trkpt lat="44.8023" lon="4.62508">
        <ele>215.1</ele>
        <time>2023-06-14T16:06:10.242Z</time>
      </trkpt>
      <trkpt lat="44.80228" lon="4.62508">
        <ele>216</ele>
        <time>2023-06-14T16:06:11.210Z</time>
      </trkpt>
      <trkpt lat="44.80228" lon="4.62505">
        <ele>215.1</ele>
        <time>2023-06-14T16:06:12.226Z</time>
      </trkpt>
      <trkpt lat="44.80227" lon="4.62504">
        <ele>215.6</ele>
        <time>2023-06-14T16:06:12.798Z</time>
      </trkpt>
      <trkpt lat="44.80227" lon="4.62503">
        <ele>215.3</ele>
        <time>2023-06-14T16:06:13.133Z</time>
      </trkpt>
      <trkpt lat="44.80228" lon="4.62502">
        <ele>214.5</ele>
        <time>2023-06-14T16:06:13.756Z</time>
      </trkpt>
      <trkpt lat="44.80228" lon="4.62502">
        <ele>214.5</ele>
        <time>2023-06-14T16:06:13.756Z</time>
      </trkpt>
      <trkpt lat="44.80228" lon="4.62501">
        <ele>214.2</ele>
        <time>2023-06-14T16:06:14.096Z</time>
      </trkpt>
      <trkpt lat="44.80228" lon="4.62498">
        <ele>213.6</ele>
        <time>2023-06-14T16:06:15.072Z</time>
      </trkpt>
      <trkpt lat="44.80225" lon="4.62494">
        <ele>214.2</ele>
        <time>2023-06-14T16:06:16.923Z</time>
      </trkpt>
      <trkpt lat="44.80221" lon="4.62489">
        <ele>214.8</ele>
        <time>2023-06-14T16:06:19.312Z</time>
      </trkpt>
      <trkpt lat="44.80219" lon="4.62486">
        <ele>215.1</ele>
        <time>2023-06-14T16:06:20.615Z</time>
      </trkpt>
      <trkpt lat="44.80215" lon="4.6248">
        <ele>215.4</ele>
        <time>2023-06-14T16:06:23.212Z</time>
      </trkpt>
      <trkpt lat="44.80212" lon="4.62476">
        <ele>215.8</ele>
        <time>2023-06-14T16:06:25.058Z</time>
      </trkpt>
      <trkpt lat="44.8021" lon="4.62472">
        <ele>215.9</ele>
        <time>2023-06-14T16:06:26.603Z</time>
      </trkpt>
      <trkpt lat="44.80208" lon="4.62463">
        <ele>214.6</ele>
        <time>2023-06-14T16:06:29.622Z</time>
      </trkpt>
      <trkpt lat="44.80206" lon="4.62459">
        <ele>214.5</ele>
        <time>2023-06-14T16:06:31.167Z</time>
      </trkpt>
      <trkpt lat="44.80204" lon="4.62454">
        <ele>214.1</ele>
        <time>2023-06-14T16:06:32.982Z</time>
      </trkpt>
      <trkpt lat="44.802" lon="4.62445">
        <ele>213.6</ele>
        <time>2023-06-14T16:06:36.342Z</time>
      </trkpt>
      <trkpt lat="44.80196" lon="4.62436">
        <ele>213.5</ele>
        <time>2023-06-14T16:06:39.695Z</time>
      </trkpt>
      <trkpt lat="44.80196" lon="4.62432">
        <ele>212.2</ele>
        <time>2023-06-14T16:06:41.060Z</time>
      </trkpt>
      <trkpt lat="44.80195" lon="4.62427">
        <ele>211.7</ele>
        <time>2023-06-14T16:06:42.711Z</time>
      </trkpt>
      <trkpt lat="44.80194" lon="4.62421">
        <ele>210.5</ele>
        <time>2023-06-14T16:06:44.715Z</time>
      </trkpt>
      <trkpt lat="44.80192" lon="4.62416">
        <ele>210.1</ele>
        <time>2023-06-14T16:06:46.530Z</time>
      </trkpt>
      <trkpt lat="44.80191" lon="4.62411">
        <ele>209.5</ele>
        <time>2023-06-14T16:06:48.184Z</time>
      </trkpt>
      <trkpt lat="44.80191" lon="4.62406">
        <ele>208.6</ele>
        <time>2023-06-14T16:06:49.812Z</time>
      </trkpt>
      <trkpt lat="44.80191" lon="4.62399">
        <ele>207.4</ele>
        <time>2023-06-14T16:06:52.069Z</time>
      </trkpt>
      <trkpt lat="44.8019" lon="4.62394">
        <ele>206.8</ele>
        <time>2023-06-14T16:06:53.729Z</time>
      </trkpt>
      <trkpt lat="44.8019" lon="4.62388">
        <ele>205.8</ele>
        <time>2023-06-14T16:06:55.657Z</time>
      </trkpt>
      <trkpt lat="44.80189" lon="4.62382">
        <ele>205</ele>
        <time>2023-06-14T16:06:57.630Z</time>
      </trkpt>
      <trkpt lat="44.80186" lon="4.6237">
        <ele>203.9</ele>
        <time>2023-06-14T16:07:01.671Z</time>
      </trkpt>
      <trkpt lat="44.80185" lon="4.62364">
        <ele>203</ele>
        <time>2023-06-14T16:07:03.650Z</time>
      </trkpt>
      <trkpt lat="44.80183" lon="4.62358">
        <ele>202.7</ele>
        <time>2023-06-14T16:07:05.742Z</time>
      </trkpt>
      <trkpt lat="44.80182" lon="4.62351">
        <ele>201.5</ele>
        <time>2023-06-14T16:07:08.048Z</time>
      </trkpt>
      <trkpt lat="44.80182" lon="4.62345">
        <ele>200.5</ele>
        <time>2023-06-14T16:07:09.981Z</time>
      </trkpt>
      <trkpt lat="44.80184" lon="4.6234">
        <ele>198.8</ele>
        <time>2023-06-14T16:07:11.928Z</time>
      </trkpt>
      <trkpt lat="44.80189" lon="4.62338">
        <ele>196.7</ele>
        <time>2023-06-14T16:07:14.378Z</time>
      </trkpt>
      <trkpt lat="44.80192" lon="4.62339">
        <ele>196</ele>
        <time>2023-06-14T16:07:15.777Z</time>
      </trkpt>
      <trkpt lat="44.80195" lon="4.62339">
        <ele>195.1</ele>
        <time>2023-06-14T16:07:17.163Z</time>
      </trkpt>
      <trkpt lat="44.80197" lon="4.6234">
        <ele>194.7</ele>
        <time>2023-06-14T16:07:18.116Z</time>
      </trkpt>
      <trkpt lat="44.80198" lon="4.62338">
        <ele>193.8</ele>
        <time>2023-06-14T16:07:18.964Z</time>
      </trkpt>
      <trkpt lat="44.802" lon="4.62336">
        <ele>193</ele>
        <time>2023-06-14T16:07:20.103Z</time>
      </trkpt>
      <trkpt lat="44.80201" lon="4.62333">
        <ele>192.1</ele>
        <time>2023-06-14T16:07:21.207Z</time>
      </trkpt>
      <trkpt lat="44.80202" lon="4.6233">
        <ele>191.6</ele>
        <time>2023-06-14T16:07:22.274Z</time>
      </trkpt>
      <trkpt lat="44.80201" lon="4.62312">
        <ele>190.1</ele>
        <time>2023-06-14T16:07:28.002Z</time>
      </trkpt>
      <trkpt lat="44.80201" lon="4.623">
        <ele>188.9</ele>
        <time>2023-06-14T16:07:31.817Z</time>
      </trkpt>
      <trkpt lat="44.80201" lon="4.62295">
        <ele>188.4</ele>
        <time>2023-06-14T16:07:33.406Z</time>
      </trkpt>
      <trkpt lat="44.80202" lon="4.62289">
        <ele>187.7</ele>
        <time>2023-06-14T16:07:35.375Z</time>
      </trkpt>
      <trkpt lat="44.80202" lon="4.62283">
        <ele>187</ele>
        <time>2023-06-14T16:07:37.284Z</time>
      </trkpt>
      <trkpt lat="44.80202" lon="4.62278">
        <ele>186.5</ele>
        <time>2023-06-14T16:07:38.873Z</time>
      </trkpt>
      <trkpt lat="44.80202" lon="4.62266">
        <ele>185.4</ele>
        <time>2023-06-14T16:07:42.687Z</time>
      </trkpt>
      <trkpt lat="44.80202" lon="4.62257">
        <ele>184.5</ele>
        <time>2023-06-14T16:07:45.549Z</time>
      </trkpt>
      <trkpt lat="44.80202" lon="4.62256">
        <ele>184.4</ele>
        <time>2023-06-14T16:07:45.870Z</time>
      </trkpt>
      <trkpt lat="44.80201" lon="4.62262">
        <ele>185.3</ele>
        <time>2023-06-14T16:07:47.845Z</time>
      </trkpt>
      <trkpt lat="44.80201" lon="4.62262">
        <ele>185.3</ele>
        <time>2023-06-14T16:07:47.845Z</time>
      </trkpt>
      <trkpt lat="44.802" lon="4.62261">
        <ele>185.4</ele>
        <time>2023-06-14T16:07:48.392Z</time>
      </trkpt>
      <trkpt lat="44.80199" lon="4.6226">
        <ele>185.5</ele>
        <time>2023-06-14T16:07:48.942Z</time>
      </trkpt>
      <trkpt lat="44.80197" lon="4.62258">
        <ele>185.9</ele>
        <time>2023-06-14T16:07:50.041Z</time>
      </trkpt>
      <trkpt lat="44.80197" lon="4.62249">
        <ele>185</ele>
        <time>2023-06-14T16:07:52.904Z</time>
      </trkpt>
      <trkpt lat="44.80201" lon="4.62237">
        <ele>183.2</ele>
        <time>2023-06-14T16:07:57.152Z</time>
      </trkpt>
      <trkpt lat="44.80202" lon="4.62232">
        <ele>182.6</ele>
        <time>2023-06-14T16:07:58.804Z</time>
      </trkpt>
      <trkpt lat="44.80202" lon="4.62227">
        <ele>182.2</ele>
        <time>2023-06-14T16:08:00.388Z</time>
      </trkpt>
      <trkpt lat="44.80204" lon="4.62223">
        <ele>181.5</ele>
        <time>2023-06-14T16:08:01.959Z</time>
      </trkpt>
      <trkpt lat="44.80205" lon="4.62218">
        <ele>181</ele>
        <time>2023-06-14T16:08:03.610Z</time>
      </trkpt>
      <trkpt lat="44.80205" lon="4.62217">
        <ele>180.9</ele>
        <time>2023-06-14T16:08:03.930Z</time>
      </trkpt>
      <trkpt lat="44.80204" lon="4.62215">
        <ele>181</ele>
        <time>2023-06-14T16:08:04.699Z</time>
      </trkpt>
      <trkpt lat="44.80204" lon="4.6221">
        <ele>180.6</ele>
        <time>2023-06-14T16:08:06.286Z</time>
      </trkpt>
      <trkpt lat="44.80204" lon="4.62203">
        <ele>180.2</ele>
        <time>2023-06-14T16:08:08.500Z</time>
      </trkpt>
      <trkpt lat="44.80203" lon="4.622">
        <ele>180.1</ele>
        <time>2023-06-14T16:08:09.548Z</time>
      </trkpt>
      <trkpt lat="44.80202" lon="4.62198">
        <ele>180.1</ele>
        <time>2023-06-14T16:08:10.321Z</time>
      </trkpt>
      <trkpt lat="44.802" lon="4.62197">
        <ele>180.4</ele>
        <time>2023-06-14T16:08:11.268Z</time>
      </trkpt>
      <trkpt lat="44.80199" lon="4.62197">
        <ele>180.6</ele>
        <time>2023-06-14T16:08:11.721Z</time>
      </trkpt>
      <trkpt lat="44.80197" lon="4.62196">
        <ele>180.9</ele>
        <time>2023-06-14T16:08:12.670Z</time>
      </trkpt>
      <trkpt lat="44.80196" lon="4.62195">
        <ele>180.9</ele>
        <time>2023-06-14T16:08:13.216Z</time>
      </trkpt>
      <trkpt lat="44.80196" lon="4.62195">
        <ele>180.9</ele>
        <time>2023-06-14T16:08:13.216Z</time>
      </trkpt>
      <trkpt lat="44.80197" lon="4.62192">
        <ele>180.6</ele>
        <time>2023-06-14T16:08:14.274Z</time>
      </trkpt>
      <trkpt lat="44.802" lon="4.62183">
        <ele>179.3</ele>
        <time>2023-06-14T16:08:17.451Z</time>
      </trkpt>
      <trkpt lat="44.80203" lon="4.62172">
        <ele>178.1</ele>
        <time>2023-06-14T16:08:21.200Z</time>
      </trkpt>
      <trkpt lat="44.80203" lon="4.62163">
        <ele>177.6</ele>
        <time>2023-06-14T16:08:24.049Z</time>
      </trkpt>
      <trkpt lat="44.80202" lon="4.62154">
        <ele>177.3</ele>
        <time>2023-06-14T16:08:26.926Z</time>
      </trkpt>
      <trkpt lat="44.80201" lon="4.62148">
        <ele>177.2</ele>
        <time>2023-06-14T16:08:28.871Z</time>
      </trkpt>
      <trkpt lat="44.80201" lon="4.62147">
        <ele>177.2</ele>
        <time>2023-06-14T16:08:29.188Z</time>
      </trkpt>
      <trkpt lat="44.80201" lon="4.62148">
        <ele>177.2</ele>
        <time>2023-06-14T16:08:29.505Z</time>
      </trkpt>
      <trkpt lat="44.80201" lon="4.62148">
        <ele>177.2</ele>
        <time>2023-06-14T16:08:29.505Z</time>
      </trkpt>
      <trkpt lat="44.80201" lon="4.62147">
        <ele>177.2</ele>
        <time>2023-06-14T16:08:29.822Z</time>
      </trkpt>
      <trkpt lat="44.80201" lon="4.62146">
        <ele>177.1</ele>
        <time>2023-06-14T16:08:30.136Z</time>
      </trkpt>
      <trkpt lat="44.80201" lon="4.62146">
        <ele>177.1</ele>
        <time>2023-06-14T16:08:30.136Z</time>
      </trkpt>
      <trkpt lat="44.80198" lon="4.62144">
        <ele>177.3</ele>
        <time>2023-06-14T16:08:31.616Z</time>
      </trkpt>
      <trkpt lat="44.80196" lon="4.62138">
        <ele>177.3</ele>
        <time>2023-06-14T16:08:33.705Z</time>
      </trkpt>
      <trkpt lat="44.80191" lon="4.62117">
        <ele>176.7</ele>
        <time>2023-06-14T16:08:40.700Z</time>
      </trkpt>
      <trkpt lat="44.80189" lon="4.62112">
        <ele>176.6</ele>
        <time>2023-06-14T16:08:42.510Z</time>
      </trkpt>
      <trkpt lat="44.80186" lon="4.62095">
        <ele>175.8</ele>
        <time>2023-06-14T16:08:48.052Z</time>
      </trkpt>
      <trkpt lat="44.80185" lon="4.6208">
        <ele>175</ele>
        <time>2023-06-14T16:08:52.812Z</time>
      </trkpt>
      <trkpt lat="44.80187" lon="4.62071">
        <ele>174.7</ele>
        <time>2023-06-14T16:08:55.792Z</time>
      </trkpt>
      <trkpt lat="44.80187" lon="4.62067">
        <ele>174.6</ele>
        <time>2023-06-14T16:08:57.057Z</time>
      </trkpt>
      <trkpt lat="44.80187" lon="4.62063">
        <ele>174.5</ele>
        <time>2023-06-14T16:08:58.316Z</time>
      </trkpt>
      <trkpt lat="44.80188" lon="4.62056">
        <ele>174.3</ele>
        <time>2023-06-14T16:09:00.572Z</time>
      </trkpt>
      <trkpt lat="44.80189" lon="4.62052">
        <ele>174.2</ele>
        <time>2023-06-14T16:09:01.914Z</time>
      </trkpt>
      <trkpt lat="44.8019" lon="4.62048">
        <ele>174.1</ele>
        <time>2023-06-14T16:09:03.248Z</time>
      </trkpt>
      <trkpt lat="44.80192" lon="4.62042">
        <ele>173.9</ele>
        <time>2023-06-14T16:09:05.343Z</time>
      </trkpt>
      <trkpt lat="44.80192" lon="4.62037">
        <ele>173.8</ele>
        <time>2023-06-14T16:09:06.920Z</time>
      </trkpt>
      <trkpt lat="44.80191" lon="4.62034">
        <ele>173.7</ele>
        <time>2023-06-14T16:09:07.968Z</time>
      </trkpt>
      <trkpt lat="44.80188" lon="4.62031">
        <ele>173.7</ele>
        <time>2023-06-14T16:09:09.604Z</time>
      </trkpt>
      <trkpt lat="44.8019" lon="4.62028">
        <ele>173.6</ele>
        <time>2023-06-14T16:09:10.903Z</time>
      </trkpt>
      <trkpt lat="44.80191" lon="4.62025">
        <ele>173.5</ele>
        <time>2023-06-14T16:09:11.950Z</time>
      </trkpt>
      <trkpt lat="44.80192" lon="4.62023">
        <ele>173.5</ele>
        <time>2023-06-14T16:09:12.727Z</time>
      </trkpt>
      <trkpt lat="44.80193" lon="4.62017">
        <ele>173.4</ele>
        <time>2023-06-14T16:09:14.667Z</time>
      </trkpt>
      <trkpt lat="44.80195" lon="4.62014">
        <ele>173.3</ele>
        <time>2023-06-14T16:09:15.969Z</time>
      </trkpt>
      <trkpt lat="44.80197" lon="4.62011">
        <ele>173.2</ele>
        <time>2023-06-14T16:09:17.267Z</time>
      </trkpt>
      <trkpt lat="44.80201" lon="4.62005">
        <ele>173.1</ele>
        <time>2023-06-14T16:09:19.867Z</time>
      </trkpt>
      <trkpt lat="44.80206" lon="4.62">
        <ele>173</ele>
        <time>2023-06-14T16:09:22.594Z</time>
      </trkpt>
      <trkpt lat="44.80209" lon="4.61996">
        <ele>172.9</ele>
        <time>2023-06-14T16:09:24.429Z</time>
      </trkpt>
      <trkpt lat="44.80216" lon="4.61991">
        <ele>172.8</ele>
        <time>2023-06-14T16:09:27.915Z</time>
      </trkpt>
      <trkpt lat="44.80226" lon="4.61982">
        <ele>172.5</ele>
        <time>2023-06-14T16:09:33.196Z</time>
      </trkpt>
      <trkpt lat="44.80234" lon="4.61975">
        <ele>172.2</ele>
        <time>2023-06-14T16:09:37.385Z</time>
      </trkpt>
      <trkpt lat="44.80238" lon="4.61973">
        <ele>172.1</ele>
        <time>2023-06-14T16:09:39.274Z</time>
      </trkpt>
      <trkpt lat="44.80245" lon="4.61969">
        <ele>171.9</ele>
        <time>2023-06-14T16:09:42.631Z</time>
      </trkpt>
      <trkpt lat="44.80253" lon="4.61964">
        <ele>172.3</ele>
        <time>2023-06-14T16:09:46.530Z</time>
      </trkpt>
      <trkpt lat="44.80256" lon="4.6196">
        <ele>172.7</ele>
        <time>2023-06-14T16:09:48.374Z</time>
      </trkpt>
      <trkpt lat="44.80259" lon="4.61954">
        <ele>172.9</ele>
        <time>2023-06-14T16:09:50.688Z</time>
      </trkpt>
      <trkpt lat="44.80261" lon="4.61942">
        <ele>172.7</ele>
        <time>2023-06-14T16:09:54.576Z</time>
      </trkpt>
      <trkpt lat="44.80263" lon="4.61935">
        <ele>172.6</ele>
        <time>2023-06-14T16:09:56.958Z</time>
      </trkpt>
      <trkpt lat="44.80267" lon="4.61921">
        <ele>172.5</ele>
        <time>2023-06-14T16:10:01.721Z</time>
      </trkpt>
      <trkpt lat="44.80269" lon="4.61906">
        <ele>172</ele>
        <time>2023-06-14T16:10:06.541Z</time>
      </trkpt>
      <trkpt lat="44.8027" lon="4.61892">
        <ele>171.6</ele>
        <time>2023-06-14T16:10:10.984Z</time>
      </trkpt>
      <trkpt lat="44.80269" lon="4.61878">
        <ele>170.9</ele>
        <time>2023-06-14T16:10:15.432Z</time>
      </trkpt>
      <trkpt lat="44.80267" lon="4.61872">
        <ele>170.4</ele>
        <time>2023-06-14T16:10:17.532Z</time>
      </trkpt>
      <trkpt lat="44.80263" lon="4.61863">
        <ele>169.5</ele>
        <time>2023-06-14T16:10:20.903Z</time>
      </trkpt>
      <trkpt lat="44.8026" lon="4.61858">
        <ele>169.1</ele>
        <time>2023-06-14T16:10:22.977Z</time>
      </trkpt>
      <trkpt lat="44.80256" lon="4.6185">
        <ele>168.3</ele>
        <time>2023-06-14T16:10:26.078Z</time>
      </trkpt>
      <trkpt lat="44.80257" lon="4.61834">
        <ele>167.8</ele>
        <time>2023-06-14T16:10:31.152Z</time>
      </trkpt>
      <trkpt lat="44.80265" lon="4.61814">
        <ele>169.1</ele>
        <time>2023-06-14T16:10:38.414Z</time>
      </trkpt>
      <trkpt lat="44.80266" lon="4.61811">
        <ele>169.2</ele>
        <time>2023-06-14T16:10:39.463Z</time>
      </trkpt>
      <trkpt lat="44.80269" lon="4.61795">
        <ele>169.8</ele>
        <time>2023-06-14T16:10:44.689Z</time>
      </trkpt>
      <trkpt lat="44.80269" lon="4.61791">
        <ele>169.9</ele>
        <time>2023-06-14T16:10:45.953Z</time>
      </trkpt>
      <trkpt lat="44.80275" lon="4.6176">
        <ele>170.8</ele>
        <time>2023-06-14T16:10:56.096Z</time>
      </trkpt>
      <trkpt lat="44.80276" lon="4.61757">
        <ele>170.8</ele>
        <time>2023-06-14T16:10:57.144Z</time>
      </trkpt>
      <trkpt lat="44.80285" lon="4.6173">
        <ele>170.9</ele>
        <time>2023-06-14T16:11:06.555Z</time>
      </trkpt>
      <trkpt lat="44.80289" lon="4.61715">
        <ele>170.8</ele>
        <time>2023-06-14T16:11:11.609Z</time>
      </trkpt>
      <trkpt lat="44.80294" lon="4.61704">
        <ele>170.7</ele>
        <time>2023-06-14T16:11:15.734Z</time>
      </trkpt>
      <trkpt lat="44.80295" lon="4.617">
        <ele>170.6</ele>
        <time>2023-06-14T16:11:17.070Z</time>
      </trkpt>
      <trkpt lat="44.80297" lon="4.61696">
        <ele>170.6</ele>
        <time>2023-06-14T16:11:18.615Z</time>
      </trkpt>
      <trkpt lat="44.80298" lon="4.61692">
        <ele>170.5</ele>
        <time>2023-06-14T16:11:19.951Z</time>
      </trkpt>
      <trkpt lat="44.80299" lon="4.61688">
        <ele>170.4</ele>
        <time>2023-06-14T16:11:21.292Z</time>
      </trkpt>
      <trkpt lat="44.80304" lon="4.61676">
        <ele>170.2</ele>
        <time>2023-06-14T16:11:25.683Z</time>
      </trkpt>
      <trkpt lat="44.80316" lon="4.6164">
        <ele>170.5</ele>
        <time>2023-06-14T16:11:38.232Z</time>
      </trkpt>
      <trkpt lat="44.80318" lon="4.61636">
        <ele>170.5</ele>
        <time>2023-06-14T16:11:39.776Z</time>
      </trkpt>
      <trkpt lat="44.80324" lon="4.61615">
        <ele>170.8</ele>
        <time>2023-06-14T16:11:46.921Z</time>
      </trkpt>
      <trkpt lat="44.80327" lon="4.61601">
        <ele>170.9</ele>
        <time>2023-06-14T16:11:51.535Z</time>
      </trkpt>
      <trkpt lat="44.80333" lon="4.61577">
        <ele>171.2</ele>
        <time>2023-06-14T16:11:59.562Z</time>
      </trkpt>
      <trkpt lat="44.80338" lon="4.61564">
        <ele>172.1</ele>
        <time>2023-06-14T16:12:04.244Z</time>
      </trkpt>
      <trkpt lat="44.80348" lon="4.61547">
        <ele>173.3</ele>
        <time>2023-06-14T16:12:11.231Z</time>
      </trkpt>
      <trkpt lat="44.80352" lon="4.61541">
        <ele>173.7</ele>
        <time>2023-06-14T16:12:13.830Z</time>
      </trkpt>
      <trkpt lat="44.80369" lon="4.61512">
        <ele>174.2</ele>
        <time>2023-06-14T16:12:25.701Z</time>
      </trkpt>
      <trkpt lat="44.80373" lon="4.61505">
        <ele>174.2</ele>
        <time>2023-06-14T16:12:28.537Z</time>
      </trkpt>
      <trkpt lat="44.80383" lon="4.6149">
        <ele>174.3</ele>
        <time>2023-06-14T16:12:35.029Z</time>
      </trkpt>
      <trkpt lat="44.80386" lon="4.61482">
        <ele>174.4</ele>
        <time>2023-06-14T16:12:37.883Z</time>
      </trkpt>
      <trkpt lat="44.80388" lon="4.61473">
        <ele>174.4</ele>
        <time>2023-06-14T16:12:40.861Z</time>
      </trkpt>
      <trkpt lat="44.80392" lon="4.61463">
        <ele>174.5</ele>
        <time>2023-06-14T16:12:44.483Z</time>
      </trkpt>
      <trkpt lat="44.80405" lon="4.61445">
        <ele>174.4</ele>
        <time>2023-06-14T16:12:52.591Z</time>
      </trkpt>
      <trkpt lat="44.80417" lon="4.61433">
        <ele>174.2</ele>
        <time>2023-06-14T16:12:59.134Z</time>
      </trkpt>
      <trkpt lat="44.80419" lon="4.6143">
        <ele>174.3</ele>
        <time>2023-06-14T16:13:00.432Z</time>
      </trkpt>
      <trkpt lat="44.80428" lon="4.61425">
        <ele>174.8</ele>
        <time>2023-06-14T16:13:04.741Z</time>
      </trkpt>
      <trkpt lat="44.8043" lon="4.61422">
        <ele>174.9</ele>
        <time>2023-06-14T16:13:06.038Z</time>
      </trkpt>
      <trkpt lat="44.80429" lon="4.61418">
        <ele>174.6</ele>
        <time>2023-06-14T16:13:07.377Z</time>
      </trkpt>
      <trkpt lat="44.80428" lon="4.61412">
        <ele>175</ele>
        <time>2023-06-14T16:13:09.325Z</time>
      </trkpt>
      <trkpt lat="44.80426" lon="4.61407">
        <ele>175.3</ele>
        <time>2023-06-14T16:13:11.143Z</time>
      </trkpt>
      <trkpt lat="44.80424" lon="4.61391">
        <ele>176.6</ele>
        <time>2023-06-14T16:13:16.297Z</time>
      </trkpt>
      <trkpt lat="44.80424" lon="4.61385">
        <ele>177.1</ele>
        <time>2023-06-14T16:13:18.203Z</time>
      </trkpt>
      <trkpt lat="44.80425" lon="4.61381">
        <ele>177.5</ele>
        <time>2023-06-14T16:13:19.546Z</time>
      </trkpt>
      <trkpt lat="44.80426" lon="4.61379">
        <ele>177.6</ele>
        <time>2023-06-14T16:13:20.319Z</time>
      </trkpt>
      <trkpt lat="44.80427" lon="4.61378">
        <ele>177.7</ele>
        <time>2023-06-14T16:13:20.866Z</time>
      </trkpt>
      <trkpt lat="44.80426" lon="4.61377">
        <ele>177.8</ele>
        <time>2023-06-14T16:13:21.417Z</time>
      </trkpt>
      <trkpt lat="44.80425" lon="4.61378">
        <ele>177.7</ele>
        <time>2023-06-14T16:13:21.960Z</time>
      </trkpt>
      <trkpt lat="44.8042" lon="4.61386">
        <ele>177</ele>
        <time>2023-06-14T16:13:25.332Z</time>
      </trkpt>
      <trkpt lat="44.80417" lon="4.6139">
        <ele>176.6</ele>
        <time>2023-06-14T16:13:27.176Z</time>
      </trkpt>
      <trkpt lat="44.80415" lon="4.61402">
        <ele>175.5</ele>
        <time>2023-06-14T16:13:31.087Z</time>
      </trkpt>
      <trkpt lat="44.8042" lon="4.61423">
        <ele>174.3</ele>
        <time>2023-06-14T16:13:38.096Z</time>
      </trkpt>
      <trkpt lat="44.8043" lon="4.6145">
        <ele>176</ele>
        <time>2023-06-14T16:13:47.731Z</time>
      </trkpt>
      <trkpt lat="44.80432" lon="4.61457">
        <ele>176.6</ele>
        <time>2023-06-14T16:13:50.121Z</time>
      </trkpt>
      <trkpt lat="44.80433" lon="4.6146">
        <ele>176.9</ele>
        <time>2023-06-14T16:13:51.174Z</time>
      </trkpt>
      <trkpt lat="44.80434" lon="4.61463">
        <ele>177.2</ele>
        <time>2023-06-14T16:13:52.229Z</time>
      </trkpt>
      <trkpt lat="44.80434" lon="4.61466">
        <ele>177.4</ele>
        <time>2023-06-14T16:13:53.180Z</time>
      </trkpt>
      <trkpt lat="44.80435" lon="4.61468">
        <ele>177.7</ele>
        <time>2023-06-14T16:13:53.953Z</time>
      </trkpt>
      <trkpt lat="44.80436" lon="4.6147">
        <ele>178</ele>
        <time>2023-06-14T16:13:54.740Z</time>
      </trkpt>
      <trkpt lat="44.80437" lon="4.61473">
        <ele>178.3</ele>
        <time>2023-06-14T16:13:55.795Z</time>
      </trkpt>
      <trkpt lat="44.80444" lon="4.61494">
        <ele>181.1</ele>
        <time>2023-06-14T16:14:03.194Z</time>
      </trkpt>
      <trkpt lat="44.80445" lon="4.615">
        <ele>181.8</ele>
        <time>2023-06-14T16:14:05.160Z</time>
      </trkpt>
      <trkpt lat="44.80445" lon="4.61502">
        <ele>182</ele>
        <time>2023-06-14T16:14:05.799Z</time>
      </trkpt>
      <trkpt lat="44.80451" lon="4.61519">
        <ele>185.9</ele>
        <time>2023-06-14T16:14:11.990Z</time>
      </trkpt>
      <trkpt lat="44.80459" lon="4.61536">
        <ele>190.5</ele>
        <time>2023-06-14T16:14:18.679Z</time>
      </trkpt>
      <trkpt lat="44.80463" lon="4.61552">
        <ele>194.2</ele>
        <time>2023-06-14T16:14:24.241Z</time>
      </trkpt>
      <trkpt lat="44.80462" lon="4.61565">
        <ele>196</ele>
        <time>2023-06-14T16:14:28.427Z</time>
      </trkpt>
      <trkpt lat="44.80463" lon="4.61573">
        <ele>197.5</ele>
        <time>2023-06-14T16:14:31.059Z</time>
      </trkpt>
      <trkpt lat="44.80463" lon="4.61578">
        <ele>198.3</ele>
        <time>2023-06-14T16:14:32.668Z</time>
      </trkpt>
      <trkpt lat="44.80463" lon="4.61586">
        <ele>199.1</ele>
        <time>2023-06-14T16:14:35.214Z</time>
      </trkpt>
      <trkpt lat="44.80465" lon="4.61595">
        <ele>199.9</ele>
        <time>2023-06-14T16:14:38.208Z</time>
      </trkpt>
      <trkpt lat="44.80475" lon="4.61603">
        <ele>203.2</ele>
        <time>2023-06-14T16:14:43.478Z</time>
      </trkpt>
      <trkpt lat="44.80477" lon="4.61608">
        <ele>203.9</ele>
        <time>2023-06-14T16:14:45.317Z</time>
      </trkpt>
      <trkpt lat="44.80478" lon="4.6161">
        <ele>204.3</ele>
        <time>2023-06-14T16:14:46.096Z</time>
      </trkpt>
      <trkpt lat="44.8048" lon="4.61617">
        <ele>205</ele>
        <time>2023-06-14T16:14:48.497Z</time>
      </trkpt>
      <trkpt lat="44.8048" lon="4.61623">
        <ele>205</ele>
        <time>2023-06-14T16:14:50.390Z</time>
      </trkpt>
      <trkpt lat="44.80482" lon="4.6163">
        <ele>205.7</ele>
        <time>2023-06-14T16:14:52.782Z</time>
      </trkpt>
      <trkpt lat="44.80483" lon="4.61635">
        <ele>206</ele>
        <time>2023-06-14T16:14:54.426Z</time>
      </trkpt>
      <trkpt lat="44.80483" lon="4.61637">
        <ele>206</ele>
        <time>2023-06-14T16:14:55.061Z</time>
      </trkpt>
      <trkpt lat="44.80485" lon="4.6164">
        <ele>206.6</ele>
        <time>2023-06-14T16:14:56.381Z</time>
      </trkpt>
      <trkpt lat="44.80486" lon="4.61648">
        <ele>207</ele>
        <time>2023-06-14T16:14:58.946Z</time>
      </trkpt>
      <trkpt lat="44.80486" lon="4.61651">
        <ele>207</ele>
        <time>2023-06-14T16:14:59.893Z</time>
      </trkpt>
      <trkpt lat="44.80486" lon="4.61655">
        <ele>207</ele>
        <time>2023-06-14T16:15:01.152Z</time>
      </trkpt>
      <trkpt lat="44.80489" lon="4.6166">
        <ele>208</ele>
        <time>2023-06-14T16:15:03.257Z</time>
      </trkpt>
      <trkpt lat="44.80491" lon="4.61664">
        <ele>208.6</ele>
        <time>2023-06-14T16:15:04.813Z</time>
      </trkpt>
      <trkpt lat="44.80491" lon="4.61668">
        <ele>208.5</ele>
        <time>2023-06-14T16:15:06.078Z</time>
      </trkpt>
      <trkpt lat="44.80491" lon="4.61669">
        <ele>208.5</ele>
        <time>2023-06-14T16:15:06.395Z</time>
      </trkpt>
      <trkpt lat="44.80491" lon="4.61671">
        <ele>208.4</ele>
        <time>2023-06-14T16:15:07.025Z</time>
      </trkpt>
      <trkpt lat="44.80492" lon="4.61685">
        <ele>208.1</ele>
        <time>2023-06-14T16:15:11.465Z</time>
      </trkpt>
      <trkpt lat="44.80494" lon="4.61693">
        <ele>208.3</ele>
        <time>2023-06-14T16:15:14.143Z</time>
      </trkpt>
      <trkpt lat="44.80495" lon="4.61699">
        <ele>208.3</ele>
        <time>2023-06-14T16:15:16.087Z</time>
      </trkpt>
      <trkpt lat="44.80495" lon="4.61705">
        <ele>208</ele>
        <time>2023-06-14T16:15:17.983Z</time>
      </trkpt>
      <trkpt lat="44.80495" lon="4.61712">
        <ele>207.7</ele>
        <time>2023-06-14T16:15:20.197Z</time>
      </trkpt>
      <trkpt lat="44.80502" lon="4.61729">
        <ele>208.2</ele>
        <time>2023-06-14T16:15:26.402Z</time>
      </trkpt>
      <trkpt lat="44.805" lon="4.61737">
        <ele>207.6</ele>
        <time>2023-06-14T16:15:29.085Z</time>
      </trkpt>
      <trkpt lat="44.80501" lon="4.61742">
        <ele>207.5</ele>
        <time>2023-06-14T16:15:30.723Z</time>
      </trkpt>
      <trkpt lat="44.80501" lon="4.61744">
        <ele>207.4</ele>
        <time>2023-06-14T16:15:31.353Z</time>
      </trkpt>
      <trkpt lat="44.80502" lon="4.61754">
        <ele>207.1</ele>
        <time>2023-06-14T16:15:34.543Z</time>
      </trkpt>
      <trkpt lat="44.80503" lon="4.61763">
        <ele>207.1</ele>
        <time>2023-06-14T16:15:37.418Z</time>
      </trkpt>
      <trkpt lat="44.80503" lon="4.61774">
        <ele>207</ele>
        <time>2023-06-14T16:15:40.889Z</time>
      </trkpt>
      <trkpt lat="44.80502" lon="4.61783">
        <ele>206.8</ele>
        <time>2023-06-14T16:15:43.766Z</time>
      </trkpt>
      <trkpt lat="44.80502" lon="4.61785">
        <ele>206.7</ele>
        <time>2023-06-14T16:15:44.395Z</time>
      </trkpt>
      <trkpt lat="44.80502" lon="4.61791">
        <ele>206.7</ele>
        <time>2023-06-14T16:15:46.289Z</time>
      </trkpt>
      <trkpt lat="44.80504" lon="4.61801">
        <ele>206.7</ele>
        <time>2023-06-14T16:15:49.568Z</time>
      </trkpt>
      <trkpt lat="44.80504" lon="4.61803">
        <ele>206.7</ele>
        <time>2023-06-14T16:15:50.198Z</time>
      </trkpt>
      <trkpt lat="44.80504" lon="4.61816">
        <ele>206.5</ele>
        <time>2023-06-14T16:15:54.298Z</time>
      </trkpt>
      <trkpt lat="44.80504" lon="4.6182">
        <ele>206.5</ele>
        <time>2023-06-14T16:15:55.563Z</time>
      </trkpt>
      <trkpt lat="44.80506" lon="4.61832">
        <ele>206.5</ele>
        <time>2023-06-14T16:15:59.454Z</time>
      </trkpt>
      <trkpt lat="44.80507" lon="4.61837">
        <ele>206.4</ele>
        <time>2023-06-14T16:16:01.090Z</time>
      </trkpt>
      <trkpt lat="44.80509" lon="4.61842">
        <ele>206.4</ele>
        <time>2023-06-14T16:16:02.902Z</time>
      </trkpt>
      <trkpt lat="44.8051" lon="4.61845">
        <ele>206.3</ele>
        <time>2023-06-14T16:16:03.947Z</time>
      </trkpt>
      <trkpt lat="44.80514" lon="4.61851">
        <ele>206.4</ele>
        <time>2023-06-14T16:16:06.547Z</time>
      </trkpt>
      <trkpt lat="44.80515" lon="4.61853">
        <ele>206.4</ele>
        <time>2023-06-14T16:16:07.320Z</time>
      </trkpt>
      <trkpt lat="44.80524" lon="4.61863">
        <ele>206.8</ele>
        <time>2023-06-14T16:16:12.417Z</time>
      </trkpt>
      <trkpt lat="44.80533" lon="4.61872">
        <ele>207.2</ele>
        <time>2023-06-14T16:16:17.329Z</time>
      </trkpt>
      <trkpt lat="44.80534" lon="4.61873">
        <ele>207.2</ele>
        <time>2023-06-14T16:16:17.877Z</time>
      </trkpt>
      <trkpt lat="44.80543" lon="4.61878">
        <ele>207.8</ele>
        <time>2023-06-14T16:16:22.184Z</time>
      </trkpt>
      <trkpt lat="44.80545" lon="4.61878">
        <ele>208</ele>
        <time>2023-06-14T16:16:23.073Z</time>
      </trkpt>
      <trkpt lat="44.80556" lon="4.61874">
        <ele>208.9</ele>
        <time>2023-06-14T16:16:28.139Z</time>
      </trkpt>
      <trkpt lat="44.80559" lon="4.61873">
        <ele>209.2</ele>
        <time>2023-06-14T16:16:29.514Z</time>
      </trkpt>
      <trkpt lat="44.80563" lon="4.6187">
        <ele>209.6</ele>
        <time>2023-06-14T16:16:31.537Z</time>
      </trkpt>
      <trkpt lat="44.80647" lon="4.62175">
        <ele>226.1</ele>
        <time>2023-06-14T16:18:14.975Z</time>
      </trkpt>
      <trkpt lat="44.80647" lon="4.62175">
        <ele>226.1</ele>
        <time>2023-06-14T16:18:14.975Z</time>
      </trkpt>
      <trkpt lat="44.80647" lon="4.62175">
        <ele>226.1</ele>
        <time>2023-06-14T16:18:14.975Z</time>
      </trkpt>
      <trkpt lat="44.80647" lon="4.62175">
        <ele>226.1</ele>
        <time>2023-06-14T16:18:14.975Z</time>
      </trkpt>
      <trkpt lat="44.80647" lon="4.62175">
        <ele>226.1</ele>
        <time>2023-06-14T16:18:14.975Z</time>
      </trkpt>
      <trkpt lat="44.80647" lon="4.62175">
        <ele>226.1</ele>
        <time>2023-06-14T16:18:14.975Z</time>
      </trkpt>
      <trkpt lat="44.80647" lon="4.62175">
        <ele>226.1</ele>
        <time>2023-06-14T16:18:14.975Z</time>
      </trkpt>
      <trkpt lat="44.80647" lon="4.62175">
        <ele>226.1</ele>
        <time>2023-06-14T16:18:14.975Z</time>
      </trkpt>
      <trkpt lat="44.80647" lon="4.62175">
        <ele>226.1</ele>
        <time>2023-06-14T16:18:14.975Z</time>
      </trkpt>
      <trkpt lat="44.80647" lon="4.62175">
        <ele>226.1</ele>
        <time>2023-06-14T16:18:14.975Z</time>
      </trkpt>
      <trkpt lat="44.80647" lon="4.62175">
        <ele>226.1</ele>
        <time>2023-06-14T16:18:14.975Z</time>
      </trkpt>
      <trkpt lat="44.80647" lon="4.62175">
        <ele>226.1</ele>
        <time>2023-06-14T16:18:14.975Z</time>
      </trkpt>
      <trkpt lat="44.80647" lon="4.62175">
        <ele>226.1</ele>
        <time>2023-06-14T16:18:14.975Z</time>
      </trkpt>
      <trkpt lat="44.80647" lon="4.62175">
        <ele>226.1</ele>
        <time>2023-06-14T16:18:14.975Z</time>
      </trkpt>
      <trkpt lat="44.80647" lon="4.62175">
        <ele>226.1</ele>
        <time>2023-06-14T16:18:14.975Z</time>
      </trkpt>
      <trkpt lat="44.80647" lon="4.62175">
        <ele>226.1</ele>
        <time>2023-06-14T16:18:14.975Z</time>
      </trkpt>
      <trkpt lat="44.80647" lon="4.62175">
        <ele>226.1</ele>
        <time>2023-06-14T16:18:14.975Z</time>
      </trkpt>
      <trkpt lat="44.80647" lon="4.62175">
        <ele>226.1</ele>
        <time>2023-06-14T16:18:14.975Z</time>
      </trkpt>
      <trkpt lat="44.80647" lon="4.62175">
        <ele>226.1</ele>
        <time>2023-06-14T16:18:14.975Z</time>
      </trkpt>
      <trkpt lat="44.80647" lon="4.62175">
        <ele>226.1</ele>
        <time>2023-06-14T16:18:14.975Z</time>
      </trkpt>
      <trkpt lat="44.80647" lon="4.62175">
        <ele>226.1</ele>
        <time>2023-06-14T16:18:14.975Z</time>
      </trkpt>
      <trkpt lat="44.80647" lon="4.62175">
        <ele>226.1</ele>
        <time>2023-06-14T16:18:14.975Z</time>
      </trkpt>
      <trkpt lat="44.80647" lon="4.62175">
        <ele>226.1</ele>
        <time>2023-06-14T16:18:14.975Z</time>
      </trkpt>
      <trkpt lat="44.80647" lon="4.62175">
        <ele>226.1</ele>
        <time>2023-06-14T16:18:14.975Z</time>
      </trkpt>
      <trkpt lat="44.80647" lon="4.62175">
        <ele>226.1</ele>
        <time>2023-06-14T16:18:14.975Z</time>
      </trkpt>
      <trkpt lat="44.80647" lon="4.62175">
        <ele>226.1</ele>
        <time>2023-06-14T16:18:14.975Z</time>
      </trkpt>
      <trkpt lat="44.80647" lon="4.62175">
        <ele>226.1</ele>
        <time>2023-06-14T16:18:14.975Z</time>
      </trkpt>
      <trkpt lat="44.80647" lon="4.62175">
        <ele>226.1</ele>
        <time>2023-06-14T16:18:14.975Z</time>
      </trkpt>
      <trkpt lat="44.80647" lon="4.62175">
        <ele>226.1</ele>
        <time>2023-06-14T16:18:14.975Z</time>
      </trkpt>
      <trkpt lat="44.80647" lon="4.62175">
        <ele>226.1</ele>
        <time>2023-06-14T16:18:14.975Z</time>
      </trkpt>
      <trkpt lat="44.80647" lon="4.62175">
        <ele>226.1</ele>
        <time>2023-06-14T16:18:14.975Z</time>
      </trkpt>
      <trkpt lat="44.80647" lon="4.62175">
        <ele>226.1</ele>
        <time>2023-06-14T16:18:14.975Z</time>
      </trkpt>
      <trkpt lat="44.80647" lon="4.62175">
        <ele>226.1</ele>
        <time>2023-06-14T16:18:14.975Z</time>
      </trkpt>
      <trkpt lat="44.80647" lon="4.62175">
        <ele>226.1</ele>
        <time>2023-06-14T16:18:14.975Z</time>
      </trkpt>
      <trkpt lat="44.80647" lon="4.62175">
        <ele>226.1</ele>
        <time>2023-06-14T16:18:14.975Z</time>
      </trkpt>
      <trkpt lat="44.80647" lon="4.62175">
        <ele>226.1</ele>
        <time>2023-06-14T16:18:14.975Z</time>
      </trkpt>
      <trkpt lat="44.80647" lon="4.62175">
        <ele>226.1</ele>
        <time>2023-06-14T16:18:14.975Z</time>
      </trkpt>
      <trkpt lat="44.80647" lon="4.62175">
        <ele>226.1</ele>
        <time>2023-06-14T16:18:14.975Z</time>
      </trkpt>
      <trkpt lat="44.80647" lon="4.62175">
        <ele>226.1</ele>
        <time>2023-06-14T16:18:14.975Z</time>
      </trkpt>
      <trkpt lat="44.80647" lon="4.62175">
        <ele>226.1</ele>
        <time>2023-06-14T16:18:14.975Z</time>
      </trkpt>
      <trkpt lat="44.80647" lon="4.62175">
        <ele>226.1</ele>
        <time>2023-06-14T16:18:14.975Z</time>
      </trkpt>
      <trkpt lat="44.80647" lon="4.62175">
        <ele>226.1</ele>
        <time>2023-06-14T16:18:14.975Z</time>
      </trkpt>
      <trkpt lat="44.80647" lon="4.62175">
        <ele>226.1</ele>
        <time>2023-06-14T16:18:14.975Z</time>
      </trkpt>
      <trkpt lat="44.80648" lon="4.62183">
        <ele>226.4</ele>
        <time>2023-06-14T16:18:17.538Z</time>
      </trkpt>
      <trkpt lat="44.80648" lon="4.62184">
        <ele>226.4</ele>
        <time>2023-06-14T16:18:17.855Z</time>
      </trkpt>
      <trkpt lat="44.80648" lon="4.62184">
        <ele>226.4</ele>
        <time>2023-06-14T16:18:17.855Z</time>
      </trkpt>
      <trkpt lat="44.80651" lon="4.62184">
        <ele>226.9</ele>
        <time>2023-06-14T16:18:19.203Z</time>
      </trkpt>
      <trkpt lat="44.80652" lon="4.62176">
        <ele>226.9</ele>
        <time>2023-06-14T16:18:21.770Z</time>
      </trkpt>
      <trkpt lat="44.80654" lon="4.62166">
        <ele>227</ele>
        <time>2023-06-14T16:18:25.045Z</time>
      </trkpt>
      <trkpt lat="44.80656" lon="4.62152">
        <ele>226.7</ele>
        <time>2023-06-14T16:18:29.551Z</time>
      </trkpt>
      <trkpt lat="44.80657" lon="4.62147">
        <ele>226.8</ele>
        <time>2023-06-14T16:18:31.194Z</time>
      </trkpt>
      <trkpt lat="44.80657" lon="4.62141">
        <ele>226.6</ele>
        <time>2023-06-14T16:18:33.090Z</time>
      </trkpt>
      <trkpt lat="44.80662" lon="4.62138">
        <ele>227.2</ele>
        <time>2023-06-14T16:18:35.518Z</time>
      </trkpt>
      <trkpt lat="44.80676" lon="4.62128">
        <ele>229.8</ele>
        <time>2023-06-14T16:18:42.574Z</time>
      </trkpt>
      <trkpt lat="44.80689" lon="4.62119">
        <ele>232.4</ele>
        <time>2023-06-14T16:18:49.101Z</time>
      </trkpt>
      <trkpt lat="44.80693" lon="4.62116">
        <ele>233.2</ele>
        <time>2023-06-14T16:18:51.142Z</time>
      </trkpt>
      <trkpt lat="44.80695" lon="4.62114">
        <ele>233.5</ele>
        <time>2023-06-14T16:18:52.236Z</time>
      </trkpt>
      <trkpt lat="44.807" lon="4.62112">
        <ele>234.6</ele>
        <time>2023-06-14T16:18:54.586Z</time>
      </trkpt>
      <trkpt lat="44.8071" lon="4.62106">
        <ele>236.3</ele>
        <time>2023-06-14T16:18:59.474Z</time>
      </trkpt>
      <trkpt lat="44.80719" lon="4.62099">
        <ele>237.8</ele>
        <time>2023-06-14T16:19:04.087Z</time>
      </trkpt>
      <trkpt lat="44.80726" lon="4.62094">
        <ele>239</ele>
        <time>2023-06-14T16:19:07.602Z</time>
      </trkpt>
      <trkpt lat="44.80732" lon="4.62087">
        <ele>239.6</ele>
        <time>2023-06-14T16:19:11.076Z</time>
      </trkpt>
      <trkpt lat="44.80736" lon="4.62081">
        <ele>239.9</ele>
        <time>2023-06-14T16:19:13.679Z</time>
      </trkpt>
      <trkpt lat="44.80742" lon="4.62068">
        <ele>239.9</ele>
        <time>2023-06-14T16:19:18.571Z</time>
      </trkpt>
      <trkpt lat="44.80742" lon="4.62065">
        <ele>239.7</ele>
        <time>2023-06-14T16:19:19.523Z</time>
      </trkpt>
      <trkpt lat="44.80746" lon="4.62047">
        <ele>238.7</ele>
        <time>2023-06-14T16:19:25.486Z</time>
      </trkpt>
      <trkpt lat="44.80751" lon="4.62037">
        <ele>238.7</ele>
        <time>2023-06-14T16:19:29.342Z</time>
      </trkpt>
      <trkpt lat="44.80756" lon="4.6203">
        <ele>239.2</ele>
        <time>2023-06-14T16:19:32.489Z</time>
      </trkpt>
      <trkpt lat="44.80757" lon="4.62028">
        <ele>239.2</ele>
        <time>2023-06-14T16:19:33.257Z</time>
      </trkpt>
      <trkpt lat="44.80761" lon="4.62026">
        <ele>240</ele>
        <time>2023-06-14T16:19:35.173Z</time>
      </trkpt>
      <trkpt lat="44.80765" lon="4.62024">
        <ele>240.7</ele>
        <time>2023-06-14T16:19:37.083Z</time>
      </trkpt>
      <trkpt lat="44.80769" lon="4.62022">
        <ele>241.6</ele>
        <time>2023-06-14T16:19:38.998Z</time>
      </trkpt>
      <trkpt lat="44.80771" lon="4.62022">
        <ele>242</ele>
        <time>2023-06-14T16:19:39.904Z</time>
      </trkpt>
      <trkpt lat="44.80773" lon="4.62021">
        <ele>242.4</ele>
        <time>2023-06-14T16:19:40.865Z</time>
      </trkpt>
      <trkpt lat="44.80782" lon="4.62023">
        <ele>244.6</ele>
        <time>2023-06-14T16:19:45.011Z</time>
      </trkpt>
      <trkpt lat="44.80784" lon="4.62023">
        <ele>245.1</ele>
        <time>2023-06-14T16:19:45.917Z</time>
      </trkpt>
      <trkpt lat="44.80791" lon="4.62025">
        <ele>246.7</ele>
        <time>2023-06-14T16:19:49.167Z</time>
      </trkpt>
      <trkpt lat="44.80799" lon="4.62026">
        <ele>248.6</ele>
        <time>2023-06-14T16:19:52.815Z</time>
      </trkpt>
      <trkpt lat="44.80803" lon="4.62027">
        <ele>249.5</ele>
        <time>2023-06-14T16:19:54.652Z</time>
      </trkpt>
      <trkpt lat="44.80805" lon="4.62026">
        <ele>250</ele>
        <time>2023-06-14T16:19:55.618Z</time>
      </trkpt>
      <trkpt lat="44.8081" lon="4.62023">
        <ele>251.1</ele>
        <time>2023-06-14T16:19:58.076Z</time>
      </trkpt>
      <trkpt lat="44.80817" lon="4.62018">
        <ele>252.7</ele>
        <time>2023-06-14T16:20:01.619Z</time>
      </trkpt>
      <trkpt lat="44.80821" lon="4.62011">
        <ele>253.7</ele>
        <time>2023-06-14T16:20:04.481Z</time>
      </trkpt>
      <trkpt lat="44.80823" lon="4.61999">
        <ele>254.4</ele>
        <time>2023-06-14T16:20:08.380Z</time>
      </trkpt>
      <trkpt lat="44.80822" lon="4.61992">
        <ele>254.2</ele>
        <time>2023-06-14T16:20:10.635Z</time>
      </trkpt>
      <trkpt lat="44.80818" lon="4.61976">
        <ele>253.6</ele>
        <time>2023-06-14T16:20:15.990Z</time>
      </trkpt>
      <trkpt lat="44.80814" lon="4.61968">
        <ele>253</ele>
        <time>2023-06-14T16:20:19.087Z</time>
      </trkpt>
      <trkpt lat="44.80811" lon="4.61961">
        <ele>252.5</ele>
        <time>2023-06-14T16:20:21.675Z</time>
      </trkpt>
      <trkpt lat="44.80805" lon="4.61952">
        <ele>251.5</ele>
        <time>2023-06-14T16:20:25.594Z</time>
      </trkpt>
      <trkpt lat="44.80802" lon="4.61944">
        <ele>251.2</ele>
        <time>2023-06-14T16:20:28.450Z</time>
      </trkpt>
      <trkpt lat="44.80796" lon="4.61922">
        <ele>251.1</ele>
        <time>2023-06-14T16:20:35.885Z</time>
      </trkpt>
      <trkpt lat="44.80796" lon="4.61917">
        <ele>251.3</ele>
        <time>2023-06-14T16:20:37.470Z</time>
      </trkpt>
      <trkpt lat="44.80797" lon="4.61913">
        <ele>251.6</ele>
        <time>2023-06-14T16:20:38.808Z</time>
      </trkpt>
      <trkpt lat="44.80796" lon="4.6191">
        <ele>251.5</ele>
        <time>2023-06-14T16:20:39.853Z</time>
      </trkpt>
      <trkpt lat="44.80795" lon="4.61901">
        <ele>251.6</ele>
        <time>2023-06-14T16:20:42.728Z</time>
      </trkpt>
      <trkpt lat="44.80795" lon="4.61886">
        <ele>252</ele>
        <time>2023-06-14T16:20:47.465Z</time>
      </trkpt>
      <trkpt lat="44.80794" lon="4.61877">
        <ele>252.1</ele>
        <time>2023-06-14T16:20:50.340Z</time>
      </trkpt>
      <trkpt lat="44.80793" lon="4.61865">
        <ele>252.2</ele>
        <time>2023-06-14T16:20:54.153Z</time>
      </trkpt>
      <trkpt lat="44.80792" lon="4.61853">
        <ele>252.5</ele>
        <time>2023-06-14T16:20:57.962Z</time>
      </trkpt>
      <trkpt lat="44.80791" lon="4.61846">
        <ele>252.6</ele>
        <time>2023-06-14T16:21:00.216Z</time>
      </trkpt>
      <trkpt lat="44.8079" lon="4.6183">
        <ele>252</ele>
        <time>2023-06-14T16:21:05.287Z</time>
      </trkpt>
      <trkpt lat="44.8079" lon="4.61824">
        <ele>250.6</ele>
        <time>2023-06-14T16:21:07.257Z</time>
      </trkpt>
      <trkpt lat="44.80789" lon="4.61821">
        <ele>250</ele>
        <time>2023-06-14T16:21:08.335Z</time>
      </trkpt>
      <trkpt lat="44.80789" lon="4.61796">
        <ele>244.9</ele>
        <time>2023-06-14T16:21:16.489Z</time>
      </trkpt>
      <trkpt lat="44.80789" lon="4.6179">
        <ele>243.5</ele>
        <time>2023-06-14T16:21:18.458Z</time>
      </trkpt>
      <trkpt lat="44.80793" lon="4.61778">
        <ele>241.3</ele>
        <time>2023-06-14T16:21:22.729Z</time>
      </trkpt>
      <trkpt lat="44.80803" lon="4.61767">
        <ele>239.7</ele>
        <time>2023-06-14T16:21:28.408Z</time>
      </trkpt>
      <trkpt lat="44.8081" lon="4.61766">
        <ele>239.7</ele>
        <time>2023-06-14T16:21:31.540Z</time>
      </trkpt>
      <trkpt lat="44.80814" lon="4.61767">
        <ele>240.2</ele>
        <time>2023-06-14T16:21:33.360Z</time>
      </trkpt>
      <trkpt lat="44.80819" lon="4.61771">
        <ele>241.4</ele>
        <time>2023-06-14T16:21:35.960Z</time>
      </trkpt>
      <trkpt lat="44.80825" lon="4.61779">
        <ele>243.7</ele>
        <time>2023-06-14T16:21:39.742Z</time>
      </trkpt>
      <trkpt lat="44.80826" lon="4.61781">
        <ele>244.1</ele>
        <time>2023-06-14T16:21:40.529Z</time>
      </trkpt>
      <trkpt lat="44.80832" lon="4.61792">
        <ele>247.4</ele>
        <time>2023-06-14T16:21:45.104Z</time>
      </trkpt>
      <trkpt lat="44.80838" lon="4.61802">
        <ele>250.1</ele>
        <time>2023-06-14T16:21:49.373Z</time>
      </trkpt>
      <trkpt lat="44.80845" lon="4.6181">
        <ele>252.1</ele>
        <time>2023-06-14T16:21:53.462Z</time>
      </trkpt>
      <trkpt lat="44.80848" lon="4.61814">
        <ele>253.1</ele>
        <time>2023-06-14T16:21:55.341Z</time>
      </trkpt>
      <trkpt lat="44.80855" lon="4.61821">
        <ele>254.8</ele>
        <time>2023-06-14T16:21:59.217Z</time>
      </trkpt>
      <trkpt lat="44.8086" lon="4.61825">
        <ele>255.9</ele>
        <time>2023-06-14T16:22:01.812Z</time>
      </trkpt>
      <trkpt lat="44.80864" lon="4.61829">
        <ele>257</ele>
        <time>2023-06-14T16:22:04.033Z</time>
      </trkpt>
      <trkpt lat="44.80868" lon="4.61832">
        <ele>258.1</ele>
        <time>2023-06-14T16:22:06.098Z</time>
      </trkpt>
      <trkpt lat="44.80872" lon="4.61832">
        <ele>258.1</ele>
        <time>2023-06-14T16:22:07.873Z</time>
      </trkpt>
      <trkpt lat="44.80873" lon="4.61834">
        <ele>258.5</ele>
        <time>2023-06-14T16:22:08.659Z</time>
      </trkpt>
      <trkpt lat="44.80883" lon="4.61832">
        <ele>258.2</ele>
        <time>2023-06-14T16:22:13.154Z</time>
      </trkpt>
      <trkpt lat="44.80888" lon="4.61829">
        <ele>257.2</ele>
        <time>2023-06-14T16:22:15.606Z</time>
      </trkpt>
      <trkpt lat="44.809" lon="4.61815">
        <ele>253.5</ele>
        <time>2023-06-14T16:22:22.687Z</time>
      </trkpt>
      <trkpt lat="44.80904" lon="4.61802">
        <ele>249.7</ele>
        <time>2023-06-14T16:22:27.410Z</time>
      </trkpt>
      <trkpt lat="44.80907" lon="4.61793">
        <ele>247</ele>
        <time>2023-06-14T16:22:30.729Z</time>
      </trkpt>
      <trkpt lat="44.80914" lon="4.61778">
        <ele>242.3</ele>
        <time>2023-06-14T16:22:36.701Z</time>
      </trkpt>
      <trkpt lat="44.80917" lon="4.61774">
        <ele>241</ele>
        <time>2023-06-14T16:22:38.610Z</time>
      </trkpt>
      <trkpt lat="44.80925" lon="4.61771">
        <ele>238.4</ele>
        <time>2023-06-14T16:22:42.433Z</time>
      </trkpt>
      <trkpt lat="44.8094" lon="4.61769">
        <ele>234.2</ele>
        <time>2023-06-14T16:22:49.341Z</time>
      </trkpt>
      <trkpt lat="44.80942" lon="4.61769">
        <ele>233.7</ele>
        <time>2023-06-14T16:22:50.246Z</time>
      </trkpt>
      <trkpt lat="44.80953" lon="4.61772">
        <ele>232.6</ele>
        <time>2023-06-14T16:22:55.247Z</time>
      </trkpt>
      <trkpt lat="44.80962" lon="4.61778">
        <ele>232.5</ele>
        <time>2023-06-14T16:22:59.676Z</time>
      </trkpt>
      <trkpt lat="44.80963" lon="4.61779">
        <ele>232.8</ele>
        <time>2023-06-14T16:23:00.232Z</time>
      </trkpt>
      <trkpt lat="44.80974" lon="4.61792">
        <ele>235.5</ele>
        <time>2023-06-14T16:23:06.708Z</time>
      </trkpt>
      <trkpt lat="44.80977" lon="4.61793">
        <ele>235.4</ele>
        <time>2023-06-14T16:23:08.079Z</time>
      </trkpt>
      <trkpt lat="44.80986" lon="4.61809">
        <ele>240</ele>
        <time>2023-06-14T16:23:14.779Z</time>
      </trkpt>
      <trkpt lat="44.80993" lon="4.6182">
        <ele>243</ele>
        <time>2023-06-14T16:23:19.597Z</time>
      </trkpt>
      <trkpt lat="44.80998" lon="4.61826">
        <ele>245</ele>
        <time>2023-06-14T16:23:22.626Z</time>
      </trkpt>
      <trkpt lat="44.81001" lon="4.61829">
        <ele>245.7</ele>
        <time>2023-06-14T16:23:24.284Z</time>
      </trkpt>
      <trkpt lat="44.81008" lon="4.61836">
        <ele>247.8</ele>
        <time>2023-06-14T16:23:28.197Z</time>
      </trkpt>
      <trkpt lat="44.81011" lon="4.61838">
        <ele>247.9</ele>
        <time>2023-06-14T16:23:29.673Z</time>
      </trkpt>
      <trkpt lat="44.81012" lon="4.61839">
        <ele>248.3</ele>
        <time>2023-06-14T16:23:30.239Z</time>
      </trkpt>
      <trkpt lat="44.81016" lon="4.6184">
        <ele>248.3</ele>
        <time>2023-06-14T16:23:32.042Z</time>
      </trkpt>
      <trkpt lat="44.81026" lon="4.6184">
        <ele>246.9</ele>
        <time>2023-06-14T16:23:36.527Z</time>
      </trkpt>
      <trkpt lat="44.81029" lon="4.6184">
        <ele>246.5</ele>
        <time>2023-06-14T16:23:37.871Z</time>
      </trkpt>
      <trkpt lat="44.81048" lon="4.61839">
        <ele>243.3</ele>
        <time>2023-06-14T16:23:46.420Z</time>
      </trkpt>
      <trkpt lat="44.81057" lon="4.61841">
        <ele>243.2</ele>
        <time>2023-06-14T16:23:50.473Z</time>
      </trkpt>
      <trkpt lat="44.81064" lon="4.61844">
        <ele>243.4</ele>
        <time>2023-06-14T16:23:53.731Z</time>
      </trkpt>
      <trkpt lat="44.81065" lon="4.61845">
        <ele>243.9</ele>
        <time>2023-06-14T16:23:54.300Z</time>
      </trkpt>
      <trkpt lat="44.81065" lon="4.61847">
        <ele>244.5</ele>
        <time>2023-06-14T16:23:54.976Z</time>
      </trkpt>
      <trkpt lat="44.81059" lon="4.61846">
        <ele>244.7</ele>
        <time>2023-06-14T16:23:57.665Z</time>
      </trkpt>
      <trkpt lat="44.81055" lon="4.61845">
        <ele>245.2</ele>
        <time>2023-06-14T16:23:59.481Z</time>
      </trkpt>
      <trkpt lat="44.81046" lon="4.61843">
        <ele>245.3</ele>
        <time>2023-06-14T16:24:03.533Z</time>
      </trkpt>
      <trkpt lat="44.81043" lon="4.61843">
        <ele>245.7</ele>
        <time>2023-06-14T16:24:04.879Z</time>
      </trkpt>
      <trkpt lat="44.81042" lon="4.61844">
        <ele>246.4</ele>
        <time>2023-06-14T16:24:05.492Z</time>
      </trkpt>
      <trkpt lat="44.81036" lon="4.61849">
        <ele>249.4</ele>
        <time>2023-06-14T16:24:08.812Z</time>
      </trkpt>
      <trkpt lat="44.81033" lon="4.61854">
        <ele>251.9</ele>
        <time>2023-06-14T16:24:11.115Z</time>
      </trkpt>
      <trkpt lat="44.8103" lon="4.61857">
        <ele>253.4</ele>
        <time>2023-06-14T16:24:12.855Z</time>
      </trkpt>
      <trkpt lat="44.81029" lon="4.61858">
        <ele>254.1</ele>
        <time>2023-06-14T16:24:13.457Z</time>
      </trkpt>
      <trkpt lat="44.81027" lon="4.6186">
        <ele>254.8</ele>
        <time>2023-06-14T16:24:14.593Z</time>
      </trkpt>
      <trkpt lat="44.81025" lon="4.61861">
        <ele>255.6</ele>
        <time>2023-06-14T16:24:15.583Z</time>
      </trkpt>
      <trkpt lat="44.81024" lon="4.61862">
        <ele>256.2</ele>
        <time>2023-06-14T16:24:16.181Z</time>
      </trkpt>
      <trkpt lat="44.81023" lon="4.61862">
        <ele>256.3</ele>
        <time>2023-06-14T16:24:16.631Z</time>
      </trkpt>
      <trkpt lat="44.81015" lon="4.61864">
        <ele>257.8</ele>
        <time>2023-06-14T16:24:20.289Z</time>
      </trkpt>
      <trkpt lat="44.81007" lon="4.61862">
        <ele>258.2</ele>
        <time>2023-06-14T16:24:23.912Z</time>
      </trkpt>
      <trkpt lat="44.81001" lon="4.61859">
        <ele>257.4</ele>
        <time>2023-06-14T16:24:26.753Z</time>
      </trkpt>
      <trkpt lat="44.8099" lon="4.61854">
        <ele>256.8</ele>
        <time>2023-06-14T16:24:31.904Z</time>
      </trkpt>
      <trkpt lat="44.80986" lon="4.61853">
        <ele>256.7</ele>
        <time>2023-06-14T16:24:33.706Z</time>
      </trkpt>
      <trkpt lat="44.80983" lon="4.61853">
        <ele>257</ele>
        <time>2023-06-14T16:24:35.044Z</time>
      </trkpt>
      <trkpt lat="44.80979" lon="4.61855">
        <ele>257.8</ele>
        <time>2023-06-14T16:24:36.959Z</time>
      </trkpt>
      <trkpt lat="44.80977" lon="4.61856">
        <ele>258.3</ele>
        <time>2023-06-14T16:24:37.931Z</time>
      </trkpt>
      <trkpt lat="44.80974" lon="4.61861">
        <ele>260.3</ele>
        <time>2023-06-14T16:24:40.138Z</time>
      </trkpt>
      <trkpt lat="44.80974" lon="4.61863">
        <ele>260.7</ele>
        <time>2023-06-14T16:24:40.790Z</time>
      </trkpt>
      <trkpt lat="44.80973" lon="4.61866">
        <ele>262</ele>
        <time>2023-06-14T16:24:41.963Z</time>
      </trkpt>
      <trkpt lat="44.80973" lon="4.61868">
        <ele>262.5</ele>
        <time>2023-06-14T16:24:42.615Z</time>
      </trkpt>
      <trkpt lat="44.80972" lon="4.6187">
        <ele>263.3</ele>
        <time>2023-06-14T16:24:43.464Z</time>
      </trkpt>
      <trkpt lat="44.80972" lon="4.61872">
        <ele>263.8</ele>
        <time>2023-06-14T16:24:44.114Z</time>
      </trkpt>
      <trkpt lat="44.80971" lon="4.61877">
        <ele>265.5</ele>
        <time>2023-06-14T16:24:45.887Z</time>
      </trkpt>
      <trkpt lat="44.80968" lon="4.61883">
        <ele>267.6</ele>
        <time>2023-06-14T16:24:48.354Z</time>
      </trkpt>
      <trkpt lat="44.8096" lon="4.61897">
        <ele>271.9</ele>
        <time>2023-06-14T16:24:54.282Z</time>
      </trkpt>
      <trkpt lat="44.80954" lon="4.61906">
        <ele>274</ele>
        <time>2023-06-14T16:24:58.267Z</time>
      </trkpt>
      <trkpt lat="44.80949" lon="4.61914">
        <ele>276.3</ele>
        <time>2023-06-14T16:25:01.749Z</time>
      </trkpt>
      <trkpt lat="44.80943" lon="4.61924">
        <ele>277.9</ele>
        <time>2023-06-14T16:25:05.936Z</time>
      </trkpt>
      <trkpt lat="44.80938" lon="4.6193">
        <ele>278.9</ele>
        <time>2023-06-14T16:25:08.886Z</time>
      </trkpt>
      <trkpt lat="44.80927" lon="4.61949">
        <ele>281.3</ele>
        <time>2023-06-14T16:25:16.683Z</time>
      </trkpt>
      <trkpt lat="44.80919" lon="4.61971">
        <ele>284.3</ele>
        <time>2023-06-14T16:25:24.573Z</time>
      </trkpt>
      <trkpt lat="44.80919" lon="4.61974">
        <ele>284.9</ele>
        <time>2023-06-14T16:25:25.556Z</time>
      </trkpt>
      <trkpt lat="44.8092" lon="4.61989">
        <ele>287.6</ele>
        <time>2023-06-14T16:25:30.423Z</time>
      </trkpt>
      <trkpt lat="44.80921" lon="4.61991">
        <ele>288.2</ele>
        <time>2023-06-14T16:25:31.233Z</time>
      </trkpt>
      <trkpt lat="44.80922" lon="4.6199">
        <ele>288.2</ele>
        <time>2023-06-14T16:25:31.782Z</time>
      </trkpt>
      <trkpt lat="44.80924" lon="4.61984">
        <ele>287.3</ele>
        <time>2023-06-14T16:25:33.900Z</time>
      </trkpt>
      <trkpt lat="44.80924" lon="4.61981">
        <ele>286.9</ele>
        <time>2023-06-14T16:25:34.864Z</time>
      </trkpt>
      <trkpt lat="44.80926" lon="4.61966">
        <ele>284.6</ele>
        <time>2023-06-14T16:25:39.769Z</time>
      </trkpt>
      <trkpt lat="44.80932" lon="4.61957">
        <ele>283.6</ele>
        <time>2023-06-14T16:25:43.680Z</time>
      </trkpt>
      <trkpt lat="44.80935" lon="4.61953">
        <ele>283.2</ele>
        <time>2023-06-14T16:25:45.520Z</time>
      </trkpt>
      <trkpt lat="44.80936" lon="4.61952">
        <ele>283.1</ele>
        <time>2023-06-14T16:25:46.071Z</time>
      </trkpt>
      <trkpt lat="44.80937" lon="4.61951">
        <ele>282.9</ele>
        <time>2023-06-14T16:25:46.620Z</time>
      </trkpt>
      <trkpt lat="44.80939" lon="4.61949">
        <ele>282.6</ele>
        <time>2023-06-14T16:25:47.717Z</time>
      </trkpt>
      <trkpt lat="44.80943" lon="4.61946">
        <ele>282.5</ele>
        <time>2023-06-14T16:25:49.736Z</time>
      </trkpt>
      <trkpt lat="44.80944" lon="4.61945">
        <ele>282.3</ele>
        <time>2023-06-14T16:25:50.279Z</time>
      </trkpt>
      <trkpt lat="44.80954" lon="4.61941">
        <ele>282.4</ele>
        <time>2023-06-14T16:25:54.906Z</time>
      </trkpt>
      <trkpt lat="44.80961" lon="4.61936">
        <ele>282.2</ele>
        <time>2023-06-14T16:25:58.392Z</time>
      </trkpt>
      <trkpt lat="44.80963" lon="4.61935">
        <ele>282.1</ele>
        <time>2023-06-14T16:25:59.342Z</time>
      </trkpt>
      <trkpt lat="44.80966" lon="4.61933">
        <ele>281.7</ele>
        <time>2023-06-14T16:26:00.825Z</time>
      </trkpt>
      <trkpt lat="44.80967" lon="4.61932">
        <ele>281.5</ele>
        <time>2023-06-14T16:26:01.375Z</time>
      </trkpt>
      <trkpt lat="44.8097" lon="4.6193">
        <ele>281.4</ele>
        <time>2023-06-14T16:26:02.851Z</time>
      </trkpt>
      <trkpt lat="44.80977" lon="4.61926">
        <ele>281</ele>
        <time>2023-06-14T16:26:06.218Z</time>
      </trkpt>
      <trkpt lat="44.80978" lon="4.61925">
        <ele>280.7</ele>
        <time>2023-06-14T16:26:06.774Z</time>
      </trkpt>
      <trkpt lat="44.80987" lon="4.6192">
        <ele>279.9</ele>
        <time>2023-06-14T16:26:11.082Z</time>
      </trkpt>
      <trkpt lat="44.80993" lon="4.6192">
        <ele>280.3</ele>
        <time>2023-06-14T16:26:13.756Z</time>
      </trkpt>
      <trkpt lat="44.80994" lon="4.61919">
        <ele>280</ele>
        <time>2023-06-14T16:26:14.314Z</time>
      </trkpt>
      <trkpt lat="44.81002" lon="4.61919">
        <ele>280.3</ele>
        <time>2023-06-14T16:26:17.871Z</time>
      </trkpt>
      <trkpt lat="44.81004" lon="4.61919">
        <ele>280.1</ele>
        <time>2023-06-14T16:26:18.760Z</time>
      </trkpt>
      <trkpt lat="44.81007" lon="4.61922">
        <ele>281.1</ele>
        <time>2023-06-14T16:26:20.444Z</time>
      </trkpt>
      <trkpt lat="44.81008" lon="4.61923">
        <ele>281.5</ele>
        <time>2023-06-14T16:26:21.006Z</time>
      </trkpt>
      <trkpt lat="44.8101" lon="4.61924">
        <ele>281.4</ele>
        <time>2023-06-14T16:26:21.949Z</time>
      </trkpt>
      <trkpt lat="44.81011" lon="4.61927">
        <ele>282.5</ele>
        <time>2023-06-14T16:26:23.091Z</time>
      </trkpt>
      <trkpt lat="44.81011" lon="4.61929">
        <ele>282.9</ele>
        <time>2023-06-14T16:26:23.740Z</time>
      </trkpt>
      <trkpt lat="44.81012" lon="4.61931">
        <ele>283.7</ele>
        <time>2023-06-14T16:26:24.568Z</time>
      </trkpt>
      <trkpt lat="44.8101" lon="4.61934">
        <ele>284.5</ele>
        <time>2023-06-14T16:26:25.916Z</time>
      </trkpt>
      <trkpt lat="44.81002" lon="4.61942">
        <ele>287.1</ele>
        <time>2023-06-14T16:26:30.398Z</time>
      </trkpt>
      <trkpt lat="44.81001" lon="4.61943">
        <ele>287.5</ele>
        <time>2023-06-14T16:26:30.960Z</time>
      </trkpt>
      <trkpt lat="44.81" lon="4.61945">
        <ele>287.9</ele>
        <time>2023-06-14T16:26:31.753Z</time>
      </trkpt>
      <trkpt lat="44.80998" lon="4.61949">
        <ele>288.8</ele>
        <time>2023-06-14T16:26:33.336Z</time>
      </trkpt>
      <trkpt lat="44.80995" lon="4.61956">
        <ele>290.7</ele>
        <time>2023-06-14T16:26:36.026Z</time>
      </trkpt>
      <trkpt lat="44.8099" lon="4.61966">
        <ele>293</ele>
        <time>2023-06-14T16:26:39.994Z</time>
      </trkpt>
      <trkpt lat="44.80986" lon="4.61975">
        <ele>294.5</ele>
        <time>2023-06-14T16:26:43.398Z</time>
      </trkpt>
      <trkpt lat="44.80983" lon="4.61981">
        <ele>295.8</ele>
        <time>2023-06-14T16:26:45.772Z</time>
      </trkpt>
      <trkpt lat="44.80982" lon="4.61988">
        <ele>297.4</ele>
        <time>2023-06-14T16:26:48.112Z</time>
      </trkpt>
      <trkpt lat="44.80982" lon="4.61992">
        <ele>298.7</ele>
        <time>2023-06-14T16:26:49.485Z</time>
      </trkpt>
      <trkpt lat="44.80982" lon="4.61996">
        <ele>299.8</ele>
        <time>2023-06-14T16:26:50.813Z</time>
      </trkpt>
      <trkpt lat="44.80983" lon="4.61999">
        <ele>300.6</ele>
        <time>2023-06-14T16:26:51.915Z</time>
      </trkpt>
      <trkpt lat="44.80986" lon="4.62007">
        <ele>301.3</ele>
        <time>2023-06-14T16:26:54.782Z</time>
      </trkpt>
      <trkpt lat="44.80994" lon="4.6202">
        <ele>302.4</ele>
        <time>2023-06-14T16:27:00.232Z</time>
      </trkpt>
      <trkpt lat="44.80995" lon="4.62021">
        <ele>302.6</ele>
        <time>2023-06-14T16:27:00.780Z</time>
      </trkpt>
      <trkpt lat="44.80998" lon="4.62029">
        <ele>302.9</ele>
        <time>2023-06-14T16:27:03.637Z</time>
      </trkpt>
      <trkpt lat="44.80998" lon="4.62031">
        <ele>302.9</ele>
        <time>2023-06-14T16:27:04.272Z</time>
      </trkpt>
      <trkpt lat="44.81002" lon="4.62041">
        <ele>303.3</ele>
        <time>2023-06-14T16:27:07.892Z</time>
      </trkpt>
      <trkpt lat="44.81003" lon="4.62048">
        <ele>303.2</ele>
        <time>2023-06-14T16:27:10.148Z</time>
      </trkpt>
      <trkpt lat="44.81005" lon="4.62055">
        <ele>303.4</ele>
        <time>2023-06-14T16:27:12.525Z</time>
      </trkpt>
      <trkpt lat="44.81007" lon="4.62059">
        <ele>303.6</ele>
        <time>2023-06-14T16:27:14.072Z</time>
      </trkpt>
      <trkpt lat="44.81008" lon="4.62061">
        <ele>303.7</ele>
        <time>2023-06-14T16:27:14.845Z</time>
      </trkpt>
      <trkpt lat="44.81011" lon="4.62067">
        <ele>304</ele>
        <time>2023-06-14T16:27:17.166Z</time>
      </trkpt>
      <trkpt lat="44.81014" lon="4.6207">
        <ele>304.4</ele>
        <time>2023-06-14T16:27:18.810Z</time>
      </trkpt>
      <trkpt lat="44.81018" lon="4.62077">
        <ele>305.1</ele>
        <time>2023-06-14T16:27:21.660Z</time>
      </trkpt>
      <trkpt lat="44.8102" lon="4.62082">
        <ele>305.4</ele>
        <time>2023-06-14T16:27:23.473Z</time>
      </trkpt>
      <trkpt lat="44.81021" lon="4.62087">
        <ele>305.4</ele>
        <time>2023-06-14T16:27:25.112Z</time>
      </trkpt>
      <trkpt lat="44.81023" lon="4.62088">
        <ele>305.7</ele>
        <time>2023-06-14T16:27:26.060Z</time>
      </trkpt>
      <trkpt lat="44.81025" lon="4.62093">
        <ele>305.8</ele>
        <time>2023-06-14T16:27:27.869Z</time>
      </trkpt>
      <trkpt lat="44.81026" lon="4.62095">
        <ele>305.9</ele>
        <time>2023-06-14T16:27:28.642Z</time>
      </trkpt>
      <trkpt lat="44.81029" lon="4.621">
        <ele>306.2</ele>
        <time>2023-06-14T16:27:30.715Z</time>
      </trkpt>
      <trkpt lat="44.81033" lon="4.62107">
        <ele>306.7</ele>
        <time>2023-06-14T16:27:33.551Z</time>
      </trkpt>
      <trkpt lat="44.81034" lon="4.6211">
        <ele>306.7</ele>
        <time>2023-06-14T16:27:34.598Z</time>
      </trkpt>
      <trkpt lat="44.8104" lon="4.62117">
        <ele>307.5</ele>
        <time>2023-06-14T16:27:38.076Z</time>
      </trkpt>
      <trkpt lat="44.81042" lon="4.62119">
        <ele>307.8</ele>
        <time>2023-06-14T16:27:39.171Z</time>
      </trkpt>
      <trkpt lat="44.81049" lon="4.62123">
        <ele>308.9</ele>
        <time>2023-06-14T16:27:42.565Z</time>
      </trkpt>
      <trkpt lat="44.81051" lon="4.62122">
        <ele>309.3</ele>
        <time>2023-06-14T16:27:43.520Z</time>
      </trkpt>
      <trkpt lat="44.8106" lon="4.62117">
        <ele>311.1</ele>
        <time>2023-06-14T16:27:47.878Z</time>
      </trkpt>
      <trkpt lat="44.81062" lon="4.62116">
        <ele>311.5</ele>
        <time>2023-06-14T16:27:48.833Z</time>
      </trkpt>
      <trkpt lat="44.81072" lon="4.6211">
        <ele>313.4</ele>
        <time>2023-06-14T16:27:53.730Z</time>
      </trkpt>
      <trkpt lat="44.81073" lon="4.6211">
        <ele>313.6</ele>
        <time>2023-06-14T16:27:54.179Z</time>
      </trkpt>
      <trkpt lat="44.81083" lon="4.62106">
        <ele>315.4</ele>
        <time>2023-06-14T16:27:58.860Z</time>
      </trkpt>
      <trkpt lat="44.81086" lon="4.62106">
        <ele>315.8</ele>
        <time>2023-06-14T16:28:00.205Z</time>
      </trkpt>
      <trkpt lat="44.81092" lon="4.62105">
        <ele>316.7</ele>
        <time>2023-06-14T16:28:02.917Z</time>
      </trkpt>
      <trkpt lat="44.81098" lon="4.62104">
        <ele>317.6</ele>
        <time>2023-06-14T16:28:05.625Z</time>
      </trkpt>
      <trkpt lat="44.811" lon="4.62103">
        <ele>317.9</ele>
        <time>2023-06-14T16:28:06.572Z</time>
      </trkpt>
      <trkpt lat="44.81101" lon="4.62102">
        <ele>318</ele>
        <time>2023-06-14T16:28:07.126Z</time>
      </trkpt>
      <trkpt lat="44.81106" lon="4.62097">
        <ele>318.7</ele>
        <time>2023-06-14T16:28:09.864Z</time>
      </trkpt>
      <trkpt lat="44.81108" lon="4.62092">
        <ele>319</ele>
        <time>2023-06-14T16:28:11.680Z</time>
      </trkpt>
      <trkpt lat="44.81108" lon="4.62083">
        <ele>318.8</ele>
        <time>2023-06-14T16:28:14.516Z</time>
      </trkpt>
      <trkpt lat="44.81107" lon="4.62081">
        <ele>318.5</ele>
        <time>2023-06-14T16:28:15.298Z</time>
      </trkpt>
      <trkpt lat="44.81107" lon="4.62071">
        <ele>317</ele>
        <time>2023-06-14T16:28:18.507Z</time>
      </trkpt>
      <trkpt lat="44.81115" lon="4.62066">
        <ele>316.8</ele>
        <time>2023-06-14T16:28:22.397Z</time>
      </trkpt>
      <trkpt lat="44.81116" lon="4.62066">
        <ele>316.9</ele>
        <time>2023-06-14T16:28:22.846Z</time>
      </trkpt>
      <trkpt lat="44.81127" lon="4.6207">
        <ele>318.4</ele>
        <time>2023-06-14T16:28:27.934Z</time>
      </trkpt>
      <trkpt lat="44.81128" lon="4.62069">
        <ele>318.5</ele>
        <time>2023-06-14T16:28:28.477Z</time>
      </trkpt>
      <trkpt lat="44.81135" lon="4.6207">
        <ele>319.1</ele>
        <time>2023-06-14T16:28:31.618Z</time>
      </trkpt>
      <trkpt lat="44.81137" lon="4.62069">
        <ele>319.2</ele>
        <time>2023-06-14T16:28:32.562Z</time>
      </trkpt>
      <trkpt lat="44.81143" lon="4.62068">
        <ele>319.4</ele>
        <time>2023-06-14T16:28:35.251Z</time>
      </trkpt>
      <trkpt lat="44.81148" lon="4.62066">
        <ele>319.2</ele>
        <time>2023-06-14T16:28:37.562Z</time>
      </trkpt>
      <trkpt lat="44.81157" lon="4.62072">
        <ele>321.6</ele>
        <time>2023-06-14T16:28:42.096Z</time>
      </trkpt>
      <trkpt lat="44.81159" lon="4.62072">
        <ele>321.8</ele>
        <time>2023-06-14T16:28:42.993Z</time>
      </trkpt>
      <trkpt lat="44.81165" lon="4.62072">
        <ele>322.3</ele>
        <time>2023-06-14T16:28:45.663Z</time>
      </trkpt>
      <trkpt lat="44.81167" lon="4.62075">
        <ele>323.2</ele>
        <time>2023-06-14T16:28:47.006Z</time>
      </trkpt>
      <trkpt lat="44.81169" lon="4.62077">
        <ele>323.3</ele>
        <time>2023-06-14T16:28:48.099Z</time>
      </trkpt>
      <trkpt lat="44.81173" lon="4.62079">
        <ele>322.4</ele>
        <time>2023-06-14T16:28:50.023Z</time>
      </trkpt>
      <trkpt lat="44.81174" lon="4.6208">
        <ele>322.5</ele>
        <time>2023-06-14T16:28:50.567Z</time>
      </trkpt>
      <trkpt lat="44.81179" lon="4.62086">
        <ele>322.5</ele>
        <time>2023-06-14T16:28:53.491Z</time>
      </trkpt>
      <trkpt lat="44.8118" lon="4.62086">
        <ele>322.2</ele>
        <time>2023-06-14T16:28:53.946Z</time>
      </trkpt>
      <trkpt lat="44.81186" lon="4.62102">
        <ele>322.1</ele>
        <time>2023-06-14T16:28:59.654Z</time>
      </trkpt>
      <trkpt lat="44.81188" lon="4.62112">
        <ele>322.7</ele>
        <time>2023-06-14T16:29:02.943Z</time>
      </trkpt>
      <trkpt lat="44.81189" lon="4.62117">
        <ele>323</ele>
        <time>2023-06-14T16:29:04.587Z</time>
      </trkpt>
      <trkpt lat="44.81191" lon="4.62128">
        <ele>323.8</ele>
        <time>2023-06-14T16:29:08.182Z</time>
      </trkpt>
      <trkpt lat="44.81191" lon="4.6213">
        <ele>324</ele>
        <time>2023-06-14T16:29:08.814Z</time>
      </trkpt>
      <trkpt lat="44.8119" lon="4.6214">
        <ele>325.4</ele>
        <time>2023-06-14T16:29:12.049Z</time>
      </trkpt>
      <trkpt lat="44.8119" lon="4.62144">
        <ele>325.8</ele>
        <time>2023-06-14T16:29:13.320Z</time>
      </trkpt>
      <trkpt lat="44.81189" lon="4.62147">
        <ele>326.4</ele>
        <time>2023-06-14T16:29:14.394Z</time>
      </trkpt>
      <trkpt lat="44.8119" lon="4.62158">
        <ele>327.4</ele>
        <time>2023-06-14T16:29:17.921Z</time>
      </trkpt>
      <trkpt lat="44.81189" lon="4.62163">
        <ele>328.1</ele>
        <time>2023-06-14T16:29:19.584Z</time>
      </trkpt>
      <trkpt lat="44.81191" lon="4.62179">
        <ele>327.4</ele>
        <time>2023-06-14T16:29:24.715Z</time>
      </trkpt>
      <trkpt lat="44.81197" lon="4.6219">
        <ele>326.2</ele>
        <time>2023-06-14T16:29:29.119Z</time>
      </trkpt>
      <trkpt lat="44.81203" lon="4.62198">
        <ele>325.5</ele>
        <time>2023-06-14T16:29:32.805Z</time>
      </trkpt>
      <trkpt lat="44.81208" lon="4.62204">
        <ele>325.2</ele>
        <time>2023-06-14T16:29:35.733Z</time>
      </trkpt>
      <trkpt lat="44.81216" lon="4.62213">
        <ele>324.9</ele>
        <time>2023-06-14T16:29:40.281Z</time>
      </trkpt>
      <trkpt lat="44.81217" lon="4.62214">
        <ele>324.9</ele>
        <time>2023-06-14T16:29:40.823Z</time>
      </trkpt>
      <trkpt lat="44.81227" lon="4.62218">
        <ele>325.1</ele>
        <time>2023-06-14T16:29:45.450Z</time>
      </trkpt>
      <trkpt lat="44.81238" lon="4.62224">
        <ele>325.6</ele>
        <time>2023-06-14T16:29:50.698Z</time>
      </trkpt>
      <trkpt lat="44.81245" lon="4.62226">
        <ele>326</ele>
        <time>2023-06-14T16:29:53.881Z</time>
      </trkpt>
      <trkpt lat="44.8125" lon="4.62227">
        <ele>326.3</ele>
        <time>2023-06-14T16:29:56.128Z</time>
      </trkpt>
      <trkpt lat="44.8126" lon="4.62231">
        <ele>326.8</ele>
        <time>2023-06-14T16:30:00.750Z</time>
      </trkpt>
      <trkpt lat="44.81264" lon="4.62233">
        <ele>327.2</ele>
        <time>2023-06-14T16:30:02.647Z</time>
      </trkpt>
      <trkpt lat="44.81269" lon="4.62237">
        <ele>327.9</ele>
        <time>2023-06-14T16:30:05.217Z</time>
      </trkpt>
      <trkpt lat="44.81276" lon="4.62242">
        <ele>329</ele>
        <time>2023-06-14T16:30:08.736Z</time>
      </trkpt>
      <trkpt lat="44.81279" lon="4.62243">
        <ele>329.2</ele>
        <time>2023-06-14T16:30:10.109Z</time>
      </trkpt>
      <trkpt lat="44.81286" lon="4.62246">
        <ele>330.3</ele>
        <time>2023-06-14T16:30:13.391Z</time>
      </trkpt>
      <trkpt lat="44.81288" lon="4.62246">
        <ele>330.5</ele>
        <time>2023-06-14T16:30:14.288Z</time>
      </trkpt>
      <trkpt lat="44.813" lon="4.62247">
        <ele>331.3</ele>
        <time>2023-06-14T16:30:19.646Z</time>
      </trkpt>
      <trkpt lat="44.81302" lon="4.62247">
        <ele>331.5</ele>
        <time>2023-06-14T16:30:20.535Z</time>
      </trkpt>
      <trkpt lat="44.81309" lon="4.62246">
        <ele>332</ele>
        <time>2023-06-14T16:30:23.666Z</time>
      </trkpt>
      <trkpt lat="44.81313" lon="4.62245">
        <ele>331.9</ele>
        <time>2023-06-14T16:30:25.476Z</time>
      </trkpt>
      <trkpt lat="44.81319" lon="4.62242">
        <ele>331.6</ele>
        <time>2023-06-14T16:30:28.311Z</time>
      </trkpt>
      <trkpt lat="44.81326" lon="4.6224">
        <ele>331.2</ele>
        <time>2023-06-14T16:30:31.493Z</time>
      </trkpt>
      <trkpt lat="44.81337" lon="4.62238">
        <ele>330</ele>
        <time>2023-06-14T16:30:36.448Z</time>
      </trkpt>
      <trkpt lat="44.81343" lon="4.62237">
        <ele>328.9</ele>
        <time>2023-06-14T16:30:39.175Z</time>
      </trkpt>
      <trkpt lat="44.81352" lon="4.62236">
        <ele>326.6</ele>
        <time>2023-06-14T16:30:43.283Z</time>
      </trkpt>
      <trkpt lat="44.81363" lon="4.62237">
        <ele>324.9</ele>
        <time>2023-06-14T16:30:48.235Z</time>
      </trkpt>
      <trkpt lat="44.81375" lon="4.62243">
        <ele>324.5</ele>
        <time>2023-06-14T16:30:53.894Z</time>
      </trkpt>
      <trkpt lat="44.81376" lon="4.62243">
        <ele>324.4</ele>
        <time>2023-06-14T16:30:54.348Z</time>
      </trkpt>
      <trkpt lat="44.81383" lon="4.62247">
        <ele>324.5</ele>
        <time>2023-06-14T16:30:57.711Z</time>
      </trkpt>
      <trkpt lat="44.8139" lon="4.6225">
        <ele>324.8</ele>
        <time>2023-06-14T16:31:00.963Z</time>
      </trkpt>
      <trkpt lat="44.81404" lon="4.62254">
        <ele>323.4</ele>
        <time>2023-06-14T16:31:07.337Z</time>
      </trkpt>
      <trkpt lat="44.81406" lon="4.62255">
        <ele>323</ele>
        <time>2023-06-14T16:31:08.299Z</time>
      </trkpt>
      <trkpt lat="44.81413" lon="4.6226">
        <ele>323.5</ele>
        <time>2023-06-14T16:31:11.789Z</time>
      </trkpt>
      <trkpt lat="44.81416" lon="4.62263">
        <ele>324.3</ele>
        <time>2023-06-14T16:31:13.456Z</time>
      </trkpt>
      <trkpt lat="44.81419" lon="4.62266">
        <ele>324.6</ele>
        <time>2023-06-14T16:31:15.096Z</time>
      </trkpt>
      <trkpt lat="44.81427" lon="4.6228">
        <ele>327.9</ele>
        <time>2023-06-14T16:31:20.916Z</time>
      </trkpt>
      <trkpt lat="44.81425" lon="4.62292">
        <ele>332.2</ele>
        <time>2023-06-14T16:31:25.177Z</time>
      </trkpt>
      <trkpt lat="44.81424" lon="4.62294">
        <ele>332.8</ele>
        <time>2023-06-14T16:31:25.983Z</time>
      </trkpt>
      <trkpt lat="44.81423" lon="4.62297">
        <ele>334.3</ele>
        <time>2023-06-14T16:31:27.180Z</time>
      </trkpt>
      <trkpt lat="44.81421" lon="4.62305">
        <ele>337.2</ele>
        <time>2023-06-14T16:31:30.094Z</time>
      </trkpt>
      <trkpt lat="44.8142" lon="4.62307">
        <ele>337.7</ele>
        <time>2023-06-14T16:31:30.896Z</time>
      </trkpt>
      <trkpt lat="44.8142" lon="4.62309">
        <ele>338.6</ele>
        <time>2023-06-14T16:31:31.614Z</time>
      </trkpt>
      <trkpt lat="44.8142" lon="4.62311">
        <ele>339.4</ele>
        <time>2023-06-14T16:31:32.332Z</time>
      </trkpt>
      <trkpt lat="44.81419" lon="4.62313">
        <ele>340</ele>
        <time>2023-06-14T16:31:33.141Z</time>
      </trkpt>
      <trkpt lat="44.81414" lon="4.62328">
        <ele>345.3</ele>
        <time>2023-06-14T16:31:38.775Z</time>
      </trkpt>
      <trkpt lat="44.81412" lon="4.6234">
        <ele>347.6</ele>
        <time>2023-06-14T16:31:42.777Z</time>
      </trkpt>
      <trkpt lat="44.81409" lon="4.62351">
        <ele>348.7</ele>
        <time>2023-06-14T16:31:46.520Z</time>
      </trkpt>
      <trkpt lat="44.81408" lon="4.62355">
        <ele>349.1</ele>
        <time>2023-06-14T16:31:47.870Z</time>
      </trkpt>
      <trkpt lat="44.81406" lon="4.62366">
        <ele>350.4</ele>
        <time>2023-06-14T16:31:51.485Z</time>
      </trkpt>
      <trkpt lat="44.81406" lon="4.62368">
        <ele>350.5</ele>
        <time>2023-06-14T16:31:52.122Z</time>
      </trkpt>
      <trkpt lat="44.81404" lon="4.6238">
        <ele>351.7</ele>
        <time>2023-06-14T16:31:56.035Z</time>
      </trkpt>
      <trkpt lat="44.81404" lon="4.62388">
        <ele>352.7</ele>
        <time>2023-06-14T16:31:58.594Z</time>
      </trkpt>
      <trkpt lat="44.81403" lon="4.62395">
        <ele>353.3</ele>
        <time>2023-06-14T16:32:00.857Z</time>
      </trkpt>
      <trkpt lat="44.814" lon="4.62411">
        <ele>354.7</ele>
        <time>2023-06-14T16:32:06.111Z</time>
      </trkpt>
      <trkpt lat="44.81398" lon="4.6242">
        <ele>355</ele>
        <time>2023-06-14T16:32:09.087Z</time>
      </trkpt>
      <trkpt lat="44.81396" lon="4.62426">
        <ele>354.4</ele>
        <time>2023-06-14T16:32:11.193Z</time>
      </trkpt>
      <trkpt lat="44.81398" lon="4.62432">
        <ele>354.3</ele>
        <time>2023-06-14T16:32:13.285Z</time>
      </trkpt>
      <trkpt lat="44.81403" lon="4.62439">
        <ele>354.3</ele>
        <time>2023-06-14T16:32:16.424Z</time>
      </trkpt>
      <trkpt lat="44.8141" lon="4.62444">
        <ele>354.9</ele>
        <time>2023-06-14T16:32:19.916Z</time>
      </trkpt>
      <trkpt lat="44.81411" lon="4.62444">
        <ele>355</ele>
        <time>2023-06-14T16:32:20.366Z</time>
      </trkpt>
      <trkpt lat="44.8142" lon="4.62444">
        <ele>356</ele>
        <time>2023-06-14T16:32:24.391Z</time>
      </trkpt>
      <trkpt lat="44.81423" lon="4.62443">
        <ele>356.4</ele>
        <time>2023-06-14T16:32:25.770Z</time>
      </trkpt>
      <trkpt lat="44.81436" lon="4.62441">
        <ele>357.7</ele>
        <time>2023-06-14T16:32:31.605Z</time>
      </trkpt>
      <trkpt lat="44.81438" lon="4.62441">
        <ele>357.9</ele>
        <time>2023-06-14T16:32:32.503Z</time>
      </trkpt>
      <trkpt lat="44.81445" lon="4.6244">
        <ele>358.5</ele>
        <time>2023-06-14T16:32:35.638Z</time>
      </trkpt>
      <trkpt lat="44.81449" lon="4.6244">
        <ele>358.9</ele>
        <time>2023-06-14T16:32:37.426Z</time>
      </trkpt>
      <trkpt lat="44.81454" lon="4.6244">
        <ele>359.4</ele>
        <time>2023-06-14T16:32:39.655Z</time>
      </trkpt>
      <trkpt lat="44.81457" lon="4.6244">
        <ele>359.7</ele>
        <time>2023-06-14T16:32:40.994Z</time>
      </trkpt>
      <trkpt lat="44.81461" lon="4.6244">
        <ele>360</ele>
        <time>2023-06-14T16:32:42.782Z</time>
      </trkpt>
      <trkpt lat="44.81464" lon="4.6244">
        <ele>360.3</ele>
        <time>2023-06-14T16:32:44.122Z</time>
      </trkpt>
      <trkpt lat="44.81475" lon="4.62441">
        <ele>361.3</ele>
        <time>2023-06-14T16:32:49.039Z</time>
      </trkpt>
      <trkpt lat="44.81477" lon="4.62441">
        <ele>361.6</ele>
        <time>2023-06-14T16:32:49.930Z</time>
      </trkpt>
      <trkpt lat="44.81483" lon="4.6244">
        <ele>362.1</ele>
        <time>2023-06-14T16:32:52.626Z</time>
      </trkpt>
      <trkpt lat="44.81491" lon="4.62439">
        <ele>362.8</ele>
        <time>2023-06-14T16:32:56.206Z</time>
      </trkpt>
      <trkpt lat="44.81499" lon="4.62439">
        <ele>363.5</ele>
        <time>2023-06-14T16:32:59.773Z</time>
      </trkpt>
      <trkpt lat="44.81505" lon="4.62438">
        <ele>363.1</ele>
        <time>2023-06-14T16:33:02.466Z</time>
      </trkpt>
      <trkpt lat="44.81509" lon="4.62438">
        <ele>362.8</ele>
        <time>2023-06-14T16:33:04.251Z</time>
      </trkpt>
      <trkpt lat="44.81518" lon="4.62436">
        <ele>361.9</ele>
        <time>2023-06-14T16:33:08.318Z</time>
      </trkpt>
      <trkpt lat="44.8152" lon="4.62436">
        <ele>361.8</ele>
        <time>2023-06-14T16:33:09.208Z</time>
      </trkpt>
      <trkpt lat="44.81528" lon="4.62437">
        <ele>361.1</ele>
        <time>2023-06-14T16:33:12.787Z</time>
      </trkpt>
      <trkpt lat="44.81529" lon="4.62437">
        <ele>361</ele>
        <time>2023-06-14T16:33:13.235Z</time>
      </trkpt>
      <trkpt lat="44.81543" lon="4.62439">
        <ele>360.4</ele>
        <time>2023-06-14T16:33:19.498Z</time>
      </trkpt>
      <trkpt lat="44.81564" lon="4.6244">
        <ele>359.1</ele>
        <time>2023-06-14T16:33:28.857Z</time>
      </trkpt>
      <trkpt lat="44.81576" lon="4.62442">
        <ele>358.6</ele>
        <time>2023-06-14T16:33:34.236Z</time>
      </trkpt>
      <trkpt lat="44.81587" lon="4.62447">
        <ele>360.2</ele>
        <time>2023-06-14T16:33:39.414Z</time>
      </trkpt>
      <trkpt lat="44.81593" lon="4.62452">
        <ele>362.6</ele>
        <time>2023-06-14T16:33:42.659Z</time>
      </trkpt>
      <trkpt lat="44.81601" lon="4.62456">
        <ele>365</ele>
        <time>2023-06-14T16:33:46.553Z</time>
      </trkpt>
      <trkpt lat="44.81609" lon="4.62462">
        <ele>367.8</ele>
        <time>2023-06-14T16:33:50.733Z</time>
      </trkpt>
      <trkpt lat="44.8161" lon="4.62463">
        <ele>368.3</ele>
        <time>2023-06-14T16:33:51.323Z</time>
      </trkpt>
      <trkpt lat="44.81613" lon="4.62466">
        <ele>370</ele>
        <time>2023-06-14T16:33:53.085Z</time>
      </trkpt>
      <trkpt lat="44.81617" lon="4.6247">
        <ele>371.9</ele>
        <time>2023-06-14T16:33:55.390Z</time>
      </trkpt>
      <trkpt lat="44.8162" lon="4.62473">
        <ele>373.2</ele>
        <time>2023-06-14T16:33:57.104Z</time>
      </trkpt>
      <trkpt lat="44.81627" lon="4.6248">
        <ele>376.3</ele>
        <time>2023-06-14T16:34:01.128Z</time>
      </trkpt>
      <trkpt lat="44.81629" lon="4.62484">
        <ele>377.9</ele>
        <time>2023-06-14T16:34:02.797Z</time>
      </trkpt>
      <trkpt lat="44.81633" lon="4.62491">
        <ele>381.1</ele>
        <time>2023-06-14T16:34:05.902Z</time>
      </trkpt>
      <trkpt lat="44.81633" lon="4.62493">
        <ele>381.5</ele>
        <time>2023-06-14T16:34:06.552Z</time>
      </trkpt>
      <trkpt lat="44.81638" lon="4.62496">
        <ele>383.6</ele>
        <time>2023-06-14T16:34:09.110Z</time>
      </trkpt>
      <trkpt lat="44.81641" lon="4.62497">
        <ele>384.1</ele>
        <time>2023-06-14T16:34:10.497Z</time>
      </trkpt>
      <trkpt lat="44.81644" lon="4.62502">
        <ele>386</ele>
        <time>2023-06-14T16:34:12.695Z</time>
      </trkpt>
      <trkpt lat="44.81646" lon="4.62506">
        <ele>386.5</ele>
        <time>2023-06-14T16:34:14.251Z</time>
      </trkpt>
      <trkpt lat="44.81646" lon="4.62507">
        <ele>386.5</ele>
        <time>2023-06-14T16:34:14.563Z</time>
      </trkpt>
      <trkpt lat="44.81648" lon="4.62514">
        <ele>387.1</ele>
        <time>2023-06-14T16:34:16.958Z</time>
      </trkpt>
      <trkpt lat="44.81648" lon="4.62516">
        <ele>387.2</ele>
        <time>2023-06-14T16:34:17.588Z</time>
      </trkpt>
      <trkpt lat="44.8165" lon="4.62522">
        <ele>387.7</ele>
        <time>2023-06-14T16:34:19.690Z</time>
      </trkpt>
      <trkpt lat="44.81652" lon="4.62525">
        <ele>388.1</ele>
        <time>2023-06-14T16:34:20.998Z</time>
      </trkpt>
      <trkpt lat="44.81654" lon="4.62533">
        <ele>388.7</ele>
        <time>2023-06-14T16:34:23.681Z</time>
      </trkpt>
      <trkpt lat="44.81655" lon="4.62535">
        <ele>388.9</ele>
        <time>2023-06-14T16:34:24.459Z</time>
      </trkpt>
      <trkpt lat="44.81656" lon="4.62538">
        <ele>389.2</ele>
        <time>2023-06-14T16:34:25.512Z</time>
      </trkpt>
      <trkpt lat="44.81657" lon="4.62544">
        <ele>389.5</ele>
        <time>2023-06-14T16:34:27.459Z</time>
      </trkpt>
      <trkpt lat="44.8166" lon="4.62549">
        <ele>390.1</ele>
        <time>2023-06-14T16:34:29.542Z</time>
      </trkpt>
      <trkpt lat="44.81667" lon="4.62556">
        <ele>391.4</ele>
        <time>2023-06-14T16:34:33.395Z</time>
      </trkpt>
      <trkpt lat="44.81668" lon="4.62557">
        <ele>391.6</ele>
        <time>2023-06-14T16:34:33.950Z</time>
      </trkpt>
      <trkpt lat="44.81673" lon="4.62564">
        <ele>393</ele>
        <time>2023-06-14T16:34:37.127Z</time>
      </trkpt>
      <trkpt lat="44.81675" lon="4.62565">
        <ele>393.5</ele>
        <time>2023-06-14T16:34:38.087Z</time>
      </trkpt>
      <trkpt lat="44.81681" lon="4.62571">
        <ele>394.9</ele>
        <time>2023-06-14T16:34:41.406Z</time>
      </trkpt>
      <trkpt lat="44.81689" lon="4.62581">
        <ele>396.8</ele>
        <time>2023-06-14T16:34:46.222Z</time>
      </trkpt>
      <trkpt lat="44.81689" lon="4.62582">
        <ele>396.8</ele>
        <time>2023-06-14T16:34:46.539Z</time>
      </trkpt>
      <trkpt lat="44.81691" lon="4.62587">
        <ele>396.9</ele>
        <time>2023-06-14T16:34:48.351Z</time>
      </trkpt>
      <trkpt lat="44.81694" lon="4.62588">
        <ele>397.3</ele>
        <time>2023-06-14T16:34:49.734Z</time>
      </trkpt>
      <trkpt lat="44.81703" lon="4.6259">
        <ele>398.9</ele>
        <time>2023-06-14T16:34:53.829Z</time>
      </trkpt>
      <trkpt lat="44.81709" lon="4.62592">
        <ele>400</ele>
        <time>2023-06-14T16:34:56.606Z</time>
      </trkpt>
      <trkpt lat="44.81713" lon="4.62594">
        <ele>400.6</ele>
        <time>2023-06-14T16:34:58.507Z</time>
      </trkpt>
      <trkpt lat="44.81726" lon="4.62602">
        <ele>402.2</ele>
        <time>2023-06-14T16:35:04.848Z</time>
      </trkpt>
      <trkpt lat="44.8173" lon="4.62606">
        <ele>402.5</ele>
        <time>2023-06-14T16:35:07.035Z</time>
      </trkpt>
      <trkpt lat="44.81735" lon="4.6261">
        <ele>403</ele>
        <time>2023-06-14T16:35:09.596Z</time>
      </trkpt>
      <trkpt lat="44.81738" lon="4.62612">
        <ele>403.3</ele>
        <time>2023-06-14T16:35:11.077Z</time>
      </trkpt>
      <trkpt lat="44.81742" lon="4.62617">
        <ele>403.4</ele>
        <time>2023-06-14T16:35:13.456Z</time>
      </trkpt>
      <trkpt lat="44.81744" lon="4.62619">
        <ele>403.7</ele>
        <time>2023-06-14T16:35:14.548Z</time>
      </trkpt>
      <trkpt lat="44.81745" lon="4.6262">
        <ele>403.7</ele>
        <time>2023-06-14T16:35:15.096Z</time>
      </trkpt>
      <trkpt lat="44.81746" lon="4.62621">
        <ele>403.7</ele>
        <time>2023-06-14T16:35:15.638Z</time>
      </trkpt>
      <trkpt lat="44.81748" lon="4.62621">
        <ele>404.1</ele>
        <time>2023-06-14T16:35:16.548Z</time>
      </trkpt>
      <trkpt lat="44.8175" lon="4.62622">
        <ele>404.6</ele>
        <time>2023-06-14T16:35:17.504Z</time>
      </trkpt>
      <trkpt lat="44.81758" lon="4.62621">
        <ele>405.1</ele>
        <time>2023-06-14T16:35:21.080Z</time>
      </trkpt>
      <trkpt lat="44.8176" lon="4.62621">
        <ele>405.2</ele>
        <time>2023-06-14T16:35:21.975Z</time>
      </trkpt>
      <trkpt lat="44.81765" lon="4.62624">
        <ele>405.2</ele>
        <time>2023-06-14T16:35:24.391Z</time>
      </trkpt>
      <trkpt lat="44.81766" lon="4.62625">
        <ele>405.1</ele>
        <time>2023-06-14T16:35:24.937Z</time>
      </trkpt>
      <trkpt lat="44.81768" lon="4.62626">
        <ele>405.2</ele>
        <time>2023-06-14T16:35:25.882Z</time>
      </trkpt>
      <trkpt lat="44.81772" lon="4.62627">
        <ele>405.3</ele>
        <time>2023-06-14T16:35:27.684Z</time>
      </trkpt>
      <trkpt lat="44.81778" lon="4.62627">
        <ele>405.7</ele>
        <time>2023-06-14T16:35:30.357Z</time>
      </trkpt>
      <trkpt lat="44.81782" lon="4.62627">
        <ele>406</ele>
        <time>2023-06-14T16:35:32.143Z</time>
      </trkpt>
      <trkpt lat="44.81785" lon="4.62627">
        <ele>406.2</ele>
        <time>2023-06-14T16:35:33.479Z</time>
      </trkpt>
      <trkpt lat="44.81788" lon="4.62627">
        <ele>406.4</ele>
        <time>2023-06-14T16:35:34.816Z</time>
      </trkpt>
      <trkpt lat="44.81791" lon="4.62627">
        <ele>406.6</ele>
        <time>2023-06-14T16:35:36.152Z</time>
      </trkpt>
      <trkpt lat="44.81794" lon="4.6263">
        <ele>406.5</ele>
        <time>2023-06-14T16:35:37.789Z</time>
      </trkpt>
      <trkpt lat="44.81798" lon="4.62629">
        <ele>406.8</ele>
        <time>2023-06-14T16:35:39.594Z</time>
      </trkpt>
      <trkpt lat="44.81799" lon="4.6263">
        <ele>406.8</ele>
        <time>2023-06-14T16:35:40.140Z</time>
      </trkpt>
      <trkpt lat="44.81801" lon="4.62633">
        <ele>406.5</ele>
        <time>2023-06-14T16:35:41.442Z</time>
      </trkpt>
      <trkpt lat="44.81803" lon="4.62636">
        <ele>406.4</ele>
        <time>2023-06-14T16:35:42.746Z</time>
      </trkpt>
      <trkpt lat="44.81806" lon="4.62641">
        <ele>406.1</ele>
        <time>2023-06-14T16:35:44.819Z</time>
      </trkpt>
      <trkpt lat="44.8181" lon="4.62645">
        <ele>406</ele>
        <time>2023-06-14T16:35:46.994Z</time>
      </trkpt>
      <trkpt lat="44.81814" lon="4.62647">
        <ele>406.1</ele>
        <time>2023-06-14T16:35:48.886Z</time>
      </trkpt>
      <trkpt lat="44.81817" lon="4.62649">
        <ele>406.2</ele>
        <time>2023-06-14T16:35:50.362Z</time>
      </trkpt>
      <trkpt lat="44.81819" lon="4.6265">
        <ele>406.2</ele>
        <time>2023-06-14T16:35:51.302Z</time>
      </trkpt>
      <trkpt lat="44.81828" lon="4.62657">
        <ele>406.4</ele>
        <time>2023-06-14T16:35:55.876Z</time>
      </trkpt>
      <trkpt lat="44.81834" lon="4.62671">
        <ele>405.4</ele>
        <time>2023-06-14T16:36:01.052Z</time>
      </trkpt>
      <trkpt lat="44.81835" lon="4.62673">
        <ele>404.9</ele>
        <time>2023-06-14T16:36:01.842Z</time>
      </trkpt>
      <trkpt lat="44.81841" lon="4.62682">
        <ele>403.9</ele>
        <time>2023-06-14T16:36:05.754Z</time>
      </trkpt>
      <trkpt lat="44.81843" lon="4.62685">
        <ele>403.5</ele>
        <time>2023-06-14T16:36:07.070Z</time>
      </trkpt>
      <trkpt lat="44.81844" lon="4.62686">
        <ele>403.4</ele>
        <time>2023-06-14T16:36:07.614Z</time>
      </trkpt>
      <trkpt lat="44.81846" lon="4.62687">
        <ele>403.5</ele>
        <time>2023-06-14T16:36:08.565Z</time>
      </trkpt>
      <trkpt lat="44.81852" lon="4.62689">
        <ele>403.5</ele>
        <time>2023-06-14T16:36:11.307Z</time>
      </trkpt>
      <trkpt lat="44.81856" lon="4.62689">
        <ele>403.8</ele>
        <time>2023-06-14T16:36:13.084Z</time>
      </trkpt>
      <trkpt lat="44.81863" lon="4.62687">
        <ele>404.5</ele>
        <time>2023-06-14T16:36:16.274Z</time>
      </trkpt>
      <trkpt lat="44.81865" lon="4.62685">
        <ele>404.7</ele>
        <time>2023-06-14T16:36:17.368Z</time>
      </trkpt>
      <trkpt lat="44.81869" lon="4.62681">
        <ele>405.1</ele>
        <time>2023-06-14T16:36:19.557Z</time>
      </trkpt>
      <trkpt lat="44.8187" lon="4.6268">
        <ele>405.3</ele>
        <time>2023-06-14T16:36:20.101Z</time>
      </trkpt>
      <trkpt lat="44.81871" lon="4.62679">
        <ele>405.4</ele>
        <time>2023-06-14T16:36:20.651Z</time>
      </trkpt>
      <trkpt lat="44.81875" lon="4.62676">
        <ele>405.6</ele>
        <time>2023-06-14T16:36:22.671Z</time>
      </trkpt>
      <trkpt lat="44.81877" lon="4.62676">
        <ele>405.7</ele>
        <time>2023-06-14T16:36:23.559Z</time>
      </trkpt>
      <trkpt lat="44.81883" lon="4.62678">
        <ele>405.8</ele>
        <time>2023-06-14T16:36:26.302Z</time>
      </trkpt>
      <trkpt lat="44.81892" lon="4.62676">
        <ele>406.1</ele>
        <time>2023-06-14T16:36:30.357Z</time>
      </trkpt>
      <trkpt lat="44.81894" lon="4.62676">
        <ele>406.1</ele>
        <time>2023-06-14T16:36:31.244Z</time>
      </trkpt>
      <trkpt lat="44.81897" lon="4.62676">
        <ele>406.2</ele>
        <time>2023-06-14T16:36:32.579Z</time>
      </trkpt>
      <trkpt lat="44.81901" lon="4.62675">
        <ele>406.3</ele>
        <time>2023-06-14T16:36:34.388Z</time>
      </trkpt>
      <trkpt lat="44.81903" lon="4.62675">
        <ele>406.3</ele>
        <time>2023-06-14T16:36:35.276Z</time>
      </trkpt>
      <trkpt lat="44.81914" lon="4.62674">
        <ele>406.5</ele>
        <time>2023-06-14T16:36:40.176Z</time>
      </trkpt>
      <trkpt lat="44.81916" lon="4.62674">
        <ele>406.5</ele>
        <time>2023-06-14T16:36:41.064Z</time>
      </trkpt>
      <trkpt lat="44.81927" lon="4.62673">
        <ele>407.2</ele>
        <time>2023-06-14T16:36:45.980Z</time>
      </trkpt>
      <trkpt lat="44.81929" lon="4.62673">
        <ele>407.4</ele>
        <time>2023-06-14T16:36:46.869Z</time>
      </trkpt>
      <trkpt lat="44.81933" lon="4.62673">
        <ele>407.6</ele>
        <time>2023-06-14T16:36:48.646Z</time>
      </trkpt>
      <trkpt lat="44.81936" lon="4.62673">
        <ele>407.8</ele>
        <time>2023-06-14T16:36:49.983Z</time>
      </trkpt>
      <trkpt lat="44.81945" lon="4.62675">
        <ele>408.5</ele>
        <time>2023-06-14T16:36:54.046Z</time>
      </trkpt>
      <trkpt lat="44.81947" lon="4.62676">
        <ele>408.8</ele>
        <time>2023-06-14T16:36:55.000Z</time>
      </trkpt>
      <trkpt lat="44.81956" lon="4.62682">
        <ele>410.1</ele>
        <time>2023-06-14T16:36:59.449Z</time>
      </trkpt>
      <trkpt lat="44.81961" lon="4.62686">
        <ele>411</ele>
        <time>2023-06-14T16:37:02.041Z</time>
      </trkpt>
      <trkpt lat="44.81962" lon="4.62688">
        <ele>411.3</ele>
        <time>2023-06-14T16:37:02.816Z</time>
      </trkpt>
      <trkpt lat="44.81964" lon="4.62688">
        <ele>411.5</ele>
        <time>2023-06-14T16:37:03.713Z</time>
      </trkpt>
      <trkpt lat="44.81967" lon="4.6269">
        <ele>412</ele>
        <time>2023-06-14T16:37:05.207Z</time>
      </trkpt>
      <trkpt lat="44.81978" lon="4.62691">
        <ele>412.9</ele>
        <time>2023-06-14T16:37:10.120Z</time>
      </trkpt>
      <trkpt lat="44.81979" lon="4.62691">
        <ele>413</ele>
        <time>2023-06-14T16:37:10.562Z</time>
      </trkpt>
      <trkpt lat="44.81988" lon="4.62695">
        <ele>414.3</ele>
        <time>2023-06-14T16:37:14.790Z</time>
      </trkpt>
      <trkpt lat="44.81991" lon="4.62695">
        <ele>414.5</ele>
        <time>2023-06-14T16:37:16.129Z</time>
      </trkpt>
      <trkpt lat="44.82001" lon="4.62698">
        <ele>416.1</ele>
        <time>2023-06-14T16:37:20.721Z</time>
      </trkpt>
      <trkpt lat="44.82003" lon="4.62699">
        <ele>416.5</ele>
        <time>2023-06-14T16:37:21.674Z</time>
      </trkpt>
      <trkpt lat="44.82011" lon="4.62702">
        <ele>418.6</ele>
        <time>2023-06-14T16:37:25.450Z</time>
      </trkpt>
      <trkpt lat="44.82013" lon="4.62703">
        <ele>419.1</ele>
        <time>2023-06-14T16:37:26.422Z</time>
      </trkpt>
      <trkpt lat="44.82014" lon="4.62703">
        <ele>419.3</ele>
        <time>2023-06-14T16:37:26.868Z</time>
      </trkpt>
      <trkpt lat="44.8202" lon="4.62706">
        <ele>420.7</ele>
        <time>2023-06-14T16:37:29.752Z</time>
      </trkpt>
      <trkpt lat="44.82021" lon="4.62707">
        <ele>420.9</ele>
        <time>2023-06-14T16:37:30.312Z</time>
      </trkpt>
      <trkpt lat="44.82024" lon="4.62709">
        <ele>421.5</ele>
        <time>2023-06-14T16:37:31.807Z</time>
      </trkpt>
      <trkpt lat="44.82031" lon="4.62714">
        <ele>423</ele>
        <time>2023-06-14T16:37:35.337Z</time>
      </trkpt>
      <trkpt lat="44.82032" lon="4.62715">
        <ele>423.2</ele>
        <time>2023-06-14T16:37:35.895Z</time>
      </trkpt>
      <trkpt lat="44.82039" lon="4.62722">
        <ele>424.3</ele>
        <time>2023-06-14T16:37:39.739Z</time>
      </trkpt>
      <trkpt lat="44.8204" lon="4.62726">
        <ele>424.5</ele>
        <time>2023-06-14T16:37:41.079Z</time>
      </trkpt>
      <trkpt lat="44.82041" lon="4.62733">
        <ele>424.7</ele>
        <time>2023-06-14T16:37:43.336Z</time>
      </trkpt>
      <trkpt lat="44.82042" lon="4.6274">
        <ele>424.9</ele>
        <time>2023-06-14T16:37:45.587Z</time>
      </trkpt>
      <trkpt lat="44.82042" lon="4.62742">
        <ele>424.9</ele>
        <time>2023-06-14T16:37:46.221Z</time>
      </trkpt>
      <trkpt lat="44.82042" lon="4.62747">
        <ele>425</ele>
        <time>2023-06-14T16:37:47.796Z</time>
      </trkpt>
      <trkpt lat="44.82044" lon="4.62749">
        <ele>425</ele>
        <time>2023-06-14T16:37:48.884Z</time>
      </trkpt>
      <trkpt lat="44.82045" lon="4.62748">
        <ele>425.1</ele>
        <time>2023-06-14T16:37:49.433Z</time>
      </trkpt>
      <trkpt lat="44.8205" lon="4.62745">
        <ele>425.3</ele>
        <time>2023-06-14T16:37:51.849Z</time>
      </trkpt>
      <trkpt lat="44.82051" lon="4.62742">
        <ele>425.4</ele>
        <time>2023-06-14T16:37:52.888Z</time>
      </trkpt>
      <trkpt lat="44.82051" lon="4.6274">
        <ele>425.4</ele>
        <time>2023-06-14T16:37:53.523Z</time>
      </trkpt>
      <trkpt lat="44.82052" lon="4.62737">
        <ele>425.6</ele>
        <time>2023-06-14T16:37:54.572Z</time>
      </trkpt>
      <trkpt lat="44.82053" lon="4.62729">
        <ele>425.8</ele>
        <time>2023-06-14T16:37:57.136Z</time>
      </trkpt>
      <trkpt lat="44.82054" lon="4.62726">
        <ele>426.1</ele>
        <time>2023-06-14T16:37:58.183Z</time>
      </trkpt>
      <trkpt lat="44.82059" lon="4.62717">
        <ele>427.1</ele>
        <time>2023-06-14T16:38:01.816Z</time>
      </trkpt>
      <trkpt lat="44.82064" lon="4.62713">
        <ele>428</ele>
        <time>2023-06-14T16:38:04.397Z</time>
      </trkpt>
      <trkpt lat="44.82069" lon="4.6271">
        <ele>429</ele>
        <time>2023-06-14T16:38:06.843Z</time>
      </trkpt>
      <trkpt lat="44.82072" lon="4.62708">
        <ele>429.7</ele>
        <time>2023-06-14T16:38:08.348Z</time>
      </trkpt>
      <trkpt lat="44.82076" lon="4.62707">
        <ele>430.4</ele>
        <time>2023-06-14T16:38:10.180Z</time>
      </trkpt>
      <trkpt lat="44.82078" lon="4.62706">
        <ele>430.9</ele>
        <time>2023-06-14T16:38:11.143Z</time>
      </trkpt>
      <trkpt lat="44.82085" lon="4.62704">
        <ele>432.4</ele>
        <time>2023-06-14T16:38:14.373Z</time>
      </trkpt>
      <trkpt lat="44.8209" lon="4.62703">
        <ele>432.9</ele>
        <time>2023-06-14T16:38:16.628Z</time>
      </trkpt>
      <trkpt lat="44.82092" lon="4.62703">
        <ele>433.1</ele>
        <time>2023-06-14T16:38:17.519Z</time>
      </trkpt>
      <trkpt lat="44.82095" lon="4.62704">
        <ele>433.4</ele>
        <time>2023-06-14T16:38:18.896Z</time>
      </trkpt>
      <trkpt lat="44.82102" lon="4.62706">
        <ele>433.7</ele>
        <time>2023-06-14T16:38:22.077Z</time>
      </trkpt>
      <trkpt lat="44.82103" lon="4.62706">
        <ele>433.8</ele>
        <time>2023-06-14T16:38:22.518Z</time>
      </trkpt>
      <trkpt lat="44.82104" lon="4.62706">
        <ele>433.9</ele>
        <time>2023-06-14T16:38:22.968Z</time>
      </trkpt>
      <trkpt lat="44.82111" lon="4.62706">
        <ele>434.6</ele>
        <time>2023-06-14T16:38:26.095Z</time>
      </trkpt>
      <trkpt lat="44.82112" lon="4.62707">
        <ele>434.4</ele>
        <time>2023-06-14T16:38:26.643Z</time>
      </trkpt>
      <trkpt lat="44.8212" lon="4.62709">
        <ele>434.8</ele>
        <time>2023-06-14T16:38:30.258Z</time>
      </trkpt>
      <trkpt lat="44.82127" lon="4.62713">
        <ele>434.4</ele>
        <time>2023-06-14T16:38:33.625Z</time>
      </trkpt>
      <trkpt lat="44.82129" lon="4.62715">
        <ele>433.9</ele>
        <time>2023-06-14T16:38:34.732Z</time>
      </trkpt>
      <trkpt lat="44.82132" lon="4.62721">
        <ele>432.6</ele>
        <time>2023-06-14T16:38:37.101Z</time>
      </trkpt>
      <trkpt lat="44.82134" lon="4.62727">
        <ele>430.9</ele>
        <time>2023-06-14T16:38:39.310Z</time>
      </trkpt>
      <trkpt lat="44.82135" lon="4.6273">
        <ele>430.1</ele>
        <time>2023-06-14T16:38:40.392Z</time>
      </trkpt>
      <trkpt lat="44.82138" lon="4.62736">
        <ele>428.3</ele>
        <time>2023-06-14T16:38:42.825Z</time>
      </trkpt>
      <trkpt lat="44.82139" lon="4.62737">
        <ele>427.9</ele>
        <time>2023-06-14T16:38:43.391Z</time>
      </trkpt>
      <trkpt lat="44.82141" lon="4.62738">
        <ele>427.9</ele>
        <time>2023-06-14T16:38:44.333Z</time>
      </trkpt>
      <trkpt lat="44.82151" lon="4.6274">
        <ele>427.1</ele>
        <time>2023-06-14T16:38:48.841Z</time>
      </trkpt>
      <trkpt lat="44.82163" lon="4.62737">
        <ele>428</ele>
        <time>2023-06-14T16:38:54.274Z</time>
      </trkpt>
      <trkpt lat="44.82169" lon="4.62737">
        <ele>428.5</ele>
        <time>2023-06-14T16:38:56.944Z</time>
      </trkpt>
      <trkpt lat="44.82172" lon="4.62737">
        <ele>429.2</ele>
        <time>2023-06-14T16:38:58.309Z</time>
      </trkpt>
      <trkpt lat="44.82181" lon="4.62739">
        <ele>430.7</ele>
        <time>2023-06-14T16:39:02.405Z</time>
      </trkpt>
      <trkpt lat="44.82189" lon="4.6274">
        <ele>432.1</ele>
        <time>2023-06-14T16:39:06.016Z</time>
      </trkpt>
      <trkpt lat="44.82192" lon="4.6274">
        <ele>432.8</ele>
        <time>2023-06-14T16:39:07.377Z</time>
      </trkpt>
      <trkpt lat="44.82203" lon="4.62736">
        <ele>436.6</ele>
        <time>2023-06-14T16:39:12.659Z</time>
      </trkpt>
      <trkpt lat="44.82213" lon="4.62733">
        <ele>439.7</ele>
        <time>2023-06-14T16:39:17.365Z</time>
      </trkpt>
      <trkpt lat="44.8222" lon="4.6273">
        <ele>442.4</ele>
        <time>2023-06-14T16:39:20.799Z</time>
      </trkpt>
      <trkpt lat="44.82222" lon="4.62728">
        <ele>443.2</ele>
        <time>2023-06-14T16:39:21.938Z</time>
      </trkpt>
      <trkpt lat="44.82225" lon="4.62727">
        <ele>444.2</ele>
        <time>2023-06-14T16:39:23.368Z</time>
      </trkpt>
      <trkpt lat="44.82229" lon="4.62726">
        <ele>445.5</ele>
        <time>2023-06-14T16:39:25.249Z</time>
      </trkpt>
      <trkpt lat="44.82234" lon="4.62724">
        <ele>446.9</ele>
        <time>2023-06-14T16:39:27.625Z</time>
      </trkpt>
      <trkpt lat="44.82235" lon="4.62723">
        <ele>447.5</ele>
        <time>2023-06-14T16:39:28.215Z</time>
      </trkpt>
      <trkpt lat="44.82236" lon="4.62723">
        <ele>447.7</ele>
        <time>2023-06-14T16:39:28.670Z</time>
      </trkpt>
      <trkpt lat="44.82247" lon="4.62717">
        <ele>451.8</ele>
        <time>2023-06-14T16:39:34.163Z</time>
      </trkpt>
      <trkpt lat="44.82249" lon="4.62715">
        <ele>452.5</ele>
        <time>2023-06-14T16:39:35.296Z</time>
      </trkpt>
      <trkpt lat="44.8225" lon="4.62714">
        <ele>453.1</ele>
        <time>2023-06-14T16:39:35.881Z</time>
      </trkpt>
      <trkpt lat="44.82253" lon="4.62713">
        <ele>454.9</ele>
        <time>2023-06-14T16:39:37.444Z</time>
      </trkpt>
      <trkpt lat="44.82256" lon="4.62712">
        <ele>457</ele>
        <time>2023-06-14T16:39:39.041Z</time>
      </trkpt>
      <trkpt lat="44.82257" lon="4.62712">
        <ele>457.5</ele>
        <time>2023-06-14T16:39:39.532Z</time>
      </trkpt>
      <trkpt lat="44.8226" lon="4.62713">
        <ele>458.7</ele>
        <time>2023-06-14T16:39:40.981Z</time>
      </trkpt>
      <trkpt lat="44.82275" lon="4.62706">
        <ele>468.1</ele>
        <time>2023-06-14T16:39:48.957Z</time>
      </trkpt>
      <trkpt lat="44.82277" lon="4.62705">
        <ele>469.4</ele>
        <time>2023-06-14T16:39:50.040Z</time>
      </trkpt>
      <trkpt lat="44.8228" lon="4.62704">
        <ele>471.3</ele>
        <time>2023-06-14T16:39:51.593Z</time>
      </trkpt>
      <trkpt lat="44.82283" lon="4.62702">
        <ele>473.2</ele>
        <time>2023-06-14T16:39:53.271Z</time>
      </trkpt>
      <trkpt lat="44.82289" lon="4.62698">
        <ele>477.2</ele>
        <time>2023-06-14T16:39:56.615Z</time>
      </trkpt>
      <trkpt lat="44.82293" lon="4.62695">
        <ele>480.1</ele>
        <time>2023-06-14T16:39:58.939Z</time>
      </trkpt>
      <trkpt lat="44.82295" lon="4.62693">
        <ele>481.5</ele>
        <time>2023-06-14T16:40:00.178Z</time>
      </trkpt>
      <trkpt lat="44.82299" lon="4.62693">
        <ele>483.5</ele>
        <time>2023-06-14T16:40:02.118Z</time>
      </trkpt>
      <trkpt lat="44.823" lon="4.62693">
        <ele>484</ele>
        <time>2023-06-14T16:40:02.606Z</time>
      </trkpt>
      <trkpt lat="44.823" lon="4.62693">
        <ele>484</ele>
        <time>2023-06-14T16:40:02.606Z</time>
      </trkpt>
      <trkpt lat="44.82301" lon="4.62694">
        <ele>484.2</ele>
        <time>2023-06-14T16:40:03.157Z</time>
      </trkpt>
      <trkpt lat="44.82306" lon="4.62695">
        <ele>486.7</ele>
        <time>2023-06-14T16:40:05.607Z</time>
      </trkpt>
      <trkpt lat="44.82309" lon="4.62696">
        <ele>488</ele>
        <time>2023-06-14T16:40:07.080Z</time>
      </trkpt>
      <trkpt lat="44.82314" lon="4.627">
        <ele>489.6</ele>
        <time>2023-06-14T16:40:09.714Z</time>
      </trkpt>
      <trkpt lat="44.82316" lon="4.62703">
        <ele>489.7</ele>
        <time>2023-06-14T16:40:11.012Z</time>
      </trkpt>
      <trkpt lat="44.82321" lon="4.62708">
        <ele>491.4</ele>
        <time>2023-06-14T16:40:13.821Z</time>
      </trkpt>
      <trkpt lat="44.82322" lon="4.6271">
        <ele>491.3</ele>
        <time>2023-06-14T16:40:14.594Z</time>
      </trkpt>
      <trkpt lat="44.82327" lon="4.62722">
        <ele>491.6</ele>
        <time>2023-06-14T16:40:18.980Z</time>
      </trkpt>
      <trkpt lat="44.8233" lon="4.62736">
        <ele>490.2</ele>
        <time>2023-06-14T16:40:23.632Z</time>
      </trkpt>
      <trkpt lat="44.82336" lon="4.62754">
        <ele>489.9</ele>
        <time>2023-06-14T16:40:29.902Z</time>
      </trkpt>
      <trkpt lat="44.82341" lon="4.6277">
        <ele>491.1</ele>
        <time>2023-06-14T16:40:35.441Z</time>
      </trkpt>
      <trkpt lat="44.82344" lon="4.62782">
        <ele>491.4</ele>
        <time>2023-06-14T16:40:39.458Z</time>
      </trkpt>
      <trkpt lat="44.82345" lon="4.6279">
        <ele>491.1</ele>
        <time>2023-06-14T16:40:42.020Z</time>
      </trkpt>
      <trkpt lat="44.8235" lon="4.62808">
        <ele>491.5</ele>
        <time>2023-06-14T16:40:48.120Z</time>
      </trkpt>
      <trkpt lat="44.82351" lon="4.62822">
        <ele>490.7</ele>
        <time>2023-06-14T16:40:52.569Z</time>
      </trkpt>
      <trkpt lat="44.82352" lon="4.62836">
        <ele>489.5</ele>
        <time>2023-06-14T16:40:57.033Z</time>
      </trkpt>
      <trkpt lat="44.8235" lon="4.6284">
        <ele>488</ele>
        <time>2023-06-14T16:40:58.697Z</time>
      </trkpt>
      <trkpt lat="44.82349" lon="4.62843">
        <ele>487.2</ele>
        <time>2023-06-14T16:40:59.793Z</time>
      </trkpt>
      <trkpt lat="44.82347" lon="4.62847">
        <ele>485.7</ele>
        <time>2023-06-14T16:41:01.437Z</time>
      </trkpt>
      <trkpt lat="44.82347" lon="4.62849">
        <ele>485.3</ele>
        <time>2023-06-14T16:41:02.093Z</time>
      </trkpt>
      <trkpt lat="44.82345" lon="4.62853">
        <ele>483.9</ele>
        <time>2023-06-14T16:41:03.739Z</time>
      </trkpt>
      <trkpt lat="44.82343" lon="4.62862">
        <ele>481.6</ele>
        <time>2023-06-14T16:41:06.853Z</time>
      </trkpt>
      <trkpt lat="44.82343" lon="4.62864">
        <ele>481.3</ele>
        <time>2023-06-14T16:41:07.489Z</time>
      </trkpt>
      <trkpt lat="44.82341" lon="4.62885">
        <ele>477</ele>
        <time>2023-06-14T16:41:14.392Z</time>
      </trkpt>
      <trkpt lat="44.8234" lon="4.62896">
        <ele>474.7</ele>
        <time>2023-06-14T16:41:18.014Z</time>
      </trkpt>
      <trkpt lat="44.8234" lon="4.62898">
        <ele>474.4</ele>
        <time>2023-06-14T16:41:18.650Z</time>
      </trkpt>
      <trkpt lat="44.82339" lon="4.62901">
        <ele>473.5</ele>
        <time>2023-06-14T16:41:19.768Z</time>
      </trkpt>
      <trkpt lat="44.8234" lon="4.62911">
        <ele>472.2</ele>
        <time>2023-06-14T16:41:22.997Z</time>
      </trkpt>
      <trkpt lat="44.8234" lon="4.62915">
        <ele>471.5</ele>
        <time>2023-06-14T16:41:24.285Z</time>
      </trkpt>
      <trkpt lat="44.82341" lon="4.6292">
        <ele>470.4</ele>
        <time>2023-06-14T16:41:25.983Z</time>
      </trkpt>
      <trkpt lat="44.82341" lon="4.6293">
        <ele>466.8</ele>
        <time>2023-06-14T16:41:29.457Z</time>
      </trkpt>
      <trkpt lat="44.82344" lon="4.62944">
        <ele>462.7</ele>
        <time>2023-06-14T16:41:34.346Z</time>
      </trkpt>
      <trkpt lat="44.82344" lon="4.62945">
        <ele>462.7</ele>
        <time>2023-06-14T16:41:34.663Z</time>
      </trkpt>
      <trkpt lat="44.82345" lon="4.62947">
        <ele>462.1</ele>
        <time>2023-06-14T16:41:35.465Z</time>
      </trkpt>
      <trkpt lat="44.82347" lon="4.62947">
        <ele>462.8</ele>
        <time>2023-06-14T16:41:36.397Z</time>
      </trkpt>
      <trkpt lat="44.82346" lon="4.62951">
        <ele>461.1</ele>
        <time>2023-06-14T16:41:37.896Z</time>
      </trkpt>
      <trkpt lat="44.82347" lon="4.62951">
        <ele>461.4</ele>
        <time>2023-06-14T16:41:38.362Z</time>
      </trkpt>
      <trkpt lat="44.82347" lon="4.62951">
        <ele>461.4</ele>
        <time>2023-06-14T16:41:38.362Z</time>
      </trkpt>
      <trkpt lat="44.82347" lon="4.62951">
        <ele>461.4</ele>
        <time>2023-06-14T16:41:38.362Z</time>
      </trkpt>
      <trkpt lat="44.82347" lon="4.62953">
        <ele>460.6</ele>
        <time>2023-06-14T16:41:39.086Z</time>
      </trkpt>
      <trkpt lat="44.82347" lon="4.62953">
        <ele>460.6</ele>
        <time>2023-06-14T16:41:39.086Z</time>
      </trkpt>
      <trkpt lat="44.82348" lon="4.62951">
        <ele>461.8</ele>
        <time>2023-06-14T16:41:39.998Z</time>
      </trkpt>
      <trkpt lat="44.82348" lon="4.62951">
        <ele>461.8</ele>
        <time>2023-06-14T16:41:39.998Z</time>
      </trkpt>
      <trkpt lat="44.82345" lon="4.62956">
        <ele>459</ele>
        <time>2023-06-14T16:41:42.347Z</time>
      </trkpt>
      <trkpt lat="44.82345" lon="4.62956">
        <ele>459</ele>
        <time>2023-06-14T16:41:42.347Z</time>
      </trkpt>
      <trkpt lat="44.82345" lon="4.62957">
        <ele>458.5</ele>
        <time>2023-06-14T16:41:42.711Z</time>
      </trkpt>
      <trkpt lat="44.82347" lon="4.62957">
        <ele>459.2</ele>
        <time>2023-06-14T16:41:43.646Z</time>
      </trkpt>
      <trkpt lat="44.8235" lon="4.62957">
        <ele>460.2</ele>
        <time>2023-06-14T16:41:45.034Z</time>
      </trkpt>
      <trkpt lat="44.82355" lon="4.62959">
        <ele>461.6</ele>
        <time>2023-06-14T16:41:47.414Z</time>
      </trkpt>
      <trkpt lat="44.82371" lon="4.62961">
        <ele>466.3</ele>
        <time>2023-06-14T16:41:54.800Z</time>
      </trkpt>
      <trkpt lat="44.82373" lon="4.6296">
        <ele>467.4</ele>
        <time>2023-06-14T16:41:55.837Z</time>
      </trkpt>
      <trkpt lat="44.82385" lon="4.6296">
        <ele>471.6</ele>
        <time>2023-06-14T16:42:01.433Z</time>
      </trkpt>
      <trkpt lat="44.82387" lon="4.62961">
        <ele>471.9</ele>
        <time>2023-06-14T16:42:02.388Z</time>
      </trkpt>
      <trkpt lat="44.82401" lon="4.62973">
        <ele>473.5</ele>
        <time>2023-06-14T16:42:09.701Z</time>
      </trkpt>
      <trkpt lat="44.82406" lon="4.6298">
        <ele>473.6</ele>
        <time>2023-06-14T16:42:12.835Z</time>
      </trkpt>
      <trkpt lat="44.82418" lon="4.62995">
        <ele>473.6</ele>
        <time>2023-06-14T16:42:19.969Z</time>
      </trkpt>
      <trkpt lat="44.82434" lon="4.63013">
        <ele>472.7</ele>
        <time>2023-06-14T16:42:29.074Z</time>
      </trkpt>
      <trkpt lat="44.82439" lon="4.63018">
        <ele>473</ele>
        <time>2023-06-14T16:42:31.809Z</time>
      </trkpt>
      <trkpt lat="44.82445" lon="4.63025">
        <ele>472.8</ele>
        <time>2023-06-14T16:42:35.266Z</time>
      </trkpt>
      <trkpt lat="44.82447" lon="4.63026">
        <ele>473.1</ele>
        <time>2023-06-14T16:42:36.221Z</time>
      </trkpt>
      <trkpt lat="44.8245" lon="4.63029">
        <ele>473.4</ele>
        <time>2023-06-14T16:42:37.863Z</time>
      </trkpt>
      <trkpt lat="44.82458" lon="4.63033">
        <ele>474.9</ele>
        <time>2023-06-14T16:42:41.678Z</time>
      </trkpt>
      <trkpt lat="44.82466" lon="4.63037">
        <ele>476.5</ele>
        <time>2023-06-14T16:42:45.511Z</time>
      </trkpt>
      <trkpt lat="44.82472" lon="4.6304">
        <ele>477.8</ele>
        <time>2023-06-14T16:42:48.391Z</time>
      </trkpt>
      <trkpt lat="44.82484" lon="4.63053">
        <ele>479.8</ele>
        <time>2023-06-14T16:42:55.164Z</time>
      </trkpt>
      <trkpt lat="44.82486" lon="4.63054">
        <ele>480.2</ele>
        <time>2023-06-14T16:42:56.126Z</time>
      </trkpt>
      <trkpt lat="44.82498" lon="4.63062">
        <ele>483.4</ele>
        <time>2023-06-14T16:43:02.167Z</time>
      </trkpt>
      <trkpt lat="44.82501" lon="4.63064">
        <ele>483.6</ele>
        <time>2023-06-14T16:43:03.646Z</time>
      </trkpt>
      <trkpt lat="44.82506" lon="4.63075">
        <ele>481.5</ele>
        <time>2023-06-14T16:43:07.855Z</time>
      </trkpt>
      <trkpt lat="44.82508" lon="4.63079">
        <ele>480.7</ele>
        <time>2023-06-14T16:43:09.431Z</time>
      </trkpt>
      <trkpt lat="44.8251" lon="4.63082">
        <ele>479.9</ele>
        <time>2023-06-14T16:43:10.763Z</time>
      </trkpt>
      <trkpt lat="44.82513" lon="4.63086">
        <ele>478.9</ele>
        <time>2023-06-14T16:43:12.649Z</time>
      </trkpt>
      <trkpt lat="44.82517" lon="4.6309">
        <ele>477.6</ele>
        <time>2023-06-14T16:43:14.885Z</time>
      </trkpt>
      <trkpt lat="44.8252" lon="4.63101">
        <ele>475.8</ele>
        <time>2023-06-14T16:43:18.668Z</time>
      </trkpt>
      <trkpt lat="44.82521" lon="4.63102">
        <ele>475.5</ele>
        <time>2023-06-14T16:43:19.228Z</time>
      </trkpt>
      <trkpt lat="44.82522" lon="4.63104">
        <ele>475.1</ele>
        <time>2023-06-14T16:43:20.025Z</time>
      </trkpt>
      <trkpt lat="44.82524" lon="4.63109">
        <ele>474.3</ele>
        <time>2023-06-14T16:43:21.856Z</time>
      </trkpt>
      <trkpt lat="44.82525" lon="4.63111">
        <ele>473.9</ele>
        <time>2023-06-14T16:43:22.646Z</time>
      </trkpt>
      <trkpt lat="44.82526" lon="4.63112">
        <ele>473.6</ele>
        <time>2023-06-14T16:43:23.200Z</time>
      </trkpt>
      <trkpt lat="44.82531" lon="4.63119">
        <ele>472.2</ele>
        <time>2023-06-14T16:43:26.385Z</time>
      </trkpt>
      <trkpt lat="44.82533" lon="4.63128">
        <ele>471.2</ele>
        <time>2023-06-14T16:43:29.389Z</time>
      </trkpt>
      <trkpt lat="44.82535" lon="4.63138">
        <ele>470.1</ele>
        <time>2023-06-14T16:43:32.696Z</time>
      </trkpt>
      <trkpt lat="44.82536" lon="4.63142">
        <ele>469.7</ele>
        <time>2023-06-14T16:43:34.041Z</time>
      </trkpt>
      <trkpt lat="44.82542" lon="4.63151">
        <ele>468.5</ele>
        <time>2023-06-14T16:43:37.969Z</time>
      </trkpt>
      <trkpt lat="44.82544" lon="4.63159">
        <ele>467.8</ele>
        <time>2023-06-14T16:43:40.660Z</time>
      </trkpt>
      <trkpt lat="44.82545" lon="4.63163">
        <ele>467.5</ele>
        <time>2023-06-14T16:43:42.002Z</time>
      </trkpt>
      <trkpt lat="44.82551" lon="4.63175">
        <ele>465.7</ele>
        <time>2023-06-14T16:43:46.691Z</time>
      </trkpt>
      <trkpt lat="44.82552" lon="4.63177">
        <ele>465.2</ele>
        <time>2023-06-14T16:43:47.480Z</time>
      </trkpt>
      <trkpt lat="44.82559" lon="4.63189">
        <ele>463</ele>
        <time>2023-06-14T16:43:52.462Z</time>
      </trkpt>
      <trkpt lat="44.82568" lon="4.63198">
        <ele>461.2</ele>
        <time>2023-06-14T16:43:57.424Z</time>
      </trkpt>
      <trkpt lat="44.82574" lon="4.63209">
        <ele>459.4</ele>
        <time>2023-06-14T16:44:01.861Z</time>
      </trkpt>
      <trkpt lat="44.82575" lon="4.63211">
        <ele>459</ele>
        <time>2023-06-14T16:44:02.648Z</time>
      </trkpt>
      <trkpt lat="44.8258" lon="4.63222">
        <ele>457.2</ele>
        <time>2023-06-14T16:44:06.831Z</time>
      </trkpt>
      <trkpt lat="44.82582" lon="4.63225">
        <ele>456.8</ele>
        <time>2023-06-14T16:44:08.140Z</time>
      </trkpt>
      <trkpt lat="44.82584" lon="4.63227">
        <ele>456.2</ele>
        <time>2023-06-14T16:44:09.256Z</time>
      </trkpt>
      <trkpt lat="44.8259" lon="4.63234">
        <ele>453.3</ele>
        <time>2023-06-14T16:44:12.899Z</time>
      </trkpt>
      <trkpt lat="44.82591" lon="4.63235">
        <ele>452.9</ele>
        <time>2023-06-14T16:44:13.480Z</time>
      </trkpt>
      <trkpt lat="44.82597" lon="4.63245">
        <ele>449.6</ele>
        <time>2023-06-14T16:44:17.811Z</time>
      </trkpt>
      <trkpt lat="44.82606" lon="4.63253">
        <ele>446.3</ele>
        <time>2023-06-14T16:44:22.718Z</time>
      </trkpt>
      <trkpt lat="44.82609" lon="4.63252">
        <ele>445.4</ele>
        <time>2023-06-14T16:44:24.142Z</time>
      </trkpt>
      <trkpt lat="44.82612" lon="4.6325">
        <ele>444.4</ele>
        <time>2023-06-14T16:44:25.665Z</time>
      </trkpt>
      <trkpt lat="44.82616" lon="4.63247">
        <ele>443.6</ele>
        <time>2023-06-14T16:44:27.705Z</time>
      </trkpt>
      <trkpt lat="44.82618" lon="4.63242">
        <ele>443.6</ele>
        <time>2023-06-14T16:44:29.513Z</time>
      </trkpt>
      <trkpt lat="44.82621" lon="4.63229">
        <ele>444.3</ele>
        <time>2023-06-14T16:44:33.838Z</time>
      </trkpt>
      <trkpt lat="44.82622" lon="4.63227">
        <ele>444.4</ele>
        <time>2023-06-14T16:44:34.610Z</time>
      </trkpt>
      <trkpt lat="44.82628" lon="4.63209">
        <ele>444.7</ele>
        <time>2023-06-14T16:44:40.886Z</time>
      </trkpt>
      <trkpt lat="44.82637" lon="4.63196">
        <ele>443.5</ele>
        <time>2023-06-14T16:44:46.635Z</time>
      </trkpt>
      <trkpt lat="44.82645" lon="4.63179">
        <ele>442.8</ele>
        <time>2023-06-14T16:44:53.073Z</time>
      </trkpt>
      <trkpt lat="44.82653" lon="4.63163">
        <ele>441.6</ele>
        <time>2023-06-14T16:44:59.270Z</time>
      </trkpt>
      <trkpt lat="44.82659" lon="4.6315">
        <ele>439.5</ele>
        <time>2023-06-14T16:45:04.231Z</time>
      </trkpt>
      <trkpt lat="44.82663" lon="4.6314">
        <ele>438.2</ele>
        <time>2023-06-14T16:45:07.892Z</time>
      </trkpt>
      <trkpt lat="44.82664" lon="4.63134">
        <ele>437.9</ele>
        <time>2023-06-14T16:45:09.840Z</time>
      </trkpt>
      <trkpt lat="44.82665" lon="4.63132">
        <ele>437.5</ele>
        <time>2023-06-14T16:45:10.622Z</time>
      </trkpt>
      <trkpt lat="44.82666" lon="4.6313">
        <ele>437.2</ele>
        <time>2023-06-14T16:45:11.405Z</time>
      </trkpt>
      <trkpt lat="44.82664" lon="4.63124">
        <ele>437.9</ele>
        <time>2023-06-14T16:45:13.514Z</time>
      </trkpt>
      <trkpt lat="44.82662" lon="4.6312">
        <ele>438.5</ele>
        <time>2023-06-14T16:45:15.079Z</time>
      </trkpt>
      <trkpt lat="44.8266" lon="4.63109">
        <ele>439.1</ele>
        <time>2023-06-14T16:45:18.668Z</time>
      </trkpt>
      <trkpt lat="44.82657" lon="4.63105">
        <ele>440.1</ele>
        <time>2023-06-14T16:45:20.545Z</time>
      </trkpt>
      <trkpt lat="44.82652" lon="4.63099">
        <ele>441.8</ele>
        <time>2023-06-14T16:45:23.547Z</time>
      </trkpt>
      <trkpt lat="44.82649" lon="4.63085">
        <ele>442.7</ele>
        <time>2023-06-14T16:45:28.172Z</time>
      </trkpt>
      <trkpt lat="44.82647" lon="4.63056">
        <ele>443.1</ele>
        <time>2023-06-14T16:45:37.364Z</time>
      </trkpt>
      <trkpt lat="44.82648" lon="4.6304">
        <ele>442.6</ele>
        <time>2023-06-14T16:45:42.431Z</time>
      </trkpt>
      <trkpt lat="44.82648" lon="4.63037">
        <ele>442.6</ele>
        <time>2023-06-14T16:45:43.377Z</time>
      </trkpt>
      <trkpt lat="44.82644" lon="4.63024">
        <ele>443.8</ele>
        <time>2023-06-14T16:45:47.876Z</time>
      </trkpt>
      <trkpt lat="44.82641" lon="4.63003">
        <ele>444.7</ele>
        <time>2023-06-14T16:45:54.638Z</time>
      </trkpt>
      <trkpt lat="44.82639" lon="4.62989">
        <ele>446</ele>
        <time>2023-06-14T16:45:59.174Z</time>
      </trkpt>
      <trkpt lat="44.82637" lon="4.62963">
        <ele>448.2</ele>
        <time>2023-06-14T16:46:07.467Z</time>
      </trkpt>
      <trkpt lat="44.82635" lon="4.62948">
        <ele>449.6</ele>
        <time>2023-06-14T16:46:12.315Z</time>
      </trkpt>
      <trkpt lat="44.82635" lon="4.62944">
        <ele>449.8</ele>
        <time>2023-06-14T16:46:13.582Z</time>
      </trkpt>
      <trkpt lat="44.82631" lon="4.6293">
        <ele>451.7</ele>
        <time>2023-06-14T16:46:18.399Z</time>
      </trkpt>
      <trkpt lat="44.8263" lon="4.62928">
        <ele>452.1</ele>
        <time>2023-06-14T16:46:19.188Z</time>
      </trkpt>
      <trkpt lat="44.82629" lon="4.62925">
        <ele>452.5</ele>
        <time>2023-06-14T16:46:20.247Z</time>
      </trkpt>
      <trkpt lat="44.82629" lon="4.62923">
        <ele>452.5</ele>
        <time>2023-06-14T16:46:20.877Z</time>
      </trkpt>
      <trkpt lat="44.82628" lon="4.62919">
        <ele>453.1</ele>
        <time>2023-06-14T16:46:22.231Z</time>
      </trkpt>
      <trkpt lat="44.82627" lon="4.62915">
        <ele>453.8</ele>
        <time>2023-06-14T16:46:23.605Z</time>
      </trkpt>
      <trkpt lat="44.82624" lon="4.6291">
        <ele>455.1</ele>
        <time>2023-06-14T16:46:25.728Z</time>
      </trkpt>
      <trkpt lat="44.82621" lon="4.62907">
        <ele>456.3</ele>
        <time>2023-06-14T16:46:27.432Z</time>
      </trkpt>
      <trkpt lat="44.8262" lon="4.62902">
        <ele>457.1</ele>
        <time>2023-06-14T16:46:29.102Z</time>
      </trkpt>
      <trkpt lat="44.8262" lon="4.629">
        <ele>457.2</ele>
        <time>2023-06-14T16:46:29.734Z</time>
      </trkpt>
      <trkpt lat="44.82619" lon="4.62898">
        <ele>457.8</ele>
        <time>2023-06-14T16:46:30.538Z</time>
      </trkpt>
      <trkpt lat="44.82616" lon="4.62888">
        <ele>459.4</ele>
        <time>2023-06-14T16:46:34.020Z</time>
      </trkpt>
      <trkpt lat="44.82614" lon="4.62885">
        <ele>460.2</ele>
        <time>2023-06-14T16:46:35.356Z</time>
      </trkpt>
      <trkpt lat="44.82613" lon="4.62884">
        <ele>460.4</ele>
        <time>2023-06-14T16:46:35.914Z</time>
      </trkpt>
      <trkpt lat="44.82611" lon="4.62879">
        <ele>461.3</ele>
        <time>2023-06-14T16:46:37.756Z</time>
      </trkpt>
      <trkpt lat="44.8261" lon="4.62877">
        <ele>461.7</ele>
        <time>2023-06-14T16:46:38.546Z</time>
      </trkpt>
      <trkpt lat="44.82608" lon="4.62869">
        <ele>462.8</ele>
        <time>2023-06-14T16:46:41.257Z</time>
      </trkpt>
      <trkpt lat="44.82607" lon="4.62867">
        <ele>463</ele>
        <time>2023-06-14T16:46:42.037Z</time>
      </trkpt>
      <trkpt lat="44.82608" lon="4.62864">
        <ele>463.2</ele>
        <time>2023-06-14T16:46:43.087Z</time>
      </trkpt>
      <trkpt lat="44.82611" lon="4.6285">
        <ele>464.2</ele>
        <time>2023-06-14T16:46:47.714Z</time>
      </trkpt>
      <trkpt lat="44.82615" lon="4.62843">
        <ele>464.4</ele>
        <time>2023-06-14T16:46:50.549Z</time>
      </trkpt>
      <trkpt lat="44.82617" lon="4.62838">
        <ele>464.7</ele>
        <time>2023-06-14T16:46:52.367Z</time>
      </trkpt>
      <trkpt lat="44.82617" lon="4.62836">
        <ele>464.9</ele>
        <time>2023-06-14T16:46:52.999Z</time>
      </trkpt>
      <trkpt lat="44.82619" lon="4.62831">
        <ele>465.6</ele>
        <time>2023-06-14T16:46:54.830Z</time>
      </trkpt>
      <trkpt lat="44.82621" lon="4.62823">
        <ele>467.3</ele>
        <time>2023-06-14T16:46:57.593Z</time>
      </trkpt>
      <trkpt lat="44.82622" lon="4.6282">
        <ele>468.2</ele>
        <time>2023-06-14T16:46:58.694Z</time>
      </trkpt>
      <trkpt lat="44.8263" lon="4.62818">
        <ele>467.9</ele>
        <time>2023-06-14T16:47:02.308Z</time>
      </trkpt>
      <trkpt lat="44.82631" lon="4.62816">
        <ele>468.4</ele>
        <time>2023-06-14T16:47:03.112Z</time>
      </trkpt>
      <trkpt lat="44.82623" lon="4.62818">
        <ele>468.4</ele>
        <time>2023-06-14T16:47:06.723Z</time>
      </trkpt>
      <trkpt lat="44.82619" lon="4.6282">
        <ele>468.4</ele>
        <time>2023-06-14T16:47:08.612Z</time>
      </trkpt>
      <trkpt lat="44.82619" lon="4.62819">
        <ele>468.4</ele>
        <time>2023-06-14T16:47:08.924Z</time>
      </trkpt>
      <trkpt lat="44.82623" lon="4.62814">
        <ele>469.3</ele>
        <time>2023-06-14T16:47:11.336Z</time>
      </trkpt>
      <trkpt lat="44.82625" lon="4.62805">
        <ele>471.4</ele>
        <time>2023-06-14T16:47:14.416Z</time>
      </trkpt>
      <trkpt lat="44.82626" lon="4.62801">
        <ele>472.2</ele>
        <time>2023-06-14T16:47:15.801Z</time>
      </trkpt>
      <trkpt lat="44.8263" lon="4.62793">
        <ele>473.9</ele>
        <time>2023-06-14T16:47:18.952Z</time>
      </trkpt>
      <trkpt lat="44.82631" lon="4.62791">
        <ele>474.4</ele>
        <time>2023-06-14T16:47:19.762Z</time>
      </trkpt>
      <trkpt lat="44.82634" lon="4.6278">
        <ele>476.8</ele>
        <time>2023-06-14T16:47:23.598Z</time>
      </trkpt>
      <trkpt lat="44.82635" lon="4.62778">
        <ele>477.4</ele>
        <time>2023-06-14T16:47:24.401Z</time>
      </trkpt>
      <trkpt lat="44.82638" lon="4.62771">
        <ele>478.9</ele>
        <time>2023-06-14T16:47:27.048Z</time>
      </trkpt>
      <trkpt lat="44.82638" lon="4.62769">
        <ele>479.5</ele>
        <time>2023-06-14T16:47:27.728Z</time>
      </trkpt>
      <trkpt lat="44.82639" lon="4.62765">
        <ele>480.4</ele>
        <time>2023-06-14T16:47:29.113Z</time>
      </trkpt>
      <trkpt lat="44.8264" lon="4.62763">
        <ele>480.7</ele>
        <time>2023-06-14T16:47:29.898Z</time>
      </trkpt>
      <trkpt lat="44.82643" lon="4.62753">
        <ele>483.2</ele>
        <time>2023-06-14T16:47:33.459Z</time>
      </trkpt>
      <trkpt lat="44.82645" lon="4.62749">
        <ele>484.1</ele>
        <time>2023-06-14T16:47:35.049Z</time>
      </trkpt>
      <trkpt lat="44.82647" lon="4.62744">
        <ele>485.5</ele>
        <time>2023-06-14T16:47:36.942Z</time>
      </trkpt>
      <trkpt lat="44.82649" lon="4.6274">
        <ele>486.6</ele>
        <time>2023-06-14T16:47:38.547Z</time>
      </trkpt>
      <trkpt lat="44.82649" lon="4.62739">
        <ele>487</ele>
        <time>2023-06-14T16:47:38.892Z</time>
      </trkpt>
      <trkpt lat="44.82652" lon="4.6273">
        <ele>489.5</ele>
        <time>2023-06-14T16:47:42.187Z</time>
      </trkpt>
      <trkpt lat="44.82653" lon="4.62727">
        <ele>490.2</ele>
        <time>2023-06-14T16:47:43.274Z</time>
      </trkpt>
      <trkpt lat="44.82654" lon="4.62724">
        <ele>491</ele>
        <time>2023-06-14T16:47:44.361Z</time>
      </trkpt>
      <trkpt lat="44.82655" lon="4.62718">
        <ele>492.9</ele>
        <time>2023-06-14T16:47:46.444Z</time>
      </trkpt>
      <trkpt lat="44.82656" lon="4.62716">
        <ele>493.2</ele>
        <time>2023-06-14T16:47:47.229Z</time>
      </trkpt>
      <trkpt lat="44.82656" lon="4.62715">
        <ele>493.6</ele>
        <time>2023-06-14T16:47:47.581Z</time>
      </trkpt>
      <trkpt lat="44.82658" lon="4.6271">
        <ele>495.1</ele>
        <time>2023-06-14T16:47:49.487Z</time>
      </trkpt>
      <trkpt lat="44.82659" lon="4.62706">
        <ele>496.3</ele>
        <time>2023-06-14T16:47:50.904Z</time>
      </trkpt>
      <trkpt lat="44.8266" lon="4.62702">
        <ele>497.4</ele>
        <time>2023-06-14T16:47:52.322Z</time>
      </trkpt>
      <trkpt lat="44.82665" lon="4.62695">
        <ele>499.8</ele>
        <time>2023-06-14T16:47:55.591Z</time>
      </trkpt>
      <trkpt lat="44.82666" lon="4.62694">
        <ele>499.8</ele>
        <time>2023-06-14T16:47:56.139Z</time>
      </trkpt>
      <trkpt lat="44.82676" lon="4.62685">
        <ele>503.4</ele>
        <time>2023-06-14T16:48:01.609Z</time>
      </trkpt>
      <trkpt lat="44.82679" lon="4.62683">
        <ele>504.5</ele>
        <time>2023-06-14T16:48:03.141Z</time>
      </trkpt>
      <trkpt lat="44.82684" lon="4.62679">
        <ele>506.1</ele>
        <time>2023-06-14T16:48:05.777Z</time>
      </trkpt>
      <trkpt lat="44.82692" lon="4.62675">
        <ele>507.9</ele>
        <time>2023-06-14T16:48:09.626Z</time>
      </trkpt>
      <trkpt lat="44.82694" lon="4.62675">
        <ele>508.1</ele>
        <time>2023-06-14T16:48:10.515Z</time>
      </trkpt>
      <trkpt lat="44.82702" lon="4.62676">
        <ele>508.4</ele>
        <time>2023-06-14T16:48:14.088Z</time>
      </trkpt>
      <trkpt lat="44.82705" lon="4.62676">
        <ele>508.7</ele>
        <time>2023-06-14T16:48:15.427Z</time>
      </trkpt>
      <trkpt lat="44.8271" lon="4.62675">
        <ele>509.5</ele>
        <time>2023-06-14T16:48:17.693Z</time>
      </trkpt>
      <trkpt lat="44.82722" lon="4.62676">
        <ele>510.2</ele>
        <time>2023-06-14T16:48:23.047Z</time>
      </trkpt>
      <trkpt lat="44.82733" lon="4.62679">
        <ele>510.5</ele>
        <time>2023-06-14T16:48:28.030Z</time>
      </trkpt>
      <trkpt lat="44.82734" lon="4.62679">
        <ele>510.6</ele>
        <time>2023-06-14T16:48:28.478Z</time>
      </trkpt>
      <trkpt lat="44.82736" lon="4.62679">
        <ele>510.8</ele>
        <time>2023-06-14T16:48:29.368Z</time>
      </trkpt>
      <trkpt lat="44.82738" lon="4.6268">
        <ele>510.6</ele>
        <time>2023-06-14T16:48:30.319Z</time>
      </trkpt>
      <trkpt lat="44.82742" lon="4.62683">
        <ele>510.3</ele>
        <time>2023-06-14T16:48:32.333Z</time>
      </trkpt>
      <trkpt lat="44.82744" lon="4.62683">
        <ele>510.5</ele>
        <time>2023-06-14T16:48:33.230Z</time>
      </trkpt>
      <trkpt lat="44.82755" lon="4.62687">
        <ele>508.2</ele>
        <time>2023-06-14T16:48:38.362Z</time>
      </trkpt>
      <trkpt lat="44.82759" lon="4.62689">
        <ele>506.3</ele>
        <time>2023-06-14T16:48:40.402Z</time>
      </trkpt>
      <trkpt lat="44.82759" lon="4.62691">
        <ele>506</ele>
        <time>2023-06-14T16:48:41.041Z</time>
      </trkpt>
      <trkpt lat="44.82763" lon="4.62694">
        <ele>503.8</ele>
        <time>2023-06-14T16:48:43.237Z</time>
      </trkpt>
      <trkpt lat="44.82764" lon="4.62695">
        <ele>503.5</ele>
        <time>2023-06-14T16:48:43.800Z</time>
      </trkpt>
      <trkpt lat="44.8277" lon="4.627">
        <ele>500.5</ele>
        <time>2023-06-14T16:48:47.124Z</time>
      </trkpt>
      <trkpt lat="44.82776" lon="4.62706">
        <ele>497.5</ele>
        <time>2023-06-14T16:48:50.608Z</time>
      </trkpt>
      <trkpt lat="44.82781" lon="4.62711">
        <ele>495.1</ele>
        <time>2023-06-14T16:48:53.499Z</time>
      </trkpt>
      <trkpt lat="44.8279" lon="4.62722">
        <ele>491.2</ele>
        <time>2023-06-14T16:48:59.019Z</time>
      </trkpt>
      <trkpt lat="44.8279" lon="4.62725">
        <ele>490.8</ele>
        <time>2023-06-14T16:48:59.976Z</time>
      </trkpt>
      <trkpt lat="44.82795" lon="4.6273">
        <ele>488.9</ele>
        <time>2023-06-14T16:49:02.806Z</time>
      </trkpt>
      <trkpt lat="44.82798" lon="4.62731">
        <ele>488.1</ele>
        <time>2023-06-14T16:49:04.215Z</time>
      </trkpt>
      <trkpt lat="44.82812" lon="4.62737">
        <ele>484.5</ele>
        <time>2023-06-14T16:49:10.879Z</time>
      </trkpt>
      <trkpt lat="44.82816" lon="4.62737">
        <ele>483.7</ele>
        <time>2023-06-14T16:49:12.682Z</time>
      </trkpt>
      <trkpt lat="44.82826" lon="4.62738">
        <ele>481.6</ele>
        <time>2023-06-14T16:49:17.220Z</time>
      </trkpt>
      <trkpt lat="44.82838" lon="4.6274">
        <ele>477.9</ele>
        <time>2023-06-14T16:49:22.800Z</time>
      </trkpt>
      <trkpt lat="44.82843" lon="4.62739">
        <ele>475.7</ele>
        <time>2023-06-14T16:49:25.213Z</time>
      </trkpt>
      <trkpt lat="44.82844" lon="4.62738">
        <ele>475.2</ele>
        <time>2023-06-14T16:49:25.787Z</time>
      </trkpt>
      <trkpt lat="44.82848" lon="4.62733">
        <ele>473.5</ele>
        <time>2023-06-14T16:49:28.256Z</time>
      </trkpt>
      <trkpt lat="44.82849" lon="4.62731">
        <ele>473.1</ele>
        <time>2023-06-14T16:49:29.047Z</time>
      </trkpt>
      <trkpt lat="44.8285" lon="4.6273">
        <ele>472.6</ele>
        <time>2023-06-14T16:49:29.637Z</time>
      </trkpt>
      <trkpt lat="44.82855" lon="4.62718">
        <ele>470.7</ele>
        <time>2023-06-14T16:49:34.091Z</time>
      </trkpt>
      <trkpt lat="44.82856" lon="4.62716">
        <ele>470.3</ele>
        <time>2023-06-14T16:49:34.879Z</time>
      </trkpt>
      <trkpt lat="44.82858" lon="4.62706">
        <ele>469.7</ele>
        <time>2023-06-14T16:49:38.165Z</time>
      </trkpt>
      <trkpt lat="44.82858" lon="4.62696">
        <ele>470.1</ele>
        <time>2023-06-14T16:49:41.324Z</time>
      </trkpt>
      <trkpt lat="44.82858" lon="4.62694">
        <ele>470.1</ele>
        <time>2023-06-14T16:49:41.953Z</time>
      </trkpt>
      <trkpt lat="44.82859" lon="4.62684">
        <ele>470</ele>
        <time>2023-06-14T16:49:45.136Z</time>
      </trkpt>
      <trkpt lat="44.82857" lon="4.6267">
        <ele>471.2</ele>
        <time>2023-06-14T16:49:49.667Z</time>
      </trkpt>
      <trkpt lat="44.82857" lon="4.62665">
        <ele>471.9</ele>
        <time>2023-06-14T16:49:51.270Z</time>
      </trkpt>
      <trkpt lat="44.8286" lon="4.62646">
        <ele>475</ele>
        <time>2023-06-14T16:49:57.529Z</time>
      </trkpt>
      <trkpt lat="44.82862" lon="4.62631">
        <ele>478</ele>
        <time>2023-06-14T16:50:02.493Z</time>
      </trkpt>
      <trkpt lat="44.82863" lon="4.62625">
        <ele>478.9</ele>
        <time>2023-06-14T16:50:04.474Z</time>
      </trkpt>
      <trkpt lat="44.82863" lon="4.62617">
        <ele>480.8</ele>
        <time>2023-06-14T16:50:07.105Z</time>
      </trkpt>
      <trkpt lat="44.82861" lon="4.6261">
        <ele>483.2</ele>
        <time>2023-06-14T16:50:09.673Z</time>
      </trkpt>
      <trkpt lat="44.82861" lon="4.62607">
        <ele>483.8</ele>
        <time>2023-06-14T16:50:10.651Z</time>
      </trkpt>
      <trkpt lat="44.82861" lon="4.62599">
        <ele>485.7</ele>
        <time>2023-06-14T16:50:13.278Z</time>
      </trkpt>
      <trkpt lat="44.8286" lon="4.62595">
        <ele>486.8</ele>
        <time>2023-06-14T16:50:14.691Z</time>
      </trkpt>
      <trkpt lat="44.82859" lon="4.62584">
        <ele>489.8</ele>
        <time>2023-06-14T16:50:18.384Z</time>
      </trkpt>
      <trkpt lat="44.8286" lon="4.62581">
        <ele>490.2</ele>
        <time>2023-06-14T16:50:19.445Z</time>
      </trkpt>
      <trkpt lat="44.82862" lon="4.62568">
        <ele>493.3</ele>
        <time>2023-06-14T16:50:23.811Z</time>
      </trkpt>
      <trkpt lat="44.82862" lon="4.62563">
        <ele>494.7</ele>
        <time>2023-06-14T16:50:25.480Z</time>
      </trkpt>
      <trkpt lat="44.82866" lon="4.62554">
        <ele>496.3</ele>
        <time>2023-06-14T16:50:28.892Z</time>
      </trkpt>
      <trkpt lat="44.82868" lon="4.62549">
        <ele>497.3</ele>
        <time>2023-06-14T16:50:30.746Z</time>
      </trkpt>
      <trkpt lat="44.82873" lon="4.62538">
        <ele>499.2</ele>
        <time>2023-06-14T16:50:34.941Z</time>
      </trkpt>
      <trkpt lat="44.82884" lon="4.62527">
        <ele>500.3</ele>
        <time>2023-06-14T16:50:40.955Z</time>
      </trkpt>
      <trkpt lat="44.829" lon="4.6252">
        <ele>499.3</ele>
        <time>2023-06-14T16:50:48.412Z</time>
      </trkpt>
      <trkpt lat="44.82914" lon="4.62516">
        <ele>498</ele>
        <time>2023-06-14T16:50:54.786Z</time>
      </trkpt>
      <trkpt lat="44.82926" lon="4.62514">
        <ele>494.4</ele>
        <time>2023-06-14T16:51:00.343Z</time>
      </trkpt>
      <trkpt lat="44.82929" lon="4.62513">
        <ele>493.2</ele>
        <time>2023-06-14T16:51:01.794Z</time>
      </trkpt>
      <trkpt lat="44.82942" lon="4.62509">
        <ele>489</ele>
        <time>2023-06-14T16:51:07.955Z</time>
      </trkpt>
      <trkpt lat="44.82951" lon="4.62498">
        <ele>487.7</ele>
        <time>2023-06-14T16:51:13.280Z</time>
      </trkpt>
      <trkpt lat="44.82952" lon="4.62495">
        <ele>487.4</ele>
        <time>2023-06-14T16:51:14.328Z</time>
      </trkpt>
      <trkpt lat="44.82956" lon="4.62484">
        <ele>486.6</ele>
        <time>2023-06-14T16:51:18.240Z</time>
      </trkpt>
      <trkpt lat="44.82958" lon="4.62479">
        <ele>486.1</ele>
        <time>2023-06-14T16:51:20.060Z</time>
      </trkpt>
      <trkpt lat="44.82959" lon="4.6247">
        <ele>486.4</ele>
        <time>2023-06-14T16:51:22.936Z</time>
      </trkpt>
      <trkpt lat="44.82958" lon="4.62466">
        <ele>487.1</ele>
        <time>2023-06-14T16:51:24.303Z</time>
      </trkpt>
      <trkpt lat="44.82957" lon="4.62457">
        <ele>488.1</ele>
        <time>2023-06-14T16:51:27.201Z</time>
      </trkpt>
      <trkpt lat="44.82958" lon="4.62445">
        <ele>488.7</ele>
        <time>2023-06-14T16:51:31.019Z</time>
      </trkpt>
      <trkpt lat="44.82957" lon="4.62444">
        <ele>489</ele>
        <time>2023-06-14T16:51:31.586Z</time>
      </trkpt>
      <trkpt lat="44.82958" lon="4.62442">
        <ele>488.8</ele>
        <time>2023-06-14T16:51:32.361Z</time>
      </trkpt>
      <trkpt lat="44.82957" lon="4.62427">
        <ele>490.2</ele>
        <time>2023-06-14T16:51:37.146Z</time>
      </trkpt>
      <trkpt lat="44.82958" lon="4.62417">
        <ele>490.6</ele>
        <time>2023-06-14T16:51:40.333Z</time>
      </trkpt>
      <trkpt lat="44.82959" lon="4.62415">
        <ele>490.7</ele>
        <time>2023-06-14T16:51:41.110Z</time>
      </trkpt>
      <trkpt lat="44.82959" lon="4.62411">
        <ele>491.3</ele>
        <time>2023-06-14T16:51:42.394Z</time>
      </trkpt>
      <trkpt lat="44.82962" lon="4.62398">
        <ele>492.4</ele>
        <time>2023-06-14T16:51:46.730Z</time>
      </trkpt>
      <trkpt lat="44.82963" lon="4.62395">
        <ele>492.6</ele>
        <time>2023-06-14T16:51:47.775Z</time>
      </trkpt>
      <trkpt lat="44.82967" lon="4.62381">
        <ele>493.9</ele>
        <time>2023-06-14T16:51:52.564Z</time>
      </trkpt>
      <trkpt lat="44.82969" lon="4.62377">
        <ele>494</ele>
        <time>2023-06-14T16:51:54.109Z</time>
      </trkpt>
      <trkpt lat="44.82974" lon="4.62364">
        <ele>495</ele>
        <time>2023-06-14T16:51:58.792Z</time>
      </trkpt>
      <trkpt lat="44.82974" lon="4.62361">
        <ele>495.5</ele>
        <time>2023-06-14T16:51:59.758Z</time>
      </trkpt>
      <trkpt lat="44.82975" lon="4.62356">
        <ele>496.2</ele>
        <time>2023-06-14T16:52:01.419Z</time>
      </trkpt>
      <trkpt lat="44.82984" lon="4.62343">
        <ele>496.6</ele>
        <time>2023-06-14T16:52:07.153Z</time>
      </trkpt>
      <trkpt lat="44.82986" lon="4.6234">
        <ele>496.7</ele>
        <time>2023-06-14T16:52:08.451Z</time>
      </trkpt>
      <trkpt lat="44.82994" lon="4.62324">
        <ele>497</ele>
        <time>2023-06-14T16:52:14.627Z</time>
      </trkpt>
      <trkpt lat="44.83002" lon="4.62302">
        <ele>496.1</ele>
        <time>2023-06-14T16:52:22.435Z</time>
      </trkpt>
      <trkpt lat="44.83006" lon="4.62294">
        <ele>494.8</ele>
        <time>2023-06-14T16:52:25.557Z</time>
      </trkpt>
      <trkpt lat="44.8301" lon="4.62288">
        <ele>493.5</ele>
        <time>2023-06-14T16:52:28.214Z</time>
      </trkpt>
      <trkpt lat="44.83011" lon="4.62286">
        <ele>493.2</ele>
        <time>2023-06-14T16:52:28.994Z</time>
      </trkpt>
      <trkpt lat="44.83022" lon="4.62268">
        <ele>489.2</ele>
        <time>2023-06-14T16:52:36.654Z</time>
      </trkpt>
      <trkpt lat="44.83024" lon="4.62262">
        <ele>488.6</ele>
        <time>2023-06-14T16:52:38.760Z</time>
      </trkpt>
      <trkpt lat="44.83026" lon="4.62251">
        <ele>488.1</ele>
        <time>2023-06-14T16:52:42.344Z</time>
      </trkpt>
      <trkpt lat="44.83026" lon="4.62243">
        <ele>488.5</ele>
        <time>2023-06-14T16:52:44.869Z</time>
      </trkpt>
      <trkpt lat="44.83027" lon="4.6224">
        <ele>488.1</ele>
        <time>2023-06-14T16:52:45.924Z</time>
      </trkpt>
      <trkpt lat="44.83028" lon="4.62237">
        <ele>487.8</ele>
        <time>2023-06-14T16:52:46.978Z</time>
      </trkpt>
      <trkpt lat="44.83029" lon="4.6222">
        <ele>488.1</ele>
        <time>2023-06-14T16:52:52.358Z</time>
      </trkpt>
      <trkpt lat="44.8303" lon="4.62202">
        <ele>488.5</ele>
        <time>2023-06-14T16:52:58.056Z</time>
      </trkpt>
      <trkpt lat="44.83034" lon="4.6218">
        <ele>487.8</ele>
        <time>2023-06-14T16:53:05.223Z</time>
      </trkpt>
      <trkpt lat="44.83043" lon="4.62146">
        <ele>489.5</ele>
        <time>2023-06-14T16:53:16.687Z</time>
      </trkpt>
      <trkpt lat="44.83053" lon="4.6212">
        <ele>491.4</ele>
        <time>2023-06-14T16:53:26.045Z</time>
      </trkpt>
      <trkpt lat="44.83063" lon="4.62103">
        <ele>491.6</ele>
        <time>2023-06-14T16:53:33.012Z</time>
      </trkpt>
      <trkpt lat="44.83067" lon="4.62094">
        <ele>492.3</ele>
        <time>2023-06-14T16:53:36.371Z</time>
      </trkpt>
      <trkpt lat="44.83083" lon="4.62066">
        <ele>491.7</ele>
        <time>2023-06-14T16:53:47.715Z</time>
      </trkpt>
      <trkpt lat="44.83089" lon="4.62048">
        <ele>492.3</ele>
        <time>2023-06-14T16:53:53.994Z</time>
      </trkpt>
      <trkpt lat="44.83093" lon="4.62033">
        <ele>493.5</ele>
        <time>2023-06-14T16:53:59.069Z</time>
      </trkpt>
      <trkpt lat="44.83094" lon="4.62028">
        <ele>494</ele>
        <time>2023-06-14T16:54:00.718Z</time>
      </trkpt>
      <trkpt lat="44.83095" lon="4.62017">
        <ele>495.2</ele>
        <time>2023-06-14T16:54:04.251Z</time>
      </trkpt>
      <trkpt lat="44.83093" lon="4.61992">
        <ele>498</ele>
        <time>2023-06-14T16:54:12.262Z</time>
      </trkpt>
      <trkpt lat="44.8309" lon="4.61963">
        <ele>497.4</ele>
        <time>2023-06-14T16:54:21.508Z</time>
      </trkpt>
      <trkpt lat="44.8309" lon="4.61958">
        <ele>497.1</ele>
        <time>2023-06-14T16:54:23.086Z</time>
      </trkpt>
      <trkpt lat="44.83086" lon="4.61939">
        <ele>497.4</ele>
        <time>2023-06-14T16:54:29.334Z</time>
      </trkpt>
      <trkpt lat="44.83083" lon="4.6193">
        <ele>497.7</ele>
        <time>2023-06-14T16:54:32.474Z</time>
      </trkpt>
      <trkpt lat="44.83082" lon="4.61925">
        <ele>497.8</ele>
        <time>2023-06-14T16:54:34.112Z</time>
      </trkpt>
      <trkpt lat="44.83081" lon="4.61921">
        <ele>497.9</ele>
        <time>2023-06-14T16:54:35.453Z</time>
      </trkpt>
      <trkpt lat="44.83082" lon="4.61912">
        <ele>497</ele>
        <time>2023-06-14T16:54:38.348Z</time>
      </trkpt>
      <trkpt lat="44.83082" lon="4.61909">
        <ele>496.8</ele>
        <time>2023-06-14T16:54:39.297Z</time>
      </trkpt>
      <trkpt lat="44.83081" lon="4.61903">
        <ele>496.7</ele>
        <time>2023-06-14T16:54:41.243Z</time>
      </trkpt>
      <trkpt lat="44.8308" lon="4.61899">
        <ele>496.7</ele>
        <time>2023-06-14T16:54:42.576Z</time>
      </trkpt>
      <trkpt lat="44.8308" lon="4.61894">
        <ele>496.4</ele>
        <time>2023-06-14T16:54:44.164Z</time>
      </trkpt>
      <trkpt lat="44.83079" lon="4.61891">
        <ele>496.5</ele>
        <time>2023-06-14T16:54:45.212Z</time>
      </trkpt>
      <trkpt lat="44.83076" lon="4.61888">
        <ele>497.2</ele>
        <time>2023-06-14T16:54:46.876Z</time>
      </trkpt>
      <trkpt lat="44.83074" lon="4.61878">
        <ele>497.1</ele>
        <time>2023-06-14T16:54:50.150Z</time>
      </trkpt>
      <trkpt lat="44.83074" lon="4.61875">
        <ele>497</ele>
        <time>2023-06-14T16:54:51.099Z</time>
      </trkpt>
      <trkpt lat="44.83073" lon="4.61868">
        <ele>496.7</ele>
        <time>2023-06-14T16:54:53.355Z</time>
      </trkpt>
      <trkpt lat="44.83072" lon="4.61864">
        <ele>496.9</ele>
        <time>2023-06-14T16:54:54.693Z</time>
      </trkpt>
      <trkpt lat="44.83068" lon="4.61853">
        <ele>497.5</ele>
        <time>2023-06-14T16:54:58.595Z</time>
      </trkpt>
      <trkpt lat="44.83065" lon="4.61848">
        <ele>498.1</ele>
        <time>2023-06-14T16:55:00.678Z</time>
      </trkpt>
      <trkpt lat="44.83058" lon="4.61838">
        <ele>499.8</ele>
        <time>2023-06-14T16:55:05.162Z</time>
      </trkpt>
      <trkpt lat="44.83056" lon="4.61829">
        <ele>500</ele>
        <time>2023-06-14T16:55:08.138Z</time>
      </trkpt>
      <trkpt lat="44.83054" lon="4.61826">
        <ele>500.6</ele>
        <time>2023-06-14T16:55:09.454Z</time>
      </trkpt>
      <trkpt lat="44.83052" lon="4.6182">
        <ele>501</ele>
        <time>2023-06-14T16:55:11.553Z</time>
      </trkpt>
      <trkpt lat="44.8305" lon="4.61813">
        <ele>501.4</ele>
        <time>2023-06-14T16:55:13.940Z</time>
      </trkpt>
      <trkpt lat="44.83049" lon="4.61811">
        <ele>501.6</ele>
        <time>2023-06-14T16:55:14.719Z</time>
      </trkpt>
      <trkpt lat="44.8304" lon="4.61792">
        <ele>503.8</ele>
        <time>2023-06-14T16:55:21.970Z</time>
      </trkpt>
      <trkpt lat="44.83033" lon="4.61786">
        <ele>505.6</ele>
        <time>2023-06-14T16:55:25.692Z</time>
      </trkpt>
      <trkpt lat="44.83028" lon="4.61785">
        <ele>507.3</ele>
        <time>2023-06-14T16:55:28.030Z</time>
      </trkpt>
      <trkpt lat="44.83026" lon="4.61784">
        <ele>507.8</ele>
        <time>2023-06-14T16:55:29.002Z</time>
      </trkpt>
      <trkpt lat="44.83019" lon="4.61781">
        <ele>509.8</ele>
        <time>2023-06-14T16:55:32.344Z</time>
      </trkpt>
      <trkpt lat="44.83018" lon="4.6178">
        <ele>510.1</ele>
        <time>2023-06-14T16:55:32.905Z</time>
      </trkpt>
      <trkpt lat="44.83016" lon="4.61779">
        <ele>510.7</ele>
        <time>2023-06-14T16:55:33.882Z</time>
      </trkpt>
      <trkpt lat="44.83014" lon="4.61777">
        <ele>511.2</ele>
        <time>2023-06-14T16:55:34.985Z</time>
      </trkpt>
      <trkpt lat="44.83012" lon="4.61777">
        <ele>511.8</ele>
        <time>2023-06-14T16:55:35.913Z</time>
      </trkpt>
      <trkpt lat="44.83008" lon="4.61779">
        <ele>513.2</ele>
        <time>2023-06-14T16:55:37.872Z</time>
      </trkpt>
      <trkpt lat="44.83006" lon="4.61778">
        <ele>513.7</ele>
        <time>2023-06-14T16:55:38.843Z</time>
      </trkpt>
      <trkpt lat="44.83003" lon="4.61777">
        <ele>514.7</ele>
        <time>2023-06-14T16:55:40.266Z</time>
      </trkpt>
      <trkpt lat="44.82995" lon="4.61776">
        <ele>516.7</ele>
        <time>2023-06-14T16:55:43.927Z</time>
      </trkpt>
      <trkpt lat="44.82994" lon="4.61775">
        <ele>516.8</ele>
        <time>2023-06-14T16:55:44.469Z</time>
      </trkpt>
      <trkpt lat="44.8298" lon="4.61771">
        <ele>519.8</ele>
        <time>2023-06-14T16:55:50.936Z</time>
      </trkpt>
      <trkpt lat="44.82974" lon="4.6177">
        <ele>521.1</ele>
        <time>2023-06-14T16:55:53.667Z</time>
      </trkpt>
      <trkpt lat="44.8297" lon="4.61767">
        <ele>521.8</ele>
        <time>2023-06-14T16:55:55.703Z</time>
      </trkpt>
      <trkpt lat="44.82968" lon="4.61756">
        <ele>521.3</ele>
        <time>2023-06-14T16:55:59.288Z</time>
      </trkpt>
      <trkpt lat="44.82968" lon="4.61732">
        <ele>519.9</ele>
        <time>2023-06-14T16:56:06.874Z</time>
      </trkpt>
      <trkpt lat="44.82968" lon="4.61713">
        <ele>518.9</ele>
        <time>2023-06-14T16:56:12.883Z</time>
      </trkpt>
      <trkpt lat="44.82968" lon="4.61702">
        <ele>518.4</ele>
        <time>2023-06-14T16:56:16.358Z</time>
      </trkpt>
      <trkpt lat="44.82966" lon="4.61677">
        <ele>517.5</ele>
        <time>2023-06-14T16:56:24.300Z</time>
      </trkpt>
      <trkpt lat="44.82961" lon="4.61663">
        <ele>517.9</ele>
        <time>2023-06-14T16:56:29.244Z</time>
      </trkpt>
      <trkpt lat="44.82959" lon="4.61656">
        <ele>518.1</ele>
        <time>2023-06-14T16:56:31.627Z</time>
      </trkpt>
      <trkpt lat="44.82959" lon="4.61656">
        <ele>518.1</ele>
        <time>2023-06-14T16:56:31.627Z</time>
      </trkpt>
      <trkpt lat="44.82958" lon="4.61654">
        <ele>518.3</ele>
        <time>2023-06-14T16:56:32.402Z</time>
      </trkpt>
      <trkpt lat="44.82958" lon="4.61653">
        <ele>518.2</ele>
        <time>2023-06-14T16:56:32.719Z</time>
      </trkpt>
      <trkpt lat="44.82959" lon="4.61652">
        <ele>518</ele>
        <time>2023-06-14T16:56:33.275Z</time>
      </trkpt>
      <trkpt lat="44.82959" lon="4.61652">
        <ele>518</ele>
        <time>2023-06-14T16:56:33.275Z</time>
      </trkpt>
      <trkpt lat="44.8296" lon="4.61652">
        <ele>517.8</ele>
        <time>2023-06-14T16:56:33.722Z</time>
      </trkpt>
      <trkpt lat="44.8296" lon="4.61652">
        <ele>517.8</ele>
        <time>2023-06-14T16:56:33.722Z</time>
      </trkpt>
      <trkpt lat="44.82959" lon="4.61653">
        <ele>518</ele>
        <time>2023-06-14T16:56:34.272Z</time>
      </trkpt>
      <trkpt lat="44.82957" lon="4.61652">
        <ele>518.4</ele>
        <time>2023-06-14T16:56:35.233Z</time>
      </trkpt>
      <trkpt lat="44.82958" lon="4.61653">
        <ele>518.2</ele>
        <time>2023-06-14T16:56:35.785Z</time>
      </trkpt>
      <trkpt lat="44.82958" lon="4.61653">
        <ele>518.2</ele>
        <time>2023-06-14T16:56:35.785Z</time>
      </trkpt>
      <trkpt lat="44.82958" lon="4.61651">
        <ele>518.2</ele>
        <time>2023-06-14T16:56:36.415Z</time>
      </trkpt>
      <trkpt lat="44.82958" lon="4.61651">
        <ele>518.2</ele>
        <time>2023-06-14T16:56:36.415Z</time>
      </trkpt>
      <trkpt lat="44.82958" lon="4.61652">
        <ele>518.2</ele>
        <time>2023-06-14T16:56:36.726Z</time>
      </trkpt>
      <trkpt lat="44.82959" lon="4.61651">
        <ele>518</ele>
        <time>2023-06-14T16:56:37.278Z</time>
      </trkpt>
      <trkpt lat="44.82959" lon="4.61652">
        <ele>518</ele>
        <time>2023-06-14T16:56:37.589Z</time>
      </trkpt>
      <trkpt lat="44.82959" lon="4.61652">
        <ele>518</ele>
        <time>2023-06-14T16:56:37.589Z</time>
      </trkpt>
      <trkpt lat="44.82958" lon="4.61652">
        <ele>518.2</ele>
        <time>2023-06-14T16:56:38.044Z</time>
      </trkpt>
      <trkpt lat="44.82958" lon="4.61652">
        <ele>518.2</ele>
        <time>2023-06-14T16:56:38.044Z</time>
      </trkpt>
      <trkpt lat="44.82957" lon="4.61652">
        <ele>518.4</ele>
        <time>2023-06-14T16:56:38.498Z</time>
      </trkpt>
      <trkpt lat="44.82957" lon="4.61652">
        <ele>518.4</ele>
        <time>2023-06-14T16:56:38.498Z</time>
      </trkpt>
      <trkpt lat="44.82957" lon="4.61651">
        <ele>518.4</ele>
        <time>2023-06-14T16:56:38.810Z</time>
      </trkpt>
      <trkpt lat="44.82957" lon="4.61651">
        <ele>518.4</ele>
        <time>2023-06-14T16:56:38.810Z</time>
      </trkpt>
      <trkpt lat="44.82957" lon="4.6165">
        <ele>518.4</ele>
        <time>2023-06-14T16:56:39.127Z</time>
      </trkpt>
      <trkpt lat="44.82957" lon="4.6165">
        <ele>518.4</ele>
        <time>2023-06-14T16:56:39.127Z</time>
      </trkpt>
      <trkpt lat="44.82957" lon="4.61651">
        <ele>518.4</ele>
        <time>2023-06-14T16:56:39.444Z</time>
      </trkpt>
      <trkpt lat="44.82957" lon="4.61651">
        <ele>518.4</ele>
        <time>2023-06-14T16:56:39.444Z</time>
      </trkpt>
      <trkpt lat="44.82957" lon="4.61651">
        <ele>518.4</ele>
        <time>2023-06-14T16:56:39.444Z</time>
      </trkpt>
      <trkpt lat="44.82957" lon="4.61651">
        <ele>518.4</ele>
        <time>2023-06-14T16:56:39.444Z</time>
      </trkpt>
      <trkpt lat="44.82957" lon="4.61651">
        <ele>518.4</ele>
        <time>2023-06-14T16:56:39.444Z</time>
      </trkpt>
      <trkpt lat="44.82958" lon="4.61649">
        <ele>518.1</ele>
        <time>2023-06-14T16:56:40.223Z</time>
      </trkpt>
      <trkpt lat="44.82957" lon="4.61649">
        <ele>518.3</ele>
        <time>2023-06-14T16:56:40.678Z</time>
      </trkpt>
      <trkpt lat="44.82957" lon="4.61649">
        <ele>518.3</ele>
        <time>2023-06-14T16:56:40.678Z</time>
      </trkpt>
      <trkpt lat="44.82957" lon="4.61649">
        <ele>518.3</ele>
        <time>2023-06-14T16:56:40.678Z</time>
      </trkpt>
      <trkpt lat="44.82957" lon="4.61649">
        <ele>518.3</ele>
        <time>2023-06-14T16:56:40.678Z</time>
      </trkpt>
      <trkpt lat="44.82957" lon="4.61649">
        <ele>518.3</ele>
        <time>2023-06-14T16:56:40.678Z</time>
      </trkpt>
      <trkpt lat="44.82956" lon="4.6165">
        <ele>518.6</ele>
        <time>2023-06-14T16:56:41.225Z</time>
      </trkpt>
      <trkpt lat="44.82956" lon="4.6165">
        <ele>518.6</ele>
        <time>2023-06-14T16:56:41.225Z</time>
      </trkpt>
      <trkpt lat="44.82956" lon="4.61651">
        <ele>518.6</ele>
        <time>2023-06-14T16:56:41.542Z</time>
      </trkpt>
      <trkpt lat="44.82956" lon="4.61651">
        <ele>518.6</ele>
        <time>2023-06-14T16:56:41.542Z</time>
      </trkpt>
      <trkpt lat="44.82956" lon="4.61652">
        <ele>518.6</ele>
        <time>2023-06-14T16:56:41.853Z</time>
      </trkpt>
      <trkpt lat="44.8296" lon="4.61651">
        <ele>517.8</ele>
        <time>2023-06-14T16:56:43.683Z</time>
      </trkpt>
      <trkpt lat="44.82962" lon="4.61651">
        <ele>517.3</ele>
        <time>2023-06-14T16:56:44.596Z</time>
      </trkpt>
      <trkpt lat="44.82962" lon="4.61654">
        <ele>517.4</ele>
        <time>2023-06-14T16:56:45.543Z</time>
      </trkpt>
      <trkpt lat="44.82962" lon="4.61654">
        <ele>517.4</ele>
        <time>2023-06-14T16:56:45.543Z</time>
      </trkpt>
      <trkpt lat="44.82962" lon="4.61657">
        <ele>517.5</ele>
        <time>2023-06-14T16:56:46.490Z</time>
      </trkpt>
      <trkpt lat="44.82963" lon="4.61657">
        <ele>517.3</ele>
        <time>2023-06-14T16:56:46.937Z</time>
      </trkpt>
      <trkpt lat="44.82962" lon="4.61658">
        <ele>517.5</ele>
        <time>2023-06-14T16:56:47.483Z</time>
      </trkpt>
      <trkpt lat="44.82961" lon="4.61658">
        <ele>517.7</ele>
        <time>2023-06-14T16:56:47.943Z</time>
      </trkpt>
      <trkpt lat="44.82961" lon="4.61659">
        <ele>517.8</ele>
        <time>2023-06-14T16:56:48.261Z</time>
      </trkpt>
      <trkpt lat="44.8296" lon="4.61659">
        <ele>518</ele>
        <time>2023-06-14T16:56:48.715Z</time>
      </trkpt>
      <trkpt lat="44.82959" lon="4.61659">
        <ele>518.2</ele>
        <time>2023-06-14T16:56:49.162Z</time>
      </trkpt>
      <trkpt lat="44.82957" lon="4.61659">
        <ele>518.6</ele>
        <time>2023-06-14T16:56:50.070Z</time>
      </trkpt>
      <trkpt lat="44.82954" lon="4.61653">
        <ele>519</ele>
        <time>2023-06-14T16:56:52.393Z</time>
      </trkpt>
      <trkpt lat="44.82954" lon="4.61652">
        <ele>519</ele>
        <time>2023-06-14T16:56:52.710Z</time>
      </trkpt>
      <trkpt lat="44.82951" lon="4.61649">
        <ele>519.5</ele>
        <time>2023-06-14T16:56:54.351Z</time>
      </trkpt>
      <trkpt lat="44.8295" lon="4.61649">
        <ele>519.7</ele>
        <time>2023-06-14T16:56:54.805Z</time>
      </trkpt>
      <trkpt lat="44.82949" lon="4.61648">
        <ele>519.9</ele>
        <time>2023-06-14T16:56:55.358Z</time>
      </trkpt>
      <trkpt lat="44.82948" lon="4.61648">
        <ele>520.1</ele>
        <time>2023-06-14T16:56:55.804Z</time>
      </trkpt>
      <trkpt lat="44.82943" lon="4.61649">
        <ele>521.2</ele>
        <time>2023-06-14T16:56:58.098Z</time>
      </trkpt>
      <trkpt lat="44.82942" lon="4.61649">
        <ele>521.4</ele>
        <time>2023-06-14T16:56:58.544Z</time>
      </trkpt>
      <trkpt lat="44.82937" lon="4.61649">
        <ele>522.4</ele>
        <time>2023-06-14T16:57:00.809Z</time>
      </trkpt>
      <trkpt lat="44.82932" lon="4.61648">
        <ele>523.4</ele>
        <time>2023-06-14T16:57:03.090Z</time>
      </trkpt>
      <trkpt lat="44.82926" lon="4.61644">
        <ele>524.5</ele>
        <time>2023-06-14T16:57:06.076Z</time>
      </trkpt>
      <trkpt lat="44.82925" lon="4.61643">
        <ele>524.7</ele>
        <time>2023-06-14T16:57:06.619Z</time>
      </trkpt>
      <trkpt lat="44.82924" lon="4.61641">
        <ele>524.8</ele>
        <time>2023-06-14T16:57:07.399Z</time>
      </trkpt>
      <trkpt lat="44.82921" lon="4.61637">
        <ele>525.4</ele>
        <time>2023-06-14T16:57:09.244Z</time>
      </trkpt>
      <trkpt lat="44.82917" lon="4.61634">
        <ele>526.2</ele>
        <time>2023-06-14T16:57:11.286Z</time>
      </trkpt>
      <trkpt lat="44.82914" lon="4.61631">
        <ele>525.8</ele>
        <time>2023-06-14T16:57:12.928Z</time>
      </trkpt>
      <trkpt lat="44.8291" lon="4.61628">
        <ele>525.2</ele>
        <time>2023-06-14T16:57:14.951Z</time>
      </trkpt>
      <trkpt lat="44.82909" lon="4.61625">
        <ele>525.1</ele>
        <time>2023-06-14T16:57:16.000Z</time>
      </trkpt>
      <trkpt lat="44.82908" lon="4.61621">
        <ele>524.8</ele>
        <time>2023-06-14T16:57:17.344Z</time>
      </trkpt>
      <trkpt lat="44.82905" lon="4.61615">
        <ele>524.3</ele>
        <time>2023-06-14T16:57:19.666Z</time>
      </trkpt>
      <trkpt lat="44.82902" lon="4.61605">
        <ele>523.7</ele>
        <time>2023-06-14T16:57:23.096Z</time>
      </trkpt>
      <trkpt lat="44.829" lon="4.61598">
        <ele>523.3</ele>
        <time>2023-06-14T16:57:25.485Z</time>
      </trkpt>
      <trkpt lat="44.82899" lon="4.61593">
        <ele>523.1</ele>
        <time>2023-06-14T16:57:27.124Z</time>
      </trkpt>
      <trkpt lat="44.82899" lon="4.61591">
        <ele>523.1</ele>
        <time>2023-06-14T16:57:27.754Z</time>
      </trkpt>
      <trkpt lat="44.82899" lon="4.6159">
        <ele>523</ele>
        <time>2023-06-14T16:57:28.071Z</time>
      </trkpt>
      <trkpt lat="44.82898" lon="4.61589">
        <ele>522.9</ele>
        <time>2023-06-14T16:57:28.622Z</time>
      </trkpt>
      <trkpt lat="44.82898" lon="4.61587">
        <ele>522.8</ele>
        <time>2023-06-14T16:57:29.252Z</time>
      </trkpt>
      <trkpt lat="44.82897" lon="4.61583">
        <ele>522.7</ele>
        <time>2023-06-14T16:57:30.594Z</time>
      </trkpt>
      <trkpt lat="44.82894" lon="4.61571">
        <ele>522.4</ele>
        <time>2023-06-14T16:57:34.603Z</time>
      </trkpt>
      <trkpt lat="44.82893" lon="4.61569">
        <ele>522.3</ele>
        <time>2023-06-14T16:57:35.376Z</time>
      </trkpt>
      <trkpt lat="44.82893" lon="4.61564">
        <ele>522.4</ele>
        <time>2023-06-14T16:57:36.952Z</time>
      </trkpt>
      <trkpt lat="44.82893" lon="4.61563">
        <ele>522.4</ele>
        <time>2023-06-14T16:57:37.269Z</time>
      </trkpt>
      <trkpt lat="44.82891" lon="4.61556">
        <ele>522.2</ele>
        <time>2023-06-14T16:57:39.650Z</time>
      </trkpt>
      <trkpt lat="44.82889" lon="4.61543">
        <ele>522</ele>
        <time>2023-06-14T16:57:43.848Z</time>
      </trkpt>
      <trkpt lat="44.82889" lon="4.6154">
        <ele>522</ele>
        <time>2023-06-14T16:57:44.795Z</time>
      </trkpt>
      <trkpt lat="44.82889" lon="4.61538">
        <ele>522</ele>
        <time>2023-06-14T16:57:45.423Z</time>
      </trkpt>
      <trkpt lat="44.82889" lon="4.61534">
        <ele>522.1</ele>
        <time>2023-06-14T16:57:46.687Z</time>
      </trkpt>
      <trkpt lat="44.8289" lon="4.61533">
        <ele>522.2</ele>
        <time>2023-06-14T16:57:47.236Z</time>
      </trkpt>
      <trkpt lat="44.8289" lon="4.61529">
        <ele>522.3</ele>
        <time>2023-06-14T16:57:48.500Z</time>
      </trkpt>
      <trkpt lat="44.82889" lon="4.61521">
        <ele>522.2</ele>
        <time>2023-06-14T16:57:51.061Z</time>
      </trkpt>
      <trkpt lat="44.8289" lon="4.61518">
        <ele>522.4</ele>
        <time>2023-06-14T16:57:52.110Z</time>
      </trkpt>
      <trkpt lat="44.8289" lon="4.61517">
        <ele>522.4</ele>
        <time>2023-06-14T16:57:52.428Z</time>
      </trkpt>
      <trkpt lat="44.8289" lon="4.61517">
        <ele>522.4</ele>
        <time>2023-06-14T16:57:52.428Z</time>
      </trkpt>
      <trkpt lat="44.82891" lon="4.6152">
        <ele>522.5</ele>
        <time>2023-06-14T16:57:53.473Z</time>
      </trkpt>
      <trkpt lat="44.82891" lon="4.61522">
        <ele>522.5</ele>
        <time>2023-06-14T16:57:54.107Z</time>
      </trkpt>
      <trkpt lat="44.82892" lon="4.61527">
        <ele>522.6</ele>
        <time>2023-06-14T16:57:55.746Z</time>
      </trkpt>
      <trkpt lat="44.82891" lon="4.61531">
        <ele>522.4</ele>
        <time>2023-06-14T16:57:57.089Z</time>
      </trkpt>
      <trkpt lat="44.82889" lon="4.61537">
        <ele>522.1</ele>
        <time>2023-06-14T16:57:59.179Z</time>
      </trkpt>
      <trkpt lat="44.82886" lon="4.61544">
        <ele>521.6</ele>
        <time>2023-06-14T16:58:01.768Z</time>
      </trkpt>
      <trkpt lat="44.82885" lon="4.61546">
        <ele>521.4</ele>
        <time>2023-06-14T16:58:02.542Z</time>
      </trkpt>
      <trkpt lat="44.82879" lon="4.61552">
        <ele>520.6</ele>
        <time>2023-06-14T16:58:05.825Z</time>
      </trkpt>
      <trkpt lat="44.82873" lon="4.6156">
        <ele>519.7</ele>
        <time>2023-06-14T16:58:09.512Z</time>
      </trkpt>
      <trkpt lat="44.8287" lon="4.61565">
        <ele>519.4</ele>
        <time>2023-06-14T16:58:11.586Z</time>
      </trkpt>
      <trkpt lat="44.82869" lon="4.61568">
        <ele>519.2</ele>
        <time>2023-06-14T16:58:12.634Z</time>
      </trkpt>
      <trkpt lat="44.82865" lon="4.61573">
        <ele>518.8</ele>
        <time>2023-06-14T16:58:15.020Z</time>
      </trkpt>
      <trkpt lat="44.82859" lon="4.6158">
        <ele>518.1</ele>
        <time>2023-06-14T16:58:18.491Z</time>
      </trkpt>
      <trkpt lat="44.82858" lon="4.61584">
        <ele>518</ele>
        <time>2023-06-14T16:58:19.827Z</time>
      </trkpt>
      <trkpt lat="44.82856" lon="4.61585">
        <ele>517.8</ele>
        <time>2023-06-14T16:58:20.773Z</time>
      </trkpt>
      <trkpt lat="44.82854" lon="4.61588">
        <ele>517.6</ele>
        <time>2023-06-14T16:58:22.077Z</time>
      </trkpt>
      <trkpt lat="44.82854" lon="4.61591">
        <ele>517.6</ele>
        <time>2023-06-14T16:58:23.024Z</time>
      </trkpt>
      <trkpt lat="44.82854" lon="4.61593">
        <ele>517.6</ele>
        <time>2023-06-14T16:58:23.653Z</time>
      </trkpt>
      <trkpt lat="44.82855" lon="4.61603">
        <ele>517.9</ele>
        <time>2023-06-14T16:58:26.843Z</time>
      </trkpt>
      <trkpt lat="44.82854" lon="4.6161">
        <ele>517.9</ele>
        <time>2023-06-14T16:58:29.093Z</time>
      </trkpt>
      <trkpt lat="44.82847" lon="4.61616">
        <ele>517.1</ele>
        <time>2023-06-14T16:58:32.746Z</time>
      </trkpt>
      <trkpt lat="44.8284" lon="4.61626">
        <ele>516.4</ele>
        <time>2023-06-14T16:58:37.191Z</time>
      </trkpt>
      <trkpt lat="44.82838" lon="4.6164">
        <ele>516.3</ele>
        <time>2023-06-14T16:58:41.694Z</time>
      </trkpt>
      <trkpt lat="44.82838" lon="4.61647">
        <ele>516.4</ele>
        <time>2023-06-14T16:58:43.899Z</time>
      </trkpt>
      <trkpt lat="44.82843" lon="4.6167">
        <ele>517.4</ele>
        <time>2023-06-14T16:58:51.496Z</time>
      </trkpt>
      <trkpt lat="44.82845" lon="4.61686">
        <ele>518.5</ele>
        <time>2023-06-14T16:58:56.641Z</time>
      </trkpt>
      <trkpt lat="44.82845" lon="4.61689">
        <ele>518.6</ele>
        <time>2023-06-14T16:58:57.589Z</time>
      </trkpt>
      <trkpt lat="44.82842" lon="4.61702">
        <ele>518.9</ele>
        <time>2023-06-14T16:59:01.899Z</time>
      </trkpt>
      <trkpt lat="44.82841" lon="4.61705">
        <ele>518.9</ele>
        <time>2023-06-14T16:59:02.942Z</time>
      </trkpt>
      <trkpt lat="44.82839" lon="4.61709">
        <ele>518.8</ele>
        <time>2023-06-14T16:59:04.491Z</time>
      </trkpt>
      <trkpt lat="44.82837" lon="4.61714">
        <ele>518.8</ele>
        <time>2023-06-14T16:59:06.299Z</time>
      </trkpt>
      <trkpt lat="44.82837" lon="4.61715">
        <ele>518.9</ele>
        <time>2023-06-14T16:59:06.617Z</time>
      </trkpt>
      <trkpt lat="44.82833" lon="4.61714">
        <ele>518.1</ele>
        <time>2023-06-14T16:59:08.443Z</time>
      </trkpt>
      <trkpt lat="44.82833" lon="4.61711">
        <ele>518</ele>
        <time>2023-06-14T16:59:09.390Z</time>
      </trkpt>
      <trkpt lat="44.82833" lon="4.61709">
        <ele>517.9</ele>
        <time>2023-06-14T16:59:10.021Z</time>
      </trkpt>
      <trkpt lat="44.82833" lon="4.61709">
        <ele>517.9</ele>
        <time>2023-06-14T16:59:10.021Z</time>
      </trkpt>
      <trkpt lat="44.82833" lon="4.61709">
        <ele>517.9</ele>
        <time>2023-06-14T16:59:10.021Z</time>
      </trkpt>
      <trkpt lat="44.82831" lon="4.6171">
        <ele>517.2</ele>
        <time>2023-06-14T16:59:11.009Z</time>
      </trkpt>
      <trkpt lat="44.82831" lon="4.61708">
        <ele>517</ele>
        <time>2023-06-14T16:59:11.640Z</time>
      </trkpt>
      <trkpt lat="44.82831" lon="4.61705">
        <ele>516.9</ele>
        <time>2023-06-14T16:59:12.588Z</time>
      </trkpt>
      <trkpt lat="44.82831" lon="4.61702">
        <ele>516.8</ele>
        <time>2023-06-14T16:59:13.536Z</time>
      </trkpt>
      <trkpt lat="44.82831" lon="4.61698">
        <ele>516.6</ele>
        <time>2023-06-14T16:59:14.803Z</time>
      </trkpt>
      <trkpt lat="44.8283" lon="4.61683">
        <ele>515.3</ele>
        <time>2023-06-14T16:59:19.575Z</time>
      </trkpt>
      <trkpt lat="44.82832" lon="4.61666">
        <ele>515.4</ele>
        <time>2023-06-14T16:59:25.009Z</time>
      </trkpt>
      <trkpt lat="44.82832" lon="4.61645">
        <ele>515.1</ele>
        <time>2023-06-14T16:59:31.634Z</time>
      </trkpt>
      <trkpt lat="44.82833" lon="4.61629">
        <ele>515.4</ele>
        <time>2023-06-14T16:59:36.704Z</time>
      </trkpt>
      <trkpt lat="44.82833" lon="4.61627">
        <ele>515.4</ele>
        <time>2023-06-14T16:59:37.334Z</time>
      </trkpt>
      <trkpt lat="44.82832" lon="4.61622">
        <ele>514.9</ele>
        <time>2023-06-14T16:59:38.984Z</time>
      </trkpt>
      <trkpt lat="44.8283" lon="4.61608">
        <ele>513.8</ele>
        <time>2023-06-14T16:59:43.507Z</time>
      </trkpt>
      <trkpt lat="44.8283" lon="4.61604">
        <ele>513.8</ele>
        <time>2023-06-14T16:59:44.771Z</time>
      </trkpt>
      <trkpt lat="44.82829" lon="4.6159">
        <ele>513.1</ele>
        <time>2023-06-14T16:59:49.215Z</time>
      </trkpt>
      <trkpt lat="44.82828" lon="4.61583">
        <ele>512.6</ele>
        <time>2023-06-14T16:59:51.481Z</time>
      </trkpt>
      <trkpt lat="44.82829" lon="4.61571">
        <ele>512.8</ele>
        <time>2023-06-14T16:59:55.288Z</time>
      </trkpt>
      <trkpt lat="44.82829" lon="4.61571">
        <ele>512.8</ele>
        <time>2023-06-14T16:59:55.288Z</time>
      </trkpt>
      <trkpt lat="44.82828" lon="4.61558">
        <ele>512.1</ele>
        <time>2023-06-14T16:59:59.426Z</time>
      </trkpt>
      <trkpt lat="44.82826" lon="4.61539">
        <ele>510.8</ele>
        <time>2023-06-14T17:00:05.502Z</time>
      </trkpt>
      <trkpt lat="44.82824" lon="4.61532">
        <ele>509.8</ele>
        <time>2023-06-14T17:00:07.917Z</time>
      </trkpt>
      <trkpt lat="44.82821" lon="4.6152">
        <ele>508.2</ele>
        <time>2023-06-14T17:00:11.983Z</time>
      </trkpt>
      <trkpt lat="44.82817" lon="4.61505">
        <ele>506.3</ele>
        <time>2023-06-14T17:00:17.092Z</time>
      </trkpt>
      <trkpt lat="44.82816" lon="4.61503">
        <ele>505.8</ele>
        <time>2023-06-14T17:00:17.890Z</time>
      </trkpt>
      <trkpt lat="44.82812" lon="4.61484">
        <ele>503.9</ele>
        <time>2023-06-14T17:00:24.182Z</time>
      </trkpt>
      <trkpt lat="44.82814" lon="4.61467">
        <ele>504.5</ele>
        <time>2023-06-14T17:00:29.622Z</time>
      </trkpt>
      <trkpt lat="44.82815" lon="4.61461">
        <ele>504.9</ele>
        <time>2023-06-14T17:00:31.572Z</time>
      </trkpt>
      <trkpt lat="44.82816" lon="4.61457">
        <ele>505.2</ele>
        <time>2023-06-14T17:00:32.917Z</time>
      </trkpt>
      <trkpt lat="44.82816" lon="4.61457">
        <ele>505.2</ele>
        <time>2023-06-14T17:00:32.917Z</time>
      </trkpt>
      <trkpt lat="44.82815" lon="4.61456">
        <ele>504.8</ele>
        <time>2023-06-14T17:00:33.483Z</time>
      </trkpt>
      <trkpt lat="44.82815" lon="4.61455">
        <ele>504.8</ele>
        <time>2023-06-14T17:00:33.800Z</time>
      </trkpt>
      <trkpt lat="44.82814" lon="4.61452">
        <ele>504.4</ele>
        <time>2023-06-14T17:00:34.862Z</time>
      </trkpt>
      <trkpt lat="44.82814" lon="4.61452">
        <ele>504.4</ele>
        <time>2023-06-14T17:00:34.862Z</time>
      </trkpt>
      <trkpt lat="44.82814" lon="4.61453">
        <ele>504.4</ele>
        <time>2023-06-14T17:00:35.179Z</time>
      </trkpt>
      <trkpt lat="44.82813" lon="4.61455">
        <ele>504</ele>
        <time>2023-06-14T17:00:35.962Z</time>
      </trkpt>
      <trkpt lat="44.82812" lon="4.61461">
        <ele>503.6</ele>
        <time>2023-06-14T17:00:37.912Z</time>
      </trkpt>
      <trkpt lat="44.82807" lon="4.61475">
        <ele>501.6</ele>
        <time>2023-06-14T17:00:42.920Z</time>
      </trkpt>
      <trkpt lat="44.82805" lon="4.61479">
        <ele>500.9</ele>
        <time>2023-06-14T17:00:44.498Z</time>
      </trkpt>
      <trkpt lat="44.82803" lon="4.61485">
        <ele>500.1</ele>
        <time>2023-06-14T17:00:46.610Z</time>
      </trkpt>
      <trkpt lat="44.82802" lon="4.61486">
        <ele>499.7</ele>
        <time>2023-06-14T17:00:47.178Z</time>
      </trkpt>
      <trkpt lat="44.82802" lon="4.61486">
        <ele>499.7</ele>
        <time>2023-06-14T17:00:47.178Z</time>
      </trkpt>
      <trkpt lat="44.82801" lon="4.61487">
        <ele>499.3</ele>
        <time>2023-06-14T17:00:47.743Z</time>
      </trkpt>
      <trkpt lat="44.828" lon="4.61487">
        <ele>498.9</ele>
        <time>2023-06-14T17:00:48.219Z</time>
      </trkpt>
      <trkpt lat="44.828" lon="4.61486">
        <ele>498.9</ele>
        <time>2023-06-14T17:00:48.536Z</time>
      </trkpt>
      <trkpt lat="44.828" lon="4.61486">
        <ele>498.9</ele>
        <time>2023-06-14T17:00:48.536Z</time>
      </trkpt>
      <trkpt lat="44.82799" lon="4.61485">
        <ele>498.5</ele>
        <time>2023-06-14T17:00:49.107Z</time>
      </trkpt>
      <trkpt lat="44.82799" lon="4.61484">
        <ele>498.4</ele>
        <time>2023-06-14T17:00:49.424Z</time>
      </trkpt>
      <trkpt lat="44.82798" lon="4.61483">
        <ele>498</ele>
        <time>2023-06-14T17:00:49.991Z</time>
      </trkpt>
      <trkpt lat="44.82797" lon="4.61479">
        <ele>497.6</ele>
        <time>2023-06-14T17:00:51.339Z</time>
      </trkpt>
      <trkpt lat="44.82797" lon="4.61479">
        <ele>497.6</ele>
        <time>2023-06-14T17:00:51.339Z</time>
      </trkpt>
      <trkpt lat="44.82797" lon="4.61479">
        <ele>497.6</ele>
        <time>2023-06-14T17:00:51.339Z</time>
      </trkpt>
      <trkpt lat="44.82796" lon="4.61478">
        <ele>497.1</ele>
        <time>2023-06-14T17:00:51.913Z</time>
      </trkpt>
      <trkpt lat="44.82795" lon="4.61477">
        <ele>496.7</ele>
        <time>2023-06-14T17:00:52.481Z</time>
      </trkpt>
      <trkpt lat="44.82793" lon="4.61476">
        <ele>495.8</ele>
        <time>2023-06-14T17:00:53.506Z</time>
      </trkpt>
      <trkpt lat="44.82792" lon="4.61476">
        <ele>495.3</ele>
        <time>2023-06-14T17:00:53.975Z</time>
      </trkpt>
      <trkpt lat="44.82792" lon="4.61477">
        <ele>495.4</ele>
        <time>2023-06-14T17:00:54.287Z</time>
      </trkpt>
      <trkpt lat="44.82791" lon="4.61481">
        <ele>495</ele>
        <time>2023-06-14T17:00:55.635Z</time>
      </trkpt>
      <trkpt lat="44.82791" lon="4.61483">
        <ele>495</ele>
        <time>2023-06-14T17:00:56.264Z</time>
      </trkpt>
      <trkpt lat="44.82791" lon="4.61484">
        <ele>495</ele>
        <time>2023-06-14T17:00:56.581Z</time>
      </trkpt>
      <trkpt lat="44.82789" lon="4.61487">
        <ele>494.3</ele>
        <time>2023-06-14T17:00:57.915Z</time>
      </trkpt>
      <trkpt lat="44.82789" lon="4.61487">
        <ele>494.3</ele>
        <time>2023-06-14T17:00:57.915Z</time>
      </trkpt>
      <trkpt lat="44.82786" lon="4.61485">
        <ele>493</ele>
        <time>2023-06-14T17:00:59.474Z</time>
      </trkpt>
      <trkpt lat="44.82786" lon="4.61484">
        <ele>493</ele>
        <time>2023-06-14T17:00:59.791Z</time>
      </trkpt>
      <trkpt lat="44.82786" lon="4.61484">
        <ele>493</ele>
        <time>2023-06-14T17:00:59.791Z</time>
      </trkpt>
      <trkpt lat="44.82786" lon="4.61483">
        <ele>493</ele>
        <time>2023-06-14T17:01:00.108Z</time>
      </trkpt>
      <trkpt lat="44.82786" lon="4.61483">
        <ele>493</ele>
        <time>2023-06-14T17:01:00.108Z</time>
      </trkpt>
      <trkpt lat="44.82787" lon="4.61483">
        <ele>493.4</ele>
        <time>2023-06-14T17:01:00.585Z</time>
      </trkpt>
      <trkpt lat="44.82787" lon="4.61482">
        <ele>493.4</ele>
        <time>2023-06-14T17:01:00.896Z</time>
      </trkpt>
      <trkpt lat="44.82787" lon="4.61484">
        <ele>493.4</ele>
        <time>2023-06-14T17:01:01.526Z</time>
      </trkpt>
      <trkpt lat="44.82787" lon="4.61484">
        <ele>493.4</ele>
        <time>2023-06-14T17:01:01.526Z</time>
      </trkpt>
      <trkpt lat="44.82786" lon="4.61484">
        <ele>493</ele>
        <time>2023-06-14T17:01:02.002Z</time>
      </trkpt>
      <trkpt lat="44.82785" lon="4.61483">
        <ele>492.6</ele>
        <time>2023-06-14T17:01:02.575Z</time>
      </trkpt>
      <trkpt lat="44.82785" lon="4.61481">
        <ele>492.5</ele>
        <time>2023-06-14T17:01:03.204Z</time>
      </trkpt>
      <trkpt lat="44.82784" lon="4.6148">
        <ele>492.1</ele>
        <time>2023-06-14T17:01:03.773Z</time>
      </trkpt>
      <trkpt lat="44.82784" lon="4.61479">
        <ele>492.1</ele>
        <time>2023-06-14T17:01:04.085Z</time>
      </trkpt>
      <trkpt lat="44.82783" lon="4.61478">
        <ele>491.7</ele>
        <time>2023-06-14T17:01:04.659Z</time>
      </trkpt>
      <trkpt lat="44.82782" lon="4.61479">
        <ele>491.3</ele>
        <time>2023-06-14T17:01:05.230Z</time>
      </trkpt>
      <trkpt lat="44.82779" lon="4.6148">
        <ele>489.9</ele>
        <time>2023-06-14T17:01:06.705Z</time>
      </trkpt>
      <trkpt lat="44.82778" lon="4.6148">
        <ele>489.5</ele>
        <time>2023-06-14T17:01:07.175Z</time>
      </trkpt>
      <trkpt lat="44.82778" lon="4.6148">
        <ele>489.5</ele>
        <time>2023-06-14T17:01:07.175Z</time>
      </trkpt>
      <trkpt lat="44.82778" lon="4.61479">
        <ele>489.5</ele>
        <time>2023-06-14T17:01:07.486Z</time>
      </trkpt>
      <trkpt lat="44.82779" lon="4.61478">
        <ele>489.9</ele>
        <time>2023-06-14T17:01:08.051Z</time>
      </trkpt>
      <trkpt lat="44.8278" lon="4.61478">
        <ele>490.3</ele>
        <time>2023-06-14T17:01:08.528Z</time>
      </trkpt>
      <trkpt lat="44.8278" lon="4.61478">
        <ele>490.3</ele>
        <time>2023-06-14T17:01:08.528Z</time>
      </trkpt>
      <trkpt lat="44.82781" lon="4.61478">
        <ele>490.9</ele>
        <time>2023-06-14T17:01:09.025Z</time>
      </trkpt>
      <trkpt lat="44.82782" lon="4.61478">
        <ele>491.3</ele>
        <time>2023-06-14T17:01:09.495Z</time>
      </trkpt>
      <trkpt lat="44.82781" lon="4.61478">
        <ele>490.9</ele>
        <time>2023-06-14T17:01:09.964Z</time>
      </trkpt>
      <trkpt lat="44.8278" lon="4.61478">
        <ele>490.3</ele>
        <time>2023-06-14T17:01:10.462Z</time>
      </trkpt>
      <trkpt lat="44.8278" lon="4.61479">
        <ele>490.3</ele>
        <time>2023-06-14T17:01:10.779Z</time>
      </trkpt>
      <trkpt lat="44.82779" lon="4.61479">
        <ele>489.9</ele>
        <time>2023-06-14T17:01:11.255Z</time>
      </trkpt>
      <trkpt lat="44.82779" lon="4.61478">
        <ele>489.9</ele>
        <time>2023-06-14T17:01:11.572Z</time>
      </trkpt>
      <trkpt lat="44.8278" lon="4.61478">
        <ele>490.3</ele>
        <time>2023-06-14T17:01:12.049Z</time>
      </trkpt>
      <trkpt lat="44.8278" lon="4.61478">
        <ele>490.3</ele>
        <time>2023-06-14T17:01:12.049Z</time>
      </trkpt>
      <trkpt lat="44.82781" lon="4.61479">
        <ele>490.9</ele>
        <time>2023-06-14T17:01:12.642Z</time>
      </trkpt>
      <trkpt lat="44.82782" lon="4.61478">
        <ele>491.3</ele>
        <time>2023-06-14T17:01:13.206Z</time>
      </trkpt>
      <trkpt lat="44.82781" lon="4.61477">
        <ele>490.8</ele>
        <time>2023-06-14T17:01:13.775Z</time>
      </trkpt>
      <trkpt lat="44.8278" lon="4.61478">
        <ele>490.3</ele>
        <time>2023-06-14T17:01:12.049Z</time>
      </trkpt>
      <trkpt lat="44.8278" lon="4.61478">
        <ele>490.3</ele>
        <time>2023-06-14T17:01:12.049Z</time>
      </trkpt>
      <trkpt lat="44.82781" lon="4.61479">
        <ele>490.9</ele>
        <time>2023-06-14T17:01:12.642Z</time>
      </trkpt>
      <trkpt lat="44.82782" lon="4.61478">
        <ele>491.3</ele>
        <time>2023-06-14T17:01:13.206Z</time>
      </trkpt>
      <trkpt lat="44.82781" lon="4.61477">
        <ele>490.8</ele>
        <time>2023-06-14T17:01:13.775Z</time>
      </trkpt>
      <trkpt lat="44.8278" lon="4.61474">
        <ele>490.3</ele>
        <time>2023-06-14T17:01:14.847Z</time>
      </trkpt>
      <trkpt lat="44.8278" lon="4.61474">
        <ele>490.3</ele>
        <time>2023-06-14T17:01:14.847Z</time>
      </trkpt>
      <trkpt lat="44.82779" lon="4.61474">
        <ele>489.9</ele>
        <time>2023-06-14T17:01:15.323Z</time>
      </trkpt>
      <trkpt lat="44.8278" lon="4.61474">
        <ele>490.3</ele>
        <time>2023-06-14T17:01:15.799Z</time>
      </trkpt>
      <trkpt lat="44.8278" lon="4.61474">
        <ele>490.3</ele>
        <time>2023-06-14T17:01:15.799Z</time>
      </trkpt>
      <trkpt lat="44.8278" lon="4.61474">
        <ele>490.3</ele>
        <time>2023-06-14T17:01:15.799Z</time>
      </trkpt>
      <trkpt lat="44.82782" lon="4.61476">
        <ele>491.2</ele>
        <time>2023-06-14T17:01:16.957Z</time>
      </trkpt>
      <trkpt lat="44.8278" lon="4.61477">
        <ele>490.3</ele>
        <time>2023-06-14T17:01:17.970Z</time>
      </trkpt>
      <trkpt lat="44.82778" lon="4.6148">
        <ele>489.5</ele>
        <time>2023-06-14T17:01:19.305Z</time>
      </trkpt>
      <trkpt lat="44.82778" lon="4.6148">
        <ele>489.5</ele>
        <time>2023-06-14T17:01:19.305Z</time>
      </trkpt>
      <trkpt lat="44.82779" lon="4.61481">
        <ele>489.9</ele>
        <time>2023-06-14T17:01:19.874Z</time>
      </trkpt>
      <trkpt lat="44.82779" lon="4.61482">
        <ele>489.9</ele>
        <time>2023-06-14T17:01:20.191Z</time>
      </trkpt>
      <trkpt lat="44.82779" lon="4.61482">
        <ele>489.9</ele>
        <time>2023-06-14T17:01:20.191Z</time>
      </trkpt>
      <trkpt lat="44.8278" lon="4.61482">
        <ele>490.4</ele>
        <time>2023-06-14T17:01:20.667Z</time>
      </trkpt>
      <trkpt lat="44.82777" lon="4.61482">
        <ele>489.1</ele>
        <time>2023-06-14T17:01:22.090Z</time>
      </trkpt>
      <trkpt lat="44.82777" lon="4.61481">
        <ele>489.1</ele>
        <time>2023-06-14T17:01:22.407Z</time>
      </trkpt>
      <trkpt lat="44.82776" lon="4.61482">
        <ele>488.7</ele>
        <time>2023-06-14T17:01:22.978Z</time>
      </trkpt>
      <trkpt lat="44.82776" lon="4.61481">
        <ele>488.7</ele>
        <time>2023-06-14T17:01:23.295Z</time>
      </trkpt>
      <trkpt lat="44.82776" lon="4.6148">
        <ele>488.7</ele>
        <time>2023-06-14T17:01:23.612Z</time>
      </trkpt>
      <trkpt lat="44.82777" lon="4.61479">
        <ele>489.1</ele>
        <time>2023-06-14T17:01:24.181Z</time>
      </trkpt>
      <trkpt lat="44.82777" lon="4.61479">
        <ele>489.1</ele>
        <time>2023-06-14T17:01:24.181Z</time>
      </trkpt>
      <trkpt lat="44.82775" lon="4.6148">
        <ele>488.3</ele>
        <time>2023-06-14T17:01:25.177Z</time>
      </trkpt>
      <trkpt lat="44.82776" lon="4.61482">
        <ele>488.7</ele>
        <time>2023-06-14T17:01:25.969Z</time>
      </trkpt>
      <trkpt lat="44.82774" lon="4.61484">
        <ele>487.9</ele>
        <time>2023-06-14T17:01:27.103Z</time>
      </trkpt>
      <trkpt lat="44.82771" lon="4.61487">
        <ele>486.7</ele>
        <time>2023-06-14T17:01:28.806Z</time>
      </trkpt>
      <trkpt lat="44.82769" lon="4.61484">
        <ele>485.9</ele>
        <time>2023-06-14T17:01:30.149Z</time>
      </trkpt>
      <trkpt lat="44.82767" lon="4.61477">
        <ele>485</ele>
        <time>2023-06-14T17:01:32.557Z</time>
      </trkpt>
      <trkpt lat="44.82765" lon="4.61475">
        <ele>484</ele>
        <time>2023-06-14T17:01:33.720Z</time>
      </trkpt>
      <trkpt lat="44.82764" lon="4.61475">
        <ele>483.6</ele>
        <time>2023-06-14T17:01:34.190Z</time>
      </trkpt>
      <trkpt lat="44.82762" lon="4.61474">
        <ele>482.7</ele>
        <time>2023-06-14T17:01:35.194Z</time>
      </trkpt>
      <trkpt lat="44.8276" lon="4.61473">
        <ele>481.9</ele>
        <time>2023-06-14T17:01:36.192Z</time>
      </trkpt>
      <trkpt lat="44.82756" lon="4.61472">
        <ele>480.3</ele>
        <time>2023-06-14T17:01:38.119Z</time>
      </trkpt>
      <trkpt lat="44.82753" lon="4.61471">
        <ele>478.9</ele>
        <time>2023-06-14T17:01:39.598Z</time>
      </trkpt>
      <trkpt lat="44.82748" lon="4.6147">
        <ele>476.8</ele>
        <time>2023-06-14T17:01:41.990Z</time>
      </trkpt>
      <trkpt lat="44.82745" lon="4.61466">
        <ele>475.5</ele>
        <time>2023-06-14T17:01:43.899Z</time>
      </trkpt>
      <trkpt lat="44.82743" lon="4.61463">
        <ele>474.6</ele>
        <time>2023-06-14T17:01:45.241Z</time>
      </trkpt>
      <trkpt lat="44.82741" lon="4.61452">
        <ele>473.8</ele>
        <time>2023-06-14T17:01:48.837Z</time>
      </trkpt>
      <trkpt lat="44.82741" lon="4.61439">
        <ele>473.8</ele>
        <time>2023-06-14T17:01:52.934Z</time>
      </trkpt>
      <trkpt lat="44.8274" lon="4.61435">
        <ele>473.4</ele>
        <time>2023-06-14T17:01:54.284Z</time>
      </trkpt>
      <trkpt lat="44.82737" lon="4.61422">
        <ele>472.1</ele>
        <time>2023-06-14T17:01:58.627Z</time>
      </trkpt>
      <trkpt lat="44.82736" lon="4.61418">
        <ele>471.8</ele>
        <time>2023-06-14T17:01:59.970Z</time>
      </trkpt>
      <trkpt lat="44.82734" lon="4.6141">
        <ele>471.1</ele>
        <time>2023-06-14T17:02:02.657Z</time>
      </trkpt>
      <trkpt lat="44.82729" lon="4.61398">
        <ele>469.4</ele>
        <time>2023-06-14T17:02:07.097Z</time>
      </trkpt>
      <trkpt lat="44.82723" lon="4.6139">
        <ele>467.3</ele>
        <time>2023-06-14T17:02:10.869Z</time>
      </trkpt>
      <trkpt lat="44.82717" lon="4.61382">
        <ele>465.3</ele>
        <time>2023-06-14T17:02:14.631Z</time>
      </trkpt>
      <trkpt lat="44.82715" lon="4.61379">
        <ele>464.6</ele>
        <time>2023-06-14T17:02:15.955Z</time>
      </trkpt>
      <trkpt lat="44.82712" lon="4.61375">
        <ele>463.6</ele>
        <time>2023-06-14T17:02:17.830Z</time>
      </trkpt>
      <trkpt lat="44.82709" lon="4.61371">
        <ele>462.5</ele>
        <time>2023-06-14T17:02:19.718Z</time>
      </trkpt>
      <trkpt lat="44.82707" lon="4.61362">
        <ele>462</ele>
        <time>2023-06-14T17:02:22.702Z</time>
      </trkpt>
      <trkpt lat="44.82706" lon="4.61361">
        <ele>461.7</ele>
        <time>2023-06-14T17:02:23.256Z</time>
      </trkpt>
      <trkpt lat="44.82702" lon="4.61366">
        <ele>460.2</ele>
        <time>2023-06-14T17:02:25.705Z</time>
      </trkpt>
      <trkpt lat="44.82701" lon="4.61367">
        <ele>459.9</ele>
        <time>2023-06-14T17:02:26.273Z</time>
      </trkpt>
      <trkpt lat="44.82698" lon="4.61366">
        <ele>458.9</ele>
        <time>2023-06-14T17:02:27.702Z</time>
      </trkpt>
      <trkpt lat="44.82697" lon="4.61365">
        <ele>458.5</ele>
        <time>2023-06-14T17:02:28.270Z</time>
      </trkpt>
      <trkpt lat="44.82697" lon="4.61365">
        <ele>458.5</ele>
        <time>2023-06-14T17:02:28.270Z</time>
      </trkpt>
      <trkpt lat="44.82697" lon="4.61365">
        <ele>458.5</ele>
        <time>2023-06-14T17:02:28.270Z</time>
      </trkpt>
      <trkpt lat="44.82696" lon="4.61367">
        <ele>458.1</ele>
        <time>2023-06-14T17:02:29.063Z</time>
      </trkpt>
      <trkpt lat="44.82695" lon="4.61365">
        <ele>457.8</ele>
        <time>2023-06-14T17:02:29.843Z</time>
      </trkpt>
      <trkpt lat="44.82694" lon="4.61365">
        <ele>457.4</ele>
        <time>2023-06-14T17:02:30.311Z</time>
      </trkpt>
      <trkpt lat="44.82695" lon="4.61364">
        <ele>457.8</ele>
        <time>2023-06-14T17:02:30.877Z</time>
      </trkpt>
      <trkpt lat="44.82696" lon="4.61363">
        <ele>458.2</ele>
        <time>2023-06-14T17:02:31.439Z</time>
      </trkpt>
      <trkpt lat="44.82696" lon="4.6136">
        <ele>458.2</ele>
        <time>2023-06-14T17:02:32.386Z</time>
      </trkpt>
      <trkpt lat="44.82695" lon="4.61357">
        <ele>458</ele>
        <time>2023-06-14T17:02:33.436Z</time>
      </trkpt>
      <trkpt lat="44.82693" lon="4.61357">
        <ele>457.3</ele>
        <time>2023-06-14T17:02:34.370Z</time>
      </trkpt>
      <trkpt lat="44.82692" lon="4.61357">
        <ele>456.9</ele>
        <time>2023-06-14T17:02:34.830Z</time>
      </trkpt>
      <trkpt lat="44.82684" lon="4.61353">
        <ele>454.4</ele>
        <time>2023-06-14T17:02:38.750Z</time>
      </trkpt>
      <trkpt lat="44.82682" lon="4.61352">
        <ele>453.6</ele>
        <time>2023-06-14T17:02:39.737Z</time>
      </trkpt>
      <trkpt lat="44.8268" lon="4.61351">
        <ele>453</ele>
        <time>2023-06-14T17:02:40.712Z</time>
      </trkpt>
      <trkpt lat="44.82679" lon="4.6135">
        <ele>452.7</ele>
        <time>2023-06-14T17:02:41.273Z</time>
      </trkpt>
      <trkpt lat="44.82676" lon="4.61348">
        <ele>451.7</ele>
        <time>2023-06-14T17:02:42.798Z</time>
      </trkpt>
      <trkpt lat="44.82675" lon="4.61347">
        <ele>451.4</ele>
        <time>2023-06-14T17:02:43.355Z</time>
      </trkpt>
      <trkpt lat="44.82674" lon="4.61348">
        <ele>451</ele>
        <time>2023-06-14T17:02:43.916Z</time>
      </trkpt>
      <trkpt lat="44.82672" lon="4.61348">
        <ele>450.4</ele>
        <time>2023-06-14T17:02:44.842Z</time>
      </trkpt>
      <trkpt lat="44.8267" lon="4.61353">
        <ele>449.5</ele>
        <time>2023-06-14T17:02:46.685Z</time>
      </trkpt>
      <trkpt lat="44.82669" lon="4.61355">
        <ele>449</ele>
        <time>2023-06-14T17:02:47.482Z</time>
      </trkpt>
      <trkpt lat="44.82668" lon="4.6136">
        <ele>448.5</ele>
        <time>2023-06-14T17:02:49.133Z</time>
      </trkpt>
      <trkpt lat="44.82667" lon="4.61363">
        <ele>448.1</ele>
        <time>2023-06-14T17:02:50.194Z</time>
      </trkpt>
      <trkpt lat="44.82666" lon="4.61363">
        <ele>447.7</ele>
        <time>2023-06-14T17:02:50.656Z</time>
      </trkpt>
      <trkpt lat="44.82665" lon="4.61362">
        <ele>447.4</ele>
        <time>2023-06-14T17:02:51.224Z</time>
      </trkpt>
      <trkpt lat="44.82661" lon="4.61358">
        <ele>446.1</ele>
        <time>2023-06-14T17:02:53.467Z</time>
      </trkpt>
      <trkpt lat="44.8266" lon="4.61356">
        <ele>445.8</ele>
        <time>2023-06-14T17:02:54.245Z</time>
      </trkpt>
      <trkpt lat="44.82656" lon="4.61348">
        <ele>444.8</ele>
        <time>2023-06-14T17:02:57.361Z</time>
      </trkpt>
      <trkpt lat="44.82656" lon="4.61345">
        <ele>444.9</ele>
        <time>2023-06-14T17:02:58.309Z</time>
      </trkpt>
      <trkpt lat="44.82655" lon="4.61342">
        <ele>444.6</ele>
        <time>2023-06-14T17:02:59.360Z</time>
      </trkpt>
      <trkpt lat="44.82654" lon="4.61341">
        <ele>444.3</ele>
        <time>2023-06-14T17:02:59.916Z</time>
      </trkpt>
      <trkpt lat="44.82653" lon="4.6134">
        <ele>444</ele>
        <time>2023-06-14T17:03:00.475Z</time>
      </trkpt>
      <trkpt lat="44.82651" lon="4.61342">
        <ele>443.3</ele>
        <time>2023-06-14T17:03:01.603Z</time>
      </trkpt>
      <trkpt lat="44.82649" lon="4.61345">
        <ele>442.4</ele>
        <time>2023-06-14T17:03:02.951Z</time>
      </trkpt>
      <trkpt lat="44.82648" lon="4.61349">
        <ele>441.8</ele>
        <time>2023-06-14T17:03:04.311Z</time>
      </trkpt>
      <trkpt lat="44.82647" lon="4.61353">
        <ele>441.2</ele>
        <time>2023-06-14T17:03:05.668Z</time>
      </trkpt>
      <trkpt lat="44.82645" lon="4.61361">
        <ele>440</ele>
        <time>2023-06-14T17:03:08.392Z</time>
      </trkpt>
      <trkpt lat="44.82643" lon="4.61369">
        <ele>438.7</ele>
        <time>2023-06-14T17:03:11.114Z</time>
      </trkpt>
      <trkpt lat="44.8264" lon="4.61375">
        <ele>436.9</ele>
        <time>2023-06-14T17:03:13.532Z</time>
      </trkpt>
      <trkpt lat="44.82637" lon="4.61374">
        <ele>435.9</ele>
        <time>2023-06-14T17:03:14.968Z</time>
      </trkpt>
      <trkpt lat="44.82636" lon="4.61372">
        <ele>435.7</ele>
        <time>2023-06-14T17:03:15.743Z</time>
      </trkpt>
      <trkpt lat="44.82631" lon="4.61361">
        <ele>434.7</ele>
        <time>2023-06-14T17:03:19.881Z</time>
      </trkpt>
      <trkpt lat="44.82626" lon="4.61353">
        <ele>433.5</ele>
        <time>2023-06-14T17:03:23.281Z</time>
      </trkpt>
      <trkpt lat="44.82625" lon="4.6135">
        <ele>433.5</ele>
        <time>2023-06-14T17:03:24.328Z</time>
      </trkpt>
      <trkpt lat="44.82623" lon="4.61346">
        <ele>433.2</ele>
        <time>2023-06-14T17:03:25.873Z</time>
      </trkpt>
      <trkpt lat="44.8262" lon="4.61339">
        <ele>432.8</ele>
        <time>2023-06-14T17:03:28.458Z</time>
      </trkpt>
      <trkpt lat="44.82616" lon="4.61332">
        <ele>432.1</ele>
        <time>2023-06-14T17:03:31.305Z</time>
      </trkpt>
      <trkpt lat="44.82614" lon="4.61329">
        <ele>431.8</ele>
        <time>2023-06-14T17:03:32.611Z</time>
      </trkpt>
      <trkpt lat="44.82612" lon="4.61325">
        <ele>431.3</ele>
        <time>2023-06-14T17:03:34.170Z</time>
      </trkpt>
      <trkpt lat="44.8261" lon="4.61322">
        <ele>430.9</ele>
        <time>2023-06-14T17:03:35.481Z</time>
      </trkpt>
      <trkpt lat="44.82608" lon="4.61318">
        <ele>430.5</ele>
        <time>2023-06-14T17:03:37.028Z</time>
      </trkpt>
      <trkpt lat="44.82607" lon="4.61315">
        <ele>430.3</ele>
        <time>2023-06-14T17:03:38.077Z</time>
      </trkpt>
      <trkpt lat="44.82605" lon="4.61313">
        <ele>429.8</ele>
        <time>2023-06-14T17:03:39.184Z</time>
      </trkpt>
      <trkpt lat="44.82604" lon="4.61311">
        <ele>429.6</ele>
        <time>2023-06-14T17:03:39.962Z</time>
      </trkpt>
      <trkpt lat="44.82603" lon="4.61308">
        <ele>429.5</ele>
        <time>2023-06-14T17:03:41.006Z</time>
      </trkpt>
      <trkpt lat="44.82601" lon="4.61306">
        <ele>428.9</ele>
        <time>2023-06-14T17:03:42.125Z</time>
      </trkpt>
      <trkpt lat="44.82599" lon="4.61304">
        <ele>428.3</ele>
        <time>2023-06-14T17:03:43.244Z</time>
      </trkpt>
      <trkpt lat="44.82597" lon="4.61302">
        <ele>427.7</ele>
        <time>2023-06-14T17:03:44.357Z</time>
      </trkpt>
      <trkpt lat="44.82596" lon="4.61301">
        <ele>427.5</ele>
        <time>2023-06-14T17:03:44.913Z</time>
      </trkpt>
      <trkpt lat="44.82595" lon="4.61303">
        <ele>427</ele>
        <time>2023-06-14T17:03:45.704Z</time>
      </trkpt>
      <trkpt lat="44.82593" lon="4.61305">
        <ele>426.2</ele>
        <time>2023-06-14T17:03:46.845Z</time>
      </trkpt>
      <trkpt lat="44.82593" lon="4.61303">
        <ele>426.3</ele>
        <time>2023-06-14T17:03:47.478Z</time>
      </trkpt>
      <trkpt lat="44.82594" lon="4.61304">
        <ele>426.6</ele>
        <time>2023-06-14T17:03:48.033Z</time>
      </trkpt>
      <trkpt lat="44.82594" lon="4.61304">
        <ele>426.6</ele>
        <time>2023-06-14T17:03:48.033Z</time>
      </trkpt>
      <trkpt lat="44.82594" lon="4.61305">
        <ele>426.5</ele>
        <time>2023-06-14T17:03:48.353Z</time>
      </trkpt>
      <trkpt lat="44.82595" lon="4.61305">
        <ele>426.8</ele>
        <time>2023-06-14T17:03:48.814Z</time>
      </trkpt>
      <trkpt lat="44.82596" lon="4.61305">
        <ele>427.2</ele>
        <time>2023-06-14T17:03:49.281Z</time>
      </trkpt>
      <trkpt lat="44.82596" lon="4.61304">
        <ele>427.3</ele>
        <time>2023-06-14T17:03:49.601Z</time>
      </trkpt>
      <trkpt lat="44.82597" lon="4.61304">
        <ele>427.6</ele>
        <time>2023-06-14T17:03:50.069Z</time>
      </trkpt>
      <trkpt lat="44.82599" lon="4.61303">
        <ele>428.4</ele>
        <time>2023-06-14T17:03:51.059Z</time>
      </trkpt>
      <trkpt lat="44.826" lon="4.61303">
        <ele>428.9</ele>
        <time>2023-06-14T17:03:51.543Z</time>
      </trkpt>
      <trkpt lat="44.826" lon="4.61304">
        <ele>428.8</ele>
        <time>2023-06-14T17:03:51.857Z</time>
      </trkpt>
      <trkpt lat="44.826" lon="4.61305">
        <ele>428.7</ele>
        <time>2023-06-14T17:03:52.176Z</time>
      </trkpt>
      <trkpt lat="44.82598" lon="4.61306">
        <ele>427.8</ele>
        <time>2023-06-14T17:03:53.190Z</time>
      </trkpt>
      <trkpt lat="44.82598" lon="4.61306">
        <ele>427.8</ele>
        <time>2023-06-14T17:03:53.190Z</time>
      </trkpt>
      <trkpt lat="44.82597" lon="4.61307">
        <ele>427.4</ele>
        <time>2023-06-14T17:03:53.746Z</time>
      </trkpt>
      <trkpt lat="44.82597" lon="4.61307">
        <ele>427.4</ele>
        <time>2023-06-14T17:03:53.746Z</time>
      </trkpt>
      <trkpt lat="44.82597" lon="4.61306">
        <ele>427.4</ele>
        <time>2023-06-14T17:03:54.058Z</time>
      </trkpt>
      <trkpt lat="44.82597" lon="4.61306">
        <ele>427.4</ele>
        <time>2023-06-14T17:03:54.058Z</time>
      </trkpt>
      <trkpt lat="44.82596" lon="4.61306">
        <ele>427.1</ele>
        <time>2023-06-14T17:03:54.526Z</time>
      </trkpt>
      <trkpt lat="44.82596" lon="4.61307">
        <ele>427.1</ele>
        <time>2023-06-14T17:03:54.837Z</time>
      </trkpt>
      <trkpt lat="44.82597" lon="4.61306">
        <ele>427.4</ele>
        <time>2023-06-14T17:03:55.400Z</time>
      </trkpt>
      <trkpt lat="44.82597" lon="4.61306">
        <ele>427.4</ele>
        <time>2023-06-14T17:03:55.400Z</time>
      </trkpt>
      <trkpt lat="44.82597" lon="4.61306">
        <ele>427.4</ele>
        <time>2023-06-14T17:03:55.400Z</time>
      </trkpt>
      <trkpt lat="44.82598" lon="4.61305">
        <ele>427.9</ele>
        <time>2023-06-14T17:03:55.969Z</time>
      </trkpt>
      <trkpt lat="44.82598" lon="4.61305">
        <ele>427.9</ele>
        <time>2023-06-14T17:03:55.969Z</time>
      </trkpt>
      <trkpt lat="44.82598" lon="4.61306">
        <ele>427.8</ele>
        <time>2023-06-14T17:03:56.289Z</time>
      </trkpt>
      <trkpt lat="44.82599" lon="4.61305">
        <ele>428.2</ele>
        <time>2023-06-14T17:03:56.864Z</time>
      </trkpt>
      <trkpt lat="44.82599" lon="4.61304">
        <ele>428.3</ele>
        <time>2023-06-14T17:03:57.183Z</time>
      </trkpt>
      <trkpt lat="44.82599" lon="4.61304">
        <ele>428.3</ele>
        <time>2023-06-14T17:03:57.183Z</time>
      </trkpt>
      <trkpt lat="44.826" lon="4.61305">
        <ele>428.7</ele>
        <time>2023-06-14T17:03:57.751Z</time>
      </trkpt>
      <trkpt lat="44.82601" lon="4.61306">
        <ele>428.9</ele>
        <time>2023-06-14T17:03:58.302Z</time>
      </trkpt>
      <trkpt lat="44.82601" lon="4.61306">
        <ele>428.9</ele>
        <time>2023-06-14T17:03:58.302Z</time>
      </trkpt>
      <trkpt lat="44.82603" lon="4.61306">
        <ele>429.6</ele>
        <time>2023-06-14T17:03:59.238Z</time>
      </trkpt>
      <trkpt lat="44.82603" lon="4.61307">
        <ele>429.6</ele>
        <time>2023-06-14T17:03:59.550Z</time>
      </trkpt>
      <trkpt lat="44.826" lon="4.61308">
        <ele>428.5</ele>
        <time>2023-06-14T17:04:00.992Z</time>
      </trkpt>
      <trkpt lat="44.826" lon="4.61308">
        <ele>428.5</ele>
        <time>2023-06-14T17:04:00.992Z</time>
      </trkpt>
      <trkpt lat="44.826" lon="4.61308">
        <ele>428.5</ele>
        <time>2023-06-14T17:04:00.992Z</time>
      </trkpt>
      <trkpt lat="44.826" lon="4.61308">
        <ele>428.5</ele>
        <time>2023-06-14T17:04:00.992Z</time>
      </trkpt>
      <trkpt lat="44.826" lon="4.61308">
        <ele>428.5</ele>
        <time>2023-06-14T17:04:00.992Z</time>
      </trkpt>
      <trkpt lat="44.82599" lon="4.61307">
        <ele>428.1</ele>
        <time>2023-06-14T17:04:01.560Z</time>
      </trkpt>
      <trkpt lat="44.82599" lon="4.61307">
        <ele>428.1</ele>
        <time>2023-06-14T17:04:01.560Z</time>
      </trkpt>
      <trkpt lat="44.82596" lon="4.61306">
        <ele>427.1</ele>
        <time>2023-06-14T17:04:02.991Z</time>
      </trkpt>
      <trkpt lat="44.82595" lon="4.61306">
        <ele>426.8</ele>
        <time>2023-06-14T17:04:03.459Z</time>
      </trkpt>
      <trkpt lat="44.82593" lon="4.61304">
        <ele>426.2</ele>
        <time>2023-06-14T17:04:04.569Z</time>
      </trkpt>
      <trkpt lat="44.82591" lon="4.61299">
        <ele>425.9</ele>
        <time>2023-06-14T17:04:06.383Z</time>
      </trkpt>
      <trkpt lat="44.82591" lon="4.61286">
        <ele>426.7</ele>
        <time>2023-06-14T17:04:10.494Z</time>
      </trkpt>
      <trkpt lat="44.8259" lon="4.61285">
        <ele>426.4</ele>
        <time>2023-06-14T17:04:11.060Z</time>
      </trkpt>
      <trkpt lat="44.8259" lon="4.61285">
        <ele>426.4</ele>
        <time>2023-06-14T17:04:11.060Z</time>
      </trkpt>
      <trkpt lat="44.82587" lon="4.6129">
        <ele>425.1</ele>
        <time>2023-06-14T17:04:13.190Z</time>
      </trkpt>
      <trkpt lat="44.82586" lon="4.61292">
        <ele>424.4</ele>
        <time>2023-06-14T17:04:14.006Z</time>
      </trkpt>
      <trkpt lat="44.82584" lon="4.61296">
        <ele>423.5</ele>
        <time>2023-06-14T17:04:15.591Z</time>
      </trkpt>
      <trkpt lat="44.82581" lon="4.61296">
        <ele>422.3</ele>
        <time>2023-06-14T17:04:17.011Z</time>
      </trkpt>
      <trkpt lat="44.8258" lon="4.61295">
        <ele>421.9</ele>
        <time>2023-06-14T17:04:17.567Z</time>
      </trkpt>
      <trkpt lat="44.8258" lon="4.61292">
        <ele>422.1</ele>
        <time>2023-06-14T17:04:18.515Z</time>
      </trkpt>
      <trkpt lat="44.8258" lon="4.61287">
        <ele>422.4</ele>
        <time>2023-06-14T17:04:20.101Z</time>
      </trkpt>
      <trkpt lat="44.8258" lon="4.61285">
        <ele>422.5</ele>
        <time>2023-06-14T17:04:20.731Z</time>
      </trkpt>
      <trkpt lat="44.8258" lon="4.61282">
        <ele>422.7</ele>
        <time>2023-06-14T17:04:21.681Z</time>
      </trkpt>
      <trkpt lat="44.8258" lon="4.6128">
        <ele>422.8</ele>
        <time>2023-06-14T17:04:22.311Z</time>
      </trkpt>
      <trkpt lat="44.82581" lon="4.61275">
        <ele>423.5</ele>
        <time>2023-06-14T17:04:23.973Z</time>
      </trkpt>
      <trkpt lat="44.8258" lon="4.61274">
        <ele>423.2</ele>
        <time>2023-06-14T17:04:24.534Z</time>
      </trkpt>
      <trkpt lat="44.82579" lon="4.61273">
        <ele>422.8</ele>
        <time>2023-06-14T17:04:25.100Z</time>
      </trkpt>
      <trkpt lat="44.82579" lon="4.61273">
        <ele>422.8</ele>
        <time>2023-06-14T17:04:25.100Z</time>
      </trkpt>
      <trkpt lat="44.82577" lon="4.61274">
        <ele>421.9</ele>
        <time>2023-06-14T17:04:26.114Z</time>
      </trkpt>
      <trkpt lat="44.82575" lon="4.61276">
        <ele>420.8</ele>
        <time>2023-06-14T17:04:27.279Z</time>
      </trkpt>
      <trkpt lat="44.82571" lon="4.61277">
        <ele>419</ele>
        <time>2023-06-14T17:04:29.230Z</time>
      </trkpt>
      <trkpt lat="44.82569" lon="4.61275">
        <ele>418.2</ele>
        <time>2023-06-14T17:04:30.369Z</time>
      </trkpt>
      <trkpt lat="44.82568" lon="4.61273">
        <ele>417.9</ele>
        <time>2023-06-14T17:04:31.150Z</time>
      </trkpt>
      <trkpt lat="44.82569" lon="4.6127">
        <ele>418.5</ele>
        <time>2023-06-14T17:04:32.217Z</time>
      </trkpt>
      <trkpt lat="44.8257" lon="4.61268">
        <ele>419</ele>
        <time>2023-06-14T17:04:33.023Z</time>
      </trkpt>
      <trkpt lat="44.8257" lon="4.61266">
        <ele>419.1</ele>
        <time>2023-06-14T17:04:33.652Z</time>
      </trkpt>
      <trkpt lat="44.82569" lon="4.61264">
        <ele>418.8</ele>
        <time>2023-06-14T17:04:34.438Z</time>
      </trkpt>
      <trkpt lat="44.82569" lon="4.61265">
        <ele>418.7</ele>
        <time>2023-06-14T17:04:34.757Z</time>
      </trkpt>
      <trkpt lat="44.82569" lon="4.61266">
        <ele>418.7</ele>
        <time>2023-06-14T17:04:35.075Z</time>
      </trkpt>
      <trkpt lat="44.82568" lon="4.61267">
        <ele>418.2</ele>
        <time>2023-06-14T17:04:35.651Z</time>
      </trkpt>
      <trkpt lat="44.82568" lon="4.61267">
        <ele>418.2</ele>
        <time>2023-06-14T17:04:35.651Z</time>
      </trkpt>
      <trkpt lat="44.82567" lon="4.61268">
        <ele>417.7</ele>
        <time>2023-06-14T17:04:36.227Z</time>
      </trkpt>
      <trkpt lat="44.82567" lon="4.6127">
        <ele>417.6</ele>
        <time>2023-06-14T17:04:36.858Z</time>
      </trkpt>
      <trkpt lat="44.82563" lon="4.61276">
        <ele>415.5</ele>
        <time>2023-06-14T17:04:39.584Z</time>
      </trkpt>
      <trkpt lat="44.8256" lon="4.61281">
        <ele>414.1</ele>
        <time>2023-06-14T17:04:41.731Z</time>
      </trkpt>
      <trkpt lat="44.82559" lon="4.61283">
        <ele>413.5</ele>
        <time>2023-06-14T17:04:42.534Z</time>
      </trkpt>
      <trkpt lat="44.82556" lon="4.61292">
        <ele>411.7</ele>
        <time>2023-06-14T17:04:45.755Z</time>
      </trkpt>
      <trkpt lat="44.82555" lon="4.61299">
        <ele>411</ele>
        <time>2023-06-14T17:04:48.023Z</time>
      </trkpt>
      <trkpt lat="44.82554" lon="4.61302">
        <ele>410.4</ele>
        <time>2023-06-14T17:04:49.092Z</time>
      </trkpt>
      <trkpt lat="44.82549" lon="4.61301">
        <ele>408.4</ele>
        <time>2023-06-14T17:04:51.485Z</time>
      </trkpt>
      <trkpt lat="44.82546" lon="4.61291">
        <ele>407.5</ele>
        <time>2023-06-14T17:04:54.928Z</time>
      </trkpt>
      <trkpt lat="44.82549" lon="4.61282">
        <ele>409.2</ele>
        <time>2023-06-14T17:04:58.133Z</time>
      </trkpt>
      <trkpt lat="44.82549" lon="4.61281">
        <ele>409.2</ele>
        <time>2023-06-14T17:04:58.451Z</time>
      </trkpt>
      <trkpt lat="44.82549" lon="4.61281">
        <ele>409.2</ele>
        <time>2023-06-14T17:04:58.451Z</time>
      </trkpt>
      <trkpt lat="44.82549" lon="4.61281">
        <ele>409.2</ele>
        <time>2023-06-14T17:04:58.451Z</time>
      </trkpt>
      <trkpt lat="44.82548" lon="4.6128">
        <ele>408.8</ele>
        <time>2023-06-14T17:04:59.017Z</time>
      </trkpt>
      <trkpt lat="44.82548" lon="4.6128">
        <ele>408.8</ele>
        <time>2023-06-14T17:04:59.017Z</time>
      </trkpt>
      <trkpt lat="44.82548" lon="4.6128">
        <ele>408.8</ele>
        <time>2023-06-14T17:04:59.017Z</time>
      </trkpt>
      <trkpt lat="44.82547" lon="4.6128">
        <ele>408.3</ele>
        <time>2023-06-14T17:04:59.496Z</time>
      </trkpt>
      <trkpt lat="44.82547" lon="4.61277">
        <ele>408.5</ele>
        <time>2023-06-14T17:05:00.444Z</time>
      </trkpt>
      <trkpt lat="44.82549" lon="4.61271">
        <ele>409.6</ele>
        <time>2023-06-14T17:05:02.578Z</time>
      </trkpt>
      <trkpt lat="44.82552" lon="4.61266">
        <ele>411.1</ele>
        <time>2023-06-14T17:05:04.730Z</time>
      </trkpt>
      <trkpt lat="44.82553" lon="4.61263">
        <ele>411.6</ele>
        <time>2023-06-14T17:05:05.800Z</time>
      </trkpt>
      <trkpt lat="44.82553" lon="4.61262">
        <ele>411.7</ele>
        <time>2023-06-14T17:05:06.118Z</time>
      </trkpt>
      <trkpt lat="44.82552" lon="4.61261">
        <ele>411.3</ele>
        <time>2023-06-14T17:05:06.687Z</time>
      </trkpt>
      <trkpt lat="44.82551" lon="4.61262">
        <ele>410.8</ele>
        <time>2023-06-14T17:05:07.264Z</time>
      </trkpt>
      <trkpt lat="44.82547" lon="4.61264">
        <ele>409</ele>
        <time>2023-06-14T17:05:09.287Z</time>
      </trkpt>
      <trkpt lat="44.82538" lon="4.61268">
        <ele>404.8</ele>
        <time>2023-06-14T17:05:13.811Z</time>
      </trkpt>
      <trkpt lat="44.82533" lon="4.61271">
        <ele>402.5</ele>
        <time>2023-06-14T17:05:16.395Z</time>
      </trkpt>
      <trkpt lat="44.82529" lon="4.61273">
        <ele>400.6</ele>
        <time>2023-06-14T17:05:18.434Z</time>
      </trkpt>
      <trkpt lat="44.82524" lon="4.61276">
        <ele>398.3</ele>
        <time>2023-06-14T17:05:21.013Z</time>
      </trkpt>
      <trkpt lat="44.82522" lon="4.61278">
        <ele>397.4</ele>
        <time>2023-06-14T17:05:22.161Z</time>
      </trkpt>
      <trkpt lat="44.82517" lon="4.6128">
        <ele>395.1</ele>
        <time>2023-06-14T17:05:24.660Z</time>
      </trkpt>
      <trkpt lat="44.82512" lon="4.61286">
        <ele>392.8</ele>
        <time>2023-06-14T17:05:27.713Z</time>
      </trkpt>
      <trkpt lat="44.82508" lon="4.6129">
        <ele>391.1</ele>
        <time>2023-06-14T17:05:30.000Z</time>
      </trkpt>
      <trkpt lat="44.82507" lon="4.61289">
        <ele>390.6</ele>
        <time>2023-06-14T17:05:30.571Z</time>
      </trkpt>
      <trkpt lat="44.82507" lon="4.61287">
        <ele>390.7</ele>
        <time>2023-06-14T17:05:31.206Z</time>
      </trkpt>
      <trkpt lat="44.82508" lon="4.6128">
        <ele>391.2</ele>
        <time>2023-06-14T17:05:33.466Z</time>
      </trkpt>
      <trkpt lat="44.82509" lon="4.61277">
        <ele>391.7</ele>
        <time>2023-06-14T17:05:34.528Z</time>
      </trkpt>
      <trkpt lat="44.82513" lon="4.6127">
        <ele>393.6</ele>
        <time>2023-06-14T17:05:37.462Z</time>
      </trkpt>
      <trkpt lat="44.82517" lon="4.61265">
        <ele>395.4</ele>
        <time>2023-06-14T17:05:39.948Z</time>
      </trkpt>
      <trkpt lat="44.82519" lon="4.61264">
        <ele>396.5</ele>
        <time>2023-06-14T17:05:40.986Z</time>
      </trkpt>
      <trkpt lat="44.82519" lon="4.61264">
        <ele>396.5</ele>
        <time>2023-06-14T17:05:40.986Z</time>
      </trkpt>
      <trkpt lat="44.82519" lon="4.61264">
        <ele>396.5</ele>
        <time>2023-06-14T17:05:40.986Z</time>
      </trkpt>
      <trkpt lat="44.82517" lon="4.61261">
        <ele>395.5</ele>
        <time>2023-06-14T17:05:42.344Z</time>
      </trkpt>
      <trkpt lat="44.82516" lon="4.6126">
        <ele>395.1</ele>
        <time>2023-06-14T17:05:42.908Z</time>
      </trkpt>
      <trkpt lat="44.82516" lon="4.6126">
        <ele>395.1</ele>
        <time>2023-06-14T17:05:42.908Z</time>
      </trkpt>
      <trkpt lat="44.82516" lon="4.6126">
        <ele>395.1</ele>
        <time>2023-06-14T17:05:42.908Z</time>
      </trkpt>
      <trkpt lat="44.82518" lon="4.61261">
        <ele>396.1</ele>
        <time>2023-06-14T17:05:43.930Z</time>
      </trkpt>
      <trkpt lat="44.82519" lon="4.61262">
        <ele>396.5</ele>
        <time>2023-06-14T17:05:44.502Z</time>
      </trkpt>
      <trkpt lat="44.8252" lon="4.61265">
        <ele>396.9</ele>
        <time>2023-06-14T17:05:45.557Z</time>
      </trkpt>
      <trkpt lat="44.8252" lon="4.61266">
        <ele>396.8</ele>
        <time>2023-06-14T17:05:45.874Z</time>
      </trkpt>
      <trkpt lat="44.82519" lon="4.61265">
        <ele>396.4</ele>
        <time>2023-06-14T17:05:46.440Z</time>
      </trkpt>
      <trkpt lat="44.82519" lon="4.61266">
        <ele>396.4</ele>
        <time>2023-06-14T17:05:46.757Z</time>
      </trkpt>
      <trkpt lat="44.82519" lon="4.61265">
        <ele>396.4</ele>
        <time>2023-06-14T17:05:47.074Z</time>
      </trkpt>
      <trkpt lat="44.82519" lon="4.61266">
        <ele>396.4</ele>
        <time>2023-06-14T17:05:47.391Z</time>
      </trkpt>
      <trkpt lat="44.8252" lon="4.61266">
        <ele>396.8</ele>
        <time>2023-06-14T17:05:47.865Z</time>
      </trkpt>
      <trkpt lat="44.8252" lon="4.61265">
        <ele>396.9</ele>
        <time>2023-06-14T17:05:48.182Z</time>
      </trkpt>
      <trkpt lat="44.82521" lon="4.61265">
        <ele>397.3</ele>
        <time>2023-06-14T17:05:48.662Z</time>
      </trkpt>
      <trkpt lat="44.82526" lon="4.61261">
        <ele>399.6</ele>
        <time>2023-06-14T17:05:51.377Z</time>
      </trkpt>
      <trkpt lat="44.82526" lon="4.61259">
        <ele>399.6</ele>
        <time>2023-06-14T17:05:52.007Z</time>
      </trkpt>
      <trkpt lat="44.82523" lon="4.61257">
        <ele>398.4</ele>
        <time>2023-06-14T17:05:53.565Z</time>
      </trkpt>
      <trkpt lat="44.82519" lon="4.61256">
        <ele>396.6</ele>
        <time>2023-06-14T17:05:55.497Z</time>
      </trkpt>
      <trkpt lat="44.82515" lon="4.61254">
        <ele>394.7</ele>
        <time>2023-06-14T17:05:57.532Z</time>
      </trkpt>
      <trkpt lat="44.82514" lon="4.61254">
        <ele>394.3</ele>
        <time>2023-06-14T17:05:58.013Z</time>
      </trkpt>
      <trkpt lat="44.82513" lon="4.61253">
        <ele>393.9</ele>
        <time>2023-06-14T17:05:58.580Z</time>
      </trkpt>
      <trkpt lat="44.82514" lon="4.61254">
        <ele>394.3</ele>
        <time>2023-06-14T17:05:59.147Z</time>
      </trkpt>
      <trkpt lat="44.82514" lon="4.61254">
        <ele>394.3</ele>
        <time>2023-06-14T17:05:59.147Z</time>
      </trkpt>
      <trkpt lat="44.82515" lon="4.61255">
        <ele>394.7</ele>
        <time>2023-06-14T17:05:59.720Z</time>
      </trkpt>
      <trkpt lat="44.82516" lon="4.61257">
        <ele>395.1</ele>
        <time>2023-06-14T17:06:00.510Z</time>
      </trkpt>
      <trkpt lat="44.82524" lon="4.61263">
        <ele>398.6</ele>
        <time>2023-06-14T17:06:04.776Z</time>
      </trkpt>
      <trkpt lat="44.82516" lon="4.61258">
        <ele>395.1</ele>
        <time>2023-06-14T17:06:08.917Z</time>
      </trkpt>
      <trkpt lat="44.82508" lon="4.61256">
        <ele>391.6</ele>
        <time>2023-06-14T17:06:12.787Z</time>
      </trkpt>
      <trkpt lat="44.82503" lon="4.61257">
        <ele>389.2</ele>
        <time>2023-06-14T17:06:15.231Z</time>
      </trkpt>
      <trkpt lat="44.82499" lon="4.61259">
        <ele>387.4</ele>
        <time>2023-06-14T17:06:17.259Z</time>
      </trkpt>
      <trkpt lat="44.82496" lon="4.6126">
        <ele>385.8</ele>
        <time>2023-06-14T17:06:18.770Z</time>
      </trkpt>
      <trkpt lat="44.82494" lon="4.61262">
        <ele>384.7</ele>
        <time>2023-06-14T17:06:19.951Z</time>
      </trkpt>
      <trkpt lat="44.82492" lon="4.61263">
        <ele>383.6</ele>
        <time>2023-06-14T17:06:20.989Z</time>
      </trkpt>
      <trkpt lat="44.82491" lon="4.61264">
        <ele>383</ele>
        <time>2023-06-14T17:06:21.575Z</time>
      </trkpt>
      <trkpt lat="44.82488" lon="4.61268">
        <ele>381.1</ele>
        <time>2023-06-14T17:06:23.558Z</time>
      </trkpt>
      <trkpt lat="44.82484" lon="4.61273">
        <ele>378.8</ele>
        <time>2023-06-14T17:06:26.114Z</time>
      </trkpt>
      <trkpt lat="44.8248" lon="4.61277">
        <ele>376.5</ele>
        <time>2023-06-14T17:06:28.491Z</time>
      </trkpt>
      <trkpt lat="44.82476" lon="4.6128">
        <ele>374.1</ele>
        <time>2023-06-14T17:06:30.717Z</time>
      </trkpt>
      <trkpt lat="44.82473" lon="4.61283">
        <ele>372.1</ele>
        <time>2023-06-14T17:06:32.537Z</time>
      </trkpt>
      <trkpt lat="44.8247" lon="4.61285">
        <ele>370.2</ele>
        <time>2023-06-14T17:06:34.184Z</time>
      </trkpt>
      <trkpt lat="44.8247" lon="4.61285">
        <ele>370.2</ele>
        <time>2023-06-14T17:06:34.184Z</time>
      </trkpt>
      <trkpt lat="44.8247" lon="4.61287">
        <ele>370.2</ele>
        <time>2023-06-14T17:06:34.813Z</time>
      </trkpt>
      <trkpt lat="44.8247" lon="4.61289">
        <ele>370</ele>
        <time>2023-06-14T17:06:35.451Z</time>
      </trkpt>
      <trkpt lat="44.82472" lon="4.61299">
        <ele>370.7</ele>
        <time>2023-06-14T17:06:38.735Z</time>
      </trkpt>
      <trkpt lat="44.82473" lon="4.61301">
        <ele>371.1</ele>
        <time>2023-06-14T17:06:39.532Z</time>
      </trkpt>
      <trkpt lat="44.82473" lon="4.61306">
        <ele>370.9</ele>
        <time>2023-06-14T17:06:41.111Z</time>
      </trkpt>
      <trkpt lat="44.82471" lon="4.61307">
        <ele>369.7</ele>
        <time>2023-06-14T17:06:42.171Z</time>
      </trkpt>
      <trkpt lat="44.8247" lon="4.61306">
        <ele>369.1</ele>
        <time>2023-06-14T17:06:42.760Z</time>
      </trkpt>
      <trkpt lat="44.82468" lon="4.61301">
        <ele>368.2</ele>
        <time>2023-06-14T17:06:44.607Z</time>
      </trkpt>
      <trkpt lat="44.82468" lon="4.613">
        <ele>368.3</ele>
        <time>2023-06-14T17:06:44.925Z</time>
      </trkpt>
      <trkpt lat="44.82465" lon="4.61297">
        <ele>366.7</ele>
        <time>2023-06-14T17:06:46.676Z</time>
      </trkpt>
      <trkpt lat="44.82465" lon="4.61298">
        <ele>366.6</ele>
        <time>2023-06-14T17:06:46.994Z</time>
      </trkpt>
      <trkpt lat="44.82465" lon="4.61298">
        <ele>366.6</ele>
        <time>2023-06-14T17:06:46.994Z</time>
      </trkpt>
      <trkpt lat="44.82465" lon="4.61298">
        <ele>366.6</ele>
        <time>2023-06-14T17:06:46.994Z</time>
      </trkpt>
      <trkpt lat="44.82464" lon="4.61296">
        <ele>366.2</ele>
        <time>2023-06-14T17:06:47.789Z</time>
      </trkpt>
      <trkpt lat="44.82459" lon="4.61286">
        <ele>363.8</ele>
        <time>2023-06-14T17:06:51.758Z</time>
      </trkpt>
      <trkpt lat="44.82458" lon="4.61285">
        <ele>363.3</ele>
        <time>2023-06-14T17:06:52.350Z</time>
      </trkpt>
      <trkpt lat="44.82456" lon="4.61292">
        <ele>361.7</ele>
        <time>2023-06-14T17:06:54.819Z</time>
      </trkpt>
      <trkpt lat="44.82456" lon="4.61301">
        <ele>361</ele>
        <time>2023-06-14T17:06:57.671Z</time>
      </trkpt>
      <trkpt lat="44.82457" lon="4.61305">
        <ele>361.3</ele>
        <time>2023-06-14T17:06:59.009Z</time>
      </trkpt>
      <trkpt lat="44.82458" lon="4.61309">
        <ele>361.6</ele>
        <time>2023-06-14T17:07:00.355Z</time>
      </trkpt>
      <trkpt lat="44.8246" lon="4.61315">
        <ele>362.3</ele>
        <time>2023-06-14T17:07:02.466Z</time>
      </trkpt>
      <trkpt lat="44.82461" lon="4.6132">
        <ele>362.7</ele>
        <time>2023-06-14T17:07:04.110Z</time>
      </trkpt>
      <trkpt lat="44.82461" lon="4.61323">
        <ele>362.4</ele>
        <time>2023-06-14T17:07:05.062Z</time>
      </trkpt>
      <trkpt lat="44.82462" lon="4.61325">
        <ele>363.1</ele>
        <time>2023-06-14T17:07:05.888Z</time>
      </trkpt>
      <trkpt lat="44.82466" lon="4.61334">
        <ele>365.1</ele>
        <time>2023-06-14T17:07:09.324Z</time>
      </trkpt>
      <trkpt lat="44.82464" lon="4.61334">
        <ele>363.8</ele>
        <time>2023-06-14T17:07:10.345Z</time>
      </trkpt>
      <trkpt lat="44.82464" lon="4.61335">
        <ele>363.4</ele>
        <time>2023-06-14T17:07:10.693Z</time>
      </trkpt>
      <trkpt lat="44.82461" lon="4.61334">
        <ele>361.7</ele>
        <time>2023-06-14T17:07:12.233Z</time>
      </trkpt>
      <trkpt lat="44.82461" lon="4.61335">
        <ele>361.3</ele>
        <time>2023-06-14T17:07:12.581Z</time>
      </trkpt>
      <trkpt lat="44.82461" lon="4.61337">
        <ele>361</ele>
        <time>2023-06-14T17:07:13.226Z</time>
      </trkpt>
      <trkpt lat="44.82462" lon="4.61339">
        <ele>361.1</ele>
        <time>2023-06-14T17:07:14.000Z</time>
      </trkpt>
      <trkpt lat="44.82463" lon="4.61339">
        <ele>361.7</ele>
        <time>2023-06-14T17:07:14.507Z</time>
      </trkpt>
      <trkpt lat="44.82466" lon="4.61341">
        <ele>362.9</ele>
        <time>2023-06-14T17:07:16.057Z</time>
      </trkpt>
      <trkpt lat="44.82468" lon="4.61342">
        <ele>364.2</ele>
        <time>2023-06-14T17:07:17.123Z</time>
      </trkpt>
      <trkpt lat="44.82471" lon="4.61344">
        <ele>365.3</ele>
        <time>2023-06-14T17:07:18.671Z</time>
      </trkpt>
      <trkpt lat="44.82473" lon="4.61346">
        <ele>366.2</ele>
        <time>2023-06-14T17:07:19.821Z</time>
      </trkpt>
      <trkpt lat="44.82477" lon="4.6135">
        <ele>367.8</ele>
        <time>2023-06-14T17:07:22.088Z</time>
      </trkpt>
      <trkpt lat="44.82478" lon="4.61352">
        <ele>367.7</ele>
        <time>2023-06-14T17:07:22.866Z</time>
      </trkpt>
      <trkpt lat="44.8248" lon="4.61352">
        <ele>368.9</ele>
        <time>2023-06-14T17:07:23.882Z</time>
      </trkpt>
      <trkpt lat="44.82482" lon="4.61355">
        <ele>369.4</ele>
        <time>2023-06-14T17:07:25.199Z</time>
      </trkpt>
      <trkpt lat="44.82484" lon="4.61357">
        <ele>369.9</ele>
        <time>2023-06-14T17:07:26.304Z</time>
      </trkpt>
      <trkpt lat="44.82488" lon="4.61362">
        <ele>370.8</ele>
        <time>2023-06-14T17:07:28.712Z</time>
      </trkpt>
      <trkpt lat="44.82491" lon="4.61367">
        <ele>371.4</ele>
        <time>2023-06-14T17:07:30.786Z</time>
      </trkpt>
      <trkpt lat="44.82493" lon="4.61376">
        <ele>370.3</ele>
        <time>2023-06-14T17:07:33.789Z</time>
      </trkpt>
      <trkpt lat="44.82494" lon="4.61389">
        <ele>367</ele>
        <time>2023-06-14T17:07:38.115Z</time>
      </trkpt>
      <trkpt lat="44.82495" lon="4.61398">
        <ele>364.9</ele>
        <time>2023-06-14T17:07:41.110Z</time>
      </trkpt>
      <trkpt lat="44.82497" lon="4.61402">
        <ele>364.9</ele>
        <time>2023-06-14T17:07:42.650Z</time>
      </trkpt>
      <trkpt lat="44.82498" lon="4.61406">
        <ele>364.4</ele>
        <time>2023-06-14T17:07:44.010Z</time>
      </trkpt>
      <trkpt lat="44.82501" lon="4.61426">
        <ele>360.6</ele>
        <time>2023-06-14T17:07:50.633Z</time>
      </trkpt>
      <trkpt lat="44.82508" lon="4.61449">
        <ele>359.8</ele>
        <time>2023-06-14T17:07:58.534Z</time>
      </trkpt>
      <trkpt lat="44.82509" lon="4.61454">
        <ele>359.2</ele>
        <time>2023-06-14T17:08:00.186Z</time>
      </trkpt>
      <trkpt lat="44.8251" lon="4.61461">
        <ele>358.1</ele>
        <time>2023-06-14T17:08:02.486Z</time>
      </trkpt>
      <trkpt lat="44.82509" lon="4.61472">
        <ele>355.3</ele>
        <time>2023-06-14T17:08:06.155Z</time>
      </trkpt>
      <trkpt lat="44.82509" lon="4.61476">
        <ele>354.5</ele>
        <time>2023-06-14T17:08:07.463Z</time>
      </trkpt>
      <trkpt lat="44.82508" lon="4.6148">
        <ele>353.1</ele>
        <time>2023-06-14T17:08:08.906Z</time>
      </trkpt>
      <trkpt lat="44.82502" lon="4.61486">
        <ele>348.2</ele>
        <time>2023-06-14T17:08:12.715Z</time>
      </trkpt>
      <trkpt lat="44.82501" lon="4.61487">
        <ele>347.4</ele>
        <time>2023-06-14T17:08:13.356Z</time>
      </trkpt>
      <trkpt lat="44.82499" lon="4.61488">
        <ele>346.4</ele>
        <time>2023-06-14T17:08:14.372Z</time>
      </trkpt>
      <trkpt lat="44.82499" lon="4.61488">
        <ele>346.4</ele>
        <time>2023-06-14T17:08:14.372Z</time>
      </trkpt>
      <trkpt lat="44.825" lon="4.61489">
        <ele>346.5</ele>
        <time>2023-06-14T17:08:14.918Z</time>
      </trkpt>
      <trkpt lat="44.825" lon="4.6149">
        <ele>346.3</ele>
        <time>2023-06-14T17:08:15.254Z</time>
      </trkpt>
      <trkpt lat="44.825" lon="4.6149">
        <ele>346.3</ele>
        <time>2023-06-14T17:08:15.254Z</time>
      </trkpt>
      <trkpt lat="44.825" lon="4.61491">
        <ele>346</ele>
        <time>2023-06-14T17:08:15.586Z</time>
      </trkpt>
      <trkpt lat="44.82501" lon="4.61493">
        <ele>346.2</ele>
        <time>2023-06-14T17:08:16.370Z</time>
      </trkpt>
      <trkpt lat="44.82501" lon="4.61494">
        <ele>346</ele>
        <time>2023-06-14T17:08:16.702Z</time>
      </trkpt>
      <trkpt lat="44.82501" lon="4.61494">
        <ele>346</ele>
        <time>2023-06-14T17:08:16.702Z</time>
      </trkpt>
      <trkpt lat="44.82497" lon="4.61491">
        <ele>344.7</ele>
        <time>2023-06-14T17:08:18.776Z</time>
      </trkpt>
      <trkpt lat="44.82493" lon="4.61486">
        <ele>344.2</ele>
        <time>2023-06-14T17:08:21.161Z</time>
      </trkpt>
      <trkpt lat="44.82498" lon="4.61492">
        <ele>344.9</ele>
        <time>2023-06-14T17:08:24.094Z</time>
      </trkpt>
      <trkpt lat="44.82499" lon="4.61493">
        <ele>345.3</ele>
        <time>2023-06-14T17:08:24.666Z</time>
      </trkpt>
      <trkpt lat="44.82502" lon="4.61494">
        <ele>346.5</ele>
        <time>2023-06-14T17:08:26.121Z</time>
      </trkpt>
      <trkpt lat="44.82502" lon="4.61494">
        <ele>346.5</ele>
        <time>2023-06-14T17:08:26.121Z</time>
      </trkpt>
      <trkpt lat="44.82503" lon="4.61495">
        <ele>346.8</ele>
        <time>2023-06-14T17:08:26.674Z</time>
      </trkpt>
      <trkpt lat="44.82503" lon="4.61494">
        <ele>347.1</ele>
        <time>2023-06-14T17:08:27.010Z</time>
      </trkpt>
      <trkpt lat="44.82503" lon="4.61494">
        <ele>347.1</ele>
        <time>2023-06-14T17:08:27.010Z</time>
      </trkpt>
      <trkpt lat="44.82499" lon="4.61491">
        <ele>345.6</ele>
        <time>2023-06-14T17:08:29.108Z</time>
      </trkpt>
      <trkpt lat="44.82498" lon="4.61492">
        <ele>344.9</ele>
        <time>2023-06-14T17:08:29.721Z</time>
      </trkpt>
      <trkpt lat="44.82495" lon="4.61494">
        <ele>343.4</ele>
        <time>2023-06-14T17:08:31.310Z</time>
      </trkpt>
      <trkpt lat="44.82491" lon="4.61496">
        <ele>341.3</ele>
        <time>2023-06-14T17:08:33.382Z</time>
      </trkpt>
      <trkpt lat="44.82484" lon="4.61496">
        <ele>338.4</ele>
        <time>2023-06-14T17:08:36.700Z</time>
      </trkpt>
      <trkpt lat="44.8248" lon="4.61493">
        <ele>337.5</ele>
        <time>2023-06-14T17:08:38.750Z</time>
      </trkpt>
      <trkpt lat="44.82478" lon="4.61491">
        <ele>336.9</ele>
        <time>2023-06-14T17:08:39.866Z</time>
      </trkpt>
      <trkpt lat="44.82474" lon="4.61489">
        <ele>335.5</ele>
        <time>2023-06-14T17:08:41.833Z</time>
      </trkpt>
      <trkpt lat="44.82471" lon="4.61488">
        <ele>334.5</ele>
        <time>2023-06-14T17:08:43.267Z</time>
      </trkpt>
      <trkpt lat="44.8247" lon="4.61489">
        <ele>333.9</ele>
        <time>2023-06-14T17:08:43.861Z</time>
      </trkpt>
      <trkpt lat="44.82469" lon="4.61489">
        <ele>333.5</ele>
        <time>2023-06-14T17:08:44.337Z</time>
      </trkpt>
      <trkpt lat="44.82466" lon="4.61489">
        <ele>332.2</ele>
        <time>2023-06-14T17:08:45.761Z</time>
      </trkpt>
      <trkpt lat="44.82456" lon="4.61491">
        <ele>327.6</ele>
        <time>2023-06-14T17:08:50.606Z</time>
      </trkpt>
      <trkpt lat="44.82454" lon="4.61492">
        <ele>326.7</ele>
        <time>2023-06-14T17:08:51.629Z</time>
      </trkpt>
      <trkpt lat="44.82445" lon="4.61493">
        <ele>322.9</ele>
        <time>2023-06-14T17:08:55.919Z</time>
      </trkpt>
      <trkpt lat="44.82444" lon="4.61494">
        <ele>322.4</ele>
        <time>2023-06-14T17:08:56.496Z</time>
      </trkpt>
      <trkpt lat="44.8244" lon="4.61499">
        <ele>320.4</ele>
        <time>2023-06-14T17:08:59.010Z</time>
      </trkpt>
      <trkpt lat="44.82438" lon="4.61501">
        <ele>319.5</ele>
        <time>2023-06-14T17:09:00.153Z</time>
      </trkpt>
      <trkpt lat="44.82437" lon="4.61505">
        <ele>320.4</ele>
        <time>2023-06-14T17:09:01.543Z</time>
      </trkpt>
      <trkpt lat="44.82434" lon="4.6151">
        <ele>320.3</ele>
        <time>2023-06-14T17:09:03.609Z</time>
      </trkpt>
      <trkpt lat="44.82434" lon="4.61511">
        <ele>320.6</ele>
        <time>2023-06-14T17:09:03.947Z</time>
      </trkpt>
      <trkpt lat="44.8243" lon="4.61524">
        <ele>322.2</ele>
        <time>2023-06-14T17:09:08.466Z</time>
      </trkpt>
      <trkpt lat="44.82426" lon="4.61533">
        <ele>323.1</ele>
        <time>2023-06-14T17:09:11.836Z</time>
      </trkpt>
      <trkpt lat="44.82425" lon="4.61534">
        <ele>323.1</ele>
        <time>2023-06-14T17:09:12.381Z</time>
      </trkpt>
      <trkpt lat="44.82425" lon="4.61536">
        <ele>323.4</ele>
        <time>2023-06-14T17:09:13.029Z</time>
      </trkpt>
      <trkpt lat="44.82423" lon="4.6154">
        <ele>323.7</ele>
        <time>2023-06-14T17:09:14.574Z</time>
      </trkpt>
      <trkpt lat="44.82421" lon="4.61543">
        <ele>324</ele>
        <time>2023-06-14T17:09:15.877Z</time>
      </trkpt>
      <trkpt lat="44.82419" lon="4.61546">
        <ele>323.9</ele>
        <time>2023-06-14T17:09:17.180Z</time>
      </trkpt>
      <trkpt lat="44.82417" lon="4.61547">
        <ele>323.5</ele>
        <time>2023-06-14T17:09:18.134Z</time>
      </trkpt>
      <trkpt lat="44.82416" lon="4.61552">
        <ele>324.6</ele>
        <time>2023-06-14T17:09:19.829Z</time>
      </trkpt>
      <trkpt lat="44.82414" lon="4.61556">
        <ele>325.2</ele>
        <time>2023-06-14T17:09:21.394Z</time>
      </trkpt>
      <trkpt lat="44.82414" lon="4.61557">
        <ele>325.2</ele>
        <time>2023-06-14T17:09:21.711Z</time>
      </trkpt>
      <trkpt lat="44.82413" lon="4.61561">
        <ele>326.3</ele>
        <time>2023-06-14T17:09:23.122Z</time>
      </trkpt>
      <trkpt lat="44.82411" lon="4.61565">
        <ele>326.9</ele>
        <time>2023-06-14T17:09:24.688Z</time>
      </trkpt>
      <trkpt lat="44.82409" lon="4.6157">
        <ele>327.5</ele>
        <time>2023-06-14T17:09:26.511Z</time>
      </trkpt>
      <trkpt lat="44.82407" lon="4.61577">
        <ele>329.1</ele>
        <time>2023-06-14T17:09:28.979Z</time>
      </trkpt>
      <trkpt lat="44.82406" lon="4.61591">
        <ele>333.1</ele>
        <time>2023-06-14T17:09:33.689Z</time>
      </trkpt>
      <trkpt lat="44.82406" lon="4.61593">
        <ele>333.5</ele>
        <time>2023-06-14T17:09:34.338Z</time>
      </trkpt>
      <trkpt lat="44.82406" lon="4.61595">
        <ele>334.3</ele>
        <time>2023-06-14T17:09:35.047Z</time>
      </trkpt>
      <trkpt lat="44.82404" lon="4.61596">
        <ele>333.8</ele>
        <time>2023-06-14T17:09:36.012Z</time>
      </trkpt>
      <trkpt lat="44.82401" lon="4.61602">
        <ele>335.1</ele>
        <time>2023-06-14T17:09:38.391Z</time>
      </trkpt>
      <trkpt lat="44.82401" lon="4.61604">
        <ele>335.9</ele>
        <time>2023-06-14T17:09:39.099Z</time>
      </trkpt>
      <trkpt lat="44.82398" lon="4.61615">
        <ele>338.5</ele>
        <time>2023-06-14T17:09:42.956Z</time>
      </trkpt>
      <trkpt lat="44.82397" lon="4.61618">
        <ele>339.1</ele>
        <time>2023-06-14T17:09:44.029Z</time>
      </trkpt>
      <trkpt lat="44.82397" lon="4.6162">
        <ele>339.9</ele>
        <time>2023-06-14T17:09:44.743Z</time>
      </trkpt>
      <trkpt lat="44.82394" lon="4.61632">
        <ele>342.9</ele>
        <time>2023-06-14T17:09:48.926Z</time>
      </trkpt>
      <trkpt lat="44.82394" lon="4.61634">
        <ele>343.7</ele>
        <time>2023-06-14T17:09:49.639Z</time>
      </trkpt>
      <trkpt lat="44.82393" lon="4.6164">
        <ele>345.1</ele>
        <time>2023-06-14T17:09:51.662Z</time>
      </trkpt>
      <trkpt lat="44.82393" lon="4.61642">
        <ele>345.9</ele>
        <time>2023-06-14T17:09:52.370Z</time>
      </trkpt>
      <trkpt lat="44.82394" lon="4.6165">
        <ele>348.6</ele>
        <time>2023-06-14T17:09:55.142Z</time>
      </trkpt>
      <trkpt lat="44.82395" lon="4.61655">
        <ele>350.4</ele>
        <time>2023-06-14T17:09:56.939Z</time>
      </trkpt>
      <trkpt lat="44.82395" lon="4.61665">
        <ele>353.3</ele>
        <time>2023-06-14T17:10:00.294Z</time>
      </trkpt>
      <trkpt lat="44.82395" lon="4.61667">
        <ele>354.1</ele>
        <time>2023-06-14T17:10:01.003Z</time>
      </trkpt>
      <trkpt lat="44.82394" lon="4.6167">
        <ele>354.7</ele>
        <time>2023-06-14T17:10:02.072Z</time>
      </trkpt>
      <trkpt lat="44.82394" lon="4.61672">
        <ele>355.4</ele>
        <time>2023-06-14T17:10:02.778Z</time>
      </trkpt>
      <trkpt lat="44.82394" lon="4.61673">
        <ele>355.8</ele>
        <time>2023-06-14T17:10:03.126Z</time>
      </trkpt>
      <trkpt lat="44.82393" lon="4.61674">
        <ele>355.6</ele>
        <time>2023-06-14T17:10:03.676Z</time>
      </trkpt>
      <trkpt lat="44.82393" lon="4.61678">
        <ele>356.7</ele>
        <time>2023-06-14T17:10:05.018Z</time>
      </trkpt>
      <trkpt lat="44.82392" lon="4.61679">
        <ele>356.9</ele>
        <time>2023-06-14T17:10:05.570Z</time>
      </trkpt>
      <trkpt lat="44.82389" lon="4.61684">
        <ele>357.7</ele>
        <time>2023-06-14T17:10:07.659Z</time>
      </trkpt>
      <trkpt lat="44.82387" lon="4.61688">
        <ele>358.4</ele>
        <time>2023-06-14T17:10:09.228Z</time>
      </trkpt>
      <trkpt lat="44.82386" lon="4.61689">
        <ele>358.6</ele>
        <time>2023-06-14T17:10:09.781Z</time>
      </trkpt>
      <trkpt lat="44.82385" lon="4.61692">
        <ele>359.1</ele>
        <time>2023-06-14T17:10:10.850Z</time>
      </trkpt>
      <trkpt lat="44.82386" lon="4.61694">
        <ele>360.1</ele>
        <time>2023-06-14T17:10:11.719Z</time>
      </trkpt>
      <trkpt lat="44.82387" lon="4.61693">
        <ele>359.9</ele>
        <time>2023-06-14T17:10:12.271Z</time>
      </trkpt>
      <trkpt lat="44.82387" lon="4.61692">
        <ele>359.6</ele>
        <time>2023-06-14T17:10:12.618Z</time>
      </trkpt>
      <trkpt lat="44.82389" lon="4.6169">
        <ele>359.6</ele>
        <time>2023-06-14T17:10:13.710Z</time>
      </trkpt>
      <trkpt lat="44.82395" lon="4.6168">
        <ele>358</ele>
        <time>2023-06-14T17:10:17.892Z</time>
      </trkpt>
      <trkpt lat="44.82399" lon="4.6167">
        <ele>355.8</ele>
        <time>2023-06-14T17:10:21.619Z</time>
      </trkpt>
      <trkpt lat="44.82402" lon="4.61665">
        <ele>354.8</ele>
        <time>2023-06-14T17:10:23.716Z</time>
      </trkpt>
      <trkpt lat="44.82405" lon="4.61659">
        <ele>353.9</ele>
        <time>2023-06-14T17:10:26.063Z</time>
      </trkpt>
      <trkpt lat="44.82406" lon="4.61649">
        <ele>350.9</ele>
        <time>2023-06-14T17:10:29.458Z</time>
      </trkpt>
      <trkpt lat="44.82406" lon="4.61647">
        <ele>350.5</ele>
        <time>2023-06-14T17:10:30.113Z</time>
      </trkpt>
      <trkpt lat="44.82407" lon="4.61644">
        <ele>349.5</ele>
        <time>2023-06-14T17:10:31.233Z</time>
      </trkpt>
      <trkpt lat="44.82408" lon="4.61643">
        <ele>349.4</ele>
        <time>2023-06-14T17:10:31.778Z</time>
      </trkpt>
      <trkpt lat="44.82409" lon="4.61643">
        <ele>349.6</ele>
        <time>2023-06-14T17:10:32.234Z</time>
      </trkpt>
      <trkpt lat="44.8241" lon="4.61643">
        <ele>349.8</ele>
        <time>2023-06-14T17:10:32.690Z</time>
      </trkpt>
      <trkpt lat="44.8241" lon="4.61646">
        <ele>351</ele>
        <time>2023-06-14T17:10:33.755Z</time>
      </trkpt>
      <trkpt lat="44.82406" lon="4.61645">
        <ele>349.7</ele>
        <time>2023-06-14T17:10:35.637Z</time>
      </trkpt>
      <trkpt lat="44.82404" lon="4.61645">
        <ele>349.2</ele>
        <time>2023-06-14T17:10:36.548Z</time>
      </trkpt>
      <trkpt lat="44.82405" lon="4.61646">
        <ele>349.8</ele>
        <time>2023-06-14T17:10:37.145Z</time>
      </trkpt>
      <trkpt lat="44.82404" lon="4.6165">
        <ele>350.8</ele>
        <time>2023-06-14T17:10:38.537Z</time>
      </trkpt>
      <trkpt lat="44.82403" lon="4.61652">
        <ele>351</ele>
        <time>2023-06-14T17:10:39.312Z</time>
      </trkpt>
      <trkpt lat="44.82403" lon="4.61651">
        <ele>351</ele>
        <time>2023-06-14T17:10:39.624Z</time>
      </trkpt>
      <trkpt lat="44.82402" lon="4.61652">
        <ele>350.8</ele>
        <time>2023-06-14T17:10:40.176Z</time>
      </trkpt>
      <trkpt lat="44.82402" lon="4.61655">
        <ele>352</ele>
        <time>2023-06-14T17:10:41.241Z</time>
      </trkpt>
      <trkpt lat="44.824" lon="4.61655">
        <ele>351.6</ele>
        <time>2023-06-14T17:10:42.145Z</time>
      </trkpt>
      <trkpt lat="44.824" lon="4.61654">
        <ele>351.2</ele>
        <time>2023-06-14T17:10:42.497Z</time>
      </trkpt>
      <trkpt lat="44.824" lon="4.61653">
        <ele>350.7</ele>
        <time>2023-06-14T17:10:42.853Z</time>
      </trkpt>
      <trkpt lat="44.82401" lon="4.61651">
        <ele>350.6</ele>
        <time>2023-06-14T17:10:43.629Z</time>
      </trkpt>
      <trkpt lat="44.82398" lon="4.6165">
        <ele>349.5</ele>
        <time>2023-06-14T17:10:45.066Z</time>
      </trkpt>
      <trkpt lat="44.82398" lon="4.6165">
        <ele>349.5</ele>
        <time>2023-06-14T17:10:45.066Z</time>
      </trkpt>
      <trkpt lat="44.82398" lon="4.6165">
        <ele>349.5</ele>
        <time>2023-06-14T17:10:45.066Z</time>
      </trkpt>
      <trkpt lat="44.82398" lon="4.6165">
        <ele>349.5</ele>
        <time>2023-06-14T17:10:45.066Z</time>
      </trkpt>
      <trkpt lat="44.82398" lon="4.6165">
        <ele>349.5</ele>
        <time>2023-06-14T17:10:45.066Z</time>
      </trkpt>
      <trkpt lat="44.82398" lon="4.6165">
        <ele>349.5</ele>
        <time>2023-06-14T17:10:45.066Z</time>
      </trkpt>
      <trkpt lat="44.82398" lon="4.61648">
        <ele>348.7</ele>
        <time>2023-06-14T17:10:45.774Z</time>
      </trkpt>
      <trkpt lat="44.82399" lon="4.6165">
        <ele>349.7</ele>
        <time>2023-06-14T17:10:46.647Z</time>
      </trkpt>
      <trkpt lat="44.824" lon="4.61651">
        <ele>350.3</ele>
        <time>2023-06-14T17:10:47.250Z</time>
      </trkpt>
      <trkpt lat="44.824" lon="4.6165">
        <ele>349.9</ele>
        <time>2023-06-14T17:10:47.606Z</time>
      </trkpt>
      <trkpt lat="44.824" lon="4.6165">
        <ele>349.9</ele>
        <time>2023-06-14T17:10:47.606Z</time>
      </trkpt>
      <trkpt lat="44.824" lon="4.61649">
        <ele>349.5</ele>
        <time>2023-06-14T17:10:47.957Z</time>
      </trkpt>
      <trkpt lat="44.824" lon="4.61649">
        <ele>349.5</ele>
        <time>2023-06-14T17:10:47.957Z</time>
      </trkpt>
      <trkpt lat="44.82401" lon="4.61649">
        <ele>349.8</ele>
        <time>2023-06-14T17:10:48.414Z</time>
      </trkpt>
      <trkpt lat="44.82402" lon="4.61648">
        <ele>349.6</ele>
        <time>2023-06-14T17:10:48.961Z</time>
      </trkpt>
      <trkpt lat="44.82404" lon="4.61647">
        <ele>350</ele>
        <time>2023-06-14T17:10:49.927Z</time>
      </trkpt>
      <trkpt lat="44.82403" lon="4.61644">
        <ele>348.6</ele>
        <time>2023-06-14T17:10:51.122Z</time>
      </trkpt>
      <trkpt lat="44.82403" lon="4.61644">
        <ele>348.6</ele>
        <time>2023-06-14T17:10:51.122Z</time>
      </trkpt>
      <trkpt lat="44.82403" lon="4.61644">
        <ele>348.6</ele>
        <time>2023-06-14T17:10:51.122Z</time>
      </trkpt>
      <trkpt lat="44.82403" lon="4.61644">
        <ele>348.6</ele>
        <time>2023-06-14T17:10:51.122Z</time>
      </trkpt>
      <trkpt lat="44.82402" lon="4.61643">
        <ele>347.9</ele>
        <time>2023-06-14T17:10:51.722Z</time>
      </trkpt>
      <trkpt lat="44.82401" lon="4.61643">
        <ele>347.7</ele>
        <time>2023-06-14T17:10:52.171Z</time>
      </trkpt>
      <trkpt lat="44.824" lon="4.61644">
        <ele>347.9</ele>
        <time>2023-06-14T17:10:52.721Z</time>
      </trkpt>
      <trkpt lat="44.82398" lon="4.61645">
        <ele>347.9</ele>
        <time>2023-06-14T17:10:53.663Z</time>
      </trkpt>
      <trkpt lat="44.82397" lon="4.61646">
        <ele>348</ele>
        <time>2023-06-14T17:10:54.216Z</time>
      </trkpt>
      <trkpt lat="44.82396" lon="4.61647">
        <ele>348.2</ele>
        <time>2023-06-14T17:10:54.766Z</time>
      </trkpt>
      <trkpt lat="44.82396" lon="4.61647">
        <ele>348.2</ele>
        <time>2023-06-14T17:10:54.766Z</time>
      </trkpt>
      <trkpt lat="44.82395" lon="4.61648">
        <ele>348</ele>
        <time>2023-06-14T17:10:55.316Z</time>
      </trkpt>
      <trkpt lat="44.82395" lon="4.61648">
        <ele>348</ele>
        <time>2023-06-14T17:10:55.316Z</time>
      </trkpt>
      <trkpt lat="44.82394" lon="4.61649">
        <ele>348.2</ele>
        <time>2023-06-14T17:10:55.869Z</time>
      </trkpt>
      <trkpt lat="44.82394" lon="4.61649">
        <ele>348.2</ele>
        <time>2023-06-14T17:10:55.869Z</time>
      </trkpt>
      <trkpt lat="44.82394" lon="4.61649">
        <ele>348.2</ele>
        <time>2023-06-14T17:10:55.869Z</time>
      </trkpt>
      <trkpt lat="44.82395" lon="4.61649">
        <ele>348.4</ele>
        <time>2023-06-14T17:10:56.325Z</time>
      </trkpt>
      <trkpt lat="44.82395" lon="4.61648">
        <ele>348</ele>
        <time>2023-06-14T17:10:56.681Z</time>
      </trkpt>
      <trkpt lat="44.82395" lon="4.61648">
        <ele>348</ele>
        <time>2023-06-14T17:10:56.681Z</time>
      </trkpt>
      <trkpt lat="44.82397" lon="4.61648">
        <ele>348.5</ele>
        <time>2023-06-14T17:10:57.586Z</time>
      </trkpt>
      <trkpt lat="44.82398" lon="4.61649">
        <ele>349.1</ele>
        <time>2023-06-14T17:10:58.189Z</time>
      </trkpt>
      <trkpt lat="44.82399" lon="4.61649">
        <ele>349.3</ele>
        <time>2023-06-14T17:10:58.638Z</time>
      </trkpt>
      <trkpt lat="44.82399" lon="4.61649">
        <ele>349.3</ele>
        <time>2023-06-14T17:10:58.638Z</time>
      </trkpt>
      <trkpt lat="44.82399" lon="4.61649">
        <ele>349.3</ele>
        <time>2023-06-14T17:10:58.638Z</time>
      </trkpt>
      <trkpt lat="44.82399" lon="4.61649">
        <ele>349.3</ele>
        <time>2023-06-14T17:10:58.638Z</time>
      </trkpt>
      <trkpt lat="44.82399" lon="4.61649">
        <ele>349.3</ele>
        <time>2023-06-14T17:10:58.638Z</time>
      </trkpt>
      <trkpt lat="44.82399" lon="4.61649">
        <ele>349.3</ele>
        <time>2023-06-14T17:10:58.638Z</time>
      </trkpt>
      <trkpt lat="44.82399" lon="4.61649">
        <ele>349.3</ele>
        <time>2023-06-14T17:10:58.638Z</time>
      </trkpt>
      <trkpt lat="44.82399" lon="4.61649">
        <ele>349.3</ele>
        <time>2023-06-14T17:10:58.638Z</time>
      </trkpt>
      <trkpt lat="44.82399" lon="4.61649">
        <ele>349.3</ele>
        <time>2023-06-14T17:10:58.638Z</time>
      </trkpt>
      <trkpt lat="44.82399" lon="4.61649">
        <ele>349.3</ele>
        <time>2023-06-14T17:10:58.638Z</time>
      </trkpt>
      <trkpt lat="44.82399" lon="4.61649">
        <ele>349.3</ele>
        <time>2023-06-14T17:10:58.638Z</time>
      </trkpt>
      <trkpt lat="44.82399" lon="4.61649">
        <ele>349.3</ele>
        <time>2023-06-14T17:10:58.638Z</time>
      </trkpt>
      <trkpt lat="44.82399" lon="4.61649">
        <ele>349.3</ele>
        <time>2023-06-14T17:10:58.638Z</time>
      </trkpt>
      <trkpt lat="44.82399" lon="4.61649">
        <ele>349.3</ele>
        <time>2023-06-14T17:10:58.638Z</time>
      </trkpt>
      <trkpt lat="44.824" lon="4.61648">
        <ele>349.1</ele>
        <time>2023-06-14T17:10:59.191Z</time>
      </trkpt>
      <trkpt lat="44.824" lon="4.61648">
        <ele>349.1</ele>
        <time>2023-06-14T17:10:59.191Z</time>
      </trkpt>
      <trkpt lat="44.824" lon="4.61648">
        <ele>349.1</ele>
        <time>2023-06-14T17:10:59.191Z</time>
      </trkpt>
      <trkpt lat="44.824" lon="4.61648">
        <ele>349.1</ele>
        <time>2023-06-14T17:10:59.191Z</time>
      </trkpt>
      <trkpt lat="44.824" lon="4.61647">
        <ele>349.1</ele>
        <time>2023-06-14T17:10:59.508Z</time>
      </trkpt>
      <trkpt lat="44.824" lon="4.61647">
        <ele>349.1</ele>
        <time>2023-06-14T17:10:59.508Z</time>
      </trkpt>
      <trkpt lat="44.82401" lon="4.61646">
        <ele>348.9</ele>
        <time>2023-06-14T17:11:00.058Z</time>
      </trkpt>
      <trkpt lat="44.82401" lon="4.61647">
        <ele>349.3</ele>
        <time>2023-06-14T17:11:00.410Z</time>
      </trkpt>
      <trkpt lat="44.82401" lon="4.61647">
        <ele>349.3</ele>
        <time>2023-06-14T17:11:00.410Z</time>
      </trkpt>
      <trkpt lat="44.824" lon="4.61647">
        <ele>349.1</ele>
        <time>2023-06-14T17:11:00.866Z</time>
      </trkpt>
      <trkpt lat="44.824" lon="4.61647">
        <ele>349.1</ele>
        <time>2023-06-14T17:11:00.866Z</time>
      </trkpt>
      <trkpt lat="44.82401" lon="4.61646">
        <ele>348.9</ele>
        <time>2023-06-14T17:11:01.416Z</time>
      </trkpt>
      <trkpt lat="44.82401" lon="4.61647">
        <ele>349.3</ele>
        <time>2023-06-14T17:11:01.767Z</time>
      </trkpt>
      <trkpt lat="44.82402" lon="4.61647">
        <ele>349.6</ele>
        <time>2023-06-14T17:11:02.216Z</time>
      </trkpt>
      <trkpt lat="44.82404" lon="4.61647">
        <ele>350</ele>
        <time>2023-06-14T17:11:03.129Z</time>
      </trkpt>
      <trkpt lat="44.82405" lon="4.61647">
        <ele>350.2</ele>
        <time>2023-06-14T17:11:03.578Z</time>
      </trkpt>
      <trkpt lat="44.82406" lon="4.61646">
        <ele>350.1</ele>
        <time>2023-06-14T17:11:04.124Z</time>
      </trkpt>
      <trkpt lat="44.82407" lon="4.61644">
        <ele>349.5</ele>
        <time>2023-06-14T17:11:04.936Z</time>
      </trkpt>
      <trkpt lat="44.82407" lon="4.61644">
        <ele>349.5</ele>
        <time>2023-06-14T17:11:04.936Z</time>
      </trkpt>
      <trkpt lat="44.82406" lon="4.61644">
        <ele>349.3</ele>
        <time>2023-06-14T17:11:05.392Z</time>
      </trkpt>
      <trkpt lat="44.82408" lon="4.61642">
        <ele>349.4</ele>
        <time>2023-06-14T17:11:06.480Z</time>
      </trkpt>
      <trkpt lat="44.82409" lon="4.6164">
        <ele>348.8</ele>
        <time>2023-06-14T17:11:07.287Z</time>
      </trkpt>
      <trkpt lat="44.82414" lon="4.61632">
        <ele>347.4</ele>
        <time>2023-06-14T17:11:10.693Z</time>
      </trkpt>
      <trkpt lat="44.82414" lon="4.6163">
        <ele>346.6</ele>
        <time>2023-06-14T17:11:11.402Z</time>
      </trkpt>
      <trkpt lat="44.82417" lon="4.61625">
        <ele>346.1</ele>
        <time>2023-06-14T17:11:13.477Z</time>
      </trkpt>
      <trkpt lat="44.82418" lon="4.61622">
        <ele>345.2</ele>
        <time>2023-06-14T17:11:14.588Z</time>
      </trkpt>
      <trkpt lat="44.82422" lon="4.61613">
        <ele>343.6</ele>
        <time>2023-06-14T17:11:17.992Z</time>
      </trkpt>
      <trkpt lat="44.82423" lon="4.61611">
        <ele>343.5</ele>
        <time>2023-06-14T17:11:18.765Z</time>
      </trkpt>
      <trkpt lat="44.82423" lon="4.6161">
        <ele>343.1</ele>
        <time>2023-06-14T17:11:19.120Z</time>
      </trkpt>
      <trkpt lat="44.82429" lon="4.61598">
        <ele>341.4</ele>
        <time>2023-06-14T17:11:23.801Z</time>
      </trkpt>
      <trkpt lat="44.82431" lon="4.61595">
        <ele>341.3</ele>
        <time>2023-06-14T17:11:25.099Z</time>
      </trkpt>
      <trkpt lat="44.82434" lon="4.61594">
        <ele>342</ele>
        <time>2023-06-14T17:11:26.496Z</time>
      </trkpt>
      <trkpt lat="44.82437" lon="4.61594">
        <ele>342.9</ele>
        <time>2023-06-14T17:11:27.884Z</time>
      </trkpt>
      <trkpt lat="44.82441" lon="4.61593">
        <ele>343.8</ele>
        <time>2023-06-14T17:11:29.729Z</time>
      </trkpt>
      <trkpt lat="44.82442" lon="4.61593">
        <ele>344.1</ele>
        <time>2023-06-14T17:11:30.194Z</time>
      </trkpt>
      <trkpt lat="44.82446" lon="4.61592">
        <ele>345.1</ele>
        <time>2023-06-14T17:11:32.032Z</time>
      </trkpt>
      <trkpt lat="44.82452" lon="4.61591">
        <ele>347.1</ele>
        <time>2023-06-14T17:11:34.839Z</time>
      </trkpt>
      <trkpt lat="44.82457" lon="4.61589">
        <ele>348</ele>
        <time>2023-06-14T17:11:37.176Z</time>
      </trkpt>
      <trkpt lat="44.82458" lon="4.6159">
        <ele>348.7</ele>
        <time>2023-06-14T17:11:37.788Z</time>
      </trkpt>
      <trkpt lat="44.82459" lon="4.61593">
        <ele>349.7</ele>
        <time>2023-06-14T17:11:38.912Z</time>
      </trkpt>
      <trkpt lat="44.82461" lon="4.61594">
        <ele>350.7</ele>
        <time>2023-06-14T17:11:39.934Z</time>
      </trkpt>
      <trkpt lat="44.82465" lon="4.616">
        <ele>353.4</ele>
        <time>2023-06-14T17:11:42.756Z</time>
      </trkpt>
      <trkpt lat="44.82466" lon="4.61603">
        <ele>354.7</ele>
        <time>2023-06-14T17:11:43.928Z</time>
      </trkpt>
      <trkpt lat="44.82467" lon="4.61604">
        <ele>355.4</ele>
        <time>2023-06-14T17:11:44.532Z</time>
      </trkpt>
      <trkpt lat="44.82468" lon="4.61607">
        <ele>356.4</ele>
        <time>2023-06-14T17:11:45.647Z</time>
      </trkpt>
      <trkpt lat="44.8247" lon="4.61609">
        <ele>357.3</ele>
        <time>2023-06-14T17:11:46.805Z</time>
      </trkpt>
      <trkpt lat="44.8247" lon="4.61611">
        <ele>358</ele>
        <time>2023-06-14T17:11:47.494Z</time>
      </trkpt>
      <trkpt lat="44.82471" lon="4.61613">
        <ele>358.6</ele>
        <time>2023-06-14T17:11:48.302Z</time>
      </trkpt>
      <trkpt lat="44.82473" lon="4.61616">
        <ele>360.2</ele>
        <time>2023-06-14T17:11:49.753Z</time>
      </trkpt>
      <trkpt lat="44.82473" lon="4.61618">
        <ele>360.6</ele>
        <time>2023-06-14T17:11:50.396Z</time>
      </trkpt>
      <trkpt lat="44.82475" lon="4.61622">
        <ele>362.1</ele>
        <time>2023-06-14T17:11:52.064Z</time>
      </trkpt>
      <trkpt lat="44.8248" lon="4.6163">
        <ele>365.6</ele>
        <time>2023-06-14T17:11:55.703Z</time>
      </trkpt>
      <trkpt lat="44.82481" lon="4.61632">
        <ele>366.6</ele>
        <time>2023-06-14T17:11:56.559Z</time>
      </trkpt>
      <trkpt lat="44.82484" lon="4.61637">
        <ele>368.7</ele>
        <time>2023-06-14T17:11:58.794Z</time>
      </trkpt>
      <trkpt lat="44.82485" lon="4.61639">
        <ele>369.3</ele>
        <time>2023-06-14T17:11:59.602Z</time>
      </trkpt>
      <trkpt lat="44.82486" lon="4.61643">
        <ele>370.5</ele>
        <time>2023-06-14T17:12:01.026Z</time>
      </trkpt>
      <trkpt lat="44.82489" lon="4.61653">
        <ele>373.8</ele>
        <time>2023-06-14T17:12:04.694Z</time>
      </trkpt>
      <trkpt lat="44.8249" lon="4.61656">
        <ele>374.8</ele>
        <time>2023-06-14T17:12:05.810Z</time>
      </trkpt>
      <trkpt lat="44.82492" lon="4.61659">
        <ele>376.2</ele>
        <time>2023-06-14T17:12:07.228Z</time>
      </trkpt>
      <trkpt lat="44.82497" lon="4.61664">
        <ele>378.7</ele>
        <time>2023-06-14T17:12:10.125Z</time>
      </trkpt>
      <trkpt lat="44.82498" lon="4.61667">
        <ele>379.5</ele>
        <time>2023-06-14T17:12:11.226Z</time>
      </trkpt>
      <trkpt lat="44.82504" lon="4.61672">
        <ele>384</ele>
        <time>2023-06-14T17:12:14.804Z</time>
      </trkpt>
      <trkpt lat="44.82504" lon="4.61674">
        <ele>384.4</ele>
        <time>2023-06-14T17:12:15.456Z</time>
      </trkpt>
      <trkpt lat="44.82505" lon="4.61678">
        <ele>386.2</ele>
        <time>2023-06-14T17:12:16.970Z</time>
      </trkpt>
      <trkpt lat="44.82507" lon="4.6168">
        <ele>388.1</ele>
        <time>2023-06-14T17:12:18.296Z</time>
      </trkpt>
      <trkpt lat="44.82507" lon="4.61682">
        <ele>388.5</ele>
        <time>2023-06-14T17:12:18.948Z</time>
      </trkpt>
      <trkpt lat="44.8251" lon="4.61687">
        <ele>391.7</ele>
        <time>2023-06-14T17:12:21.386Z</time>
      </trkpt>
      <trkpt lat="44.8251" lon="4.61688">
        <ele>392.1</ele>
        <time>2023-06-14T17:12:21.744Z</time>
      </trkpt>
      <trkpt lat="44.82507" lon="4.61691">
        <ele>391.4</ele>
        <time>2023-06-14T17:12:23.406Z</time>
      </trkpt>
      <trkpt lat="44.82501" lon="4.61685">
        <ele>386.4</ele>
        <time>2023-06-14T17:12:27.237Z</time>
      </trkpt>
      <trkpt lat="44.82499" lon="4.61683">
        <ele>384.8</ele>
        <time>2023-06-14T17:12:28.502Z</time>
      </trkpt>
      <trkpt lat="44.82492" lon="4.61677">
        <ele>381.4</ele>
        <time>2023-06-14T17:12:32.398Z</time>
      </trkpt>
      <trkpt lat="44.82488" lon="4.61674">
        <ele>379.1</ele>
        <time>2023-06-14T17:12:34.614Z</time>
      </trkpt>
      <trkpt lat="44.82483" lon="4.6167">
        <ele>376.6</ele>
        <time>2023-06-14T17:12:37.363Z</time>
      </trkpt>
      <trkpt lat="44.82475" lon="4.61663">
        <ele>372.7</ele>
        <time>2023-06-14T17:12:41.825Z</time>
      </trkpt>
      <trkpt lat="44.82472" lon="4.6166">
        <ele>371.3</ele>
        <time>2023-06-14T17:12:43.556Z</time>
      </trkpt>
      <trkpt lat="44.82469" lon="4.61653">
        <ele>368.5</ele>
        <time>2023-06-14T17:12:46.367Z</time>
      </trkpt>
      <trkpt lat="44.82466" lon="4.61649">
        <ele>366.7</ele>
        <time>2023-06-14T17:12:48.338Z</time>
      </trkpt>
      <trkpt lat="44.82464" lon="4.61647">
        <ele>365.8</ele>
        <time>2023-06-14T17:12:49.483Z</time>
      </trkpt>
      <trkpt lat="44.82461" lon="4.61645">
        <ele>364.2</ele>
        <time>2023-06-14T17:12:51.088Z</time>
      </trkpt>
      <trkpt lat="44.82457" lon="4.61644">
        <ele>362.8</ele>
        <time>2023-06-14T17:12:52.986Z</time>
      </trkpt>
      <trkpt lat="44.82457" lon="4.61644">
        <ele>362.8</ele>
        <time>2023-06-14T17:12:52.986Z</time>
      </trkpt>
      <trkpt lat="44.82457" lon="4.61646">
        <ele>363.5</ele>
        <time>2023-06-14T17:12:53.680Z</time>
      </trkpt>
      <trkpt lat="44.82456" lon="4.6165">
        <ele>364.3</ele>
        <time>2023-06-14T17:12:55.051Z</time>
      </trkpt>
      <trkpt lat="44.82456" lon="4.61653">
        <ele>365</ele>
        <time>2023-06-14T17:12:56.039Z</time>
      </trkpt>
      <trkpt lat="44.82452" lon="4.6166">
        <ele>366.1</ele>
        <time>2023-06-14T17:12:58.913Z</time>
      </trkpt>
      <trkpt lat="44.8245" lon="4.61666">
        <ele>367.1</ele>
        <time>2023-06-14T17:13:01.037Z</time>
      </trkpt>
      <trkpt lat="44.8245" lon="4.61667">
        <ele>367.4</ele>
        <time>2023-06-14T17:13:01.381Z</time>
      </trkpt>
      <trkpt lat="44.82449" lon="4.6167">
        <ele>368</ele>
        <time>2023-06-14T17:13:02.451Z</time>
      </trkpt>
      <trkpt lat="44.82449" lon="4.61678">
        <ele>370.4</ele>
        <time>2023-06-14T17:13:05.152Z</time>
      </trkpt>
      <trkpt lat="44.82447" lon="4.61687">
        <ele>372.7</ele>
        <time>2023-06-14T17:13:08.258Z</time>
      </trkpt>
      <trkpt lat="44.82447" lon="4.61691">
        <ele>373.9</ele>
        <time>2023-06-14T17:13:09.610Z</time>
      </trkpt>
      <trkpt lat="44.82446" lon="4.61695">
        <ele>374.8</ele>
        <time>2023-06-14T17:13:11.004Z</time>
      </trkpt>
      <trkpt lat="44.82444" lon="4.61701">
        <ele>376.3</ele>
        <time>2023-06-14T17:13:13.174Z</time>
      </trkpt>
      <trkpt lat="44.82444" lon="4.61703">
        <ele>377.1</ele>
        <time>2023-06-14T17:13:13.885Z</time>
      </trkpt>
      <trkpt lat="44.82444" lon="4.61709">
        <ele>378.7</ele>
        <time>2023-06-14T17:13:15.883Z</time>
      </trkpt>
      <trkpt lat="44.82444" lon="4.61711">
        <ele>379.5</ele>
        <time>2023-06-14T17:13:16.589Z</time>
      </trkpt>
      <trkpt lat="44.82444" lon="4.61712">
        <ele>379.5</ele>
        <time>2023-06-14T17:13:16.907Z</time>
      </trkpt>
      <trkpt lat="44.82444" lon="4.61716">
        <ele>381.1</ele>
        <time>2023-06-14T17:13:18.319Z</time>
      </trkpt>
      <trkpt lat="44.82443" lon="4.61717">
        <ele>380.9</ele>
        <time>2023-06-14T17:13:18.877Z</time>
      </trkpt>
      <trkpt lat="44.82442" lon="4.61721">
        <ele>381.8</ele>
        <time>2023-06-14T17:13:20.262Z</time>
      </trkpt>
      <trkpt lat="44.82441" lon="4.61722">
        <ele>381.9</ele>
        <time>2023-06-14T17:13:20.814Z</time>
      </trkpt>
      <trkpt lat="44.82441" lon="4.61725">
        <ele>382.7</ele>
        <time>2023-06-14T17:13:21.813Z</time>
      </trkpt>
      <trkpt lat="44.8244" lon="4.61727">
        <ele>383.3</ele>
        <time>2023-06-14T17:13:22.614Z</time>
      </trkpt>
      <trkpt lat="44.82439" lon="4.61729">
        <ele>383.8</ele>
        <time>2023-06-14T17:13:23.415Z</time>
      </trkpt>
      <trkpt lat="44.82436" lon="4.61734">
        <ele>384.2</ele>
        <time>2023-06-14T17:13:25.486Z</time>
      </trkpt>
      <trkpt lat="44.82435" lon="4.61735">
        <ele>384.4</ele>
        <time>2023-06-14T17:13:26.037Z</time>
      </trkpt>
      <trkpt lat="44.82432" lon="4.61738">
        <ele>384.3</ele>
        <time>2023-06-14T17:13:27.673Z</time>
      </trkpt>
      <trkpt lat="44.82431" lon="4.61741">
        <ele>385.2</ele>
        <time>2023-06-14T17:13:28.783Z</time>
      </trkpt>
      <trkpt lat="44.82425" lon="4.61747">
        <ele>385.2</ele>
        <time>2023-06-14T17:13:32.052Z</time>
      </trkpt>
      <trkpt lat="44.82422" lon="4.61755">
        <ele>387.4</ele>
        <time>2023-06-14T17:13:35.044Z</time>
      </trkpt>
      <trkpt lat="44.82422" lon="4.61756">
        <ele>387.4</ele>
        <time>2023-06-14T17:13:35.356Z</time>
      </trkpt>
      <trkpt lat="44.82421" lon="4.61758">
        <ele>388</ele>
        <time>2023-06-14T17:13:36.172Z</time>
      </trkpt>
      <trkpt lat="44.82421" lon="4.61759">
        <ele>388.5</ele>
        <time>2023-06-14T17:13:36.535Z</time>
      </trkpt>
      <trkpt lat="44.8242" lon="4.6176">
        <ele>388.2</ele>
        <time>2023-06-14T17:13:37.092Z</time>
      </trkpt>
      <trkpt lat="44.82419" lon="4.61761">
        <ele>388.4</ele>
        <time>2023-06-14T17:13:37.643Z</time>
      </trkpt>
      <trkpt lat="44.82418" lon="4.61765">
        <ele>389.5</ele>
        <time>2023-06-14T17:13:39.052Z</time>
      </trkpt>
      <trkpt lat="44.82416" lon="4.61768">
        <ele>389.9</ele>
        <time>2023-06-14T17:13:40.361Z</time>
      </trkpt>
      <trkpt lat="44.82408" lon="4.61776">
        <ele>391.3</ele>
        <time>2023-06-14T17:13:44.761Z</time>
      </trkpt>
      <trkpt lat="44.82407" lon="4.61777">
        <ele>391.1</ele>
        <time>2023-06-14T17:13:45.312Z</time>
      </trkpt>
      <trkpt lat="44.82405" lon="4.61782">
        <ele>392.4</ele>
        <time>2023-06-14T17:13:47.198Z</time>
      </trkpt>
      <trkpt lat="44.82404" lon="4.61787">
        <ele>394</ele>
        <time>2023-06-14T17:13:48.964Z</time>
      </trkpt>
      <trkpt lat="44.82406" lon="4.61791">
        <ele>396</ele>
        <time>2023-06-14T17:13:50.691Z</time>
      </trkpt>
      <trkpt lat="44.82407" lon="4.61793">
        <ele>397.1</ele>
        <time>2023-06-14T17:13:51.595Z</time>
      </trkpt>
      <trkpt lat="44.82409" lon="4.61792">
        <ele>397.2</ele>
        <time>2023-06-14T17:13:52.535Z</time>
      </trkpt>
      <trkpt lat="44.82412" lon="4.61784">
        <ele>395.1</ele>
        <time>2023-06-14T17:13:55.508Z</time>
      </trkpt>
      <trkpt lat="44.82421" lon="4.61768">
        <ele>391.3</ele>
        <time>2023-06-14T17:14:02.130Z</time>
      </trkpt>
      <trkpt lat="44.82433" lon="4.61758">
        <ele>391.2</ele>
        <time>2023-06-14T17:14:08.328Z</time>
      </trkpt>
      <trkpt lat="44.82435" lon="4.61756">
        <ele>390.9</ele>
        <time>2023-06-14T17:14:09.424Z</time>
      </trkpt>
      <trkpt lat="44.82446" lon="4.61743">
        <ele>389.7</ele>
        <time>2023-06-14T17:14:15.823Z</time>
      </trkpt>
      <trkpt lat="44.82449" lon="4.61738">
        <ele>389</ele>
        <time>2023-06-14T17:14:17.908Z</time>
      </trkpt>
      <trkpt lat="44.82455" lon="4.61729">
        <ele>388.1</ele>
        <time>2023-06-14T17:14:21.819Z</time>
      </trkpt>
      <trkpt lat="44.82459" lon="4.61723">
        <ele>387.1</ele>
        <time>2023-06-14T17:14:24.447Z</time>
      </trkpt>
      <trkpt lat="44.82461" lon="4.61721">
        <ele>386.9</ele>
        <time>2023-06-14T17:14:25.544Z</time>
      </trkpt>
      <trkpt lat="44.82474" lon="4.61719">
        <ele>389.9</ele>
        <time>2023-06-14T17:14:31.483Z</time>
      </trkpt>
      <trkpt lat="44.82488" lon="4.61729">
        <ele>397</ele>
        <time>2023-06-14T17:14:39.021Z</time>
      </trkpt>
      <trkpt lat="44.82498" lon="4.61744">
        <ele>404.4</ele>
        <time>2023-06-14T17:14:46.144Z</time>
      </trkpt>
      <trkpt lat="44.825" lon="4.6175">
        <ele>407</ele>
        <time>2023-06-14T17:14:48.486Z</time>
      </trkpt>
      <trkpt lat="44.82502" lon="4.61758">
        <ele>410.1</ele>
        <time>2023-06-14T17:14:51.432Z</time>
      </trkpt>
      <trkpt lat="44.82506" lon="4.61765">
        <ele>413.9</ele>
        <time>2023-06-14T17:14:54.647Z</time>
      </trkpt>
      <trkpt lat="44.82511" lon="4.61773">
        <ele>418.3</ele>
        <time>2023-06-14T17:14:58.446Z</time>
      </trkpt>
      <trkpt lat="44.82516" lon="4.61778">
        <ele>421.9</ele>
        <time>2023-06-14T17:15:01.543Z</time>
      </trkpt>
      <trkpt lat="44.82528" lon="4.61773">
        <ele>426.6</ele>
        <time>2023-06-14T17:15:07.409Z</time>
      </trkpt>
      <trkpt lat="44.82538" lon="4.61756">
        <ele>427.8</ele>
        <time>2023-06-14T17:15:14.389Z</time>
      </trkpt>
      <trkpt lat="44.82553" lon="4.61728">
        <ele>427.5</ele>
        <time>2023-06-14T17:15:25.457Z</time>
      </trkpt>
      <trkpt lat="44.82554" lon="4.61725">
        <ele>426.9</ele>
        <time>2023-06-14T17:15:26.540Z</time>
      </trkpt>
      <trkpt lat="44.82556" lon="4.61723">
        <ele>427.5</ele>
        <time>2023-06-14T17:15:27.656Z</time>
      </trkpt>
      <trkpt lat="44.82557" lon="4.61721">
        <ele>427.2</ele>
        <time>2023-06-14T17:15:28.441Z</time>
      </trkpt>
      <trkpt lat="44.82558" lon="4.61718">
        <ele>426.9</ele>
        <time>2023-06-14T17:15:29.486Z</time>
      </trkpt>
      <trkpt lat="44.8256" lon="4.61716">
        <ele>427.7</ele>
        <time>2023-06-14T17:15:30.622Z</time>
      </trkpt>
      <trkpt lat="44.82561" lon="4.61714">
        <ele>427.4</ele>
        <time>2023-06-14T17:15:31.402Z</time>
      </trkpt>
      <trkpt lat="44.82566" lon="4.61704">
        <ele>426.8</ele>
        <time>2023-06-14T17:15:35.270Z</time>
      </trkpt>
      <trkpt lat="44.82574" lon="4.61687">
        <ele>426</ele>
        <time>2023-06-14T17:15:41.715Z</time>
      </trkpt>
      <trkpt lat="44.82577" lon="4.61682">
        <ele>426</ele>
        <time>2023-06-14T17:15:43.780Z</time>
      </trkpt>
      <trkpt lat="44.82582" lon="4.6167">
        <ele>425.1</ele>
        <time>2023-06-14T17:15:48.184Z</time>
      </trkpt>
      <trkpt lat="44.82586" lon="4.61663">
        <ele>424.4</ele>
        <time>2023-06-14T17:15:51.026Z</time>
      </trkpt>
      <trkpt lat="44.82593" lon="4.6165">
        <ele>422.4</ele>
        <time>2023-06-14T17:15:56.242Z</time>
      </trkpt>
      <trkpt lat="44.82594" lon="4.61647">
        <ele>421.9</ele>
        <time>2023-06-14T17:15:57.308Z</time>
      </trkpt>
      <trkpt lat="44.82595" lon="4.61645">
        <ele>421.4</ele>
        <time>2023-06-14T17:15:58.101Z</time>
      </trkpt>
      <trkpt lat="44.82597" lon="4.6164">
        <ele>420.4</ele>
        <time>2023-06-14T17:15:59.953Z</time>
      </trkpt>
      <trkpt lat="44.82602" lon="4.6163">
        <ele>419.1</ele>
        <time>2023-06-14T17:16:03.851Z</time>
      </trkpt>
      <trkpt lat="44.82606" lon="4.61626">
        <ele>419.3</ele>
        <time>2023-06-14T17:16:06.028Z</time>
      </trkpt>
      <trkpt lat="44.82607" lon="4.61624">
        <ele>419.3</ele>
        <time>2023-06-14T17:16:06.805Z</time>
      </trkpt>
      <trkpt lat="44.8262" lon="4.61609">
        <ele>419.8</ele>
        <time>2023-06-14T17:16:14.281Z</time>
      </trkpt>
      <trkpt lat="44.82629" lon="4.61603">
        <ele>421.9</ele>
        <time>2023-06-14T17:16:18.784Z</time>
      </trkpt>
      <trkpt lat="44.82635" lon="4.61598">
        <ele>423</ele>
        <time>2023-06-14T17:16:21.915Z</time>
      </trkpt>
      <trkpt lat="44.82641" lon="4.61591">
        <ele>423.9</ele>
        <time>2023-06-14T17:16:25.396Z</time>
      </trkpt>
      <trkpt lat="44.82644" lon="4.61587">
        <ele>424.1</ele>
        <time>2023-06-14T17:16:27.236Z</time>
      </trkpt>
      <trkpt lat="44.82646" lon="4.61586">
        <ele>424.9</ele>
        <time>2023-06-14T17:16:28.239Z</time>
      </trkpt>
      <trkpt lat="44.82648" lon="4.61584">
        <ele>425.2</ele>
        <time>2023-06-14T17:16:29.332Z</time>
      </trkpt>
      <trkpt lat="44.82661" lon="4.61571">
        <ele>431.5</ele>
        <time>2023-06-14T17:16:36.846Z</time>
      </trkpt>
      <trkpt lat="44.82674" lon="4.61554">
        <ele>438.9</ele>
        <time>2023-06-14T17:16:45.281Z</time>
      </trkpt>
      <trkpt lat="44.82675" lon="4.61551">
        <ele>439.6</ele>
        <time>2023-06-14T17:16:46.358Z</time>
      </trkpt>
      <trkpt lat="44.82678" lon="4.61533">
        <ele>442.3</ele>
        <time>2023-06-14T17:16:52.286Z</time>
      </trkpt>
      <trkpt lat="44.82676" lon="4.61515">
        <ele>442.5</ele>
        <time>2023-06-14T17:16:58.034Z</time>
      </trkpt>
      <trkpt lat="44.8267" lon="4.61489">
        <ele>441.6</ele>
        <time>2023-06-14T17:17:06.665Z</time>
      </trkpt>
      <trkpt lat="44.82664" lon="4.6147">
        <ele>440.1</ele>
        <time>2023-06-14T17:17:13.249Z</time>
      </trkpt>
      <trkpt lat="44.82664" lon="4.61464">
        <ele>440.7</ele>
        <time>2023-06-14T17:17:15.156Z</time>
      </trkpt>
      <trkpt lat="44.82664" lon="4.61446">
        <ele>442.3</ele>
        <time>2023-06-14T17:17:20.871Z</time>
      </trkpt>
      <trkpt lat="44.82661" lon="4.61437">
        <ele>441.7</ele>
        <time>2023-06-14T17:17:24.018Z</time>
      </trkpt>
      <trkpt lat="44.82655" lon="4.61428">
        <ele>439.6</ele>
        <time>2023-06-14T17:17:28.002Z</time>
      </trkpt>
      <trkpt lat="44.82642" lon="4.6142">
        <ele>434.6</ele>
        <time>2023-06-14T17:17:34.622Z</time>
      </trkpt>
      <trkpt lat="44.8264" lon="4.61419">
        <ele>433.7</ele>
        <time>2023-06-14T17:17:35.629Z</time>
      </trkpt>
      <trkpt lat="44.82627" lon="4.6141">
        <ele>428.5</ele>
        <time>2023-06-14T17:17:42.394Z</time>
      </trkpt>
      <trkpt lat="44.82622" lon="4.61404">
        <ele>427</ele>
        <time>2023-06-14T17:17:45.377Z</time>
      </trkpt>
      <trkpt lat="44.82614" lon="4.6139">
        <ele>425.1</ele>
        <time>2023-06-14T17:17:51.092Z</time>
      </trkpt>
      <trkpt lat="44.82612" lon="4.61383">
        <ele>424.9</ele>
        <time>2023-06-14T17:17:53.477Z</time>
      </trkpt>
      <trkpt lat="44.82612" lon="4.61372">
        <ele>426.3</ele>
        <time>2023-06-14T17:17:56.988Z</time>
      </trkpt>
      <trkpt lat="44.82611" lon="4.61369">
        <ele>426.2</ele>
        <time>2023-06-14T17:17:58.032Z</time>
      </trkpt>
      <trkpt lat="44.82609" lon="4.61346">
        <ele>428.2</ele>
        <time>2023-06-14T17:18:05.386Z</time>
      </trkpt>
      <trkpt lat="44.82602" lon="4.61321">
        <ele>428.3</ele>
        <time>2023-06-14T17:18:13.860Z</time>
      </trkpt>
      <trkpt lat="44.82601" lon="4.61318">
        <ele>428.1</ele>
        <time>2023-06-14T17:18:14.908Z</time>
      </trkpt>
      <trkpt lat="44.826" lon="4.61316">
        <ele>428</ele>
        <time>2023-06-14T17:18:15.683Z</time>
      </trkpt>
      <trkpt lat="44.82599" lon="4.61297">
        <ele>428.8</ele>
        <time>2023-06-14T17:18:21.699Z</time>
      </trkpt>
      <trkpt lat="44.82604" lon="4.61282">
        <ele>431.8</ele>
        <time>2023-06-14T17:18:27.061Z</time>
      </trkpt>
      <trkpt lat="44.82605" lon="4.61279">
        <ele>432.3</ele>
        <time>2023-06-14T17:18:28.131Z</time>
      </trkpt>
      <trkpt lat="44.82611" lon="4.6126">
        <ele>435.9</ele>
        <time>2023-06-14T17:18:34.848Z</time>
      </trkpt>
      <trkpt lat="44.82612" lon="4.61257">
        <ele>436.5</ele>
        <time>2023-06-14T17:18:35.917Z</time>
      </trkpt>
      <trkpt lat="44.82611" lon="4.61232">
        <ele>440.3</ele>
        <time>2023-06-14T17:18:43.966Z</time>
      </trkpt>
      <trkpt lat="44.8261" lon="4.61229">
        <ele>440.5</ele>
        <time>2023-06-14T17:18:45.010Z</time>
      </trkpt>
      <trkpt lat="44.82608" lon="4.61209">
        <ele>444.1</ele>
        <time>2023-06-14T17:18:51.541Z</time>
      </trkpt>
      <trkpt lat="44.82602" lon="4.61186">
        <ele>446.8</ele>
        <time>2023-06-14T17:18:59.347Z</time>
      </trkpt>
      <trkpt lat="44.82595" lon="4.61164">
        <ele>448.3</ele>
        <time>2023-06-14T17:19:06.976Z</time>
      </trkpt>
      <trkpt lat="44.82594" lon="4.6116">
        <ele>448.3</ele>
        <time>2023-06-14T17:19:08.309Z</time>
      </trkpt>
      <trkpt lat="44.82594" lon="4.61154">
        <ele>448.9</ele>
        <time>2023-06-14T17:19:10.215Z</time>
      </trkpt>
      <trkpt lat="44.82593" lon="4.61137">
        <ele>450</ele>
        <time>2023-06-14T17:19:15.616Z</time>
      </trkpt>
      <trkpt lat="44.82589" lon="4.61113">
        <ele>451.3</ele>
        <time>2023-06-14T17:19:23.410Z</time>
      </trkpt>
      <trkpt lat="44.82588" lon="4.61107">
        <ele>451.6</ele>
        <time>2023-06-14T17:19:25.357Z</time>
      </trkpt>
      <trkpt lat="44.82588" lon="4.61092">
        <ele>453.1</ele>
        <time>2023-06-14T17:19:30.128Z</time>
      </trkpt>
      <trkpt lat="44.82588" lon="4.6108">
        <ele>453.4</ele>
        <time>2023-06-14T17:19:33.915Z</time>
      </trkpt>
      <trkpt lat="44.82586" lon="4.61049">
        <ele>449.1</ele>
        <time>2023-06-14T17:19:43.883Z</time>
      </trkpt>
      <trkpt lat="44.82585" lon="4.61044">
        <ele>448.3</ele>
        <time>2023-06-14T17:19:45.546Z</time>
      </trkpt>
      <trkpt lat="44.82581" lon="4.61027">
        <ele>445.1</ele>
        <time>2023-06-14T17:19:51.341Z</time>
      </trkpt>
      <trkpt lat="44.82583" lon="4.61007">
        <ele>443.6</ele>
        <time>2023-06-14T17:19:57.736Z</time>
      </trkpt>
      <trkpt lat="44.82591" lon="4.6099">
        <ele>440</ele>
        <time>2023-06-14T17:20:04.333Z</time>
      </trkpt>
      <trkpt lat="44.82592" lon="4.60987">
        <ele>439.3</ele>
        <time>2023-06-14T17:20:05.420Z</time>
      </trkpt>
      <trkpt lat="44.82599" lon="4.60971">
        <ele>434.2</ele>
        <time>2023-06-14T17:20:11.691Z</time>
      </trkpt>
      <trkpt lat="44.826" lon="4.60965">
        <ele>432.6</ele>
        <time>2023-06-14T17:20:13.737Z</time>
      </trkpt>
      <trkpt lat="44.826" lon="4.60959">
        <ele>430.7</ele>
        <time>2023-06-14T17:20:15.780Z</time>
      </trkpt>
      <trkpt lat="44.82599" lon="4.60946">
        <ele>426.9</ele>
        <time>2023-06-14T17:20:20.168Z</time>
      </trkpt>
      <trkpt lat="44.82598" lon="4.60943">
        <ele>426.2</ele>
        <time>2023-06-14T17:20:21.252Z</time>
      </trkpt>
      <trkpt lat="44.82599" lon="4.60922">
        <ele>420</ele>
        <time>2023-06-14T17:20:28.338Z</time>
      </trkpt>
      <trkpt lat="44.82602" lon="4.60915">
        <ele>417.4</ele>
        <time>2023-06-14T17:20:31.120Z</time>
      </trkpt>
      <trkpt lat="44.82608" lon="4.60911">
        <ele>415.7</ele>
        <time>2023-06-14T17:20:34.148Z</time>
      </trkpt>
      <trkpt lat="44.82616" lon="4.60909">
        <ele>414.6</ele>
        <time>2023-06-14T17:20:37.785Z</time>
      </trkpt>
      <trkpt lat="44.82623" lon="4.6091">
        <ele>414.4</ele>
        <time>2023-06-14T17:20:40.918Z</time>
      </trkpt>
      <trkpt lat="44.82627" lon="4.6091">
        <ele>414.1</ele>
        <time>2023-06-14T17:20:42.697Z</time>
      </trkpt>
      <trkpt lat="44.82636" lon="4.60909">
        <ele>412.9</ele>
        <time>2023-06-14T17:20:46.738Z</time>
      </trkpt>
      <trkpt lat="44.82647" lon="4.60909">
        <ele>412</ele>
        <time>2023-06-14T17:20:51.643Z</time>
      </trkpt>
      <trkpt lat="44.82654" lon="4.60907">
        <ele>410.8</ele>
        <time>2023-06-14T17:20:54.859Z</time>
      </trkpt>
      <trkpt lat="44.8267" lon="4.60911">
        <ele>411.3</ele>
        <time>2023-06-14T17:21:02.085Z</time>
      </trkpt>
      <trkpt lat="44.8268" lon="4.60915">
        <ele>414</ele>
        <time>2023-06-14T17:21:06.836Z</time>
      </trkpt>
      <trkpt lat="44.8269" lon="4.60927">
        <ele>420.2</ele>
        <time>2023-06-14T17:21:13.190Z</time>
      </trkpt>
      <trkpt lat="44.82691" lon="4.60928">
        <ele>420.4</ele>
        <time>2023-06-14T17:21:13.740Z</time>
      </trkpt>
      <trkpt lat="44.82697" lon="4.60937">
        <ele>424.7</ele>
        <time>2023-06-14T17:21:18.002Z</time>
      </trkpt>
      <trkpt lat="44.82704" lon="4.6095">
        <ele>430.6</ele>
        <time>2023-06-14T17:21:23.657Z</time>
      </trkpt>
      <trkpt lat="44.8271" lon="4.60957">
        <ele>434.3</ele>
        <time>2023-06-14T17:21:27.426Z</time>
      </trkpt>
      <trkpt lat="44.82716" lon="4.60965">
        <ele>438</ele>
        <time>2023-06-14T17:21:31.389Z</time>
      </trkpt>
      <trkpt lat="44.82724" lon="4.6098">
        <ele>444.2</ele>
        <time>2023-06-14T17:21:37.797Z</time>
      </trkpt>
      <trkpt lat="44.82732" lon="4.60986">
        <ele>447.6</ele>
        <time>2023-06-14T17:21:42.061Z</time>
      </trkpt>
      <trkpt lat="44.82736" lon="4.60987">
        <ele>448.7</ele>
        <time>2023-06-14T17:21:43.910Z</time>
      </trkpt>
      <trkpt lat="44.82745" lon="4.60982">
        <ele>448.3</ele>
        <time>2023-06-14T17:21:48.216Z</time>
      </trkpt>
      <trkpt lat="44.82755" lon="4.60978">
        <ele>447.3</ele>
        <time>2023-06-14T17:21:52.859Z</time>
      </trkpt>
      <trkpt lat="44.82756" lon="4.60977">
        <ele>446.8</ele>
        <time>2023-06-14T17:21:53.440Z</time>
      </trkpt>
      <trkpt lat="44.82768" lon="4.60975">
        <ele>444.8</ele>
        <time>2023-06-14T17:21:58.874Z</time>
      </trkpt>
      <trkpt lat="44.82774" lon="4.60971">
        <ele>443</ele>
        <time>2023-06-14T17:22:01.912Z</time>
      </trkpt>
      <trkpt lat="44.82777" lon="4.6097">
        <ele>442.7</ele>
        <time>2023-06-14T17:22:03.287Z</time>
      </trkpt>
      <trkpt lat="44.82783" lon="4.60967">
        <ele>440.9</ele>
        <time>2023-06-14T17:22:06.208Z</time>
      </trkpt>
      <trkpt lat="44.82788" lon="4.60964">
        <ele>439.7</ele>
        <time>2023-06-14T17:22:08.675Z</time>
      </trkpt>
      <trkpt lat="44.8279" lon="4.60961">
        <ele>438.7</ele>
        <time>2023-06-14T17:22:10.035Z</time>
      </trkpt>
      <trkpt lat="44.82793" lon="4.60955">
        <ele>436.4</ele>
        <time>2023-06-14T17:22:12.516Z</time>
      </trkpt>
      <trkpt lat="44.82795" lon="4.60953">
        <ele>435.8</ele>
        <time>2023-06-14T17:22:13.639Z</time>
      </trkpt>
      <trkpt lat="44.82803" lon="4.60938">
        <ele>430.5</ele>
        <time>2023-06-14T17:22:19.934Z</time>
      </trkpt>
      <trkpt lat="44.82805" lon="4.60936">
        <ele>429.5</ele>
        <time>2023-06-14T17:22:21.088Z</time>
      </trkpt>
      <trkpt lat="44.82807" lon="4.60933">
        <ele>428.6</ele>
        <time>2023-06-14T17:22:22.443Z</time>
      </trkpt>
      <trkpt lat="44.82812" lon="4.60926">
        <ele>426.2</ele>
        <time>2023-06-14T17:22:25.711Z</time>
      </trkpt>
      <trkpt lat="44.82823" lon="4.6092">
        <ele>423.5</ele>
        <time>2023-06-14T17:22:31.068Z</time>
      </trkpt>
      <trkpt lat="44.82832" lon="4.6092">
        <ele>422.8</ele>
        <time>2023-06-14T17:22:35.080Z</time>
      </trkpt>
      <trkpt lat="44.82836" lon="4.60919">
        <ele>422.5</ele>
        <time>2023-06-14T17:22:36.893Z</time>
      </trkpt>
      <trkpt lat="44.82839" lon="4.60919">
        <ele>422.7</ele>
        <time>2023-06-14T17:22:38.222Z</time>
      </trkpt>
      <trkpt lat="44.82844" lon="4.6092">
        <ele>423.3</ele>
        <time>2023-06-14T17:22:40.487Z</time>
      </trkpt>
      <trkpt lat="44.82846" lon="4.60921">
        <ele>423.7</ele>
        <time>2023-06-14T17:22:41.444Z</time>
      </trkpt>
      <trkpt lat="44.82854" lon="4.60929">
        <ele>425.9</ele>
        <time>2023-06-14T17:22:45.889Z</time>
      </trkpt>
      <trkpt lat="44.82858" lon="4.60933">
        <ele>426.9</ele>
        <time>2023-06-14T17:22:48.103Z</time>
      </trkpt>
      <trkpt lat="44.82866" lon="4.60945">
        <ele>429.3</ele>
        <time>2023-06-14T17:22:53.384Z</time>
      </trkpt>
      <trkpt lat="44.82872" lon="4.60954">
        <ele>430.8</ele>
        <time>2023-06-14T17:22:57.326Z</time>
      </trkpt>
      <trkpt lat="44.82877" lon="4.60962">
        <ele>431.8</ele>
        <time>2023-06-14T17:23:00.713Z</time>
      </trkpt>
      <trkpt lat="44.82886" lon="4.60975">
        <ele>433</ele>
        <time>2023-06-14T17:23:06.463Z</time>
      </trkpt>
      <trkpt lat="44.8289" lon="4.60979">
        <ele>433.2</ele>
        <time>2023-06-14T17:23:08.647Z</time>
      </trkpt>
      <trkpt lat="44.82895" lon="4.60985">
        <ele>433.2</ele>
        <time>2023-06-14T17:23:11.565Z</time>
      </trkpt>
      <trkpt lat="44.82898" lon="4.60988">
        <ele>433</ele>
        <time>2023-06-14T17:23:13.202Z</time>
      </trkpt>
      <trkpt lat="44.82902" lon="4.60991">
        <ele>432.8</ele>
        <time>2023-06-14T17:23:15.221Z</time>
      </trkpt>
      <trkpt lat="44.82905" lon="4.60992">
        <ele>432.5</ele>
        <time>2023-06-14T17:23:16.600Z</time>
      </trkpt>
      <trkpt lat="44.82906" lon="4.60993">
        <ele>432.3</ele>
        <time>2023-06-14T17:23:17.148Z</time>
      </trkpt>
      <trkpt lat="44.82915" lon="4.61001">
        <ele>431.3</ele>
        <time>2023-06-14T17:23:21.895Z</time>
      </trkpt>
      <trkpt lat="44.82923" lon="4.6101">
        <ele>434.6</ele>
        <time>2023-06-14T17:23:26.630Z</time>
      </trkpt>
      <trkpt lat="44.82924" lon="4.61012">
        <ele>435.3</ele>
        <time>2023-06-14T17:23:27.455Z</time>
      </trkpt>
      <trkpt lat="44.82925" lon="4.61013">
        <ele>435.8</ele>
        <time>2023-06-14T17:23:28.039Z</time>
      </trkpt>
      <trkpt lat="44.82927" lon="4.61015">
        <ele>436.6</ele>
        <time>2023-06-14T17:23:29.170Z</time>
      </trkpt>
      <trkpt lat="44.82928" lon="4.61017">
        <ele>437.3</ele>
        <time>2023-06-14T17:23:29.991Z</time>
      </trkpt>
      <trkpt lat="44.82937" lon="4.6103">
        <ele>441.7</ele>
        <time>2023-06-14T17:23:35.989Z</time>
      </trkpt>
      <trkpt lat="44.82946" lon="4.61044">
        <ele>445.7</ele>
        <time>2023-06-14T17:23:42.156Z</time>
      </trkpt>
      <trkpt lat="44.82948" lon="4.61046">
        <ele>446.6</ele>
        <time>2023-06-14T17:23:43.304Z</time>
      </trkpt>
      <trkpt lat="44.82951" lon="4.61049">
        <ele>447.6</ele>
        <time>2023-06-14T17:23:44.988Z</time>
      </trkpt>
      <trkpt lat="44.82965" lon="4.61059">
        <ele>451.8</ele>
        <time>2023-06-14T17:23:52.167Z</time>
      </trkpt>
      <trkpt lat="44.82969" lon="4.61062">
        <ele>452.8</ele>
        <time>2023-06-14T17:23:54.222Z</time>
      </trkpt>
      <trkpt lat="44.82979" lon="4.61069">
        <ele>455.5</ele>
        <time>2023-06-14T17:23:59.300Z</time>
      </trkpt>
      <trkpt lat="44.82982" lon="4.6107">
        <ele>456</ele>
        <time>2023-06-14T17:24:00.690Z</time>
      </trkpt>
      <trkpt lat="44.8299" lon="4.61075">
        <ele>457.9</ele>
        <time>2023-06-14T17:24:04.649Z</time>
      </trkpt>
      <trkpt lat="44.82997" lon="4.61081">
        <ele>459.4</ele>
        <time>2023-06-14T17:24:08.345Z</time>
      </trkpt>
      <trkpt lat="44.83007" lon="4.6109">
        <ele>464.2</ele>
        <time>2023-06-14T17:24:13.957Z</time>
      </trkpt>
      <trkpt lat="44.8301" lon="4.61092">
        <ele>465.7</ele>
        <time>2023-06-14T17:24:15.548Z</time>
      </trkpt>
      <trkpt lat="44.83019" lon="4.61104">
        <ele>471.4</ele>
        <time>2023-06-14T17:24:21.507Z</time>
      </trkpt>
      <trkpt lat="44.8302" lon="4.61107">
        <ele>472.1</ele>
        <time>2023-06-14T17:24:22.594Z</time>
      </trkpt>
      <trkpt lat="44.83029" lon="4.6112">
        <ele>477.2</ele>
        <time>2023-06-14T17:24:28.672Z</time>
      </trkpt>
      <trkpt lat="44.8303" lon="4.61122">
        <ele>477.8</ele>
        <time>2023-06-14T17:24:29.477Z</time>
      </trkpt>
      <trkpt lat="44.83038" lon="4.61132">
        <ele>482</ele>
        <time>2023-06-14T17:24:34.518Z</time>
      </trkpt>
      <trkpt lat="44.8304" lon="4.61136">
        <ele>483.1</ele>
        <time>2023-06-14T17:24:36.128Z</time>
      </trkpt>
      <trkpt lat="44.83049" lon="4.61142">
        <ele>487</ele>
        <time>2023-06-14T17:24:40.819Z</time>
      </trkpt>
      <trkpt lat="44.83062" lon="4.61139">
        <ele>491.5</ele>
        <time>2023-06-14T17:24:46.951Z</time>
      </trkpt>
      <trkpt lat="44.8307" lon="4.61128">
        <ele>493.9</ele>
        <time>2023-06-14T17:24:52.011Z</time>
      </trkpt>
      <trkpt lat="44.83072" lon="4.61122">
        <ele>494.4</ele>
        <time>2023-06-14T17:24:54.110Z</time>
      </trkpt>
      <trkpt lat="44.83073" lon="4.61119">
        <ele>494.8</ele>
        <time>2023-06-14T17:24:55.170Z</time>
      </trkpt>
      <trkpt lat="44.83074" lon="4.611">
        <ele>494.4</ele>
        <time>2023-06-14T17:25:01.183Z</time>
      </trkpt>
      <trkpt lat="44.83073" lon="4.6108">
        <ele>493.4</ele>
        <time>2023-06-14T17:25:07.520Z</time>
      </trkpt>
      <trkpt lat="44.83073" lon="4.61073">
        <ele>493.5</ele>
        <time>2023-06-14T17:25:09.725Z</time>
      </trkpt>
      <trkpt lat="44.83077" lon="4.61056">
        <ele>495.4</ele>
        <time>2023-06-14T17:25:15.428Z</time>
      </trkpt>
      <trkpt lat="44.83078" lon="4.61052">
        <ele>495.9</ele>
        <time>2023-06-14T17:25:16.780Z</time>
      </trkpt>
      <trkpt lat="44.8308" lon="4.6104">
        <ele>497</ele>
        <time>2023-06-14T17:25:20.693Z</time>
      </trkpt>
      <trkpt lat="44.8308" lon="4.61027">
        <ele>497.1</ele>
        <time>2023-06-14T17:25:24.791Z</time>
      </trkpt>
      <trkpt lat="44.83079" lon="4.61021">
        <ele>496.7</ele>
        <time>2023-06-14T17:25:26.742Z</time>
      </trkpt>
      <trkpt lat="44.83076" lon="4.61004">
        <ele>495.4</ele>
        <time>2023-06-14T17:25:32.291Z</time>
      </trkpt>
      <trkpt lat="44.8307" lon="4.60983">
        <ele>493</ele>
        <time>2023-06-14T17:25:39.496Z</time>
      </trkpt>
      <trkpt lat="44.83069" lon="4.60977">
        <ele>492.8</ele>
        <time>2023-06-14T17:25:41.441Z</time>
      </trkpt>
      <trkpt lat="44.83066" lon="4.60959">
        <ele>492.1</ele>
        <time>2023-06-14T17:25:47.280Z</time>
      </trkpt>
      <trkpt lat="44.83065" lon="4.60947">
        <ele>492.2</ele>
        <time>2023-06-14T17:25:51.086Z</time>
      </trkpt>
      <trkpt lat="44.83065" lon="4.60939">
        <ele>492.5</ele>
        <time>2023-06-14T17:25:53.617Z</time>
      </trkpt>
      <trkpt lat="44.83066" lon="4.60918">
        <ele>493.9</ele>
        <time>2023-06-14T17:26:00.273Z</time>
      </trkpt>
      <trkpt lat="44.83066" lon="4.60913">
        <ele>493.6</ele>
        <time>2023-06-14T17:26:01.857Z</time>
      </trkpt>
      <trkpt lat="44.83066" lon="4.60907">
        <ele>493.1</ele>
        <time>2023-06-14T17:26:03.759Z</time>
      </trkpt>
      <trkpt lat="44.83065" lon="4.60893">
        <ele>491.6</ele>
        <time>2023-06-14T17:26:08.237Z</time>
      </trkpt>
      <trkpt lat="44.83063" lon="4.60884">
        <ele>490.3</ele>
        <time>2023-06-14T17:26:11.261Z</time>
      </trkpt>
      <trkpt lat="44.83061" lon="4.60868">
        <ele>488.3</ele>
        <time>2023-06-14T17:26:16.440Z</time>
      </trkpt>
      <trkpt lat="44.83059" lon="4.60849">
        <ele>486.5</ele>
        <time>2023-06-14T17:26:22.542Z</time>
      </trkpt>
      <trkpt lat="44.83059" lon="4.60844">
        <ele>486.1</ele>
        <time>2023-06-14T17:26:24.129Z</time>
      </trkpt>
      <trkpt lat="44.83059" lon="4.60841">
        <ele>486</ele>
        <time>2023-06-14T17:26:25.077Z</time>
      </trkpt>
      <trkpt lat="44.83058" lon="4.60823">
        <ele>483.7</ele>
        <time>2023-06-14T17:26:30.841Z</time>
      </trkpt>
      <trkpt lat="44.83057" lon="4.60817">
        <ele>482.5</ele>
        <time>2023-06-14T17:26:32.839Z</time>
      </trkpt>
      <trkpt lat="44.83061" lon="4.60794">
        <ele>480.5</ele>
        <time>2023-06-14T17:26:40.351Z</time>
      </trkpt>
      <trkpt lat="44.83064" lon="4.60789">
        <ele>480.7</ele>
        <time>2023-06-14T17:26:42.417Z</time>
      </trkpt>
      <trkpt lat="44.83073" lon="4.60778">
        <ele>481.2</ele>
        <time>2023-06-14T17:26:47.721Z</time>
      </trkpt>
      <trkpt lat="44.83076" lon="4.60774">
        <ele>481.3</ele>
        <time>2023-06-14T17:26:49.555Z</time>
      </trkpt>
      <trkpt lat="44.83087" lon="4.60764">
        <ele>480.7</ele>
        <time>2023-06-14T17:26:55.379Z</time>
      </trkpt>
      <trkpt lat="44.8309" lon="4.60761">
        <ele>479.9</ele>
        <time>2023-06-14T17:26:57.047Z</time>
      </trkpt>
      <trkpt lat="44.83098" lon="4.60751">
        <ele>477.1</ele>
        <time>2023-06-14T17:27:01.931Z</time>
      </trkpt>
      <trkpt lat="44.83101" lon="4.60747">
        <ele>475.9</ele>
        <time>2023-06-14T17:27:03.823Z</time>
      </trkpt>
      <trkpt lat="44.83109" lon="4.60733">
        <ele>472.6</ele>
        <time>2023-06-14T17:27:09.650Z</time>
      </trkpt>
      <trkpt lat="44.83112" lon="4.60729">
        <ele>471.6</ele>
        <time>2023-06-14T17:27:11.536Z</time>
      </trkpt>
      <trkpt lat="44.83114" lon="4.60724">
        <ele>470.4</ele>
        <time>2023-06-14T17:27:13.404Z</time>
      </trkpt>
      <trkpt lat="44.83119" lon="4.60712">
        <ele>467.4</ele>
        <time>2023-06-14T17:27:17.948Z</time>
      </trkpt>
      <trkpt lat="44.8312" lon="4.6071">
        <ele>467.1</ele>
        <time>2023-06-14T17:27:18.733Z</time>
      </trkpt>
      <trkpt lat="44.83127" lon="4.60694">
        <ele>463.5</ele>
        <time>2023-06-14T17:27:24.828Z</time>
      </trkpt>
      <trkpt lat="44.83131" lon="4.60688">
        <ele>461.9</ele>
        <time>2023-06-14T17:27:27.510Z</time>
      </trkpt>
      <trkpt lat="44.83137" lon="4.60682">
        <ele>460</ele>
        <time>2023-06-14T17:27:30.864Z</time>
      </trkpt>
      <trkpt lat="44.83143" lon="4.6068">
        <ele>459</ele>
        <time>2023-06-14T17:27:33.634Z</time>
      </trkpt>
      <trkpt lat="44.83156" lon="4.60681">
        <ele>457.7</ele>
        <time>2023-06-14T17:27:39.447Z</time>
      </trkpt>
      <trkpt lat="44.83169" lon="4.60688">
        <ele>457.3</ele>
        <time>2023-06-14T17:27:45.641Z</time>
      </trkpt>
      <trkpt lat="44.8318" lon="4.607">
        <ele>458.5</ele>
        <time>2023-06-14T17:27:51.839Z</time>
      </trkpt>
      <trkpt lat="44.83184" lon="4.60703">
        <ele>458.8</ele>
        <time>2023-06-14T17:27:53.861Z</time>
      </trkpt>
      <trkpt lat="44.83189" lon="4.60711">
        <ele>459.8</ele>
        <time>2023-06-14T17:27:57.249Z</time>
      </trkpt>
      <trkpt lat="44.83194" lon="4.60716">
        <ele>460.4</ele>
        <time>2023-06-14T17:27:59.982Z</time>
      </trkpt>
      <trkpt lat="44.83198" lon="4.60721">
        <ele>460.8</ele>
        <time>2023-06-14T17:28:02.366Z</time>
      </trkpt>
      <trkpt lat="44.83208" lon="4.60731">
        <ele>462</ele>
        <time>2023-06-14T17:28:07.837Z</time>
      </trkpt>
      <trkpt lat="44.8321" lon="4.60733">
        <ele>462.3</ele>
        <time>2023-06-14T17:28:08.933Z</time>
      </trkpt>
      <trkpt lat="44.83223" lon="4.60747">
        <ele>463.9</ele>
        <time>2023-06-14T17:28:16.236Z</time>
      </trkpt>
      <trkpt lat="44.83232" lon="4.60757">
        <ele>465.7</ele>
        <time>2023-06-14T17:28:21.387Z</time>
      </trkpt>
      <trkpt lat="44.83237" lon="4.60765">
        <ele>467.5</ele>
        <time>2023-06-14T17:28:24.819Z</time>
      </trkpt>
      <trkpt lat="44.83242" lon="4.60773">
        <ele>469.2</ele>
        <time>2023-06-14T17:28:28.252Z</time>
      </trkpt>
      <trkpt lat="44.83247" lon="4.60779">
        <ele>470.7</ele>
        <time>2023-06-14T17:28:31.234Z</time>
      </trkpt>
      <trkpt lat="44.83256" lon="4.6079">
        <ele>474.2</ele>
        <time>2023-06-14T17:28:36.712Z</time>
      </trkpt>
      <trkpt lat="44.83263" lon="4.60806">
        <ele>479.7</ele>
        <time>2023-06-14T17:28:43.026Z</time>
      </trkpt>
      <trkpt lat="44.83269" lon="4.60819">
        <ele>483.9</ele>
        <time>2023-06-14T17:28:48.198Z</time>
      </trkpt>
      <trkpt lat="44.83274" lon="4.60828">
        <ele>486.9</ele>
        <time>2023-06-14T17:28:51.996Z</time>
      </trkpt>
      <trkpt lat="44.83276" lon="4.60831">
        <ele>487.8</ele>
        <time>2023-06-14T17:28:53.349Z</time>
      </trkpt>
      <trkpt lat="44.83282" lon="4.60843">
        <ele>490.5</ele>
        <time>2023-06-14T17:28:58.102Z</time>
      </trkpt>
      <trkpt lat="44.83284" lon="4.60848">
        <ele>491.5</ele>
        <time>2023-06-14T17:28:59.955Z</time>
      </trkpt>
      <trkpt lat="44.83288" lon="4.60855">
        <ele>492.9</ele>
        <time>2023-06-14T17:29:02.845Z</time>
      </trkpt>
      <trkpt lat="44.83291" lon="4.60861">
        <ele>494.2</ele>
        <time>2023-06-14T17:29:05.213Z</time>
      </trkpt>
      <trkpt lat="44.833" lon="4.6087">
        <ele>496.7</ele>
        <time>2023-06-14T17:29:10.222Z</time>
      </trkpt>
      <trkpt lat="44.83303" lon="4.60871">
        <ele>497.3</ele>
        <time>2023-06-14T17:29:11.613Z</time>
      </trkpt>
      <trkpt lat="44.83318" lon="4.60868">
        <ele>498.8</ele>
        <time>2023-06-14T17:29:18.378Z</time>
      </trkpt>
      <trkpt lat="44.83321" lon="4.60866">
        <ele>499</ele>
        <time>2023-06-14T17:29:19.856Z</time>
      </trkpt>
      <trkpt lat="44.83326" lon="4.60859">
        <ele>498.6</ele>
        <time>2023-06-14T17:29:22.994Z</time>
      </trkpt>
      <trkpt lat="44.83331" lon="4.60851">
        <ele>498.1</ele>
        <time>2023-06-14T17:29:26.360Z</time>
      </trkpt>
      <trkpt lat="44.83336" lon="4.60841">
        <ele>497.3</ele>
        <time>2023-06-14T17:29:30.238Z</time>
      </trkpt>
      <trkpt lat="44.83339" lon="4.60836">
        <ele>496.8</ele>
        <time>2023-06-14T17:29:32.312Z</time>
      </trkpt>
      <trkpt lat="44.83341" lon="4.60831">
        <ele>496</ele>
        <time>2023-06-14T17:29:34.148Z</time>
      </trkpt>
      <trkpt lat="44.83342" lon="4.60828">
        <ele>495.5</ele>
        <time>2023-06-14T17:29:35.213Z</time>
      </trkpt>
      <trkpt lat="44.83356" lon="4.6081">
        <ele>492.9</ele>
        <time>2023-06-14T17:29:43.701Z</time>
      </trkpt>
      <trkpt lat="44.83361" lon="4.60803">
        <ele>491.9</ele>
        <time>2023-06-14T17:29:46.859Z</time>
      </trkpt>
      <trkpt lat="44.83369" lon="4.60795">
        <ele>491.3</ele>
        <time>2023-06-14T17:29:51.228Z</time>
      </trkpt>
      <trkpt lat="44.83371" lon="4.60794">
        <ele>491.3</ele>
        <time>2023-06-14T17:29:52.176Z</time>
      </trkpt>
      <trkpt lat="44.83385" lon="4.60794">
        <ele>492.9</ele>
        <time>2023-06-14T17:29:58.435Z</time>
      </trkpt>
      <trkpt lat="44.83386" lon="4.60794">
        <ele>493</ele>
        <time>2023-06-14T17:29:58.877Z</time>
      </trkpt>
      <trkpt lat="44.83395" lon="4.60796">
        <ele>494.5</ele>
        <time>2023-06-14T17:30:02.973Z</time>
      </trkpt>
      <trkpt lat="44.83405" lon="4.60801">
        <ele>496.4</ele>
        <time>2023-06-14T17:30:07.754Z</time>
      </trkpt>
      <trkpt lat="44.8341" lon="4.60806">
        <ele>497.7</ele>
        <time>2023-06-14T17:30:10.530Z</time>
      </trkpt>
      <trkpt lat="44.83422" lon="4.6081">
        <ele>498.2</ele>
        <time>2023-06-14T17:30:16.017Z</time>
      </trkpt>
      <trkpt lat="44.83427" lon="4.6081">
        <ele>497.6</ele>
        <time>2023-06-14T17:30:18.252Z</time>
      </trkpt>
      <trkpt lat="44.83432" lon="4.6081">
        <ele>496.9</ele>
        <time>2023-06-14T17:30:20.488Z</time>
      </trkpt>
      <trkpt lat="44.8344" lon="4.60809">
        <ele>495.7</ele>
        <time>2023-06-14T17:30:24.097Z</time>
      </trkpt>
      <trkpt lat="44.83442" lon="4.60809">
        <ele>495.5</ele>
        <time>2023-06-14T17:30:24.989Z</time>
      </trkpt>
      <trkpt lat="44.83455" lon="4.60804">
        <ele>493.4</ele>
        <time>2023-06-14T17:30:31.039Z</time>
      </trkpt>
      <trkpt lat="44.83466" lon="4.60793">
        <ele>491.3</ele>
        <time>2023-06-14T17:30:37.094Z</time>
      </trkpt>
      <trkpt lat="44.83472" lon="4.60783">
        <ele>489.9</ele>
        <time>2023-06-14T17:30:41.258Z</time>
      </trkpt>
      <trkpt lat="44.83474" lon="4.60777">
        <ele>489.3</ele>
        <time>2023-06-14T17:30:43.366Z</time>
      </trkpt>
      <trkpt lat="44.8348" lon="4.60766">
        <ele>488.1</ele>
        <time>2023-06-14T17:30:47.767Z</time>
      </trkpt>
      <trkpt lat="44.83481" lon="4.60765">
        <ele>488</ele>
        <time>2023-06-14T17:30:48.313Z</time>
      </trkpt>
      <trkpt lat="44.83483" lon="4.60762">
        <ele>487.7</ele>
        <time>2023-06-14T17:30:49.620Z</time>
      </trkpt>
      <trkpt lat="44.83483" lon="4.60762">
        <ele>487.7</ele>
        <time>2023-06-14T17:30:49.620Z</time>
      </trkpt>
      <trkpt lat="44.83481" lon="4.60763">
        <ele>487.9</ele>
        <time>2023-06-14T17:30:50.573Z</time>
      </trkpt>
      <trkpt lat="44.83481" lon="4.60763">
        <ele>487.9</ele>
        <time>2023-06-14T17:30:50.573Z</time>
      </trkpt>
      <trkpt lat="44.83481" lon="4.60763">
        <ele>487.9</ele>
        <time>2023-06-14T17:30:50.573Z</time>
      </trkpt>
      <trkpt lat="44.83481" lon="4.60763">
        <ele>487.9</ele>
        <time>2023-06-14T17:30:50.573Z</time>
      </trkpt>
      <trkpt lat="44.83481" lon="4.60763">
        <ele>487.9</ele>
        <time>2023-06-14T17:30:50.573Z</time>
      </trkpt>
      <trkpt lat="44.83481" lon="4.60762">
        <ele>487.8</ele>
        <time>2023-06-14T17:30:50.892Z</time>
      </trkpt>
      <trkpt lat="44.83481" lon="4.60762">
        <ele>487.8</ele>
        <time>2023-06-14T17:30:50.892Z</time>
      </trkpt>
      <trkpt lat="44.8348" lon="4.60762">
        <ele>487.9</ele>
        <time>2023-06-14T17:30:51.332Z</time>
      </trkpt>
      <trkpt lat="44.8348" lon="4.60762">
        <ele>487.9</ele>
        <time>2023-06-14T17:30:51.332Z</time>
      </trkpt>
      <trkpt lat="44.8348" lon="4.60762">
        <ele>487.9</ele>
        <time>2023-06-14T17:30:51.332Z</time>
      </trkpt>
      <trkpt lat="44.8348" lon="4.60762">
        <ele>487.9</ele>
        <time>2023-06-14T17:30:51.332Z</time>
      </trkpt>
      <trkpt lat="44.8348" lon="4.60762">
        <ele>487.9</ele>
        <time>2023-06-14T17:30:51.332Z</time>
      </trkpt>
      <trkpt lat="44.8348" lon="4.60762">
        <ele>487.9</ele>
        <time>2023-06-14T17:30:51.332Z</time>
      </trkpt>
      <trkpt lat="44.8348" lon="4.60762">
        <ele>487.9</ele>
        <time>2023-06-14T17:30:51.332Z</time>
      </trkpt>
      <trkpt lat="44.8348" lon="4.60762">
        <ele>487.9</ele>
        <time>2023-06-14T17:30:51.332Z</time>
      </trkpt>
      <trkpt lat="44.8348" lon="4.60762">
        <ele>487.9</ele>
        <time>2023-06-14T17:30:51.332Z</time>
      </trkpt>
      <trkpt lat="44.8348" lon="4.60762">
        <ele>487.9</ele>
        <time>2023-06-14T17:30:51.332Z</time>
      </trkpt>
      <trkpt lat="44.8348" lon="4.60762">
        <ele>487.9</ele>
        <time>2023-06-14T17:30:51.332Z</time>
      </trkpt>
      <trkpt lat="44.83481" lon="4.60762">
        <ele>487.8</ele>
        <time>2023-06-14T17:30:51.773Z</time>
      </trkpt>
      <trkpt lat="44.83481" lon="4.60762">
        <ele>487.8</ele>
        <time>2023-06-14T17:30:51.773Z</time>
      </trkpt>
      <trkpt lat="44.8348" lon="4.60763">
        <ele>488</ele>
        <time>2023-06-14T17:30:52.318Z</time>
      </trkpt>
      <trkpt lat="44.83481" lon="4.60763">
        <ele>487.9</ele>
        <time>2023-06-14T17:30:52.759Z</time>
      </trkpt>
      <trkpt lat="44.83481" lon="4.60763">
        <ele>487.9</ele>
        <time>2023-06-14T17:30:52.759Z</time>
      </trkpt>
      <trkpt lat="44.83481" lon="4.60763">
        <ele>487.9</ele>
        <time>2023-06-14T17:30:52.759Z</time>
      </trkpt>
      <trkpt lat="44.83481" lon="4.60763">
        <ele>487.9</ele>
        <time>2023-06-14T17:30:52.759Z</time>
      </trkpt>
      <trkpt lat="44.8348" lon="4.60763">
        <ele>488</ele>
        <time>2023-06-14T17:30:53.199Z</time>
      </trkpt>
      <trkpt lat="44.8348" lon="4.60763">
        <ele>488</ele>
        <time>2023-06-14T17:30:53.199Z</time>
      </trkpt>
      <trkpt lat="44.8348" lon="4.60763">
        <ele>488</ele>
        <time>2023-06-14T17:30:53.199Z</time>
      </trkpt>
      <trkpt lat="44.8348" lon="4.60763">
        <ele>488</ele>
        <time>2023-06-14T17:30:53.199Z</time>
      </trkpt>
      <trkpt lat="44.8348" lon="4.60763">
        <ele>488</ele>
        <time>2023-06-14T17:30:53.199Z</time>
      </trkpt>
      <trkpt lat="44.8348" lon="4.60763">
        <ele>488</ele>
        <time>2023-06-14T17:30:53.199Z</time>
      </trkpt>
      <trkpt lat="44.8348" lon="4.60763">
        <ele>488</ele>
        <time>2023-06-14T17:30:53.199Z</time>
      </trkpt>
      <trkpt lat="44.8348" lon="4.60763">
        <ele>488</ele>
        <time>2023-06-14T17:30:53.199Z</time>
      </trkpt>
      <trkpt lat="44.8348" lon="4.60763">
        <ele>488</ele>
        <time>2023-06-14T17:30:53.199Z</time>
      </trkpt>
      <trkpt lat="44.83481" lon="4.60763">
        <ele>487.9</ele>
        <time>2023-06-14T17:30:53.640Z</time>
      </trkpt>
      <trkpt lat="44.83481" lon="4.60763">
        <ele>487.9</ele>
        <time>2023-06-14T17:30:53.640Z</time>
      </trkpt>
      <trkpt lat="44.83481" lon="4.60763">
        <ele>487.9</ele>
        <time>2023-06-14T17:30:53.640Z</time>
      </trkpt>
      <trkpt lat="44.8348" lon="4.60763">
        <ele>488</ele>
        <time>2023-06-14T17:30:54.080Z</time>
      </trkpt>
      <trkpt lat="44.8348" lon="4.60763">
        <ele>488</ele>
        <time>2023-06-14T17:30:54.080Z</time>
      </trkpt>
      <trkpt lat="44.8348" lon="4.60763">
        <ele>488</ele>
        <time>2023-06-14T17:30:54.080Z</time>
      </trkpt>
      <trkpt lat="44.8348" lon="4.60762">
        <ele>487.9</ele>
        <time>2023-06-14T17:30:54.399Z</time>
      </trkpt>
      <trkpt lat="44.8348" lon="4.60763">
        <ele>488</ele>
        <time>2023-06-14T17:30:54.718Z</time>
      </trkpt>
      <trkpt lat="44.8348" lon="4.60763">
        <ele>488</ele>
        <time>2023-06-14T17:30:54.718Z</time>
      </trkpt>
      <trkpt lat="44.8348" lon="4.60763">
        <ele>488</ele>
        <time>2023-06-14T17:30:54.718Z</time>
      </trkpt>
      <trkpt lat="44.8348" lon="4.60763">
        <ele>488</ele>
        <time>2023-06-14T17:30:54.718Z</time>
      </trkpt>
      <trkpt lat="44.8348" lon="4.60762">
        <ele>487.9</ele>
        <time>2023-06-14T17:30:55.036Z</time>
      </trkpt>
      <trkpt lat="44.8348" lon="4.60761">
        <ele>487.8</ele>
        <time>2023-06-14T17:30:55.355Z</time>
      </trkpt>
      <trkpt lat="44.8348" lon="4.60761">
        <ele>487.8</ele>
        <time>2023-06-14T17:30:55.355Z</time>
      </trkpt>
      <trkpt lat="44.8348" lon="4.60762">
        <ele>487.9</ele>
        <time>2023-06-14T17:30:55.674Z</time>
      </trkpt>
      <trkpt lat="44.8348" lon="4.60762">
        <ele>487.9</ele>
        <time>2023-06-14T17:30:55.674Z</time>
      </trkpt>
      <trkpt lat="44.8348" lon="4.60761">
        <ele>487.8</ele>
        <time>2023-06-14T17:30:55.993Z</time>
      </trkpt>
      <trkpt lat="44.8348" lon="4.60761">
        <ele>487.8</ele>
        <time>2023-06-14T17:30:55.993Z</time>
      </trkpt>
      <trkpt lat="44.8348" lon="4.60761">
        <ele>487.8</ele>
        <time>2023-06-14T17:30:55.993Z</time>
      </trkpt>
      <trkpt lat="44.8348" lon="4.60761">
        <ele>487.8</ele>
        <time>2023-06-14T17:30:55.993Z</time>
      </trkpt>
      <trkpt lat="44.8348" lon="4.60761">
        <ele>487.8</ele>
        <time>2023-06-14T17:30:55.993Z</time>
      </trkpt>
      <trkpt lat="44.83479" lon="4.60762">
        <ele>488</ele>
        <time>2023-06-14T17:30:56.544Z</time>
      </trkpt>
      <trkpt lat="44.83478" lon="4.60762">
        <ele>488</ele>
        <time>2023-06-14T17:30:56.992Z</time>
      </trkpt>
      <trkpt lat="44.83475" lon="4.60763">
        <ele>488.3</ele>
        <time>2023-06-14T17:30:58.370Z</time>
      </trkpt>
      <trkpt lat="44.83474" lon="4.60765">
        <ele>488.5</ele>
        <time>2023-06-14T17:30:59.140Z</time>
      </trkpt>
      <trkpt lat="44.83471" lon="4.60769">
        <ele>489</ele>
        <time>2023-06-14T17:31:00.985Z</time>
      </trkpt>
      <trkpt lat="44.83463" lon="4.60778">
        <ele>490.4</ele>
        <time>2023-06-14T17:31:05.567Z</time>
      </trkpt>
      <trkpt lat="44.83461" lon="4.60781">
        <ele>490.8</ele>
        <time>2023-06-14T17:31:06.880Z</time>
      </trkpt>
      <trkpt lat="44.83458" lon="4.60785">
        <ele>491.5</ele>
        <time>2023-06-14T17:31:08.740Z</time>
      </trkpt>
      <trkpt lat="44.83455" lon="4.60788">
        <ele>492</ele>
        <time>2023-06-14T17:31:10.389Z</time>
      </trkpt>
      <trkpt lat="44.83448" lon="4.6079">
        <ele>492.8</ele>
        <time>2023-06-14T17:31:13.578Z</time>
      </trkpt>
      <trkpt lat="44.83444" lon="4.60789">
        <ele>493.3</ele>
        <time>2023-06-14T17:31:15.396Z</time>
      </trkpt>
      <trkpt lat="44.83436" lon="4.60786">
        <ele>493.7</ele>
        <time>2023-06-14T17:31:19.079Z</time>
      </trkpt>
      <trkpt lat="44.83425" lon="4.60784">
        <ele>494.6</ele>
        <time>2023-06-14T17:31:24.024Z</time>
      </trkpt>
      <trkpt lat="44.83421" lon="4.60783">
        <ele>494.9</ele>
        <time>2023-06-14T17:31:25.835Z</time>
      </trkpt>
      <trkpt lat="44.83416" lon="4.60781">
        <ele>494.9</ele>
        <time>2023-06-14T17:31:28.145Z</time>
      </trkpt>
      <trkpt lat="44.83401" lon="4.60776">
        <ele>492.3</ele>
        <time>2023-06-14T17:31:35.078Z</time>
      </trkpt>
      <trkpt lat="44.83396" lon="4.60775">
        <ele>491.4</ele>
        <time>2023-06-14T17:31:37.350Z</time>
      </trkpt>
      <trkpt lat="44.83387" lon="4.60775">
        <ele>490.1</ele>
        <time>2023-06-14T17:31:41.385Z</time>
      </trkpt>
      <trkpt lat="44.83378" lon="4.60772">
        <ele>488.4</ele>
        <time>2023-06-14T17:31:45.556Z</time>
      </trkpt>
      <trkpt lat="44.83373" lon="4.60771">
        <ele>487.5</ele>
        <time>2023-06-14T17:31:47.830Z</time>
      </trkpt>
      <trkpt lat="44.83362" lon="4.60775">
        <ele>486.6</ele>
        <time>2023-06-14T17:31:52.891Z</time>
      </trkpt>
      <trkpt lat="44.83361" lon="4.60777">
        <ele>486.8</ele>
        <time>2023-06-14T17:31:53.669Z</time>
      </trkpt>
      <trkpt lat="44.83358" lon="4.6078">
        <ele>487.1</ele>
        <time>2023-06-14T17:31:55.311Z</time>
      </trkpt>
      <trkpt lat="44.83351" lon="4.60791">
        <ele>488.4</ele>
        <time>2023-06-14T17:32:00.000Z</time>
      </trkpt>
      <trkpt lat="44.83346" lon="4.60796">
        <ele>488.9</ele>
        <time>2023-06-14T17:32:02.730Z</time>
      </trkpt>
      <trkpt lat="44.83343" lon="4.608">
        <ele>489.4</ele>
        <time>2023-06-14T17:32:04.579Z</time>
      </trkpt>
      <trkpt lat="44.83339" lon="4.60804">
        <ele>489.8</ele>
        <time>2023-06-14T17:32:06.760Z</time>
      </trkpt>
      <trkpt lat="44.83337" lon="4.60807">
        <ele>490.2</ele>
        <time>2023-06-14T17:32:08.071Z</time>
      </trkpt>
      <trkpt lat="44.83334" lon="4.6081">
        <ele>490.7</ele>
        <time>2023-06-14T17:32:09.722Z</time>
      </trkpt>
      <trkpt lat="44.83325" lon="4.60821">
        <ele>491.9</ele>
        <time>2023-06-14T17:32:15.034Z</time>
      </trkpt>
      <trkpt lat="44.8332" lon="4.60824">
        <ele>491.8</ele>
        <time>2023-06-14T17:32:17.456Z</time>
      </trkpt>
      <trkpt lat="44.83318" lon="4.60823">
        <ele>491.5</ele>
        <time>2023-06-14T17:32:18.403Z</time>
      </trkpt>
      <trkpt lat="44.83314" lon="4.60816">
        <ele>489.2</ele>
        <time>2023-06-14T17:32:21.397Z</time>
      </trkpt>
      <trkpt lat="44.8331" lon="4.60806">
        <ele>486.4</ele>
        <time>2023-06-14T17:32:25.172Z</time>
      </trkpt>
      <trkpt lat="44.83307" lon="4.60799">
        <ele>484.1</ele>
        <time>2023-06-14T17:32:27.918Z</time>
      </trkpt>
      <trkpt lat="44.83302" lon="4.60785">
        <ele>480.2</ele>
        <time>2023-06-14T17:32:33.096Z</time>
      </trkpt>
      <trkpt lat="44.833" lon="4.60778">
        <ele>478</ele>
        <time>2023-06-14T17:32:35.636Z</time>
      </trkpt>
      <trkpt lat="44.83297" lon="4.6077">
        <ele>475.7</ele>
        <time>2023-06-14T17:32:38.641Z</time>
      </trkpt>
      <trkpt lat="44.83294" lon="4.60762">
        <ele>473.3</ele>
        <time>2023-06-14T17:32:41.655Z</time>
      </trkpt>
      <trkpt lat="44.83287" lon="4.60743">
        <ele>467.9</ele>
        <time>2023-06-14T17:32:48.729Z</time>
      </trkpt>
      <trkpt lat="44.83287" lon="4.60743">
        <ele>467.9</ele>
        <time>2023-06-14T17:32:48.729Z</time>
      </trkpt>
      <trkpt lat="44.83283" lon="4.60732">
        <ele>465.5</ele>
        <time>2023-06-14T17:32:52.752Z</time>
      </trkpt>
      <trkpt lat="44.8328" lon="4.60721">
        <ele>462.9</ele>
        <time>2023-06-14T17:32:56.609Z</time>
      </trkpt>
      <trkpt lat="44.83276" lon="4.6071">
        <ele>460.4</ele>
        <time>2023-06-14T17:33:00.636Z</time>
      </trkpt>
      <trkpt lat="44.83272" lon="4.607">
        <ele>457.8</ele>
        <time>2023-06-14T17:33:04.407Z</time>
      </trkpt>
      <trkpt lat="44.83268" lon="4.6069">
        <ele>455.3</ele>
        <time>2023-06-14T17:33:08.154Z</time>
      </trkpt>
      <trkpt lat="44.83252" lon="4.60653">
        <ele>445.1</ele>
        <time>2023-06-14T17:33:22.423Z</time>
      </trkpt>
      <trkpt lat="44.83233" lon="4.60627">
        <ele>441.8</ele>
        <time>2023-06-14T17:33:34.271Z</time>
      </trkpt>
      <trkpt lat="44.83218" lon="4.60617">
        <ele>441.8</ele>
        <time>2023-06-14T17:33:41.645Z</time>
      </trkpt>
      <trkpt lat="44.83212" lon="4.60614">
        <ele>441.8</ele>
        <time>2023-06-14T17:33:44.477Z</time>
      </trkpt>
      <trkpt lat="44.83204" lon="4.60606">
        <ele>441.4</ele>
        <time>2023-06-14T17:33:48.839Z</time>
      </trkpt>
      <trkpt lat="44.83201" lon="4.60601">
        <ele>440.9</ele>
        <time>2023-06-14T17:33:50.914Z</time>
      </trkpt>
      <trkpt lat="44.83199" lon="4.60599">
        <ele>440.9</ele>
        <time>2023-06-14T17:33:52.007Z</time>
      </trkpt>
      <trkpt lat="44.83195" lon="4.60586">
        <ele>439.3</ele>
        <time>2023-06-14T17:33:56.520Z</time>
      </trkpt>
      <trkpt lat="44.83193" lon="4.60581">
        <ele>439</ele>
        <time>2023-06-14T17:33:58.337Z</time>
      </trkpt>
      <trkpt lat="44.83193" lon="4.60577">
        <ele>438.7</ele>
        <time>2023-06-14T17:33:59.604Z</time>
      </trkpt>
      <trkpt lat="44.83192" lon="4.60574">
        <ele>438.6</ele>
        <time>2023-06-14T17:34:00.649Z</time>
      </trkpt>
      <trkpt lat="44.8319" lon="4.60563">
        <ele>438.1</ele>
        <time>2023-06-14T17:34:04.236Z</time>
      </trkpt>
      <trkpt lat="44.83189" lon="4.60554">
        <ele>437.6</ele>
        <time>2023-06-14T17:34:07.116Z</time>
      </trkpt>
      <trkpt lat="44.83188" lon="4.60548">
        <ele>437.4</ele>
        <time>2023-06-14T17:34:09.063Z</time>
      </trkpt>
      <trkpt lat="44.83187" lon="4.60543">
        <ele>437.1</ele>
        <time>2023-06-14T17:34:10.704Z</time>
      </trkpt>
      <trkpt lat="44.83184" lon="4.60527">
        <ele>436.3</ele>
        <time>2023-06-14T17:34:15.931Z</time>
      </trkpt>
      <trkpt lat="44.83178" lon="4.60507">
        <ele>435.5</ele>
        <time>2023-06-14T17:34:22.786Z</time>
      </trkpt>
      <trkpt lat="44.83172" lon="4.60492">
        <ele>434.4</ele>
        <time>2023-06-14T17:34:28.236Z</time>
      </trkpt>
      <trkpt lat="44.83165" lon="4.60476">
        <ele>432.4</ele>
        <time>2023-06-14T17:34:34.225Z</time>
      </trkpt>
      <trkpt lat="44.83161" lon="4.60465">
        <ele>431.3</ele>
        <time>2023-06-14T17:34:38.144Z</time>
      </trkpt>
      <trkpt lat="44.83158" lon="4.6046">
        <ele>430.9</ele>
        <time>2023-06-14T17:34:40.213Z</time>
      </trkpt>
      <trkpt lat="44.83155" lon="4.60454">
        <ele>430.4</ele>
        <time>2023-06-14T17:34:42.538Z</time>
      </trkpt>
      <trkpt lat="44.83153" lon="4.60449">
        <ele>429.9</ele>
        <time>2023-06-14T17:34:44.360Z</time>
      </trkpt>
      <trkpt lat="44.8315" lon="4.60443">
        <ele>429.6</ele>
        <time>2023-06-14T17:34:46.679Z</time>
      </trkpt>
      <trkpt lat="44.8314" lon="4.60432">
        <ele>429.5</ele>
        <time>2023-06-14T17:34:52.316Z</time>
      </trkpt>
      <trkpt lat="44.83137" lon="4.60429">
        <ele>429.6</ele>
        <time>2023-06-14T17:34:53.952Z</time>
      </trkpt>
      <trkpt lat="44.83133" lon="4.60425">
        <ele>429.7</ele>
        <time>2023-06-14T17:34:56.137Z</time>
      </trkpt>
      <trkpt lat="44.83129" lon="4.60422">
        <ele>430</ele>
        <time>2023-06-14T17:34:58.151Z</time>
      </trkpt>
      <trkpt lat="44.83125" lon="4.6042">
        <ele>430.3</ele>
        <time>2023-06-14T17:35:00.046Z</time>
      </trkpt>
      <trkpt lat="44.83121" lon="4.60418">
        <ele>430.8</ele>
        <time>2023-06-14T17:35:01.946Z</time>
      </trkpt>
      <trkpt lat="44.83117" lon="4.60417">
        <ele>431.3</ele>
        <time>2023-06-14T17:35:03.759Z</time>
      </trkpt>
      <trkpt lat="44.83112" lon="4.60416">
        <ele>431.9</ele>
        <time>2023-06-14T17:35:06.016Z</time>
      </trkpt>
      <trkpt lat="44.83102" lon="4.60415">
        <ele>433.3</ele>
        <time>2023-06-14T17:35:10.511Z</time>
      </trkpt>
      <trkpt lat="44.83092" lon="4.60415">
        <ele>435</ele>
        <time>2023-06-14T17:35:15.004Z</time>
      </trkpt>
      <trkpt lat="44.83087" lon="4.60415">
        <ele>435.8</ele>
        <time>2023-06-14T17:35:17.257Z</time>
      </trkpt>
      <trkpt lat="44.83082" lon="4.60414">
        <ele>436.4</ele>
        <time>2023-06-14T17:35:19.515Z</time>
      </trkpt>
      <trkpt lat="44.83078" lon="4.60414">
        <ele>436.3</ele>
        <time>2023-06-14T17:35:21.297Z</time>
      </trkpt>
      <trkpt lat="44.83073" lon="4.60413">
        <ele>436</ele>
        <time>2023-06-14T17:35:23.545Z</time>
      </trkpt>
      <trkpt lat="44.83065" lon="4.60411">
        <ele>435.3</ele>
        <time>2023-06-14T17:35:27.165Z</time>
      </trkpt>
      <trkpt lat="44.83057" lon="4.60409">
        <ele>435</ele>
        <time>2023-06-14T17:35:30.778Z</time>
      </trkpt>
      <trkpt lat="44.83049" lon="4.60406">
        <ele>434.3</ele>
        <time>2023-06-14T17:35:34.477Z</time>
      </trkpt>
      <trkpt lat="44.83043" lon="4.604">
        <ele>433.5</ele>
        <time>2023-06-14T17:35:37.759Z</time>
      </trkpt>
      <trkpt lat="44.83039" lon="4.60392">
        <ele>432.3</ele>
        <time>2023-06-14T17:35:40.879Z</time>
      </trkpt>
      <trkpt lat="44.83036" lon="4.60382">
        <ele>430.9</ele>
        <time>2023-06-14T17:35:44.354Z</time>
      </trkpt>
      <trkpt lat="44.83037" lon="4.60378">
        <ele>430.3</ele>
        <time>2023-06-14T17:35:45.714Z</time>
      </trkpt>
      <trkpt lat="44.83039" lon="4.60369">
        <ele>428.9</ele>
        <time>2023-06-14T17:35:48.737Z</time>
      </trkpt>
      <trkpt lat="44.83043" lon="4.60361">
        <ele>427.5</ele>
        <time>2023-06-14T17:35:51.878Z</time>
      </trkpt>
      <trkpt lat="44.83045" lon="4.60356">
        <ele>426.6</ele>
        <time>2023-06-14T17:35:53.726Z</time>
      </trkpt>
      <trkpt lat="44.83049" lon="4.60346">
        <ele>424.6</ele>
        <time>2023-06-14T17:35:57.427Z</time>
      </trkpt>
      <trkpt lat="44.83053" lon="4.60339">
        <ele>423.1</ele>
        <time>2023-06-14T17:36:00.324Z</time>
      </trkpt>
      <trkpt lat="44.83055" lon="4.60336">
        <ele>422.5</ele>
        <time>2023-06-14T17:36:01.646Z</time>
      </trkpt>
      <trkpt lat="44.83059" lon="4.60332">
        <ele>421.3</ele>
        <time>2023-06-14T17:36:03.882Z</time>
      </trkpt>
      <trkpt lat="44.83058" lon="4.60328">
        <ele>420.6</ele>
        <time>2023-06-14T17:36:05.247Z</time>
      </trkpt>
      <trkpt lat="44.83056" lon="4.60326">
        <ele>420.3</ele>
        <time>2023-06-14T17:36:06.345Z</time>
      </trkpt>
      <trkpt lat="44.83051" lon="4.60326">
        <ele>420.9</ele>
        <time>2023-06-14T17:36:08.579Z</time>
      </trkpt>
      <trkpt lat="44.83044" lon="4.60331">
        <ele>422.7</ele>
        <time>2023-06-14T17:36:12.152Z</time>
      </trkpt>
      <trkpt lat="44.83039" lon="4.60335">
        <ele>424</ele>
        <time>2023-06-14T17:36:14.752Z</time>
      </trkpt>
      <trkpt lat="44.83034" lon="4.6034">
        <ele>425.2</ele>
        <time>2023-06-14T17:36:17.523Z</time>
      </trkpt>
      <trkpt lat="44.8302" lon="4.60349">
        <ele>427.6</ele>
        <time>2023-06-14T17:36:24.431Z</time>
      </trkpt>
      <trkpt lat="44.83005" lon="4.60371">
        <ele>430.9</ele>
        <time>2023-06-14T17:36:34.149Z</time>
      </trkpt>
      <trkpt lat="44.82999" lon="4.60381">
        <ele>431.7</ele>
        <time>2023-06-14T17:36:38.291Z</time>
      </trkpt>
      <trkpt lat="44.82991" lon="4.60398">
        <ele>431.5</ele>
        <time>2023-06-14T17:36:44.725Z</time>
      </trkpt>
      <trkpt lat="44.82989" lon="4.60403">
        <ele>431.4</ele>
        <time>2023-06-14T17:36:46.541Z</time>
      </trkpt>
      <trkpt lat="44.82986" lon="4.60408">
        <ele>431.2</ele>
        <time>2023-06-14T17:36:48.607Z</time>
      </trkpt>
      <trkpt lat="44.82981" lon="4.60418">
        <ele>431</ele>
        <time>2023-06-14T17:36:52.468Z</time>
      </trkpt>
      <trkpt lat="44.82978" lon="4.60427">
        <ele>430.7</ele>
        <time>2023-06-14T17:36:55.603Z</time>
      </trkpt>
      <trkpt lat="44.82976" lon="4.60437">
        <ele>430.5</ele>
        <time>2023-06-14T17:36:58.882Z</time>
      </trkpt>
      <trkpt lat="44.82978" lon="4.60446">
        <ele>431.3</ele>
        <time>2023-06-14T17:37:01.872Z</time>
      </trkpt>
      <trkpt lat="44.82977" lon="4.6045">
        <ele>431.2</ele>
        <time>2023-06-14T17:37:03.208Z</time>
      </trkpt>
      <trkpt lat="44.82973" lon="4.60454">
        <ele>430.3</ele>
        <time>2023-06-14T17:37:05.413Z</time>
      </trkpt>
      <trkpt lat="44.8297" lon="4.60452">
        <ele>429.6</ele>
        <time>2023-06-14T17:37:06.918Z</time>
      </trkpt>
      <trkpt lat="44.82967" lon="4.6045">
        <ele>428.8</ele>
        <time>2023-06-14T17:37:08.427Z</time>
      </trkpt>
      <trkpt lat="44.82966" lon="4.60447">
        <ele>428.5</ele>
        <time>2023-06-14T17:37:09.481Z</time>
      </trkpt>
      <trkpt lat="44.82965" lon="4.60448">
        <ele>428.3</ele>
        <time>2023-06-14T17:37:10.028Z</time>
      </trkpt>
      <trkpt lat="44.82965" lon="4.60447">
        <ele>428.3</ele>
        <time>2023-06-14T17:37:10.346Z</time>
      </trkpt>
      <trkpt lat="44.82965" lon="4.60447">
        <ele>428.3</ele>
        <time>2023-06-14T17:37:10.346Z</time>
      </trkpt>
      <trkpt lat="44.82965" lon="4.60449">
        <ele>428.3</ele>
        <time>2023-06-14T17:37:10.980Z</time>
      </trkpt>
      <trkpt lat="44.82964" lon="4.60448">
        <ele>428.1</ele>
        <time>2023-06-14T17:37:11.536Z</time>
      </trkpt>
      <trkpt lat="44.82962" lon="4.60445">
        <ele>427.6</ele>
        <time>2023-06-14T17:37:12.853Z</time>
      </trkpt>
      <trkpt lat="44.82959" lon="4.6044">
        <ele>426.7</ele>
        <time>2023-06-14T17:37:14.945Z</time>
      </trkpt>
      <trkpt lat="44.82959" lon="4.6044">
        <ele>426.7</ele>
        <time>2023-06-14T17:37:14.945Z</time>
      </trkpt>
      <trkpt lat="44.82958" lon="4.6044">
        <ele>426.5</ele>
        <time>2023-06-14T17:37:15.401Z</time>
      </trkpt>
      <trkpt lat="44.82957" lon="4.6044">
        <ele>426.3</ele>
        <time>2023-06-14T17:37:15.857Z</time>
      </trkpt>
      <trkpt lat="44.82956" lon="4.60443">
        <ele>426.1</ele>
        <time>2023-06-14T17:37:16.903Z</time>
      </trkpt>
      <trkpt lat="44.82956" lon="4.60443">
        <ele>426.1</ele>
        <time>2023-06-14T17:37:16.903Z</time>
      </trkpt>
      <trkpt lat="44.82956" lon="4.60443">
        <ele>426.1</ele>
        <time>2023-06-14T17:37:16.903Z</time>
      </trkpt>
      <trkpt lat="44.82956" lon="4.60443">
        <ele>426.1</ele>
        <time>2023-06-14T17:37:16.903Z</time>
      </trkpt>
      <trkpt lat="44.82955" lon="4.60442">
        <ele>425.8</ele>
        <time>2023-06-14T17:37:17.461Z</time>
      </trkpt>
      <trkpt lat="44.82954" lon="4.60443">
        <ele>425.6</ele>
        <time>2023-06-14T17:37:18.015Z</time>
      </trkpt>
      <trkpt lat="44.82954" lon="4.60443">
        <ele>425.6</ele>
        <time>2023-06-14T17:37:18.015Z</time>
      </trkpt>
      <trkpt lat="44.82953" lon="4.60442">
        <ele>425.4</ele>
        <time>2023-06-14T17:37:18.566Z</time>
      </trkpt>
      <trkpt lat="44.82953" lon="4.60439">
        <ele>425.3</ele>
        <time>2023-06-14T17:37:19.513Z</time>
      </trkpt>
      <trkpt lat="44.82952" lon="4.60437">
        <ele>425.1</ele>
        <time>2023-06-14T17:37:20.293Z</time>
      </trkpt>
      <trkpt lat="44.82948" lon="4.60427">
        <ele>424</ele>
        <time>2023-06-14T17:37:23.938Z</time>
      </trkpt>
      <trkpt lat="44.82947" lon="4.6042">
        <ele>423.6</ele>
        <time>2023-06-14T17:37:26.194Z</time>
      </trkpt>
      <trkpt lat="44.82946" lon="4.60418">
        <ele>423.4</ele>
        <time>2023-06-14T17:37:26.972Z</time>
      </trkpt>
      <trkpt lat="44.82945" lon="4.60418">
        <ele>423.1</ele>
        <time>2023-06-14T17:37:27.419Z</time>
      </trkpt>
      <trkpt lat="44.82944" lon="4.6042">
        <ele>422.9</ele>
        <time>2023-06-14T17:37:28.195Z</time>
      </trkpt>
      <trkpt lat="44.82943" lon="4.60424">
        <ele>422.8</ele>
        <time>2023-06-14T17:37:29.531Z</time>
      </trkpt>
      <trkpt lat="44.82939" lon="4.60436">
        <ele>422.1</ele>
        <time>2023-06-14T17:37:33.721Z</time>
      </trkpt>
      <trkpt lat="44.82939" lon="4.60436">
        <ele>422.1</ele>
        <time>2023-06-14T17:37:33.721Z</time>
      </trkpt>
      <trkpt lat="44.8294" lon="4.60439">
        <ele>422.4</ele>
        <time>2023-06-14T17:37:34.770Z</time>
      </trkpt>
      <trkpt lat="44.82941" lon="4.60442">
        <ele>422.6</ele>
        <time>2023-06-14T17:37:35.822Z</time>
      </trkpt>
      <trkpt lat="44.82939" lon="4.60446">
        <ele>422.2</ele>
        <time>2023-06-14T17:37:37.374Z</time>
      </trkpt>
      <trkpt lat="44.82937" lon="4.60447">
        <ele>421.8</ele>
        <time>2023-06-14T17:37:38.338Z</time>
      </trkpt>
      <trkpt lat="44.82938" lon="4.60447">
        <ele>422</ele>
        <time>2023-06-14T17:37:38.794Z</time>
      </trkpt>
      <trkpt lat="44.82938" lon="4.6044">
        <ele>421.9</ele>
        <time>2023-06-14T17:37:40.999Z</time>
      </trkpt>
      <trkpt lat="44.82939" lon="4.60436">
        <ele>422.1</ele>
        <time>2023-06-14T17:37:42.341Z</time>
      </trkpt>
      <trkpt lat="44.82939" lon="4.60434">
        <ele>422.1</ele>
        <time>2023-06-14T17:37:42.971Z</time>
      </trkpt>
      <trkpt lat="44.82939" lon="4.6043">
        <ele>422</ele>
        <time>2023-06-14T17:37:44.235Z</time>
      </trkpt>
      <trkpt lat="44.8294" lon="4.60427">
        <ele>422.2</ele>
        <time>2023-06-14T17:37:45.280Z</time>
      </trkpt>
      <trkpt lat="44.8294" lon="4.60427">
        <ele>422.2</ele>
        <time>2023-06-14T17:37:45.280Z</time>
      </trkpt>
      <trkpt lat="44.82941" lon="4.60421">
        <ele>422.3</ele>
        <time>2023-06-14T17:37:47.226Z</time>
      </trkpt>
      <trkpt lat="44.82941" lon="4.60422">
        <ele>422.3</ele>
        <time>2023-06-14T17:37:47.543Z</time>
      </trkpt>
      <trkpt lat="44.8294" lon="4.60424">
        <ele>422.2</ele>
        <time>2023-06-14T17:37:48.319Z</time>
      </trkpt>
      <trkpt lat="44.82941" lon="4.60425">
        <ele>422.4</ele>
        <time>2023-06-14T17:37:48.875Z</time>
      </trkpt>
      <trkpt lat="44.82942" lon="4.6043">
        <ele>422.7</ele>
        <time>2023-06-14T17:37:50.517Z</time>
      </trkpt>
      <trkpt lat="44.82942" lon="4.60434">
        <ele>422.7</ele>
        <time>2023-06-14T17:37:51.781Z</time>
      </trkpt>
      <trkpt lat="44.82942" lon="4.60436">
        <ele>422.8</ele>
        <time>2023-06-14T17:37:52.410Z</time>
      </trkpt>
      <trkpt lat="44.82941" lon="4.60438">
        <ele>422.6</ele>
        <time>2023-06-14T17:37:53.191Z</time>
      </trkpt>
      <trkpt lat="44.8294" lon="4.60439">
        <ele>422.4</ele>
        <time>2023-06-14T17:37:53.742Z</time>
      </trkpt>
      <trkpt lat="44.82938" lon="4.60445">
        <ele>422</ele>
        <time>2023-06-14T17:37:55.838Z</time>
      </trkpt>
      <trkpt lat="44.82938" lon="4.60449">
        <ele>422</ele>
        <time>2023-06-14T17:37:57.102Z</time>
      </trkpt>
      <trkpt lat="44.82938" lon="4.60451">
        <ele>422.1</ele>
        <time>2023-06-14T17:37:57.731Z</time>
      </trkpt>
      <trkpt lat="44.82934" lon="4.6046">
        <ele>421.2</ele>
        <time>2023-06-14T17:38:01.099Z</time>
      </trkpt>
      <trkpt lat="44.82932" lon="4.60462">
        <ele>420.7</ele>
        <time>2023-06-14T17:38:02.208Z</time>
      </trkpt>
      <trkpt lat="44.82929" lon="4.60468">
        <ele>420</ele>
        <time>2023-06-14T17:38:04.538Z</time>
      </trkpt>
      <trkpt lat="44.82928" lon="4.60471">
        <ele>419.8</ele>
        <time>2023-06-14T17:38:05.586Z</time>
      </trkpt>
      <trkpt lat="44.82928" lon="4.60475">
        <ele>419.8</ele>
        <time>2023-06-14T17:38:06.850Z</time>
      </trkpt>
      <trkpt lat="44.82929" lon="4.6048">
        <ele>420.1</ele>
        <time>2023-06-14T17:38:08.489Z</time>
      </trkpt>
      <trkpt lat="44.82929" lon="4.60482">
        <ele>420.1</ele>
        <time>2023-06-14T17:38:09.119Z</time>
      </trkpt>
      <trkpt lat="44.82928" lon="4.60483">
        <ele>419.9</ele>
        <time>2023-06-14T17:38:09.669Z</time>
      </trkpt>
      <trkpt lat="44.82928" lon="4.60486">
        <ele>419.9</ele>
        <time>2023-06-14T17:38:10.616Z</time>
      </trkpt>
      <trkpt lat="44.82929" lon="4.60487">
        <ele>420.2</ele>
        <time>2023-06-14T17:38:11.168Z</time>
      </trkpt>
      <trkpt lat="44.82932" lon="4.60496">
        <ele>421</ele>
        <time>2023-06-14T17:38:14.318Z</time>
      </trkpt>
      <trkpt lat="44.82932" lon="4.605">
        <ele>421</ele>
        <time>2023-06-14T17:38:15.582Z</time>
      </trkpt>
      <trkpt lat="44.82929" lon="4.60504">
        <ele>420.4</ele>
        <time>2023-06-14T17:38:17.437Z</time>
      </trkpt>
      <trkpt lat="44.82927" lon="4.60506">
        <ele>420</ele>
        <time>2023-06-14T17:38:18.539Z</time>
      </trkpt>
      <trkpt lat="44.82923" lon="4.60509">
        <ele>419.1</ele>
        <time>2023-06-14T17:38:20.585Z</time>
      </trkpt>
      <trkpt lat="44.82918" lon="4.60509">
        <ele>417.8</ele>
        <time>2023-06-14T17:38:22.871Z</time>
      </trkpt>
      <trkpt lat="44.82915" lon="4.6051">
        <ele>417</ele>
        <time>2023-06-14T17:38:24.275Z</time>
      </trkpt>
      <trkpt lat="44.82909" lon="4.60512">
        <ele>415.7</ele>
        <time>2023-06-14T17:38:27.069Z</time>
      </trkpt>
      <trkpt lat="44.82903" lon="4.60516">
        <ele>414.3</ele>
        <time>2023-06-14T17:38:30.068Z</time>
      </trkpt>
      <trkpt lat="44.829" lon="4.60517">
        <ele>413.7</ele>
        <time>2023-06-14T17:38:31.466Z</time>
      </trkpt>
      <trkpt lat="44.82892" lon="4.6052">
        <ele>411.9</ele>
        <time>2023-06-14T17:38:35.217Z</time>
      </trkpt>
      <trkpt lat="44.8289" lon="4.6052">
        <ele>411.3</ele>
        <time>2023-06-14T17:38:36.132Z</time>
      </trkpt>
      <trkpt lat="44.82886" lon="4.6052">
        <ele>410.3</ele>
        <time>2023-06-14T17:38:37.956Z</time>
      </trkpt>
      <trkpt lat="44.82884" lon="4.60519">
        <ele>409.8</ele>
        <time>2023-06-14T17:38:38.924Z</time>
      </trkpt>
      <trkpt lat="44.82882" lon="4.60517">
        <ele>409.2</ele>
        <time>2023-06-14T17:38:40.034Z</time>
      </trkpt>
      <trkpt lat="44.8288" lon="4.60515">
        <ele>408.6</ele>
        <time>2023-06-14T17:38:41.155Z</time>
      </trkpt>
      <trkpt lat="44.82876" lon="4.60514">
        <ele>407.4</ele>
        <time>2023-06-14T17:38:43.014Z</time>
      </trkpt>
      <trkpt lat="44.82872" lon="4.60511">
        <ele>406.3</ele>
        <time>2023-06-14T17:38:45.080Z</time>
      </trkpt>
      <trkpt lat="44.82871" lon="4.60511">
        <ele>406.1</ele>
        <time>2023-06-14T17:38:45.538Z</time>
      </trkpt>
      <trkpt lat="44.8287" lon="4.60511">
        <ele>405.8</ele>
        <time>2023-06-14T17:38:45.989Z</time>
      </trkpt>
      <trkpt lat="44.82869" lon="4.60511">
        <ele>405.6</ele>
        <time>2023-06-14T17:38:46.446Z</time>
      </trkpt>
      <trkpt lat="44.82868" lon="4.60507">
        <ele>405.1</ele>
        <time>2023-06-14T17:38:47.795Z</time>
      </trkpt>
      <trkpt lat="44.82867" lon="4.60507">
        <ele>404.9</ele>
        <time>2023-06-14T17:38:48.245Z</time>
      </trkpt>
      <trkpt lat="44.82866" lon="4.60506">
        <ele>404.6</ele>
        <time>2023-06-14T17:38:48.808Z</time>
      </trkpt>
      <trkpt lat="44.82865" lon="4.60508">
        <ele>404.5</ele>
        <time>2023-06-14T17:38:49.582Z</time>
      </trkpt>
      <trkpt lat="44.82864" lon="4.60507">
        <ele>404.2</ele>
        <time>2023-06-14T17:38:50.136Z</time>
      </trkpt>
      <trkpt lat="44.82861" lon="4.60503">
        <ele>403.1</ele>
        <time>2023-06-14T17:38:52.020Z</time>
      </trkpt>
      <trkpt lat="44.82858" lon="4.60501">
        <ele>402.2</ele>
        <time>2023-06-14T17:38:53.536Z</time>
      </trkpt>
      <trkpt lat="44.82857" lon="4.60501">
        <ele>402</ele>
        <time>2023-06-14T17:38:53.994Z</time>
      </trkpt>
      <trkpt lat="44.82854" lon="4.60501">
        <ele>401.3</ele>
        <time>2023-06-14T17:38:55.361Z</time>
      </trkpt>
      <trkpt lat="44.82851" lon="4.60499">
        <ele>400.4</ele>
        <time>2023-06-14T17:38:56.874Z</time>
      </trkpt>
      <trkpt lat="44.82849" lon="4.60499">
        <ele>399.9</ele>
        <time>2023-06-14T17:38:57.790Z</time>
      </trkpt>
      <trkpt lat="44.82847" lon="4.60499">
        <ele>399.4</ele>
        <time>2023-06-14T17:38:58.699Z</time>
      </trkpt>
      <trkpt lat="44.82848" lon="4.60501">
        <ele>399.7</ele>
        <time>2023-06-14T17:38:59.482Z</time>
      </trkpt>
      <trkpt lat="44.82847" lon="4.60502">
        <ele>399.5</ele>
        <time>2023-06-14T17:39:00.026Z</time>
      </trkpt>
      <trkpt lat="44.82847" lon="4.60501">
        <ele>399.4</ele>
        <time>2023-06-14T17:39:00.339Z</time>
      </trkpt>
      <trkpt lat="44.82844" lon="4.605">
        <ele>398.7</ele>
        <time>2023-06-14T17:39:01.742Z</time>
      </trkpt>
      <trkpt lat="44.8284" lon="4.60497">
        <ele>397.5</ele>
        <time>2023-06-14T17:39:03.820Z</time>
      </trkpt>
      <trkpt lat="44.82831" lon="4.60487">
        <ele>394.6</ele>
        <time>2023-06-14T17:39:09.043Z</time>
      </trkpt>
      <trkpt lat="44.82827" lon="4.60481">
        <ele>393.2</ele>
        <time>2023-06-14T17:39:11.692Z</time>
      </trkpt>
      <trkpt lat="44.82824" lon="4.60477">
        <ele>392.3</ele>
        <time>2023-06-14T17:39:13.568Z</time>
      </trkpt>
      <trkpt lat="44.82819" lon="4.60471">
        <ele>390.6</ele>
        <time>2023-06-14T17:39:16.569Z</time>
      </trkpt>
      <trkpt lat="44.82813" lon="4.60462">
        <ele>388.5</ele>
        <time>2023-06-14T17:39:20.551Z</time>
      </trkpt>
      <trkpt lat="44.82809" lon="4.60456">
        <ele>387.1</ele>
        <time>2023-06-14T17:39:23.208Z</time>
      </trkpt>
      <trkpt lat="44.82803" lon="4.60447">
        <ele>384.8</ele>
        <time>2023-06-14T17:39:27.213Z</time>
      </trkpt>
      <trkpt lat="44.82798" lon="4.60441">
        <ele>383</ele>
        <time>2023-06-14T17:39:30.217Z</time>
      </trkpt>
      <trkpt lat="44.82793" lon="4.60435">
        <ele>381.2</ele>
        <time>2023-06-14T17:39:33.229Z</time>
      </trkpt>
      <trkpt lat="44.82785" lon="4.6043">
        <ele>378.7</ele>
        <time>2023-06-14T17:39:37.249Z</time>
      </trkpt>
      <trkpt lat="44.82781" lon="4.60428">
        <ele>377.4</ele>
        <time>2023-06-14T17:39:39.199Z</time>
      </trkpt>
      <trkpt lat="44.82777" lon="4.60425">
        <ele>376</ele>
        <time>2023-06-14T17:39:41.291Z</time>
      </trkpt>
      <trkpt lat="44.82772" lon="4.60423">
        <ele>374.6</ele>
        <time>2023-06-14T17:39:43.669Z</time>
      </trkpt>
      <trkpt lat="44.82764" lon="4.60421">
        <ele>372.2</ele>
        <time>2023-06-14T17:39:47.409Z</time>
      </trkpt>
      <trkpt lat="44.8276" lon="4.6042">
        <ele>371</ele>
        <time>2023-06-14T17:39:49.278Z</time>
      </trkpt>
      <trkpt lat="44.82755" lon="4.60419">
        <ele>369.5</ele>
        <time>2023-06-14T17:39:51.595Z</time>
      </trkpt>
      <trkpt lat="44.82749" lon="4.60418">
        <ele>368.1</ele>
        <time>2023-06-14T17:39:54.340Z</time>
      </trkpt>
      <trkpt lat="44.82739" lon="4.60415">
        <ele>367</ele>
        <time>2023-06-14T17:39:58.914Z</time>
      </trkpt>
      <trkpt lat="44.82733" lon="4.60414">
        <ele>366.8</ele>
        <time>2023-06-14T17:40:01.603Z</time>
      </trkpt>
      <trkpt lat="44.82729" lon="4.60413">
        <ele>366.3</ele>
        <time>2023-06-14T17:40:03.415Z</time>
      </trkpt>
      <trkpt lat="44.8272" lon="4.6041">
        <ele>365.2</ele>
        <time>2023-06-14T17:40:07.550Z</time>
      </trkpt>
      <trkpt lat="44.82715" lon="4.60409">
        <ele>364.7</ele>
        <time>2023-06-14T17:40:09.804Z</time>
      </trkpt>
      <trkpt lat="44.82711" lon="4.60408">
        <ele>364.2</ele>
        <time>2023-06-14T17:40:11.626Z</time>
      </trkpt>
      <trkpt lat="44.82707" lon="4.60407">
        <ele>363.6</ele>
        <time>2023-06-14T17:40:13.447Z</time>
      </trkpt>
      <trkpt lat="44.82699" lon="4.60406">
        <ele>362.9</ele>
        <time>2023-06-14T17:40:17.029Z</time>
      </trkpt>
      <trkpt lat="44.82694" lon="4.60406">
        <ele>362.7</ele>
        <time>2023-06-14T17:40:19.252Z</time>
      </trkpt>
      <trkpt lat="44.82689" lon="4.60408">
        <ele>363.2</ele>
        <time>2023-06-14T17:40:21.570Z</time>
      </trkpt>
      <trkpt lat="44.82684" lon="4.60409">
        <ele>363.3</ele>
        <time>2023-06-14T17:40:23.823Z</time>
      </trkpt>
      <trkpt lat="44.82679" lon="4.60409">
        <ele>363.1</ele>
        <time>2023-06-14T17:40:26.046Z</time>
      </trkpt>
      <trkpt lat="44.82674" lon="4.60409">
        <ele>362.9</ele>
        <time>2023-06-14T17:40:28.269Z</time>
      </trkpt>
      <trkpt lat="44.8267" lon="4.60406">
        <ele>361.5</ele>
        <time>2023-06-14T17:40:30.361Z</time>
      </trkpt>
      <trkpt lat="44.82669" lon="4.60401">
        <ele>360.2</ele>
        <time>2023-06-14T17:40:32.079Z</time>
      </trkpt>
      <trkpt lat="44.82672" lon="4.60395">
        <ele>358.4</ele>
        <time>2023-06-14T17:40:34.504Z</time>
      </trkpt>
      <trkpt lat="44.82675" lon="4.60391">
        <ele>357.4</ele>
        <time>2023-06-14T17:40:36.380Z</time>
      </trkpt>
      <trkpt lat="44.8268" lon="4.60388">
        <ele>356.9</ele>
        <time>2023-06-14T17:40:38.809Z</time>
      </trkpt>
      <trkpt lat="44.82682" lon="4.60388">
        <ele>357.1</ele>
        <time>2023-06-14T17:40:39.698Z</time>
      </trkpt>
      <trkpt lat="44.82687" lon="4.60387">
        <ele>357</ele>
        <time>2023-06-14T17:40:41.943Z</time>
      </trkpt>
      <trkpt lat="44.82688" lon="4.60386">
        <ele>356.7</ele>
        <time>2023-06-14T17:40:42.502Z</time>
      </trkpt>
      <trkpt lat="44.8269" lon="4.60385">
        <ele>356.5</ele>
        <time>2023-06-14T17:40:43.449Z</time>
      </trkpt>
      <trkpt lat="44.82692" lon="4.60384">
        <ele>356.6</ele>
        <time>2023-06-14T17:40:44.400Z</time>
      </trkpt>
      <trkpt lat="44.82695" lon="4.60383">
        <ele>356.4</ele>
        <time>2023-06-14T17:40:45.772Z</time>
      </trkpt>
      <trkpt lat="44.82702" lon="4.60378">
        <ele>355.5</ele>
        <time>2023-06-14T17:40:49.279Z</time>
      </trkpt>
      <trkpt lat="44.82705" lon="4.60376">
        <ele>355</ele>
        <time>2023-06-14T17:40:50.768Z</time>
      </trkpt>
      <trkpt lat="44.82708" lon="4.60374">
        <ele>354.9</ele>
        <time>2023-06-14T17:40:52.244Z</time>
      </trkpt>
      <trkpt lat="44.82711" lon="4.60372">
        <ele>354.4</ele>
        <time>2023-06-14T17:40:53.733Z</time>
      </trkpt>
      <trkpt lat="44.82717" lon="4.60369">
        <ele>354.2</ele>
        <time>2023-06-14T17:40:56.563Z</time>
      </trkpt>
      <trkpt lat="44.82725" lon="4.6037">
        <ele>355.2</ele>
        <time>2023-06-14T17:41:00.155Z</time>
      </trkpt>
      <trkpt lat="44.82729" lon="4.60368">
        <ele>354.9</ele>
        <time>2023-06-14T17:41:02.048Z</time>
      </trkpt>
      <trkpt lat="44.82735" lon="4.60366">
        <ele>355.1</ele>
        <time>2023-06-14T17:41:04.792Z</time>
      </trkpt>
      <trkpt lat="44.8274" lon="4.60364">
        <ele>355</ele>
        <time>2023-06-14T17:41:07.104Z</time>
      </trkpt>
      <trkpt lat="44.82746" lon="4.60362">
        <ele>355.2</ele>
        <time>2023-06-14T17:41:09.847Z</time>
      </trkpt>
      <trkpt lat="44.82752" lon="4.60359">
        <ele>355.3</ele>
        <time>2023-06-14T17:41:12.679Z</time>
      </trkpt>
      <trkpt lat="44.82756" lon="4.60355">
        <ele>355.8</ele>
        <time>2023-06-14T17:41:14.866Z</time>
      </trkpt>
      <trkpt lat="44.82764" lon="4.60346">
        <ele>356.4</ele>
        <time>2023-06-14T17:41:19.426Z</time>
      </trkpt>
      <trkpt lat="44.82767" lon="4.60342">
        <ele>356.6</ele>
        <time>2023-06-14T17:41:21.266Z</time>
      </trkpt>
      <trkpt lat="44.82773" lon="4.60337">
        <ele>357.6</ele>
        <time>2023-06-14T17:41:24.381Z</time>
      </trkpt>
      <trkpt lat="44.82781" lon="4.60332">
        <ele>359.6</ele>
        <time>2023-06-14T17:41:28.360Z</time>
      </trkpt>
      <trkpt lat="44.82785" lon="4.60329">
        <ele>360</ele>
        <time>2023-06-14T17:41:30.379Z</time>
      </trkpt>
      <trkpt lat="44.82789" lon="4.60327">
        <ele>361</ele>
        <time>2023-06-14T17:41:32.313Z</time>
      </trkpt>
      <trkpt lat="44.82793" lon="4.60324">
        <ele>361.4</ele>
        <time>2023-06-14T17:41:34.329Z</time>
      </trkpt>
      <trkpt lat="44.82806" lon="4.60317">
        <ele>364.1</ele>
        <time>2023-06-14T17:41:40.619Z</time>
      </trkpt>
      <trkpt lat="44.82813" lon="4.60317">
        <ele>366.6</ele>
        <time>2023-06-14T17:41:43.881Z</time>
      </trkpt>
      <trkpt lat="44.82816" lon="4.60318">
        <ele>367.9</ele>
        <time>2023-06-14T17:41:45.343Z</time>
      </trkpt>
      <trkpt lat="44.82819" lon="4.60318">
        <ele>368.9</ele>
        <time>2023-06-14T17:41:46.735Z</time>
      </trkpt>
      <trkpt lat="44.82821" lon="4.60316">
        <ele>368.8</ele>
        <time>2023-06-14T17:41:47.828Z</time>
      </trkpt>
      <trkpt lat="44.82821" lon="4.60313">
        <ele>368.1</ele>
        <time>2023-06-14T17:41:48.814Z</time>
      </trkpt>
      <trkpt lat="44.8282" lon="4.60311">
        <ele>367.5</ele>
        <time>2023-06-14T17:41:49.631Z</time>
      </trkpt>
      <trkpt lat="44.82817" lon="4.60307">
        <ele>365.1</ele>
        <time>2023-06-14T17:41:51.695Z</time>
      </trkpt>
      <trkpt lat="44.82816" lon="4.60306">
        <ele>364.8</ele>
        <time>2023-06-14T17:41:52.257Z</time>
      </trkpt>
      <trkpt lat="44.82815" lon="4.60306">
        <ele>364.5</ele>
        <time>2023-06-14T17:41:52.715Z</time>
      </trkpt>
      <trkpt lat="44.82814" lon="4.60307">
        <ele>364.1</ele>
        <time>2023-06-14T17:41:53.277Z</time>
      </trkpt>
      <trkpt lat="44.82812" lon="4.60309">
        <ele>364.2</ele>
        <time>2023-06-14T17:41:54.364Z</time>
      </trkpt>
      <trkpt lat="44.8281" lon="4.60309">
        <ele>363.5</ele>
        <time>2023-06-14T17:41:55.288Z</time>
      </trkpt>
      <trkpt lat="44.82806" lon="4.60307">
        <ele>361.5</ele>
        <time>2023-06-14T17:41:57.350Z</time>
      </trkpt>
      <trkpt lat="44.82801" lon="4.60305">
        <ele>359.5</ele>
        <time>2023-06-14T17:41:59.785Z</time>
      </trkpt>
      <trkpt lat="44.82794" lon="4.60302">
        <ele>356.6</ele>
        <time>2023-06-14T17:42:03.255Z</time>
      </trkpt>
      <trkpt lat="44.8279" lon="4.603">
        <ele>354.6</ele>
        <time>2023-06-14T17:42:05.286Z</time>
      </trkpt>
      <trkpt lat="44.8279" lon="4.603">
        <ele>354.6</ele>
        <time>2023-06-14T17:42:05.286Z</time>
      </trkpt>
      <trkpt lat="44.82789" lon="4.60297">
        <ele>353.7</ele>
        <time>2023-06-14T17:42:06.400Z</time>
      </trkpt>
      <trkpt lat="44.8279" lon="4.60296">
        <ele>353.7</ele>
        <time>2023-06-14T17:42:06.948Z</time>
      </trkpt>
      <trkpt lat="44.82791" lon="4.60296">
        <ele>354</ele>
        <time>2023-06-14T17:42:07.406Z</time>
      </trkpt>
      <trkpt lat="44.82791" lon="4.60297">
        <ele>354.3</ele>
        <time>2023-06-14T17:42:07.748Z</time>
      </trkpt>
      <trkpt lat="44.82789" lon="4.60296">
        <ele>353.4</ele>
        <time>2023-06-14T17:42:08.763Z</time>
      </trkpt>
      <trkpt lat="44.82785" lon="4.60295">
        <ele>351.8</ele>
        <time>2023-06-14T17:42:10.678Z</time>
      </trkpt>
      <trkpt lat="44.8277" lon="4.60295">
        <ele>347</ele>
        <time>2023-06-14T17:42:17.619Z</time>
      </trkpt>
      <trkpt lat="44.82766" lon="4.60295">
        <ele>345.7</ele>
        <time>2023-06-14T17:42:19.474Z</time>
      </trkpt>
      <trkpt lat="44.82758" lon="4.60297">
        <ele>343.7</ele>
        <time>2023-06-14T17:42:23.167Z</time>
      </trkpt>
      <trkpt lat="44.82756" lon="4.60298">
        <ele>343.4</ele>
        <time>2023-06-14T17:42:24.124Z</time>
      </trkpt>
      <trkpt lat="44.82751" lon="4.60299">
        <ele>341.7</ele>
        <time>2023-06-14T17:42:26.467Z</time>
      </trkpt>
      <trkpt lat="44.82745" lon="4.60301">
        <ele>341.4</ele>
        <time>2023-06-14T17:42:29.212Z</time>
      </trkpt>
      <trkpt lat="44.82741" lon="4.60301">
        <ele>341</ele>
        <time>2023-06-14T17:42:30.995Z</time>
      </trkpt>
      <trkpt lat="44.82737" lon="4.60301">
        <ele>340.5</ele>
        <time>2023-06-14T17:42:32.786Z</time>
      </trkpt>
      <trkpt lat="44.82729" lon="4.60302">
        <ele>339.9</ele>
        <time>2023-06-14T17:42:36.364Z</time>
      </trkpt>
      <trkpt lat="44.8272" lon="4.60302">
        <ele>338.9</ele>
        <time>2023-06-14T17:42:40.388Z</time>
      </trkpt>
      <trkpt lat="44.82717" lon="4.603">
        <ele>338.1</ele>
        <time>2023-06-14T17:42:41.903Z</time>
      </trkpt>
      <trkpt lat="44.82708" lon="4.60295">
        <ele>336</ele>
        <time>2023-06-14T17:42:46.287Z</time>
      </trkpt>
      <trkpt lat="44.82706" lon="4.60294">
        <ele>335.5</ele>
        <time>2023-06-14T17:42:47.246Z</time>
      </trkpt>
      <trkpt lat="44.82697" lon="4.60292">
        <ele>334.3</ele>
        <time>2023-06-14T17:42:51.330Z</time>
      </trkpt>
      <trkpt lat="44.82693" lon="4.60291">
        <ele>333.6</ele>
        <time>2023-06-14T17:42:53.159Z</time>
      </trkpt>
      <trkpt lat="44.82687" lon="4.60292">
        <ele>333.2</ele>
        <time>2023-06-14T17:42:55.851Z</time>
      </trkpt>
      <trkpt lat="44.82682" lon="4.60295">
        <ele>333.2</ele>
        <time>2023-06-14T17:42:58.266Z</time>
      </trkpt>
      <trkpt lat="44.8268" lon="4.60296">
        <ele>333.2</ele>
        <time>2023-06-14T17:42:59.208Z</time>
      </trkpt>
      <trkpt lat="44.8267" lon="4.60301">
        <ele>333.1</ele>
        <time>2023-06-14T17:43:03.929Z</time>
      </trkpt>
      <trkpt lat="44.82668" lon="4.60302">
        <ele>333.1</ele>
        <time>2023-06-14T17:43:04.871Z</time>
      </trkpt>
      <trkpt lat="44.82662" lon="4.60303">
        <ele>332.2</ele>
        <time>2023-06-14T17:43:07.581Z</time>
      </trkpt>
      <trkpt lat="44.82654" lon="4.60301">
        <ele>330.6</ele>
        <time>2023-06-14T17:43:11.248Z</time>
      </trkpt>
      <trkpt lat="44.82649" lon="4.60301">
        <ele>329.8</ele>
        <time>2023-06-14T17:43:13.492Z</time>
      </trkpt>
      <trkpt lat="44.82647" lon="4.60303">
        <ele>329.7</ele>
        <time>2023-06-14T17:43:14.586Z</time>
      </trkpt>
      <trkpt lat="44.82642" lon="4.60305">
        <ele>329.4</ele>
        <time>2023-06-14T17:43:16.900Z</time>
      </trkpt>
      <trkpt lat="44.82641" lon="4.60305">
        <ele>329.2</ele>
        <time>2023-06-14T17:43:17.356Z</time>
      </trkpt>
      <trkpt lat="44.82641" lon="4.60306">
        <ele>329.4</ele>
        <time>2023-06-14T17:43:17.682Z</time>
      </trkpt>
      <trkpt lat="44.82641" lon="4.60306">
        <ele>329.4</ele>
        <time>2023-06-14T17:43:17.682Z</time>
      </trkpt>
      <trkpt lat="44.82642" lon="4.60306">
        <ele>329.6</ele>
        <time>2023-06-14T17:43:18.138Z</time>
      </trkpt>
      <trkpt lat="44.82644" lon="4.60303">
        <ele>329.3</ele>
        <time>2023-06-14T17:43:19.444Z</time>
      </trkpt>
      <trkpt lat="44.82644" lon="4.60302">
        <ele>329.3</ele>
        <time>2023-06-14T17:43:19.757Z</time>
      </trkpt>
      <trkpt lat="44.82645" lon="4.60302">
        <ele>329.4</ele>
        <time>2023-06-14T17:43:20.208Z</time>
      </trkpt>
      <trkpt lat="44.82645" lon="4.60302">
        <ele>329.4</ele>
        <time>2023-06-14T17:43:20.208Z</time>
      </trkpt>
      <trkpt lat="44.82646" lon="4.60302">
        <ele>329.6</ele>
        <time>2023-06-14T17:43:20.660Z</time>
      </trkpt>
      <trkpt lat="44.82646" lon="4.60302">
        <ele>329.6</ele>
        <time>2023-06-14T17:43:20.660Z</time>
      </trkpt>
      <trkpt lat="44.82648" lon="4.60302">
        <ele>329.9</ele>
        <time>2023-06-14T17:43:21.556Z</time>
      </trkpt>
      <trkpt lat="44.82648" lon="4.60302">
        <ele>329.9</ele>
        <time>2023-06-14T17:43:21.556Z</time>
      </trkpt>
      <trkpt lat="44.82649" lon="4.60306">
        <ele>330.8</ele>
        <time>2023-06-14T17:43:22.937Z</time>
      </trkpt>
      <trkpt lat="44.8265" lon="4.60307">
        <ele>331</ele>
        <time>2023-06-14T17:43:23.484Z</time>
      </trkpt>
      <trkpt lat="44.8265" lon="4.60308">
        <ele>331.2</ele>
        <time>2023-06-14T17:43:23.815Z</time>
      </trkpt>
      <trkpt lat="44.8265" lon="4.60308">
        <ele>331.2</ele>
        <time>2023-06-14T17:43:23.815Z</time>
      </trkpt>
      <trkpt lat="44.8265" lon="4.60309">
        <ele>331.4</ele>
        <time>2023-06-14T17:43:24.142Z</time>
      </trkpt>
      <trkpt lat="44.82649" lon="4.6031">
        <ele>331.5</ele>
        <time>2023-06-14T17:43:24.686Z</time>
      </trkpt>
      <trkpt lat="44.82649" lon="4.60311">
        <ele>331.8</ele>
        <time>2023-06-14T17:43:25.017Z</time>
      </trkpt>
      <trkpt lat="44.82649" lon="4.6031">
        <ele>331.5</ele>
        <time>2023-06-14T17:43:25.348Z</time>
      </trkpt>
      <trkpt lat="44.82647" lon="4.60307">
        <ele>330.5</ele>
        <time>2023-06-14T17:43:26.716Z</time>
      </trkpt>
      <trkpt lat="44.82644" lon="4.60306">
        <ele>330</ele>
        <time>2023-06-14T17:43:28.102Z</time>
      </trkpt>
      <trkpt lat="44.82643" lon="4.60306">
        <ele>329.8</ele>
        <time>2023-06-14T17:43:28.547Z</time>
      </trkpt>
      <trkpt lat="44.82642" lon="4.60308">
        <ele>329.9</ele>
        <time>2023-06-14T17:43:29.324Z</time>
      </trkpt>
      <trkpt lat="44.82643" lon="4.60311">
        <ele>330.8</ele>
        <time>2023-06-14T17:43:30.428Z</time>
      </trkpt>
      <trkpt lat="44.82644" lon="4.60313">
        <ele>331.2</ele>
        <time>2023-06-14T17:43:31.212Z</time>
      </trkpt>
      <trkpt lat="44.82643" lon="4.60312">
        <ele>330.8</ele>
        <time>2023-06-14T17:43:31.778Z</time>
      </trkpt>
      <trkpt lat="44.82643" lon="4.60311">
        <ele>330.8</ele>
        <time>2023-06-14T17:43:32.090Z</time>
      </trkpt>
      <trkpt lat="44.82643" lon="4.60311">
        <ele>330.8</ele>
        <time>2023-06-14T17:43:32.090Z</time>
      </trkpt>
      <trkpt lat="44.82643" lon="4.60311">
        <ele>330.8</ele>
        <time>2023-06-14T17:43:32.090Z</time>
      </trkpt>
      <trkpt lat="44.82644" lon="4.60314">
        <ele>331.4</ele>
        <time>2023-06-14T17:43:33.165Z</time>
      </trkpt>
      <trkpt lat="44.82645" lon="4.60312">
        <ele>331.1</ele>
        <time>2023-06-14T17:43:33.951Z</time>
      </trkpt>
      <trkpt lat="44.82645" lon="4.60311">
        <ele>331.1</ele>
        <time>2023-06-14T17:43:34.263Z</time>
      </trkpt>
      <trkpt lat="44.82645" lon="4.60311">
        <ele>331.1</ele>
        <time>2023-06-14T17:43:34.263Z</time>
      </trkpt>
      <trkpt lat="44.82645" lon="4.60304">
        <ele>329.7</ele>
        <time>2023-06-14T17:43:36.546Z</time>
      </trkpt>
      <trkpt lat="44.82645" lon="4.60304">
        <ele>329.7</ele>
        <time>2023-06-14T17:43:36.546Z</time>
      </trkpt>
      <trkpt lat="44.82647" lon="4.60308">
        <ele>330.7</ele>
        <time>2023-06-14T17:43:38.145Z</time>
      </trkpt>
      <trkpt lat="44.82649" lon="4.60309">
        <ele>331.3</ele>
        <time>2023-06-14T17:43:39.120Z</time>
      </trkpt>
      <trkpt lat="44.82652" lon="4.6031">
        <ele>332</ele>
        <time>2023-06-14T17:43:40.517Z</time>
      </trkpt>
      <trkpt lat="44.8265" lon="4.60309">
        <ele>331.4</ele>
        <time>2023-06-14T17:43:41.487Z</time>
      </trkpt>
      <trkpt lat="44.82651" lon="4.60307">
        <ele>331.1</ele>
        <time>2023-06-14T17:43:42.270Z</time>
      </trkpt>
      <trkpt lat="44.8265" lon="4.60307">
        <ele>331</ele>
        <time>2023-06-14T17:43:42.721Z</time>
      </trkpt>
      <trkpt lat="44.82647" lon="4.60305">
        <ele>330.2</ele>
        <time>2023-06-14T17:43:44.225Z</time>
      </trkpt>
      <trkpt lat="44.82646" lon="4.60305">
        <ele>330.1</ele>
        <time>2023-06-14T17:43:44.671Z</time>
      </trkpt>
      <trkpt lat="44.82646" lon="4.60305">
        <ele>330.1</ele>
        <time>2023-06-14T17:43:44.671Z</time>
      </trkpt>
      <trkpt lat="44.82646" lon="4.60305">
        <ele>330.1</ele>
        <time>2023-06-14T17:43:44.671Z</time>
      </trkpt>
      <trkpt lat="44.82646" lon="4.60304">
        <ele>329.8</ele>
        <time>2023-06-14T17:43:45.002Z</time>
      </trkpt>
      <trkpt lat="44.82649" lon="4.60305">
        <ele>330.6</ele>
        <time>2023-06-14T17:43:46.405Z</time>
      </trkpt>
      <trkpt lat="44.8265" lon="4.60306">
        <ele>331</ele>
        <time>2023-06-14T17:43:46.967Z</time>
      </trkpt>
      <trkpt lat="44.82651" lon="4.60305">
        <ele>330.9</ele>
        <time>2023-06-14T17:43:47.514Z</time>
      </trkpt>
      <trkpt lat="44.8265" lon="4.60304">
        <ele>330.5</ele>
        <time>2023-06-14T17:43:48.086Z</time>
      </trkpt>
      <trkpt lat="44.8265" lon="4.60307">
        <ele>331</ele>
        <time>2023-06-14T17:43:49.051Z</time>
      </trkpt>
      <trkpt lat="44.82649" lon="4.60307">
        <ele>330.8</ele>
        <time>2023-06-14T17:43:49.496Z</time>
      </trkpt>
      <trkpt lat="44.82649" lon="4.60307">
        <ele>330.8</ele>
        <time>2023-06-14T17:43:49.496Z</time>
      </trkpt>
      <trkpt lat="44.8265" lon="4.60308">
        <ele>331.2</ele>
        <time>2023-06-14T17:43:50.062Z</time>
      </trkpt>
      <trkpt lat="44.8265" lon="4.60309">
        <ele>331.4</ele>
        <time>2023-06-14T17:43:50.388Z</time>
      </trkpt>
      <trkpt lat="44.82651" lon="4.60308">
        <ele>331.4</ele>
        <time>2023-06-14T17:43:50.935Z</time>
      </trkpt>
      <trkpt lat="44.82651" lon="4.60308">
        <ele>331.4</ele>
        <time>2023-06-14T17:43:50.935Z</time>
      </trkpt>
      <trkpt lat="44.8265" lon="4.6031">
        <ele>331.7</ele>
        <time>2023-06-14T17:43:51.718Z</time>
      </trkpt>
      <trkpt lat="44.82649" lon="4.6031">
        <ele>331.5</ele>
        <time>2023-06-14T17:43:52.163Z</time>
      </trkpt>
      <trkpt lat="44.82647" lon="4.60307">
        <ele>330.5</ele>
        <time>2023-06-14T17:43:53.531Z</time>
      </trkpt>
      <trkpt lat="44.82646" lon="4.60304">
        <ele>329.8</ele>
        <time>2023-06-14T17:43:54.606Z</time>
      </trkpt>
      <trkpt lat="44.82646" lon="4.60304">
        <ele>329.8</ele>
        <time>2023-06-14T17:43:54.606Z</time>
      </trkpt>
      <trkpt lat="44.82646" lon="4.60302">
        <ele>329.6</ele>
        <time>2023-06-14T17:43:55.242Z</time>
      </trkpt>
      <trkpt lat="44.82646" lon="4.60302">
        <ele>329.6</ele>
        <time>2023-06-14T17:43:55.242Z</time>
      </trkpt>
      <trkpt lat="44.82647" lon="4.60302">
        <ele>329.7</ele>
        <time>2023-06-14T17:43:55.687Z</time>
      </trkpt>
      <trkpt lat="44.82648" lon="4.60302">
        <ele>329.9</ele>
        <time>2023-06-14T17:43:56.139Z</time>
      </trkpt>
      <trkpt lat="44.8265" lon="4.60304">
        <ele>330.5</ele>
        <time>2023-06-14T17:43:57.249Z</time>
      </trkpt>
      <trkpt lat="44.82651" lon="4.60303">
        <ele>330.4</ele>
        <time>2023-06-14T17:43:57.799Z</time>
      </trkpt>
      <trkpt lat="44.82652" lon="4.60304">
        <ele>330.8</ele>
        <time>2023-06-14T17:43:58.365Z</time>
      </trkpt>
      <trkpt lat="44.82651" lon="4.60304">
        <ele>330.6</ele>
        <time>2023-06-14T17:43:58.810Z</time>
      </trkpt>
      <trkpt lat="44.8265" lon="4.60301">
        <ele>330</ele>
        <time>2023-06-14T17:43:59.888Z</time>
      </trkpt>
      <trkpt lat="44.82649" lon="4.603">
        <ele>329.6</ele>
        <time>2023-06-14T17:44:00.450Z</time>
      </trkpt>
      <trkpt lat="44.82648" lon="4.603">
        <ele>329.4</ele>
        <time>2023-06-14T17:44:00.902Z</time>
      </trkpt>
      <trkpt lat="44.82648" lon="4.603">
        <ele>329.4</ele>
        <time>2023-06-14T17:44:00.902Z</time>
      </trkpt>
      <trkpt lat="44.82649" lon="4.60299">
        <ele>329.4</ele>
        <time>2023-06-14T17:44:01.452Z</time>
      </trkpt>
      <trkpt lat="44.8265" lon="4.60299">
        <ele>329.5</ele>
        <time>2023-06-14T17:44:01.897Z</time>
      </trkpt>
      <trkpt lat="44.82651" lon="4.60301">
        <ele>330.2</ele>
        <time>2023-06-14T17:44:02.711Z</time>
      </trkpt>
      <trkpt lat="44.82649" lon="4.60302">
        <ele>330.1</ele>
        <time>2023-06-14T17:44:03.653Z</time>
      </trkpt>
      <trkpt lat="44.82648" lon="4.60303">
        <ele>329.9</ele>
        <time>2023-06-14T17:44:04.203Z</time>
      </trkpt>
      <trkpt lat="44.82646" lon="4.60305">
        <ele>330.1</ele>
        <time>2023-06-14T17:44:05.295Z</time>
      </trkpt>
      <trkpt lat="44.82643" lon="4.60304">
        <ele>329.3</ele>
        <time>2023-06-14T17:44:06.697Z</time>
      </trkpt>
      <trkpt lat="44.82642" lon="4.60304">
        <ele>329.2</ele>
        <time>2023-06-14T17:44:07.149Z</time>
      </trkpt>
      <trkpt lat="44.82642" lon="4.60303">
        <ele>328.9</ele>
        <time>2023-06-14T17:44:07.480Z</time>
      </trkpt>
      <trkpt lat="44.82643" lon="4.60305">
        <ele>329.6</ele>
        <time>2023-06-14T17:44:08.297Z</time>
      </trkpt>
      <trkpt lat="44.82643" lon="4.60305">
        <ele>329.6</ele>
        <time>2023-06-14T17:44:08.297Z</time>
      </trkpt>
      <trkpt lat="44.82642" lon="4.60306">
        <ele>329.6</ele>
        <time>2023-06-14T17:44:08.844Z</time>
      </trkpt>
      <trkpt lat="44.82641" lon="4.60307">
        <ele>329.4</ele>
        <time>2023-06-14T17:44:09.398Z</time>
      </trkpt>
      <trkpt lat="44.8264" lon="4.60306">
        <ele>329.3</ele>
        <time>2023-06-14T17:44:09.945Z</time>
      </trkpt>
      <trkpt lat="44.8264" lon="4.60305">
        <ele>329</ele>
        <time>2023-06-14T17:44:10.272Z</time>
      </trkpt>
      <trkpt lat="44.82639" lon="4.60305">
        <ele>328.9</ele>
        <time>2023-06-14T17:44:10.723Z</time>
      </trkpt>
      <trkpt lat="44.82636" lon="4.60308">
        <ele>328.8</ele>
        <time>2023-06-14T17:44:12.359Z</time>
      </trkpt>
      <trkpt lat="44.82636" lon="4.60308">
        <ele>328.8</ele>
        <time>2023-06-14T17:44:12.359Z</time>
      </trkpt>
      <trkpt lat="44.82637" lon="4.60306">
        <ele>328.8</ele>
        <time>2023-06-14T17:44:13.135Z</time>
      </trkpt>
      <trkpt lat="44.82638" lon="4.60307">
        <ele>328.9</ele>
        <time>2023-06-14T17:44:13.682Z</time>
      </trkpt>
      <trkpt lat="44.82639" lon="4.60307">
        <ele>329.1</ele>
        <time>2023-06-14T17:44:14.133Z</time>
      </trkpt>
      <trkpt lat="44.82638" lon="4.60305">
        <ele>328.7</ele>
        <time>2023-06-14T17:44:14.922Z</time>
      </trkpt>
      <trkpt lat="44.82637" lon="4.60304">
        <ele>328.3</ele>
        <time>2023-06-14T17:44:15.488Z</time>
      </trkpt>
      <trkpt lat="44.82637" lon="4.60304">
        <ele>328.3</ele>
        <time>2023-06-14T17:44:15.488Z</time>
      </trkpt>
      <trkpt lat="44.82637" lon="4.60304">
        <ele>328.3</ele>
        <time>2023-06-14T17:44:15.488Z</time>
      </trkpt>
      <trkpt lat="44.82634" lon="4.60307">
        <ele>328.3</ele>
        <time>2023-06-14T17:44:17.124Z</time>
      </trkpt>
      <trkpt lat="44.82633" lon="4.60307">
        <ele>328.1</ele>
        <time>2023-06-14T17:44:17.575Z</time>
      </trkpt>
      <trkpt lat="44.82632" lon="4.60306">
        <ele>327.9</ele>
        <time>2023-06-14T17:44:18.128Z</time>
      </trkpt>
      <trkpt lat="44.82632" lon="4.60306">
        <ele>327.9</ele>
        <time>2023-06-14T17:44:18.128Z</time>
      </trkpt>
      <trkpt lat="44.82632" lon="4.60306">
        <ele>327.9</ele>
        <time>2023-06-14T17:44:18.128Z</time>
      </trkpt>
      <trkpt lat="44.82633" lon="4.60306">
        <ele>328.1</ele>
        <time>2023-06-14T17:44:18.579Z</time>
      </trkpt>
      <trkpt lat="44.82637" lon="4.60307">
        <ele>328.8</ele>
        <time>2023-06-14T17:44:20.409Z</time>
      </trkpt>
      <trkpt lat="44.82638" lon="4.60309">
        <ele>329.4</ele>
        <time>2023-06-14T17:44:21.216Z</time>
      </trkpt>
      <trkpt lat="44.82637" lon="4.6031">
        <ele>329.5</ele>
        <time>2023-06-14T17:44:21.760Z</time>
      </trkpt>
      <trkpt lat="44.82634" lon="4.60315">
        <ele>329.9</ele>
        <time>2023-06-14T17:44:23.832Z</time>
      </trkpt>
      <trkpt lat="44.82632" lon="4.60317">
        <ele>329.8</ele>
        <time>2023-06-14T17:44:24.930Z</time>
      </trkpt>
      <trkpt lat="44.82625" lon="4.6032">
        <ele>329</ele>
        <time>2023-06-14T17:44:28.195Z</time>
      </trkpt>
      <trkpt lat="44.8262" lon="4.60323">
        <ele>328.8</ele>
        <time>2023-06-14T17:44:30.610Z</time>
      </trkpt>
      <trkpt lat="44.82617" lon="4.60324">
        <ele>328.3</ele>
        <time>2023-06-14T17:44:31.996Z</time>
      </trkpt>
      <trkpt lat="44.82614" lon="4.60328">
        <ele>328.7</ele>
        <time>2023-06-14T17:44:33.839Z</time>
      </trkpt>
      <trkpt lat="44.82611" lon="4.60331">
        <ele>328.5</ele>
        <time>2023-06-14T17:44:35.476Z</time>
      </trkpt>
      <trkpt lat="44.82608" lon="4.60333">
        <ele>328.2</ele>
        <time>2023-06-14T17:44:36.957Z</time>
      </trkpt>
      <trkpt lat="44.826" lon="4.60336">
        <ele>327.6</ele>
        <time>2023-06-14T17:44:40.644Z</time>
      </trkpt>
      <trkpt lat="44.82593" lon="4.60339">
        <ele>326.9</ele>
        <time>2023-06-14T17:44:43.913Z</time>
      </trkpt>
      <trkpt lat="44.8259" lon="4.6034">
        <ele>326.6</ele>
        <time>2023-06-14T17:44:45.290Z</time>
      </trkpt>
      <trkpt lat="44.8259" lon="4.60341">
        <ele>326.9</ele>
        <time>2023-06-14T17:44:45.621Z</time>
      </trkpt>
      <trkpt lat="44.82589" lon="4.60343">
        <ele>327</ele>
        <time>2023-06-14T17:44:46.397Z</time>
      </trkpt>
      <trkpt lat="44.82587" lon="4.60349">
        <ele>328</ele>
        <time>2023-06-14T17:44:48.520Z</time>
      </trkpt>
      <trkpt lat="44.82581" lon="4.60358">
        <ele>328.1</ele>
        <time>2023-06-14T17:44:52.418Z</time>
      </trkpt>
      <trkpt lat="44.82578" lon="4.60358">
        <ele>326.9</ele>
        <time>2023-06-14T17:44:53.837Z</time>
      </trkpt>
      <trkpt lat="44.82577" lon="4.60357">
        <ele>326.3</ele>
        <time>2023-06-14T17:44:54.435Z</time>
      </trkpt>
      <trkpt lat="44.82577" lon="4.60357">
        <ele>326.3</ele>
        <time>2023-06-14T17:44:54.435Z</time>
      </trkpt>
      <trkpt lat="44.82577" lon="4.60358">
        <ele>326.5</ele>
        <time>2023-06-14T17:44:54.763Z</time>
      </trkpt>
      <trkpt lat="44.82577" lon="4.6036">
        <ele>326.8</ele>
        <time>2023-06-14T17:44:55.405Z</time>
      </trkpt>
      <trkpt lat="44.82575" lon="4.60361">
        <ele>326.2</ele>
        <time>2023-06-14T17:44:56.378Z</time>
      </trkpt>
      <trkpt lat="44.8257" lon="4.6035">
        <ele>322</ele>
        <time>2023-06-14T17:45:00.832Z</time>
      </trkpt>
      <trkpt lat="44.8257" lon="4.60345">
        <ele>321.3</ele>
        <time>2023-06-14T17:45:02.432Z</time>
      </trkpt>
      <trkpt lat="44.8257" lon="4.60341">
        <ele>320.6</ele>
        <time>2023-06-14T17:45:03.725Z</time>
      </trkpt>
      <trkpt lat="44.82573" lon="4.60333">
        <ele>320.2</ele>
        <time>2023-06-14T17:45:06.582Z</time>
      </trkpt>
      <trkpt lat="44.82575" lon="4.6033">
        <ele>320.6</ele>
        <time>2023-06-14T17:45:07.888Z</time>
      </trkpt>
      <trkpt lat="44.82583" lon="4.60326">
        <ele>322.7</ele>
        <time>2023-06-14T17:45:11.753Z</time>
      </trkpt>
      <trkpt lat="44.8259" lon="4.60319">
        <ele>323</ele>
        <time>2023-06-14T17:45:15.573Z</time>
      </trkpt>
      <trkpt lat="44.82593" lon="4.60315">
        <ele>322.8</ele>
        <time>2023-06-14T17:45:17.412Z</time>
      </trkpt>
      <trkpt lat="44.82602" lon="4.60306">
        <ele>322.9</ele>
        <time>2023-06-14T17:45:22.320Z</time>
      </trkpt>
      <trkpt lat="44.82603" lon="4.60303">
        <ele>322.4</ele>
        <time>2023-06-14T17:45:23.384Z</time>
      </trkpt>
      <trkpt lat="44.82603" lon="4.60299">
        <ele>321.8</ele>
        <time>2023-06-14T17:45:24.668Z</time>
      </trkpt>
      <trkpt lat="44.82601" lon="4.60297">
        <ele>321.3</ele>
        <time>2023-06-14T17:45:25.782Z</time>
      </trkpt>
      <trkpt lat="44.826" lon="4.60295">
        <ele>320.7</ele>
        <time>2023-06-14T17:45:26.588Z</time>
      </trkpt>
      <trkpt lat="44.82595" lon="4.60292">
        <ele>319.4</ele>
        <time>2023-06-14T17:45:29.062Z</time>
      </trkpt>
      <trkpt lat="44.82593" lon="4.60291">
        <ele>318.9</ele>
        <time>2023-06-14T17:45:30.026Z</time>
      </trkpt>
      <trkpt lat="44.82587" lon="4.60291">
        <ele>317.9</ele>
        <time>2023-06-14T17:45:32.721Z</time>
      </trkpt>
      <trkpt lat="44.82585" lon="4.60291">
        <ele>317.6</ele>
        <time>2023-06-14T17:45:33.621Z</time>
      </trkpt>
      <trkpt lat="44.82583" lon="4.60291">
        <ele>317.2</ele>
        <time>2023-06-14T17:45:34.525Z</time>
      </trkpt>
      <trkpt lat="44.82577" lon="4.60293">
        <ele>316.4</ele>
        <time>2023-06-14T17:45:37.278Z</time>
      </trkpt>
      <trkpt lat="44.82574" lon="4.60294">
        <ele>315.9</ele>
        <time>2023-06-14T17:45:38.670Z</time>
      </trkpt>
      <trkpt lat="44.8257" lon="4.60296">
        <ele>315.3</ele>
        <time>2023-06-14T17:45:40.574Z</time>
      </trkpt>
      <trkpt lat="44.82568" lon="4.60296">
        <ele>314.8</ele>
        <time>2023-06-14T17:45:41.477Z</time>
      </trkpt>
      <trkpt lat="44.82563" lon="4.60294">
        <ele>313.6</ele>
        <time>2023-06-14T17:45:43.845Z</time>
      </trkpt>
      <trkpt lat="44.82558" lon="4.6029">
        <ele>312.3</ele>
        <time>2023-06-14T17:45:46.453Z</time>
      </trkpt>
      <trkpt lat="44.8255" lon="4.60286">
        <ele>310.8</ele>
        <time>2023-06-14T17:45:50.278Z</time>
      </trkpt>
      <trkpt lat="44.82548" lon="4.60288">
        <ele>310.5</ele>
        <time>2023-06-14T17:45:51.375Z</time>
      </trkpt>
      <trkpt lat="44.82546" lon="4.60291">
        <ele>310.1</ele>
        <time>2023-06-14T17:45:52.684Z</time>
      </trkpt>
      <trkpt lat="44.82537" lon="4.603">
        <ele>308.2</ele>
        <time>2023-06-14T17:45:57.655Z</time>
      </trkpt>
      <trkpt lat="44.82532" lon="4.60306">
        <ele>306.8</ele>
        <time>2023-06-14T17:46:00.623Z</time>
      </trkpt>
      <trkpt lat="44.82519" lon="4.60327">
        <ele>301.5</ele>
        <time>2023-06-14T17:46:09.660Z</time>
      </trkpt>
      <trkpt lat="44.82512" lon="4.6034">
        <ele>298.7</ele>
        <time>2023-06-14T17:46:14.933Z</time>
      </trkpt>
      <trkpt lat="44.8251" lon="4.60341">
        <ele>298.1</ele>
        <time>2023-06-14T17:46:15.909Z</time>
      </trkpt>
      <trkpt lat="44.82505" lon="4.60344">
        <ele>296.4</ele>
        <time>2023-06-14T17:46:18.420Z</time>
      </trkpt>
      <trkpt lat="44.82497" lon="4.6035">
        <ele>293.9</ele>
        <time>2023-06-14T17:46:22.569Z</time>
      </trkpt>
      <trkpt lat="44.8249" lon="4.60353">
        <ele>292.6</ele>
        <time>2023-06-14T17:46:25.865Z</time>
      </trkpt>
      <trkpt lat="44.82487" lon="4.60354">
        <ele>291.9</ele>
        <time>2023-06-14T17:46:27.265Z</time>
      </trkpt>
      <trkpt lat="44.82478" lon="4.60353">
        <ele>289.9</ele>
        <time>2023-06-14T17:46:31.356Z</time>
      </trkpt>
      <trkpt lat="44.82469" lon="4.6035">
        <ele>287.9</ele>
        <time>2023-06-14T17:46:35.544Z</time>
      </trkpt>
      <trkpt lat="44.82459" lon="4.60343">
        <ele>285.9</ele>
        <time>2023-06-14T17:46:40.570Z</time>
      </trkpt>
      <trkpt lat="44.82453" lon="4.6034">
        <ele>284.8</ele>
        <time>2023-06-14T17:46:43.437Z</time>
      </trkpt>
      <trkpt lat="44.82448" lon="4.60337">
        <ele>284</ele>
        <time>2023-06-14T17:46:45.881Z</time>
      </trkpt>
      <trkpt lat="44.82443" lon="4.60338">
        <ele>282.9</ele>
        <time>2023-06-14T17:46:48.165Z</time>
      </trkpt>
      <trkpt lat="44.82435" lon="4.60343">
        <ele>281</ele>
        <time>2023-06-14T17:46:52.125Z</time>
      </trkpt>
      <trkpt lat="44.8243" lon="4.60344">
        <ele>279.9</ele>
        <time>2023-06-14T17:46:54.416Z</time>
      </trkpt>
      <trkpt lat="44.82415" lon="4.60338">
        <ele>277.7</ele>
        <time>2023-06-14T17:47:01.406Z</time>
      </trkpt>
      <trkpt lat="44.82405" lon="4.60342">
        <ele>277.4</ele>
        <time>2023-06-14T17:47:06.034Z</time>
      </trkpt>
      <trkpt lat="44.82401" lon="4.60345">
        <ele>277</ele>
        <time>2023-06-14T17:47:08.052Z</time>
      </trkpt>
      <trkpt lat="44.82397" lon="4.60348">
        <ele>276.6</ele>
        <time>2023-06-14T17:47:10.073Z</time>
      </trkpt>
      <trkpt lat="44.82383" lon="4.60351">
        <ele>276.1</ele>
        <time>2023-06-14T17:47:16.374Z</time>
      </trkpt>
      <trkpt lat="44.82374" lon="4.60354">
        <ele>275.2</ele>
        <time>2023-06-14T17:47:20.501Z</time>
      </trkpt>
      <trkpt lat="44.82368" lon="4.60356">
        <ele>274.8</ele>
        <time>2023-06-14T17:47:23.247Z</time>
      </trkpt>
      <trkpt lat="44.82357" lon="4.60359">
        <ele>274</ele>
        <time>2023-06-14T17:47:28.240Z</time>
      </trkpt>
      <trkpt lat="44.82345" lon="4.60358">
        <ele>273.6</ele>
        <time>2023-06-14T17:47:33.589Z</time>
      </trkpt>
      <trkpt lat="44.8234" lon="4.60357">
        <ele>273.7</ele>
        <time>2023-06-14T17:47:35.834Z</time>
      </trkpt>
      <trkpt lat="44.82335" lon="4.60358">
        <ele>273.2</ele>
        <time>2023-06-14T17:47:38.087Z</time>
      </trkpt>
      <trkpt lat="44.82329" lon="4.60359">
        <ele>273.1</ele>
        <time>2023-06-14T17:47:40.775Z</time>
      </trkpt>
      <trkpt lat="44.82318" lon="4.60361">
        <ele>272.2</ele>
        <time>2023-06-14T17:47:45.719Z</time>
      </trkpt>
      <trkpt lat="44.82307" lon="4.6036">
        <ele>272.5</ele>
        <time>2023-06-14T17:47:50.628Z</time>
      </trkpt>
      <trkpt lat="44.82298" lon="4.60355">
        <ele>274</ele>
        <time>2023-06-14T17:47:54.971Z</time>
      </trkpt>
      <trkpt lat="44.8229" lon="4.60355">
        <ele>274</ele>
        <time>2023-06-14T17:47:58.534Z</time>
      </trkpt>
      <trkpt lat="44.82284" lon="4.60368">
        <ele>269.4</ele>
        <time>2023-06-14T17:48:03.756Z</time>
      </trkpt>
      <trkpt lat="44.82282" lon="4.60387">
        <ele>262.6</ele>
        <time>2023-06-14T17:48:10.408Z</time>
      </trkpt>
      <trkpt lat="44.82276" lon="4.60404">
        <ele>256.2</ele>
        <time>2023-06-14T17:48:16.921Z</time>
      </trkpt>
      <trkpt lat="44.82269" lon="4.60416">
        <ele>251.3</ele>
        <time>2023-06-14T17:48:22.189Z</time>
      </trkpt>
      <trkpt lat="44.82262" lon="4.60423">
        <ele>250.9</ele>
        <time>2023-06-14T17:48:26.013Z</time>
      </trkpt>
      <trkpt lat="44.82252" lon="4.60425">
        <ele>249.9</ele>
        <time>2023-06-14T17:48:30.518Z</time>
      </trkpt>
      <trkpt lat="44.82249" lon="4.60425">
        <ele>249.8</ele>
        <time>2023-06-14T17:48:31.854Z</time>
      </trkpt>
      <trkpt lat="44.82243" lon="4.60425">
        <ele>250.4</ele>
        <time>2023-06-14T17:48:34.535Z</time>
      </trkpt>
      <trkpt lat="44.82232" lon="4.60422">
        <ele>251.6</ele>
        <time>2023-06-14T17:48:39.538Z</time>
      </trkpt>
      <trkpt lat="44.82227" lon="4.60422">
        <ele>252.2</ele>
        <time>2023-06-14T17:48:41.780Z</time>
      </trkpt>
      <trkpt lat="44.82221" lon="4.60422">
        <ele>252.9</ele>
        <time>2023-06-14T17:48:44.466Z</time>
      </trkpt>
      <trkpt lat="44.82213" lon="4.60425">
        <ele>253.6</ele>
        <time>2023-06-14T17:48:48.155Z</time>
      </trkpt>
      <trkpt lat="44.82208" lon="4.60429">
        <ele>253.7</ele>
        <time>2023-06-14T17:48:50.711Z</time>
      </trkpt>
      <trkpt lat="44.82206" lon="4.60431">
        <ele>253.5</ele>
        <time>2023-06-14T17:48:51.800Z</time>
      </trkpt>
      <trkpt lat="44.822" lon="4.60436">
        <ele>253.2</ele>
        <time>2023-06-14T17:48:54.903Z</time>
      </trkpt>
      <trkpt lat="44.82197" lon="4.60438">
        <ele>253.1</ele>
        <time>2023-06-14T17:48:56.380Z</time>
      </trkpt>
      <trkpt lat="44.82195" lon="4.60439">
        <ele>253</ele>
        <time>2023-06-14T17:48:57.330Z</time>
      </trkpt>
      <trkpt lat="44.82193" lon="4.60439">
        <ele>253.1</ele>
        <time>2023-06-14T17:48:58.218Z</time>
      </trkpt>
      <trkpt lat="44.82192" lon="4.60438">
        <ele>253.4</ele>
        <time>2023-06-14T17:48:58.775Z</time>
      </trkpt>
      <trkpt lat="44.82191" lon="4.60437">
        <ele>253.7</ele>
        <time>2023-06-14T17:48:59.330Z</time>
      </trkpt>
      <trkpt lat="44.82192" lon="4.60436">
        <ele>253.6</ele>
        <time>2023-06-14T17:48:59.872Z</time>
      </trkpt>
      <trkpt lat="44.82191" lon="4.60436">
        <ele>253.7</ele>
        <time>2023-06-14T17:49:00.312Z</time>
      </trkpt>
      <trkpt lat="44.82189" lon="4.60436">
        <ele>253.8</ele>
        <time>2023-06-14T17:49:01.208Z</time>
      </trkpt>
      <trkpt lat="44.82187" lon="4.60437">
        <ele>253.9</ele>
        <time>2023-06-14T17:49:02.151Z</time>
      </trkpt>
      <trkpt lat="44.82186" lon="4.60437">
        <ele>253.9</ele>
        <time>2023-06-14T17:49:02.592Z</time>
      </trkpt>
      <trkpt lat="44.82186" lon="4.60439">
        <ele>253.3</ele>
        <time>2023-06-14T17:49:03.260Z</time>
      </trkpt>
      <trkpt lat="44.82186" lon="4.60439">
        <ele>253.3</ele>
        <time>2023-06-14T17:49:03.260Z</time>
      </trkpt>
      <trkpt lat="44.82184" lon="4.60441">
        <ele>253.1</ele>
        <time>2023-06-14T17:49:04.360Z</time>
      </trkpt>
      <trkpt lat="44.82184" lon="4.60442">
        <ele>252.8</ele>
        <time>2023-06-14T17:49:04.694Z</time>
      </trkpt>
      <trkpt lat="44.82184" lon="4.60444">
        <ele>252.2</ele>
        <time>2023-06-14T17:49:05.368Z</time>
      </trkpt>
      <trkpt lat="44.82184" lon="4.60457">
        <ele>249.2</ele>
        <time>2023-06-14T17:49:09.640Z</time>
      </trkpt>
      <trkpt lat="44.82181" lon="4.60461">
        <ele>248.1</ele>
        <time>2023-06-14T17:49:11.530Z</time>
      </trkpt>
      <trkpt lat="44.8218" lon="4.60458">
        <ele>249</ele>
        <time>2023-06-14T17:49:12.635Z</time>
      </trkpt>
      <trkpt lat="44.8218" lon="4.60458">
        <ele>249</ele>
        <time>2023-06-14T17:49:12.635Z</time>
      </trkpt>
      <trkpt lat="44.8218" lon="4.60458">
        <ele>249</ele>
        <time>2023-06-14T17:49:12.635Z</time>
      </trkpt>
      <trkpt lat="44.8218" lon="4.60458">
        <ele>249</ele>
        <time>2023-06-14T17:49:12.635Z</time>
      </trkpt>
      <trkpt lat="44.8218" lon="4.60458">
        <ele>249</ele>
        <time>2023-06-14T17:49:12.635Z</time>
      </trkpt>
      <trkpt lat="44.8218" lon="4.60458">
        <ele>249</ele>
        <time>2023-06-14T17:49:12.635Z</time>
      </trkpt>
      <trkpt lat="44.8218" lon="4.60458">
        <ele>249</ele>
        <time>2023-06-14T17:49:12.635Z</time>
      </trkpt>
      <trkpt lat="44.8218" lon="4.60458">
        <ele>249</ele>
        <time>2023-06-14T17:49:12.635Z</time>
      </trkpt>
      <trkpt lat="44.8218" lon="4.60458">
        <ele>249</ele>
        <time>2023-06-14T17:49:12.635Z</time>
      </trkpt>
      <trkpt lat="44.8218" lon="4.60458">
        <ele>249</ele>
        <time>2023-06-14T17:49:12.635Z</time>
      </trkpt>
      <trkpt lat="44.8218" lon="4.60458">
        <ele>249</ele>
        <time>2023-06-14T17:49:12.635Z</time>
      </trkpt>
      <trkpt lat="44.82182" lon="4.60458">
        <ele>249.1</ele>
        <time>2023-06-14T17:49:13.522Z</time>
      </trkpt>
      <trkpt lat="44.82182" lon="4.60458">
        <ele>249.1</ele>
        <time>2023-06-14T17:49:13.522Z</time>
      </trkpt>
      <trkpt lat="44.82183" lon="4.60458">
        <ele>249.2</ele>
        <time>2023-06-14T17:49:13.971Z</time>
      </trkpt>
      <trkpt lat="44.82183" lon="4.60458">
        <ele>249.2</ele>
        <time>2023-06-14T17:49:13.971Z</time>
      </trkpt>
      <trkpt lat="44.82183" lon="4.60458">
        <ele>249.2</ele>
        <time>2023-06-14T17:49:13.971Z</time>
      </trkpt>
      <trkpt lat="44.82182" lon="4.60457">
        <ele>249.1</ele>
        <time>2023-06-14T17:49:14.519Z</time>
      </trkpt>
      <trkpt lat="44.82181" lon="4.60457">
        <ele>249.1</ele>
        <time>2023-06-14T17:49:14.967Z</time>
      </trkpt>
      <trkpt lat="44.8218" lon="4.60457">
        <ele>249</ele>
        <time>2023-06-14T17:49:15.408Z</time>
      </trkpt>
      <trkpt lat="44.8218" lon="4.60456">
        <ele>249.4</ele>
        <time>2023-06-14T17:49:15.750Z</time>
      </trkpt>
      <trkpt lat="44.8218" lon="4.60456">
        <ele>249.4</ele>
        <time>2023-06-14T17:49:15.750Z</time>
      </trkpt>
      <trkpt lat="44.82179" lon="4.60456">
        <ele>249.3</ele>
        <time>2023-06-14T17:49:16.198Z</time>
      </trkpt>
      <trkpt lat="44.82179" lon="4.60455">
        <ele>249.7</ele>
        <time>2023-06-14T17:49:16.537Z</time>
      </trkpt>
      <trkpt lat="44.82179" lon="4.60455">
        <ele>249.7</ele>
        <time>2023-06-14T17:49:16.537Z</time>
      </trkpt>
      <trkpt lat="44.82179" lon="4.60454">
        <ele>250</ele>
        <time>2023-06-14T17:49:16.881Z</time>
      </trkpt>
      <trkpt lat="44.82179" lon="4.60454">
        <ele>250</ele>
        <time>2023-06-14T17:49:16.881Z</time>
      </trkpt>
      <trkpt lat="44.82179" lon="4.60454">
        <ele>250</ele>
        <time>2023-06-14T17:49:16.881Z</time>
      </trkpt>
      <trkpt lat="44.82179" lon="4.60454">
        <ele>250</ele>
        <time>2023-06-14T17:49:16.881Z</time>
      </trkpt>
      <trkpt lat="44.82179" lon="4.60454">
        <ele>250</ele>
        <time>2023-06-14T17:49:16.881Z</time>
      </trkpt>
      <trkpt lat="44.82179" lon="4.60454">
        <ele>250</ele>
        <time>2023-06-14T17:49:16.881Z</time>
      </trkpt>
      <trkpt lat="44.82179" lon="4.60454">
        <ele>250</ele>
        <time>2023-06-14T17:49:16.881Z</time>
      </trkpt>
      <trkpt lat="44.82179" lon="4.60454">
        <ele>250</ele>
        <time>2023-06-14T17:49:16.881Z</time>
      </trkpt>
      <trkpt lat="44.82179" lon="4.60453">
        <ele>250</ele>
        <time>2023-06-14T17:49:17.198Z</time>
      </trkpt>
      <trkpt lat="44.82178" lon="4.60453">
        <ele>250</ele>
        <time>2023-06-14T17:49:17.645Z</time>
      </trkpt>
      <trkpt lat="44.82178" lon="4.60453">
        <ele>250</ele>
        <time>2023-06-14T17:49:17.645Z</time>
      </trkpt>
      <trkpt lat="44.82178" lon="4.60452">
        <ele>250.3</ele>
        <time>2023-06-14T17:49:17.984Z</time>
      </trkpt>
      <trkpt lat="44.82178" lon="4.60452">
        <ele>250.3</ele>
        <time>2023-06-14T17:49:17.984Z</time>
      </trkpt>
      <trkpt lat="44.82179" lon="4.60451">
        <ele>250.6</ele>
        <time>2023-06-14T17:49:18.549Z</time>
      </trkpt>
      <trkpt lat="44.82179" lon="4.60451">
        <ele>250.6</ele>
        <time>2023-06-14T17:49:18.549Z</time>
      </trkpt>
      <trkpt lat="44.8218" lon="4.60452">
        <ele>250.3</ele>
        <time>2023-06-14T17:49:19.112Z</time>
      </trkpt>
      <trkpt lat="44.82181" lon="4.60452">
        <ele>250.4</ele>
        <time>2023-06-14T17:49:19.552Z</time>
      </trkpt>
      <trkpt lat="44.82183" lon="4.60454">
        <ele>250.1</ele>
        <time>2023-06-14T17:49:20.651Z</time>
      </trkpt>
      <trkpt lat="44.82183" lon="4.60454">
        <ele>250.1</ele>
        <time>2023-06-14T17:49:20.651Z</time>
      </trkpt>
      <trkpt lat="44.82183" lon="4.60454">
        <ele>250.1</ele>
        <time>2023-06-14T17:49:20.651Z</time>
      </trkpt>
      <trkpt lat="44.82181" lon="4.60455">
        <ele>249.7</ele>
        <time>2023-06-14T17:49:21.611Z</time>
      </trkpt>
      <trkpt lat="44.82181" lon="4.60455">
        <ele>249.7</ele>
        <time>2023-06-14T17:49:21.611Z</time>
      </trkpt>
      <trkpt lat="44.82178" lon="4.60452">
        <ele>250.3</ele>
        <time>2023-06-14T17:49:23.263Z</time>
      </trkpt>
      <trkpt lat="44.82178" lon="4.60451">
        <ele>250.6</ele>
        <time>2023-06-14T17:49:23.608Z</time>
      </trkpt>
      <trkpt lat="44.82177" lon="4.6045">
        <ele>251</ele>
        <time>2023-06-14T17:49:24.165Z</time>
      </trkpt>
      <trkpt lat="44.82177" lon="4.60451">
        <ele>250.6</ele>
        <time>2023-06-14T17:49:24.511Z</time>
      </trkpt>
      <trkpt lat="44.82177" lon="4.60451">
        <ele>250.6</ele>
        <time>2023-06-14T17:49:24.511Z</time>
      </trkpt>
      <trkpt lat="44.82177" lon="4.60451">
        <ele>250.6</ele>
        <time>2023-06-14T17:49:24.511Z</time>
      </trkpt>
      <trkpt lat="44.82177" lon="4.60451">
        <ele>250.6</ele>
        <time>2023-06-14T17:49:24.511Z</time>
      </trkpt>
      <trkpt lat="44.82177" lon="4.60451">
        <ele>250.6</ele>
        <time>2023-06-14T17:49:24.511Z</time>
      </trkpt>
      <trkpt lat="44.82177" lon="4.60451">
        <ele>250.6</ele>
        <time>2023-06-14T17:49:24.511Z</time>
      </trkpt>
      <trkpt lat="44.82177" lon="4.60451">
        <ele>250.6</ele>
        <time>2023-06-14T17:49:24.511Z</time>
      </trkpt>
      <trkpt lat="44.82177" lon="4.60451">
        <ele>250.6</ele>
        <time>2023-06-14T17:49:24.511Z</time>
      </trkpt>
      <trkpt lat="44.82176" lon="4.60451">
        <ele>250.6</ele>
        <time>2023-06-14T17:49:24.958Z</time>
      </trkpt>
      <trkpt lat="44.82176" lon="4.60451">
        <ele>250.6</ele>
        <time>2023-06-14T17:49:24.958Z</time>
      </trkpt>
      <trkpt lat="44.82175" lon="4.60451">
        <ele>250.6</ele>
        <time>2023-06-14T17:49:25.404Z</time>
      </trkpt>
      <trkpt lat="44.82175" lon="4.60452">
        <ele>250.2</ele>
        <time>2023-06-14T17:49:25.751Z</time>
      </trkpt>
      <trkpt lat="44.82177" lon="4.60451">
        <ele>250.6</ele>
        <time>2023-06-14T17:49:26.713Z</time>
      </trkpt>
      <trkpt lat="44.82179" lon="4.60454">
        <ele>250</ele>
        <time>2023-06-14T17:49:28.035Z</time>
      </trkpt>
      <trkpt lat="44.82178" lon="4.60454">
        <ele>250</ele>
        <time>2023-06-14T17:49:28.482Z</time>
      </trkpt>
      <trkpt lat="44.82178" lon="4.60455">
        <ele>249.6</ele>
        <time>2023-06-14T17:49:28.827Z</time>
      </trkpt>
      <trkpt lat="44.82179" lon="4.60455">
        <ele>249.7</ele>
        <time>2023-06-14T17:49:29.274Z</time>
      </trkpt>
      <trkpt lat="44.8218" lon="4.60454">
        <ele>250</ele>
        <time>2023-06-14T17:49:29.841Z</time>
      </trkpt>
      <trkpt lat="44.82181" lon="4.60453">
        <ele>250</ele>
        <time>2023-06-14T17:49:30.383Z</time>
      </trkpt>
      <trkpt lat="44.82181" lon="4.60454">
        <ele>250</ele>
        <time>2023-06-14T17:49:30.700Z</time>
      </trkpt>
      <trkpt lat="44.82181" lon="4.60454">
        <ele>250</ele>
        <time>2023-06-14T17:49:30.700Z</time>
      </trkpt>
      <trkpt lat="44.82181" lon="4.60454">
        <ele>250</ele>
        <time>2023-06-14T17:49:30.700Z</time>
      </trkpt>
      <trkpt lat="44.82181" lon="4.60455">
        <ele>249.7</ele>
        <time>2023-06-14T17:49:31.042Z</time>
      </trkpt>
      <trkpt lat="44.82181" lon="4.60455">
        <ele>249.7</ele>
        <time>2023-06-14T17:49:31.042Z</time>
      </trkpt>
      <trkpt lat="44.82181" lon="4.60455">
        <ele>249.7</ele>
        <time>2023-06-14T17:49:31.042Z</time>
      </trkpt>
      <trkpt lat="44.82181" lon="4.60455">
        <ele>249.7</ele>
        <time>2023-06-14T17:49:31.042Z</time>
      </trkpt>
      <trkpt lat="44.82182" lon="4.60455">
        <ele>249.8</ele>
        <time>2023-06-14T17:49:31.489Z</time>
      </trkpt>
      <trkpt lat="44.82182" lon="4.60455">
        <ele>249.8</ele>
        <time>2023-06-14T17:49:31.489Z</time>
      </trkpt>
      <trkpt lat="44.82182" lon="4.60454">
        <ele>250.1</ele>
        <time>2023-06-14T17:49:31.830Z</time>
      </trkpt>
      <trkpt lat="44.82181" lon="4.60454">
        <ele>250</ele>
        <time>2023-06-14T17:49:32.276Z</time>
      </trkpt>
      <trkpt lat="44.82181" lon="4.60455">
        <ele>249.7</ele>
        <time>2023-06-14T17:49:32.618Z</time>
      </trkpt>
      <trkpt lat="44.82181" lon="4.60455">
        <ele>249.7</ele>
        <time>2023-06-14T17:49:32.618Z</time>
      </trkpt>
      <trkpt lat="44.8218" lon="4.60456">
        <ele>249.4</ele>
        <time>2023-06-14T17:49:33.176Z</time>
      </trkpt>
      <trkpt lat="44.8218" lon="4.60456">
        <ele>249.4</ele>
        <time>2023-06-14T17:49:33.176Z</time>
      </trkpt>
      <trkpt lat="44.82182" lon="4.60457">
        <ele>249.1</ele>
        <time>2023-06-14T17:49:34.123Z</time>
      </trkpt>
      <trkpt lat="44.82182" lon="4.60458">
        <ele>249.1</ele>
        <time>2023-06-14T17:49:34.440Z</time>
      </trkpt>
      <trkpt lat="44.82182" lon="4.60459">
        <ele>248.8</ele>
        <time>2023-06-14T17:49:34.776Z</time>
      </trkpt>
      <trkpt lat="44.82182" lon="4.60459">
        <ele>248.8</ele>
        <time>2023-06-14T17:49:34.776Z</time>
      </trkpt>
      <trkpt lat="44.82183" lon="4.60459">
        <ele>248.9</ele>
        <time>2023-06-14T17:49:35.224Z</time>
      </trkpt>
      <trkpt lat="44.82181" lon="4.60461">
        <ele>248.1</ele>
        <time>2023-06-14T17:49:36.360Z</time>
      </trkpt>
      <trkpt lat="44.82182" lon="4.6046">
        <ele>248.5</ele>
        <time>2023-06-14T17:49:36.929Z</time>
      </trkpt>
      <trkpt lat="44.82184" lon="4.6046">
        <ele>248.7</ele>
        <time>2023-06-14T17:49:37.817Z</time>
      </trkpt>
      <trkpt lat="44.82184" lon="4.6046">
        <ele>248.7</ele>
        <time>2023-06-14T17:49:37.817Z</time>
      </trkpt>
      <trkpt lat="44.82185" lon="4.6046">
        <ele>248.7</ele>
        <time>2023-06-14T17:49:38.266Z</time>
      </trkpt>
      <trkpt lat="44.82184" lon="4.6046">
        <ele>248.7</ele>
        <time>2023-06-14T17:49:38.714Z</time>
      </trkpt>
      <trkpt lat="44.82184" lon="4.6046">
        <ele>248.7</ele>
        <time>2023-06-14T17:49:38.714Z</time>
      </trkpt>
      <trkpt lat="44.82184" lon="4.6046">
        <ele>248.7</ele>
        <time>2023-06-14T17:49:38.714Z</time>
      </trkpt>
      <trkpt lat="44.82184" lon="4.6046">
        <ele>248.7</ele>
        <time>2023-06-14T17:49:38.714Z</time>
      </trkpt>
      <trkpt lat="44.82184" lon="4.6046">
        <ele>248.7</ele>
        <time>2023-06-14T17:49:38.714Z</time>
      </trkpt>
      <trkpt lat="44.82184" lon="4.6046">
        <ele>248.7</ele>
        <time>2023-06-14T17:49:38.714Z</time>
      </trkpt>
      <trkpt lat="44.82184" lon="4.6046">
        <ele>248.7</ele>
        <time>2023-06-14T17:49:38.714Z</time>
      </trkpt>
      <trkpt lat="44.82183" lon="4.60459">
        <ele>248.9</ele>
        <time>2023-06-14T17:49:39.264Z</time>
      </trkpt>
      <trkpt lat="44.82183" lon="4.60459">
        <ele>248.9</ele>
        <time>2023-06-14T17:49:39.264Z</time>
      </trkpt>
      <trkpt lat="44.82183" lon="4.60459">
        <ele>248.9</ele>
        <time>2023-06-14T17:49:39.264Z</time>
      </trkpt>
      <trkpt lat="44.82183" lon="4.60458">
        <ele>249.2</ele>
        <time>2023-06-14T17:49:39.598Z</time>
      </trkpt>
      <trkpt lat="44.82183" lon="4.60458">
        <ele>249.2</ele>
        <time>2023-06-14T17:49:39.598Z</time>
      </trkpt>
      <trkpt lat="44.82183" lon="4.60458">
        <ele>249.2</ele>
        <time>2023-06-14T17:49:39.598Z</time>
      </trkpt>
      <trkpt lat="44.82183" lon="4.60458">
        <ele>249.2</ele>
        <time>2023-06-14T17:49:39.598Z</time>
      </trkpt>
      <trkpt lat="44.82182" lon="4.60459">
        <ele>248.8</ele>
        <time>2023-06-14T17:49:40.162Z</time>
      </trkpt>
      <trkpt lat="44.82182" lon="4.60458">
        <ele>249.1</ele>
        <time>2023-06-14T17:49:40.498Z</time>
      </trkpt>
      <trkpt lat="44.82182" lon="4.60457">
        <ele>249.1</ele>
        <time>2023-06-14T17:49:40.815Z</time>
      </trkpt>
      <trkpt lat="44.82185" lon="4.60455">
        <ele>249.9</ele>
        <time>2023-06-14T17:49:42.320Z</time>
      </trkpt>
      <trkpt lat="44.82186" lon="4.60455">
        <ele>249.9</ele>
        <time>2023-06-14T17:49:42.766Z</time>
      </trkpt>
      <trkpt lat="44.82188" lon="4.60454">
        <ele>250.3</ele>
        <time>2023-06-14T17:49:43.718Z</time>
      </trkpt>
      <trkpt lat="44.82189" lon="4.60453">
        <ele>250.3</ele>
        <time>2023-06-14T17:49:44.260Z</time>
      </trkpt>
      <trkpt lat="44.8219" lon="4.60449">
        <ele>251.4</ele>
        <time>2023-06-14T17:49:45.663Z</time>
      </trkpt>
      <trkpt lat="44.82191" lon="4.60443">
        <ele>252.4</ele>
        <time>2023-06-14T17:49:47.650Z</time>
      </trkpt>
      <trkpt lat="44.8219" lon="4.60442">
        <ele>252.7</ele>
        <time>2023-06-14T17:49:48.209Z</time>
      </trkpt>
      <trkpt lat="44.8219" lon="4.6044">
        <ele>252.9</ele>
        <time>2023-06-14T17:49:48.846Z</time>
      </trkpt>
      <trkpt lat="44.8219" lon="4.60439">
        <ele>253.2</ele>
        <time>2023-06-14T17:49:49.181Z</time>
      </trkpt>
      <trkpt lat="44.82188" lon="4.60433">
        <ele>254.6</ele>
        <time>2023-06-14T17:49:51.349Z</time>
      </trkpt>
      <trkpt lat="44.82187" lon="4.60432">
        <ele>255</ele>
        <time>2023-06-14T17:49:51.912Z</time>
      </trkpt>
      <trkpt lat="44.82186" lon="4.60431">
        <ele>255</ele>
        <time>2023-06-14T17:49:52.455Z</time>
      </trkpt>
      <trkpt lat="44.82182" lon="4.60427">
        <ele>256.3</ele>
        <time>2023-06-14T17:49:54.697Z</time>
      </trkpt>
      <trkpt lat="44.82181" lon="4.60426">
        <ele>256.7</ele>
        <time>2023-06-14T17:49:55.267Z</time>
      </trkpt>
      <trkpt lat="44.82179" lon="4.60424">
        <ele>257.6</ele>
        <time>2023-06-14T17:49:56.411Z</time>
      </trkpt>
      <trkpt lat="44.82173" lon="4.60416">
        <ele>260.5</ele>
        <time>2023-06-14T17:50:00.260Z</time>
      </trkpt>
      <trkpt lat="44.82172" lon="4.60414">
        <ele>261</ele>
        <time>2023-06-14T17:50:01.061Z</time>
      </trkpt>
      <trkpt lat="44.82168" lon="4.60409">
        <ele>263.2</ele>
        <time>2023-06-14T17:50:03.587Z</time>
      </trkpt>
      <trkpt lat="44.82165" lon="4.60404">
        <ele>264.8</ele>
        <time>2023-06-14T17:50:05.753Z</time>
      </trkpt>
      <trkpt lat="44.82163" lon="4.604">
        <ele>265.8</ele>
        <time>2023-06-14T17:50:07.343Z</time>
      </trkpt>
      <trkpt lat="44.8216" lon="4.60396">
        <ele>266.6</ele>
        <time>2023-06-14T17:50:09.214Z</time>
      </trkpt>
      <trkpt lat="44.82158" lon="4.60393">
        <ele>267.6</ele>
        <time>2023-06-14T17:50:10.572Z</time>
      </trkpt>
      <trkpt lat="44.82157" lon="4.60391">
        <ele>267.9</ele>
        <time>2023-06-14T17:50:11.348Z</time>
      </trkpt>
      <trkpt lat="44.82157" lon="4.60389">
        <ele>268.6</ele>
        <time>2023-06-14T17:50:12.047Z</time>
      </trkpt>
      <trkpt lat="44.82156" lon="4.60384">
        <ele>269.7</ele>
        <time>2023-06-14T17:50:13.740Z</time>
      </trkpt>
      <trkpt lat="44.82154" lon="4.6038">
        <ele>270.6</ele>
        <time>2023-06-14T17:50:15.319Z</time>
      </trkpt>
      <trkpt lat="44.82154" lon="4.60375">
        <ele>272.1</ele>
        <time>2023-06-14T17:50:17.010Z</time>
      </trkpt>
      <trkpt lat="44.82153" lon="4.60368">
        <ele>274.2</ele>
        <time>2023-06-14T17:50:19.414Z</time>
      </trkpt>
      <trkpt lat="44.82153" lon="4.60366">
        <ele>274.6</ele>
        <time>2023-06-14T17:50:20.061Z</time>
      </trkpt>
      <trkpt lat="44.82152" lon="4.60361">
        <ele>275.9</ele>
        <time>2023-06-14T17:50:21.791Z</time>
      </trkpt>
      <trkpt lat="44.82151" lon="4.60352">
        <ele>278.4</ele>
        <time>2023-06-14T17:50:24.830Z</time>
      </trkpt>
      <trkpt lat="44.82151" lon="4.60349">
        <ele>279.1</ele>
        <time>2023-06-14T17:50:25.822Z</time>
      </trkpt>
      <trkpt lat="44.8215" lon="4.60347">
        <ele>279.7</ele>
        <time>2023-06-14T17:50:26.631Z</time>
      </trkpt>
      <trkpt lat="44.8215" lon="4.60344">
        <ele>280.5</ele>
        <time>2023-06-14T17:50:27.623Z</time>
      </trkpt>
      <trkpt lat="44.82149" lon="4.60342">
        <ele>281.1</ele>
        <time>2023-06-14T17:50:28.431Z</time>
      </trkpt>
      <trkpt lat="44.82149" lon="4.60339">
        <ele>281.8</ele>
        <time>2023-06-14T17:50:29.421Z</time>
      </trkpt>
      <trkpt lat="44.82148" lon="4.60334">
        <ele>283.1</ele>
        <time>2023-06-14T17:50:31.140Z</time>
      </trkpt>
      <trkpt lat="44.82148" lon="4.60332">
        <ele>283.5</ele>
        <time>2023-06-14T17:50:31.791Z</time>
      </trkpt>
      <trkpt lat="44.82148" lon="4.60318">
        <ele>287.6</ele>
        <time>2023-06-14T17:50:36.500Z</time>
      </trkpt>
      <trkpt lat="44.82148" lon="4.60311">
        <ele>289.4</ele>
        <time>2023-06-14T17:50:38.826Z</time>
      </trkpt>
      <trkpt lat="44.82148" lon="4.60304">
        <ele>291.6</ele>
        <time>2023-06-14T17:50:41.210Z</time>
      </trkpt>
      <trkpt lat="44.82148" lon="4.60301">
        <ele>292.4</ele>
        <time>2023-06-14T17:50:42.201Z</time>
      </trkpt>
      <trkpt lat="44.82148" lon="4.60297">
        <ele>293.5</ele>
        <time>2023-06-14T17:50:43.537Z</time>
      </trkpt>
      <trkpt lat="44.82148" lon="4.60292">
        <ele>295</ele>
        <time>2023-06-14T17:50:45.226Z</time>
      </trkpt>
      <trkpt lat="44.82148" lon="4.6029">
        <ele>295.7</ele>
        <time>2023-06-14T17:50:45.921Z</time>
      </trkpt>
      <trkpt lat="44.82148" lon="4.60278">
        <ele>299.1</ele>
        <time>2023-06-14T17:50:49.936Z</time>
      </trkpt>
      <trkpt lat="44.82149" lon="4.60273">
        <ele>300.8</ele>
        <time>2023-06-14T17:50:51.711Z</time>
      </trkpt>
      <trkpt lat="44.8215" lon="4.60266">
        <ele>302.9</ele>
        <time>2023-06-14T17:50:54.119Z</time>
      </trkpt>
      <trkpt lat="44.8215" lon="4.60261">
        <ele>304.4</ele>
        <time>2023-06-14T17:50:55.805Z</time>
      </trkpt>
      <trkpt lat="44.82149" lon="4.60257">
        <ele>305.3</ele>
        <time>2023-06-14T17:50:57.189Z</time>
      </trkpt>
      <trkpt lat="44.82148" lon="4.60247">
        <ele>308.2</ele>
        <time>2023-06-14T17:51:00.584Z</time>
      </trkpt>
      <trkpt lat="44.82144" lon="4.60236">
        <ele>310.7</ele>
        <time>2023-06-14T17:51:04.606Z</time>
      </trkpt>
      <trkpt lat="44.82141" lon="4.60231">
        <ele>311.5</ele>
        <time>2023-06-14T17:51:06.697Z</time>
      </trkpt>
      <trkpt lat="44.82138" lon="4.60229">
        <ele>311.1</ele>
        <time>2023-06-14T17:51:08.185Z</time>
      </trkpt>
      <trkpt lat="44.82135" lon="4.60227">
        <ele>311</ele>
        <time>2023-06-14T17:51:09.660Z</time>
      </trkpt>
      <trkpt lat="44.8213" lon="4.60224">
        <ele>310.4</ele>
        <time>2023-06-14T17:51:12.089Z</time>
      </trkpt>
      <trkpt lat="44.82127" lon="4.6022">
        <ele>310.6</ele>
        <time>2023-06-14T17:51:13.930Z</time>
      </trkpt>
      <trkpt lat="44.82122" lon="4.60217">
        <ele>310.3</ele>
        <time>2023-06-14T17:51:16.348Z</time>
      </trkpt>
      <trkpt lat="44.82117" lon="4.60214">
        <ele>309.6</ele>
        <time>2023-06-14T17:51:18.788Z</time>
      </trkpt>
      <trkpt lat="44.82108" lon="4.60207">
        <ele>308.5</ele>
        <time>2023-06-14T17:51:23.370Z</time>
      </trkpt>
      <trkpt lat="44.82106" lon="4.60206">
        <ele>308.3</ele>
        <time>2023-06-14T17:51:24.324Z</time>
      </trkpt>
      <trkpt lat="44.82098" lon="4.60202">
        <ele>306.7</ele>
        <time>2023-06-14T17:51:28.150Z</time>
      </trkpt>
      <trkpt lat="44.82098" lon="4.60202">
        <ele>306.7</ele>
        <time>2023-06-14T17:51:28.150Z</time>
      </trkpt>
      <trkpt lat="44.82098" lon="4.60202">
        <ele>306.7</ele>
        <time>2023-06-14T17:51:28.150Z</time>
      </trkpt>
      <trkpt lat="44.82098" lon="4.60202">
        <ele>306.7</ele>
        <time>2023-06-14T17:51:28.150Z</time>
      </trkpt>
      <trkpt lat="44.82098" lon="4.60201">
        <ele>307</ele>
        <time>2023-06-14T17:51:28.500Z</time>
      </trkpt>
      <trkpt lat="44.82098" lon="4.60201">
        <ele>307</ele>
        <time>2023-06-14T17:51:28.500Z</time>
      </trkpt>
      <trkpt lat="44.82098" lon="4.60201">
        <ele>307</ele>
        <time>2023-06-14T17:51:28.500Z</time>
      </trkpt>
      <trkpt lat="44.82098" lon="4.60201">
        <ele>307</ele>
        <time>2023-06-14T17:51:28.500Z</time>
      </trkpt>
      <trkpt lat="44.82098" lon="4.60201">
        <ele>307</ele>
        <time>2023-06-14T17:51:28.500Z</time>
      </trkpt>
      <trkpt lat="44.82098" lon="4.60199">
        <ele>307.8</ele>
        <time>2023-06-14T17:51:29.195Z</time>
      </trkpt>
      <trkpt lat="44.82103" lon="4.60191">
        <ele>311.8</ele>
        <time>2023-06-14T17:51:32.930Z</time>
      </trkpt>
      <trkpt lat="44.82106" lon="4.6019">
        <ele>312.9</ele>
        <time>2023-06-14T17:51:34.361Z</time>
      </trkpt>
      <trkpt lat="44.82109" lon="4.6019">
        <ele>313.9</ele>
        <time>2023-06-14T17:51:35.758Z</time>
      </trkpt>
      <trkpt lat="44.82111" lon="4.60191">
        <ele>314.6</ele>
        <time>2023-06-14T17:51:36.745Z</time>
      </trkpt>
      <trkpt lat="44.82112" lon="4.60192">
        <ele>314.6</ele>
        <time>2023-06-14T17:51:37.287Z</time>
      </trkpt>
      <trkpt lat="44.82115" lon="4.60196">
        <ele>314.5</ele>
        <time>2023-06-14T17:51:39.126Z</time>
      </trkpt>
      <trkpt lat="44.82117" lon="4.60199">
        <ele>314.4</ele>
        <time>2023-06-14T17:51:40.424Z</time>
      </trkpt>
      <trkpt lat="44.82121" lon="4.60203">
        <ele>314.1</ele>
        <time>2023-06-14T17:51:42.608Z</time>
      </trkpt>
      <trkpt lat="44.82125" lon="4.60205">
        <ele>315</ele>
        <time>2023-06-14T17:51:44.533Z</time>
      </trkpt>
      <trkpt lat="44.82133" lon="4.60207">
        <ele>316.9</ele>
        <time>2023-06-14T17:51:48.221Z</time>
      </trkpt>
      <trkpt lat="44.82141" lon="4.60209">
        <ele>319</ele>
        <time>2023-06-14T17:51:51.933Z</time>
      </trkpt>
      <trkpt lat="44.82143" lon="4.6021">
        <ele>319.3</ele>
        <time>2023-06-14T17:51:52.883Z</time>
      </trkpt>
      <trkpt lat="44.8215" lon="4.60214">
        <ele>320.2</ele>
        <time>2023-06-14T17:51:56.262Z</time>
      </trkpt>
      <trkpt lat="44.82154" lon="4.60218">
        <ele>320.1</ele>
        <time>2023-06-14T17:51:58.447Z</time>
      </trkpt>
      <trkpt lat="44.82155" lon="4.60223">
        <ele>318.5</ele>
        <time>2023-06-14T17:52:00.197Z</time>
      </trkpt>
      <trkpt lat="44.82159" lon="4.60234">
        <ele>316.1</ele>
        <time>2023-06-14T17:52:04.218Z</time>
      </trkpt>
      <trkpt lat="44.82162" lon="4.6025">
        <ele>310.7</ele>
        <time>2023-06-14T17:52:09.859Z</time>
      </trkpt>
      <trkpt lat="44.82163" lon="4.60256">
        <ele>309.4</ele>
        <time>2023-06-14T17:52:11.876Z</time>
      </trkpt>
      <trkpt lat="44.82164" lon="4.60258">
        <ele>308.9</ele>
        <time>2023-06-14T17:52:12.674Z</time>
      </trkpt>
      <trkpt lat="44.82169" lon="4.60275">
        <ele>304.5</ele>
        <time>2023-06-14T17:52:18.740Z</time>
      </trkpt>
      <trkpt lat="44.82174" lon="4.60295">
        <ele>298.5</ele>
        <time>2023-06-14T17:52:25.848Z</time>
      </trkpt>
      <trkpt lat="44.82174" lon="4.60299">
        <ele>297.2</ele>
        <time>2023-06-14T17:52:27.212Z</time>
      </trkpt>
      <trkpt lat="44.82175" lon="4.60306">
        <ele>294.6</ele>
        <time>2023-06-14T17:52:29.682Z</time>
      </trkpt>
      <trkpt lat="44.82179" lon="4.60315">
        <ele>291.6</ele>
        <time>2023-06-14T17:52:33.248Z</time>
      </trkpt>
      <trkpt lat="44.82179" lon="4.60318">
        <ele>290.7</ele>
        <time>2023-06-14T17:52:34.259Z</time>
      </trkpt>
      <trkpt lat="44.82182" lon="4.60326">
        <ele>288</ele>
        <time>2023-06-14T17:52:37.314Z</time>
      </trkpt>
      <trkpt lat="44.82184" lon="4.6033">
        <ele>286.5</ele>
        <time>2023-06-14T17:52:38.963Z</time>
      </trkpt>
      <trkpt lat="44.82186" lon="4.60335">
        <ele>284.6</ele>
        <time>2023-06-14T17:52:40.925Z</time>
      </trkpt>
      <trkpt lat="44.82188" lon="4.60342">
        <ele>282.4</ele>
        <time>2023-06-14T17:52:43.465Z</time>
      </trkpt>
      <trkpt lat="44.82191" lon="4.60357">
        <ele>277.1</ele>
        <time>2023-06-14T17:52:48.818Z</time>
      </trkpt>
      <trkpt lat="44.82193" lon="4.60361">
        <ele>275.7</ele>
        <time>2023-06-14T17:52:50.462Z</time>
      </trkpt>
      <trkpt lat="44.82201" lon="4.60369">
        <ele>272.4</ele>
        <time>2023-06-14T17:52:55.020Z</time>
      </trkpt>
      <trkpt lat="44.82204" lon="4.60368">
        <ele>272.6</ele>
        <time>2023-06-14T17:52:56.394Z</time>
      </trkpt>
      <trkpt lat="44.82209" lon="4.60367">
        <ele>272.2</ele>
        <time>2023-06-14T17:52:58.651Z</time>
      </trkpt>
      <trkpt lat="44.82214" lon="4.60366">
        <ele>272.2</ele>
        <time>2023-06-14T17:53:00.894Z</time>
      </trkpt>
      <trkpt lat="44.82219" lon="4.60363">
        <ele>273.2</ele>
        <time>2023-06-14T17:53:03.341Z</time>
      </trkpt>
      <trkpt lat="44.82221" lon="4.60362">
        <ele>273</ele>
        <time>2023-06-14T17:53:04.284Z</time>
      </trkpt>
      <trkpt lat="44.82229" lon="4.60355">
        <ele>275.3</ele>
        <time>2023-06-14T17:53:08.572Z</time>
      </trkpt>
      <trkpt lat="44.82232" lon="4.60353">
        <ele>275.5</ele>
        <time>2023-06-14T17:53:10.052Z</time>
      </trkpt>
      <trkpt lat="44.82239" lon="4.60343">
        <ele>279</ele>
        <time>2023-06-14T17:53:14.696Z</time>
      </trkpt>
      <trkpt lat="44.82241" lon="4.60338">
        <ele>280.9</ele>
        <time>2023-06-14T17:53:16.658Z</time>
      </trkpt>
      <trkpt lat="44.82245" lon="4.60332">
        <ele>282.9</ele>
        <time>2023-06-14T17:53:19.372Z</time>
      </trkpt>
      <trkpt lat="44.82247" lon="4.60328">
        <ele>284.7</ele>
        <time>2023-06-14T17:53:21.073Z</time>
      </trkpt>
      <trkpt lat="44.82247" lon="4.60327">
        <ele>285.3</ele>
        <time>2023-06-14T17:53:21.479Z</time>
      </trkpt>
      <trkpt lat="44.82251" lon="4.60314">
        <ele>291.6</ele>
        <time>2023-06-14T17:53:26.605Z</time>
      </trkpt>
      <trkpt lat="44.82256" lon="4.60304">
        <ele>296.5</ele>
        <time>2023-06-14T17:53:30.938Z</time>
      </trkpt>
      <trkpt lat="44.82256" lon="4.60301">
        <ele>297.8</ele>
        <time>2023-06-14T17:53:32.013Z</time>
      </trkpt>
      <trkpt lat="44.82259" lon="4.60291">
        <ele>302.8</ele>
        <time>2023-06-14T17:53:35.972Z</time>
      </trkpt>
      <trkpt lat="44.82261" lon="4.60286">
        <ele>305.2</ele>
        <time>2023-06-14T17:53:38.034Z</time>
      </trkpt>
      <trkpt lat="44.82263" lon="4.60279">
        <ele>308.3</ele>
        <time>2023-06-14T17:53:40.713Z</time>
      </trkpt>
      <trkpt lat="44.82266" lon="4.60274">
        <ele>310.7</ele>
        <time>2023-06-14T17:53:42.987Z</time>
      </trkpt>
      <trkpt lat="44.82267" lon="4.60271">
        <ele>311.9</ele>
        <time>2023-06-14T17:53:44.139Z</time>
      </trkpt>
      <trkpt lat="44.82268" lon="4.6027">
        <ele>312.5</ele>
        <time>2023-06-14T17:53:44.732Z</time>
      </trkpt>
      <trkpt lat="44.82273" lon="4.60265">
        <ele>314.7</ele>
        <time>2023-06-14T17:53:47.602Z</time>
      </trkpt>
      <trkpt lat="44.82276" lon="4.60262">
        <ele>315.8</ele>
        <time>2023-06-14T17:53:49.295Z</time>
      </trkpt>
      <trkpt lat="44.82278" lon="4.60261">
        <ele>316.3</ele>
        <time>2023-06-14T17:53:50.267Z</time>
      </trkpt>
      <trkpt lat="44.8228" lon="4.6026">
        <ele>316.8</ele>
        <time>2023-06-14T17:53:51.231Z</time>
      </trkpt>
      <trkpt lat="44.82286" lon="4.60262">
        <ele>315.2</ele>
        <time>2023-06-14T17:53:54.046Z</time>
      </trkpt>
      <trkpt lat="44.82297" lon="4.60272">
        <ele>309.7</ele>
        <time>2023-06-14T17:54:00.268Z</time>
      </trkpt>
      <trkpt lat="44.82298" lon="4.60274">
        <ele>309.1</ele>
        <time>2023-06-14T17:54:01.088Z</time>
      </trkpt>
      <trkpt lat="44.82311" lon="4.60281">
        <ele>305.4</ele>
        <time>2023-06-14T17:54:07.445Z</time>
      </trkpt>
      <trkpt lat="44.82318" lon="4.60284">
        <ele>303.3</ele>
        <time>2023-06-14T17:54:10.811Z</time>
      </trkpt>
      <trkpt lat="44.8232" lon="4.60285">
        <ele>302.6</ele>
        <time>2023-06-14T17:54:11.793Z</time>
      </trkpt>
      <trkpt lat="44.82323" lon="4.60287">
        <ele>301.8</ele>
        <time>2023-06-14T17:54:13.297Z</time>
      </trkpt>
      <trkpt lat="44.82331" lon="4.60291">
        <ele>299.7</ele>
        <time>2023-06-14T17:54:17.166Z</time>
      </trkpt>
      <trkpt lat="44.82332" lon="4.60291">
        <ele>299.6</ele>
        <time>2023-06-14T17:54:17.615Z</time>
      </trkpt>
      <trkpt lat="44.82334" lon="4.60291">
        <ele>299.6</ele>
        <time>2023-06-14T17:54:18.502Z</time>
      </trkpt>
      <trkpt lat="44.82336" lon="4.60292">
        <ele>298.9</ele>
        <time>2023-06-14T17:54:19.479Z</time>
      </trkpt>
      <trkpt lat="44.82345" lon="4.60291">
        <ele>299.2</ele>
        <time>2023-06-14T17:54:23.495Z</time>
      </trkpt>
      <trkpt lat="44.82349" lon="4.60289">
        <ele>299.6</ele>
        <time>2023-06-14T17:54:25.395Z</time>
      </trkpt>
      <trkpt lat="44.8236" lon="4.60285">
        <ele>301</ele>
        <time>2023-06-14T17:54:30.473Z</time>
      </trkpt>
      <trkpt lat="44.82365" lon="4.60283">
        <ele>301.9</ele>
        <time>2023-06-14T17:54:32.815Z</time>
      </trkpt>
      <trkpt lat="44.82371" lon="4.6028">
        <ele>302.9</ele>
        <time>2023-06-14T17:54:35.671Z</time>
      </trkpt>
      <trkpt lat="44.82373" lon="4.60279">
        <ele>303.4</ele>
        <time>2023-06-14T17:54:36.633Z</time>
      </trkpt>
      <trkpt lat="44.82384" lon="4.60271">
        <ele>306.4</ele>
        <time>2023-06-14T17:54:42.272Z</time>
      </trkpt>
      <trkpt lat="44.82387" lon="4.60268">
        <ele>308</ele>
        <time>2023-06-14T17:54:44.028Z</time>
      </trkpt>
      <trkpt lat="44.82394" lon="4.60258">
        <ele>311.7</ele>
        <time>2023-06-14T17:54:48.698Z</time>
      </trkpt>
      <trkpt lat="44.82397" lon="4.60253">
        <ele>313.8</ele>
        <time>2023-06-14T17:54:50.933Z</time>
      </trkpt>
      <trkpt lat="44.82404" lon="4.60246">
        <ele>316.4</ele>
        <time>2023-06-14T17:54:54.887Z</time>
      </trkpt>
      <trkpt lat="44.82415" lon="4.60243">
        <ele>317.5</ele>
        <time>2023-06-14T17:54:59.891Z</time>
      </trkpt>
      <trkpt lat="44.82421" lon="4.60244">
        <ele>316.5</ele>
        <time>2023-06-14T17:55:02.609Z</time>
      </trkpt>
      <trkpt lat="44.82423" lon="4.60245">
        <ele>315.8</ele>
        <time>2023-06-14T17:55:03.595Z</time>
      </trkpt>
      <trkpt lat="44.82428" lon="4.60248">
        <ele>314.3</ele>
        <time>2023-06-14T17:55:06.083Z</time>
      </trkpt>
      <trkpt lat="44.82433" lon="4.60254">
        <ele>311.3</ele>
        <time>2023-06-14T17:55:09.237Z</time>
      </trkpt>
      <trkpt lat="44.8244" lon="4.60255">
        <ele>310.9</ele>
        <time>2023-06-14T17:55:12.366Z</time>
      </trkpt>
      <trkpt lat="44.8245" lon="4.60255">
        <ele>310.3</ele>
        <time>2023-06-14T17:55:16.823Z</time>
      </trkpt>
      <trkpt lat="44.82456" lon="4.60255">
        <ele>310</ele>
        <time>2023-06-14T17:55:19.496Z</time>
      </trkpt>
      <trkpt lat="44.82461" lon="4.60259">
        <ele>308.2</ele>
        <time>2023-06-14T17:55:22.152Z</time>
      </trkpt>
      <trkpt lat="44.82472" lon="4.6026">
        <ele>307.7</ele>
        <time>2023-06-14T17:55:27.056Z</time>
      </trkpt>
      <trkpt lat="44.82485" lon="4.60265">
        <ele>306</ele>
        <time>2023-06-14T17:55:33.090Z</time>
      </trkpt>
      <trkpt lat="44.82499" lon="4.60263">
        <ele>305.8</ele>
        <time>2023-06-14T17:55:39.347Z</time>
      </trkpt>
      <trkpt lat="44.82506" lon="4.60258">
        <ele>307.1</ele>
        <time>2023-06-14T17:55:42.868Z</time>
      </trkpt>
      <trkpt lat="44.82513" lon="4.60251">
        <ele>308.5</ele>
        <time>2023-06-14T17:55:46.725Z</time>
      </trkpt>
      <trkpt lat="44.82515" lon="4.60249">
        <ele>308.9</ele>
        <time>2023-06-14T17:55:47.831Z</time>
      </trkpt>
      <trkpt lat="44.82522" lon="4.60239">
        <ele>312.2</ele>
        <time>2023-06-14T17:55:52.454Z</time>
      </trkpt>
      <trkpt lat="44.82528" lon="4.60228">
        <ele>315.3</ele>
        <time>2023-06-14T17:55:56.998Z</time>
      </trkpt>
      <trkpt lat="44.82528" lon="4.60225">
        <ele>316.4</ele>
        <time>2023-06-14T17:55:58.043Z</time>
      </trkpt>
      <trkpt lat="44.82531" lon="4.60221">
        <ele>317.5</ele>
        <time>2023-06-14T17:55:59.932Z</time>
      </trkpt>
      <trkpt lat="44.8254" lon="4.60207">
        <ele>320.9</ele>
        <time>2023-06-14T17:56:06.040Z</time>
      </trkpt>
      <trkpt lat="44.82551" lon="4.602">
        <ele>322.6</ele>
        <time>2023-06-14T17:56:11.455Z</time>
      </trkpt>
      <trkpt lat="44.82555" lon="4.60199">
        <ele>322.7</ele>
        <time>2023-06-14T17:56:13.257Z</time>
      </trkpt>
      <trkpt lat="44.82567" lon="4.60197">
        <ele>322.6</ele>
        <time>2023-06-14T17:56:18.633Z</time>
      </trkpt>
      <trkpt lat="44.8257" lon="4.60196">
        <ele>322.7</ele>
        <time>2023-06-14T17:56:20.005Z</time>
      </trkpt>
      <trkpt lat="44.82581" lon="4.60189">
        <ele>323.6</ele>
        <time>2023-06-14T17:56:25.383Z</time>
      </trkpt>
      <trkpt lat="44.8259" lon="4.60181">
        <ele>326.4</ele>
        <time>2023-06-14T17:56:30.245Z</time>
      </trkpt>
      <trkpt lat="44.82591" lon="4.6018">
        <ele>326.9</ele>
        <time>2023-06-14T17:56:30.823Z</time>
      </trkpt>
      <trkpt lat="44.82596" lon="4.60176">
        <ele>328.6</ele>
        <time>2023-06-14T17:56:33.474Z</time>
      </trkpt>
      <trkpt lat="44.82598" lon="4.60173">
        <ele>329.6</ele>
        <time>2023-06-14T17:56:34.825Z</time>
      </trkpt>
      <trkpt lat="44.82599" lon="4.60171">
        <ele>330.3</ele>
        <time>2023-06-14T17:56:35.658Z</time>
      </trkpt>
      <trkpt lat="44.82605" lon="4.60157">
        <ele>334.8</ele>
        <time>2023-06-14T17:56:41.119Z</time>
      </trkpt>
      <trkpt lat="44.82612" lon="4.60142">
        <ele>339.6</ele>
        <time>2023-06-14T17:56:47.093Z</time>
      </trkpt>
      <trkpt lat="44.82614" lon="4.60138">
        <ele>341</ele>
        <time>2023-06-14T17:56:48.736Z</time>
      </trkpt>
      <trkpt lat="44.8262" lon="4.60129">
        <ele>344.5</ele>
        <time>2023-06-14T17:56:52.870Z</time>
      </trkpt>
      <trkpt lat="44.82621" lon="4.60128">
        <ele>345</ele>
        <time>2023-06-14T17:56:53.453Z</time>
      </trkpt>
      <trkpt lat="44.82626" lon="4.60124">
        <ele>347</ele>
        <time>2023-06-14T17:56:56.139Z</time>
      </trkpt>
      <trkpt lat="44.82627" lon="4.60122">
        <ele>347.9</ele>
        <time>2023-06-14T17:56:56.983Z</time>
      </trkpt>
      <trkpt lat="44.82632" lon="4.60121">
        <ele>349.1</ele>
        <time>2023-06-14T17:56:59.276Z</time>
      </trkpt>
      <trkpt lat="44.82637" lon="4.60116">
        <ele>351.5</ele>
        <time>2023-06-14T17:57:02.171Z</time>
      </trkpt>
      <trkpt lat="44.8264" lon="4.60114">
        <ele>352.8</ele>
        <time>2023-06-14T17:57:03.741Z</time>
      </trkpt>
      <trkpt lat="44.82647" lon="4.6011">
        <ele>355.5</ele>
        <time>2023-06-14T17:57:07.261Z</time>
      </trkpt>
      <trkpt lat="44.82651" lon="4.60108">
        <ele>356.8</ele>
        <time>2023-06-14T17:57:09.218Z</time>
      </trkpt>
      <trkpt lat="44.82656" lon="4.60104">
        <ele>359</ele>
        <time>2023-06-14T17:57:11.925Z</time>
      </trkpt>
      <trkpt lat="44.82664" lon="4.60096">
        <ele>363.3</ele>
        <time>2023-06-14T17:57:16.610Z</time>
      </trkpt>
      <trkpt lat="44.82667" lon="4.60089">
        <ele>365.6</ele>
        <time>2023-06-14T17:57:19.355Z</time>
      </trkpt>
      <trkpt lat="44.82669" lon="4.60087">
        <ele>366.4</ele>
        <time>2023-06-14T17:57:20.488Z</time>
      </trkpt>
      <trkpt lat="44.8267" lon="4.60085">
        <ele>366.7</ele>
        <time>2023-06-14T17:57:21.274Z</time>
      </trkpt>
      <trkpt lat="44.82675" lon="4.60081">
        <ele>367.7</ele>
        <time>2023-06-14T17:57:23.854Z</time>
      </trkpt>
      <trkpt lat="44.82684" lon="4.60084">
        <ele>367.4</ele>
        <time>2023-06-14T17:57:27.969Z</time>
      </trkpt>
      <trkpt lat="44.82687" lon="4.60094">
        <ele>364.6</ele>
        <time>2023-06-14T17:57:31.567Z</time>
      </trkpt>
      <trkpt lat="44.82687" lon="4.601">
        <ele>363.2</ele>
        <time>2023-06-14T17:57:33.543Z</time>
      </trkpt>
      <trkpt lat="44.82687" lon="4.60105">
        <ele>361.8</ele>
        <time>2023-06-14T17:57:35.218Z</time>
      </trkpt>
      <trkpt lat="44.82689" lon="4.60121">
        <ele>357.2</ele>
        <time>2023-06-14T17:57:40.667Z</time>
      </trkpt>
      <trkpt lat="44.82689" lon="4.60124">
        <ele>356.5</ele>
        <time>2023-06-14T17:57:41.655Z</time>
      </trkpt>
      <trkpt lat="44.82692" lon="4.60142">
        <ele>351.5</ele>
        <time>2023-06-14T17:57:47.817Z</time>
      </trkpt>
      <trkpt lat="44.82695" lon="4.60161">
        <ele>346.5</ele>
        <time>2023-06-14T17:57:54.281Z</time>
      </trkpt>
      <trkpt lat="44.82701" lon="4.60175">
        <ele>342.9</ele>
        <time>2023-06-14T17:57:59.632Z</time>
      </trkpt>
      <trkpt lat="44.82702" lon="4.60177">
        <ele>342.3</ele>
        <time>2023-06-14T17:58:00.436Z</time>
      </trkpt>
      <trkpt lat="44.82706" lon="4.6018">
        <ele>341.8</ele>
        <time>2023-06-14T17:58:02.465Z</time>
      </trkpt>
      <trkpt lat="44.8271" lon="4.60182">
        <ele>341.5</ele>
        <time>2023-06-14T17:58:04.352Z</time>
      </trkpt>
      <trkpt lat="44.82716" lon="4.60182">
        <ele>341.5</ele>
        <time>2023-06-14T17:58:07.021Z</time>
      </trkpt>
      <trkpt lat="44.82722" lon="4.6018">
        <ele>341.8</ele>
        <time>2023-06-14T17:58:09.767Z</time>
      </trkpt>
      <trkpt lat="44.82731" lon="4.60177">
        <ele>342.3</ele>
        <time>2023-06-14T17:58:13.885Z</time>
      </trkpt>
      <trkpt lat="44.8274" lon="4.60176">
        <ele>342.6</ele>
        <time>2023-06-14T17:58:17.901Z</time>
      </trkpt>
      <trkpt lat="44.82741" lon="4.60176">
        <ele>342.6</ele>
        <time>2023-06-14T17:58:18.348Z</time>
      </trkpt>
      <trkpt lat="44.82756" lon="4.60178">
        <ele>343.1</ele>
        <time>2023-06-14T17:58:25.045Z</time>
      </trkpt>
      <trkpt lat="44.82765" lon="4.60179">
        <ele>344</ele>
        <time>2023-06-14T17:58:29.077Z</time>
      </trkpt>
      <trkpt lat="44.82767" lon="4.60179">
        <ele>344.3</ele>
        <time>2023-06-14T17:58:29.979Z</time>
      </trkpt>
      <trkpt lat="44.8278" lon="4.60177">
        <ele>346</ele>
        <time>2023-06-14T17:58:35.829Z</time>
      </trkpt>
      <trkpt lat="44.82796" lon="4.60172">
        <ele>348.2</ele>
        <time>2023-06-14T17:58:43.167Z</time>
      </trkpt>
      <trkpt lat="44.82808" lon="4.60166">
        <ele>349.7</ele>
        <time>2023-06-14T17:58:48.864Z</time>
      </trkpt>
      <trkpt lat="44.82814" lon="4.60163">
        <ele>350.6</ele>
        <time>2023-06-14T17:58:51.715Z</time>
      </trkpt>
      <trkpt lat="44.8283" lon="4.60153">
        <ele>352.5</ele>
        <time>2023-06-14T17:58:59.540Z</time>
      </trkpt>
      <trkpt lat="44.82833" lon="4.6015">
        <ele>352.8</ele>
        <time>2023-06-14T17:59:01.180Z</time>
      </trkpt>
      <trkpt lat="44.82839" lon="4.60141">
        <ele>355</ele>
        <time>2023-06-14T17:59:05.172Z</time>
      </trkpt>
      <trkpt lat="44.82842" lon="4.60133">
        <ele>356.1</ele>
        <time>2023-06-14T17:59:08.055Z</time>
      </trkpt>
      <trkpt lat="44.82844" lon="4.60124">
        <ele>356.7</ele>
        <time>2023-06-14T17:59:11.044Z</time>
      </trkpt>
      <trkpt lat="44.82847" lon="4.60115">
        <ele>357.5</ele>
        <time>2023-06-14T17:59:14.196Z</time>
      </trkpt>
      <trkpt lat="44.82848" lon="4.6011">
        <ele>357.7</ele>
        <time>2023-06-14T17:59:15.835Z</time>
      </trkpt>
      <trkpt lat="44.82852" lon="4.60094">
        <ele>358.4</ele>
        <time>2023-06-14T17:59:21.197Z</time>
      </trkpt>
      <trkpt lat="44.82853" lon="4.6009">
        <ele>358.5</ele>
        <time>2023-06-14T17:59:22.532Z</time>
      </trkpt>
      <trkpt lat="44.82855" lon="4.60083">
        <ele>358.9</ele>
        <time>2023-06-14T17:59:24.918Z</time>
      </trkpt>
      <trkpt lat="44.8286" lon="4.60076">
        <ele>360.5</ele>
        <time>2023-06-14T17:59:28.123Z</time>
      </trkpt>
      <trkpt lat="44.82862" lon="4.60075">
        <ele>360.9</ele>
        <time>2023-06-14T17:59:29.078Z</time>
      </trkpt>
      <trkpt lat="44.82868" lon="4.6007">
        <ele>362.3</ele>
        <time>2023-06-14T17:59:32.229Z</time>
      </trkpt>
      <trkpt lat="44.82873" lon="4.60067">
        <ele>363.1</ele>
        <time>2023-06-14T17:59:34.667Z</time>
      </trkpt>
      <trkpt lat="44.8288" lon="4.60062">
        <ele>364.2</ele>
        <time>2023-06-14T17:59:38.185Z</time>
      </trkpt>
      <trkpt lat="44.82886" lon="4.6006">
        <ele>364.7</ele>
        <time>2023-06-14T17:59:40.935Z</time>
      </trkpt>
      <trkpt lat="44.82894" lon="4.60054">
        <ele>365.8</ele>
        <time>2023-06-14T17:59:44.984Z</time>
      </trkpt>
      <trkpt lat="44.82896" lon="4.60053">
        <ele>366</ele>
        <time>2023-06-14T17:59:45.935Z</time>
      </trkpt>
      <trkpt lat="44.82904" lon="4.60042">
        <ele>366.8</ele>
        <time>2023-06-14T17:59:50.916Z</time>
      </trkpt>
      <trkpt lat="44.82908" lon="4.60039">
        <ele>367</ele>
        <time>2023-06-14T17:59:52.928Z</time>
      </trkpt>
      <trkpt lat="44.82914" lon="4.6003">
        <ele>367.3</ele>
        <time>2023-06-14T17:59:56.827Z</time>
      </trkpt>
      <trkpt lat="44.82918" lon="4.60025">
        <ele>367.4</ele>
        <time>2023-06-14T17:59:59.206Z</time>
      </trkpt>
      <trkpt lat="44.82925" lon="4.60016">
        <ele>367.4</ele>
        <time>2023-06-14T18:00:03.421Z</time>
      </trkpt>
      <trkpt lat="44.82929" lon="4.6001">
        <ele>367.3</ele>
        <time>2023-06-14T18:00:06.016Z</time>
      </trkpt>
      <trkpt lat="44.82933" lon="4.60005">
        <ele>367</ele>
        <time>2023-06-14T18:00:08.395Z</time>
      </trkpt>
      <trkpt lat="44.82939" lon="4.59999">
        <ele>366.9</ele>
        <time>2023-06-14T18:00:11.668Z</time>
      </trkpt>
      <trkpt lat="44.82949" lon="4.59991">
        <ele>367.5</ele>
        <time>2023-06-14T18:00:16.782Z</time>
      </trkpt>
      <trkpt lat="44.82959" lon="4.59979">
        <ele>368.6</ele>
        <time>2023-06-14T18:00:22.641Z</time>
      </trkpt>
      <trkpt lat="44.8296" lon="4.59978">
        <ele>368.7</ele>
        <time>2023-06-14T18:00:23.184Z</time>
      </trkpt>
      <trkpt lat="44.82969" lon="4.59969">
        <ele>369.1</ele>
        <time>2023-06-14T18:00:28.093Z</time>
      </trkpt>
      <trkpt lat="44.8297" lon="4.59968">
        <ele>369.2</ele>
        <time>2023-06-14T18:00:28.642Z</time>
      </trkpt>
      <trkpt lat="44.8298" lon="4.59962">
        <ele>368.9</ele>
        <time>2023-06-14T18:00:33.473Z</time>
      </trkpt>
      <trkpt lat="44.82984" lon="4.5996">
        <ele>368.7</ele>
        <time>2023-06-14T18:00:35.366Z</time>
      </trkpt>
      <trkpt lat="44.8299" lon="4.59957">
        <ele>368.3</ele>
        <time>2023-06-14T18:00:38.203Z</time>
      </trkpt>
      <trkpt lat="44.82997" lon="4.59956">
        <ele>367.6</ele>
        <time>2023-06-14T18:00:41.346Z</time>
      </trkpt>
      <trkpt lat="44.83001" lon="4.59955">
        <ele>367.6</ele>
        <time>2023-06-14T18:00:43.149Z</time>
      </trkpt>
      <trkpt lat="44.8301" lon="4.59953">
        <ele>369.6</ele>
        <time>2023-06-14T18:00:47.281Z</time>
      </trkpt>
      <trkpt lat="44.83021" lon="4.59947">
        <ele>372.5</ele>
        <time>2023-06-14T18:00:52.649Z</time>
      </trkpt>
      <trkpt lat="44.83027" lon="4.59944">
        <ele>373.9</ele>
        <time>2023-06-14T18:00:55.537Z</time>
      </trkpt>
      <trkpt lat="44.83032" lon="4.59937">
        <ele>375.6</ele>
        <time>2023-06-14T18:00:58.740Z</time>
      </trkpt>
      <trkpt lat="44.83035" lon="4.59933">
        <ele>376.5</ele>
        <time>2023-06-14T18:01:00.613Z</time>
      </trkpt>
      <trkpt lat="44.83042" lon="4.59921">
        <ele>378.8</ele>
        <time>2023-06-14T18:01:05.599Z</time>
      </trkpt>
      <trkpt lat="44.83042" lon="4.59919">
        <ele>379</ele>
        <time>2023-06-14T18:01:06.233Z</time>
      </trkpt>
      <trkpt lat="44.83048" lon="4.59907">
        <ele>380.8</ele>
        <time>2023-06-14T18:01:10.926Z</time>
      </trkpt>
      <trkpt lat="44.83048" lon="4.59904">
        <ele>381</ele>
        <time>2023-06-14T18:01:11.874Z</time>
      </trkpt>
      <trkpt lat="44.83056" lon="4.59884">
        <ele>383</ele>
        <time>2023-06-14T18:01:19.161Z</time>
      </trkpt>
      <trkpt lat="44.83056" lon="4.59884">
        <ele>383</ele>
        <time>2023-06-14T18:01:19.161Z</time>
      </trkpt>
      <trkpt lat="44.83058" lon="4.59882">
        <ele>383.3</ele>
        <time>2023-06-14T18:01:20.256Z</time>
      </trkpt>
      <trkpt lat="44.83068" lon="4.59864">
        <ele>384.7</ele>
        <time>2023-06-14T18:01:27.489Z</time>
      </trkpt>
      <trkpt lat="44.83069" lon="4.59861">
        <ele>384.8</ele>
        <time>2023-06-14T18:01:28.535Z</time>
      </trkpt>
      <trkpt lat="44.83073" lon="4.59853">
        <ele>385</ele>
        <time>2023-06-14T18:01:31.621Z</time>
      </trkpt>
      <trkpt lat="44.83074" lon="4.59851">
        <ele>385.1</ele>
        <time>2023-06-14T18:01:32.392Z</time>
      </trkpt>
      <trkpt lat="44.83077" lon="4.59847">
        <ele>385.1</ele>
        <time>2023-06-14T18:01:34.231Z</time>
      </trkpt>
      <trkpt lat="44.83084" lon="4.59836">
        <ele>385.3</ele>
        <time>2023-06-14T18:01:38.889Z</time>
      </trkpt>
      <trkpt lat="44.83087" lon="4.59832">
        <ele>386.6</ele>
        <time>2023-06-14T18:01:40.794Z</time>
      </trkpt>
      <trkpt lat="44.83088" lon="4.5983">
        <ele>387</ele>
        <time>2023-06-14T18:01:41.589Z</time>
      </trkpt>
      <trkpt lat="44.83095" lon="4.59816">
        <ele>390.1</ele>
        <time>2023-06-14T18:01:47.125Z</time>
      </trkpt>
      <trkpt lat="44.83098" lon="4.598">
        <ele>391.6</ele>
        <time>2023-06-14T18:01:52.382Z</time>
      </trkpt>
      <trkpt lat="44.83102" lon="4.59783">
        <ele>393.4</ele>
        <time>2023-06-14T18:01:58.079Z</time>
      </trkpt>
      <trkpt lat="44.83113" lon="4.59767">
        <ele>397</ele>
        <time>2023-06-14T18:02:05.248Z</time>
      </trkpt>
      <trkpt lat="44.83114" lon="4.59765">
        <ele>397.3</ele>
        <time>2023-06-14T18:02:06.031Z</time>
      </trkpt>
      <trkpt lat="44.83121" lon="4.59759">
        <ele>399.4</ele>
        <time>2023-06-14T18:02:09.766Z</time>
      </trkpt>
      <trkpt lat="44.83128" lon="4.59755">
        <ele>401.4</ele>
        <time>2023-06-14T18:02:13.223Z</time>
      </trkpt>
      <trkpt lat="44.83133" lon="4.59751">
        <ele>402.7</ele>
        <time>2023-06-14T18:02:15.832Z</time>
      </trkpt>
      <trkpt lat="44.83139" lon="4.59742">
        <ele>404.4</ele>
        <time>2023-06-14T18:02:19.778Z</time>
      </trkpt>
      <trkpt lat="44.8314" lon="4.5974">
        <ele>404.6</ele>
        <time>2023-06-14T18:02:20.561Z</time>
      </trkpt>
      <trkpt lat="44.83144" lon="4.5973">
        <ele>405.6</ele>
        <time>2023-06-14T18:02:24.199Z</time>
      </trkpt>
      <trkpt lat="44.83146" lon="4.59723">
        <ele>406</ele>
        <time>2023-06-14T18:02:26.588Z</time>
      </trkpt>
      <trkpt lat="44.83147" lon="4.59712">
        <ele>406.1</ele>
        <time>2023-06-14T18:02:30.084Z</time>
      </trkpt>
      <trkpt lat="44.8315" lon="4.59704">
        <ele>406.5</ele>
        <time>2023-06-14T18:02:32.943Z</time>
      </trkpt>
      <trkpt lat="44.83154" lon="4.59695">
        <ele>407</ele>
        <time>2023-06-14T18:02:36.301Z</time>
      </trkpt>
      <trkpt lat="44.83158" lon="4.59683">
        <ele>407.4</ele>
        <time>2023-06-14T18:02:40.488Z</time>
      </trkpt>
      <trkpt lat="44.83159" lon="4.59681">
        <ele>407.5</ele>
        <time>2023-06-14T18:02:41.257Z</time>
      </trkpt>
      <trkpt lat="44.83163" lon="4.59671">
        <ele>407.7</ele>
        <time>2023-06-14T18:02:44.881Z</time>
      </trkpt>
      <trkpt lat="44.83164" lon="4.59669">
        <ele>407.7</ele>
        <time>2023-06-14T18:02:45.648Z</time>
      </trkpt>
      <trkpt lat="44.83168" lon="4.5966">
        <ele>408.5</ele>
        <time>2023-06-14T18:02:49.015Z</time>
      </trkpt>
      <trkpt lat="44.8317" lon="4.59657">
        <ele>409.4</ele>
        <time>2023-06-14T18:02:50.356Z</time>
      </trkpt>
      <trkpt lat="44.83171" lon="4.59654">
        <ele>409.7</ele>
        <time>2023-06-14T18:02:51.412Z</time>
      </trkpt>
      <trkpt lat="44.83172" lon="4.5965">
        <ele>410</ele>
        <time>2023-06-14T18:02:52.754Z</time>
      </trkpt>
      <trkpt lat="44.83173" lon="4.59649">
        <ele>410.4</ele>
        <time>2023-06-14T18:02:53.314Z</time>
      </trkpt>
      <trkpt lat="44.83178" lon="4.59636">
        <ele>411.9</ele>
        <time>2023-06-14T18:02:58.024Z</time>
      </trkpt>
      <trkpt lat="44.83179" lon="4.59634">
        <ele>412.3</ele>
        <time>2023-06-14T18:02:58.802Z</time>
      </trkpt>
      <trkpt lat="44.83184" lon="4.5962">
        <ele>413.7</ele>
        <time>2023-06-14T18:03:03.779Z</time>
      </trkpt>
      <trkpt lat="44.83185" lon="4.59617">
        <ele>413.9</ele>
        <time>2023-06-14T18:03:04.827Z</time>
      </trkpt>
      <trkpt lat="44.83188" lon="4.59606">
        <ele>414.4</ele>
        <time>2023-06-14T18:03:08.550Z</time>
      </trkpt>
      <trkpt lat="44.8319" lon="4.59601">
        <ele>414.8</ele>
        <time>2023-06-14T18:03:10.365Z</time>
      </trkpt>
      <trkpt lat="44.83196" lon="4.59593">
        <ele>416.2</ele>
        <time>2023-06-14T18:03:14.080Z</time>
      </trkpt>
      <trkpt lat="44.83197" lon="4.59591">
        <ele>416.4</ele>
        <time>2023-06-14T18:03:14.856Z</time>
      </trkpt>
      <trkpt lat="44.83204" lon="4.59582">
        <ele>418</ele>
        <time>2023-06-14T18:03:19.123Z</time>
      </trkpt>
      <trkpt lat="44.83209" lon="4.59577">
        <ele>419.8</ele>
        <time>2023-06-14T18:03:21.935Z</time>
      </trkpt>
      <trkpt lat="44.83211" lon="4.59575">
        <ele>420.5</ele>
        <time>2023-06-14T18:03:23.061Z</time>
      </trkpt>
      <trkpt lat="44.83219" lon="4.59565">
        <ele>423.3</ele>
        <time>2023-06-14T18:03:27.946Z</time>
      </trkpt>
      <trkpt lat="44.8322" lon="4.59564">
        <ele>423.6</ele>
        <time>2023-06-14T18:03:28.511Z</time>
      </trkpt>
      <trkpt lat="44.83226" lon="4.59559">
        <ele>425.5</ele>
        <time>2023-06-14T18:03:31.701Z</time>
      </trkpt>
      <trkpt lat="44.83232" lon="4.59554">
        <ele>427.3</ele>
        <time>2023-06-14T18:03:34.877Z</time>
      </trkpt>
      <trkpt lat="44.83243" lon="4.59549">
        <ele>430.1</ele>
        <time>2023-06-14T18:03:40.142Z</time>
      </trkpt>
      <trkpt lat="44.83252" lon="4.59541">
        <ele>432.7</ele>
        <time>2023-06-14T18:03:44.988Z</time>
      </trkpt>
      <trkpt lat="44.83255" lon="4.59536">
        <ele>434</ele>
        <time>2023-06-14T18:03:47.120Z</time>
      </trkpt>
      <trkpt lat="44.83259" lon="4.59528">
        <ele>435.8</ele>
        <time>2023-06-14T18:03:50.277Z</time>
      </trkpt>
      <trkpt lat="44.83261" lon="4.59521">
        <ele>436.8</ele>
        <time>2023-06-14T18:03:52.694Z</time>
      </trkpt>
      <trkpt lat="44.83262" lon="4.59517">
        <ele>437.3</ele>
        <time>2023-06-14T18:03:54.044Z</time>
      </trkpt>
      <trkpt lat="44.83263" lon="4.5951">
        <ele>438</ele>
        <time>2023-06-14T18:03:56.318Z</time>
      </trkpt>
      <trkpt lat="44.83263" lon="4.59508">
        <ele>438.1</ele>
        <time>2023-06-14T18:03:56.948Z</time>
      </trkpt>
      <trkpt lat="44.83265" lon="4.59493">
        <ele>439.5</ele>
        <time>2023-06-14T18:04:01.795Z</time>
      </trkpt>
      <trkpt lat="44.83268" lon="4.59482">
        <ele>441.1</ele>
        <time>2023-06-14T18:04:05.566Z</time>
      </trkpt>
      <trkpt lat="44.83269" lon="4.59478">
        <ele>441.7</ele>
        <time>2023-06-14T18:04:06.922Z</time>
      </trkpt>
      <trkpt lat="44.83274" lon="4.59473">
        <ele>443.7</ele>
        <time>2023-06-14T18:04:09.759Z</time>
      </trkpt>
      <trkpt lat="44.83276" lon="4.59472">
        <ele>444.4</ele>
        <time>2023-06-14T18:04:10.756Z</time>
      </trkpt>
      <trkpt lat="44.83281" lon="4.59471">
        <ele>446.4</ele>
        <time>2023-06-14T18:04:13.131Z</time>
      </trkpt>
      <trkpt lat="44.83285" lon="4.5947">
        <ele>447.8</ele>
        <time>2023-06-14T18:04:15.019Z</time>
      </trkpt>
      <trkpt lat="44.83289" lon="4.59466">
        <ele>449.4</ele>
        <time>2023-06-14T18:04:17.297Z</time>
      </trkpt>
      <trkpt lat="44.83293" lon="4.59458">
        <ele>451.3</ele>
        <time>2023-06-14T18:04:20.478Z</time>
      </trkpt>
      <trkpt lat="44.83293" lon="4.59456">
        <ele>451.4</ele>
        <time>2023-06-14T18:04:21.107Z</time>
      </trkpt>
      <trkpt lat="44.83289" lon="4.59445">
        <ele>450.6</ele>
        <time>2023-06-14T18:04:25.020Z</time>
      </trkpt>
      <trkpt lat="44.83287" lon="4.59442">
        <ele>450</ele>
        <time>2023-06-14T18:04:26.339Z</time>
      </trkpt>
      <trkpt lat="44.83285" lon="4.59442">
        <ele>449.2</ele>
        <time>2023-06-14T18:04:27.279Z</time>
      </trkpt>
      <trkpt lat="44.83282" lon="4.59446">
        <ele>447.9</ele>
        <time>2023-06-14T18:04:29.184Z</time>
      </trkpt>
      <trkpt lat="44.83277" lon="4.59454">
        <ele>445.6</ele>
        <time>2023-06-14T18:04:32.672Z</time>
      </trkpt>
      <trkpt lat="44.83275" lon="4.59459">
        <ele>444.7</ele>
        <time>2023-06-14T18:04:34.520Z</time>
      </trkpt>
      <trkpt lat="44.83267" lon="4.59465">
        <ele>441.5</ele>
        <time>2023-06-14T18:04:38.740Z</time>
      </trkpt>
      <trkpt lat="44.83258" lon="4.5947">
        <ele>438</ele>
        <time>2023-06-14T18:04:43.265Z</time>
      </trkpt>
      <trkpt lat="44.83257" lon="4.59471">
        <ele>437.7</ele>
        <time>2023-06-14T18:04:43.831Z</time>
      </trkpt>
      <trkpt lat="44.83255" lon="4.59473">
        <ele>436.9</ele>
        <time>2023-06-14T18:04:44.965Z</time>
      </trkpt>
      <trkpt lat="44.83251" lon="4.59478">
        <ele>435.1</ele>
        <time>2023-06-14T18:04:47.439Z</time>
      </trkpt>
      <trkpt lat="44.83248" lon="4.59483">
        <ele>434.3</ele>
        <time>2023-06-14T18:04:49.534Z</time>
      </trkpt>
      <trkpt lat="44.83245" lon="4.59485">
        <ele>433.8</ele>
        <time>2023-06-14T18:04:51.021Z</time>
      </trkpt>
      <trkpt lat="44.83244" lon="4.59486">
        <ele>433.6</ele>
        <time>2023-06-14T18:04:51.570Z</time>
      </trkpt>
      <trkpt lat="44.83241" lon="4.59488">
        <ele>433.1</ele>
        <time>2023-06-14T18:04:53.059Z</time>
      </trkpt>
      <trkpt lat="44.83236" lon="4.59491">
        <ele>432.1</ele>
        <time>2023-06-14T18:04:55.516Z</time>
      </trkpt>
      <trkpt lat="44.83233" lon="4.59493">
        <ele>431.5</ele>
        <time>2023-06-14T18:04:57.008Z</time>
      </trkpt>
      <trkpt lat="44.83222" lon="4.59498">
        <ele>429.2</ele>
        <time>2023-06-14T18:05:02.229Z</time>
      </trkpt>
      <trkpt lat="44.83216" lon="4.595">
        <ele>427.9</ele>
        <time>2023-06-14T18:05:05.022Z</time>
      </trkpt>
      <trkpt lat="44.83215" lon="4.59501">
        <ele>427.7</ele>
        <time>2023-06-14T18:05:05.565Z</time>
      </trkpt>
      <trkpt lat="44.83206" lon="4.59505">
        <ele>425.7</ele>
        <time>2023-06-14T18:05:09.838Z</time>
      </trkpt>
      <trkpt lat="44.83203" lon="4.59506">
        <ele>425.1</ele>
        <time>2023-06-14T18:05:11.235Z</time>
      </trkpt>
      <trkpt lat="44.832" lon="4.59506">
        <ele>424.5</ele>
        <time>2023-06-14T18:05:12.586Z</time>
      </trkpt>
      <trkpt lat="44.83197" lon="4.59507">
        <ele>423.8</ele>
        <time>2023-06-14T18:05:13.987Z</time>
      </trkpt>
      <trkpt lat="44.83191" lon="4.59507">
        <ele>422.7</ele>
        <time>2023-06-14T18:05:16.691Z</time>
      </trkpt>
      <trkpt lat="44.83185" lon="4.59506">
        <ele>421.7</ele>
        <time>2023-06-14T18:05:19.405Z</time>
      </trkpt>
      <trkpt lat="44.83181" lon="4.59506">
        <ele>421</ele>
        <time>2023-06-14T18:05:21.206Z</time>
      </trkpt>
      <trkpt lat="44.8318" lon="4.59505">
        <ele>420.9</ele>
        <time>2023-06-14T18:05:21.754Z</time>
      </trkpt>
      <trkpt lat="44.83177" lon="4.59504">
        <ele>420.4</ele>
        <time>2023-06-14T18:05:23.143Z</time>
      </trkpt>
      <trkpt lat="44.83172" lon="4.59504">
        <ele>419.5</ele>
        <time>2023-06-14T18:05:25.394Z</time>
      </trkpt>
      <trkpt lat="44.83165" lon="4.59504">
        <ele>418.7</ele>
        <time>2023-06-14T18:05:28.526Z</time>
      </trkpt>
      <trkpt lat="44.83164" lon="4.59504">
        <ele>418.8</ele>
        <time>2023-06-14T18:05:28.976Z</time>
      </trkpt>
      <trkpt lat="44.8316" lon="4.59505">
        <ele>419.3</ele>
        <time>2023-06-14T18:05:30.790Z</time>
      </trkpt>
      <trkpt lat="44.83158" lon="4.59504">
        <ele>419.6</ele>
        <time>2023-06-14T18:05:31.737Z</time>
      </trkpt>
      <trkpt lat="44.83154" lon="4.59503">
        <ele>420.3</ele>
        <time>2023-06-14T18:05:33.569Z</time>
      </trkpt>
      <trkpt lat="44.83149" lon="4.59503">
        <ele>420.9</ele>
        <time>2023-06-14T18:05:35.805Z</time>
      </trkpt>
      <trkpt lat="44.83143" lon="4.59504">
        <ele>421.5</ele>
        <time>2023-06-14T18:05:38.501Z</time>
      </trkpt>
      <trkpt lat="44.83135" lon="4.59506">
        <ele>422.3</ele>
        <time>2023-06-14T18:05:42.127Z</time>
      </trkpt>
      <trkpt lat="44.83129" lon="4.59508">
        <ele>422.5</ele>
        <time>2023-06-14T18:05:44.870Z</time>
      </trkpt>
      <trkpt lat="44.83126" lon="4.59512">
        <ele>422.2</ele>
        <time>2023-06-14T18:05:46.712Z</time>
      </trkpt>
      <trkpt lat="44.83118" lon="4.59522">
        <ele>421.1</ele>
        <time>2023-06-14T18:05:51.489Z</time>
      </trkpt>
      <trkpt lat="44.83109" lon="4.59531">
        <ele>420.4</ele>
        <time>2023-06-14T18:05:56.397Z</time>
      </trkpt>
      <trkpt lat="44.83108" lon="4.59533">
        <ele>420</ele>
        <time>2023-06-14T18:05:57.190Z</time>
      </trkpt>
      <trkpt lat="44.83102" lon="4.59551">
        <ele>416.6</ele>
        <time>2023-06-14T18:06:03.610Z</time>
      </trkpt>
      <trkpt lat="44.83095" lon="4.59566">
        <ele>413.8</ele>
        <time>2023-06-14T18:06:09.381Z</time>
      </trkpt>
      <trkpt lat="44.8308" lon="4.59579">
        <ele>412.1</ele>
        <time>2023-06-14T18:06:17.234Z</time>
      </trkpt>
      <trkpt lat="44.83064" lon="4.59584">
        <ele>415.1</ele>
        <time>2023-06-14T18:06:24.622Z</time>
      </trkpt>
      <trkpt lat="44.83045" lon="4.59585">
        <ele>419.8</ele>
        <time>2023-06-14T18:06:33.282Z</time>
      </trkpt>
      <trkpt lat="44.83038" lon="4.59587">
        <ele>421.4</ele>
        <time>2023-06-14T18:06:36.527Z</time>
      </trkpt>
      <trkpt lat="44.83032" lon="4.59591">
        <ele>421.9</ele>
        <time>2023-06-14T18:06:39.486Z</time>
      </trkpt>
      <trkpt lat="44.83018" lon="4.59605">
        <ele>422.6</ele>
        <time>2023-06-14T18:06:47.122Z</time>
      </trkpt>
      <trkpt lat="44.83016" lon="4.59606">
        <ele>422.8</ele>
        <time>2023-06-14T18:06:48.070Z</time>
      </trkpt>
      <trkpt lat="44.83006" lon="4.59604">
        <ele>425.5</ele>
        <time>2023-06-14T18:06:52.689Z</time>
      </trkpt>
      <trkpt lat="44.83001" lon="4.59595">
        <ele>428.9</ele>
        <time>2023-06-14T18:06:56.548Z</time>
      </trkpt>
      <trkpt lat="44.82998" lon="4.59592">
        <ele>430.5</ele>
        <time>2023-06-14T18:06:58.296Z</time>
      </trkpt>
      <trkpt lat="44.82992" lon="4.59588">
        <ele>432.5</ele>
        <time>2023-06-14T18:07:01.355Z</time>
      </trkpt>
      <trkpt lat="44.82988" lon="4.59588">
        <ele>433.2</ele>
        <time>2023-06-14T18:07:03.156Z</time>
      </trkpt>
      <trkpt lat="44.82983" lon="4.5959">
        <ele>433.5</ele>
        <time>2023-06-14T18:07:05.474Z</time>
      </trkpt>
      <trkpt lat="44.82977" lon="4.59593">
        <ele>434</ele>
        <time>2023-06-14T18:07:08.311Z</time>
      </trkpt>
      <trkpt lat="44.82973" lon="4.59597">
        <ele>433.8</ele>
        <time>2023-06-14T18:07:10.491Z</time>
      </trkpt>
      <trkpt lat="44.82972" lon="4.59599">
        <ele>433.4</ele>
        <time>2023-06-14T18:07:11.281Z</time>
      </trkpt>
      <trkpt lat="44.82965" lon="4.59605">
        <ele>433.5</ele>
        <time>2023-06-14T18:07:14.921Z</time>
      </trkpt>
      <trkpt lat="44.82959" lon="4.59611">
        <ele>433.1</ele>
        <time>2023-06-14T18:07:18.195Z</time>
      </trkpt>
      <trkpt lat="44.82956" lon="4.59614">
        <ele>433.1</ele>
        <time>2023-06-14T18:07:19.831Z</time>
      </trkpt>
      <trkpt lat="44.82948" lon="4.59627">
        <ele>431.6</ele>
        <time>2023-06-14T18:07:25.291Z</time>
      </trkpt>
      <trkpt lat="44.82946" lon="4.5963">
        <ele>431.5</ele>
        <time>2023-06-14T18:07:26.590Z</time>
      </trkpt>
      <trkpt lat="44.82942" lon="4.59638">
        <ele>430.2</ele>
        <time>2023-06-14T18:07:29.721Z</time>
      </trkpt>
      <trkpt lat="44.8294" lon="4.59642">
        <ele>429.7</ele>
        <time>2023-06-14T18:07:31.277Z</time>
      </trkpt>
      <trkpt lat="44.8294" lon="4.59645">
        <ele>429.1</ele>
        <time>2023-06-14T18:07:32.252Z</time>
      </trkpt>
      <trkpt lat="44.82939" lon="4.59652">
        <ele>427.9</ele>
        <time>2023-06-14T18:07:34.561Z</time>
      </trkpt>
      <trkpt lat="44.82938" lon="4.59654">
        <ele>427.5</ele>
        <time>2023-06-14T18:07:35.348Z</time>
      </trkpt>
      <trkpt lat="44.82938" lon="4.59657">
        <ele>426.9</ele>
        <time>2023-06-14T18:07:36.323Z</time>
      </trkpt>
      <trkpt lat="44.82938" lon="4.5966">
        <ele>426.1</ele>
        <time>2023-06-14T18:07:37.331Z</time>
      </trkpt>
      <trkpt lat="44.82938" lon="4.59663">
        <ele>425.5</ele>
        <time>2023-06-14T18:07:38.305Z</time>
      </trkpt>
      <trkpt lat="44.82939" lon="4.59671">
        <ele>423.9</ele>
        <time>2023-06-14T18:07:40.942Z</time>
      </trkpt>
      <trkpt lat="44.82938" lon="4.59676">
        <ele>423.5</ele>
        <time>2023-06-14T18:07:42.590Z</time>
      </trkpt>
      <trkpt lat="44.82937" lon="4.59689">
        <ele>422</ele>
        <time>2023-06-14T18:07:46.757Z</time>
      </trkpt>
      <trkpt lat="44.8294" lon="4.597">
        <ele>420</ele>
        <time>2023-06-14T18:07:50.558Z</time>
      </trkpt>
      <trkpt lat="44.82927" lon="4.59703">
        <ele>422.6</ele>
        <time>2023-06-14T18:07:56.502Z</time>
      </trkpt>
      <trkpt lat="44.82919" lon="4.59702">
        <ele>424.7</ele>
        <time>2023-06-14T18:08:00.165Z</time>
      </trkpt>
      <trkpt lat="44.82915" lon="4.597">
        <ele>425.8</ele>
        <time>2023-06-14T18:08:02.113Z</time>
      </trkpt>
      <trkpt lat="44.82906" lon="4.59696">
        <ele>428.3</ele>
        <time>2023-06-14T18:08:06.420Z</time>
      </trkpt>
      <trkpt lat="44.82903" lon="4.59693">
        <ele>429.3</ele>
        <time>2023-06-14T18:08:08.109Z</time>
      </trkpt>
      <trkpt lat="44.82891" lon="4.59691">
        <ele>432.4</ele>
        <time>2023-06-14T18:08:13.625Z</time>
      </trkpt>
      <trkpt lat="44.82887" lon="4.5969">
        <ele>433.3</ele>
        <time>2023-06-14T18:08:15.462Z</time>
      </trkpt>
      <trkpt lat="44.8288" lon="4.59686">
        <ele>435.5</ele>
        <time>2023-06-14T18:08:18.930Z</time>
      </trkpt>
      <trkpt lat="44.82873" lon="4.59681">
        <ele>437.9</ele>
        <time>2023-06-14T18:08:22.550Z</time>
      </trkpt>
      <trkpt lat="44.82867" lon="4.59674">
        <ele>440.5</ele>
        <time>2023-06-14T18:08:26.165Z</time>
      </trkpt>
      <trkpt lat="44.82864" lon="4.59671">
        <ele>441.6</ele>
        <time>2023-06-14T18:08:27.861Z</time>
      </trkpt>
      <trkpt lat="44.8286" lon="4.59664">
        <ele>443.7</ele>
        <time>2023-06-14T18:08:30.817Z</time>
      </trkpt>
      <trkpt lat="44.8284" lon="4.59645">
        <ele>451.6</ele>
        <time>2023-06-14T18:08:41.997Z</time>
      </trkpt>
      <trkpt lat="44.8284" lon="4.59645">
        <ele>451.6</ele>
        <time>2023-06-14T18:08:41.997Z</time>
      </trkpt>
      <trkpt lat="44.82846" lon="4.5965">
        <ele>449.4</ele>
        <time>2023-06-14T18:08:45.219Z</time>
      </trkpt>
      <trkpt lat="44.82849" lon="4.59651">
        <ele>448.5</ele>
        <time>2023-06-14T18:08:46.635Z</time>
      </trkpt>
      <trkpt lat="44.82857" lon="4.59655">
        <ele>445.9</ele>
        <time>2023-06-14T18:08:50.549Z</time>
      </trkpt>
      <trkpt lat="44.82864" lon="4.59658">
        <ele>443.8</ele>
        <time>2023-06-14T18:08:53.920Z</time>
      </trkpt>
      <trkpt lat="44.82865" lon="4.59658">
        <ele>443.5</ele>
        <time>2023-06-14T18:08:54.370Z</time>
      </trkpt>
      <trkpt lat="44.82872" lon="4.59662">
        <ele>441.2</ele>
        <time>2023-06-14T18:08:57.861Z</time>
      </trkpt>
      <trkpt lat="44.82873" lon="4.59662">
        <ele>440.9</ele>
        <time>2023-06-14T18:08:58.319Z</time>
      </trkpt>
      <trkpt lat="44.82881" lon="4.59664">
        <ele>438.4</ele>
        <time>2023-06-14T18:09:02.067Z</time>
      </trkpt>
      <trkpt lat="44.82882" lon="4.59664">
        <ele>438.2</ele>
        <time>2023-06-14T18:09:02.524Z</time>
      </trkpt>
      <trkpt lat="44.82885" lon="4.59664">
        <ele>437.4</ele>
        <time>2023-06-14T18:09:03.884Z</time>
      </trkpt>
      <trkpt lat="44.82887" lon="4.59664">
        <ele>437</ele>
        <time>2023-06-14T18:09:04.799Z</time>
      </trkpt>
      <trkpt lat="44.82889" lon="4.59664">
        <ele>436.5</ele>
        <time>2023-06-14T18:09:05.707Z</time>
      </trkpt>
      <trkpt lat="44.82892" lon="4.59664">
        <ele>435.7</ele>
        <time>2023-06-14T18:09:07.080Z</time>
      </trkpt>
      <trkpt lat="44.82893" lon="4.59663">
        <ele>435.7</ele>
        <time>2023-06-14T18:09:07.628Z</time>
      </trkpt>
      <trkpt lat="44.829" lon="4.5966">
        <ele>434.5</ele>
        <time>2023-06-14T18:09:10.912Z</time>
      </trkpt>
      <trkpt lat="44.82903" lon="4.59658">
        <ele>434.3</ele>
        <time>2023-06-14T18:09:12.390Z</time>
      </trkpt>
      <trkpt lat="44.82905" lon="4.59653">
        <ele>434.9</ele>
        <time>2023-06-14T18:09:14.222Z</time>
      </trkpt>
      <trkpt lat="44.82906" lon="4.5965">
        <ele>435.1</ele>
        <time>2023-06-14T18:09:15.264Z</time>
      </trkpt>
      <trkpt lat="44.82907" lon="4.59645">
        <ele>436</ele>
        <time>2023-06-14T18:09:16.942Z</time>
      </trkpt>
      <trkpt lat="44.82909" lon="4.59626">
        <ele>439.6</ele>
        <time>2023-06-14T18:09:23.170Z</time>
      </trkpt>
      <trkpt lat="44.82912" lon="4.59613">
        <ele>441.7</ele>
        <time>2023-06-14T18:09:27.568Z</time>
      </trkpt>
      <trkpt lat="44.82915" lon="4.59594">
        <ele>445.1</ele>
        <time>2023-06-14T18:09:33.846Z</time>
      </trkpt>
      <trkpt lat="44.82917" lon="4.59587">
        <ele>446.4</ele>
        <time>2023-06-14T18:09:36.285Z</time>
      </trkpt>
      <trkpt lat="44.82919" lon="4.59583">
        <ele>446.9</ele>
        <time>2023-06-14T18:09:37.842Z</time>
      </trkpt>
      <trkpt lat="44.8292" lon="4.59575">
        <ele>448.5</ele>
        <time>2023-06-14T18:09:40.484Z</time>
      </trkpt>
      <trkpt lat="44.82922" lon="4.59568">
        <ele>449.7</ele>
        <time>2023-06-14T18:09:42.916Z</time>
      </trkpt>
      <trkpt lat="44.82923" lon="4.59566">
        <ele>450.2</ele>
        <time>2023-06-14T18:09:43.704Z</time>
      </trkpt>
      <trkpt lat="44.82924" lon="4.5956">
        <ele>451.3</ele>
        <time>2023-06-14T18:09:45.696Z</time>
      </trkpt>
      <trkpt lat="44.82927" lon="4.59556">
        <ele>451.6</ele>
        <time>2023-06-14T18:09:47.541Z</time>
      </trkpt>
      <trkpt lat="44.82928" lon="4.59554">
        <ele>452.1</ele>
        <time>2023-06-14T18:09:48.333Z</time>
      </trkpt>
      <trkpt lat="44.82928" lon="4.59551">
        <ele>452.7</ele>
        <time>2023-06-14T18:09:49.310Z</time>
      </trkpt>
      <trkpt lat="44.82931" lon="4.59546">
        <ele>453.4</ele>
        <time>2023-06-14T18:09:51.390Z</time>
      </trkpt>
      <trkpt lat="44.82931" lon="4.59544">
        <ele>454</ele>
        <time>2023-06-14T18:09:52.071Z</time>
      </trkpt>
      <trkpt lat="44.82934" lon="4.59535">
        <ele>455.3</ele>
        <time>2023-06-14T18:09:55.242Z</time>
      </trkpt>
      <trkpt lat="44.82935" lon="4.59534">
        <ele>455.4</ele>
        <time>2023-06-14T18:09:55.794Z</time>
      </trkpt>
      <trkpt lat="44.82936" lon="4.59532">
        <ele>455.8</ele>
        <time>2023-06-14T18:09:56.586Z</time>
      </trkpt>
      <trkpt lat="44.82939" lon="4.59528">
        <ele>456.2</ele>
        <time>2023-06-14T18:09:58.429Z</time>
      </trkpt>
      <trkpt lat="44.82942" lon="4.59526">
        <ele>456</ele>
        <time>2023-06-14T18:09:59.907Z</time>
      </trkpt>
      <trkpt lat="44.82951" lon="4.59519">
        <ele>456.1</ele>
        <time>2023-06-14T18:10:04.479Z</time>
      </trkpt>
      <trkpt lat="44.82954" lon="4.59517">
        <ele>455.8</ele>
        <time>2023-06-14T18:10:05.951Z</time>
      </trkpt>
      <trkpt lat="44.82958" lon="4.59511">
        <ele>456.6</ele>
        <time>2023-06-14T18:10:08.569Z</time>
      </trkpt>
      <trkpt lat="44.82961" lon="4.59506">
        <ele>457.3</ele>
        <time>2023-06-14T18:10:10.650Z</time>
      </trkpt>
      <trkpt lat="44.82963" lon="4.595">
        <ele>458.1</ele>
        <time>2023-06-14T18:10:12.764Z</time>
      </trkpt>
      <trkpt lat="44.82963" lon="4.59498">
        <ele>458.6</ele>
        <time>2023-06-14T18:10:13.435Z</time>
      </trkpt>
      <trkpt lat="44.82963" lon="4.59497">
        <ele>458.9</ele>
        <time>2023-06-14T18:10:13.767Z</time>
      </trkpt>
      <trkpt lat="44.82963" lon="4.59495">
        <ele>459.2</ele>
        <time>2023-06-14T18:10:14.410Z</time>
      </trkpt>
      <trkpt lat="44.82964" lon="4.59493">
        <ele>459.5</ele>
        <time>2023-06-14T18:10:15.196Z</time>
      </trkpt>
      <trkpt lat="44.82964" lon="4.5949">
        <ele>460.1</ele>
        <time>2023-06-14T18:10:16.168Z</time>
      </trkpt>
      <trkpt lat="44.82967" lon="4.59479">
        <ele>461.8</ele>
        <time>2023-06-14T18:10:19.943Z</time>
      </trkpt>
      <trkpt lat="44.82968" lon="4.59477">
        <ele>462.1</ele>
        <time>2023-06-14T18:10:20.731Z</time>
      </trkpt>
      <trkpt lat="44.82969" lon="4.59476">
        <ele>462.2</ele>
        <time>2023-06-14T18:10:21.274Z</time>
      </trkpt>
      <trkpt lat="44.82973" lon="4.59472">
        <ele>462.4</ele>
        <time>2023-06-14T18:10:23.460Z</time>
      </trkpt>
      <trkpt lat="44.82978" lon="4.59468">
        <ele>462.3</ele>
        <time>2023-06-14T18:10:26.013Z</time>
      </trkpt>
      <trkpt lat="44.82983" lon="4.59464">
        <ele>462.3</ele>
        <time>2023-06-14T18:10:28.568Z</time>
      </trkpt>
      <trkpt lat="44.82983" lon="4.59457">
        <ele>463.7</ele>
        <time>2023-06-14T18:10:30.846Z</time>
      </trkpt>
      <trkpt lat="44.82985" lon="4.59449">
        <ele>465.4</ele>
        <time>2023-06-14T18:10:33.609Z</time>
      </trkpt>
      <trkpt lat="44.82985" lon="4.59444">
        <ele>466.3</ele>
        <time>2023-06-14T18:10:35.223Z</time>
      </trkpt>
      <trkpt lat="44.82989" lon="4.59431">
        <ele>468.5</ele>
        <time>2023-06-14T18:10:39.779Z</time>
      </trkpt>
      <trkpt lat="44.8299" lon="4.59429">
        <ele>468.9</ele>
        <time>2023-06-14T18:10:40.569Z</time>
      </trkpt>
      <trkpt lat="44.82991" lon="4.59428">
        <ele>469</ele>
        <time>2023-06-14T18:10:41.117Z</time>
      </trkpt>
      <trkpt lat="44.82998" lon="4.59422">
        <ele>469.1</ele>
        <time>2023-06-14T18:10:44.757Z</time>
      </trkpt>
      <trkpt lat="44.83001" lon="4.59418">
        <ele>469.5</ele>
        <time>2023-06-14T18:10:46.601Z</time>
      </trkpt>
      <trkpt lat="44.83006" lon="4.59413">
        <ele>469.7</ele>
        <time>2023-06-14T18:10:49.325Z</time>
      </trkpt>
      <trkpt lat="44.83007" lon="4.59411">
        <ele>470.2</ele>
        <time>2023-06-14T18:10:50.126Z</time>
      </trkpt>
      <trkpt lat="44.8301" lon="4.59408">
        <ele>470.3</ele>
        <time>2023-06-14T18:10:51.762Z</time>
      </trkpt>
      <trkpt lat="44.83014" lon="4.59407">
        <ele>469.7</ele>
        <time>2023-06-14T18:10:53.585Z</time>
      </trkpt>
      <trkpt lat="44.83018" lon="4.59404">
        <ele>469.5</ele>
        <time>2023-06-14T18:10:55.599Z</time>
      </trkpt>
      <trkpt lat="44.8302" lon="4.59402">
        <ele>469.8</ele>
        <time>2023-06-14T18:10:56.699Z</time>
      </trkpt>
      <trkpt lat="44.83028" lon="4.59398">
        <ele>469.1</ele>
        <time>2023-06-14T18:11:00.484Z</time>
      </trkpt>
      <trkpt lat="44.83037" lon="4.59393">
        <ele>468.4</ele>
        <time>2023-06-14T18:11:04.794Z</time>
      </trkpt>
      <trkpt lat="44.83038" lon="4.59391">
        <ele>468.5</ele>
        <time>2023-06-14T18:11:05.564Z</time>
      </trkpt>
      <trkpt lat="44.8304" lon="4.59388">
        <ele>468.8</ele>
        <time>2023-06-14T18:11:06.872Z</time>
      </trkpt>
      <trkpt lat="44.83046" lon="4.59383">
        <ele>468.8</ele>
        <time>2023-06-14T18:11:09.974Z</time>
      </trkpt>
      <trkpt lat="44.83047" lon="4.59381">
        <ele>469.4</ele>
        <time>2023-06-14T18:11:10.769Z</time>
      </trkpt>
      <trkpt lat="44.8305" lon="4.59377">
        <ele>469.8</ele>
        <time>2023-06-14T18:11:12.614Z</time>
      </trkpt>
      <trkpt lat="44.83051" lon="4.59374">
        <ele>470.3</ele>
        <time>2023-06-14T18:11:13.681Z</time>
      </trkpt>
      <trkpt lat="44.83051" lon="4.59371">
        <ele>471.1</ele>
        <time>2023-06-14T18:11:14.670Z</time>
      </trkpt>
      <trkpt lat="44.83054" lon="4.59363">
        <ele>473</ele>
        <time>2023-06-14T18:11:17.632Z</time>
      </trkpt>
      <trkpt lat="44.83058" lon="4.59356">
        <ele>473.9</ele>
        <time>2023-06-14T18:11:20.486Z</time>
      </trkpt>
      <trkpt lat="44.83059" lon="4.59355">
        <ele>474</ele>
        <time>2023-06-14T18:11:21.034Z</time>
      </trkpt>
      <trkpt lat="44.8306" lon="4.59355">
        <ele>473.8</ele>
        <time>2023-06-14T18:11:21.492Z</time>
      </trkpt>
      <trkpt lat="44.83062" lon="4.59351">
        <ele>474.4</ele>
        <time>2023-06-14T18:11:23.057Z</time>
      </trkpt>
      <trkpt lat="44.83066" lon="4.59349">
        <ele>473.8</ele>
        <time>2023-06-14T18:11:24.962Z</time>
      </trkpt>
      <trkpt lat="44.83069" lon="4.59347">
        <ele>473.8</ele>
        <time>2023-06-14T18:11:26.436Z</time>
      </trkpt>
      <trkpt lat="44.83077" lon="4.59343">
        <ele>472.9</ele>
        <time>2023-06-14T18:11:30.228Z</time>
      </trkpt>
      <trkpt lat="44.83078" lon="4.59342">
        <ele>473.1</ele>
        <time>2023-06-14T18:11:30.770Z</time>
      </trkpt>
      <trkpt lat="44.83079" lon="4.59341">
        <ele>472.8</ele>
        <time>2023-06-14T18:11:31.328Z</time>
      </trkpt>
      <trkpt lat="44.83083" lon="4.59338">
        <ele>473</ele>
        <time>2023-06-14T18:11:33.346Z</time>
      </trkpt>
      <trkpt lat="44.83091" lon="4.59332">
        <ele>473</ele>
        <time>2023-06-14T18:11:37.375Z</time>
      </trkpt>
      <trkpt lat="44.83098" lon="4.5933">
        <ele>472.6</ele>
        <time>2023-06-14T18:11:40.552Z</time>
      </trkpt>
      <trkpt lat="44.83103" lon="4.59328">
        <ele>472.1</ele>
        <time>2023-06-14T18:11:42.880Z</time>
      </trkpt>
      <trkpt lat="44.8311" lon="4.5932">
        <ele>473.4</ele>
        <time>2023-06-14T18:11:46.917Z</time>
      </trkpt>
      <trkpt lat="44.83111" lon="4.59319">
        <ele>473.2</ele>
        <time>2023-06-14T18:11:47.467Z</time>
      </trkpt>
      <trkpt lat="44.83114" lon="4.59313">
        <ele>474.5</ele>
        <time>2023-06-14T18:11:49.836Z</time>
      </trkpt>
      <trkpt lat="44.83114" lon="4.59311">
        <ele>475.2</ele>
        <time>2023-06-14T18:11:50.530Z</time>
      </trkpt>
      <trkpt lat="44.83114" lon="4.59307">
        <ele>476.2</ele>
        <time>2023-06-14T18:11:51.856Z</time>
      </trkpt>
      <trkpt lat="44.83115" lon="4.59305">
        <ele>476.3</ele>
        <time>2023-06-14T18:11:52.634Z</time>
      </trkpt>
      <trkpt lat="44.83115" lon="4.59303">
        <ele>477</ele>
        <time>2023-06-14T18:11:53.323Z</time>
      </trkpt>
      <trkpt lat="44.83119" lon="4.59292">
        <ele>479.2</ele>
        <time>2023-06-14T18:11:57.315Z</time>
      </trkpt>
      <trkpt lat="44.8312" lon="4.59289">
        <ele>479.7</ele>
        <time>2023-06-14T18:11:58.383Z</time>
      </trkpt>
      <trkpt lat="44.83124" lon="4.59284">
        <ele>480.5</ele>
        <time>2023-06-14T18:12:00.776Z</time>
      </trkpt>
      <trkpt lat="44.83125" lon="4.59282">
        <ele>481.1</ele>
        <time>2023-06-14T18:12:01.583Z</time>
      </trkpt>
      <trkpt lat="44.83126" lon="4.59281">
        <ele>481.3</ele>
        <time>2023-06-14T18:12:02.134Z</time>
      </trkpt>
      <trkpt lat="44.83127" lon="4.59278">
        <ele>481.8</ele>
        <time>2023-06-14T18:12:03.201Z</time>
      </trkpt>
      <trkpt lat="44.83128" lon="4.59271">
        <ele>483.4</ele>
        <time>2023-06-14T18:12:05.540Z</time>
      </trkpt>
      <trkpt lat="44.83133" lon="4.59264">
        <ele>484.7</ele>
        <time>2023-06-14T18:12:08.716Z</time>
      </trkpt>
      <trkpt lat="44.83135" lon="4.59261">
        <ele>485.1</ele>
        <time>2023-06-14T18:12:10.028Z</time>
      </trkpt>
      <trkpt lat="44.8314" lon="4.59253">
        <ele>486.5</ele>
        <time>2023-06-14T18:12:13.432Z</time>
      </trkpt>
      <trkpt lat="44.83142" lon="4.59251">
        <ele>486.8</ele>
        <time>2023-06-14T18:12:14.532Z</time>
      </trkpt>
      <trkpt lat="44.83147" lon="4.59247">
        <ele>486.8</ele>
        <time>2023-06-14T18:12:17.084Z</time>
      </trkpt>
      <trkpt lat="44.83149" lon="4.59246">
        <ele>486.5</ele>
        <time>2023-06-14T18:12:18.042Z</time>
      </trkpt>
      <trkpt lat="44.83152" lon="4.59247">
        <ele>486</ele>
        <time>2023-06-14T18:12:19.426Z</time>
      </trkpt>
      <trkpt lat="44.83154" lon="4.59247">
        <ele>485.7</ele>
        <time>2023-06-14T18:12:20.321Z</time>
      </trkpt>
      <trkpt lat="44.83158" lon="4.59248">
        <ele>484.8</ele>
        <time>2023-06-14T18:12:22.164Z</time>
      </trkpt>
      <trkpt lat="44.83165" lon="4.59248">
        <ele>483.7</ele>
        <time>2023-06-14T18:12:25.303Z</time>
      </trkpt>
      <trkpt lat="44.83176" lon="4.59244">
        <ele>481.6</ele>
        <time>2023-06-14T18:12:30.422Z</time>
      </trkpt>
      <trkpt lat="44.83177" lon="4.59243">
        <ele>481.6</ele>
        <time>2023-06-14T18:12:30.970Z</time>
      </trkpt>
      <trkpt lat="44.83183" lon="4.59238">
        <ele>481</ele>
        <time>2023-06-14T18:12:34.078Z</time>
      </trkpt>
      <trkpt lat="44.83192" lon="4.59228">
        <ele>480.4</ele>
        <time>2023-06-14T18:12:39.181Z</time>
      </trkpt>
      <trkpt lat="44.832" lon="4.59225">
        <ele>479.1</ele>
        <time>2023-06-14T18:12:42.899Z</time>
      </trkpt>
      <trkpt lat="44.83203" lon="4.5922">
        <ele>479.1</ele>
        <time>2023-06-14T18:12:44.965Z</time>
      </trkpt>
      <trkpt lat="44.83212" lon="4.59211">
        <ele>478.7</ele>
        <time>2023-06-14T18:12:49.874Z</time>
      </trkpt>
      <trkpt lat="44.83214" lon="4.5921">
        <ele>478.5</ele>
        <time>2023-06-14T18:12:50.820Z</time>
      </trkpt>
      <trkpt lat="44.83221" lon="4.592">
        <ele>479.1</ele>
        <time>2023-06-14T18:12:55.258Z</time>
      </trkpt>
      <trkpt lat="44.83224" lon="4.59191">
        <ele>480.4</ele>
        <time>2023-06-14T18:12:58.438Z</time>
      </trkpt>
      <trkpt lat="44.83223" lon="4.59189">
        <ele>481</ele>
        <time>2023-06-14T18:12:59.237Z</time>
      </trkpt>
      <trkpt lat="44.83224" lon="4.59187">
        <ele>481.3</ele>
        <time>2023-06-14T18:13:00.026Z</time>
      </trkpt>
      <trkpt lat="44.83224" lon="4.59186">
        <ele>481.3</ele>
        <time>2023-06-14T18:13:00.338Z</time>
      </trkpt>
      <trkpt lat="44.83228" lon="4.59178">
        <ele>482.4</ele>
        <time>2023-06-14T18:13:03.451Z</time>
      </trkpt>
      <trkpt lat="44.83228" lon="4.59171">
        <ele>483.8</ele>
        <time>2023-06-14T18:13:05.737Z</time>
      </trkpt>
      <trkpt lat="44.83229" lon="4.59167">
        <ele>484.5</ele>
        <time>2023-06-14T18:13:07.104Z</time>
      </trkpt>
      <trkpt lat="44.83231" lon="4.59164">
        <ele>484.8</ele>
        <time>2023-06-14T18:13:08.405Z</time>
      </trkpt>
      <trkpt lat="44.83234" lon="4.59158">
        <ele>485.9</ele>
        <time>2023-06-14T18:13:10.761Z</time>
      </trkpt>
      <trkpt lat="44.83241" lon="4.59149">
        <ele>487</ele>
        <time>2023-06-14T18:13:14.998Z</time>
      </trkpt>
      <trkpt lat="44.83244" lon="4.59142">
        <ele>488.2</ele>
        <time>2023-06-14T18:13:17.628Z</time>
      </trkpt>
      <trkpt lat="44.83247" lon="4.59132">
        <ele>490.6</ele>
        <time>2023-06-14T18:13:21.184Z</time>
      </trkpt>
      <trkpt lat="44.83249" lon="4.59127">
        <ele>491.8</ele>
        <time>2023-06-14T18:13:23.054Z</time>
      </trkpt>
      <trkpt lat="44.83255" lon="4.59109">
        <ele>497.2</ele>
        <time>2023-06-14T18:13:29.690Z</time>
      </trkpt>
      <trkpt lat="44.83256" lon="4.591">
        <ele>499.9</ele>
        <time>2023-06-14T18:13:32.760Z</time>
      </trkpt>
      <trkpt lat="44.83259" lon="4.59094">
        <ele>501.6</ele>
        <time>2023-06-14T18:13:35.175Z</time>
      </trkpt>
      <trkpt lat="44.83266" lon="4.59093">
        <ele>502.5</ele>
        <time>2023-06-14T18:13:38.326Z</time>
      </trkpt>
      <trkpt lat="44.83276" lon="4.59093">
        <ele>503.2</ele>
        <time>2023-06-14T18:13:42.786Z</time>
      </trkpt>
      <trkpt lat="44.83294" lon="4.59089">
        <ele>505.6</ele>
        <time>2023-06-14T18:13:50.940Z</time>
      </trkpt>
      <trkpt lat="44.83296" lon="4.59088">
        <ele>506.2</ele>
        <time>2023-06-14T18:13:51.914Z</time>
      </trkpt>
      <trkpt lat="44.83303" lon="4.59085">
        <ele>507.4</ele>
        <time>2023-06-14T18:13:55.202Z</time>
      </trkpt>
      <trkpt lat="44.83307" lon="4.59081">
        <ele>508.8</ele>
        <time>2023-06-14T18:13:57.458Z</time>
      </trkpt>
      <trkpt lat="44.83308" lon="4.5908">
        <ele>509.3</ele>
        <time>2023-06-14T18:13:58.025Z</time>
      </trkpt>
      <trkpt lat="44.83321" lon="4.59072">
        <ele>512.5</ele>
        <time>2023-06-14T18:14:04.471Z</time>
      </trkpt>
      <trkpt lat="44.83327" lon="4.5907">
        <ele>513.8</ele>
        <time>2023-06-14T18:14:07.259Z</time>
      </trkpt>
      <trkpt lat="44.83334" lon="4.59068">
        <ele>514.8</ele>
        <time>2023-06-14T18:14:10.455Z</time>
      </trkpt>
      <trkpt lat="44.83341" lon="4.59067">
        <ele>516.3</ele>
        <time>2023-06-14T18:14:13.645Z</time>
      </trkpt>
      <trkpt lat="44.83345" lon="4.59066">
        <ele>517.3</ele>
        <time>2023-06-14T18:14:15.498Z</time>
      </trkpt>
      <trkpt lat="44.83351" lon="4.59064">
        <ele>518.7</ele>
        <time>2023-06-14T18:14:18.287Z</time>
      </trkpt>
      <trkpt lat="44.8336" lon="4.59064">
        <ele>520</ele>
        <time>2023-06-14T18:14:22.326Z</time>
      </trkpt>
      <trkpt lat="44.83377" lon="4.59067">
        <ele>521.9</ele>
        <time>2023-06-14T18:14:29.981Z</time>
      </trkpt>
      <trkpt lat="44.8338" lon="4.59068">
        <ele>522</ele>
        <time>2023-06-14T18:14:31.353Z</time>
      </trkpt>
      <trkpt lat="44.83384" lon="4.5907">
        <ele>522.2</ele>
        <time>2023-06-14T18:14:33.245Z</time>
      </trkpt>
      <trkpt lat="44.83394" lon="4.59076">
        <ele>521.8</ele>
        <time>2023-06-14T18:14:38.083Z</time>
      </trkpt>
      <trkpt lat="44.83405" lon="4.59084">
        <ele>521.2</ele>
        <time>2023-06-14T18:14:43.591Z</time>
      </trkpt>
      <trkpt lat="44.83415" lon="4.59088">
        <ele>522</ele>
        <time>2023-06-14T18:14:48.221Z</time>
      </trkpt>
      <trkpt lat="44.83424" lon="4.59089">
        <ele>524</ele>
        <time>2023-06-14T18:14:52.319Z</time>
      </trkpt>
      <trkpt lat="44.83426" lon="4.59089">
        <ele>524.5</ele>
        <time>2023-06-14T18:14:53.231Z</time>
      </trkpt>
      <trkpt lat="44.8343" lon="4.59089">
        <ele>525.6</ele>
        <time>2023-06-14T18:14:55.062Z</time>
      </trkpt>
      <trkpt lat="44.83437" lon="4.5909">
        <ele>527.3</ele>
        <time>2023-06-14T18:14:58.268Z</time>
      </trkpt>
      <trkpt lat="44.83441" lon="4.59091">
        <ele>528.2</ele>
        <time>2023-06-14T18:15:00.102Z</time>
      </trkpt>
      <trkpt lat="44.83443" lon="4.59092">
        <ele>528.7</ele>
        <time>2023-06-14T18:15:01.067Z</time>
      </trkpt>
      <trkpt lat="44.83445" lon="4.59092">
        <ele>529.2</ele>
        <time>2023-06-14T18:15:01.987Z</time>
      </trkpt>
      <trkpt lat="44.83448" lon="4.59094">
        <ele>529.7</ele>
        <time>2023-06-14T18:15:03.474Z</time>
      </trkpt>
      <trkpt lat="44.8345" lon="4.59094">
        <ele>530.3</ele>
        <time>2023-06-14T18:15:04.387Z</time>
      </trkpt>
      <trkpt lat="44.83453" lon="4.59095">
        <ele>530.9</ele>
        <time>2023-06-14T18:15:05.779Z</time>
      </trkpt>
      <trkpt lat="44.83461" lon="4.59097">
        <ele>532.9</ele>
        <time>2023-06-14T18:15:09.476Z</time>
      </trkpt>
      <trkpt lat="44.83463" lon="4.59098">
        <ele>533.3</ele>
        <time>2023-06-14T18:15:10.442Z</time>
      </trkpt>
      <trkpt lat="44.83471" lon="4.59099">
        <ele>535.3</ele>
        <time>2023-06-14T18:15:14.102Z</time>
      </trkpt>
      <trkpt lat="44.83478" lon="4.59101">
        <ele>537.2</ele>
        <time>2023-06-14T18:15:17.359Z</time>
      </trkpt>
      <trkpt lat="44.83482" lon="4.59101">
        <ele>538.3</ele>
        <time>2023-06-14T18:15:19.195Z</time>
      </trkpt>
      <trkpt lat="44.83483" lon="4.59101">
        <ele>538.6</ele>
        <time>2023-06-14T18:15:19.656Z</time>
      </trkpt>
      <trkpt lat="44.83493" lon="4.59103">
        <ele>541.2</ele>
        <time>2023-06-14T18:15:24.261Z</time>
      </trkpt>
      <trkpt lat="44.835" lon="4.59102">
        <ele>543.2</ele>
        <time>2023-06-14T18:15:27.502Z</time>
      </trkpt>
      <trkpt lat="44.83504" lon="4.59102">
        <ele>544.5</ele>
        <time>2023-06-14T18:15:29.349Z</time>
      </trkpt>
      <trkpt lat="44.83503" lon="4.59098">
        <ele>544.6</ele>
        <time>2023-06-14T18:15:30.688Z</time>
      </trkpt>
      <trkpt lat="44.83493" lon="4.59094">
        <ele>542.1</ele>
        <time>2023-06-14T18:15:35.418Z</time>
      </trkpt>
      <trkpt lat="44.83484" lon="4.59086">
        <ele>540.5</ele>
        <time>2023-06-14T18:15:40.194Z</time>
      </trkpt>
      <trkpt lat="44.83478" lon="4.59081">
        <ele>539.7</ele>
        <time>2023-06-14T18:15:43.313Z</time>
      </trkpt>
      <trkpt lat="44.83474" lon="4.59078">
        <ele>539</ele>
        <time>2023-06-14T18:15:45.341Z</time>
      </trkpt>
      <trkpt lat="44.83471" lon="4.59075">
        <ele>538.9</ele>
        <time>2023-06-14T18:15:46.977Z</time>
      </trkpt>
      <trkpt lat="44.8347" lon="4.59074">
        <ele>538.9</ele>
        <time>2023-06-14T18:15:47.522Z</time>
      </trkpt>
      <trkpt lat="44.83465" lon="4.59068">
        <ele>538.7</ele>
        <time>2023-06-14T18:15:50.442Z</time>
      </trkpt>
      <trkpt lat="44.83464" lon="4.59067">
        <ele>538.8</ele>
        <time>2023-06-14T18:15:50.990Z</time>
      </trkpt>
      <trkpt lat="44.8346" lon="4.59064">
        <ele>538.3</ele>
        <time>2023-06-14T18:15:53.008Z</time>
      </trkpt>
      <trkpt lat="44.83457" lon="4.59062">
        <ele>538.2</ele>
        <time>2023-06-14T18:15:54.485Z</time>
      </trkpt>
      <trkpt lat="44.83456" lon="4.59061">
        <ele>538</ele>
        <time>2023-06-14T18:15:55.039Z</time>
      </trkpt>
      <trkpt lat="44.83454" lon="4.59058">
        <ele>538.4</ele>
        <time>2023-06-14T18:15:56.347Z</time>
      </trkpt>
      <trkpt lat="44.83451" lon="4.59056">
        <ele>538.1</ele>
        <time>2023-06-14T18:15:57.828Z</time>
      </trkpt>
      <trkpt lat="44.83449" lon="4.59054">
        <ele>538.3</ele>
        <time>2023-06-14T18:15:58.924Z</time>
      </trkpt>
      <trkpt lat="44.83445" lon="4.59051">
        <ele>538.1</ele>
        <time>2023-06-14T18:16:00.936Z</time>
      </trkpt>
      <trkpt lat="44.83444" lon="4.59049">
        <ele>538.6</ele>
        <time>2023-06-14T18:16:01.732Z</time>
      </trkpt>
      <trkpt lat="44.83442" lon="4.59047">
        <ele>538.5</ele>
        <time>2023-06-14T18:16:02.819Z</time>
      </trkpt>
      <trkpt lat="44.8344" lon="4.59045">
        <ele>538.8</ele>
        <time>2023-06-14T18:16:03.912Z</time>
      </trkpt>
      <trkpt lat="44.83437" lon="4.59043">
        <ele>538.6</ele>
        <time>2023-06-14T18:16:05.389Z</time>
      </trkpt>
      <trkpt lat="44.83433" lon="4.59039">
        <ele>538.9</ele>
        <time>2023-06-14T18:16:07.576Z</time>
      </trkpt>
      <trkpt lat="44.83429" lon="4.59036">
        <ele>539.3</ele>
        <time>2023-06-14T18:16:09.600Z</time>
      </trkpt>
      <trkpt lat="44.83429" lon="4.59035">
        <ele>539.3</ele>
        <time>2023-06-14T18:16:09.917Z</time>
      </trkpt>
      <trkpt lat="44.83425" lon="4.5903">
        <ele>540.2</ele>
        <time>2023-06-14T18:16:12.315Z</time>
      </trkpt>
      <trkpt lat="44.83423" lon="4.59028">
        <ele>540.7</ele>
        <time>2023-06-14T18:16:13.425Z</time>
      </trkpt>
      <trkpt lat="44.83419" lon="4.59023">
        <ele>541.6</ele>
        <time>2023-06-14T18:16:15.829Z</time>
      </trkpt>
      <trkpt lat="44.83417" lon="4.59019">
        <ele>542.6</ele>
        <time>2023-06-14T18:16:17.416Z</time>
      </trkpt>
      <trkpt lat="44.83415" lon="4.59016">
        <ele>543.1</ele>
        <time>2023-06-14T18:16:18.733Z</time>
      </trkpt>
      <trkpt lat="44.83414" lon="4.59015">
        <ele>543.3</ele>
        <time>2023-06-14T18:16:19.283Z</time>
      </trkpt>
      <trkpt lat="44.83413" lon="4.59014">
        <ele>543.5</ele>
        <time>2023-06-14T18:16:19.836Z</time>
      </trkpt>
      <trkpt lat="44.83405" lon="4.59006">
        <ele>544.6</ele>
        <time>2023-06-14T18:16:24.219Z</time>
      </trkpt>
      <trkpt lat="44.83399" lon="4.58998">
        <ele>545.5</ele>
        <time>2023-06-14T18:16:27.908Z</time>
      </trkpt>
      <trkpt lat="44.83397" lon="4.58994">
        <ele>545.5</ele>
        <time>2023-06-14T18:16:29.451Z</time>
      </trkpt>
      <trkpt lat="44.83395" lon="4.58991">
        <ele>545.5</ele>
        <time>2023-06-14T18:16:30.749Z</time>
      </trkpt>
      <trkpt lat="44.83393" lon="4.58988">
        <ele>545.5</ele>
        <time>2023-06-14T18:16:32.046Z</time>
      </trkpt>
      <trkpt lat="44.83385" lon="4.58979">
        <ele>544.9</ele>
        <time>2023-06-14T18:16:36.603Z</time>
      </trkpt>
      <trkpt lat="44.83385" lon="4.58978">
        <ele>545</ele>
        <time>2023-06-14T18:16:36.923Z</time>
      </trkpt>
      <trkpt lat="44.83381" lon="4.58973">
        <ele>544.8</ele>
        <time>2023-06-14T18:16:39.302Z</time>
      </trkpt>
      <trkpt lat="44.83374" lon="4.58964">
        <ele>544.4</ele>
        <time>2023-06-14T18:16:43.520Z</time>
      </trkpt>
      <trkpt lat="44.83368" lon="4.5896">
        <ele>543.7</ele>
        <time>2023-06-14T18:16:46.477Z</time>
      </trkpt>
      <trkpt lat="44.83357" lon="4.58954">
        <ele>542.4</ele>
        <time>2023-06-14T18:16:51.753Z</time>
      </trkpt>
      <trkpt lat="44.83347" lon="4.58955">
        <ele>540.6</ele>
        <time>2023-06-14T18:16:56.264Z</time>
      </trkpt>
      <trkpt lat="44.83336" lon="4.58954">
        <ele>538.8</ele>
        <time>2023-06-14T18:17:01.215Z</time>
      </trkpt>
      <trkpt lat="44.83325" lon="4.58953">
        <ele>537.5</ele>
        <time>2023-06-14T18:17:06.145Z</time>
      </trkpt>
      <trkpt lat="44.83319" lon="4.58953">
        <ele>536.8</ele>
        <time>2023-06-14T18:17:08.829Z</time>
      </trkpt>
      <trkpt lat="44.83314" lon="4.58952">
        <ele>536.3</ele>
        <time>2023-06-14T18:17:11.088Z</time>
      </trkpt>
      <trkpt lat="44.83311" lon="4.58952">
        <ele>536</ele>
        <time>2023-06-14T18:17:12.428Z</time>
      </trkpt>
      <trkpt lat="44.83307" lon="4.5895">
        <ele>535.7</ele>
        <time>2023-06-14T18:17:14.314Z</time>
      </trkpt>
      <trkpt lat="44.83301" lon="4.58947">
        <ele>535.2</ele>
        <time>2023-06-14T18:17:17.151Z</time>
      </trkpt>
      <trkpt lat="44.83297" lon="4.58945">
        <ele>535</ele>
        <time>2023-06-14T18:17:19.043Z</time>
      </trkpt>
      <trkpt lat="44.83292" lon="4.5894">
        <ele>534.7</ele>
        <time>2023-06-14T18:17:21.772Z</time>
      </trkpt>
      <trkpt lat="44.83278" lon="4.58931">
        <ele>533.9</ele>
        <time>2023-06-14T18:17:28.619Z</time>
      </trkpt>
      <trkpt lat="44.83271" lon="4.58925">
        <ele>533.7</ele>
        <time>2023-06-14T18:17:32.265Z</time>
      </trkpt>
      <trkpt lat="44.83261" lon="4.5892">
        <ele>533</ele>
        <time>2023-06-14T18:17:36.989Z</time>
      </trkpt>
      <trkpt lat="44.83259" lon="4.5892">
        <ele>532.8</ele>
        <time>2023-06-14T18:17:37.887Z</time>
      </trkpt>
      <trkpt lat="44.83256" lon="4.58919">
        <ele>532.6</ele>
        <time>2023-06-14T18:17:39.261Z</time>
      </trkpt>
      <trkpt lat="44.83243" lon="4.58909">
        <ele>531.5</ele>
        <time>2023-06-14T18:17:45.858Z</time>
      </trkpt>
      <trkpt lat="44.83239" lon="4.58907">
        <ele>531.4</ele>
        <time>2023-06-14T18:17:47.748Z</time>
      </trkpt>
      <trkpt lat="44.8323" lon="4.58904">
        <ele>531.3</ele>
        <time>2023-06-14T18:17:51.855Z</time>
      </trkpt>
      <trkpt lat="44.83225" lon="4.58904">
        <ele>531.5</ele>
        <time>2023-06-14T18:17:54.084Z</time>
      </trkpt>
      <trkpt lat="44.83221" lon="4.58903">
        <ele>531.4</ele>
        <time>2023-06-14T18:17:55.887Z</time>
      </trkpt>
      <trkpt lat="44.83214" lon="4.58899">
        <ele>531</ele>
        <time>2023-06-14T18:17:59.250Z</time>
      </trkpt>
      <trkpt lat="44.83211" lon="4.58896">
        <ele>530.7</ele>
        <time>2023-06-14T18:18:00.891Z</time>
      </trkpt>
      <trkpt lat="44.83209" lon="4.58889">
        <ele>529.5</ele>
        <time>2023-06-14T18:18:03.318Z</time>
      </trkpt>
      <trkpt lat="44.83207" lon="4.58885">
        <ele>528.9</ele>
        <time>2023-06-14T18:18:04.880Z</time>
      </trkpt>
      <trkpt lat="44.83206" lon="4.58885">
        <ele>528.9</ele>
        <time>2023-06-14T18:18:05.327Z</time>
      </trkpt>
      <trkpt lat="44.83206" lon="4.58882">
        <ele>528.5</ele>
        <time>2023-06-14T18:18:06.283Z</time>
      </trkpt>
      <trkpt lat="44.83204" lon="4.58877">
        <ele>527.7</ele>
        <time>2023-06-14T18:18:08.128Z</time>
      </trkpt>
      <trkpt lat="44.832" lon="4.5887">
        <ele>526.5</ele>
        <time>2023-06-14T18:18:10.998Z</time>
      </trkpt>
      <trkpt lat="44.83195" lon="4.58861">
        <ele>524.8</ele>
        <time>2023-06-14T18:18:14.666Z</time>
      </trkpt>
      <trkpt lat="44.83188" lon="4.58852">
        <ele>522.9</ele>
        <time>2023-06-14T18:18:18.950Z</time>
      </trkpt>
      <trkpt lat="44.83185" lon="4.58846">
        <ele>521.6</ele>
        <time>2023-06-14T18:18:21.329Z</time>
      </trkpt>
      <trkpt lat="44.83182" lon="4.5884">
        <ele>520.4</ele>
        <time>2023-06-14T18:18:23.692Z</time>
      </trkpt>
      <trkpt lat="44.83179" lon="4.58826">
        <ele>517.7</ele>
        <time>2023-06-14T18:18:28.427Z</time>
      </trkpt>
      <trkpt lat="44.83177" lon="4.5882">
        <ele>516.6</ele>
        <time>2023-06-14T18:18:30.566Z</time>
      </trkpt>
      <trkpt lat="44.83175" lon="4.58813">
        <ele>515.5</ele>
        <time>2023-06-14T18:18:32.983Z</time>
      </trkpt>
      <trkpt lat="44.83171" lon="4.58798">
        <ele>513.1</ele>
        <time>2023-06-14T18:18:38.124Z</time>
      </trkpt>
      <trkpt lat="44.83167" lon="4.58782">
        <ele>510.5</ele>
        <time>2023-06-14T18:18:43.579Z</time>
      </trkpt>
      <trkpt lat="44.83165" lon="4.58775">
        <ele>509.7</ele>
        <time>2023-06-14T18:18:45.979Z</time>
      </trkpt>
      <trkpt lat="44.83161" lon="4.58769">
        <ele>509</ele>
        <time>2023-06-14T18:18:48.586Z</time>
      </trkpt>
      <trkpt lat="44.83154" lon="4.58756">
        <ele>507.7</ele>
        <time>2023-06-14T18:18:53.766Z</time>
      </trkpt>
      <trkpt lat="44.8315" lon="4.58749">
        <ele>507</ele>
        <time>2023-06-14T18:18:56.612Z</time>
      </trkpt>
      <trkpt lat="44.83146" lon="4.58741">
        <ele>506.1</ele>
        <time>2023-06-14T18:18:59.718Z</time>
      </trkpt>
      <trkpt lat="44.83139" lon="4.58723">
        <ele>503.7</ele>
        <time>2023-06-14T18:19:06.262Z</time>
      </trkpt>
      <trkpt lat="44.83135" lon="4.58715">
        <ele>502.8</ele>
        <time>2023-06-14T18:19:09.368Z</time>
      </trkpt>
      <trkpt lat="44.83131" lon="4.58711">
        <ele>502.5</ele>
        <time>2023-06-14T18:19:11.556Z</time>
      </trkpt>
      <trkpt lat="44.83129" lon="4.58713">
        <ele>502.8</ele>
        <time>2023-06-14T18:19:12.653Z</time>
      </trkpt>
      <trkpt lat="44.83126" lon="4.58714">
        <ele>503.2</ele>
        <time>2023-06-14T18:19:14.035Z</time>
      </trkpt>
      <trkpt lat="44.83118" lon="4.58717">
        <ele>504.2</ele>
        <time>2023-06-14T18:19:17.743Z</time>
      </trkpt>
      <trkpt lat="44.83108" lon="4.58723">
        <ele>506</ele>
        <time>2023-06-14T18:19:22.621Z</time>
      </trkpt>
      <trkpt lat="44.83093" lon="4.58732">
        <ele>508.5</ele>
        <time>2023-06-14T18:19:29.940Z</time>
      </trkpt>
      <trkpt lat="44.83084" lon="4.58738">
        <ele>509.9</ele>
        <time>2023-06-14T18:19:34.406Z</time>
      </trkpt>
      <trkpt lat="44.83071" lon="4.58747">
        <ele>510.2</ele>
        <time>2023-06-14T18:19:40.843Z</time>
      </trkpt>
      <trkpt lat="44.83066" lon="4.58749">
        <ele>510.1</ele>
        <time>2023-06-14T18:19:43.153Z</time>
      </trkpt>
      <trkpt lat="44.83061" lon="4.5875">
        <ele>509.9</ele>
        <time>2023-06-14T18:19:45.406Z</time>
      </trkpt>
      <trkpt lat="44.83061" lon="4.5875">
        <ele>509.9</ele>
        <time>2023-06-14T18:19:45.406Z</time>
      </trkpt>
      <trkpt lat="44.83061" lon="4.5875">
        <ele>509.9</ele>
        <time>2023-06-14T18:19:45.406Z</time>
      </trkpt>
      <trkpt lat="44.83061" lon="4.5875">
        <ele>509.9</ele>
        <time>2023-06-14T18:19:45.406Z</time>
      </trkpt>
      <trkpt lat="44.83061" lon="4.58749">
        <ele>509.7</ele>
        <time>2023-06-14T18:19:45.729Z</time>
      </trkpt>
      <trkpt lat="44.83062" lon="4.58747">
        <ele>509.3</ele>
        <time>2023-06-14T18:19:46.516Z</time>
      </trkpt>
      <trkpt lat="44.83062" lon="4.58747">
        <ele>509.3</ele>
        <time>2023-06-14T18:19:46.516Z</time>
      </trkpt>
      <trkpt lat="44.83061" lon="4.58749">
        <ele>509.7</ele>
        <time>2023-06-14T18:19:47.304Z</time>
      </trkpt>
      <trkpt lat="44.83058" lon="4.58752">
        <ele>509.7</ele>
        <time>2023-06-14T18:19:48.939Z</time>
      </trkpt>
      <trkpt lat="44.83051" lon="4.58763">
        <ele>510.8</ele>
        <time>2023-06-14T18:19:53.617Z</time>
      </trkpt>
      <trkpt lat="44.83048" lon="4.58768">
        <ele>511.1</ele>
        <time>2023-06-14T18:19:55.685Z</time>
      </trkpt>
      <trkpt lat="44.83043" lon="4.58775">
        <ele>511.8</ele>
        <time>2023-06-14T18:19:58.831Z</time>
      </trkpt>
      <trkpt lat="44.83036" lon="4.58784">
        <ele>512.6</ele>
        <time>2023-06-14T18:20:03.059Z</time>
      </trkpt>
      <trkpt lat="44.83031" lon="4.58794">
        <ele>513.6</ele>
        <time>2023-06-14T18:20:06.934Z</time>
      </trkpt>
      <trkpt lat="44.83028" lon="4.588">
        <ele>514.4</ele>
        <time>2023-06-14T18:20:09.270Z</time>
      </trkpt>
      <trkpt lat="44.83027" lon="4.58803">
        <ele>514.7</ele>
        <time>2023-06-14T18:20:10.324Z</time>
      </trkpt>
      <trkpt lat="44.83025" lon="4.58806">
        <ele>515.2</ele>
        <time>2023-06-14T18:20:11.635Z</time>
      </trkpt>
      <trkpt lat="44.83021" lon="4.58814">
        <ele>516.2</ele>
        <time>2023-06-14T18:20:14.747Z</time>
      </trkpt>
      <trkpt lat="44.8302" lon="4.58821">
        <ele>517.1</ele>
        <time>2023-06-14T18:20:17.034Z</time>
      </trkpt>
      <trkpt lat="44.83016" lon="4.58835">
        <ele>519.2</ele>
        <time>2023-06-14T18:20:21.864Z</time>
      </trkpt>
      <trkpt lat="44.83012" lon="4.5884">
        <ele>519.9</ele>
        <time>2023-06-14T18:20:24.259Z</time>
      </trkpt>
      <trkpt lat="44.83008" lon="4.58846">
        <ele>520.6</ele>
        <time>2023-06-14T18:20:26.868Z</time>
      </trkpt>
      <trkpt lat="44.82999" lon="4.58859">
        <ele>522.1</ele>
        <time>2023-06-14T18:20:32.632Z</time>
      </trkpt>
      <trkpt lat="44.82993" lon="4.58866">
        <ele>521.5</ele>
        <time>2023-06-14T18:20:36.103Z</time>
      </trkpt>
      <trkpt lat="44.82986" lon="4.58871">
        <ele>519.9</ele>
        <time>2023-06-14T18:20:39.650Z</time>
      </trkpt>
      <trkpt lat="44.8298" lon="4.58877">
        <ele>518.8</ele>
        <time>2023-06-14T18:20:42.949Z</time>
      </trkpt>
      <trkpt lat="44.82974" lon="4.58883">
        <ele>517.9</ele>
        <time>2023-06-14T18:20:46.236Z</time>
      </trkpt>
      <trkpt lat="44.82968" lon="4.58889">
        <ele>516.9</ele>
        <time>2023-06-14T18:20:49.534Z</time>
      </trkpt>
      <trkpt lat="44.82963" lon="4.58895">
        <ele>516.4</ele>
        <time>2023-06-14T18:20:52.463Z</time>
      </trkpt>
      <trkpt lat="44.82958" lon="4.58902">
        <ele>515.9</ele>
        <time>2023-06-14T18:20:55.603Z</time>
      </trkpt>
      <trkpt lat="44.82951" lon="4.5891">
        <ele>515.3</ele>
        <time>2023-06-14T18:20:59.611Z</time>
      </trkpt>
      <trkpt lat="44.82936" lon="4.58926">
        <ele>512.9</ele>
        <time>2023-06-14T18:21:08.033Z</time>
      </trkpt>
      <trkpt lat="44.8293" lon="4.58933">
        <ele>511.9</ele>
        <time>2023-06-14T18:21:11.517Z</time>
      </trkpt>
      <trkpt lat="44.82923" lon="4.58939">
        <ele>511.1</ele>
        <time>2023-06-14T18:21:15.180Z</time>
      </trkpt>
      <trkpt lat="44.8291" lon="4.58947">
        <ele>508.6</ele>
        <time>2023-06-14T18:21:21.563Z</time>
      </trkpt>
      <trkpt lat="44.82897" lon="4.58955">
        <ele>505.7</ele>
        <time>2023-06-14T18:21:27.978Z</time>
      </trkpt>
      <trkpt lat="44.82891" lon="4.58957">
        <ele>504.1</ele>
        <time>2023-06-14T18:21:30.791Z</time>
      </trkpt>
      <trkpt lat="44.82886" lon="4.58959">
        <ele>502.7</ele>
        <time>2023-06-14T18:21:33.167Z</time>
      </trkpt>
      <trkpt lat="44.82881" lon="4.58962">
        <ele>501.6</ele>
        <time>2023-06-14T18:21:35.624Z</time>
      </trkpt>
      <trkpt lat="44.82877" lon="4.58967">
        <ele>501.2</ele>
        <time>2023-06-14T18:21:38.008Z</time>
      </trkpt>
      <trkpt lat="44.82873" lon="4.58973">
        <ele>501.1</ele>
        <time>2023-06-14T18:21:40.603Z</time>
      </trkpt>
      <trkpt lat="44.82869" lon="4.58979">
        <ele>501</ele>
        <time>2023-06-14T18:21:43.203Z</time>
      </trkpt>
      <trkpt lat="44.82865" lon="4.58983">
        <ele>500.5</ele>
        <time>2023-06-14T18:21:45.396Z</time>
      </trkpt>
      <trkpt lat="44.82862" lon="4.58983">
        <ele>499.4</ele>
        <time>2023-06-14T18:21:46.800Z</time>
      </trkpt>
      <trkpt lat="44.8286" lon="4.58979">
        <ele>498</ele>
        <time>2023-06-14T18:21:48.439Z</time>
      </trkpt>
      <trkpt lat="44.82858" lon="4.58973">
        <ele>496.1</ele>
        <time>2023-06-14T18:21:50.664Z</time>
      </trkpt>
      <trkpt lat="44.82855" lon="4.58966">
        <ele>493.8</ele>
        <time>2023-06-14T18:21:53.396Z</time>
      </trkpt>
      <trkpt lat="44.82853" lon="4.58958">
        <ele>491.4</ele>
        <time>2023-06-14T18:21:56.238Z</time>
      </trkpt>
      <trkpt lat="44.82852" lon="4.5895">
        <ele>489.6</ele>
        <time>2023-06-14T18:21:58.901Z</time>
      </trkpt>
      <trkpt lat="44.82851" lon="4.58941">
        <ele>487.5</ele>
        <time>2023-06-14T18:22:01.893Z</time>
      </trkpt>
      <trkpt lat="44.8285" lon="4.58932">
        <ele>485.4</ele>
        <time>2023-06-14T18:22:04.883Z</time>
      </trkpt>
      <trkpt lat="44.82849" lon="4.58924">
        <ele>483.5</ele>
        <time>2023-06-14T18:22:07.559Z</time>
      </trkpt>
      <trkpt lat="44.82848" lon="4.58918">
        <ele>482.2</ele>
        <time>2023-06-14T18:22:09.575Z</time>
      </trkpt>
      <trkpt lat="44.82846" lon="4.58916">
        <ele>480.9</ele>
        <time>2023-06-14T18:22:10.777Z</time>
      </trkpt>
      <trkpt lat="44.82842" lon="4.58915">
        <ele>479.2</ele>
        <time>2023-06-14T18:22:12.709Z</time>
      </trkpt>
      <trkpt lat="44.82838" lon="4.58917">
        <ele>478.6</ele>
        <time>2023-06-14T18:22:14.604Z</time>
      </trkpt>
      <trkpt lat="44.82833" lon="4.5892">
        <ele>477.4</ele>
        <time>2023-06-14T18:22:17.066Z</time>
      </trkpt>
      <trkpt lat="44.82823" lon="4.58925">
        <ele>476.5</ele>
        <time>2023-06-14T18:22:21.806Z</time>
      </trkpt>
      <trkpt lat="44.82818" lon="4.58927">
        <ele>475.8</ele>
        <time>2023-06-14T18:22:24.130Z</time>
      </trkpt>
      <trkpt lat="44.82814" lon="4.58926">
        <ele>474.8</ele>
        <time>2023-06-14T18:22:25.983Z</time>
      </trkpt>
      <trkpt lat="44.82813" lon="4.58923">
        <ele>474.3</ele>
        <time>2023-06-14T18:22:27.050Z</time>
      </trkpt>
      <trkpt lat="44.82812" lon="4.58918">
        <ele>473.4</ele>
        <time>2023-06-14T18:22:28.726Z</time>
      </trkpt>
      <trkpt lat="44.82809" lon="4.58913">
        <ele>471.5</ele>
        <time>2023-06-14T18:22:30.918Z</time>
      </trkpt>
      <trkpt lat="44.82807" lon="4.58915">
        <ele>471.5</ele>
        <time>2023-06-14T18:22:32.005Z</time>
      </trkpt>
      <trkpt lat="44.82805" lon="4.58919">
        <ele>472.1</ele>
        <time>2023-06-14T18:22:33.569Z</time>
      </trkpt>
      <trkpt lat="44.82803" lon="4.58921">
        <ele>472</ele>
        <time>2023-06-14T18:22:34.656Z</time>
      </trkpt>
      <trkpt lat="44.828" lon="4.58922">
        <ele>471.6</ele>
        <time>2023-06-14T18:22:36.039Z</time>
      </trkpt>
      <trkpt lat="44.82798" lon="4.58921">
        <ele>471</ele>
        <time>2023-06-14T18:22:37.003Z</time>
      </trkpt>
      <trkpt lat="44.82795" lon="4.58915">
        <ele>469.4</ele>
        <time>2023-06-14T18:22:39.410Z</time>
      </trkpt>
      <trkpt lat="44.82792" lon="4.58908">
        <ele>467</ele>
        <time>2023-06-14T18:22:42.167Z</time>
      </trkpt>
      <trkpt lat="44.82792" lon="4.58899">
        <ele>464.4</ele>
        <time>2023-06-14T18:22:45.182Z</time>
      </trkpt>
      <trkpt lat="44.82792" lon="4.58891">
        <ele>462.2</ele>
        <time>2023-06-14T18:22:47.858Z</time>
      </trkpt>
      <trkpt lat="44.82793" lon="4.58884">
        <ele>460.5</ele>
        <time>2023-06-14T18:22:50.205Z</time>
      </trkpt>
      <trkpt lat="44.82794" lon="4.58876">
        <ele>458.1</ele>
        <time>2023-06-14T18:22:52.942Z</time>
      </trkpt>
      <trkpt lat="44.82793" lon="4.58874">
        <ele>457.6</ele>
        <time>2023-06-14T18:22:53.746Z</time>
      </trkpt>
      <trkpt lat="44.82791" lon="4.58873">
        <ele>456.9</ele>
        <time>2023-06-14T18:22:54.726Z</time>
      </trkpt>
      <trkpt lat="44.82787" lon="4.58875">
        <ele>457</ele>
        <time>2023-06-14T18:22:56.608Z</time>
      </trkpt>
      <trkpt lat="44.82782" lon="4.58877">
        <ele>456.6</ele>
        <time>2023-06-14T18:22:58.931Z</time>
      </trkpt>
      <trkpt lat="44.82778" lon="4.58879">
        <ele>456.6</ele>
        <time>2023-06-14T18:23:00.815Z</time>
      </trkpt>
      <trkpt lat="44.82774" lon="4.58877">
        <ele>455.3</ele>
        <time>2023-06-14T18:23:02.782Z</time>
      </trkpt>
      <trkpt lat="44.8277" lon="4.58873">
        <ele>453.6</ele>
        <time>2023-06-14T18:23:05.068Z</time>
      </trkpt>
      <trkpt lat="44.82768" lon="4.58868">
        <ele>451.8</ele>
        <time>2023-06-14T18:23:07.008Z</time>
      </trkpt>
      <trkpt lat="44.82763" lon="4.58859">
        <ele>448.5</ele>
        <time>2023-06-14T18:23:10.840Z</time>
      </trkpt>
      <trkpt lat="44.82761" lon="4.58854">
        <ele>447.2</ele>
        <time>2023-06-14T18:23:12.732Z</time>
      </trkpt>
      <trkpt lat="44.82758" lon="4.5885">
        <ele>445.4</ele>
        <time>2023-06-14T18:23:14.708Z</time>
      </trkpt>
      <trkpt lat="44.82754" lon="4.58844">
        <ele>443.4</ele>
        <time>2023-06-14T18:23:17.424Z</time>
      </trkpt>
      <trkpt lat="44.82752" lon="4.58842">
        <ele>442.4</ele>
        <time>2023-06-14T18:23:18.590Z</time>
      </trkpt>
      <trkpt lat="44.8275" lon="4.58839">
        <ele>441.4</ele>
        <time>2023-06-14T18:23:19.949Z</time>
      </trkpt>
      <trkpt lat="44.82749" lon="4.58838">
        <ele>440.9</ele>
        <time>2023-06-14T18:23:20.519Z</time>
      </trkpt>
      <trkpt lat="44.82745" lon="4.58837">
        <ele>440.1</ele>
        <time>2023-06-14T18:23:22.356Z</time>
      </trkpt>
      <trkpt lat="44.82745" lon="4.58836">
        <ele>440.1</ele>
        <time>2023-06-14T18:23:22.669Z</time>
      </trkpt>
      <trkpt lat="44.82745" lon="4.58817">
        <ele>434.4</ele>
        <time>2023-06-14T18:23:29.091Z</time>
      </trkpt>
      <trkpt lat="44.82744" lon="4.58814">
        <ele>433.5</ele>
        <time>2023-06-14T18:23:30.189Z</time>
      </trkpt>
      <trkpt lat="44.8274" lon="4.58807">
        <ele>431</ele>
        <time>2023-06-14T18:23:33.199Z</time>
      </trkpt>
      <trkpt lat="44.82738" lon="4.58802">
        <ele>429.8</ele>
        <time>2023-06-14T18:23:35.077Z</time>
      </trkpt>
      <trkpt lat="44.82739" lon="4.58798">
        <ele>428.7</ele>
        <time>2023-06-14T18:23:36.478Z</time>
      </trkpt>
      <trkpt lat="44.82741" lon="4.58794">
        <ele>427.2</ele>
        <time>2023-06-14T18:23:38.133Z</time>
      </trkpt>
      <trkpt lat="44.82746" lon="4.5879">
        <ele>426.1</ele>
        <time>2023-06-14T18:23:40.723Z</time>
      </trkpt>
      <trkpt lat="44.82747" lon="4.58782">
        <ele>423.8</ele>
        <time>2023-06-14T18:23:43.458Z</time>
      </trkpt>
      <trkpt lat="44.82741" lon="4.58772">
        <ele>421.1</ele>
        <time>2023-06-14T18:23:47.717Z</time>
      </trkpt>
      <trkpt lat="44.82737" lon="4.58767">
        <ele>419.7</ele>
        <time>2023-06-14T18:23:50.159Z</time>
      </trkpt>
      <trkpt lat="44.82733" lon="4.58762">
        <ele>418.4</ele>
        <time>2023-06-14T18:23:52.596Z</time>
      </trkpt>
      <trkpt lat="44.82729" lon="4.58758">
        <ele>417.6</ele>
        <time>2023-06-14T18:23:54.798Z</time>
      </trkpt>
      <trkpt lat="44.82726" lon="4.58757">
        <ele>417.4</ele>
        <time>2023-06-14T18:23:56.171Z</time>
      </trkpt>
      <trkpt lat="44.82723" lon="4.58757">
        <ele>417.6</ele>
        <time>2023-06-14T18:23:57.509Z</time>
      </trkpt>
      <trkpt lat="44.8272" lon="4.58759">
        <ele>418.4</ele>
        <time>2023-06-14T18:23:59.019Z</time>
      </trkpt>
      <trkpt lat="44.82714" lon="4.58759">
        <ele>418.7</ele>
        <time>2023-06-14T18:24:01.691Z</time>
      </trkpt>
      <trkpt lat="44.8271" lon="4.58755">
        <ele>418.1</ele>
        <time>2023-06-14T18:24:03.887Z</time>
      </trkpt>
      <trkpt lat="44.82706" lon="4.58751">
        <ele>417.2</ele>
        <time>2023-06-14T18:24:06.094Z</time>
      </trkpt>
      <trkpt lat="44.82703" lon="4.58745">
        <ele>416.4</ele>
        <time>2023-06-14T18:24:08.431Z</time>
      </trkpt>
      <trkpt lat="44.82701" lon="4.58737">
        <ele>415</ele>
        <time>2023-06-14T18:24:11.164Z</time>
      </trkpt>
      <trkpt lat="44.82701" lon="4.58729">
        <ele>413.5</ele>
        <time>2023-06-14T18:24:13.757Z</time>
      </trkpt>
      <trkpt lat="44.82702" lon="4.58722">
        <ele>411.9</ele>
        <time>2023-06-14T18:24:16.099Z</time>
      </trkpt>
      <trkpt lat="44.82701" lon="4.58714">
        <ele>410.4</ele>
        <time>2023-06-14T18:24:18.725Z</time>
      </trkpt>
      <trkpt lat="44.82701" lon="4.58707">
        <ele>409.2</ele>
        <time>2023-06-14T18:24:20.991Z</time>
      </trkpt>
      <trkpt lat="44.82701" lon="4.587">
        <ele>407.7</ele>
        <time>2023-06-14T18:24:23.279Z</time>
      </trkpt>
      <trkpt lat="44.82706" lon="4.58689">
        <ele>405.4</ele>
        <time>2023-06-14T18:24:27.501Z</time>
      </trkpt>
      <trkpt lat="44.82715" lon="4.58674">
        <ele>401.9</ele>
        <time>2023-06-14T18:24:33.851Z</time>
      </trkpt>
      <trkpt lat="44.82721" lon="4.58667">
        <ele>400.4</ele>
        <time>2023-06-14T18:24:37.369Z</time>
      </trkpt>
      <trkpt lat="44.82723" lon="4.58665">
        <ele>400.1</ele>
        <time>2023-06-14T18:24:38.463Z</time>
      </trkpt>
      <trkpt lat="44.8273" lon="4.58666">
        <ele>399.9</ele>
        <time>2023-06-14T18:24:41.589Z</time>
      </trkpt>
      <trkpt lat="44.82734" lon="4.58668">
        <ele>400</ele>
        <time>2023-06-14T18:24:43.479Z</time>
      </trkpt>
      <trkpt lat="44.82738" lon="4.58672">
        <ele>400.5</ele>
        <time>2023-06-14T18:24:45.674Z</time>
      </trkpt>
      <trkpt lat="44.82741" lon="4.58676">
        <ele>401.1</ele>
        <time>2023-06-14T18:24:47.522Z</time>
      </trkpt>
      <trkpt lat="44.8275" lon="4.58685">
        <ele>402.3</ele>
        <time>2023-06-14T18:24:52.448Z</time>
      </trkpt>
      <trkpt lat="44.82755" lon="4.58688">
        <ele>404.2</ele>
        <time>2023-06-14T18:24:54.993Z</time>
      </trkpt>
      <trkpt lat="44.82758" lon="4.5869">
        <ele>405.5</ele>
        <time>2023-06-14T18:24:56.555Z</time>
      </trkpt>
      <trkpt lat="44.82759" lon="4.58688">
        <ele>405.3</ele>
        <time>2023-06-14T18:24:57.325Z</time>
      </trkpt>
      <trkpt lat="44.8276" lon="4.58686">
        <ele>405.4</ele>
        <time>2023-06-14T18:24:58.097Z</time>
      </trkpt>
      <trkpt lat="44.82761" lon="4.58681">
        <ele>404.8</ele>
        <time>2023-06-14T18:24:59.757Z</time>
      </trkpt>
      <trkpt lat="44.82764" lon="4.58676">
        <ele>404.7</ele>
        <time>2023-06-14T18:25:01.822Z</time>
      </trkpt>
      <trkpt lat="44.82763" lon="4.58672">
        <ele>403.8</ele>
        <time>2023-06-14T18:25:03.211Z</time>
      </trkpt>
      <trkpt lat="44.82761" lon="4.58658">
        <ele>402.2</ele>
        <time>2023-06-14T18:25:07.763Z</time>
      </trkpt>
      <trkpt lat="44.8276" lon="4.58651">
        <ele>401.8</ele>
        <time>2023-06-14T18:25:10.018Z</time>
      </trkpt>
      <trkpt lat="44.82756" lon="4.58637">
        <ele>400.5</ele>
        <time>2023-06-14T18:25:14.809Z</time>
      </trkpt>
      <trkpt lat="44.82754" lon="4.5862">
        <ele>399.7</ele>
        <time>2023-06-14T18:25:20.252Z</time>
      </trkpt>
      <trkpt lat="44.82753" lon="4.58614">
        <ele>399.2</ele>
        <time>2023-06-14T18:25:22.206Z</time>
      </trkpt>
      <trkpt lat="44.82752" lon="4.58608">
        <ele>398.9</ele>
        <time>2023-06-14T18:25:24.154Z</time>
      </trkpt>
      <trkpt lat="44.82755" lon="4.58608">
        <ele>399.9</ele>
        <time>2023-06-14T18:25:25.544Z</time>
      </trkpt>
      <trkpt lat="44.82761" lon="4.5861">
        <ele>401.6</ele>
        <time>2023-06-14T18:25:28.377Z</time>
      </trkpt>
      <trkpt lat="44.82763" lon="4.58612">
        <ele>402.3</ele>
        <time>2023-06-14T18:25:29.492Z</time>
      </trkpt>
      <trkpt lat="44.82765" lon="4.58615">
        <ele>402.9</ele>
        <time>2023-06-14T18:25:30.812Z</time>
      </trkpt>
      <trkpt lat="44.82769" lon="4.58625">
        <ele>404.3</ele>
        <time>2023-06-14T18:25:34.478Z</time>
      </trkpt>
      <trkpt lat="44.8277" lon="4.58626">
        <ele>404.6</ele>
        <time>2023-06-14T18:25:35.033Z</time>
      </trkpt>
      <trkpt lat="44.82772" lon="4.58626">
        <ele>405.1</ele>
        <time>2023-06-14T18:25:35.958Z</time>
      </trkpt>
      <trkpt lat="44.82774" lon="4.58623">
        <ele>405.7</ele>
        <time>2023-06-14T18:25:37.273Z</time>
      </trkpt>
      <trkpt lat="44.82774" lon="4.58619">
        <ele>405.6</ele>
        <time>2023-06-14T18:25:38.537Z</time>
      </trkpt>
      <trkpt lat="44.82771" lon="4.58608">
        <ele>404.6</ele>
        <time>2023-06-14T18:25:42.275Z</time>
      </trkpt>
      <trkpt lat="44.8277" lon="4.58601">
        <ele>404.3</ele>
        <time>2023-06-14T18:25:44.536Z</time>
      </trkpt>
      <trkpt lat="44.82769" lon="4.58594">
        <ele>403.9</ele>
        <time>2023-06-14T18:25:46.788Z</time>
      </trkpt>
      <trkpt lat="44.82768" lon="4.58582">
        <ele>403.5</ele>
        <time>2023-06-14T18:25:50.603Z</time>
      </trkpt>
      <trkpt lat="44.82765" lon="4.58575">
        <ele>402.6</ele>
        <time>2023-06-14T18:25:53.207Z</time>
      </trkpt>
      <trkpt lat="44.8276" lon="4.58561">
        <ele>401.3</ele>
        <time>2023-06-14T18:25:58.177Z</time>
      </trkpt>
      <trkpt lat="44.82756" lon="4.58553">
        <ele>400.3</ele>
        <time>2023-06-14T18:26:01.293Z</time>
      </trkpt>
      <trkpt lat="44.82753" lon="4.58546">
        <ele>399.3</ele>
        <time>2023-06-14T18:26:03.901Z</time>
      </trkpt>
      <trkpt lat="44.82751" lon="4.58539">
        <ele>398.8</ele>
        <time>2023-06-14T18:26:06.286Z</time>
      </trkpt>
      <trkpt lat="44.82748" lon="4.58534">
        <ele>398.1</ele>
        <time>2023-06-14T18:26:08.373Z</time>
      </trkpt>
      <trkpt lat="44.82744" lon="4.5853">
        <ele>397</ele>
        <time>2023-06-14T18:26:10.593Z</time>
      </trkpt>
      <trkpt lat="44.82739" lon="4.58525">
        <ele>395.5</ele>
        <time>2023-06-14T18:26:13.391Z</time>
      </trkpt>
      <trkpt lat="44.82734" lon="4.58519">
        <ele>393.8</ele>
        <time>2023-06-14T18:26:16.381Z</time>
      </trkpt>
      <trkpt lat="44.82729" lon="4.58513">
        <ele>392.1</ele>
        <time>2023-06-14T18:26:19.382Z</time>
      </trkpt>
      <trkpt lat="44.82725" lon="4.58511">
        <ele>390.6</ele>
        <time>2023-06-14T18:26:21.368Z</time>
      </trkpt>
      <trkpt lat="44.82722" lon="4.5851">
        <ele>389.5</ele>
        <time>2023-06-14T18:26:22.803Z</time>
      </trkpt>
      <trkpt lat="44.82718" lon="4.5851">
        <ele>388.2</ele>
        <time>2023-06-14T18:26:24.653Z</time>
      </trkpt>
      <trkpt lat="44.82718" lon="4.58509">
        <ele>388.2</ele>
        <time>2023-06-14T18:26:24.970Z</time>
      </trkpt>
      <trkpt lat="44.82718" lon="4.58508">
        <ele>388.1</ele>
        <time>2023-06-14T18:26:25.284Z</time>
      </trkpt>
      <trkpt lat="44.82718" lon="4.58508">
        <ele>388.1</ele>
        <time>2023-06-14T18:26:25.284Z</time>
      </trkpt>
      <trkpt lat="44.82718" lon="4.58509">
        <ele>388.2</ele>
        <time>2023-06-14T18:26:25.598Z</time>
      </trkpt>
      <trkpt lat="44.82715" lon="4.58509">
        <ele>387.2</ele>
        <time>2023-06-14T18:26:26.988Z</time>
      </trkpt>
      <trkpt lat="44.82701" lon="4.58511">
        <ele>382.7</ele>
        <time>2023-06-14T18:26:33.509Z</time>
      </trkpt>
      <trkpt lat="44.82697" lon="4.58512">
        <ele>381.5</ele>
        <time>2023-06-14T18:26:35.376Z</time>
      </trkpt>
      <trkpt lat="44.82687" lon="4.58515">
        <ele>378.7</ele>
        <time>2023-06-14T18:26:40.059Z</time>
      </trkpt>
      <trkpt lat="44.82677" lon="4.58516">
        <ele>375.7</ele>
        <time>2023-06-14T18:26:44.671Z</time>
      </trkpt>
      <trkpt lat="44.82671" lon="4.58516">
        <ele>373.8</ele>
        <time>2023-06-14T18:26:47.440Z</time>
      </trkpt>
      <trkpt lat="44.82661" lon="4.58517">
        <ele>372</ele>
        <time>2023-06-14T18:26:51.961Z</time>
      </trkpt>
      <trkpt lat="44.82655" lon="4.58517">
        <ele>371.2</ele>
        <time>2023-06-14T18:26:54.647Z</time>
      </trkpt>
      <trkpt lat="44.82648" lon="4.58518">
        <ele>370.4</ele>
        <time>2023-06-14T18:26:57.790Z</time>
      </trkpt>
      <trkpt lat="44.82635" lon="4.58519">
        <ele>369.1</ele>
        <time>2023-06-14T18:27:03.604Z</time>
      </trkpt>
      <trkpt lat="44.82628" lon="4.58518">
        <ele>368</ele>
        <time>2023-06-14T18:27:06.765Z</time>
      </trkpt>
      <trkpt lat="44.82622" lon="4.58518">
        <ele>367.2</ele>
        <time>2023-06-14T18:27:09.450Z</time>
      </trkpt>
      <trkpt lat="44.82616" lon="4.58518">
        <ele>366.5</ele>
        <time>2023-06-14T18:27:12.134Z</time>
      </trkpt>
      <trkpt lat="44.82603" lon="4.58518">
        <ele>364.9</ele>
        <time>2023-06-14T18:27:17.947Z</time>
      </trkpt>
      <trkpt lat="44.82586" lon="4.5852">
        <ele>363.6</ele>
        <time>2023-06-14T18:27:25.556Z</time>
      </trkpt>
      <trkpt lat="44.82581" lon="4.58523">
        <ele>363.7</ele>
        <time>2023-06-14T18:27:27.971Z</time>
      </trkpt>
      <trkpt lat="44.82576" lon="4.58527">
        <ele>363.8</ele>
        <time>2023-06-14T18:27:30.527Z</time>
      </trkpt>
      <trkpt lat="44.82571" lon="4.58531">
        <ele>363.7</ele>
        <time>2023-06-14T18:27:33.083Z</time>
      </trkpt>
      <trkpt lat="44.82568" lon="4.58536">
        <ele>364.6</ele>
        <time>2023-06-14T18:27:35.173Z</time>
      </trkpt>
      <trkpt lat="44.82564" lon="4.58541">
        <ele>365.1</ele>
        <time>2023-06-14T18:27:37.560Z</time>
      </trkpt>
      <trkpt lat="44.82558" lon="4.58552">
        <ele>366.6</ele>
        <time>2023-06-14T18:27:41.983Z</time>
      </trkpt>
      <trkpt lat="44.82551" lon="4.58566">
        <ele>368.1</ele>
        <time>2023-06-14T18:27:47.413Z</time>
      </trkpt>
      <trkpt lat="44.82547" lon="4.58581">
        <ele>370.8</ele>
        <time>2023-06-14T18:27:52.584Z</time>
      </trkpt>
      <trkpt lat="44.82546" lon="4.58587">
        <ele>371.5</ele>
        <time>2023-06-14T18:27:54.552Z</time>
      </trkpt>
      <trkpt lat="44.82545" lon="4.58594">
        <ele>372.5</ele>
        <time>2023-06-14T18:27:56.838Z</time>
      </trkpt>
      <trkpt lat="44.82543" lon="4.58604">
        <ele>373.4</ele>
        <time>2023-06-14T18:28:00.132Z</time>
      </trkpt>
      <trkpt lat="44.82541" lon="4.58611">
        <ele>373.7</ele>
        <time>2023-06-14T18:28:02.518Z</time>
      </trkpt>
      <trkpt lat="44.82536" lon="4.58627">
        <ele>374.3</ele>
        <time>2023-06-14T18:28:08.035Z</time>
      </trkpt>
      <trkpt lat="44.82535" lon="4.58634">
        <ele>375.1</ele>
        <time>2023-06-14T18:28:10.315Z</time>
      </trkpt>
      <trkpt lat="44.82534" lon="4.58641">
        <ele>375.7</ele>
        <time>2023-06-14T18:28:12.577Z</time>
      </trkpt>
      <trkpt lat="44.82534" lon="4.58647">
        <ele>376.7</ele>
        <time>2023-06-14T18:28:14.512Z</time>
      </trkpt>
      <trkpt lat="44.82534" lon="4.5866">
        <ele>378.8</ele>
        <time>2023-06-14T18:28:18.694Z</time>
      </trkpt>
      <trkpt lat="44.82533" lon="4.58667">
        <ele>379.3</ele>
        <time>2023-06-14T18:28:20.956Z</time>
      </trkpt>
      <trkpt lat="44.82532" lon="4.58673">
        <ele>379</ele>
        <time>2023-06-14T18:28:22.904Z</time>
      </trkpt>
      <trkpt lat="44.82529" lon="4.58685">
        <ele>377.8</ele>
        <time>2023-06-14T18:28:26.947Z</time>
      </trkpt>
      <trkpt lat="44.82528" lon="4.58688">
        <ele>377.4</ele>
        <time>2023-06-14T18:28:28.002Z</time>
      </trkpt>
      <trkpt lat="44.82526" lon="4.58689">
        <ele>376.6</ele>
        <time>2023-06-14T18:28:29.009Z</time>
      </trkpt>
      <trkpt lat="44.82527" lon="4.58689">
        <ele>377</ele>
        <time>2023-06-14T18:28:29.489Z</time>
      </trkpt>
      <trkpt lat="44.82527" lon="4.58689">
        <ele>377</ele>
        <time>2023-06-14T18:28:29.489Z</time>
      </trkpt>
      <trkpt lat="44.82526" lon="4.58688">
        <ele>376.6</ele>
        <time>2023-06-14T18:28:30.067Z</time>
      </trkpt>
      <trkpt lat="44.82527" lon="4.58688">
        <ele>377</ele>
        <time>2023-06-14T18:28:30.546Z</time>
      </trkpt>
      <trkpt lat="44.82527" lon="4.58688">
        <ele>377</ele>
        <time>2023-06-14T18:28:30.546Z</time>
      </trkpt>
      <trkpt lat="44.82526" lon="4.58688">
        <ele>376.6</ele>
        <time>2023-06-14T18:28:31.026Z</time>
      </trkpt>
      <trkpt lat="44.82527" lon="4.58687">
        <ele>377</ele>
        <time>2023-06-14T18:28:31.599Z</time>
      </trkpt>
      <trkpt lat="44.82527" lon="4.58687">
        <ele>377</ele>
        <time>2023-06-14T18:28:31.599Z</time>
      </trkpt>
      <trkpt lat="44.82527" lon="4.58687">
        <ele>377</ele>
        <time>2023-06-14T18:28:31.599Z</time>
      </trkpt>
      <trkpt lat="44.82527" lon="4.58687">
        <ele>377</ele>
        <time>2023-06-14T18:28:31.599Z</time>
      </trkpt>
      <trkpt lat="44.82527" lon="4.58687">
        <ele>377</ele>
        <time>2023-06-14T18:28:31.599Z</time>
      </trkpt>
      <trkpt lat="44.82527" lon="4.58687">
        <ele>377</ele>
        <time>2023-06-14T18:28:31.599Z</time>
      </trkpt>
      <trkpt lat="44.82527" lon="4.58687">
        <ele>377</ele>
        <time>2023-06-14T18:28:31.599Z</time>
      </trkpt>
      <trkpt lat="44.82527" lon="4.58687">
        <ele>377</ele>
        <time>2023-06-14T18:28:31.599Z</time>
      </trkpt>
      <trkpt lat="44.82527" lon="4.58687">
        <ele>377</ele>
        <time>2023-06-14T18:28:31.599Z</time>
      </trkpt>
      <trkpt lat="44.82526" lon="4.58691">
        <ele>376.6</ele>
        <time>2023-06-14T18:28:32.948Z</time>
      </trkpt>
      <trkpt lat="44.82526" lon="4.58693">
        <ele>376.6</ele>
        <time>2023-06-14T18:28:33.577Z</time>
      </trkpt>
      <trkpt lat="44.82526" lon="4.58694">
        <ele>376.7</ele>
        <time>2023-06-14T18:28:33.894Z</time>
      </trkpt>
      <trkpt lat="44.82526" lon="4.58699">
        <ele>376.7</ele>
        <time>2023-06-14T18:28:35.470Z</time>
      </trkpt>
      <trkpt lat="44.82527" lon="4.58702">
        <ele>377.2</ele>
        <time>2023-06-14T18:28:36.536Z</time>
      </trkpt>
      <trkpt lat="44.82527" lon="4.58707">
        <ele>377.3</ele>
        <time>2023-06-14T18:28:38.112Z</time>
      </trkpt>
      <trkpt lat="44.82528" lon="4.58708">
        <ele>377.7</ele>
        <time>2023-06-14T18:28:38.689Z</time>
      </trkpt>
      <trkpt lat="44.82528" lon="4.58712">
        <ele>377.8</ele>
        <time>2023-06-14T18:28:39.952Z</time>
      </trkpt>
      <trkpt lat="44.82528" lon="4.58716">
        <ele>377.9</ele>
        <time>2023-06-14T18:28:41.212Z</time>
      </trkpt>
      <trkpt lat="44.82528" lon="4.58721">
        <ele>378</ele>
        <time>2023-06-14T18:28:42.792Z</time>
      </trkpt>
      <trkpt lat="44.82528" lon="4.58723">
        <ele>378</ele>
        <time>2023-06-14T18:28:43.422Z</time>
      </trkpt>
      <trkpt lat="44.82528" lon="4.58724">
        <ele>378</ele>
        <time>2023-06-14T18:28:43.734Z</time>
      </trkpt>
      <trkpt lat="44.82528" lon="4.58731">
        <ele>378.1</ele>
        <time>2023-06-14T18:28:45.945Z</time>
      </trkpt>
      <trkpt lat="44.82528" lon="4.58745">
        <ele>378.4</ele>
        <time>2023-06-14T18:28:50.361Z</time>
      </trkpt>
      <trkpt lat="44.8253" lon="4.58753">
        <ele>379</ele>
        <time>2023-06-14T18:28:53.047Z</time>
      </trkpt>
      <trkpt lat="44.8253" lon="4.58756">
        <ele>378.6</ele>
        <time>2023-06-14T18:28:54.006Z</time>
      </trkpt>
      <trkpt lat="44.82531" lon="4.58757">
        <ele>379</ele>
        <time>2023-06-14T18:28:54.582Z</time>
      </trkpt>
      <trkpt lat="44.82532" lon="4.58759">
        <ele>379.1</ele>
        <time>2023-06-14T18:28:55.351Z</time>
      </trkpt>
      <trkpt lat="44.82539" lon="4.58764">
        <ele>382</ele>
        <time>2023-06-14T18:28:59.027Z</time>
      </trkpt>
      <trkpt lat="44.82544" lon="4.58767">
        <ele>383.9</ele>
        <time>2023-06-14T18:29:01.565Z</time>
      </trkpt>
      <trkpt lat="44.82545" lon="4.5877">
        <ele>384.3</ele>
        <time>2023-06-14T18:29:02.617Z</time>
      </trkpt>
      <trkpt lat="44.82546" lon="4.58772">
        <ele>384.4</ele>
        <time>2023-06-14T18:29:03.391Z</time>
      </trkpt>
      <trkpt lat="44.82546" lon="4.58778">
        <ele>383.8</ele>
        <time>2023-06-14T18:29:05.302Z</time>
      </trkpt>
      <trkpt lat="44.82548" lon="4.58783">
        <ele>384.2</ele>
        <time>2023-06-14T18:29:07.120Z</time>
      </trkpt>
      <trkpt lat="44.82557" lon="4.58808">
        <ele>386.3</ele>
        <time>2023-06-14T18:29:16.001Z</time>
      </trkpt>
      <trkpt lat="44.82558" lon="4.58812">
        <ele>386.5</ele>
        <time>2023-06-14T18:29:17.340Z</time>
      </trkpt>
      <trkpt lat="44.82565" lon="4.58825">
        <ele>389.5</ele>
        <time>2023-06-14T18:29:22.627Z</time>
      </trkpt>
      <trkpt lat="44.82569" lon="4.58841">
        <ele>389.7</ele>
        <time>2023-06-14T18:29:27.980Z</time>
      </trkpt>
      <trkpt lat="44.82571" lon="4.58849">
        <ele>389.6</ele>
        <time>2023-06-14T18:29:30.656Z</time>
      </trkpt>
      <trkpt lat="44.82573" lon="4.58854">
        <ele>390.2</ele>
        <time>2023-06-14T18:29:32.478Z</time>
      </trkpt>
      <trkpt lat="44.82574" lon="4.5886">
        <ele>389.9</ele>
        <time>2023-06-14T18:29:34.426Z</time>
      </trkpt>
      <trkpt lat="44.82576" lon="4.58869">
        <ele>389.6</ele>
        <time>2023-06-14T18:29:37.403Z</time>
      </trkpt>
      <trkpt lat="44.82577" lon="4.5887">
        <ele>390</ele>
        <time>2023-06-14T18:29:37.974Z</time>
      </trkpt>
      <trkpt lat="44.8258" lon="4.58873">
        <ele>391.4</ele>
        <time>2023-06-14T18:29:39.703Z</time>
      </trkpt>
      <trkpt lat="44.8258" lon="4.58873">
        <ele>391.4</ele>
        <time>2023-06-14T18:29:39.703Z</time>
      </trkpt>
      <trkpt lat="44.82581" lon="4.58872">
        <ele>392.2</ele>
        <time>2023-06-14T18:29:40.340Z</time>
      </trkpt>
      <trkpt lat="44.82582" lon="4.58873">
        <ele>392.6</ele>
        <time>2023-06-14T18:29:40.911Z</time>
      </trkpt>
      <trkpt lat="44.82583" lon="4.58873">
        <ele>393.2</ele>
        <time>2023-06-14T18:29:41.415Z</time>
      </trkpt>
      <trkpt lat="44.82586" lon="4.5887">
        <ele>395.1</ele>
        <time>2023-06-14T18:29:43.207Z</time>
      </trkpt>
      <trkpt lat="44.82588" lon="4.58857">
        <ele>398.1</ele>
        <time>2023-06-14T18:29:47.583Z</time>
      </trkpt>
      <trkpt lat="44.82585" lon="4.58848">
        <ele>398.3</ele>
        <time>2023-06-14T18:29:50.720Z</time>
      </trkpt>
      <trkpt lat="44.82585" lon="4.58844">
        <ele>398.9</ele>
        <time>2023-06-14T18:29:52.004Z</time>
      </trkpt>
      <trkpt lat="44.82584" lon="4.58842">
        <ele>398.9</ele>
        <time>2023-06-14T18:29:52.780Z</time>
      </trkpt>
      <trkpt lat="44.82583" lon="4.58831">
        <ele>400</ele>
        <time>2023-06-14T18:29:56.301Z</time>
      </trkpt>
      <trkpt lat="44.82583" lon="4.58829">
        <ele>400.1</ele>
        <time>2023-06-14T18:29:56.934Z</time>
      </trkpt>
      <trkpt lat="44.82581" lon="4.58822">
        <ele>399.3</ele>
        <time>2023-06-14T18:29:59.337Z</time>
      </trkpt>
      <trkpt lat="44.8258" lon="4.58816">
        <ele>399.2</ele>
        <time>2023-06-14T18:30:01.282Z</time>
      </trkpt>
      <trkpt lat="44.8258" lon="4.58815">
        <ele>399.2</ele>
        <time>2023-06-14T18:30:01.594Z</time>
      </trkpt>
      <trkpt lat="44.82577" lon="4.58808">
        <ele>398</ele>
        <time>2023-06-14T18:30:04.218Z</time>
      </trkpt>
      <trkpt lat="44.82577" lon="4.58806">
        <ele>398.1</ele>
        <time>2023-06-14T18:30:04.848Z</time>
      </trkpt>
      <trkpt lat="44.82576" lon="4.588">
        <ele>398</ele>
        <time>2023-06-14T18:30:06.793Z</time>
      </trkpt>
      <trkpt lat="44.82575" lon="4.58799">
        <ele>397.5</ele>
        <time>2023-06-14T18:30:07.371Z</time>
      </trkpt>
      <trkpt lat="44.82575" lon="4.58797">
        <ele>397.6</ele>
        <time>2023-06-14T18:30:08.002Z</time>
      </trkpt>
      <trkpt lat="44.82574" lon="4.58794">
        <ele>397.4</ele>
        <time>2023-06-14T18:30:09.050Z</time>
      </trkpt>
      <trkpt lat="44.8257" lon="4.58778">
        <ele>396.3</ele>
        <time>2023-06-14T18:30:14.416Z</time>
      </trkpt>
      <trkpt lat="44.82566" lon="4.58764">
        <ele>395.5</ele>
        <time>2023-06-14T18:30:19.187Z</time>
      </trkpt>
      <trkpt lat="44.82561" lon="4.58749">
        <ele>394.3</ele>
        <time>2023-06-14T18:30:24.438Z</time>
      </trkpt>
      <trkpt lat="44.82559" lon="4.58744">
        <ele>393.2</ele>
        <time>2023-06-14T18:30:26.300Z</time>
      </trkpt>
      <trkpt lat="44.82558" lon="4.58743">
        <ele>392.6</ele>
        <time>2023-06-14T18:30:26.909Z</time>
      </trkpt>
      <trkpt lat="44.82558" lon="4.58742">
        <ele>392.6</ele>
        <time>2023-06-14T18:30:27.226Z</time>
      </trkpt>
      <trkpt lat="44.82546" lon="4.58717">
        <ele>386.3</ele>
        <time>2023-06-14T18:30:37.071Z</time>
      </trkpt>
      <trkpt lat="44.82546" lon="4.58717">
        <ele>386.3</ele>
        <time>2023-06-14T18:30:37.071Z</time>
      </trkpt>
      <trkpt lat="44.82546" lon="4.58718">
        <ele>386.3</ele>
        <time>2023-06-14T18:30:37.388Z</time>
      </trkpt>
      <trkpt lat="44.82546" lon="4.58717">
        <ele>386.3</ele>
        <time>2023-06-14T18:30:37.706Z</time>
      </trkpt>
      <trkpt lat="44.82545" lon="4.58714">
        <ele>385.8</ele>
        <time>2023-06-14T18:30:38.769Z</time>
      </trkpt>
      <trkpt lat="44.82545" lon="4.58709">
        <ele>385.6</ele>
        <time>2023-06-14T18:30:40.346Z</time>
      </trkpt>
      <trkpt lat="44.82545" lon="4.58699">
        <ele>385.4</ele>
        <time>2023-06-14T18:30:43.504Z</time>
      </trkpt>
      <trkpt lat="44.82546" lon="4.58691">
        <ele>385.6</ele>
        <time>2023-06-14T18:30:46.066Z</time>
      </trkpt>
      <trkpt lat="44.82546" lon="4.58687">
        <ele>385.5</ele>
        <time>2023-06-14T18:30:47.330Z</time>
      </trkpt>
      <trkpt lat="44.82546" lon="4.58675">
        <ele>385.2</ele>
        <time>2023-06-14T18:30:51.112Z</time>
      </trkpt>
      <trkpt lat="44.82545" lon="4.5866">
        <ele>383.5</ele>
        <time>2023-06-14T18:30:55.913Z</time>
      </trkpt>
      <trkpt lat="44.82545" lon="4.58653">
        <ele>382.2</ele>
        <time>2023-06-14T18:30:58.183Z</time>
      </trkpt>
      <trkpt lat="44.82544" lon="4.58637">
        <ele>379.1</ele>
        <time>2023-06-14T18:31:03.397Z</time>
      </trkpt>
      <trkpt lat="44.82543" lon="4.58629">
        <ele>377.4</ele>
        <time>2023-06-14T18:31:06.050Z</time>
      </trkpt>
      <trkpt lat="44.82543" lon="4.58622">
        <ele>376.1</ele>
        <time>2023-06-14T18:31:08.313Z</time>
      </trkpt>
      <trkpt lat="44.82543" lon="4.58613">
        <ele>374.6</ele>
        <time>2023-06-14T18:31:11.214Z</time>
      </trkpt>
      <trkpt lat="44.82543" lon="4.58611">
        <ele>374.4</ele>
        <time>2023-06-14T18:31:11.849Z</time>
      </trkpt>
      <trkpt lat="44.82541" lon="4.58607">
        <ele>373.1</ele>
        <time>2023-06-14T18:31:13.486Z</time>
      </trkpt>
      <trkpt lat="44.8254" lon="4.58607">
        <ele>372.7</ele>
        <time>2023-06-14T18:31:13.956Z</time>
      </trkpt>
      <trkpt lat="44.82539" lon="4.58608">
        <ele>372.5</ele>
        <time>2023-06-14T18:31:14.501Z</time>
      </trkpt>
      <trkpt lat="44.82535" lon="4.58622">
        <ele>373.1</ele>
        <time>2023-06-14T18:31:19.268Z</time>
      </trkpt>
      <trkpt lat="44.82534" lon="4.58637">
        <ele>375.1</ele>
        <time>2023-06-14T18:31:24.090Z</time>
      </trkpt>
      <trkpt lat="44.82534" lon="4.58644">
        <ele>376.1</ele>
        <time>2023-06-14T18:31:26.332Z</time>
      </trkpt>
      <trkpt lat="44.82535" lon="4.58658">
        <ele>378.8</ele>
        <time>2023-06-14T18:31:30.890Z</time>
      </trkpt>
      <trkpt lat="44.82533" lon="4.5867">
        <ele>379.4</ele>
        <time>2023-06-14T18:31:34.786Z</time>
      </trkpt>
      <trkpt lat="44.82531" lon="4.58676">
        <ele>378.7</ele>
        <time>2023-06-14T18:31:36.897Z</time>
      </trkpt>
      <trkpt lat="44.8253" lon="4.58682">
        <ele>378.2</ele>
        <time>2023-06-14T18:31:38.851Z</time>
      </trkpt>
      <trkpt lat="44.82528" lon="4.58686">
        <ele>377.4</ele>
        <time>2023-06-14T18:31:40.426Z</time>
      </trkpt>
      <trkpt lat="44.82526" lon="4.58687">
        <ele>376.5</ele>
        <time>2023-06-14T18:31:41.435Z</time>
      </trkpt>
      <trkpt lat="44.82524" lon="4.58685">
        <ele>375.7</ele>
        <time>2023-06-14T18:31:42.579Z</time>
      </trkpt>
      <trkpt lat="44.82524" lon="4.58678">
        <ele>375.6</ele>
        <time>2023-06-14T18:31:44.789Z</time>
      </trkpt>
      <trkpt lat="44.82525" lon="4.58667">
        <ele>375.8</ele>
        <time>2023-06-14T18:31:48.288Z</time>
      </trkpt>
      <trkpt lat="44.82524" lon="4.58663">
        <ele>374.8</ele>
        <time>2023-06-14T18:31:49.680Z</time>
      </trkpt>
      <trkpt lat="44.82522" lon="4.58652">
        <ele>372.3</ele>
        <time>2023-06-14T18:31:53.398Z</time>
      </trkpt>
      <trkpt lat="44.82521" lon="4.58648">
        <ele>371.4</ele>
        <time>2023-06-14T18:31:54.792Z</time>
      </trkpt>
      <trkpt lat="44.82521" lon="4.58644">
        <ele>370.8</ele>
        <time>2023-06-14T18:31:56.074Z</time>
      </trkpt>
      <trkpt lat="44.82519" lon="4.58627">
        <ele>367.7</ele>
        <time>2023-06-14T18:32:01.653Z</time>
      </trkpt>
      <trkpt lat="44.82518" lon="4.5862">
        <ele>366.4</ele>
        <time>2023-06-14T18:32:03.960Z</time>
      </trkpt>
      <trkpt lat="44.82515" lon="4.58612">
        <ele>364.1</ele>
        <time>2023-06-14T18:32:06.964Z</time>
      </trkpt>
      <trkpt lat="44.82515" lon="4.58607">
        <ele>363.4</ele>
        <time>2023-06-14T18:32:08.566Z</time>
      </trkpt>
      <trkpt lat="44.82515" lon="4.586">
        <ele>362.3</ele>
        <time>2023-06-14T18:32:10.810Z</time>
      </trkpt>
      <trkpt lat="44.82516" lon="4.58593">
        <ele>361.8</ele>
        <time>2023-06-14T18:32:13.076Z</time>
      </trkpt>
      <trkpt lat="44.82521" lon="4.5857">
        <ele>359.5</ele>
        <time>2023-06-14T18:32:20.716Z</time>
      </trkpt>
      <trkpt lat="44.82522" lon="4.58559">
        <ele>357.7</ele>
        <time>2023-06-14T18:32:24.284Z</time>
      </trkpt>
      <trkpt lat="44.82523" lon="4.58554">
        <ele>357</ele>
        <time>2023-06-14T18:32:25.948Z</time>
      </trkpt>
      <trkpt lat="44.82523" lon="4.58532">
        <ele>352.5</ele>
        <time>2023-06-14T18:32:33.118Z</time>
      </trkpt>
      <trkpt lat="44.8252" lon="4.58503">
        <ele>346.1</ele>
        <time>2023-06-14T18:32:42.704Z</time>
      </trkpt>
      <trkpt lat="44.8252" lon="4.58498">
        <ele>345.3</ele>
        <time>2023-06-14T18:32:44.315Z</time>
      </trkpt>
      <trkpt lat="44.82519" lon="4.58493">
        <ele>344.5</ele>
        <time>2023-06-14T18:32:45.985Z</time>
      </trkpt>
      <trkpt lat="44.82514" lon="4.58473">
        <ele>340.9</ele>
        <time>2023-06-14T18:32:52.824Z</time>
      </trkpt>
      <trkpt lat="44.82512" lon="4.58461">
        <ele>338.9</ele>
        <time>2023-06-14T18:32:56.790Z</time>
      </trkpt>
      <trkpt lat="44.82514" lon="4.58437">
        <ele>336.1</ele>
        <time>2023-06-14T18:33:04.498Z</time>
      </trkpt>
      <trkpt lat="44.82516" lon="4.58432">
        <ele>335.9</ele>
        <time>2023-06-14T18:33:06.312Z</time>
      </trkpt>
      <trkpt lat="44.82526" lon="4.58424">
        <ele>337.4</ele>
        <time>2023-06-14T18:33:11.455Z</time>
      </trkpt>
      <trkpt lat="44.8253" lon="4.58422">
        <ele>338.2</ele>
        <time>2023-06-14T18:33:13.373Z</time>
      </trkpt>
      <trkpt lat="44.82554" lon="4.58416">
        <ele>343.7</ele>
        <time>2023-06-14T18:33:24.436Z</time>
      </trkpt>
      <trkpt lat="44.82557" lon="4.58414">
        <ele>344.5</ele>
        <time>2023-06-14T18:33:25.950Z</time>
      </trkpt>
      <trkpt lat="44.82561" lon="4.58411">
        <ele>345.9</ele>
        <time>2023-06-14T18:33:28.033Z</time>
      </trkpt>
      <trkpt lat="44.82565" lon="4.58408">
        <ele>347.1</ele>
        <time>2023-06-14T18:33:30.109Z</time>
      </trkpt>
      <trkpt lat="44.82569" lon="4.58399">
        <ele>348.9</ele>
        <time>2023-06-14T18:33:33.533Z</time>
      </trkpt>
      <trkpt lat="44.82569" lon="4.58387">
        <ele>349.9</ele>
        <time>2023-06-14T18:33:37.334Z</time>
      </trkpt>
      <trkpt lat="44.82568" lon="4.58381">
        <ele>350.1</ele>
        <time>2023-06-14T18:33:39.279Z</time>
      </trkpt>
      <trkpt lat="44.82565" lon="4.58375">
        <ele>349.6</ele>
        <time>2023-06-14T18:33:41.605Z</time>
      </trkpt>
      <trkpt lat="44.82559" lon="4.58365">
        <ele>348.4</ele>
        <time>2023-06-14T18:33:45.766Z</time>
      </trkpt>
      <trkpt lat="44.82556" lon="4.58359">
        <ele>347.7</ele>
        <time>2023-06-14T18:33:48.100Z</time>
      </trkpt>
      <trkpt lat="44.82553" lon="4.58345">
        <ele>347.4</ele>
        <time>2023-06-14T18:33:52.714Z</time>
      </trkpt>
      <trkpt lat="44.82551" lon="4.58338">
        <ele>347</ele>
        <time>2023-06-14T18:33:55.094Z</time>
      </trkpt>
      <trkpt lat="44.82549" lon="4.58323">
        <ele>346.2</ele>
        <time>2023-06-14T18:33:59.921Z</time>
      </trkpt>
      <trkpt lat="44.82547" lon="4.583">
        <ele>344.9</ele>
        <time>2023-06-14T18:34:07.248Z</time>
      </trkpt>
      <trkpt lat="44.82545" lon="4.5828">
        <ele>343.7</ele>
        <time>2023-06-14T18:34:13.637Z</time>
      </trkpt>
      <trkpt lat="44.82543" lon="4.58262">
        <ele>342.3</ele>
        <time>2023-06-14T18:34:19.411Z</time>
      </trkpt>
      <trkpt lat="44.8254" lon="4.58248">
        <ele>340.8</ele>
        <time>2023-06-14T18:34:24.062Z</time>
      </trkpt>
      <trkpt lat="44.82538" lon="4.58235">
        <ele>340.1</ele>
        <time>2023-06-14T18:34:28.271Z</time>
      </trkpt>
      <trkpt lat="44.82535" lon="4.58225">
        <ele>339</ele>
        <time>2023-06-14T18:34:31.720Z</time>
      </trkpt>
      <trkpt lat="44.82534" lon="4.58219">
        <ele>338.7</ele>
        <time>2023-06-14T18:34:33.668Z</time>
      </trkpt>
      <trkpt lat="44.82531" lon="4.58204">
        <ele>337.8</ele>
        <time>2023-06-14T18:34:38.597Z</time>
      </trkpt>
      <trkpt lat="44.82531" lon="4.58199">
        <ele>337.9</ele>
        <time>2023-06-14T18:34:40.173Z</time>
      </trkpt>
      <trkpt lat="44.82532" lon="4.58189">
        <ele>338.4</ele>
        <time>2023-06-14T18:34:43.366Z</time>
      </trkpt>
      <trkpt lat="44.82531" lon="4.58183">
        <ele>338.1</ele>
        <time>2023-06-14T18:34:45.306Z</time>
      </trkpt>
      <trkpt lat="44.8253" lon="4.58176">
        <ele>337.8</ele>
        <time>2023-06-14T18:34:47.565Z</time>
      </trkpt>
      <trkpt lat="44.82528" lon="4.58171">
        <ele>337.3</ele>
        <time>2023-06-14T18:34:49.385Z</time>
      </trkpt>
      <trkpt lat="44.82526" lon="4.58169">
        <ele>336.8</ele>
        <time>2023-06-14T18:34:50.502Z</time>
      </trkpt>
      <trkpt lat="44.82523" lon="4.58167">
        <ele>335.9</ele>
        <time>2023-06-14T18:34:52.016Z</time>
      </trkpt>
      <trkpt lat="44.82515" lon="4.58161">
        <ele>332.6</ele>
        <time>2023-06-14T18:34:56.259Z</time>
      </trkpt>
      <trkpt lat="44.82515" lon="4.58159">
        <ele>332.4</ele>
        <time>2023-06-14T18:34:56.891Z</time>
      </trkpt>
      <trkpt lat="44.82519" lon="4.58146">
        <ele>331.9</ele>
        <time>2023-06-14T18:35:01.369Z</time>
      </trkpt>
      <trkpt lat="44.82521" lon="4.58139">
        <ele>331.5</ele>
        <time>2023-06-14T18:35:03.753Z</time>
      </trkpt>
      <trkpt lat="44.82524" lon="4.58132">
        <ele>331.5</ele>
        <time>2023-06-14T18:35:06.335Z</time>
      </trkpt>
      <trkpt lat="44.82528" lon="4.58119">
        <ele>331</ele>
        <time>2023-06-14T18:35:10.807Z</time>
      </trkpt>
      <trkpt lat="44.82531" lon="4.58112">
        <ele>331.2</ele>
        <time>2023-06-14T18:35:13.390Z</time>
      </trkpt>
      <trkpt lat="44.82535" lon="4.58106">
        <ele>331.7</ele>
        <time>2023-06-14T18:35:15.989Z</time>
      </trkpt>
      <trkpt lat="44.82539" lon="4.58101">
        <ele>332.3</ele>
        <time>2023-06-14T18:35:18.381Z</time>
      </trkpt>
      <trkpt lat="44.82543" lon="4.58096">
        <ele>332.9</ele>
        <time>2023-06-14T18:35:20.766Z</time>
      </trkpt>
      <trkpt lat="44.82549" lon="4.58087">
        <ele>333.8</ele>
        <time>2023-06-14T18:35:24.681Z</time>
      </trkpt>
      <trkpt lat="44.82552" lon="4.58078">
        <ele>332.7</ele>
        <time>2023-06-14T18:35:27.851Z</time>
      </trkpt>
      <trkpt lat="44.82552" lon="4.58074">
        <ele>330.9</ele>
        <time>2023-06-14T18:35:29.307Z</time>
      </trkpt>
      <trkpt lat="44.82549" lon="4.58071">
        <ele>329</ele>
        <time>2023-06-14T18:35:31.103Z</time>
      </trkpt>
      <trkpt lat="44.82544" lon="4.58069">
        <ele>326.9</ele>
        <time>2023-06-14T18:35:33.572Z</time>
      </trkpt>
      <trkpt lat="44.82538" lon="4.58067">
        <ele>324</ele>
        <time>2023-06-14T18:35:36.537Z</time>
      </trkpt>
      <trkpt lat="44.82531" lon="4.58066">
        <ele>321.3</ele>
        <time>2023-06-14T18:35:39.841Z</time>
      </trkpt>
      <trkpt lat="44.82524" lon="4.58065">
        <ele>319</ele>
        <time>2023-06-14T18:35:43.110Z</time>
      </trkpt>
      <trkpt lat="44.82517" lon="4.58063">
        <ele>315.8</ele>
        <time>2023-06-14T18:35:46.539Z</time>
      </trkpt>
      <trkpt lat="44.82505" lon="4.58062">
        <ele>311.5</ele>
        <time>2023-06-14T18:35:52.143Z</time>
      </trkpt>
      <trkpt lat="44.82494" lon="4.58068">
        <ele>310.3</ele>
        <time>2023-06-14T18:35:57.417Z</time>
      </trkpt>
      <trkpt lat="44.82488" lon="4.58074">
        <ele>310.3</ele>
        <time>2023-06-14T18:36:00.680Z</time>
      </trkpt>
      <trkpt lat="44.82483" lon="4.58082">
        <ele>311.9</ele>
        <time>2023-06-14T18:36:04.112Z</time>
      </trkpt>
      <trkpt lat="44.82477" lon="4.58094">
        <ele>312.1</ele>
        <time>2023-06-14T18:36:08.744Z</time>
      </trkpt>
      <trkpt lat="44.82472" lon="4.58102">
        <ele>311.6</ele>
        <time>2023-06-14T18:36:12.111Z</time>
      </trkpt>
      <trkpt lat="44.82469" lon="4.58104">
        <ele>311.1</ele>
        <time>2023-06-14T18:36:13.600Z</time>
      </trkpt>
      <trkpt lat="44.82461" lon="4.58106">
        <ele>308.9</ele>
        <time>2023-06-14T18:36:17.314Z</time>
      </trkpt>
      <trkpt lat="44.8246" lon="4.58104">
        <ele>308.5</ele>
        <time>2023-06-14T18:36:18.106Z</time>
      </trkpt>
      <trkpt lat="44.82459" lon="4.58101">
        <ele>307.7</ele>
        <time>2023-06-14T18:36:19.192Z</time>
      </trkpt>
      <trkpt lat="44.82461" lon="4.58096">
        <ele>307.6</ele>
        <time>2023-06-14T18:36:21.001Z</time>
      </trkpt>
      <trkpt lat="44.82464" lon="4.5809">
        <ele>307.9</ele>
        <time>2023-06-14T18:36:23.319Z</time>
      </trkpt>
      <trkpt lat="44.82466" lon="4.58082">
        <ele>307.2</ele>
        <time>2023-06-14T18:36:26.008Z</time>
      </trkpt>
      <trkpt lat="44.82467" lon="4.58078">
        <ele>306.2</ele>
        <time>2023-06-14T18:36:27.411Z</time>
      </trkpt>
      <trkpt lat="44.82468" lon="4.58074">
        <ele>304.7</ele>
        <time>2023-06-14T18:36:28.871Z</time>
      </trkpt>
      <trkpt lat="44.8247" lon="4.58066">
        <ele>302.7</ele>
        <time>2023-06-14T18:36:31.671Z</time>
      </trkpt>
      <trkpt lat="44.8247" lon="4.58062">
        <ele>301.4</ele>
        <time>2023-06-14T18:36:33.033Z</time>
      </trkpt>
      <trkpt lat="44.82472" lon="4.58053">
        <ele>298.9</ele>
        <time>2023-06-14T18:36:36.168Z</time>
      </trkpt>
      <trkpt lat="44.82473" lon="4.58042">
        <ele>295.7</ele>
        <time>2023-06-14T18:36:39.890Z</time>
      </trkpt>
      <trkpt lat="44.82474" lon="4.58032">
        <ele>292.5</ele>
        <time>2023-06-14T18:36:43.320Z</time>
      </trkpt>
      <trkpt lat="44.82476" lon="4.58024">
        <ele>290.6</ele>
        <time>2023-06-14T18:36:46.104Z</time>
      </trkpt>
      <trkpt lat="44.82479" lon="4.58018">
        <ele>289.3</ele>
        <time>2023-06-14T18:36:48.477Z</time>
      </trkpt>
      <trkpt lat="44.82481" lon="4.58014">
        <ele>288.6</ele>
        <time>2023-06-14T18:36:50.047Z</time>
      </trkpt>
      <trkpt lat="44.82481" lon="4.58014">
        <ele>288.6</ele>
        <time>2023-06-14T18:36:50.047Z</time>
      </trkpt>
      <trkpt lat="44.82481" lon="4.58011">
        <ele>287.8</ele>
        <time>2023-06-14T18:36:51.053Z</time>
      </trkpt>
      <trkpt lat="44.82483" lon="4.58006">
        <ele>286.6</ele>
        <time>2023-06-14T18:36:52.917Z</time>
      </trkpt>
      <trkpt lat="44.82485" lon="4.58003">
        <ele>286.4</ele>
        <time>2023-06-14T18:36:54.224Z</time>
      </trkpt>
      <trkpt lat="44.8249" lon="4.57996">
        <ele>285.6</ele>
        <time>2023-06-14T18:36:57.369Z</time>
      </trkpt>
      <trkpt lat="44.82495" lon="4.5799">
        <ele>284.6</ele>
        <time>2023-06-14T18:37:00.314Z</time>
      </trkpt>
      <trkpt lat="44.825" lon="4.57987">
        <ele>285.2</ele>
        <time>2023-06-14T18:37:02.738Z</time>
      </trkpt>
      <trkpt lat="44.82505" lon="4.57985">
        <ele>285.6</ele>
        <time>2023-06-14T18:37:05.063Z</time>
      </trkpt>
      <trkpt lat="44.82507" lon="4.57984">
        <ele>285.6</ele>
        <time>2023-06-14T18:37:06.003Z</time>
      </trkpt>
      <trkpt lat="44.82509" lon="4.57983">
        <ele>286.1</ele>
        <time>2023-06-14T18:37:06.969Z</time>
      </trkpt>
      <trkpt lat="44.82515" lon="4.57979">
        <ele>286.2</ele>
        <time>2023-06-14T18:37:09.921Z</time>
      </trkpt>
      <trkpt lat="44.82521" lon="4.57977">
        <ele>286.7</ele>
        <time>2023-06-14T18:37:12.672Z</time>
      </trkpt>
      <trkpt lat="44.82524" lon="4.57977">
        <ele>287.5</ele>
        <time>2023-06-14T18:37:14.041Z</time>
      </trkpt>
      <trkpt lat="44.82524" lon="4.57977">
        <ele>287.5</ele>
        <time>2023-06-14T18:37:14.041Z</time>
      </trkpt>
      <trkpt lat="44.82525" lon="4.57976">
        <ele>287.2</ele>
        <time>2023-06-14T18:37:14.598Z</time>
      </trkpt>
      <trkpt lat="44.82525" lon="4.57976">
        <ele>287.2</ele>
        <time>2023-06-14T18:37:14.598Z</time>
      </trkpt>
      <trkpt lat="44.82525" lon="4.57977">
        <ele>287.7</ele>
        <time>2023-06-14T18:37:14.979Z</time>
      </trkpt>
      <trkpt lat="44.82525" lon="4.57976">
        <ele>287.2</ele>
        <time>2023-06-14T18:37:15.361Z</time>
      </trkpt>
      <trkpt lat="44.82525" lon="4.57976">
        <ele>287.2</ele>
        <time>2023-06-14T18:37:15.361Z</time>
      </trkpt>
      <trkpt lat="44.82524" lon="4.57975">
        <ele>286.4</ele>
        <time>2023-06-14T18:37:15.993Z</time>
      </trkpt>
      <trkpt lat="44.82523" lon="4.57976">
        <ele>286.7</ele>
        <time>2023-06-14T18:37:16.554Z</time>
      </trkpt>
      <trkpt lat="44.82523" lon="4.57977">
        <ele>287.2</ele>
        <time>2023-06-14T18:37:16.934Z</time>
      </trkpt>
      <trkpt lat="44.82523" lon="4.57977">
        <ele>287.2</ele>
        <time>2023-06-14T18:37:16.934Z</time>
      </trkpt>
      <trkpt lat="44.82522" lon="4.57977">
        <ele>287</ele>
        <time>2023-06-14T18:37:17.385Z</time>
      </trkpt>
      <trkpt lat="44.82524" lon="4.57977">
        <ele>287.5</ele>
        <time>2023-06-14T18:37:18.294Z</time>
      </trkpt>
      <trkpt lat="44.82525" lon="4.57978">
        <ele>288.2</ele>
        <time>2023-06-14T18:37:18.929Z</time>
      </trkpt>
      <trkpt lat="44.82523" lon="4.57976">
        <ele>286.7</ele>
        <time>2023-06-14T18:37:20.193Z</time>
      </trkpt>
      <trkpt lat="44.8252" lon="4.57976">
        <ele>285.9</ele>
        <time>2023-06-14T18:37:21.559Z</time>
      </trkpt>
      <trkpt lat="44.82518" lon="4.57974">
        <ele>284.9</ele>
        <time>2023-06-14T18:37:22.725Z</time>
      </trkpt>
      <trkpt lat="44.82517" lon="4.57968">
        <ele>281.9</ele>
        <time>2023-06-14T18:37:25.001Z</time>
      </trkpt>
      <trkpt lat="44.82516" lon="4.57966">
        <ele>281.2</ele>
        <time>2023-06-14T18:37:25.826Z</time>
      </trkpt>
      <trkpt lat="44.82516" lon="4.57964">
        <ele>280.1</ele>
        <time>2023-06-14T18:37:26.582Z</time>
      </trkpt>
      <trkpt lat="44.82516" lon="4.57963">
        <ele>279.6</ele>
        <time>2023-06-14T18:37:26.961Z</time>
      </trkpt>
      <trkpt lat="44.82514" lon="4.57962">
        <ele>278.6</ele>
        <time>2023-06-14T18:37:27.986Z</time>
      </trkpt>
      <trkpt lat="44.82515" lon="4.57963">
        <ele>279.4</ele>
        <time>2023-06-14T18:37:28.610Z</time>
      </trkpt>
      <trkpt lat="44.82517" lon="4.57967">
        <ele>281.4</ele>
        <time>2023-06-14T18:37:30.353Z</time>
      </trkpt>
      <trkpt lat="44.82517" lon="4.57968">
        <ele>281.9</ele>
        <time>2023-06-14T18:37:30.729Z</time>
      </trkpt>
      <trkpt lat="44.82518" lon="4.57972">
        <ele>283.8</ele>
        <time>2023-06-14T18:37:32.270Z</time>
      </trkpt>
      <trkpt lat="44.82521" lon="4.57971">
        <ele>284</ele>
        <time>2023-06-14T18:37:33.643Z</time>
      </trkpt>
      <trkpt lat="44.82522" lon="4.57971">
        <ele>284.3</ele>
        <time>2023-06-14T18:37:34.101Z</time>
      </trkpt>
      <trkpt lat="44.82523" lon="4.57971">
        <ele>284.5</ele>
        <time>2023-06-14T18:37:34.551Z</time>
      </trkpt>
      <trkpt lat="44.82524" lon="4.57972">
        <ele>285.3</ele>
        <time>2023-06-14T18:37:35.182Z</time>
      </trkpt>
      <trkpt lat="44.82525" lon="4.57973">
        <ele>286.1</ele>
        <time>2023-06-14T18:37:35.814Z</time>
      </trkpt>
      <trkpt lat="44.82525" lon="4.57973">
        <ele>286.1</ele>
        <time>2023-06-14T18:37:35.814Z</time>
      </trkpt>
      <trkpt lat="44.82527" lon="4.57974">
        <ele>287.1</ele>
        <time>2023-06-14T18:37:36.842Z</time>
      </trkpt>
      <trkpt lat="44.82526" lon="4.57975">
        <ele>286.9</ele>
        <time>2023-06-14T18:37:37.400Z</time>
      </trkpt>
      <trkpt lat="44.82523" lon="4.57977">
        <ele>287.2</ele>
        <time>2023-06-14T18:37:38.883Z</time>
      </trkpt>
      <trkpt lat="44.82523" lon="4.57978">
        <ele>287.7</ele>
        <time>2023-06-14T18:37:39.267Z</time>
      </trkpt>
      <trkpt lat="44.82522" lon="4.57978">
        <ele>287.5</ele>
        <time>2023-06-14T18:37:39.718Z</time>
      </trkpt>
      <trkpt lat="44.82518" lon="4.57976">
        <ele>285.4</ele>
        <time>2023-06-14T18:37:41.780Z</time>
      </trkpt>
      <trkpt lat="44.82514" lon="4.57974">
        <ele>283.8</ele>
        <time>2023-06-14T18:37:43.775Z</time>
      </trkpt>
      <trkpt lat="44.8251" lon="4.57974">
        <ele>282.8</ele>
        <time>2023-06-14T18:37:45.592Z</time>
      </trkpt>
      <trkpt lat="44.82508" lon="4.57974">
        <ele>282.4</ele>
        <time>2023-06-14T18:37:46.501Z</time>
      </trkpt>
      <trkpt lat="44.82508" lon="4.57973">
        <ele>281.9</ele>
        <time>2023-06-14T18:37:46.873Z</time>
      </trkpt>
      <trkpt lat="44.82508" lon="4.57973">
        <ele>281.9</ele>
        <time>2023-06-14T18:37:46.873Z</time>
      </trkpt>
      <trkpt lat="44.82503" lon="4.57973">
        <ele>280.6</ele>
        <time>2023-06-14T18:37:49.162Z</time>
      </trkpt>
      <trkpt lat="44.82488" lon="4.57969">
        <ele>274.4</ele>
        <time>2023-06-14T18:37:56.373Z</time>
      </trkpt>
      <trkpt lat="44.82485" lon="4.5797">
        <ele>274</ele>
        <time>2023-06-14T18:37:57.757Z</time>
      </trkpt>
      <trkpt lat="44.8248" lon="4.57971">
        <ele>272.4</ele>
        <time>2023-06-14T18:38:00.095Z</time>
      </trkpt>
      <trkpt lat="44.82475" lon="4.57972">
        <ele>271.2</ele>
        <time>2023-06-14T18:38:02.389Z</time>
      </trkpt>
      <trkpt lat="44.82471" lon="4.57974">
        <ele>271</ele>
        <time>2023-06-14T18:38:04.281Z</time>
      </trkpt>
      <trkpt lat="44.82469" lon="4.57974">
        <ele>270.3</ele>
        <time>2023-06-14T18:38:05.202Z</time>
      </trkpt>
      <trkpt lat="44.82466" lon="4.57975">
        <ele>269.4</ele>
        <time>2023-06-14T18:38:06.625Z</time>
      </trkpt>
      <trkpt lat="44.82465" lon="4.57974">
        <ele>269.1</ele>
        <time>2023-06-14T18:38:07.182Z</time>
      </trkpt>
      <trkpt lat="44.82465" lon="4.57972">
        <ele>268</ele>
        <time>2023-06-14T18:38:07.938Z</time>
      </trkpt>
      <trkpt lat="44.82465" lon="4.5797">
        <ele>267.5</ele>
        <time>2023-06-14T18:38:08.600Z</time>
      </trkpt>
      <trkpt lat="44.82467" lon="4.57966">
        <ele>266.6</ele>
        <time>2023-06-14T18:38:10.187Z</time>
      </trkpt>
      <trkpt lat="44.82469" lon="4.57962">
        <ele>265.1</ele>
        <time>2023-06-14T18:38:11.834Z</time>
      </trkpt>
      <trkpt lat="44.8247" lon="4.5796">
        <ele>265</ele>
        <time>2023-06-14T18:38:12.610Z</time>
      </trkpt>
      <trkpt lat="44.82471" lon="4.57958">
        <ele>264.2</ele>
        <time>2023-06-14T18:38:13.429Z</time>
      </trkpt>
      <trkpt lat="44.82471" lon="4.57958">
        <ele>264.2</ele>
        <time>2023-06-14T18:38:13.429Z</time>
      </trkpt>
      <trkpt lat="44.8247" lon="4.57957">
        <ele>263.9</ele>
        <time>2023-06-14T18:38:13.986Z</time>
      </trkpt>
      <trkpt lat="44.82469" lon="4.57958">
        <ele>263.6</ele>
        <time>2023-06-14T18:38:14.550Z</time>
      </trkpt>
      <trkpt lat="44.82466" lon="4.57959">
        <ele>263.1</ele>
        <time>2023-06-14T18:38:15.933Z</time>
      </trkpt>
      <trkpt lat="44.82464" lon="4.5796">
        <ele>263</ele>
        <time>2023-06-14T18:38:16.877Z</time>
      </trkpt>
      <trkpt lat="44.82459" lon="4.57962">
        <ele>261.8</ele>
        <time>2023-06-14T18:38:19.235Z</time>
      </trkpt>
      <trkpt lat="44.82457" lon="4.57963">
        <ele>261.7</ele>
        <time>2023-06-14T18:38:20.185Z</time>
      </trkpt>
      <trkpt lat="44.82457" lon="4.57963">
        <ele>261.7</ele>
        <time>2023-06-14T18:38:20.185Z</time>
      </trkpt>
      <trkpt lat="44.82456" lon="4.57962">
        <ele>260.8</ele>
        <time>2023-06-14T18:38:20.827Z</time>
      </trkpt>
      <trkpt lat="44.82456" lon="4.57961">
        <ele>260.8</ele>
        <time>2023-06-14T18:38:21.140Z</time>
      </trkpt>
      <trkpt lat="44.82457" lon="4.57957">
        <ele>259.5</ele>
        <time>2023-06-14T18:38:22.571Z</time>
      </trkpt>
      <trkpt lat="44.82458" lon="4.57955">
        <ele>258.8</ele>
        <time>2023-06-14T18:38:23.397Z</time>
      </trkpt>
      <trkpt lat="44.8246" lon="4.57951">
        <ele>257.9</ele>
        <time>2023-06-14T18:38:24.984Z</time>
      </trkpt>
      <trkpt lat="44.8246" lon="4.5795">
        <ele>257.3</ele>
        <time>2023-06-14T18:38:25.361Z</time>
      </trkpt>
      <trkpt lat="44.8246" lon="4.57949">
        <ele>256.8</ele>
        <time>2023-06-14T18:38:25.742Z</time>
      </trkpt>
      <trkpt lat="44.82459" lon="4.57949">
        <ele>256.5</ele>
        <time>2023-06-14T18:38:26.201Z</time>
      </trkpt>
      <trkpt lat="44.82456" lon="4.57949">
        <ele>255.5</ele>
        <time>2023-06-14T18:38:27.596Z</time>
      </trkpt>
      <trkpt lat="44.82455" lon="4.57949">
        <ele>255.1</ele>
        <time>2023-06-14T18:38:28.063Z</time>
      </trkpt>
      <trkpt lat="44.82455" lon="4.5795">
        <ele>255.7</ele>
        <time>2023-06-14T18:38:28.446Z</time>
      </trkpt>
      <trkpt lat="44.82454" lon="4.57951">
        <ele>255.9</ele>
        <time>2023-06-14T18:38:28.998Z</time>
      </trkpt>
      <trkpt lat="44.82453" lon="4.57951">
        <ele>255.5</ele>
        <time>2023-06-14T18:38:29.457Z</time>
      </trkpt>
      <trkpt lat="44.82453" lon="4.57951">
        <ele>255.5</ele>
        <time>2023-06-14T18:38:29.457Z</time>
      </trkpt>
      <trkpt lat="44.82453" lon="4.57951">
        <ele>255.5</ele>
        <time>2023-06-14T18:38:29.457Z</time>
      </trkpt>
      <trkpt lat="44.82452" lon="4.57952">
        <ele>255.7</ele>
        <time>2023-06-14T18:38:30.011Z</time>
      </trkpt>
      <trkpt lat="44.82452" lon="4.57953">
        <ele>256.3</ele>
        <time>2023-06-14T18:38:30.394Z</time>
      </trkpt>
      <trkpt lat="44.82452" lon="4.57954">
        <ele>256.3</ele>
        <time>2023-06-14T18:38:30.707Z</time>
      </trkpt>
      <trkpt lat="44.8245" lon="4.57957">
        <ele>257.2</ele>
        <time>2023-06-14T18:38:32.059Z</time>
      </trkpt>
      <trkpt lat="44.82447" lon="4.57961">
        <ele>257.8</ele>
        <time>2023-06-14T18:38:33.909Z</time>
      </trkpt>
      <trkpt lat="44.82441" lon="4.57967">
        <ele>258</ele>
        <time>2023-06-14T18:38:37.182Z</time>
      </trkpt>
      <trkpt lat="44.82436" lon="4.57972">
        <ele>258.6</ele>
        <time>2023-06-14T18:38:39.917Z</time>
      </trkpt>
      <trkpt lat="44.82433" lon="4.57974">
        <ele>258.7</ele>
        <time>2023-06-14T18:38:41.394Z</time>
      </trkpt>
      <trkpt lat="44.82431" lon="4.57976">
        <ele>258.6</ele>
        <time>2023-06-14T18:38:42.490Z</time>
      </trkpt>
      <trkpt lat="44.82427" lon="4.57981">
        <ele>259.6</ele>
        <time>2023-06-14T18:38:44.898Z</time>
      </trkpt>
      <trkpt lat="44.82422" lon="4.57986">
        <ele>260.4</ele>
        <time>2023-06-14T18:38:47.644Z</time>
      </trkpt>
      <trkpt lat="44.82417" lon="4.5799">
        <ele>260.5</ele>
        <time>2023-06-14T18:38:50.200Z</time>
      </trkpt>
      <trkpt lat="44.82412" lon="4.57995">
        <ele>260.7</ele>
        <time>2023-06-14T18:38:52.924Z</time>
      </trkpt>
      <trkpt lat="44.82408" lon="4.57998">
        <ele>260.1</ele>
        <time>2023-06-14T18:38:54.956Z</time>
      </trkpt>
      <trkpt lat="44.82405" lon="4.58001">
        <ele>259.7</ele>
        <time>2023-06-14T18:38:56.600Z</time>
      </trkpt>
      <trkpt lat="44.82398" lon="4.58007">
        <ele>258.8</ele>
        <time>2023-06-14T18:39:00.257Z</time>
      </trkpt>
      <trkpt lat="44.82392" lon="4.58013">
        <ele>258.3</ele>
        <time>2023-06-14T18:39:03.534Z</time>
      </trkpt>
      <trkpt lat="44.82385" lon="4.5802">
        <ele>257.2</ele>
        <time>2023-06-14T18:39:07.376Z</time>
      </trkpt>
      <trkpt lat="44.82378" lon="4.58026">
        <ele>256.3</ele>
        <time>2023-06-14T18:39:11.036Z</time>
      </trkpt>
      <trkpt lat="44.82373" lon="4.58037">
        <ele>257.3</ele>
        <time>2023-06-14T18:39:15.182Z</time>
      </trkpt>
      <trkpt lat="44.82372" lon="4.5804">
        <ele>257.8</ele>
        <time>2023-06-14T18:39:16.240Z</time>
      </trkpt>
      <trkpt lat="44.82371" lon="4.58044">
        <ele>258.6</ele>
        <time>2023-06-14T18:39:17.622Z</time>
      </trkpt>
      <trkpt lat="44.8237" lon="4.58046">
        <ele>259</ele>
        <time>2023-06-14T18:39:18.408Z</time>
      </trkpt>
      <trkpt lat="44.82367" lon="4.5805">
        <ele>259</ele>
        <time>2023-06-14T18:39:20.247Z</time>
      </trkpt>
      <trkpt lat="44.82363" lon="4.58056">
        <ele>259.1</ele>
        <time>2023-06-14T18:39:22.848Z</time>
      </trkpt>
      <trkpt lat="44.82355" lon="4.58068">
        <ele>259.3</ele>
        <time>2023-06-14T18:39:28.042Z</time>
      </trkpt>
      <trkpt lat="44.82347" lon="4.58086">
        <ele>260.9</ele>
        <time>2023-06-14T18:39:34.767Z</time>
      </trkpt>
      <trkpt lat="44.82346" lon="4.5809">
        <ele>260.9</ele>
        <time>2023-06-14T18:39:36.108Z</time>
      </trkpt>
      <trkpt lat="44.82339" lon="4.5811">
        <ele>260.2</ele>
        <time>2023-06-14T18:39:43.150Z</time>
      </trkpt>
      <trkpt lat="44.82334" lon="4.58126">
        <ele>259.8</ele>
        <time>2023-06-14T18:39:48.664Z</time>
      </trkpt>
      <trkpt lat="44.82333" lon="4.58131">
        <ele>260</ele>
        <time>2023-06-14T18:39:50.309Z</time>
      </trkpt>
      <trkpt lat="44.82328" lon="4.58149">
        <ele>260</ele>
        <time>2023-06-14T18:39:56.402Z</time>
      </trkpt>
      <trkpt lat="44.82327" lon="4.58158">
        <ele>260.7</ele>
        <time>2023-06-14T18:39:59.289Z</time>
      </trkpt>
      <trkpt lat="44.82325" lon="4.58172">
        <ele>260.2</ele>
        <time>2023-06-14T18:40:03.796Z</time>
      </trkpt>
      <trkpt lat="44.82324" lon="4.58181">
        <ele>258.6</ele>
        <time>2023-06-14T18:40:06.741Z</time>
      </trkpt>
      <trkpt lat="44.82324" lon="4.58186">
        <ele>258</ele>
        <time>2023-06-14T18:40:08.342Z</time>
      </trkpt>
      <trkpt lat="44.82324" lon="4.58192">
        <ele>257.3</ele>
        <time>2023-06-14T18:40:10.248Z</time>
      </trkpt>
      <trkpt lat="44.82324" lon="4.58207">
        <ele>255.4</ele>
        <time>2023-06-14T18:40:15.042Z</time>
      </trkpt>
      <trkpt lat="44.82324" lon="4.58213">
        <ele>254.7</ele>
        <time>2023-06-14T18:40:16.953Z</time>
      </trkpt>
      <trkpt lat="44.82324" lon="4.58223">
        <ele>253.5</ele>
        <time>2023-06-14T18:40:20.152Z</time>
      </trkpt>
      <trkpt lat="44.82326" lon="4.58258">
        <ele>250.7</ele>
        <time>2023-06-14T18:40:31.276Z</time>
      </trkpt>
      <trkpt lat="44.82329" lon="4.58282">
        <ele>251.5</ele>
        <time>2023-06-14T18:40:38.970Z</time>
      </trkpt>
      <trkpt lat="44.82331" lon="4.58293">
        <ele>252</ele>
        <time>2023-06-14T18:40:42.557Z</time>
      </trkpt>
      <trkpt lat="44.82332" lon="4.58301">
        <ele>252.2</ele>
        <time>2023-06-14T18:40:45.125Z</time>
      </trkpt>
      <trkpt lat="44.82333" lon="4.58318">
        <ele>252.2</ele>
        <time>2023-06-14T18:40:50.505Z</time>
      </trkpt>
      <trkpt lat="44.82334" lon="4.58327">
        <ele>252.4</ele>
        <time>2023-06-14T18:40:53.375Z</time>
      </trkpt>
      <trkpt lat="44.82335" lon="4.58335">
        <ele>252.8</ele>
        <time>2023-06-14T18:40:55.946Z</time>
      </trkpt>
      <trkpt lat="44.82336" lon="4.5834">
        <ele>253.7</ele>
        <time>2023-06-14T18:40:57.621Z</time>
      </trkpt>
      <trkpt lat="44.82344" lon="4.58359">
        <ele>259.2</ele>
        <time>2023-06-14T18:41:04.926Z</time>
      </trkpt>
      <trkpt lat="44.82346" lon="4.58368">
        <ele>261</ele>
        <time>2023-06-14T18:41:07.991Z</time>
      </trkpt>
      <trkpt lat="44.82347" lon="4.58377">
        <ele>262.4</ele>
        <time>2023-06-14T18:41:10.920Z</time>
      </trkpt>
      <trkpt lat="44.82345" lon="4.58387">
        <ele>262.5</ele>
        <time>2023-06-14T18:41:14.201Z</time>
      </trkpt>
      <trkpt lat="44.82346" lon="4.584">
        <ele>264.3</ele>
        <time>2023-06-14T18:41:18.386Z</time>
      </trkpt>
      <trkpt lat="44.82346" lon="4.58427">
        <ele>266.6</ele>
        <time>2023-06-14T18:41:26.953Z</time>
      </trkpt>
      <trkpt lat="44.82345" lon="4.58436">
        <ele>266.6</ele>
        <time>2023-06-14T18:41:29.827Z</time>
      </trkpt>
      <trkpt lat="44.8234" lon="4.58454">
        <ele>264.7</ele>
        <time>2023-06-14T18:41:35.965Z</time>
      </trkpt>
      <trkpt lat="44.82334" lon="4.58484">
        <ele>262.6</ele>
        <time>2023-06-14T18:41:45.835Z</time>
      </trkpt>
      <trkpt lat="44.82333" lon="4.58488">
        <ele>262.2</ele>
        <time>2023-06-14T18:41:47.183Z</time>
      </trkpt>
      <trkpt lat="44.82331" lon="4.58493">
        <ele>261.5</ele>
        <time>2023-06-14T18:41:49.012Z</time>
      </trkpt>
      <trkpt lat="44.8233" lon="4.58497">
        <ele>261.2</ele>
        <time>2023-06-14T18:41:50.353Z</time>
      </trkpt>
      <trkpt lat="44.82328" lon="4.58501">
        <ele>260.5</ele>
        <time>2023-06-14T18:41:51.926Z</time>
      </trkpt>
      <trkpt lat="44.82327" lon="4.58505">
        <ele>260.7</ele>
        <time>2023-06-14T18:41:53.269Z</time>
      </trkpt>
      <trkpt lat="44.82325" lon="4.5851">
        <ele>260.3</ele>
        <time>2023-06-14T18:41:55.086Z</time>
      </trkpt>
      <trkpt lat="44.82324" lon="4.58514">
        <ele>260.3</ele>
        <time>2023-06-14T18:41:56.419Z</time>
      </trkpt>
      <trkpt lat="44.82322" lon="4.58519">
        <ele>259.9</ele>
        <time>2023-06-14T18:41:58.242Z</time>
      </trkpt>
      <trkpt lat="44.82313" lon="4.58536">
        <ele>258</ele>
        <time>2023-06-14T18:42:04.980Z</time>
      </trkpt>
      <trkpt lat="44.82304" lon="4.58553">
        <ele>255.8</ele>
        <time>2023-06-14T18:42:11.725Z</time>
      </trkpt>
      <trkpt lat="44.823" lon="4.58569">
        <ele>256.2</ele>
        <time>2023-06-14T18:42:17.074Z</time>
      </trkpt>
      <trkpt lat="44.82298" lon="4.58578">
        <ele>256.4</ele>
        <time>2023-06-14T18:42:20.050Z</time>
      </trkpt>
      <trkpt lat="44.82291" lon="4.58596">
        <ele>255.4</ele>
        <time>2023-06-14T18:42:26.541Z</time>
      </trkpt>
      <trkpt lat="44.82284" lon="4.58613">
        <ele>254.8</ele>
        <time>2023-06-14T18:42:32.746Z</time>
      </trkpt>
      <trkpt lat="44.82276" lon="4.58629">
        <ele>254.1</ele>
        <time>2023-06-14T18:42:38.924Z</time>
      </trkpt>
      <trkpt lat="44.82267" lon="4.5864">
        <ele>252.2</ele>
        <time>2023-06-14T18:42:44.280Z</time>
      </trkpt>
      <trkpt lat="44.82262" lon="4.58647">
        <ele>251.7</ele>
        <time>2023-06-14T18:42:47.416Z</time>
      </trkpt>
      <trkpt lat="44.8226" lon="4.5865">
        <ele>251.4</ele>
        <time>2023-06-14T18:42:48.718Z</time>
      </trkpt>
      <trkpt lat="44.82247" lon="4.58667">
        <ele>249.9</ele>
        <time>2023-06-14T18:42:56.629Z</time>
      </trkpt>
      <trkpt lat="44.82245" lon="4.58671">
        <ele>249.5</ele>
        <time>2023-06-14T18:42:58.180Z</time>
      </trkpt>
      <trkpt lat="44.82223" lon="4.58697">
        <ele>244</ele>
        <time>2023-06-14T18:43:11.130Z</time>
      </trkpt>
      <trkpt lat="44.82218" lon="4.58703">
        <ele>243</ele>
        <time>2023-06-14T18:43:14.083Z</time>
      </trkpt>
      <trkpt lat="44.82216" lon="4.58706">
        <ele>242.6</ele>
        <time>2023-06-14T18:43:15.389Z</time>
      </trkpt>
      <trkpt lat="44.82213" lon="4.58709">
        <ele>241.9</ele>
        <time>2023-06-14T18:43:17.050Z</time>
      </trkpt>
      <trkpt lat="44.82203" lon="4.58723">
        <ele>240.2</ele>
        <time>2023-06-14T18:43:23.353Z</time>
      </trkpt>
      <trkpt lat="44.82188" lon="4.58741">
        <ele>237.5</ele>
        <time>2023-06-14T18:43:32.178Z</time>
      </trkpt>
      <trkpt lat="44.82166" lon="4.58769">
        <ele>234</ele>
        <time>2023-06-14T18:43:45.435Z</time>
      </trkpt>
      <trkpt lat="44.82154" lon="4.58785">
        <ele>233.2</ele>
        <time>2023-06-14T18:43:52.781Z</time>
      </trkpt>
      <trkpt lat="44.82144" lon="4.58796">
        <ele>232.3</ele>
        <time>2023-06-14T18:43:58.437Z</time>
      </trkpt>
      <trkpt lat="44.82134" lon="4.5881">
        <ele>232</ele>
        <time>2023-06-14T18:44:04.706Z</time>
      </trkpt>
      <trkpt lat="44.82129" lon="4.58817">
        <ele>231.9</ele>
        <time>2023-06-14T18:44:07.841Z</time>
      </trkpt>
      <trkpt lat="44.82127" lon="4.58821">
        <ele>232</ele>
        <time>2023-06-14T18:44:09.386Z</time>
      </trkpt>
      <trkpt lat="44.82121" lon="4.58834">
        <ele>232.7</ele>
        <time>2023-06-14T18:44:14.285Z</time>
      </trkpt>
      <trkpt lat="44.82117" lon="4.58843">
        <ele>233.4</ele>
        <time>2023-06-14T18:44:17.647Z</time>
      </trkpt>
      <trkpt lat="44.82113" lon="4.58854">
        <ele>234.3</ele>
        <time>2023-06-14T18:44:21.562Z</time>
      </trkpt>
      <trkpt lat="44.82109" lon="4.58864">
        <ele>234.9</ele>
        <time>2023-06-14T18:44:25.194Z</time>
      </trkpt>
      <trkpt lat="44.82104" lon="4.58887">
        <ele>237.4</ele>
        <time>2023-06-14T18:44:32.849Z</time>
      </trkpt>
      <trkpt lat="44.82098" lon="4.58903">
        <ele>238.4</ele>
        <time>2023-06-14T18:44:38.568Z</time>
      </trkpt>
      <trkpt lat="44.82093" lon="4.58918">
        <ele>239.5</ele>
        <time>2023-06-14T18:44:43.815Z</time>
      </trkpt>
      <trkpt lat="44.82084" lon="4.5895">
        <ele>240.3</ele>
        <time>2023-06-14T18:44:54.679Z</time>
      </trkpt>
      <trkpt lat="44.82083" lon="4.58956">
        <ele>240.6</ele>
        <time>2023-06-14T18:44:56.630Z</time>
      </trkpt>
      <trkpt lat="44.82074" lon="4.58987">
        <ele>240.7</ele>
        <time>2023-06-14T18:45:07.195Z</time>
      </trkpt>
      <trkpt lat="44.82072" lon="4.58992">
        <ele>240.4</ele>
        <time>2023-06-14T18:45:09.007Z</time>
      </trkpt>
      <trkpt lat="44.8207" lon="4.58997">
        <ele>240.2</ele>
        <time>2023-06-14T18:45:10.824Z</time>
      </trkpt>
      <trkpt lat="44.82066" lon="4.5901">
        <ele>239.9</ele>
        <time>2023-06-14T18:45:15.293Z</time>
      </trkpt>
      <trkpt lat="44.82061" lon="4.59034">
        <ele>240</ele>
        <time>2023-06-14T18:45:23.185Z</time>
      </trkpt>
      <trkpt lat="44.82054" lon="4.59077">
        <ele>240.7</ele>
        <time>2023-06-14T18:45:37.104Z</time>
      </trkpt>
      <trkpt lat="44.82052" lon="4.59088">
        <ele>240.8</ele>
        <time>2023-06-14T18:45:40.685Z</time>
      </trkpt>
      <trkpt lat="44.8205" lon="4.59102">
        <ele>241.3</ele>
        <time>2023-06-14T18:45:45.193Z</time>
      </trkpt>
      <trkpt lat="44.82049" lon="4.59107">
        <ele>241.4</ele>
        <time>2023-06-14T18:45:46.832Z</time>
      </trkpt>
      <trkpt lat="44.82048" lon="4.59113">
        <ele>241.5</ele>
        <time>2023-06-14T18:45:48.777Z</time>
      </trkpt>
      <trkpt lat="44.82042" lon="4.5915">
        <ele>242.3</ele>
        <time>2023-06-14T18:46:00.751Z</time>
      </trkpt>
      <trkpt lat="44.82041" lon="4.59155">
        <ele>242.3</ele>
        <time>2023-06-14T18:46:02.395Z</time>
      </trkpt>
      <trkpt lat="44.82036" lon="4.59179">
        <ele>243.2</ele>
        <time>2023-06-14T18:46:10.288Z</time>
      </trkpt>
      <trkpt lat="44.82035" lon="4.59184">
        <ele>243.6</ele>
        <time>2023-06-14T18:46:11.940Z</time>
      </trkpt>
      <trkpt lat="44.82034" lon="4.59189">
        <ele>244</ele>
        <time>2023-06-14T18:46:13.586Z</time>
      </trkpt>
      <trkpt lat="44.82031" lon="4.59204">
        <ele>244.9</ele>
        <time>2023-06-14T18:46:18.515Z</time>
      </trkpt>
      <trkpt lat="44.82027" lon="4.59223">
        <ele>246.1</ele>
        <time>2023-06-14T18:46:24.782Z</time>
      </trkpt>
      <trkpt lat="44.82017" lon="4.59253">
        <ele>245.8</ele>
        <time>2023-06-14T18:46:35.243Z</time>
      </trkpt>
      <trkpt lat="44.82006" lon="4.59283">
        <ele>244.3</ele>
        <time>2023-06-14T18:46:45.909Z</time>
      </trkpt>
      <trkpt lat="44.81999" lon="4.59307">
        <ele>243.7</ele>
        <time>2023-06-14T18:46:54.098Z</time>
      </trkpt>
      <trkpt lat="44.81997" lon="4.59312">
        <ele>243.5</ele>
        <time>2023-06-14T18:46:55.912Z</time>
      </trkpt>
      <trkpt lat="44.81986" lon="4.59344">
        <ele>243.5</ele>
        <time>2023-06-14T18:47:07.129Z</time>
      </trkpt>
      <trkpt lat="44.8198" lon="4.59359">
        <ele>243.8</ele>
        <time>2023-06-14T18:47:12.564Z</time>
      </trkpt>
      <trkpt lat="44.81976" lon="4.5937">
        <ele>244.4</ele>
        <time>2023-06-14T18:47:16.466Z</time>
      </trkpt>
      <trkpt lat="44.81974" lon="4.59375">
        <ele>244.4</ele>
        <time>2023-06-14T18:47:18.278Z</time>
      </trkpt>
      <trkpt lat="44.81972" lon="4.59386">
        <ele>245.5</ele>
        <time>2023-06-14T18:47:21.885Z</time>
      </trkpt>
      <trkpt lat="44.81967" lon="4.59403">
        <ele>246.4</ele>
        <time>2023-06-14T18:47:27.701Z</time>
      </trkpt>
      <trkpt lat="44.81956" lon="4.5944">
        <ele>248.4</ele>
        <time>2023-06-14T18:47:40.386Z</time>
      </trkpt>
      <trkpt lat="44.81949" lon="4.59472">
        <ele>250.8</ele>
        <time>2023-06-14T18:47:50.986Z</time>
      </trkpt>
      <trkpt lat="44.81948" lon="4.59477">
        <ele>251.2</ele>
        <time>2023-06-14T18:47:52.638Z</time>
      </trkpt>
      <trkpt lat="44.81943" lon="4.59526">
        <ele>257.9</ele>
        <time>2023-06-14T18:48:08.482Z</time>
      </trkpt>
      <trkpt lat="44.81937" lon="4.59564">
        <ele>261.7</ele>
        <time>2023-06-14T18:48:20.853Z</time>
      </trkpt>
      <trkpt lat="44.81935" lon="4.59575">
        <ele>262.4</ele>
        <time>2023-06-14T18:48:24.449Z</time>
      </trkpt>
      <trkpt lat="44.81928" lon="4.59598">
        <ele>262.1</ele>
        <time>2023-06-14T18:48:32.346Z</time>
      </trkpt>
      <trkpt lat="44.81925" lon="4.59603">
        <ele>261</ele>
        <time>2023-06-14T18:48:34.450Z</time>
      </trkpt>
      <trkpt lat="44.81923" lon="4.59608">
        <ele>260.7</ele>
        <time>2023-06-14T18:48:36.263Z</time>
      </trkpt>
      <trkpt lat="44.81916" lon="4.59623">
        <ele>258.6</ele>
        <time>2023-06-14T18:48:41.993Z</time>
      </trkpt>
      <trkpt lat="44.81906" lon="4.59644">
        <ele>256.9</ele>
        <time>2023-06-14T18:48:49.999Z</time>
      </trkpt>
      <trkpt lat="44.81901" lon="4.59654">
        <ele>255.7</ele>
        <time>2023-06-14T18:48:53.887Z</time>
      </trkpt>
      <trkpt lat="44.81899" lon="4.59659">
        <ele>255.4</ele>
        <time>2023-06-14T18:48:55.702Z</time>
      </trkpt>
      <trkpt lat="44.81894" lon="4.5967">
        <ele>254.5</ele>
        <time>2023-06-14T18:48:59.844Z</time>
      </trkpt>
      <trkpt lat="44.81892" lon="4.59675">
        <ele>254.7</ele>
        <time>2023-06-14T18:49:01.654Z</time>
      </trkpt>
      <trkpt lat="44.81887" lon="4.59686">
        <ele>254.8</ele>
        <time>2023-06-14T18:49:05.777Z</time>
      </trkpt>
      <trkpt lat="44.81885" lon="4.59691">
        <ele>254.7</ele>
        <time>2023-06-14T18:49:07.586Z</time>
      </trkpt>
      <trkpt lat="44.81883" lon="4.59696">
        <ele>254.9</ele>
        <time>2023-06-14T18:49:09.401Z</time>
      </trkpt>
      <trkpt lat="44.81878" lon="4.59706">
        <ele>254.8</ele>
        <time>2023-06-14T18:49:13.257Z</time>
      </trkpt>
      <trkpt lat="44.8187" lon="4.59728">
        <ele>256</ele>
        <time>2023-06-14T18:49:21.071Z</time>
      </trkpt>
      <trkpt lat="44.81865" lon="4.59757">
        <ele>259.3</ele>
        <time>2023-06-14T18:49:30.575Z</time>
      </trkpt>
      <trkpt lat="44.81865" lon="4.59763">
        <ele>259.3</ele>
        <time>2023-06-14T18:49:32.468Z</time>
      </trkpt>
      <trkpt lat="44.81866" lon="4.59805">
        <ele>260</ele>
        <time>2023-06-14T18:49:45.731Z</time>
      </trkpt>
      <trkpt lat="44.81866" lon="4.5981">
        <ele>260</ele>
        <time>2023-06-14T18:49:47.308Z</time>
      </trkpt>
      <trkpt lat="44.8187" lon="4.59829">
        <ele>262.7</ele>
        <time>2023-06-14T18:49:53.646Z</time>
      </trkpt>
      <trkpt lat="44.81876" lon="4.59851">
        <ele>263.7</ele>
        <time>2023-06-14T18:50:01.094Z</time>
      </trkpt>
      <trkpt lat="44.81882" lon="4.59872">
        <ele>263.9</ele>
        <time>2023-06-14T18:50:08.233Z</time>
      </trkpt>
      <trkpt lat="44.81888" lon="4.59887">
        <ele>264.6</ele>
        <time>2023-06-14T18:50:13.673Z</time>
      </trkpt>
      <trkpt lat="44.81889" lon="4.59892">
        <ele>264.1</ele>
        <time>2023-06-14T18:50:15.319Z</time>
      </trkpt>
      <trkpt lat="44.81899" lon="4.59929">
        <ele>262.3</ele>
        <time>2023-06-14T18:50:27.832Z</time>
      </trkpt>
      <trkpt lat="44.81903" lon="4.59963">
        <ele>256.4</ele>
        <time>2023-06-14T18:50:38.957Z</time>
      </trkpt>
      <trkpt lat="44.81907" lon="4.60016">
        <ele>247.2</ele>
        <time>2023-06-14T18:50:56.166Z</time>
      </trkpt>
      <trkpt lat="44.81908" lon="4.60022">
        <ele>246.7</ele>
        <time>2023-06-14T18:50:58.120Z</time>
      </trkpt>
      <trkpt lat="44.81909" lon="4.60027">
        <ele>246.6</ele>
        <time>2023-06-14T18:50:59.759Z</time>
      </trkpt>
      <trkpt lat="44.81916" lon="4.60066">
        <ele>243.6</ele>
        <time>2023-06-14T18:51:12.508Z</time>
      </trkpt>
      <trkpt lat="44.81926" lon="4.60103">
        <ele>243.5</ele>
        <time>2023-06-14T18:51:24.998Z</time>
      </trkpt>
      <trkpt lat="44.81941" lon="4.60138">
        <ele>246.4</ele>
        <time>2023-06-14T18:51:37.953Z</time>
      </trkpt>
      <trkpt lat="44.81964" lon="4.60183">
        <ele>251</ele>
        <time>2023-06-14T18:51:55.542Z</time>
      </trkpt>
      <trkpt lat="44.81969" lon="4.60192">
        <ele>251.3</ele>
        <time>2023-06-14T18:51:59.150Z</time>
      </trkpt>
      <trkpt lat="44.81973" lon="4.60202">
        <ele>250.7</ele>
        <time>2023-06-14T18:52:02.784Z</time>
      </trkpt>
      <trkpt lat="44.81978" lon="4.60212">
        <ele>250.9</ele>
        <time>2023-06-14T18:52:06.641Z</time>
      </trkpt>
      <trkpt lat="44.81981" lon="4.60217">
        <ele>251</ele>
        <time>2023-06-14T18:52:08.706Z</time>
      </trkpt>
      <trkpt lat="44.8199" lon="4.60237">
        <ele>249.5</ele>
        <time>2023-06-14T18:52:16.202Z</time>
      </trkpt>
      <trkpt lat="44.81997" lon="4.60252">
        <ele>248.5</ele>
        <time>2023-06-14T18:52:21.878Z</time>
      </trkpt>
      <trkpt lat="44.81999" lon="4.60256">
        <ele>248.5</ele>
        <time>2023-06-14T18:52:23.427Z</time>
      </trkpt>
      <trkpt lat="44.82017" lon="4.60296">
        <ele>248.7</ele>
        <time>2023-06-14T18:52:38.366Z</time>
      </trkpt>
      <trkpt lat="44.82019" lon="4.60301">
        <ele>248.8</ele>
        <time>2023-06-14T18:52:40.178Z</time>
      </trkpt>
      <trkpt lat="44.8203" lon="4.60328">
        <ele>248.4</ele>
        <time>2023-06-14T18:52:50.001Z</time>
      </trkpt>
      <trkpt lat="44.82037" lon="4.60346">
        <ele>248.7</ele>
        <time>2023-06-14T18:52:56.476Z</time>
      </trkpt>
      <trkpt lat="44.82046" lon="4.6037">
        <ele>248.3</ele>
        <time>2023-06-14T18:53:05.039Z</time>
      </trkpt>
      <trkpt lat="44.82053" lon="4.60387">
        <ele>248.1</ele>
        <time>2023-06-14T18:53:11.241Z</time>
      </trkpt>
      <trkpt lat="44.82072" lon="4.60424">
        <ele>248.1</ele>
        <time>2023-06-14T18:53:25.647Z</time>
      </trkpt>
      <trkpt lat="44.82078" lon="4.60434">
        <ele>247.3</ele>
        <time>2023-06-14T18:53:29.796Z</time>
      </trkpt>
      <trkpt lat="44.82087" lon="4.60448">
        <ele>244.8</ele>
        <time>2023-06-14T18:53:35.836Z</time>
      </trkpt>
      <trkpt lat="44.8209" lon="4.60452">
        <ele>243.7</ele>
        <time>2023-06-14T18:53:37.723Z</time>
      </trkpt>
      <trkpt lat="44.82096" lon="4.6046">
        <ele>241.6</ele>
        <time>2023-06-14T18:53:41.491Z</time>
      </trkpt>
      <trkpt lat="44.82103" lon="4.60468">
        <ele>239.7</ele>
        <time>2023-06-14T18:53:45.571Z</time>
      </trkpt>
      <trkpt lat="44.82116" lon="4.60486">
        <ele>234.8</ele>
        <time>2023-06-14T18:53:53.904Z</time>
      </trkpt>
      <trkpt lat="44.82134" lon="4.60517">
        <ele>228.5</ele>
        <time>2023-06-14T18:54:06.792Z</time>
      </trkpt>
      <trkpt lat="44.82136" lon="4.60522">
        <ele>227.7</ele>
        <time>2023-06-14T18:54:08.624Z</time>
      </trkpt>
      <trkpt lat="44.82148" lon="4.6054">
        <ele>226.8</ele>
        <time>2023-06-14T18:54:16.428Z</time>
      </trkpt>
      <trkpt lat="44.82151" lon="4.60545">
        <ele>226.5</ele>
        <time>2023-06-14T18:54:18.494Z</time>
      </trkpt>
      <trkpt lat="44.82166" lon="4.60567">
        <ele>226.9</ele>
        <time>2023-06-14T18:54:28.119Z</time>
      </trkpt>
      <trkpt lat="44.82184" lon="4.60586">
        <ele>232.9</ele>
        <time>2023-06-14T18:54:38.408Z</time>
      </trkpt>
      <trkpt lat="44.82192" lon="4.60592">
        <ele>235.7</ele>
        <time>2023-06-14T18:54:42.590Z</time>
      </trkpt>
      <trkpt lat="44.82225" lon="4.60609">
        <ele>249.6</ele>
        <time>2023-06-14T18:54:59.175Z</time>
      </trkpt>
      <trkpt lat="44.82229" lon="4.60612">
        <ele>251.3</ele>
        <time>2023-06-14T18:55:01.303Z</time>
      </trkpt>
      <trkpt lat="44.82246" lon="4.60632">
        <ele>258.2</ele>
        <time>2023-06-14T18:55:11.528Z</time>
      </trkpt>
      <trkpt lat="44.82252" lon="4.60641">
        <ele>260.6</ele>
        <time>2023-06-14T18:55:15.542Z</time>
      </trkpt>
      <trkpt lat="44.82258" lon="4.60652">
        <ele>263.3</ele>
        <time>2023-06-14T18:55:20.043Z</time>
      </trkpt>
      <trkpt lat="44.82264" lon="4.60663">
        <ele>265.9</ele>
        <time>2023-06-14T18:55:24.537Z</time>
      </trkpt>
      <trkpt lat="44.82279" lon="4.60703">
        <ele>269.4</ele>
        <time>2023-06-14T18:55:38.878Z</time>
      </trkpt>
      <trkpt lat="44.82284" lon="4.60737">
        <ele>267.8</ele>
        <time>2023-06-14T18:55:49.851Z</time>
      </trkpt>
      <trkpt lat="44.82285" lon="4.60751">
        <ele>266.6</ele>
        <time>2023-06-14T18:55:54.314Z</time>
      </trkpt>
      <trkpt lat="44.82284" lon="4.60796">
        <ele>264.8</ele>
        <time>2023-06-14T18:56:08.532Z</time>
      </trkpt>
      <trkpt lat="44.82284" lon="4.60802">
        <ele>264.6</ele>
        <time>2023-06-14T18:56:10.427Z</time>
      </trkpt>
      <trkpt lat="44.82284" lon="4.60815">
        <ele>264.3</ele>
        <time>2023-06-14T18:56:14.527Z</time>
      </trkpt>
      <trkpt lat="44.82284" lon="4.60849">
        <ele>263.5</ele>
        <time>2023-06-14T18:56:25.260Z</time>
      </trkpt>
      <trkpt lat="44.82287" lon="4.60909">
        <ele>264.4</ele>
        <time>2023-06-14T18:56:44.234Z</time>
      </trkpt>
      <trkpt lat="44.82285" lon="4.60949">
        <ele>262.7</ele>
        <time>2023-06-14T18:56:56.900Z</time>
      </trkpt>
      <trkpt lat="44.82284" lon="4.60956">
        <ele>262</ele>
        <time>2023-06-14T18:56:59.169Z</time>
      </trkpt>
      <trkpt lat="44.82274" lon="4.61013">
        <ele>256.8</ele>
        <time>2023-06-14T18:57:17.805Z</time>
      </trkpt>
      <trkpt lat="44.82269" lon="4.6104">
        <ele>256.6</ele>
        <time>2023-06-14T18:57:26.604Z</time>
      </trkpt>
      <trkpt lat="44.82266" lon="4.6106">
        <ele>256.7</ele>
        <time>2023-06-14T18:57:33.051Z</time>
      </trkpt>
      <trkpt lat="44.82256" lon="4.61107">
        <ele>252.3</ele>
        <time>2023-06-14T18:57:48.632Z</time>
      </trkpt>
      <trkpt lat="44.82246" lon="4.61159">
        <ele>246</ele>
        <time>2023-06-14T18:58:05.808Z</time>
      </trkpt>
      <trkpt lat="44.82244" lon="4.61166">
        <ele>245</ele>
        <time>2023-06-14T18:58:08.219Z</time>
      </trkpt>
      <trkpt lat="44.82243" lon="4.61172">
        <ele>245</ele>
        <time>2023-06-14T18:58:10.162Z</time>
      </trkpt>
      <trkpt lat="44.82236" lon="4.61205">
        <ele>243.9</ele>
        <time>2023-06-14T18:58:21.038Z</time>
      </trkpt>
      <trkpt lat="44.82233" lon="4.61238">
        <ele>244.9</ele>
        <time>2023-06-14T18:58:31.536Z</time>
      </trkpt>
      <trkpt lat="44.82232" lon="4.61259">
        <ele>245.6</ele>
        <time>2023-06-14T18:58:38.183Z</time>
      </trkpt>
      <trkpt lat="44.82228" lon="4.61306">
        <ele>245.3</ele>
        <time>2023-06-14T18:58:53.118Z</time>
      </trkpt>
      <trkpt lat="44.82219" lon="4.61353">
        <ele>241.1</ele>
        <time>2023-06-14T18:59:08.560Z</time>
      </trkpt>
      <trkpt lat="44.82216" lon="4.61359">
        <ele>239.6</ele>
        <time>2023-06-14T18:59:10.953Z</time>
      </trkpt>
      <trkpt lat="44.82203" lon="4.61388">
        <ele>233.4</ele>
        <time>2023-06-14T18:59:22.053Z</time>
      </trkpt>
      <trkpt lat="44.8218" lon="4.61434">
        <ele>226.4</ele>
        <time>2023-06-14T18:59:40.024Z</time>
      </trkpt>
      <trkpt lat="44.82173" lon="4.61452">
        <ele>225.7</ele>
        <time>2023-06-14T18:59:46.507Z</time>
      </trkpt>
      <trkpt lat="44.82168" lon="4.61472">
        <ele>225.7</ele>
        <time>2023-06-14T18:59:53.195Z</time>
      </trkpt>
      <trkpt lat="44.82165" lon="4.61511">
        <ele>228.3</ele>
        <time>2023-06-14T19:00:05.610Z</time>
      </trkpt>
      <trkpt lat="44.82168" lon="4.61558">
        <ele>234</ele>
        <time>2023-06-14T19:00:20.669Z</time>
      </trkpt>
      <trkpt lat="44.82171" lon="4.61619">
        <ele>242.3</ele>
        <time>2023-06-14T19:00:40.240Z</time>
      </trkpt>
      <trkpt lat="44.82172" lon="4.61632">
        <ele>244.4</ele>
        <time>2023-06-14T19:00:44.446Z</time>
      </trkpt>
      <trkpt lat="44.82171" lon="4.61651">
        <ele>246.4</ele>
        <time>2023-06-14T19:00:50.510Z</time>
      </trkpt>
      <trkpt lat="44.82171" lon="4.61658">
        <ele>247.2</ele>
        <time>2023-06-14T19:00:52.739Z</time>
      </trkpt>
      <trkpt lat="44.82164" lon="4.61707">
        <ele>250.3</ele>
        <time>2023-06-14T19:01:08.556Z</time>
      </trkpt>
      <trkpt lat="44.8215" lon="4.61748">
        <ele>248.3</ele>
        <time>2023-06-14T19:01:22.935Z</time>
      </trkpt>
      <trkpt lat="44.8215" lon="4.61748">
        <ele>248.3</ele>
        <time>2023-06-14T19:01:22.935Z</time>
      </trkpt>
      <trkpt lat="44.82131" lon="4.61789">
        <ele>251.8</ele>
        <time>2023-06-14T19:01:38.446Z</time>
      </trkpt>
      <trkpt lat="44.82125" lon="4.61798">
        <ele>251.8</ele>
        <time>2023-06-14T19:01:42.343Z</time>
      </trkpt>
      <trkpt lat="44.82103" lon="4.61826">
        <ele>251.3</ele>
        <time>2023-06-14T19:01:55.528Z</time>
      </trkpt>
      <trkpt lat="44.821" lon="4.6183">
        <ele>251.3</ele>
        <time>2023-06-14T19:01:57.365Z</time>
      </trkpt>
      <trkpt lat="44.82076" lon="4.61851">
        <ele>249.7</ele>
        <time>2023-06-14T19:02:09.935Z</time>
      </trkpt>
      <trkpt lat="44.82043" lon="4.6187">
        <ele>242</ele>
        <time>2023-06-14T19:02:26.086Z</time>
      </trkpt>
      <trkpt lat="44.82034" lon="4.61874">
        <ele>239.2</ele>
        <time>2023-06-14T19:02:30.426Z</time>
      </trkpt>
      <trkpt lat="44.82018" lon="4.6188">
        <ele>233.3</ele>
        <time>2023-06-14T19:02:38.165Z</time>
      </trkpt>
      <trkpt lat="44.81989" lon="4.61894">
        <ele>226.2</ele>
        <time>2023-06-14T19:02:52.086Z</time>
      </trkpt>
      <trkpt lat="44.81965" lon="4.61914">
        <ele>225.3</ele>
        <time>2023-06-14T19:03:04.491Z</time>
      </trkpt>
      <trkpt lat="44.81935" lon="4.6194">
        <ele>220.1</ele>
        <time>2023-06-14T19:03:20.285Z</time>
      </trkpt>
      <trkpt lat="44.81927" lon="4.61946">
        <ele>217.7</ele>
        <time>2023-06-14T19:03:24.432Z</time>
      </trkpt>
      <trkpt lat="44.81923" lon="4.61949">
        <ele>216.4</ele>
        <time>2023-06-14T19:03:26.510Z</time>
      </trkpt>
      <trkpt lat="44.81907" lon="4.61956">
        <ele>214</ele>
        <time>2023-06-14T19:03:34.021Z</time>
      </trkpt>
      <trkpt lat="44.81899" lon="4.61959">
        <ele>213.7</ele>
        <time>2023-06-14T19:03:37.709Z</time>
      </trkpt>
      <trkpt lat="44.81895" lon="4.6196">
        <ele>213.6</ele>
        <time>2023-06-14T19:03:39.512Z</time>
      </trkpt>
      <trkpt lat="44.81874" lon="4.61961">
        <ele>211.8</ele>
        <time>2023-06-14T19:03:48.887Z</time>
      </trkpt>
      <trkpt lat="44.81841" lon="4.61958">
        <ele>207.5</ele>
        <time>2023-06-14T19:04:03.696Z</time>
      </trkpt>
      <trkpt lat="44.81807" lon="4.61958">
        <ele>206.9</ele>
        <time>2023-06-14T19:04:18.817Z</time>
      </trkpt>
      <trkpt lat="44.81794" lon="4.61962">
        <ele>208.3</ele>
        <time>2023-06-14T19:04:24.756Z</time>
      </trkpt>
      <trkpt lat="44.81786" lon="4.61965">
        <ele>209.7</ele>
        <time>2023-06-14T19:04:28.479Z</time>
      </trkpt>
      <trkpt lat="44.81782" lon="4.61967">
        <ele>210.3</ele>
        <time>2023-06-14T19:04:30.380Z</time>
      </trkpt>
      <trkpt lat="44.81764" lon="4.61974">
        <ele>213.5</ele>
        <time>2023-06-14T19:04:38.788Z</time>
      </trkpt>
      <trkpt lat="44.81752" lon="4.61982">
        <ele>216.9</ele>
        <time>2023-06-14T19:04:44.846Z</time>
      </trkpt>
      <trkpt lat="44.81748" lon="4.61985">
        <ele>217.7</ele>
        <time>2023-06-14T19:04:46.885Z</time>
      </trkpt>
      <trkpt lat="44.81728" lon="4.61999">
        <ele>220.1</ele>
        <time>2023-06-14T19:04:56.861Z</time>
      </trkpt>
      <trkpt lat="44.8172" lon="4.62004">
        <ele>221</ele>
        <time>2023-06-14T19:05:00.765Z</time>
      </trkpt>
      <trkpt lat="44.81698" lon="4.6202">
        <ele>223.8</ele>
        <time>2023-06-14T19:05:11.836Z</time>
      </trkpt>
      <trkpt lat="44.8169" lon="4.62027">
        <ele>225</ele>
        <time>2023-06-14T19:05:16.045Z</time>
      </trkpt>
      <trkpt lat="44.81673" lon="4.62039">
        <ele>226.8</ele>
        <time>2023-06-14T19:05:24.530Z</time>
      </trkpt>
      <trkpt lat="44.81668" lon="4.62042">
        <ele>226.8</ele>
        <time>2023-06-14T19:05:26.946Z</time>
      </trkpt>
      <trkpt lat="44.81664" lon="4.62044">
        <ele>226.4</ele>
        <time>2023-06-14T19:05:28.842Z</time>
      </trkpt>
      <trkpt lat="44.81638" lon="4.62054">
        <ele>223.9</ele>
        <time>2023-06-14T19:05:40.868Z</time>
      </trkpt>
      <trkpt lat="44.81608" lon="4.62056">
        <ele>217.5</ele>
        <time>2023-06-14T19:05:54.470Z</time>
      </trkpt>
      <trkpt lat="44.81582" lon="4.62051">
        <ele>209.8</ele>
        <time>2023-06-14T19:06:06.533Z</time>
      </trkpt>
      <trkpt lat="44.81573" lon="4.62046">
        <ele>207.8</ele>
        <time>2023-06-14T19:06:10.910Z</time>
      </trkpt>
      <trkpt lat="44.81557" lon="4.62036">
        <ele>203.8</ele>
        <time>2023-06-14T19:06:18.860Z</time>
      </trkpt>
      <trkpt lat="44.81534" lon="4.62017">
        <ele>196.7</ele>
        <time>2023-06-14T19:06:31.048Z</time>
      </trkpt>
      <trkpt lat="44.8151" lon="4.61999">
        <ele>189.4</ele>
        <time>2023-06-14T19:06:43.479Z</time>
      </trkpt>
      <trkpt lat="44.81484" lon="4.6198">
        <ele>188.3</ele>
        <time>2023-06-14T19:06:56.511Z</time>
      </trkpt>
      <trkpt lat="44.81451" lon="4.61967">
        <ele>189.9</ele>
        <time>2023-06-14T19:07:11.764Z</time>
      </trkpt>
      <trkpt lat="44.81431" lon="4.61961">
        <ele>190.8</ele>
        <time>2023-06-14T19:07:20.863Z</time>
      </trkpt>
      <trkpt lat="44.81418" lon="4.61956">
        <ele>190.5</ele>
        <time>2023-06-14T19:07:26.853Z</time>
      </trkpt>
      <trkpt lat="44.81386" lon="4.61939">
        <ele>190.7</ele>
        <time>2023-06-14T19:07:42.061Z</time>
      </trkpt>
      <trkpt lat="44.81363" lon="4.61914">
        <ele>185.6</ele>
        <time>2023-06-14T19:07:55.136Z</time>
      </trkpt>
      <trkpt lat="44.81356" lon="4.61906">
        <ele>185.9</ele>
        <time>2023-06-14T19:07:59.148Z</time>
      </trkpt>
      <trkpt lat="44.81337" lon="4.6188">
        <ele>186</ele>
        <time>2023-06-14T19:08:10.922Z</time>
      </trkpt>
      <trkpt lat="44.81334" lon="4.61875">
        <ele>185.9</ele>
        <time>2023-06-14T19:08:12.987Z</time>
      </trkpt>
      <trkpt lat="44.81324" lon="4.61861">
        <ele>186.8</ele>
        <time>2023-06-14T19:08:19.266Z</time>
      </trkpt>
      <trkpt lat="44.81312" lon="4.61843">
        <ele>186.8</ele>
        <time>2023-06-14T19:08:27.060Z</time>
      </trkpt>
      <trkpt lat="44.81281" lon="4.61808">
        <ele>187.7</ele>
        <time>2023-06-14T19:08:44.725Z</time>
      </trkpt>
      <trkpt lat="44.8125" lon="4.61786">
        <ele>186.9</ele>
        <time>2023-06-14T19:09:00.161Z</time>
      </trkpt>
      <trkpt lat="44.81221" lon="4.61775">
        <ele>191</ele>
        <time>2023-06-14T19:09:13.614Z</time>
      </trkpt>
      <trkpt lat="44.81208" lon="4.61771">
        <ele>192.6</ele>
        <time>2023-06-14T19:09:19.562Z</time>
      </trkpt>
      <trkpt lat="44.81187" lon="4.61766">
        <ele>194.9</ele>
        <time>2023-06-14T19:09:29.082Z</time>
      </trkpt>
      <trkpt lat="44.81175" lon="4.61762">
        <ele>195.8</ele>
        <time>2023-06-14T19:09:34.577Z</time>
      </trkpt>
      <trkpt lat="44.81158" lon="4.61757">
        <ele>196.7</ele>
        <time>2023-06-14T19:09:42.307Z</time>
      </trkpt>
      <trkpt lat="44.81125" lon="4.61749">
        <ele>199.2</ele>
        <time>2023-06-14T19:09:57.235Z</time>
      </trkpt>
      <trkpt lat="44.81112" lon="4.61744">
        <ele>200</ele>
        <time>2023-06-14T19:10:03.233Z</time>
      </trkpt>
      <trkpt lat="44.81104" lon="4.61741">
        <ele>200.5</ele>
        <time>2023-06-14T19:10:06.918Z</time>
      </trkpt>
      <trkpt lat="44.81092" lon="4.61737">
        <ele>201.3</ele>
        <time>2023-06-14T19:10:12.412Z</time>
      </trkpt>
      <trkpt lat="44.81076" lon="4.6173">
        <ele>201</ele>
        <time>2023-06-14T19:10:19.867Z</time>
      </trkpt>
      <trkpt lat="44.81073" lon="4.61727">
        <ele>200.6</ele>
        <time>2023-06-14T19:10:21.513Z</time>
      </trkpt>
      <trkpt lat="44.81066" lon="4.61722">
        <ele>199.7</ele>
        <time>2023-06-14T19:10:25.017Z</time>
      </trkpt>
      <trkpt lat="44.81038" lon="4.61704">
        <ele>196.5</ele>
        <time>2023-06-14T19:10:38.760Z</time>
      </trkpt>
      <trkpt lat="44.81033" lon="4.61701">
        <ele>196.1</ele>
        <time>2023-06-14T19:10:41.188Z</time>
      </trkpt>
      <trkpt lat="44.81029" lon="4.61699">
        <ele>195.6</ele>
        <time>2023-06-14T19:10:43.079Z</time>
      </trkpt>
      <trkpt lat="44.81025" lon="4.61696">
        <ele>195.1</ele>
        <time>2023-06-14T19:10:45.107Z</time>
      </trkpt>
      <trkpt lat="44.81018" lon="4.61691">
        <ele>194</ele>
        <time>2023-06-14T19:10:48.621Z</time>
      </trkpt>
      <trkpt lat="44.81002" lon="4.61683">
        <ele>192.6</ele>
        <time>2023-06-14T19:10:56.194Z</time>
      </trkpt>
      <trkpt lat="44.80972" lon="4.61671">
        <ele>194.6</ele>
        <time>2023-06-14T19:11:10.082Z</time>
      </trkpt>
      <trkpt lat="44.80968" lon="4.61671">
        <ele>195.4</ele>
        <time>2023-06-14T19:11:11.889Z</time>
      </trkpt>
      <trkpt lat="44.80931" lon="4.61667">
        <ele>201.3</ele>
        <time>2023-06-14T19:11:28.556Z</time>
      </trkpt>
      <trkpt lat="44.80927" lon="4.61666">
        <ele>201.6</ele>
        <time>2023-06-14T19:11:30.372Z</time>
      </trkpt>
      <trkpt lat="44.80922" lon="4.61665">
        <ele>202.2</ele>
        <time>2023-06-14T19:11:32.626Z</time>
      </trkpt>
      <trkpt lat="44.80914" lon="4.61663">
        <ele>203</ele>
        <time>2023-06-14T19:11:36.252Z</time>
      </trkpt>
      <trkpt lat="44.80902" lon="4.61663">
        <ele>203.7</ele>
        <time>2023-06-14T19:11:41.597Z</time>
      </trkpt>
      <trkpt lat="44.80885" lon="4.61664">
        <ele>205.1</ele>
        <time>2023-06-14T19:11:49.183Z</time>
      </trkpt>
      <trkpt lat="44.80872" lon="4.61664">
        <ele>205.9</ele>
        <time>2023-06-14T19:11:54.978Z</time>
      </trkpt>
      <trkpt lat="44.80864" lon="4.61662">
        <ele>205.6</ele>
        <time>2023-06-14T19:11:58.591Z</time>
      </trkpt>
      <trkpt lat="44.80838" lon="4.61656">
        <ele>205.3</ele>
        <time>2023-06-14T19:12:10.307Z</time>
      </trkpt>
      <trkpt lat="44.8083" lon="4.61654">
        <ele>205.4</ele>
        <time>2023-06-14T19:12:13.919Z</time>
      </trkpt>
      <trkpt lat="44.80825" lon="4.61652">
        <ele>204.9</ele>
        <time>2023-06-14T19:12:16.239Z</time>
      </trkpt>
      <trkpt lat="44.80816" lon="4.61648">
        <ele>204.3</ele>
        <time>2023-06-14T19:12:20.444Z</time>
      </trkpt>
      <trkpt lat="44.80809" lon="4.61641">
        <ele>202.7</ele>
        <time>2023-06-14T19:12:24.312Z</time>
      </trkpt>
      <trkpt lat="44.80789" lon="4.61628">
        <ele>200.1</ele>
        <time>2023-06-14T19:12:34.160Z</time>
      </trkpt>
      <trkpt lat="44.80781" lon="4.61621">
        <ele>198.7</ele>
        <time>2023-06-14T19:12:38.386Z</time>
      </trkpt>
      <trkpt lat="44.8077" lon="4.61611">
        <ele>196.4</ele>
        <time>2023-06-14T19:12:44.277Z</time>
      </trkpt>
      <trkpt lat="44.80766" lon="4.61609">
        <ele>195.9</ele>
        <time>2023-06-14T19:12:46.178Z</time>
      </trkpt>
      <trkpt lat="44.80759" lon="4.61602">
        <ele>194.5</ele>
        <time>2023-06-14T19:12:50.032Z</time>
      </trkpt>
      <trkpt lat="44.80755" lon="4.61599">
        <ele>194</ele>
        <time>2023-06-14T19:12:52.060Z</time>
      </trkpt>
      <trkpt lat="44.8074" lon="4.61586">
        <ele>192.6</ele>
        <time>2023-06-14T19:12:59.915Z</time>
      </trkpt>
      <trkpt lat="44.80715" lon="4.61564">
        <ele>193.5</ele>
        <time>2023-06-14T19:13:13.023Z</time>
      </trkpt>
      <trkpt lat="44.80712" lon="4.61561">
        <ele>193.5</ele>
        <time>2023-06-14T19:13:14.659Z</time>
      </trkpt>
      <trkpt lat="44.80681" lon="4.61532">
        <ele>192.3</ele>
        <time>2023-06-14T19:13:31.210Z</time>
      </trkpt>
      <trkpt lat="44.80661" lon="4.6152">
        <ele>192.2</ele>
        <time>2023-06-14T19:13:40.877Z</time>
      </trkpt>
      <trkpt lat="44.80653" lon="4.61517">
        <ele>192.6</ele>
        <time>2023-06-14T19:13:44.568Z</time>
      </trkpt>
      <trkpt lat="44.80632" lon="4.61515">
        <ele>194.7</ele>
        <time>2023-06-14T19:13:53.962Z</time>
      </trkpt>
      <trkpt lat="44.80624" lon="4.61515">
        <ele>195.8</ele>
        <time>2023-06-14T19:13:57.542Z</time>
      </trkpt>
      <trkpt lat="44.80596" lon="4.61523">
        <ele>201.1</ele>
        <time>2023-06-14T19:14:10.430Z</time>
      </trkpt>
      <trkpt lat="44.80592" lon="4.61525">
        <ele>202.2</ele>
        <time>2023-06-14T19:14:12.363Z</time>
      </trkpt>
      <trkpt lat="44.8057" lon="4.61541">
        <ele>206.1</ele>
        <time>2023-06-14T19:14:23.482Z</time>
      </trkpt>
      <trkpt lat="44.80568" lon="4.61544">
        <ele>206.5</ele>
        <time>2023-06-14T19:14:24.793Z</time>
      </trkpt>
      <trkpt lat="44.80553" lon="4.61566">
        <ele>210.4</ele>
        <time>2023-06-14T19:14:34.543Z</time>
      </trkpt>
      <trkpt lat="44.80541" lon="4.61599">
        <ele>213.6</ele>
        <time>2023-06-14T19:14:46.317Z</time>
      </trkpt>
      <trkpt lat="44.8054" lon="4.61605">
        <ele>213.6</ele>
        <time>2023-06-14T19:14:48.260Z</time>
      </trkpt>
      <trkpt lat="44.80536" lon="4.61633">
        <ele>213.7</ele>
        <time>2023-06-14T19:14:57.271Z</time>
      </trkpt>
      <trkpt lat="44.8053" lon="4.61672">
        <ele>213.3</ele>
        <time>2023-06-14T19:15:09.865Z</time>
      </trkpt>
      <trkpt lat="44.8053" lon="4.61701">
        <ele>211.9</ele>
        <time>2023-06-14T19:15:19.026Z</time>
      </trkpt>
      <trkpt lat="44.80531" lon="4.61736">
        <ele>210.3</ele>
        <time>2023-06-14T19:15:30.097Z</time>
      </trkpt>
      <trkpt lat="44.80531" lon="4.61747">
        <ele>209.8</ele>
        <time>2023-06-14T19:15:33.573Z</time>
      </trkpt>
      <trkpt lat="44.80531" lon="4.61787">
        <ele>209</ele>
        <time>2023-06-14T19:15:46.202Z</time>
      </trkpt>
      <trkpt lat="44.80533" lon="4.61822">
        <ele>208.6</ele>
        <time>2023-06-14T19:15:57.278Z</time>
      </trkpt>
      <trkpt lat="44.80534" lon="4.6183">
        <ele>208.5</ele>
        <time>2023-06-14T19:15:59.846Z</time>
      </trkpt>
      <trkpt lat="44.80535" lon="4.61833">
        <ele>208.6</ele>
        <time>2023-06-14T19:16:00.893Z</time>
      </trkpt>
      <trkpt lat="44.80536" lon="4.61841">
        <ele>208.4</ele>
        <time>2023-06-14T19:16:03.455Z</time>
      </trkpt>
      <trkpt lat="44.80542" lon="4.61852">
        <ele>208.5</ele>
        <time>2023-06-14T19:16:07.832Z</time>
      </trkpt>
      <trkpt lat="44.80545" lon="4.61859">
        <ele>208.5</ele>
        <time>2023-06-14T19:16:10.414Z</time>
      </trkpt>
      <trkpt lat="44.80551" lon="4.61876">
        <ele>208.5</ele>
        <time>2023-06-14T19:16:16.405Z</time>
      </trkpt>
      <trkpt lat="44.80553" lon="4.61878">
        <ele>208.6</ele>
        <time>2023-06-14T19:16:17.494Z</time>
      </trkpt>
      <trkpt lat="44.80555" lon="4.61877">
        <ele>208.8</ele>
        <time>2023-06-14T19:16:18.447Z</time>
      </trkpt>
      <trkpt lat="44.80558" lon="4.61872">
        <ele>209.1</ele>
        <time>2023-06-14T19:16:20.517Z</time>
      </trkpt>
      <trkpt lat="44.80562" lon="4.61857">
        <ele>209.8</ele>
        <time>2023-06-14T19:16:25.580Z</time>
      </trkpt>
    </trkseg>
  </trk>
</gpx>